<?xml version='1.0' encoding='UTF-8'?><gpx version="1.1" creator="JPX - https://github.com/jenetics/jpx" xmlns="http://www.topografix.com/GPX/1/1"><trk><trkseg><trkpt lat="44.9922328" lon="7.5291208"><ele>268.0</ele><time>2026-05-03T14:37:54.318Z</time></trkpt><trkpt lat="44.9922029" lon="7.5292293"><ele>268.0</ele><time>2026-05-03T14:37:55.318Z</time></trkpt><trkpt lat="44.9921642" lon="7.5293549"><ele>268.0</ele><time>2026-05-03T14:37:56.317Z</time></trkpt><trkpt lat="44.9921244" lon="7.5294897"><ele>268.0</ele><time>2026-05-03T14:37:57.318Z</time></trkpt><trkpt lat="44.9920842" lon="7.5296212"><ele>268.0</ele><time>2026-05-03T14:37:58.317Z</time></trkpt><trkpt lat="44.9920438" lon="7.5297521"><ele>268.0</ele><time>2026-05-03T14:37:59.318Z</time></trkpt><trkpt lat="44.992004" lon="7.5298756"><ele>268.0</ele><time>2026-05-03T14:38:00.317Z</time></trkpt><trkpt lat="44.9919712" lon="7.5299872"><ele>268.0</ele><time>2026-05-03T14:38:01.318Z</time></trkpt><trkpt lat="44.9919397" lon="7.5300864"><ele>268.0</ele><time>2026-05-03T14:38:02.318Z</time></trkpt><trkpt lat="44.9919029" lon="7.5301969"><ele>268.0</ele><time>2026-05-03T14:38:03.317Z</time></trkpt><trkpt lat="44.9918633" lon="7.5303123"><ele>268.0</ele><time>2026-05-03T14:38:04.317Z</time></trkpt><trkpt lat="44.9918241" lon="7.5304255"><ele>268.0</ele><time>2026-05-03T14:38:05.317Z</time></trkpt><trkpt lat="44.9917863" lon="7.53052"><ele>268.0</ele><time>2026-05-03T14:38:06.317Z</time></trkpt><trkpt lat="44.9917474" lon="7.5306047"><ele>268.0</ele><time>2026-05-03T14:38:07.317Z</time></trkpt><trkpt lat="44.9917075" lon="7.5306801"><ele>268.0</ele><time>2026-05-03T14:38:08.317Z</time></trkpt><trkpt lat="44.9916208" lon="7.5307767"><ele>268.0</ele><time>2026-05-03T14:38:10.317Z</time></trkpt><trkpt lat="44.9915496" lon="7.5308163"><ele>268.0</ele><time>2026-05-03T14:38:11.317Z</time></trkpt><trkpt lat="44.991461" lon="7.5308314"><ele>268.25</ele><time>2026-05-03T14:38:12.318Z</time></trkpt><trkpt lat="44.9913557" lon="7.5308378"><ele>268.5</ele><time>2026-05-03T14:38:13.318Z</time></trkpt><trkpt lat="44.9912315" lon="7.5308351"><ele>268.75</ele><time>2026-05-03T14:38:14.318Z</time></trkpt><trkpt lat="44.9910751" lon="7.5308296"><ele>269.0</ele><time>2026-05-03T14:38:15.316Z</time></trkpt><trkpt lat="44.9909001" lon="7.5308206"><ele>268.33333333333337</ele><time>2026-05-03T14:38:16.318Z</time></trkpt><trkpt lat="44.9907264" lon="7.5308128"><ele>267.6666666666667</ele><time>2026-05-03T14:38:17.317Z</time></trkpt><trkpt lat="44.9905558" lon="7.5308023"><ele>267.0</ele><time>2026-05-03T14:38:18.318Z</time></trkpt><trkpt lat="44.9903892" lon="7.5307884"><ele>267.0</ele><time>2026-05-03T14:38:19.319Z</time></trkpt><trkpt lat="44.990224" lon="7.5307864"><ele>267.0</ele><time>2026-05-03T14:38:20.318Z</time></trkpt><trkpt lat="44.9900582" lon="7.5307819"><ele>267.0</ele><time>2026-05-03T14:38:21.317Z</time></trkpt><trkpt lat="44.989898" lon="7.5307746"><ele>268.0</ele><time>2026-05-03T14:38:22.318Z</time></trkpt><trkpt lat="44.9897366" lon="7.5307651"><ele>269.0</ele><time>2026-05-03T14:38:23.318Z</time></trkpt><trkpt lat="44.9895757" lon="7.5307514"><ele>270.0</ele><time>2026-05-03T14:38:24.317Z</time></trkpt><trkpt lat="44.9894156" lon="7.5307362"><ele>270.0</ele><time>2026-05-03T14:38:25.317Z</time></trkpt><trkpt lat="44.9892489" lon="7.5307165"><ele>270.0</ele><time>2026-05-03T14:38:26.317Z</time></trkpt><trkpt lat="44.9890888" lon="7.530693"><ele>270.0</ele><time>2026-05-03T14:38:27.317Z</time></trkpt><trkpt lat="44.9889204" lon="7.5306762"><ele>269.6666666666667</ele><time>2026-05-03T14:38:28.317Z</time></trkpt><trkpt lat="44.9887522" lon="7.5306574"><ele>269.33333333333337</ele><time>2026-05-03T14:38:29.316Z</time></trkpt><trkpt lat="44.9885901" lon="7.530636"><ele>269.0</ele><time>2026-05-03T14:38:30.317Z</time></trkpt><trkpt lat="44.9884352" lon="7.5306174"><ele>269.0</ele><time>2026-05-03T14:38:31.319Z</time></trkpt><trkpt lat="44.9882836" lon="7.5305981"><ele>269.0</ele><time>2026-05-03T14:38:32.317Z</time></trkpt><trkpt lat="44.9881337" lon="7.5305779"><ele>269.0</ele><time>2026-05-03T14:38:33.316Z</time></trkpt><trkpt lat="44.9879795" lon="7.5305518"><ele>269.0</ele><time>2026-05-03T14:38:34.317Z</time></trkpt><trkpt lat="44.9878371" lon="7.5305149"><ele>269.0</ele><time>2026-05-03T14:38:35.317Z</time></trkpt><trkpt lat="44.9877006" lon="7.5304874"><ele>269.0</ele><time>2026-05-03T14:38:36.318Z</time></trkpt><trkpt lat="44.9875686" lon="7.5304448"><ele>269.0</ele><time>2026-05-03T14:38:37.319Z</time></trkpt><trkpt lat="44.98744" lon="7.5303963"><ele>268.25</ele><time>2026-05-03T14:38:38.317Z</time></trkpt><trkpt lat="44.9873154" lon="7.5303502"><ele>267.5</ele><time>2026-05-03T14:38:39.317Z</time></trkpt><trkpt lat="44.9872103" lon="7.5302979"><ele>266.75</ele><time>2026-05-03T14:38:40.317Z</time></trkpt><trkpt lat="44.9871172" lon="7.5302216"><ele>266.0</ele><time>2026-05-03T14:38:41.318Z</time></trkpt><trkpt lat="44.9870235" lon="7.5301441"><ele>266.0</ele><time>2026-05-03T14:38:42.317Z</time></trkpt><trkpt lat="44.9869272" lon="7.5300946"><ele>266.0</ele><time>2026-05-03T14:38:43.318Z</time></trkpt><trkpt lat="44.9868138" lon="7.5300722"><ele>266.0</ele><time>2026-05-03T14:38:44.317Z</time></trkpt><trkpt lat="44.9866823" lon="7.5300369"><ele>266.0</ele><time>2026-05-03T14:38:45.318Z</time></trkpt><trkpt lat="44.986543" lon="7.5299743"><ele>266.0</ele><time>2026-05-03T14:38:46.317Z</time></trkpt><trkpt lat="44.9863894" lon="7.5298791"><ele>266.0</ele><time>2026-05-03T14:38:47.317Z</time></trkpt><trkpt lat="44.9862316" lon="7.529774"><ele>266.0</ele><time>2026-05-03T14:38:48.318Z</time></trkpt><trkpt lat="44.9860638" lon="7.5296721"><ele>266.0</ele><time>2026-05-03T14:38:49.319Z</time></trkpt><trkpt lat="44.9859016" lon="7.5295746"><ele>266.0</ele><time>2026-05-03T14:38:50.317Z</time></trkpt><trkpt lat="44.9857361" lon="7.5294722"><ele>266.0</ele><time>2026-05-03T14:38:51.317Z</time></trkpt><trkpt lat="44.9855735" lon="7.5293647"><ele>266.33333333333337</ele><time>2026-05-03T14:38:52.317Z</time></trkpt><trkpt lat="44.9854083" lon="7.5292594"><ele>266.6666666666667</ele><time>2026-05-03T14:38:53.317Z</time></trkpt><trkpt lat="44.9852396" lon="7.5291569"><ele>267.0</ele><time>2026-05-03T14:38:54.317Z</time></trkpt><trkpt lat="44.9850738" lon="7.5290509"><ele>266.6666666666667</ele><time>2026-05-03T14:38:55.317Z</time></trkpt><trkpt lat="44.9849064" lon="7.5289457"><ele>266.33333333333337</ele><time>2026-05-03T14:38:56.317Z</time></trkpt><trkpt lat="44.9847438" lon="7.5288422"><ele>266.0</ele><time>2026-05-03T14:38:57.317Z</time></trkpt><trkpt lat="44.9845879" lon="7.5287436"><ele>265.6666666666667</ele><time>2026-05-03T14:38:58.317Z</time></trkpt><trkpt lat="44.9844415" lon="7.5286541"><ele>265.3333333333333</ele><time>2026-05-03T14:38:59.318Z</time></trkpt><trkpt lat="44.9843046" lon="7.5285661"><ele>265.0</ele><time>2026-05-03T14:39:00.318Z</time></trkpt><trkpt lat="44.984169" lon="7.5284802"><ele>265.0</ele><time>2026-05-03T14:39:01.317Z</time></trkpt><trkpt lat="44.984033" lon="7.5283896"><ele>265.0</ele><time>2026-05-03T14:39:02.316Z</time></trkpt><trkpt lat="44.9838944" lon="7.5282939"><ele>265.0</ele><time>2026-05-03T14:39:03.317Z</time></trkpt><trkpt lat="44.9837556" lon="7.5282028"><ele>265.0</ele><time>2026-05-03T14:39:04.317Z</time></trkpt><trkpt lat="44.9836107" lon="7.5281122"><ele>265.0</ele><time>2026-05-03T14:39:05.317Z</time></trkpt><trkpt lat="44.9834643" lon="7.5280176"><ele>265.0</ele><time>2026-05-03T14:39:06.318Z</time></trkpt><trkpt lat="44.9833134" lon="7.5279178"><ele>265.3333333333333</ele><time>2026-05-03T14:39:07.317Z</time></trkpt><trkpt lat="44.9831633" lon="7.5278242"><ele>265.6666666666667</ele><time>2026-05-03T14:39:08.317Z</time></trkpt><trkpt lat="44.9830156" lon="7.5277313"><ele>266.0</ele><time>2026-05-03T14:39:09.317Z</time></trkpt><trkpt lat="44.9828666" lon="7.5276371"><ele>266.0</ele><time>2026-05-03T14:39:10.317Z</time></trkpt><trkpt lat="44.9827225" lon="7.5275439"><ele>266.0</ele><time>2026-05-03T14:39:11.318Z</time></trkpt><trkpt lat="44.9825816" lon="7.5274564"><ele>266.0</ele><time>2026-05-03T14:39:12.318Z</time></trkpt><trkpt lat="44.9824422" lon="7.5273616"><ele>265.5</ele><time>2026-05-03T14:39:13.316Z</time></trkpt><trkpt lat="44.9823072" lon="7.5272781"><ele>265.0</ele><time>2026-05-03T14:39:14.318Z</time></trkpt><trkpt lat="44.9821828" lon="7.5271955"><ele>264.5</ele><time>2026-05-03T14:39:15.317Z</time></trkpt><trkpt lat="44.9820554" lon="7.5271201"><ele>264.0</ele><time>2026-05-03T14:39:16.317Z</time></trkpt><trkpt lat="44.981932" lon="7.5270381"><ele>264.0</ele><time>2026-05-03T14:39:17.318Z</time></trkpt><trkpt lat="44.9818137" lon="7.5269572"><ele>264.0</ele><time>2026-05-03T14:39:18.318Z</time></trkpt><trkpt lat="44.9817025" lon="7.5268881"><ele>264.0</ele><time>2026-05-03T14:39:19.316Z</time></trkpt><trkpt lat="44.9815976" lon="7.5268245"><ele>264.0</ele><time>2026-05-03T14:39:20.316Z</time></trkpt><trkpt lat="44.9814988" lon="7.5267641"><ele>264.0</ele><time>2026-05-03T14:39:21.317Z</time></trkpt><trkpt lat="44.9814088" lon="7.5267088"><ele>264.0</ele><time>2026-05-03T14:39:22.317Z</time></trkpt><trkpt lat="44.9813163" lon="7.5266274"><ele>264.0</ele><time>2026-05-03T14:39:23.318Z</time></trkpt><trkpt lat="44.9812084" lon="7.5265542"><ele>264.0</ele><time>2026-05-03T14:39:24.317Z</time></trkpt><trkpt lat="44.9810863" lon="7.5264823"><ele>264.0</ele><time>2026-05-03T14:39:25.318Z</time></trkpt><trkpt lat="44.9809451" lon="7.5263982"><ele>264.0</ele><time>2026-05-03T14:39:26.318Z</time></trkpt><trkpt lat="44.9808035" lon="7.5263106"><ele>264.0</ele><time>2026-05-03T14:39:27.316Z</time></trkpt><trkpt lat="44.9806627" lon="7.5262233"><ele>264.0</ele><time>2026-05-03T14:39:28.317Z</time></trkpt><trkpt lat="44.9805157" lon="7.5261309"><ele>264.0</ele><time>2026-05-03T14:39:29.318Z</time></trkpt><trkpt lat="44.980368" lon="7.5260414"><ele>264.0</ele><time>2026-05-03T14:39:30.317Z</time></trkpt><trkpt lat="44.9802173" lon="7.525947"><ele>264.0</ele><time>2026-05-03T14:39:31.317Z</time></trkpt><trkpt lat="44.9800669" lon="7.5258483"><ele>264.0</ele><time>2026-05-03T14:39:32.319Z</time></trkpt><trkpt lat="44.9799257" lon="7.5257569"><ele>264.0</ele><time>2026-05-03T14:39:33.317Z</time></trkpt><trkpt lat="44.9797778" lon="7.5256667"><ele>264.0</ele><time>2026-05-03T14:39:34.318Z</time></trkpt><trkpt lat="44.9796372" lon="7.5255774"><ele>264.0</ele><time>2026-05-03T14:39:35.319Z</time></trkpt><trkpt lat="44.9795003" lon="7.525482"><ele>264.0</ele><time>2026-05-03T14:39:36.317Z</time></trkpt><trkpt lat="44.9793615" lon="7.5253936"><ele>264.3333333333333</ele><time>2026-05-03T14:39:37.317Z</time></trkpt><trkpt lat="44.9792141" lon="7.5253011"><ele>264.66666666666663</ele><time>2026-05-03T14:39:38.318Z</time></trkpt><trkpt lat="44.9790714" lon="7.5252051"><ele>265.0</ele><time>2026-05-03T14:39:39.318Z</time></trkpt><trkpt lat="44.9789317" lon="7.5251158"><ele>264.0</ele><time>2026-05-03T14:39:40.319Z</time></trkpt><trkpt lat="44.9787949" lon="7.5250312"><ele>263.0</ele><time>2026-05-03T14:39:41.317Z</time></trkpt><trkpt lat="44.9786566" lon="7.5249483"><ele>262.0</ele><time>2026-05-03T14:39:42.318Z</time></trkpt><trkpt lat="44.9785184" lon="7.5248603"><ele>262.0</ele><time>2026-05-03T14:39:43.318Z</time></trkpt><trkpt lat="44.9783874" lon="7.5247732"><ele>262.0</ele><time>2026-05-03T14:39:44.317Z</time></trkpt><trkpt lat="44.9782577" lon="7.5246798"><ele>262.0</ele><time>2026-05-03T14:39:45.318Z</time></trkpt><trkpt lat="44.9781234" lon="7.52458"><ele>262.0</ele><time>2026-05-03T14:39:46.317Z</time></trkpt><trkpt lat="44.9779854" lon="7.5244891"><ele>262.0</ele><time>2026-05-03T14:39:47.318Z</time></trkpt><trkpt lat="44.9778495" lon="7.5244017"><ele>262.0</ele><time>2026-05-03T14:39:48.317Z</time></trkpt><trkpt lat="44.9777211" lon="7.5243091"><ele>262.0</ele><time>2026-05-03T14:39:49.316Z</time></trkpt><trkpt lat="44.9775999" lon="7.524225"><ele>262.0</ele><time>2026-05-03T14:39:50.316Z</time></trkpt><trkpt lat="44.9774948" lon="7.5241402"><ele>261.8</ele><time>2026-05-03T14:39:51.318Z</time></trkpt><trkpt lat="44.9774034" lon="7.5240621"><ele>261.6</ele><time>2026-05-03T14:39:52.317Z</time></trkpt><trkpt lat="44.9773114" lon="7.5239761"><ele>261.40000000000003</ele><time>2026-05-03T14:39:53.317Z</time></trkpt><trkpt lat="44.9772406" lon="7.5238832"><ele>261.2</ele><time>2026-05-03T14:39:54.319Z</time></trkpt><trkpt lat="44.9771857" lon="7.5237757"><ele>261.0</ele><time>2026-05-03T14:39:55.318Z</time></trkpt><trkpt lat="44.9771349" lon="7.5236738"><ele>260.8</ele><time>2026-05-03T14:39:56.316Z</time></trkpt><trkpt lat="44.9770913" lon="7.5235726"><ele>260.6</ele><time>2026-05-03T14:39:57.317Z</time></trkpt><trkpt lat="44.9770616" lon="7.5234779"><ele>260.4</ele><time>2026-05-03T14:39:58.318Z</time></trkpt><trkpt lat="44.9770212" lon="7.5233973"><ele>260.2</ele><time>2026-05-03T14:39:59.318Z</time></trkpt><trkpt lat="44.9769254" lon="7.5233081"><ele>260.0</ele><time>2026-05-03T14:40:01.318Z</time></trkpt><trkpt lat="44.9767951" lon="7.5233145"><ele>260.0</ele><time>2026-05-03T14:40:03.317Z</time></trkpt><trkpt lat="44.976701" lon="7.5233292"><ele>260.0</ele><time>2026-05-03T14:40:04.318Z</time></trkpt><trkpt lat="44.9765837" lon="7.5233105"><ele>260.0</ele><time>2026-05-03T14:40:05.317Z</time></trkpt><trkpt lat="44.97646" lon="7.5232634"><ele>260.0</ele><time>2026-05-03T14:40:06.317Z</time></trkpt><trkpt lat="44.9763253" lon="7.5231867"><ele>259.75</ele><time>2026-05-03T14:40:07.318Z</time></trkpt><trkpt lat="44.9761959" lon="7.5231011"><ele>259.5</ele><time>2026-05-03T14:40:08.318Z</time></trkpt><trkpt lat="44.9760631" lon="7.5230119"><ele>259.25</ele><time>2026-05-03T14:40:09.317Z</time></trkpt><trkpt lat="44.9759313" lon="7.5229164"><ele>259.0</ele><time>2026-05-03T14:40:10.317Z</time></trkpt><trkpt lat="44.9758003" lon="7.5228069"><ele>259.0</ele><time>2026-05-03T14:40:11.318Z</time></trkpt><trkpt lat="44.9756723" lon="7.5226922"><ele>259.0</ele><time>2026-05-03T14:40:12.318Z</time></trkpt><trkpt lat="44.9755432" lon="7.5225668"><ele>259.0</ele><time>2026-05-03T14:40:13.317Z</time></trkpt><trkpt lat="44.9754107" lon="7.5224507"><ele>259.0</ele><time>2026-05-03T14:40:14.316Z</time></trkpt><trkpt lat="44.9752924" lon="7.5223353"><ele>259.0</ele><time>2026-05-03T14:40:15.316Z</time></trkpt><trkpt lat="44.9751789" lon="7.5222076"><ele>259.0</ele><time>2026-05-03T14:40:16.316Z</time></trkpt><trkpt lat="44.9750721" lon="7.5220767"><ele>259.0</ele><time>2026-05-03T14:40:17.317Z</time></trkpt><trkpt lat="44.9749835" lon="7.5219456"><ele>259.4</ele><time>2026-05-03T14:40:18.316Z</time></trkpt><trkpt lat="44.9749088" lon="7.5218179"><ele>259.79999999999995</ele><time>2026-05-03T14:40:19.317Z</time></trkpt><trkpt lat="44.9748392" lon="7.5217023"><ele>260.20000000000005</ele><time>2026-05-03T14:40:20.317Z</time></trkpt><trkpt lat="44.974774" lon="7.5215836"><ele>260.6</ele><time>2026-05-03T14:40:21.318Z</time></trkpt><trkpt lat="44.9747105" lon="7.5214668"><ele>261.0</ele><time>2026-05-03T14:40:22.317Z</time></trkpt><trkpt lat="44.9746425" lon="7.5213396"><ele>260.8</ele><time>2026-05-03T14:40:23.317Z</time></trkpt><trkpt lat="44.9745775" lon="7.5212136"><ele>260.6</ele><time>2026-05-03T14:40:24.316Z</time></trkpt><trkpt lat="44.9745149" lon="7.5210833"><ele>260.4</ele><time>2026-05-03T14:40:25.317Z</time></trkpt><trkpt lat="44.9744527" lon="7.5209577"><ele>260.2</ele><time>2026-05-03T14:40:26.317Z</time></trkpt><trkpt lat="44.9743959" lon="7.520836"><ele>260.0</ele><time>2026-05-03T14:40:27.317Z</time></trkpt><trkpt lat="44.9743446" lon="7.5207298"><ele>260.0</ele><time>2026-05-03T14:40:28.317Z</time></trkpt><trkpt lat="44.9743048" lon="7.5206266"><ele>260.0</ele><time>2026-05-03T14:40:29.316Z</time></trkpt><trkpt lat="44.9742695" lon="7.5205137"><ele>260.0</ele><time>2026-05-03T14:40:30.316Z</time></trkpt><trkpt lat="44.9742313" lon="7.5203878"><ele>260.0</ele><time>2026-05-03T14:40:31.316Z</time></trkpt><trkpt lat="44.9741961" lon="7.5202485"><ele>260.0</ele><time>2026-05-03T14:40:32.316Z</time></trkpt><trkpt lat="44.9741599" lon="7.5201061"><ele>260.0</ele><time>2026-05-03T14:40:33.317Z</time></trkpt><trkpt lat="44.9741252" lon="7.5199704"><ele>260.0</ele><time>2026-05-03T14:40:34.318Z</time></trkpt><trkpt lat="44.97409" lon="7.5198353"><ele>260.0</ele><time>2026-05-03T14:40:35.318Z</time></trkpt><trkpt lat="44.9740565" lon="7.5197056"><ele>260.0</ele><time>2026-05-03T14:40:36.317Z</time></trkpt><trkpt lat="44.9740229" lon="7.5195762"><ele>260.0</ele><time>2026-05-03T14:40:37.319Z</time></trkpt><trkpt lat="44.9739917" lon="7.5194404"><ele>260.0</ele><time>2026-05-03T14:40:38.317Z</time></trkpt><trkpt lat="44.9739417" lon="7.5192894"><ele>260.0</ele><time>2026-05-03T14:40:39.317Z</time></trkpt><trkpt lat="44.9738726" lon="7.5191111"><ele>260.0</ele><time>2026-05-03T14:40:40.317Z</time></trkpt><trkpt lat="44.9737872" lon="7.5189005"><ele>260.0</ele><time>2026-05-03T14:40:41.318Z</time></trkpt><trkpt lat="44.9737058" lon="7.5186829"><ele>260.33333333333337</ele><time>2026-05-03T14:40:42.318Z</time></trkpt><trkpt lat="44.9736226" lon="7.5184713"><ele>260.6666666666667</ele><time>2026-05-03T14:40:43.317Z</time></trkpt><trkpt lat="44.9735426" lon="7.5182621"><ele>261.0</ele><time>2026-05-03T14:40:44.317Z</time></trkpt><trkpt lat="44.9734657" lon="7.5180651"><ele>261.0</ele><time>2026-05-03T14:40:45.317Z</time></trkpt><trkpt lat="44.9733981" lon="7.5178803"><ele>261.0</ele><time>2026-05-03T14:40:46.316Z</time></trkpt><trkpt lat="44.9733211" lon="7.5176997"><ele>261.0</ele><time>2026-05-03T14:40:47.317Z</time></trkpt><trkpt lat="44.9732412" lon="7.5175123"><ele>260.6666666666667</ele><time>2026-05-03T14:40:48.317Z</time></trkpt><trkpt lat="44.9731594" lon="7.5173145"><ele>260.33333333333337</ele><time>2026-05-03T14:40:49.317Z</time></trkpt><trkpt lat="44.9730789" lon="7.5171307"><ele>260.0</ele><time>2026-05-03T14:40:50.317Z</time></trkpt><trkpt lat="44.9729919" lon="7.5169498"><ele>260.0</ele><time>2026-05-03T14:40:51.317Z</time></trkpt><trkpt lat="44.9729033" lon="7.5167709"><ele>260.0</ele><time>2026-05-03T14:40:52.317Z</time></trkpt><trkpt lat="44.9728163" lon="7.5165821"><ele>260.0</ele><time>2026-05-03T14:40:53.318Z</time></trkpt><trkpt lat="44.9727294" lon="7.516401"><ele>259.6666666666667</ele><time>2026-05-03T14:40:54.317Z</time></trkpt><trkpt lat="44.9726393" lon="7.5162237"><ele>259.3333333333333</ele><time>2026-05-03T14:40:55.316Z</time></trkpt><trkpt lat="44.9725459" lon="7.5160496"><ele>259.0</ele><time>2026-05-03T14:40:56.317Z</time></trkpt><trkpt lat="44.972454" lon="7.5158851"><ele>259.0</ele><time>2026-05-03T14:40:57.316Z</time></trkpt><trkpt lat="44.9723676" lon="7.5157329"><ele>259.0</ele><time>2026-05-03T14:40:58.318Z</time></trkpt><trkpt lat="44.9722858" lon="7.5155842"><ele>259.0</ele><time>2026-05-03T14:40:59.316Z</time></trkpt><trkpt lat="44.9722125" lon="7.5154446"><ele>259.0</ele><time>2026-05-03T14:41:00.318Z</time></trkpt><trkpt lat="44.9721444" lon="7.5153165"><ele>259.4</ele><time>2026-05-03T14:41:01.317Z</time></trkpt><trkpt lat="44.9720819" lon="7.5151984"><ele>259.79999999999995</ele><time>2026-05-03T14:41:02.317Z</time></trkpt><trkpt lat="44.9720266" lon="7.5150875"><ele>260.20000000000005</ele><time>2026-05-03T14:41:03.316Z</time></trkpt><trkpt lat="44.9719643" lon="7.5149876"><ele>260.6</ele><time>2026-05-03T14:41:04.316Z</time></trkpt><trkpt lat="44.9718988" lon="7.5148868"><ele>261.0</ele><time>2026-05-03T14:41:05.316Z</time></trkpt><trkpt lat="44.9718293" lon="7.5147924"><ele>261.0</ele><time>2026-05-03T14:41:06.316Z</time></trkpt><trkpt lat="44.971745" lon="7.5146893"><ele>261.0</ele><time>2026-05-03T14:41:07.316Z</time></trkpt><trkpt lat="44.9716521" lon="7.5145646"><ele>261.0</ele><time>2026-05-03T14:41:08.317Z</time></trkpt><trkpt lat="44.9715503" lon="7.5144321"><ele>261.0</ele><time>2026-05-03T14:41:09.318Z</time></trkpt><trkpt lat="44.9714424" lon="7.5142793"><ele>260.6666666666667</ele><time>2026-05-03T14:41:10.317Z</time></trkpt><trkpt lat="44.9713321" lon="7.5141262"><ele>260.33333333333337</ele><time>2026-05-03T14:41:11.316Z</time></trkpt><trkpt lat="44.9712239" lon="7.5139737"><ele>260.0</ele><time>2026-05-03T14:41:12.316Z</time></trkpt><trkpt lat="44.9711147" lon="7.5138294"><ele>260.0</ele><time>2026-05-03T14:41:13.317Z</time></trkpt><trkpt lat="44.9710059" lon="7.5136861"><ele>260.0</ele><time>2026-05-03T14:41:14.317Z</time></trkpt><trkpt lat="44.9708989" lon="7.5135434"><ele>260.0</ele><time>2026-05-03T14:41:15.318Z</time></trkpt><trkpt lat="44.9707854" lon="7.5134031"><ele>260.0</ele><time>2026-05-03T14:41:16.316Z</time></trkpt><trkpt lat="44.9706722" lon="7.5132602"><ele>259.75</ele><time>2026-05-03T14:41:17.317Z</time></trkpt><trkpt lat="44.9705604" lon="7.5131244"><ele>259.5</ele><time>2026-05-03T14:41:18.317Z</time></trkpt><trkpt lat="44.9704519" lon="7.5130022"><ele>259.25</ele><time>2026-05-03T14:41:19.317Z</time></trkpt><trkpt lat="44.9703453" lon="7.5128801"><ele>259.0</ele><time>2026-05-03T14:41:20.317Z</time></trkpt><trkpt lat="44.9702402" lon="7.5127656"><ele>259.0</ele><time>2026-05-03T14:41:21.317Z</time></trkpt><trkpt lat="44.9701445" lon="7.5126664"><ele>259.0</ele><time>2026-05-03T14:41:22.316Z</time></trkpt><trkpt lat="44.9700541" lon="7.512561"><ele>259.0</ele><time>2026-05-03T14:41:23.317Z</time></trkpt><trkpt lat="44.9699657" lon="7.5124645"><ele>259.0</ele><time>2026-05-03T14:41:24.317Z</time></trkpt><trkpt lat="44.9698883" lon="7.5123672"><ele>258.59999999999997</ele><time>2026-05-03T14:41:25.316Z</time></trkpt><trkpt lat="44.9698067" lon="7.5122892"><ele>258.2</ele><time>2026-05-03T14:41:26.317Z</time></trkpt><trkpt lat="44.9697403" lon="7.5122085"><ele>257.79999999999995</ele><time>2026-05-03T14:41:27.317Z</time></trkpt><trkpt lat="44.9696683" lon="7.5121328"><ele>257.4</ele><time>2026-05-03T14:41:28.317Z</time></trkpt><trkpt lat="44.9695989" lon="7.5120617"><ele>257.0</ele><time>2026-05-03T14:41:29.316Z</time></trkpt><trkpt lat="44.969529" lon="7.5119808"><ele>257.2</ele><time>2026-05-03T14:41:30.316Z</time></trkpt><trkpt lat="44.9694543" lon="7.5119015"><ele>257.4</ele><time>2026-05-03T14:41:31.317Z</time></trkpt><trkpt lat="44.969378" lon="7.5118178"><ele>257.6</ele><time>2026-05-03T14:41:32.316Z</time></trkpt><trkpt lat="44.9692978" lon="7.5117357"><ele>257.8</ele><time>2026-05-03T14:41:33.316Z</time></trkpt><trkpt lat="44.969221" lon="7.5116558"><ele>258.0</ele><time>2026-05-03T14:41:34.318Z</time></trkpt><trkpt lat="44.969144" lon="7.5115757"><ele>258.0</ele><time>2026-05-03T14:41:35.317Z</time></trkpt><trkpt lat="44.9690605" lon="7.5114936"><ele>258.0</ele><time>2026-05-03T14:41:36.317Z</time></trkpt><trkpt lat="44.9689834" lon="7.5114075"><ele>258.0</ele><time>2026-05-03T14:41:37.316Z</time></trkpt><trkpt lat="44.9689068" lon="7.5113187"><ele>258.0</ele><time>2026-05-03T14:41:38.316Z</time></trkpt><trkpt lat="44.9688241" lon="7.5112281"><ele>258.0</ele><time>2026-05-03T14:41:39.316Z</time></trkpt><trkpt lat="44.9687481" lon="7.5111392"><ele>258.0</ele><time>2026-05-03T14:41:40.316Z</time></trkpt><trkpt lat="44.9686724" lon="7.5110612"><ele>258.0</ele><time>2026-05-03T14:41:41.316Z</time></trkpt><trkpt lat="44.9685949" lon="7.5109742"><ele>258.0</ele><time>2026-05-03T14:41:42.316Z</time></trkpt><trkpt lat="44.9685187" lon="7.5108897"><ele>258.0</ele><time>2026-05-03T14:41:43.317Z</time></trkpt><trkpt lat="44.9684398" lon="7.5108087"><ele>258.0</ele><time>2026-05-03T14:41:44.316Z</time></trkpt><trkpt lat="44.9683585" lon="7.510722"><ele>258.0</ele><time>2026-05-03T14:41:45.317Z</time></trkpt><trkpt lat="44.9682803" lon="7.5106378"><ele>258.0</ele><time>2026-05-03T14:41:46.318Z</time></trkpt><trkpt lat="44.9682036" lon="7.510563"><ele>258.0</ele><time>2026-05-03T14:41:47.316Z</time></trkpt><trkpt lat="44.968131" lon="7.510492"><ele>258.0</ele><time>2026-05-03T14:41:48.317Z</time></trkpt><trkpt lat="44.9680577" lon="7.5104204"><ele>258.0</ele><time>2026-05-03T14:41:49.317Z</time></trkpt><trkpt lat="44.9679788" lon="7.5103351"><ele>258.0</ele><time>2026-05-03T14:41:50.318Z</time></trkpt><trkpt lat="44.9679007" lon="7.5102503"><ele>258.0</ele><time>2026-05-03T14:41:51.318Z</time></trkpt><trkpt lat="44.9678204" lon="7.5101553"><ele>258.0</ele><time>2026-05-03T14:41:52.318Z</time></trkpt><trkpt lat="44.9677342" lon="7.5100645"><ele>258.0</ele><time>2026-05-03T14:41:53.316Z</time></trkpt><trkpt lat="44.9676475" lon="7.5099659"><ele>258.0</ele><time>2026-05-03T14:41:54.317Z</time></trkpt><trkpt lat="44.9675435" lon="7.5098535"><ele>258.2</ele><time>2026-05-03T14:41:55.316Z</time></trkpt><trkpt lat="44.9674448" lon="7.5097469"><ele>258.4</ele><time>2026-05-03T14:41:56.317Z</time></trkpt><trkpt lat="44.9673553" lon="7.5096486"><ele>258.59999999999997</ele><time>2026-05-03T14:41:57.318Z</time></trkpt><trkpt lat="44.9672789" lon="7.5095456"><ele>258.8</ele><time>2026-05-03T14:41:58.316Z</time></trkpt><trkpt lat="44.9672222" lon="7.5094389"><ele>259.0</ele><time>2026-05-03T14:41:59.316Z</time></trkpt><trkpt lat="44.9671641" lon="7.5093288"><ele>259.75</ele><time>2026-05-03T14:42:00.317Z</time></trkpt><trkpt lat="44.9670991" lon="7.5092097"><ele>260.5</ele><time>2026-05-03T14:42:01.316Z</time></trkpt><trkpt lat="44.9670294" lon="7.5090792"><ele>261.25</ele><time>2026-05-03T14:42:02.317Z</time></trkpt><trkpt lat="44.96696" lon="7.5089299"><ele>262.0</ele><time>2026-05-03T14:42:03.317Z</time></trkpt><trkpt lat="44.966882" lon="7.5087707"><ele>262.25</ele><time>2026-05-03T14:42:04.317Z</time></trkpt><trkpt lat="44.9668085" lon="7.5086145"><ele>262.5</ele><time>2026-05-03T14:42:05.318Z</time></trkpt><trkpt lat="44.9667416" lon="7.5084639"><ele>262.75</ele><time>2026-05-03T14:42:06.318Z</time></trkpt><trkpt lat="44.9666788" lon="7.5083309"><ele>263.0</ele><time>2026-05-03T14:42:07.316Z</time></trkpt><trkpt lat="44.9666091" lon="7.5082214"><ele>262.4</ele><time>2026-05-03T14:42:08.316Z</time></trkpt><trkpt lat="44.9665313" lon="7.5081227"><ele>261.8</ele><time>2026-05-03T14:42:09.317Z</time></trkpt><trkpt lat="44.9664431" lon="7.508053"><ele>261.2</ele><time>2026-05-03T14:42:10.318Z</time></trkpt><trkpt lat="44.9663434" lon="7.5080134"><ele>260.6</ele><time>2026-05-03T14:42:11.318Z</time></trkpt><trkpt lat="44.9662424" lon="7.5080085"><ele>260.0</ele><time>2026-05-03T14:42:12.318Z</time></trkpt><trkpt lat="44.966146" lon="7.5080404"><ele>260.0</ele><time>2026-05-03T14:42:13.317Z</time></trkpt><trkpt lat="44.9660506" lon="7.5081148"><ele>260.0</ele><time>2026-05-03T14:42:14.316Z</time></trkpt><trkpt lat="44.9659606" lon="7.5082173"><ele>260.0</ele><time>2026-05-03T14:42:15.316Z</time></trkpt><trkpt lat="44.9658783" lon="7.5083396"><ele>260.0</ele><time>2026-05-03T14:42:16.317Z</time></trkpt><trkpt lat="44.9658031" lon="7.5084792"><ele>259.5</ele><time>2026-05-03T14:42:17.317Z</time></trkpt><trkpt lat="44.9657257" lon="7.5086184"><ele>259.0</ele><time>2026-05-03T14:42:18.317Z</time></trkpt><trkpt lat="44.9656445" lon="7.5087728"><ele>258.5</ele><time>2026-05-03T14:42:19.317Z</time></trkpt><trkpt lat="44.9655708" lon="7.508915"><ele>258.0</ele><time>2026-05-03T14:42:20.317Z</time></trkpt><trkpt lat="44.9654955" lon="7.5090683"><ele>258.0</ele><time>2026-05-03T14:42:21.317Z</time></trkpt><trkpt lat="44.9654219" lon="7.5092091"><ele>258.0</ele><time>2026-05-03T14:42:22.316Z</time></trkpt><trkpt lat="44.9653526" lon="7.5093366"><ele>258.0</ele><time>2026-05-03T14:42:23.316Z</time></trkpt><trkpt lat="44.9652854" lon="7.5094557"><ele>258.0</ele><time>2026-05-03T14:42:24.316Z</time></trkpt><trkpt lat="44.9652136" lon="7.5095637"><ele>258.0</ele><time>2026-05-03T14:42:25.317Z</time></trkpt><trkpt lat="44.965127" lon="7.5096516"><ele>258.0</ele><time>2026-05-03T14:42:26.317Z</time></trkpt><trkpt lat="44.965028" lon="7.509707"><ele>258.0</ele><time>2026-05-03T14:42:27.317Z</time></trkpt><trkpt lat="44.9649315" lon="7.509769"><ele>258.0</ele><time>2026-05-03T14:42:28.316Z</time></trkpt><trkpt lat="44.9648381" lon="7.5098554"><ele>258.0</ele><time>2026-05-03T14:42:29.317Z</time></trkpt><trkpt lat="44.9647489" lon="7.5099601"><ele>258.0</ele><time>2026-05-03T14:42:30.316Z</time></trkpt><trkpt lat="44.964673" lon="7.5100777"><ele>258.0</ele><time>2026-05-03T14:42:31.316Z</time></trkpt><trkpt lat="44.9645995" lon="7.5102013"><ele>258.0</ele><time>2026-05-03T14:42:32.318Z</time></trkpt><trkpt lat="44.9645298" lon="7.5103064"><ele>258.0</ele><time>2026-05-03T14:42:33.318Z</time></trkpt><trkpt lat="44.9644631" lon="7.5103747"><ele>258.0</ele><time>2026-05-03T14:42:34.316Z</time></trkpt><trkpt lat="44.9643798" lon="7.5104193"><ele>258.0</ele><time>2026-05-03T14:42:35.316Z</time></trkpt><trkpt lat="44.9642848" lon="7.5104263"><ele>258.0</ele><time>2026-05-03T14:42:36.316Z</time></trkpt><trkpt lat="44.9641737" lon="7.5104152"><ele>258.0</ele><time>2026-05-03T14:42:37.316Z</time></trkpt><trkpt lat="44.9640497" lon="7.5103852"><ele>258.0</ele><time>2026-05-03T14:42:38.317Z</time></trkpt><trkpt lat="44.9639177" lon="7.5103334"><ele>257.5</ele><time>2026-05-03T14:42:39.318Z</time></trkpt><trkpt lat="44.9637845" lon="7.5102606"><ele>257.0</ele><time>2026-05-03T14:42:40.316Z</time></trkpt><trkpt lat="44.9636544" lon="7.5101707"><ele>256.5</ele><time>2026-05-03T14:42:41.315Z</time></trkpt><trkpt lat="44.9635289" lon="7.5100834"><ele>256.0</ele><time>2026-05-03T14:42:42.315Z</time></trkpt><trkpt lat="44.9634039" lon="7.5100121"><ele>256.25</ele><time>2026-05-03T14:42:43.316Z</time></trkpt><trkpt lat="44.9632782" lon="7.5099445"><ele>256.5</ele><time>2026-05-03T14:42:44.316Z</time></trkpt><trkpt lat="44.9631557" lon="7.5098832"><ele>256.75</ele><time>2026-05-03T14:42:45.317Z</time></trkpt><trkpt lat="44.9630352" lon="7.5098439"><ele>257.0</ele><time>2026-05-03T14:42:46.318Z</time></trkpt><trkpt lat="44.9629227" lon="7.5098126"><ele>257.0</ele><time>2026-05-03T14:42:47.316Z</time></trkpt><trkpt lat="44.9628283" lon="7.5098082"><ele>257.0</ele><time>2026-05-03T14:42:48.317Z</time></trkpt><trkpt lat="44.9627515" lon="7.5098024"><ele>257.0</ele><time>2026-05-03T14:42:49.316Z</time></trkpt><trkpt lat="44.9626683" lon="7.5098155"><ele>257.0</ele><time>2026-05-03T14:42:51.316Z</time></trkpt><trkpt lat="44.9625718" lon="7.5098712"><ele>257.0</ele><time>2026-05-03T14:42:54.317Z</time></trkpt><trkpt lat="44.9625203" lon="7.5099573"><ele>257.0</ele><time>2026-05-03T14:42:55.316Z</time></trkpt><trkpt lat="44.9624668" lon="7.510087"><ele>257.2</ele><time>2026-05-03T14:42:56.316Z</time></trkpt><trkpt lat="44.9624116" lon="7.510227"><ele>257.4</ele><time>2026-05-03T14:42:57.317Z</time></trkpt><trkpt lat="44.9623516" lon="7.5103596"><ele>257.6</ele><time>2026-05-03T14:42:58.316Z</time></trkpt><trkpt lat="44.9623013" lon="7.5104784"><ele>257.8</ele><time>2026-05-03T14:42:59.317Z</time></trkpt><trkpt lat="44.9622609" lon="7.5105751"><ele>258.0</ele><time>2026-05-03T14:43:00.317Z</time></trkpt><trkpt lat="44.9622148" lon="7.5106618"><ele>258.0</ele><time>2026-05-03T14:43:01.316Z</time></trkpt><trkpt lat="44.9620974" lon="7.5107086"><ele>258.0</ele><time>2026-05-03T14:43:03.318Z</time></trkpt><trkpt lat="44.9620312" lon="7.5106735"><ele>258.0</ele><time>2026-05-03T14:43:04.318Z</time></trkpt><trkpt lat="44.9619618" lon="7.5106067"><ele>258.0</ele><time>2026-05-03T14:43:05.316Z</time></trkpt><trkpt lat="44.9618834" lon="7.5105234"><ele>258.0</ele><time>2026-05-03T14:43:06.317Z</time></trkpt><trkpt lat="44.9617951" lon="7.5104348"><ele>257.75</ele><time>2026-05-03T14:43:07.316Z</time></trkpt><trkpt lat="44.9617022" lon="7.5103386"><ele>257.5</ele><time>2026-05-03T14:43:08.316Z</time></trkpt><trkpt lat="44.9616006" lon="7.5102436"><ele>257.25</ele><time>2026-05-03T14:43:09.316Z</time></trkpt><trkpt lat="44.9614904" lon="7.5101328"><ele>257.0</ele><time>2026-05-03T14:43:10.316Z</time></trkpt><trkpt lat="44.9613843" lon="7.5100174"><ele>257.0</ele><time>2026-05-03T14:43:11.315Z</time></trkpt><trkpt lat="44.9612688" lon="7.5098863"><ele>257.0</ele><time>2026-05-03T14:43:12.316Z</time></trkpt><trkpt lat="44.9611496" lon="7.5097577"><ele>257.0</ele><time>2026-05-03T14:43:13.317Z</time></trkpt><trkpt lat="44.9610242" lon="7.509625"><ele>257.0</ele><time>2026-05-03T14:43:14.317Z</time></trkpt><trkpt lat="44.9609004" lon="7.5094948"><ele>257.0</ele><time>2026-05-03T14:43:15.316Z</time></trkpt><trkpt lat="44.9607715" lon="7.509358"><ele>257.0</ele><time>2026-05-03T14:43:16.316Z</time></trkpt><trkpt lat="44.9606436" lon="7.5092297"><ele>256.0</ele><time>2026-05-03T14:43:17.317Z</time></trkpt><trkpt lat="44.9605106" lon="7.5090896"><ele>255.0</ele><time>2026-05-03T14:43:18.317Z</time></trkpt><trkpt lat="44.9603773" lon="7.5089519"><ele>254.0</ele><time>2026-05-03T14:43:19.317Z</time></trkpt><trkpt lat="44.9602431" lon="7.5088118"><ele>254.0</ele><time>2026-05-03T14:43:20.316Z</time></trkpt><trkpt lat="44.9601034" lon="7.5086717"><ele>254.0</ele><time>2026-05-03T14:43:21.315Z</time></trkpt><trkpt lat="44.9599564" lon="7.5085379"><ele>254.0</ele><time>2026-05-03T14:43:22.316Z</time></trkpt><trkpt lat="44.9598177" lon="7.5084147"><ele>254.66666666666669</ele><time>2026-05-03T14:43:23.315Z</time></trkpt><trkpt lat="44.959654" lon="7.508295"><ele>255.33333333333331</ele><time>2026-05-03T14:43:24.317Z</time></trkpt><trkpt lat="44.9594928" lon="7.5081942"><ele>256.0</ele><time>2026-05-03T14:43:25.316Z</time></trkpt><trkpt lat="44.9593453" lon="7.5081047"><ele>256.0</ele><time>2026-05-03T14:43:26.316Z</time></trkpt><trkpt lat="44.9592106" lon="7.5080234"><ele>256.0</ele><time>2026-05-03T14:43:27.317Z</time></trkpt><trkpt lat="44.9590783" lon="7.5079543"><ele>256.0</ele><time>2026-05-03T14:43:28.316Z</time></trkpt><trkpt lat="44.9589547" lon="7.5078963"><ele>256.0</ele><time>2026-05-03T14:43:29.316Z</time></trkpt><trkpt lat="44.9588394" lon="7.5078372"><ele>256.16666666666663</ele><time>2026-05-03T14:43:30.318Z</time></trkpt><trkpt lat="44.9587347" lon="7.5077838"><ele>256.3333333333333</ele><time>2026-05-03T14:43:31.316Z</time></trkpt><trkpt lat="44.9586509" lon="7.5077287"><ele>256.5</ele><time>2026-05-03T14:43:32.317Z</time></trkpt><trkpt lat="44.9585836" lon="7.5076678"><ele>256.6666666666667</ele><time>2026-05-03T14:43:33.316Z</time></trkpt><trkpt lat="44.958521" lon="7.5076031"><ele>256.83333333333337</ele><time>2026-05-03T14:43:34.317Z</time></trkpt><trkpt lat="44.9584677" lon="7.507551"><ele>257.0</ele><time>2026-05-03T14:43:35.316Z</time></trkpt><trkpt lat="44.9583542" lon="7.5075592"><ele>257.0</ele><time>2026-05-03T14:43:37.315Z</time></trkpt><trkpt lat="44.9583225" lon="7.5077117"><ele>257.0</ele><time>2026-05-03T14:43:39.316Z</time></trkpt><trkpt lat="44.9583277" lon="7.5078252"><ele>257.0</ele><time>2026-05-03T14:43:40.316Z</time></trkpt><trkpt lat="44.9583202" lon="7.5079354"><ele>257.0</ele><time>2026-05-03T14:43:41.316Z</time></trkpt><trkpt lat="44.9582998" lon="7.508032"><ele>257.0</ele><time>2026-05-03T14:43:42.317Z</time></trkpt><trkpt lat="44.958221" lon="7.5081205"><ele>257.0</ele><time>2026-05-03T14:43:44.317Z</time></trkpt><trkpt lat="44.9581212" lon="7.5081254"><ele>257.0</ele><time>2026-05-03T14:43:46.316Z</time></trkpt><trkpt lat="44.9580453" lon="7.5081343"><ele>257.0</ele><time>2026-05-03T14:43:47.316Z</time></trkpt><trkpt lat="44.9579596" lon="7.5081402"><ele>257.0</ele><time>2026-05-03T14:43:48.317Z</time></trkpt><trkpt lat="44.9578608" lon="7.50814"><ele>257.0</ele><time>2026-05-03T14:43:49.316Z</time></trkpt><trkpt lat="44.9577539" lon="7.5081406"><ele>257.0</ele><time>2026-05-03T14:43:50.316Z</time></trkpt><trkpt lat="44.9576403" lon="7.5081485"><ele>256.6</ele><time>2026-05-03T14:43:51.317Z</time></trkpt><trkpt lat="44.9575245" lon="7.5081434"><ele>256.2</ele><time>2026-05-03T14:43:52.316Z</time></trkpt><trkpt lat="44.9574206" lon="7.5081418"><ele>255.8</ele><time>2026-05-03T14:43:53.316Z</time></trkpt><trkpt lat="44.9573293" lon="7.5081378"><ele>255.4</ele><time>2026-05-03T14:43:54.316Z</time></trkpt><trkpt lat="44.9572479" lon="7.5081284"><ele>255.0</ele><time>2026-05-03T14:43:55.317Z</time></trkpt><trkpt lat="44.957169" lon="7.5081257"><ele>255.0</ele><time>2026-05-03T14:43:56.316Z</time></trkpt><trkpt lat="44.9570851" lon="7.5081202"><ele>255.0</ele><time>2026-05-03T14:43:57.318Z</time></trkpt><trkpt lat="44.9569979" lon="7.5080867"><ele>255.0</ele><time>2026-05-03T14:43:58.317Z</time></trkpt><trkpt lat="44.9569083" lon="7.508071"><ele>255.0</ele><time>2026-05-03T14:43:59.317Z</time></trkpt><trkpt lat="44.9568037" lon="7.5080714"><ele>255.0</ele><time>2026-05-03T14:44:00.316Z</time></trkpt><trkpt lat="44.95669" lon="7.5080555"><ele>254.5</ele><time>2026-05-03T14:44:01.317Z</time></trkpt><trkpt lat="44.9565675" lon="7.5080554"><ele>254.0</ele><time>2026-05-03T14:44:02.316Z</time></trkpt><trkpt lat="44.9564407" lon="7.5080587"><ele>253.5</ele><time>2026-05-03T14:44:03.316Z</time></trkpt><trkpt lat="44.9563265" lon="7.5080592"><ele>253.0</ele><time>2026-05-03T14:44:04.316Z</time></trkpt><trkpt lat="44.9562173" lon="7.5080619"><ele>253.0</ele><time>2026-05-03T14:44:05.316Z</time></trkpt><trkpt lat="44.9561167" lon="7.5080659"><ele>253.0</ele><time>2026-05-03T14:44:06.315Z</time></trkpt><trkpt lat="44.9560302" lon="7.5080708"><ele>253.0</ele><time>2026-05-03T14:44:07.315Z</time></trkpt><trkpt lat="44.9559622" lon="7.5080759"><ele>253.0</ele><time>2026-05-03T14:44:08.317Z</time></trkpt><trkpt lat="44.9558593" lon="7.5079815"><ele>253.0</ele><time>2026-05-03T14:44:10.317Z</time></trkpt><trkpt lat="44.9557923" lon="7.5079412"><ele>252.99999999999997</ele><time>2026-05-03T14:44:11.316Z</time></trkpt><trkpt lat="44.955697" lon="7.5079248"><ele>253.0</ele><time>2026-05-03T14:44:12.316Z</time></trkpt><trkpt lat="44.9556035" lon="7.5079127"><ele>253.0</ele><time>2026-05-03T14:44:13.317Z</time></trkpt><trkpt lat="44.9555187" lon="7.5079091"><ele>253.0</ele><time>2026-05-03T14:44:14.317Z</time></trkpt><trkpt lat="44.9554527" lon="7.5079051"><ele>252.99999999999997</ele><time>2026-05-03T14:44:15.317Z</time></trkpt><trkpt lat="44.9553873" lon="7.5078828"><ele>253.0</ele><time>2026-05-03T14:44:17.315Z</time></trkpt><trkpt lat="44.9553618" lon="7.5077493"><ele>253.0</ele><time>2026-05-03T14:44:20.317Z</time></trkpt><trkpt lat="44.9553752" lon="7.5076296"><ele>253.0</ele><time>2026-05-03T14:44:21.317Z</time></trkpt><trkpt lat="44.9553901" lon="7.5074752"><ele>253.0</ele><time>2026-05-03T14:44:22.316Z</time></trkpt><trkpt lat="44.955413" lon="7.5072892"><ele>253.0</ele><time>2026-05-03T14:44:23.315Z</time></trkpt><trkpt lat="44.9554401" lon="7.5071012"><ele>252.60000000000002</ele><time>2026-05-03T14:44:24.317Z</time></trkpt><trkpt lat="44.95546" lon="7.506925"><ele>252.20000000000002</ele><time>2026-05-03T14:44:25.315Z</time></trkpt><trkpt lat="44.9554797" lon="7.5067744"><ele>251.8</ele><time>2026-05-03T14:44:26.315Z</time></trkpt><trkpt lat="44.9554971" lon="7.5066538"><ele>251.4</ele><time>2026-05-03T14:44:27.318Z</time></trkpt><trkpt lat="44.9555042" lon="7.506562"><ele>251.0</ele><time>2026-05-03T14:44:28.315Z</time></trkpt><trkpt lat="44.9555378" lon="7.5064419"><ele>251.0</ele><time>2026-05-03T14:44:39.316Z</time></trkpt><trkpt lat="44.9555674" lon="7.5062901"><ele>251.00000000000003</ele><time>2026-05-03T14:44:41.316Z</time></trkpt><trkpt lat="44.9555419" lon="7.5062072"><ele>251.00000000000003</ele><time>2026-05-03T14:44:42.316Z</time></trkpt><trkpt lat="44.9554251" lon="7.5061175"><ele>251.0</ele><time>2026-05-03T14:44:44.315Z</time></trkpt><trkpt lat="44.9553501" lon="7.5061205"><ele>251.0</ele><time>2026-05-03T14:44:45.315Z</time></trkpt><trkpt lat="44.955262" lon="7.5061023"><ele>251.4</ele><time>2026-05-03T14:44:46.316Z</time></trkpt><trkpt lat="44.9551762" lon="7.5060596"><ele>251.8</ele><time>2026-05-03T14:44:47.316Z</time></trkpt><trkpt lat="44.9550913" lon="7.5059934"><ele>252.20000000000002</ele><time>2026-05-03T14:44:48.318Z</time></trkpt><trkpt lat="44.9550116" lon="7.505922"><ele>252.60000000000002</ele><time>2026-05-03T14:44:49.315Z</time></trkpt><trkpt lat="44.9549303" lon="7.5058553"><ele>253.0</ele><time>2026-05-03T14:44:50.317Z</time></trkpt><trkpt lat="44.9548514" lon="7.505798"><ele>253.0</ele><time>2026-05-03T14:44:51.317Z</time></trkpt><trkpt lat="44.954777" lon="7.5057386"><ele>253.0</ele><time>2026-05-03T14:44:52.317Z</time></trkpt><trkpt lat="44.9546996" lon="7.5056678"><ele>253.0</ele><time>2026-05-03T14:44:53.318Z</time></trkpt><trkpt lat="44.9546171" lon="7.5056011"><ele>253.0</ele><time>2026-05-03T14:44:54.316Z</time></trkpt><trkpt lat="44.9545315" lon="7.5055258"><ele>253.0</ele><time>2026-05-03T14:44:55.316Z</time></trkpt><trkpt lat="44.9544478" lon="7.5054474"><ele>252.99999999999997</ele><time>2026-05-03T14:44:56.317Z</time></trkpt><trkpt lat="44.9543696" lon="7.5053721"><ele>253.0</ele><time>2026-05-03T14:44:57.316Z</time></trkpt><trkpt lat="44.9543019" lon="7.505311"><ele>253.0</ele><time>2026-05-03T14:44:58.317Z</time></trkpt><trkpt lat="44.9542265" lon="7.5052256"><ele>253.0</ele><time>2026-05-03T14:45:00.316Z</time></trkpt><trkpt lat="44.9541628" lon="7.5052232"><ele>252.99999999999997</ele><time>2026-05-03T14:45:03.316Z</time></trkpt><trkpt lat="44.954204" lon="7.5053174"><ele>253.0</ele><time>2026-05-03T14:45:05.316Z</time></trkpt><trkpt lat="44.9542774" lon="7.5053864"><ele>253.0</ele><time>2026-05-03T14:45:06.317Z</time></trkpt><trkpt lat="44.9543736" lon="7.5054551"><ele>253.0</ele><time>2026-05-03T14:45:07.315Z</time></trkpt><trkpt lat="44.9544824" lon="7.5055355"><ele>253.0</ele><time>2026-05-03T14:45:08.316Z</time></trkpt><trkpt lat="44.9545926" lon="7.5056436"><ele>253.0</ele><time>2026-05-03T14:45:09.315Z</time></trkpt><trkpt lat="44.9546986" lon="7.5057442"><ele>253.0</ele><time>2026-05-03T14:45:10.316Z</time></trkpt><trkpt lat="44.9548078" lon="7.5058223"><ele>253.0</ele><time>2026-05-03T14:45:11.315Z</time></trkpt><trkpt lat="44.9549053" lon="7.505901"><ele>253.0</ele><time>2026-05-03T14:45:12.315Z</time></trkpt><trkpt lat="44.9549928" lon="7.505977"><ele>253.0</ele><time>2026-05-03T14:45:13.316Z</time></trkpt><trkpt lat="44.9550766" lon="7.5060474"><ele>253.0</ele><time>2026-05-03T14:45:14.315Z</time></trkpt><trkpt lat="44.9551604" lon="7.5061129"><ele>252.99999999999997</ele><time>2026-05-03T14:45:15.315Z</time></trkpt><trkpt lat="44.955225" lon="7.5061683"><ele>253.0</ele><time>2026-05-03T14:45:16.316Z</time></trkpt><trkpt lat="44.9552746" lon="7.5062289"><ele>253.0</ele><time>2026-05-03T14:45:17.317Z</time></trkpt><trkpt lat="44.955292" lon="7.506376"><ele>253.0</ele><time>2026-05-03T14:45:19.316Z</time></trkpt><trkpt lat="44.9552493" lon="7.5064653"><ele>252.99999999999997</ele><time>2026-05-03T14:45:20.316Z</time></trkpt><trkpt lat="44.9551749" lon="7.5065492"><ele>253.0</ele><time>2026-05-03T14:45:21.315Z</time></trkpt><trkpt lat="44.9550743" lon="7.5066542"><ele>253.0</ele><time>2026-05-03T14:45:22.315Z</time></trkpt><trkpt lat="44.9549667" lon="7.5067848"><ele>253.0</ele><time>2026-05-03T14:45:23.318Z</time></trkpt><trkpt lat="44.954852" lon="7.5069224"><ele>253.0</ele><time>2026-05-03T14:45:24.315Z</time></trkpt><trkpt lat="44.954744" lon="7.507046"><ele>253.0</ele><time>2026-05-03T14:45:25.316Z</time></trkpt><trkpt lat="44.9546537" lon="7.5071458"><ele>253.4</ele><time>2026-05-03T14:45:26.315Z</time></trkpt><trkpt lat="44.9545664" lon="7.5072371"><ele>253.8</ele><time>2026-05-03T14:45:27.315Z</time></trkpt><trkpt lat="44.9544874" lon="7.5073172"><ele>254.2</ele><time>2026-05-03T14:45:28.316Z</time></trkpt><trkpt lat="44.9544187" lon="7.5074098"><ele>254.6</ele><time>2026-05-03T14:45:29.316Z</time></trkpt><trkpt lat="44.9543633" lon="7.5074709"><ele>255.0</ele><time>2026-05-03T14:45:30.316Z</time></trkpt><trkpt lat="44.9542519" lon="7.5075959"><ele>255.2</ele><time>2026-05-03T14:45:32.315Z</time></trkpt><trkpt lat="44.9541762" lon="7.5076808"><ele>255.4</ele><time>2026-05-03T14:45:33.315Z</time></trkpt><trkpt lat="44.9540871" lon="7.507785"><ele>255.60000000000002</ele><time>2026-05-03T14:45:34.315Z</time></trkpt><trkpt lat="44.9539947" lon="7.5078871"><ele>255.8</ele><time>2026-05-03T14:45:35.316Z</time></trkpt><trkpt lat="44.9539054" lon="7.5079914"><ele>256.0</ele><time>2026-05-03T14:45:36.315Z</time></trkpt><trkpt lat="44.9538225" lon="7.5080813"><ele>255.99999999999997</ele><time>2026-05-03T14:45:37.316Z</time></trkpt><trkpt lat="44.9537506" lon="7.5081711"><ele>256.0</ele><time>2026-05-03T14:45:38.315Z</time></trkpt><trkpt lat="44.9536829" lon="7.5082502"><ele>256.0</ele><time>2026-05-03T14:45:39.315Z</time></trkpt><trkpt lat="44.953625" lon="7.5083117"><ele>256.0</ele><time>2026-05-03T14:45:40.316Z</time></trkpt><trkpt lat="44.9535685" lon="7.5083739"><ele>255.99999999999997</ele><time>2026-05-03T14:45:41.318Z</time></trkpt><trkpt lat="44.9535139" lon="7.5084277"><ele>256.0</ele><time>2026-05-03T14:45:42.316Z</time></trkpt><trkpt lat="44.9534331" lon="7.5085118"><ele>256.0</ele><time>2026-05-03T14:45:44.316Z</time></trkpt><trkpt lat="44.9533728" lon="7.508554"><ele>256.0</ele><time>2026-05-03T14:45:46.317Z</time></trkpt><trkpt lat="44.9533194" lon="7.5086106"><ele>256.0</ele><time>2026-05-03T14:45:49.317Z</time></trkpt><trkpt lat="44.9532494" lon="7.5087327"><ele>256.0</ele><time>2026-05-03T14:46:00.316Z</time></trkpt><trkpt lat="44.9531772" lon="7.5088256"><ele>256.0</ele><time>2026-05-03T14:46:01.317Z</time></trkpt><trkpt lat="44.9530968" lon="7.5089593"><ele>255.75</ele><time>2026-05-03T14:46:02.317Z</time></trkpt><trkpt lat="44.9530067" lon="7.5091238"><ele>255.5</ele><time>2026-05-03T14:46:03.315Z</time></trkpt><trkpt lat="44.9529247" lon="7.5092975"><ele>255.25</ele><time>2026-05-03T14:46:04.316Z</time></trkpt><trkpt lat="44.9528495" lon="7.5094814"><ele>255.0</ele><time>2026-05-03T14:46:05.315Z</time></trkpt><trkpt lat="44.9527852" lon="7.5096719"><ele>255.0</ele><time>2026-05-03T14:46:06.316Z</time></trkpt><trkpt lat="44.952732" lon="7.5098639"><ele>255.0</ele><time>2026-05-03T14:46:07.316Z</time></trkpt><trkpt lat="44.9526909" lon="7.5100627"><ele>255.0</ele><time>2026-05-03T14:46:08.315Z</time></trkpt><trkpt lat="44.952652" lon="7.5102649"><ele>255.0</ele><time>2026-05-03T14:46:09.316Z</time></trkpt><trkpt lat="44.9526147" lon="7.5104755"><ele>254.75</ele><time>2026-05-03T14:46:10.315Z</time></trkpt><trkpt lat="44.9525695" lon="7.5106784"><ele>254.5</ele><time>2026-05-03T14:46:11.315Z</time></trkpt><trkpt lat="44.9525308" lon="7.5108749"><ele>254.25</ele><time>2026-05-03T14:46:12.315Z</time></trkpt><trkpt lat="44.9524934" lon="7.5110615"><ele>254.0</ele><time>2026-05-03T14:46:13.317Z</time></trkpt><trkpt lat="44.9524602" lon="7.5112471"><ele>254.0</ele><time>2026-05-03T14:46:14.315Z</time></trkpt><trkpt lat="44.9524264" lon="7.5114301"><ele>254.0</ele><time>2026-05-03T14:46:15.316Z</time></trkpt><trkpt lat="44.9523891" lon="7.5115962"><ele>254.0</ele><time>2026-05-03T14:46:16.316Z</time></trkpt><trkpt lat="44.952352" lon="7.5117443"><ele>254.0</ele><time>2026-05-03T14:46:17.317Z</time></trkpt><trkpt lat="44.9522967" lon="7.5118824"><ele>254.0</ele><time>2026-05-03T14:46:18.315Z</time></trkpt><trkpt lat="44.9522193" lon="7.5119995"><ele>254.0</ele><time>2026-05-03T14:46:19.315Z</time></trkpt><trkpt lat="44.9521051" lon="7.5120969"><ele>254.0</ele><time>2026-05-03T14:46:20.316Z</time></trkpt><trkpt lat="44.9519843" lon="7.5121573"><ele>254.0</ele><time>2026-05-03T14:46:21.316Z</time></trkpt><trkpt lat="44.9518381" lon="7.5121913"><ele>253.33333333333334</ele><time>2026-05-03T14:46:22.317Z</time></trkpt><trkpt lat="44.9516684" lon="7.5122007"><ele>252.66666666666669</ele><time>2026-05-03T14:46:23.315Z</time></trkpt><trkpt lat="44.951509" lon="7.5122184"><ele>252.0</ele><time>2026-05-03T14:46:24.316Z</time></trkpt><trkpt lat="44.9513518" lon="7.5122369"><ele>252.0</ele><time>2026-05-03T14:46:25.316Z</time></trkpt><trkpt lat="44.9511893" lon="7.5122492"><ele>252.0</ele><time>2026-05-03T14:46:26.316Z</time></trkpt><trkpt lat="44.9510328" lon="7.5122618"><ele>252.0</ele><time>2026-05-03T14:46:27.315Z</time></trkpt><trkpt lat="44.9508699" lon="7.5122738"><ele>252.66666666666669</ele><time>2026-05-03T14:46:28.316Z</time></trkpt><trkpt lat="44.9507086" lon="7.5122805"><ele>253.33333333333334</ele><time>2026-05-03T14:46:29.315Z</time></trkpt><trkpt lat="44.9505351" lon="7.5122887"><ele>254.0</ele><time>2026-05-03T14:46:30.315Z</time></trkpt><trkpt lat="44.9503672" lon="7.5123102"><ele>254.0</ele><time>2026-05-03T14:46:31.315Z</time></trkpt><trkpt lat="44.9501951" lon="7.5123246"><ele>254.0</ele><time>2026-05-03T14:46:32.315Z</time></trkpt><trkpt lat="44.950029" lon="7.5123351"><ele>254.0</ele><time>2026-05-03T14:46:33.316Z</time></trkpt><trkpt lat="44.9498592" lon="7.5123424"><ele>253.66666666666669</ele><time>2026-05-03T14:46:34.317Z</time></trkpt><trkpt lat="44.9496825" lon="7.5123583"><ele>253.33333333333331</ele><time>2026-05-03T14:46:35.315Z</time></trkpt><trkpt lat="44.9495214" lon="7.5123714"><ele>253.0</ele><time>2026-05-03T14:46:36.316Z</time></trkpt><trkpt lat="44.9493633" lon="7.5123857"><ele>253.0</ele><time>2026-05-03T14:46:37.315Z</time></trkpt><trkpt lat="44.9492176" lon="7.5123824"><ele>253.0</ele><time>2026-05-03T14:46:38.316Z</time></trkpt><trkpt lat="44.9490736" lon="7.5123853"><ele>253.0</ele><time>2026-05-03T14:46:39.315Z</time></trkpt><trkpt lat="44.9489411" lon="7.5123964"><ele>253.0</ele><time>2026-05-03T14:46:40.315Z</time></trkpt><trkpt lat="44.9488061" lon="7.5124162"><ele>252.75</ele><time>2026-05-03T14:46:41.315Z</time></trkpt><trkpt lat="44.9486762" lon="7.5124539"><ele>252.5</ele><time>2026-05-03T14:46:42.315Z</time></trkpt><trkpt lat="44.9485495" lon="7.5124904"><ele>252.25</ele><time>2026-05-03T14:46:43.315Z</time></trkpt><trkpt lat="44.9484248" lon="7.5125275"><ele>252.0</ele><time>2026-05-03T14:46:44.315Z</time></trkpt><trkpt lat="44.9482937" lon="7.5125568"><ele>252.0</ele><time>2026-05-03T14:46:45.316Z</time></trkpt><trkpt lat="44.9481471" lon="7.5125709"><ele>252.0</ele><time>2026-05-03T14:46:46.315Z</time></trkpt><trkpt lat="44.9479924" lon="7.51258"><ele>252.0</ele><time>2026-05-03T14:46:47.316Z</time></trkpt><trkpt lat="44.9478386" lon="7.5125839"><ele>252.0</ele><time>2026-05-03T14:46:48.316Z</time></trkpt><trkpt lat="44.9476866" lon="7.5125732"><ele>252.0</ele><time>2026-05-03T14:46:49.316Z</time></trkpt><trkpt lat="44.947539" lon="7.5125606"><ele>252.0</ele><time>2026-05-03T14:46:50.316Z</time></trkpt><trkpt lat="44.9473942" lon="7.5125334"><ele>252.0</ele><time>2026-05-03T14:46:51.315Z</time></trkpt><trkpt lat="44.947251" lon="7.5124736"><ele>252.33333333333331</ele><time>2026-05-03T14:46:52.316Z</time></trkpt><trkpt lat="44.9471026" lon="7.5123856"><ele>252.66666666666666</ele><time>2026-05-03T14:46:53.315Z</time></trkpt><trkpt lat="44.946955" lon="7.5122858"><ele>253.0</ele><time>2026-05-03T14:46:54.315Z</time></trkpt><trkpt lat="44.9468115" lon="7.512174"><ele>253.0</ele><time>2026-05-03T14:46:55.317Z</time></trkpt><trkpt lat="44.94667" lon="7.5120638"><ele>253.0</ele><time>2026-05-03T14:46:56.315Z</time></trkpt><trkpt lat="44.946523" lon="7.511952"><ele>253.0</ele><time>2026-05-03T14:46:57.316Z</time></trkpt><trkpt lat="44.9463693" lon="7.511838"><ele>253.0</ele><time>2026-05-03T14:46:58.316Z</time></trkpt><trkpt lat="44.9462195" lon="7.5117286"><ele>253.0</ele><time>2026-05-03T14:46:59.315Z</time></trkpt><trkpt lat="44.9460713" lon="7.5116174"><ele>253.0</ele><time>2026-05-03T14:47:00.316Z</time></trkpt><trkpt lat="44.9459176" lon="7.5115001"><ele>252.66666666666666</ele><time>2026-05-03T14:47:01.316Z</time></trkpt><trkpt lat="44.9457617" lon="7.5113837"><ele>252.33333333333331</ele><time>2026-05-03T14:47:02.316Z</time></trkpt><trkpt lat="44.9456061" lon="7.5112652"><ele>252.0</ele><time>2026-05-03T14:47:03.316Z</time></trkpt><trkpt lat="44.9454526" lon="7.5111478"><ele>252.0</ele><time>2026-05-03T14:47:04.316Z</time></trkpt><trkpt lat="44.9452979" lon="7.5110345"><ele>252.0</ele><time>2026-05-03T14:47:05.316Z</time></trkpt><trkpt lat="44.9451439" lon="7.5109195"><ele>252.0</ele><time>2026-05-03T14:47:06.316Z</time></trkpt><trkpt lat="44.9449751" lon="7.5107944"><ele>252.33333333333331</ele><time>2026-05-03T14:47:07.317Z</time></trkpt><trkpt lat="44.9448059" lon="7.5106685"><ele>252.66666666666666</ele><time>2026-05-03T14:47:08.316Z</time></trkpt><trkpt lat="44.9446318" lon="7.5105379"><ele>253.0</ele><time>2026-05-03T14:47:09.315Z</time></trkpt><trkpt lat="44.9444638" lon="7.5104098"><ele>253.0</ele><time>2026-05-03T14:47:10.315Z</time></trkpt><trkpt lat="44.9443015" lon="7.5102879"><ele>253.0</ele><time>2026-05-03T14:47:11.316Z</time></trkpt><trkpt lat="44.9441422" lon="7.5101741"><ele>253.0</ele><time>2026-05-03T14:47:12.315Z</time></trkpt><trkpt lat="44.9439935" lon="7.510058"><ele>252.33333333333331</ele><time>2026-05-03T14:47:13.315Z</time></trkpt><trkpt lat="44.9438397" lon="7.509939"><ele>251.66666666666669</ele><time>2026-05-03T14:47:14.315Z</time></trkpt><trkpt lat="44.9436804" lon="7.5098186"><ele>251.0</ele><time>2026-05-03T14:47:15.315Z</time></trkpt><trkpt lat="44.9435236" lon="7.509697"><ele>250.66666666666669</ele><time>2026-05-03T14:47:16.315Z</time></trkpt><trkpt lat="44.9433628" lon="7.5095783"><ele>250.33333333333331</ele><time>2026-05-03T14:47:17.315Z</time></trkpt><trkpt lat="44.9432114" lon="7.5094591"><ele>250.0</ele><time>2026-05-03T14:47:18.315Z</time></trkpt><trkpt lat="44.9430693" lon="7.5093574"><ele>250.75</ele><time>2026-05-03T14:47:19.316Z</time></trkpt><trkpt lat="44.9429437" lon="7.5092644"><ele>251.5</ele><time>2026-05-03T14:47:20.315Z</time></trkpt><trkpt lat="44.9428305" lon="7.5091827"><ele>252.25</ele><time>2026-05-03T14:47:21.315Z</time></trkpt><trkpt lat="44.9427319" lon="7.5091134"><ele>253.0</ele><time>2026-05-03T14:47:22.316Z</time></trkpt><trkpt lat="44.9426573" lon="7.5090547"><ele>253.0</ele><time>2026-05-03T14:47:23.316Z</time></trkpt><trkpt lat="44.9425922" lon="7.508915"><ele>253.0</ele><time>2026-05-03T14:47:25.316Z</time></trkpt><trkpt lat="44.94259" lon="7.5087999"><ele>253.0</ele><time>2026-05-03T14:47:26.315Z</time></trkpt><trkpt lat="44.9426019" lon="7.508656"><ele>253.0</ele><time>2026-05-03T14:47:27.315Z</time></trkpt><trkpt lat="44.9426174" lon="7.5084845"><ele>253.0</ele><time>2026-05-03T14:47:28.316Z</time></trkpt><trkpt lat="44.9426242" lon="7.5083014"><ele>253.0</ele><time>2026-05-03T14:47:29.315Z</time></trkpt><trkpt lat="44.942634" lon="7.5081162"><ele>253.0</ele><time>2026-05-03T14:47:30.315Z</time></trkpt><trkpt lat="44.9426427" lon="7.5079348"><ele>253.0</ele><time>2026-05-03T14:47:31.315Z</time></trkpt><trkpt lat="44.9426625" lon="7.5077548"><ele>253.0</ele><time>2026-05-03T14:47:32.316Z</time></trkpt><trkpt lat="44.9426838" lon="7.5075738"><ele>252.5</ele><time>2026-05-03T14:47:33.315Z</time></trkpt><trkpt lat="44.9427085" lon="7.5073817"><ele>252.0</ele><time>2026-05-03T14:47:34.315Z</time></trkpt><trkpt lat="44.9427375" lon="7.507189"><ele>251.5</ele><time>2026-05-03T14:47:35.315Z</time></trkpt><trkpt lat="44.9427678" lon="7.5069947"><ele>251.0</ele><time>2026-05-03T14:47:36.316Z</time></trkpt><trkpt lat="44.9428093" lon="7.5068034"><ele>251.0</ele><time>2026-05-03T14:47:37.314Z</time></trkpt><trkpt lat="44.9428546" lon="7.5066238"><ele>251.0</ele><time>2026-05-03T14:47:38.314Z</time></trkpt><trkpt lat="44.9428998" lon="7.5064554"><ele>251.0</ele><time>2026-05-03T14:47:39.314Z</time></trkpt><trkpt lat="44.9429465" lon="7.5063047"><ele>251.0</ele><time>2026-05-03T14:47:40.317Z</time></trkpt><trkpt lat="44.9429892" lon="7.5061766"><ele>251.25</ele><time>2026-05-03T14:47:41.317Z</time></trkpt><trkpt lat="44.9430357" lon="7.5060485"><ele>251.5</ele><time>2026-05-03T14:47:42.316Z</time></trkpt><trkpt lat="44.9430887" lon="7.505915"><ele>251.75</ele><time>2026-05-03T14:47:43.316Z</time></trkpt><trkpt lat="44.9431408" lon="7.5057667"><ele>252.0</ele><time>2026-05-03T14:47:44.316Z</time></trkpt><trkpt lat="44.9432169" lon="7.5056129"><ele>252.0</ele><time>2026-05-03T14:47:45.316Z</time></trkpt><trkpt lat="44.9433038" lon="7.5054701"><ele>252.0</ele><time>2026-05-03T14:47:46.315Z</time></trkpt><trkpt lat="44.9434155" lon="7.5053291"><ele>252.0</ele><time>2026-05-03T14:47:47.316Z</time></trkpt><trkpt lat="44.9435501" lon="7.5052172"><ele>252.0</ele><time>2026-05-03T14:47:48.315Z</time></trkpt><trkpt lat="44.9437041" lon="7.5051136"><ele>252.0</ele><time>2026-05-03T14:47:49.315Z</time></trkpt><trkpt lat="44.9438525" lon="7.5050206"><ele>252.0</ele><time>2026-05-03T14:47:50.315Z</time></trkpt><trkpt lat="44.9439904" lon="7.504934"><ele>252.0</ele><time>2026-05-03T14:47:51.315Z</time></trkpt><trkpt lat="44.9441144" lon="7.5048536"><ele>252.0</ele><time>2026-05-03T14:47:52.315Z</time></trkpt><trkpt lat="44.9442253" lon="7.504747"><ele>252.0</ele><time>2026-05-03T14:47:53.315Z</time></trkpt><trkpt lat="44.9443123" lon="7.5046212"><ele>252.0</ele><time>2026-05-03T14:47:54.315Z</time></trkpt><trkpt lat="44.9443743" lon="7.5044705"><ele>252.0</ele><time>2026-05-03T14:47:55.316Z</time></trkpt><trkpt lat="44.9444063" lon="7.5042981"><ele>252.0</ele><time>2026-05-03T14:47:56.316Z</time></trkpt><trkpt lat="44.9444085" lon="7.5041079"><ele>252.0</ele><time>2026-05-03T14:47:57.316Z</time></trkpt><trkpt lat="44.9443757" lon="7.5039125"><ele>252.0</ele><time>2026-05-03T14:47:58.315Z</time></trkpt><trkpt lat="44.9443299" lon="7.5037085"><ele>252.0</ele><time>2026-05-03T14:47:59.315Z</time></trkpt><trkpt lat="44.9442797" lon="7.5034967"><ele>251.75</ele><time>2026-05-03T14:48:00.316Z</time></trkpt><trkpt lat="44.9442351" lon="7.503294"><ele>251.5</ele><time>2026-05-03T14:48:01.315Z</time></trkpt><trkpt lat="44.9441956" lon="7.5031025"><ele>251.25</ele><time>2026-05-03T14:48:02.316Z</time></trkpt><trkpt lat="44.9441494" lon="7.5029147"><ele>251.0</ele><time>2026-05-03T14:48:03.314Z</time></trkpt><trkpt lat="44.9440985" lon="7.5027351"><ele>251.5</ele><time>2026-05-03T14:48:04.315Z</time></trkpt><trkpt lat="44.9440469" lon="7.5025611"><ele>252.0</ele><time>2026-05-03T14:48:05.315Z</time></trkpt><trkpt lat="44.9439988" lon="7.5023944"><ele>252.5</ele><time>2026-05-03T14:48:06.316Z</time></trkpt><trkpt lat="44.9439448" lon="7.5022301"><ele>253.0</ele><time>2026-05-03T14:48:07.315Z</time></trkpt><trkpt lat="44.9438999" lon="7.5020817"><ele>252.8</ele><time>2026-05-03T14:48:08.315Z</time></trkpt><trkpt lat="44.943853" lon="7.5019299"><ele>252.60000000000002</ele><time>2026-05-03T14:48:09.316Z</time></trkpt><trkpt lat="44.9438088" lon="7.5017833"><ele>252.39999999999998</ele><time>2026-05-03T14:48:10.316Z</time></trkpt><trkpt lat="44.9437691" lon="7.5016522"><ele>252.2</ele><time>2026-05-03T14:48:11.316Z</time></trkpt><trkpt lat="44.9437261" lon="7.5015477"><ele>252.0</ele><time>2026-05-03T14:48:12.315Z</time></trkpt><trkpt lat="44.9436763" lon="7.5014731"><ele>252.0</ele><time>2026-05-03T14:48:13.314Z</time></trkpt><trkpt lat="44.9436165" lon="7.5014158"><ele>252.0</ele><time>2026-05-03T14:48:14.315Z</time></trkpt><trkpt lat="44.9435245" lon="7.501362"><ele>252.0</ele><time>2026-05-03T14:48:15.315Z</time></trkpt><trkpt lat="44.943412" lon="7.5013279"><ele>252.0</ele><time>2026-05-03T14:48:16.315Z</time></trkpt><trkpt lat="44.9432825" lon="7.5013087"><ele>252.0</ele><time>2026-05-03T14:48:17.315Z</time></trkpt><trkpt lat="44.943156" lon="7.5012884"><ele>252.0</ele><time>2026-05-03T14:48:18.317Z</time></trkpt><trkpt lat="44.9430441" lon="7.5012973"><ele>252.0</ele><time>2026-05-03T14:48:19.316Z</time></trkpt><trkpt lat="44.9429321" lon="7.5013273"><ele>252.0</ele><time>2026-05-03T14:48:20.316Z</time></trkpt><trkpt lat="44.9428192" lon="7.501394"><ele>252.0</ele><time>2026-05-03T14:48:21.315Z</time></trkpt><trkpt lat="44.9426905" lon="7.5015025"><ele>252.0</ele><time>2026-05-03T14:48:22.314Z</time></trkpt><trkpt lat="44.94257" lon="7.5016374"><ele>252.0</ele><time>2026-05-03T14:48:23.316Z</time></trkpt><trkpt lat="44.9424632" lon="7.5017861"><ele>252.0</ele><time>2026-05-03T14:48:24.315Z</time></trkpt><trkpt lat="44.9423704" lon="7.5019284"><ele>252.0</ele><time>2026-05-03T14:48:25.316Z</time></trkpt><trkpt lat="44.9422807" lon="7.5020499"><ele>252.0</ele><time>2026-05-03T14:48:26.315Z</time></trkpt><trkpt lat="44.942191" lon="7.5021638"><ele>252.0</ele><time>2026-05-03T14:48:27.316Z</time></trkpt><trkpt lat="44.9420987" lon="7.5022602"><ele>252.0</ele><time>2026-05-03T14:48:28.315Z</time></trkpt><trkpt lat="44.9420066" lon="7.5023509"><ele>252.0</ele><time>2026-05-03T14:48:29.315Z</time></trkpt><trkpt lat="44.9419142" lon="7.5024212"><ele>252.0</ele><time>2026-05-03T14:48:30.314Z</time></trkpt><trkpt lat="44.9418144" lon="7.5024787"><ele>252.0</ele><time>2026-05-03T14:48:31.315Z</time></trkpt><trkpt lat="44.9417224" lon="7.5025153"><ele>252.0</ele><time>2026-05-03T14:48:32.315Z</time></trkpt><trkpt lat="44.9416337" lon="7.5025511"><ele>252.0</ele><time>2026-05-03T14:48:33.316Z</time></trkpt><trkpt lat="44.9415532" lon="7.5025918"><ele>252.0</ele><time>2026-05-03T14:48:34.315Z</time></trkpt><trkpt lat="44.9414843" lon="7.5026288"><ele>252.0</ele><time>2026-05-03T14:48:35.316Z</time></trkpt><trkpt lat="44.9413803" lon="7.5026902"><ele>252.0</ele><time>2026-05-03T14:48:37.316Z</time></trkpt><trkpt lat="44.9412844" lon="7.5027341"><ele>252.0</ele><time>2026-05-03T14:48:39.316Z</time></trkpt><trkpt lat="44.9412205" lon="7.5027656"><ele>252.0</ele><time>2026-05-03T14:48:40.316Z</time></trkpt><trkpt lat="44.9411494" lon="7.5028092"><ele>252.0</ele><time>2026-05-03T14:48:41.314Z</time></trkpt><trkpt lat="44.9410713" lon="7.502868"><ele>252.0</ele><time>2026-05-03T14:48:42.316Z</time></trkpt><trkpt lat="44.9409713" lon="7.5029378"><ele>252.25</ele><time>2026-05-03T14:48:43.316Z</time></trkpt><trkpt lat="44.9408545" lon="7.5030059"><ele>252.5</ele><time>2026-05-03T14:48:44.316Z</time></trkpt><trkpt lat="44.9407438" lon="7.5030598"><ele>252.75</ele><time>2026-05-03T14:48:45.315Z</time></trkpt><trkpt lat="44.9406332" lon="7.5031264"><ele>253.0</ele><time>2026-05-03T14:48:46.315Z</time></trkpt><trkpt lat="44.9405196" lon="7.5032163"><ele>253.0</ele><time>2026-05-03T14:48:47.316Z</time></trkpt><trkpt lat="44.9404051" lon="7.5033348"><ele>253.0</ele><time>2026-05-03T14:48:48.316Z</time></trkpt><trkpt lat="44.9402943" lon="7.5034854"><ele>253.0</ele><time>2026-05-03T14:48:49.316Z</time></trkpt><trkpt lat="44.9401903" lon="7.5036384"><ele>253.0</ele><time>2026-05-03T14:48:50.316Z</time></trkpt><trkpt lat="44.9400919" lon="7.5037835"><ele>252.0</ele><time>2026-05-03T14:48:51.315Z</time></trkpt><trkpt lat="44.9399876" lon="7.5039105"><ele>251.0</ele><time>2026-05-03T14:48:52.315Z</time></trkpt><trkpt lat="44.9398753" lon="7.5040187"><ele>250.0</ele><time>2026-05-03T14:48:53.314Z</time></trkpt><trkpt lat="44.9397504" lon="7.5040984"><ele>249.0</ele><time>2026-05-03T14:48:54.314Z</time></trkpt><trkpt lat="44.9396141" lon="7.5041435"><ele>249.0</ele><time>2026-05-03T14:48:55.314Z</time></trkpt><trkpt lat="44.9394611" lon="7.5041588"><ele>249.0</ele><time>2026-05-03T14:48:56.315Z</time></trkpt><trkpt lat="44.9392968" lon="7.5041395"><ele>249.0</ele><time>2026-05-03T14:48:57.315Z</time></trkpt><trkpt lat="44.939134" lon="7.5041035"><ele>249.5</ele><time>2026-05-03T14:48:58.316Z</time></trkpt><trkpt lat="44.9389858" lon="7.5040622"><ele>250.0</ele><time>2026-05-03T14:48:59.315Z</time></trkpt><trkpt lat="44.9388524" lon="7.5040173"><ele>250.5</ele><time>2026-05-03T14:49:00.315Z</time></trkpt><trkpt lat="44.9387403" lon="7.5039714"><ele>251.0</ele><time>2026-05-03T14:49:01.314Z</time></trkpt><trkpt lat="44.9386489" lon="7.5039313"><ele>251.00000000000003</ele><time>2026-05-03T14:49:02.316Z</time></trkpt><trkpt lat="44.9385788" lon="7.5039002"><ele>251.0</ele><time>2026-05-03T14:49:03.315Z</time></trkpt><trkpt lat="44.9384967" lon="7.5038544"><ele>251.0</ele><time>2026-05-03T14:49:05.315Z</time></trkpt><trkpt lat="44.9385966" lon="7.5038904"><ele>251.0</ele><time>2026-05-03T14:49:27.315Z</time></trkpt><trkpt lat="44.9386636" lon="7.503913"><ele>251.00000000000003</ele><time>2026-05-03T14:49:28.315Z</time></trkpt><trkpt lat="44.9387503" lon="7.5039492"><ele>251.0</ele><time>2026-05-03T14:49:30.315Z</time></trkpt><trkpt lat="44.9387926" lon="7.5038737"><ele>251.0</ele><time>2026-05-03T14:49:32.314Z</time></trkpt><trkpt lat="44.9388119" lon="7.5037794"><ele>251.0</ele><time>2026-05-03T14:49:33.316Z</time></trkpt><trkpt lat="44.9388471" lon="7.5036401"><ele>251.0</ele><time>2026-05-03T14:49:34.315Z</time></trkpt><trkpt lat="44.9388929" lon="7.5034573"><ele>251.0</ele><time>2026-05-03T14:49:35.314Z</time></trkpt><trkpt lat="44.9389469" lon="7.5032275"><ele>251.0</ele><time>2026-05-03T14:49:36.314Z</time></trkpt><trkpt lat="44.9390009" lon="7.5029777"><ele>251.0</ele><time>2026-05-03T14:49:37.315Z</time></trkpt><trkpt lat="44.9390584" lon="7.5027451"><ele>251.0</ele><time>2026-05-03T14:49:38.315Z</time></trkpt><trkpt lat="44.9391116" lon="7.5025344"><ele>251.25</ele><time>2026-05-03T14:49:39.314Z</time></trkpt><trkpt lat="44.9391614" lon="7.5023341"><ele>251.5</ele><time>2026-05-03T14:49:40.316Z</time></trkpt><trkpt lat="44.9392031" lon="7.5021596"><ele>251.75</ele><time>2026-05-03T14:49:41.314Z</time></trkpt><trkpt lat="44.939241" lon="7.5019937"><ele>252.0</ele><time>2026-05-03T14:49:42.314Z</time></trkpt><trkpt lat="44.9392763" lon="7.5018299"><ele>252.0</ele><time>2026-05-03T14:49:43.316Z</time></trkpt><trkpt lat="44.9393068" lon="7.5016752"><ele>252.0</ele><time>2026-05-03T14:49:44.314Z</time></trkpt><trkpt lat="44.9393307" lon="7.5015291"><ele>252.0</ele><time>2026-05-03T14:49:45.314Z</time></trkpt><trkpt lat="44.9393362" lon="7.5013823"><ele>252.0</ele><time>2026-05-03T14:49:46.314Z</time></trkpt><trkpt lat="44.9393135" lon="7.5012273"><ele>252.0</ele><time>2026-05-03T14:49:47.315Z</time></trkpt><trkpt lat="44.939268" lon="7.501057"><ele>251.75</ele><time>2026-05-03T14:49:48.314Z</time></trkpt><trkpt lat="44.9392107" lon="7.5008835"><ele>251.5</ele><time>2026-05-03T14:49:49.315Z</time></trkpt><trkpt lat="44.9391597" lon="7.500719"><ele>251.25</ele><time>2026-05-03T14:49:50.314Z</time></trkpt><trkpt lat="44.9391209" lon="7.5005655"><ele>251.0</ele><time>2026-05-03T14:49:51.315Z</time></trkpt><trkpt lat="44.9390867" lon="7.5004219"><ele>251.60000000000002</ele><time>2026-05-03T14:49:52.314Z</time></trkpt><trkpt lat="44.9390316" lon="7.5002957"><ele>252.20000000000002</ele><time>2026-05-03T14:49:53.316Z</time></trkpt><trkpt lat="44.9389564" lon="7.5001803"><ele>252.79999999999998</ele><time>2026-05-03T14:49:54.315Z</time></trkpt><trkpt lat="44.9388644" lon="7.5000906"><ele>253.39999999999998</ele><time>2026-05-03T14:49:55.315Z</time></trkpt><trkpt lat="44.9387745" lon="7.500024"><ele>254.0</ele><time>2026-05-03T14:49:56.314Z</time></trkpt><trkpt lat="44.9386953" lon="7.4999504"><ele>254.00000000000003</ele><time>2026-05-03T14:49:57.314Z</time></trkpt><trkpt lat="44.9386321" lon="7.4998486"><ele>254.0</ele><time>2026-05-03T14:49:58.314Z</time></trkpt><trkpt lat="44.9385854" lon="7.4997362"><ele>254.0</ele><time>2026-05-03T14:49:59.315Z</time></trkpt><trkpt lat="44.9385799" lon="7.4996208"><ele>254.0</ele><time>2026-05-03T14:50:00.315Z</time></trkpt><trkpt lat="44.9386011" lon="7.4995054"><ele>254.00000000000003</ele><time>2026-05-03T14:50:01.317Z</time></trkpt><trkpt lat="44.9386433" lon="7.4993883"><ele>254.0</ele><time>2026-05-03T14:50:02.314Z</time></trkpt><trkpt lat="44.9386858" lon="7.4992863"><ele>254.0</ele><time>2026-05-03T14:50:03.316Z</time></trkpt><trkpt lat="44.9387063" lon="7.4992011"><ele>253.99999999999997</ele><time>2026-05-03T14:50:04.315Z</time></trkpt><trkpt lat="44.9386418" lon="7.4990458"><ele>253.99999999999997</ele><time>2026-05-03T14:50:06.315Z</time></trkpt><trkpt lat="44.9385654" lon="7.4989565"><ele>254.0</ele><time>2026-05-03T14:50:07.316Z</time></trkpt><trkpt lat="44.9384516" lon="7.4988604"><ele>254.0</ele><time>2026-05-03T14:50:08.314Z</time></trkpt><trkpt lat="44.9383354" lon="7.4987972"><ele>254.2</ele><time>2026-05-03T14:50:09.315Z</time></trkpt><trkpt lat="44.9382251" lon="7.4987328"><ele>254.39999999999998</ele><time>2026-05-03T14:50:10.316Z</time></trkpt><trkpt lat="44.9381256" lon="7.4986694"><ele>254.6</ele><time>2026-05-03T14:50:11.316Z</time></trkpt><trkpt lat="44.9380412" lon="7.4985927"><ele>254.8</ele><time>2026-05-03T14:50:12.315Z</time></trkpt><trkpt lat="44.937964" lon="7.498502"><ele>255.0</ele><time>2026-05-03T14:50:13.315Z</time></trkpt><trkpt lat="44.9378891" lon="7.498389"><ele>255.0</ele><time>2026-05-03T14:50:14.314Z</time></trkpt><trkpt lat="44.9378205" lon="7.4982636"><ele>255.0</ele><time>2026-05-03T14:50:15.315Z</time></trkpt><trkpt lat="44.9377562" lon="7.4981207"><ele>255.0</ele><time>2026-05-03T14:50:16.315Z</time></trkpt><trkpt lat="44.9376967" lon="7.4979772"><ele>255.0</ele><time>2026-05-03T14:50:17.316Z</time></trkpt><trkpt lat="44.9376361" lon="7.4978267"><ele>254.75</ele><time>2026-05-03T14:50:18.315Z</time></trkpt><trkpt lat="44.9375855" lon="7.4976769"><ele>254.5</ele><time>2026-05-03T14:50:19.315Z</time></trkpt><trkpt lat="44.9375408" lon="7.4975273"><ele>254.25</ele><time>2026-05-03T14:50:20.317Z</time></trkpt><trkpt lat="44.937495" lon="7.4973758"><ele>254.0</ele><time>2026-05-03T14:50:21.315Z</time></trkpt><trkpt lat="44.9374303" lon="7.4972158"><ele>254.75</ele><time>2026-05-03T14:50:22.314Z</time></trkpt><trkpt lat="44.937352" lon="7.4970743"><ele>255.5</ele><time>2026-05-03T14:50:23.314Z</time></trkpt><trkpt lat="44.9372667" lon="7.4969292"><ele>256.25</ele><time>2026-05-03T14:50:24.314Z</time></trkpt><trkpt lat="44.9371695" lon="7.4967823"><ele>257.0</ele><time>2026-05-03T14:50:25.315Z</time></trkpt><trkpt lat="44.9370849" lon="7.4966594"><ele>257.0</ele><time>2026-05-03T14:50:26.314Z</time></trkpt><trkpt lat="44.9369996" lon="7.4965401"><ele>257.0</ele><time>2026-05-03T14:50:27.315Z</time></trkpt><trkpt lat="44.9368926" lon="7.496419"><ele>257.0</ele><time>2026-05-03T14:50:28.315Z</time></trkpt><trkpt lat="44.9367892" lon="7.4963124"><ele>257.0</ele><time>2026-05-03T14:50:29.315Z</time></trkpt><trkpt lat="44.9366837" lon="7.4961948"><ele>256.5</ele><time>2026-05-03T14:50:30.315Z</time></trkpt><trkpt lat="44.9365832" lon="7.4960807"><ele>256.0</ele><time>2026-05-03T14:50:31.315Z</time></trkpt><trkpt lat="44.93649" lon="7.4959652"><ele>255.5</ele><time>2026-05-03T14:50:32.314Z</time></trkpt><trkpt lat="44.9363999" lon="7.4958483"><ele>255.0</ele><time>2026-05-03T14:50:33.315Z</time></trkpt><trkpt lat="44.9363005" lon="7.4957432"><ele>255.0</ele><time>2026-05-03T14:50:34.315Z</time></trkpt><trkpt lat="44.9361938" lon="7.4956464"><ele>255.0</ele><time>2026-05-03T14:50:35.315Z</time></trkpt><trkpt lat="44.9360779" lon="7.4955583"><ele>255.0</ele><time>2026-05-03T14:50:36.315Z</time></trkpt><trkpt lat="44.9359552" lon="7.495464"><ele>255.0</ele><time>2026-05-03T14:50:37.314Z</time></trkpt><trkpt lat="44.9358399" lon="7.4953803"><ele>254.25</ele><time>2026-05-03T14:50:38.315Z</time></trkpt><trkpt lat="44.9357287" lon="7.4953051"><ele>253.5</ele><time>2026-05-03T14:50:39.315Z</time></trkpt><trkpt lat="44.9356186" lon="7.4952301"><ele>252.75</ele><time>2026-05-03T14:50:40.314Z</time></trkpt><trkpt lat="44.9355194" lon="7.495157"><ele>252.0</ele><time>2026-05-03T14:50:41.314Z</time></trkpt><trkpt lat="44.9354403" lon="7.4950536"><ele>252.0</ele><time>2026-05-03T14:50:42.315Z</time></trkpt><trkpt lat="44.9353689" lon="7.4949244"><ele>252.0</ele><time>2026-05-03T14:50:43.315Z</time></trkpt><trkpt lat="44.9353094" lon="7.4947888"><ele>252.0</ele><time>2026-05-03T14:50:44.315Z</time></trkpt><trkpt lat="44.9352549" lon="7.4946764"><ele>252.0</ele><time>2026-05-03T14:50:45.315Z</time></trkpt><trkpt lat="44.9351948" lon="7.4945891"><ele>252.0</ele><time>2026-05-03T14:50:46.315Z</time></trkpt><trkpt lat="44.9351119" lon="7.4945093"><ele>252.75</ele><time>2026-05-03T14:50:47.315Z</time></trkpt><trkpt lat="44.9349975" lon="7.4944365"><ele>253.5</ele><time>2026-05-03T14:50:48.315Z</time></trkpt><trkpt lat="44.9348579" lon="7.4943599"><ele>254.25</ele><time>2026-05-03T14:50:49.314Z</time></trkpt><trkpt lat="44.9347032" lon="7.4942798"><ele>255.0</ele><time>2026-05-03T14:50:50.315Z</time></trkpt><trkpt lat="44.9345442" lon="7.4941806"><ele>255.0</ele><time>2026-05-03T14:50:51.315Z</time></trkpt><trkpt lat="44.9343929" lon="7.4940837"><ele>255.0</ele><time>2026-05-03T14:50:52.314Z</time></trkpt><trkpt lat="44.9342489" lon="7.4939849"><ele>255.0</ele><time>2026-05-03T14:50:53.315Z</time></trkpt><trkpt lat="44.9341123" lon="7.4938952"><ele>254.75</ele><time>2026-05-03T14:50:54.314Z</time></trkpt><trkpt lat="44.9339803" lon="7.4938128"><ele>254.5</ele><time>2026-05-03T14:50:55.314Z</time></trkpt><trkpt lat="44.9338442" lon="7.4937382"><ele>254.25</ele><time>2026-05-03T14:50:56.316Z</time></trkpt><trkpt lat="44.933715" lon="7.493673"><ele>254.0</ele><time>2026-05-03T14:50:57.315Z</time></trkpt><trkpt lat="44.9335963" lon="7.4936053"><ele>253.79999999999998</ele><time>2026-05-03T14:50:58.315Z</time></trkpt><trkpt lat="44.9334955" lon="7.4935549"><ele>253.59999999999997</ele><time>2026-05-03T14:50:59.315Z</time></trkpt><trkpt lat="44.9333999" lon="7.4935223"><ele>253.4</ele><time>2026-05-03T14:51:00.314Z</time></trkpt><trkpt lat="44.9333205" lon="7.4935029"><ele>253.2</ele><time>2026-05-03T14:51:01.315Z</time></trkpt><trkpt lat="44.9332277" lon="7.493428"><ele>253.0</ele><time>2026-05-03T14:51:03.315Z</time></trkpt><trkpt lat="44.9332005" lon="7.4933345"><ele>253.75</ele><time>2026-05-03T14:51:04.315Z</time></trkpt><trkpt lat="44.9331701" lon="7.4931976"><ele>254.5</ele><time>2026-05-03T14:51:05.316Z</time></trkpt><trkpt lat="44.933123" lon="7.4930134"><ele>255.25</ele><time>2026-05-03T14:51:06.314Z</time></trkpt><trkpt lat="44.9330759" lon="7.492807"><ele>256.0</ele><time>2026-05-03T14:51:07.315Z</time></trkpt><trkpt lat="44.9330389" lon="7.492604"><ele>256.0</ele><time>2026-05-03T14:51:08.316Z</time></trkpt><trkpt lat="44.9330156" lon="7.4924165"><ele>256.0</ele><time>2026-05-03T14:51:09.315Z</time></trkpt><trkpt lat="44.9329886" lon="7.4922233"><ele>256.0</ele><time>2026-05-03T14:51:10.314Z</time></trkpt><trkpt lat="44.9329569" lon="7.4920355"><ele>256.0</ele><time>2026-05-03T14:51:11.314Z</time></trkpt><trkpt lat="44.9329135" lon="7.4918495"><ele>256.25</ele><time>2026-05-03T14:51:12.314Z</time></trkpt><trkpt lat="44.9328602" lon="7.4916602"><ele>256.5</ele><time>2026-05-03T14:51:13.314Z</time></trkpt><trkpt lat="44.9328062" lon="7.4914765"><ele>256.75</ele><time>2026-05-03T14:51:14.314Z</time></trkpt><trkpt lat="44.9327544" lon="7.4913015"><ele>257.0</ele><time>2026-05-03T14:51:15.315Z</time></trkpt><trkpt lat="44.9327091" lon="7.4911483"><ele>257.0</ele><time>2026-05-03T14:51:16.314Z</time></trkpt><trkpt lat="44.932662" lon="7.4910043"><ele>257.0</ele><time>2026-05-03T14:51:17.315Z</time></trkpt><trkpt lat="44.9326028" lon="7.4908676"><ele>257.0</ele><time>2026-05-03T14:51:18.315Z</time></trkpt><trkpt lat="44.9325128" lon="7.4907281"><ele>257.0</ele><time>2026-05-03T14:51:19.315Z</time></trkpt><trkpt lat="44.9324207" lon="7.4906046"><ele>256.75</ele><time>2026-05-03T14:51:20.315Z</time></trkpt><trkpt lat="44.9323356" lon="7.4905028"><ele>256.5</ele><time>2026-05-03T14:51:21.316Z</time></trkpt><trkpt lat="44.9322366" lon="7.4904136"><ele>256.25</ele><time>2026-05-03T14:51:22.315Z</time></trkpt><trkpt lat="44.9321081" lon="7.4903338"><ele>256.0</ele><time>2026-05-03T14:51:23.315Z</time></trkpt><trkpt lat="44.9319701" lon="7.4902562"><ele>256.0</ele><time>2026-05-03T14:51:24.314Z</time></trkpt><trkpt lat="44.9318488" lon="7.490182"><ele>256.0</ele><time>2026-05-03T14:51:25.314Z</time></trkpt><trkpt lat="44.931738" lon="7.4901135"><ele>256.0</ele><time>2026-05-03T14:51:26.315Z</time></trkpt><trkpt lat="44.9316452" lon="7.490052"><ele>256.0</ele><time>2026-05-03T14:51:27.315Z</time></trkpt><trkpt lat="44.9315637" lon="7.4900012"><ele>256.0</ele><time>2026-05-03T14:51:28.314Z</time></trkpt><trkpt lat="44.9314969" lon="7.4899678"><ele>256.0</ele><time>2026-05-03T14:51:29.314Z</time></trkpt><trkpt lat="44.9314069" lon="7.4899037"><ele>256.0</ele><time>2026-05-03T14:51:31.314Z</time></trkpt><trkpt lat="44.9313168" lon="7.4898018"><ele>256.0</ele><time>2026-05-03T14:53:38.313Z</time></trkpt><trkpt lat="44.931247" lon="7.4897222"><ele>256.0</ele><time>2026-05-03T14:53:39.315Z</time></trkpt><trkpt lat="44.9311586" lon="7.4896217"><ele>256.0</ele><time>2026-05-03T14:53:40.314Z</time></trkpt><trkpt lat="44.9310529" lon="7.4895257"><ele>256.25</ele><time>2026-05-03T14:53:41.313Z</time></trkpt><trkpt lat="44.9309488" lon="7.4894375"><ele>256.5</ele><time>2026-05-03T14:53:42.314Z</time></trkpt><trkpt lat="44.9308544" lon="7.4893425"><ele>256.75</ele><time>2026-05-03T14:53:43.313Z</time></trkpt><trkpt lat="44.9307864" lon="7.4892368"><ele>257.0</ele><time>2026-05-03T14:53:44.313Z</time></trkpt><trkpt lat="44.9307391" lon="7.4890909"><ele>257.25</ele><time>2026-05-03T14:53:45.314Z</time></trkpt><trkpt lat="44.930699" lon="7.4889105"><ele>257.5</ele><time>2026-05-03T14:53:46.315Z</time></trkpt><trkpt lat="44.9306665" lon="7.4886985"><ele>257.75</ele><time>2026-05-03T14:53:47.315Z</time></trkpt><trkpt lat="44.9306307" lon="7.4884867"><ele>258.0</ele><time>2026-05-03T14:53:48.314Z</time></trkpt><trkpt lat="44.9305815" lon="7.4882668"><ele>258.0</ele><time>2026-05-03T14:53:49.313Z</time></trkpt><trkpt lat="44.9305363" lon="7.4880544"><ele>258.0</ele><time>2026-05-03T14:53:50.314Z</time></trkpt><trkpt lat="44.9304896" lon="7.4878132"><ele>258.0</ele><time>2026-05-03T14:53:51.313Z</time></trkpt><trkpt lat="44.9304428" lon="7.4875745"><ele>258.0</ele><time>2026-05-03T14:53:52.315Z</time></trkpt><trkpt lat="44.9303963" lon="7.4873262"><ele>258.0</ele><time>2026-05-03T14:53:53.314Z</time></trkpt><trkpt lat="44.9303516" lon="7.4870759"><ele>258.0</ele><time>2026-05-03T14:53:54.313Z</time></trkpt><trkpt lat="44.9303034" lon="7.4868057"><ele>258.0</ele><time>2026-05-03T14:53:55.315Z</time></trkpt><trkpt lat="44.9302537" lon="7.4865511"><ele>258.0</ele><time>2026-05-03T14:53:56.313Z</time></trkpt><trkpt lat="44.9302066" lon="7.4862995"><ele>258.0</ele><time>2026-05-03T14:53:57.313Z</time></trkpt><trkpt lat="44.9301569" lon="7.4860586"><ele>258.0</ele><time>2026-05-03T14:53:58.314Z</time></trkpt><trkpt lat="44.9301139" lon="7.4858133"><ele>258.0</ele><time>2026-05-03T14:53:59.315Z</time></trkpt><trkpt lat="44.9300588" lon="7.4855311"><ele>258.0</ele><time>2026-05-03T14:54:00.315Z</time></trkpt><trkpt lat="44.930009" lon="7.4852598"><ele>258.3333333333333</ele><time>2026-05-03T14:54:01.314Z</time></trkpt><trkpt lat="44.9299585" lon="7.4849969"><ele>258.66666666666663</ele><time>2026-05-03T14:54:02.314Z</time></trkpt><trkpt lat="44.9299216" lon="7.4847614"><ele>259.0</ele><time>2026-05-03T14:54:03.314Z</time></trkpt><trkpt lat="44.929874" lon="7.4845173"><ele>259.3333333333333</ele><time>2026-05-03T14:54:04.315Z</time></trkpt><trkpt lat="44.9298274" lon="7.4842725"><ele>259.6666666666667</ele><time>2026-05-03T14:54:05.314Z</time></trkpt><trkpt lat="44.9297874" lon="7.4840384"><ele>260.0</ele><time>2026-05-03T14:54:06.314Z</time></trkpt><trkpt lat="44.9297456" lon="7.4838219"><ele>259.5</ele><time>2026-05-03T14:54:07.314Z</time></trkpt><trkpt lat="44.929703" lon="7.4836163"><ele>259.0</ele><time>2026-05-03T14:54:08.315Z</time></trkpt><trkpt lat="44.9296637" lon="7.4834288"><ele>258.5</ele><time>2026-05-03T14:54:09.314Z</time></trkpt><trkpt lat="44.9296273" lon="7.4832569"><ele>258.0</ele><time>2026-05-03T14:54:10.314Z</time></trkpt><trkpt lat="44.9295885" lon="7.4830901"><ele>258.0</ele><time>2026-05-03T14:54:11.313Z</time></trkpt><trkpt lat="44.9295453" lon="7.4828968"><ele>258.0</ele><time>2026-05-03T14:54:12.314Z</time></trkpt><trkpt lat="44.9295081" lon="7.4826896"><ele>258.0</ele><time>2026-05-03T14:54:13.313Z</time></trkpt><trkpt lat="44.929466" lon="7.4824595"><ele>258.0</ele><time>2026-05-03T14:54:14.313Z</time></trkpt><trkpt lat="44.9294232" lon="7.4822313"><ele>258.0</ele><time>2026-05-03T14:54:15.313Z</time></trkpt><trkpt lat="44.9293794" lon="7.4820167"><ele>258.0</ele><time>2026-05-03T14:54:16.313Z</time></trkpt><trkpt lat="44.9293436" lon="7.4818164"><ele>258.0</ele><time>2026-05-03T14:54:17.315Z</time></trkpt><trkpt lat="44.9293011" lon="7.4816185"><ele>258.0</ele><time>2026-05-03T14:54:18.314Z</time></trkpt><trkpt lat="44.9292676" lon="7.4814321"><ele>258.0</ele><time>2026-05-03T14:54:19.313Z</time></trkpt><trkpt lat="44.9292348" lon="7.4812493"><ele>258.0</ele><time>2026-05-03T14:54:20.313Z</time></trkpt><trkpt lat="44.9291955" lon="7.4810652"><ele>258.0</ele><time>2026-05-03T14:54:21.314Z</time></trkpt><trkpt lat="44.9291651" lon="7.4808845"><ele>258.0</ele><time>2026-05-03T14:54:22.313Z</time></trkpt><trkpt lat="44.929131" lon="7.4807069"><ele>258.0</ele><time>2026-05-03T14:54:23.315Z</time></trkpt><trkpt lat="44.9290955" lon="7.4805226"><ele>258.0</ele><time>2026-05-03T14:54:24.314Z</time></trkpt><trkpt lat="44.9290616" lon="7.480345"><ele>258.25</ele><time>2026-05-03T14:54:25.315Z</time></trkpt><trkpt lat="44.9290293" lon="7.4801642"><ele>258.5</ele><time>2026-05-03T14:54:26.313Z</time></trkpt><trkpt lat="44.928991" lon="7.4799847"><ele>258.75</ele><time>2026-05-03T14:54:27.313Z</time></trkpt><trkpt lat="44.9289606" lon="7.4798102"><ele>259.0</ele><time>2026-05-03T14:54:28.313Z</time></trkpt><trkpt lat="44.9289274" lon="7.4796381"><ele>258.5</ele><time>2026-05-03T14:54:29.314Z</time></trkpt><trkpt lat="44.928896" lon="7.4794753"><ele>258.0</ele><time>2026-05-03T14:54:30.314Z</time></trkpt><trkpt lat="44.9288628" lon="7.4793054"><ele>257.5</ele><time>2026-05-03T14:54:31.313Z</time></trkpt><trkpt lat="44.9288269" lon="7.4791405"><ele>257.0</ele><time>2026-05-03T14:54:32.315Z</time></trkpt><trkpt lat="44.9287936" lon="7.4789761"><ele>257.0</ele><time>2026-05-03T14:54:33.314Z</time></trkpt><trkpt lat="44.9287667" lon="7.4788244"><ele>257.0</ele><time>2026-05-03T14:54:34.314Z</time></trkpt><trkpt lat="44.9287367" lon="7.4786831"><ele>257.0</ele><time>2026-05-03T14:54:35.314Z</time></trkpt><trkpt lat="44.9287061" lon="7.4785342"><ele>257.0</ele><time>2026-05-03T14:54:36.316Z</time></trkpt><trkpt lat="44.9286807" lon="7.47841"><ele>257.0</ele><time>2026-05-03T14:54:37.313Z</time></trkpt><trkpt lat="44.9286593" lon="7.4782981"><ele>257.4</ele><time>2026-05-03T14:54:38.313Z</time></trkpt><trkpt lat="44.9286419" lon="7.4781998"><ele>257.79999999999995</ele><time>2026-05-03T14:54:39.314Z</time></trkpt><trkpt lat="44.9286262" lon="7.4781109"><ele>258.2</ele><time>2026-05-03T14:54:40.313Z</time></trkpt><trkpt lat="44.9285911" lon="7.4779544"><ele>258.59999999999997</ele><time>2026-05-03T14:54:42.313Z</time></trkpt><trkpt lat="44.9285637" lon="7.4777741"><ele>259.0</ele><time>2026-05-03T14:54:44.314Z</time></trkpt><trkpt lat="44.9285502" lon="7.4776565"><ele>259.5</ele><time>2026-05-03T14:54:45.315Z</time></trkpt><trkpt lat="44.92853" lon="7.4775184"><ele>260.0</ele><time>2026-05-03T14:54:46.314Z</time></trkpt><trkpt lat="44.9285035" lon="7.4773717"><ele>260.5</ele><time>2026-05-03T14:54:47.314Z</time></trkpt><trkpt lat="44.9284757" lon="7.4772068"><ele>261.0</ele><time>2026-05-03T14:54:48.314Z</time></trkpt><trkpt lat="44.9284419" lon="7.4770344"><ele>261.0</ele><time>2026-05-03T14:54:49.315Z</time></trkpt><trkpt lat="44.9284007" lon="7.4768573"><ele>261.0</ele><time>2026-05-03T14:54:50.313Z</time></trkpt><trkpt lat="44.9283692" lon="7.4766745"><ele>261.0</ele><time>2026-05-03T14:54:51.314Z</time></trkpt><trkpt lat="44.9283344" lon="7.4764943"><ele>261.0</ele><time>2026-05-03T14:54:52.315Z</time></trkpt><trkpt lat="44.9283097" lon="7.4763213"><ele>261.0</ele><time>2026-05-03T14:54:53.314Z</time></trkpt><trkpt lat="44.9282693" lon="7.4761347"><ele>261.0</ele><time>2026-05-03T14:54:54.314Z</time></trkpt><trkpt lat="44.9282289" lon="7.4759423"><ele>261.0</ele><time>2026-05-03T14:54:55.314Z</time></trkpt><trkpt lat="44.9281839" lon="7.4757489"><ele>261.0</ele><time>2026-05-03T14:54:56.314Z</time></trkpt><trkpt lat="44.9281466" lon="7.4755515"><ele>262.5</ele><time>2026-05-03T14:54:57.313Z</time></trkpt><trkpt lat="44.928109" lon="7.4753524"><ele>264.0</ele><time>2026-05-03T14:54:58.315Z</time></trkpt><trkpt lat="44.9280747" lon="7.4751724"><ele>265.5</ele><time>2026-05-03T14:54:59.315Z</time></trkpt><trkpt lat="44.9280398" lon="7.474981"><ele>267.0</ele><time>2026-05-03T14:55:00.314Z</time></trkpt><trkpt lat="44.9280019" lon="7.4747869"><ele>266.5</ele><time>2026-05-03T14:55:01.313Z</time></trkpt><trkpt lat="44.9279651" lon="7.4745802"><ele>266.0</ele><time>2026-05-03T14:55:02.316Z</time></trkpt><trkpt lat="44.9279283" lon="7.4743777"><ele>265.5</ele><time>2026-05-03T14:55:03.314Z</time></trkpt><trkpt lat="44.9278913" lon="7.4741842"><ele>265.0</ele><time>2026-05-03T14:55:04.314Z</time></trkpt><trkpt lat="44.9278543" lon="7.4739802"><ele>264.0</ele><time>2026-05-03T14:55:05.314Z</time></trkpt><trkpt lat="44.9278144" lon="7.473769"><ele>263.0</ele><time>2026-05-03T14:55:06.313Z</time></trkpt><trkpt lat="44.927777" lon="7.4735748"><ele>262.0</ele><time>2026-05-03T14:55:07.314Z</time></trkpt><trkpt lat="44.9277372" lon="7.4733649"><ele>262.0</ele><time>2026-05-03T14:55:08.314Z</time></trkpt><trkpt lat="44.9277032" lon="7.473168"><ele>262.0</ele><time>2026-05-03T14:55:09.313Z</time></trkpt><trkpt lat="44.9276659" lon="7.4729691"><ele>262.0</ele><time>2026-05-03T14:55:10.313Z</time></trkpt><trkpt lat="44.9276325" lon="7.4727729"><ele>262.0</ele><time>2026-05-03T14:55:11.313Z</time></trkpt><trkpt lat="44.9276027" lon="7.4725629"><ele>262.25</ele><time>2026-05-03T14:55:12.313Z</time></trkpt><trkpt lat="44.9275666" lon="7.4723609"><ele>262.5</ele><time>2026-05-03T14:55:13.313Z</time></trkpt><trkpt lat="44.9275333" lon="7.4721696"><ele>262.75</ele><time>2026-05-03T14:55:14.314Z</time></trkpt><trkpt lat="44.9275035" lon="7.4719909"><ele>263.0</ele><time>2026-05-03T14:55:15.314Z</time></trkpt><trkpt lat="44.9274773" lon="7.4718242"><ele>262.4</ele><time>2026-05-03T14:55:16.313Z</time></trkpt><trkpt lat="44.9274492" lon="7.4716629"><ele>261.8</ele><time>2026-05-03T14:55:17.315Z</time></trkpt><trkpt lat="44.9274184" lon="7.4715249"><ele>261.2</ele><time>2026-05-03T14:55:18.313Z</time></trkpt><trkpt lat="44.9273959" lon="7.4713972"><ele>260.6</ele><time>2026-05-03T14:55:19.315Z</time></trkpt><trkpt lat="44.9273823" lon="7.4712951"><ele>260.0</ele><time>2026-05-03T14:55:20.315Z</time></trkpt><trkpt lat="44.9274102" lon="7.4711741"><ele>260.0</ele><time>2026-05-03T14:55:22.315Z</time></trkpt><trkpt lat="44.9275514" lon="7.4711403"><ele>260.0</ele><time>2026-05-03T14:55:24.315Z</time></trkpt><trkpt lat="44.9276645" lon="7.4711473"><ele>260.0</ele><time>2026-05-03T14:55:25.313Z</time></trkpt><trkpt lat="44.9277944" lon="7.471143"><ele>260.0</ele><time>2026-05-03T14:55:26.314Z</time></trkpt><trkpt lat="44.927932" lon="7.471121"><ele>260.6</ele><time>2026-05-03T14:55:27.314Z</time></trkpt><trkpt lat="44.9280572" lon="7.4711055"><ele>261.2</ele><time>2026-05-03T14:55:28.313Z</time></trkpt><trkpt lat="44.9281632" lon="7.4710868"><ele>261.8</ele><time>2026-05-03T14:55:29.314Z</time></trkpt><trkpt lat="44.9282521" lon="7.4710605"><ele>262.4</ele><time>2026-05-03T14:55:30.314Z</time></trkpt><trkpt lat="44.9283204" lon="7.4710196"><ele>263.0</ele><time>2026-05-03T14:55:31.313Z</time></trkpt><trkpt lat="44.9283951" lon="7.4708756"><ele>263.0</ele><time>2026-05-03T14:55:33.313Z</time></trkpt><trkpt lat="44.9284046" lon="7.4707015"><ele>263.0</ele><time>2026-05-03T14:55:35.314Z</time></trkpt><trkpt lat="44.9284019" lon="7.470594"><ele>263.0</ele><time>2026-05-03T14:55:36.313Z</time></trkpt><trkpt lat="44.9284014" lon="7.4704533"><ele>263.0</ele><time>2026-05-03T14:55:37.314Z</time></trkpt><trkpt lat="44.9284009" lon="7.4702966"><ele>263.0</ele><time>2026-05-03T14:55:38.314Z</time></trkpt><trkpt lat="44.9283926" lon="7.4701274"><ele>263.0</ele><time>2026-05-03T14:55:39.313Z</time></trkpt><trkpt lat="44.9283696" lon="7.4699596"><ele>263.0</ele><time>2026-05-03T14:55:40.315Z</time></trkpt><trkpt lat="44.9283303" lon="7.4697982"><ele>263.0</ele><time>2026-05-03T14:55:41.314Z</time></trkpt><trkpt lat="44.9282798" lon="7.4696451"><ele>263.0</ele><time>2026-05-03T14:55:42.313Z</time></trkpt><trkpt lat="44.9282296" lon="7.4694968"><ele>262.8</ele><time>2026-05-03T14:55:43.315Z</time></trkpt><trkpt lat="44.9281861" lon="7.4693592"><ele>262.6</ele><time>2026-05-03T14:55:44.315Z</time></trkpt><trkpt lat="44.9281439" lon="7.4692351"><ele>262.4</ele><time>2026-05-03T14:55:45.314Z</time></trkpt><trkpt lat="44.9280988" lon="7.4691138"><ele>262.2</ele><time>2026-05-03T14:55:46.313Z</time></trkpt><trkpt lat="44.9280604" lon="7.4689942"><ele>262.0</ele><time>2026-05-03T14:55:47.314Z</time></trkpt><trkpt lat="44.9280248" lon="7.4688709"><ele>262.0</ele><time>2026-05-03T14:55:48.314Z</time></trkpt><trkpt lat="44.9279911" lon="7.4687416"><ele>262.0</ele><time>2026-05-03T14:55:49.313Z</time></trkpt><trkpt lat="44.9279544" lon="7.4686021"><ele>262.0</ele><time>2026-05-03T14:55:50.313Z</time></trkpt><trkpt lat="44.927924" lon="7.4684612"><ele>262.0</ele><time>2026-05-03T14:55:51.313Z</time></trkpt><trkpt lat="44.9278961" lon="7.4683223"><ele>262.0</ele><time>2026-05-03T14:55:52.314Z</time></trkpt><trkpt lat="44.9278619" lon="7.4681895"><ele>262.0</ele><time>2026-05-03T14:55:53.313Z</time></trkpt><trkpt lat="44.9278294" lon="7.46807"><ele>262.0</ele><time>2026-05-03T14:55:54.314Z</time></trkpt><trkpt lat="44.9278129" lon="7.4679461"><ele>262.0</ele><time>2026-05-03T14:55:55.313Z</time></trkpt><trkpt lat="44.9277906" lon="7.4678171"><ele>262.0</ele><time>2026-05-03T14:55:56.313Z</time></trkpt><trkpt lat="44.9277719" lon="7.4676867"><ele>262.0</ele><time>2026-05-03T14:55:57.313Z</time></trkpt><trkpt lat="44.9277572" lon="7.4675421"><ele>262.0</ele><time>2026-05-03T14:55:58.313Z</time></trkpt><trkpt lat="44.9277646" lon="7.4673957"><ele>262.0</ele><time>2026-05-03T14:55:59.313Z</time></trkpt><trkpt lat="44.9277364" lon="7.4672583"><ele>262.0</ele><time>2026-05-03T14:56:00.313Z</time></trkpt><trkpt lat="44.9277078" lon="7.4671351"><ele>262.0</ele><time>2026-05-03T14:56:01.313Z</time></trkpt><trkpt lat="44.9277228" lon="7.4670056"><ele>262.0</ele><time>2026-05-03T14:56:02.314Z</time></trkpt><trkpt lat="44.9277138" lon="7.4668596"><ele>262.0</ele><time>2026-05-03T14:56:03.314Z</time></trkpt><trkpt lat="44.9276873" lon="7.4667213"><ele>262.0</ele><time>2026-05-03T14:56:04.315Z</time></trkpt><trkpt lat="44.9276729" lon="7.4666243"><ele>262.0</ele><time>2026-05-03T14:56:05.313Z</time></trkpt><trkpt lat="44.927661" lon="7.466516"><ele>262.0</ele><time>2026-05-03T14:56:06.314Z</time></trkpt><trkpt lat="44.9276632" lon="7.4663883"><ele>262.0</ele><time>2026-05-03T14:56:07.314Z</time></trkpt><trkpt lat="44.9276681" lon="7.4662608"><ele>262.0</ele><time>2026-05-03T14:56:08.314Z</time></trkpt><trkpt lat="44.9276796" lon="7.4661202"><ele>262.2</ele><time>2026-05-03T14:56:09.313Z</time></trkpt><trkpt lat="44.9276735" lon="7.4659736"><ele>262.4</ele><time>2026-05-03T14:56:10.313Z</time></trkpt><trkpt lat="44.9276598" lon="7.4658282"><ele>262.6</ele><time>2026-05-03T14:56:11.314Z</time></trkpt><trkpt lat="44.9276482" lon="7.4656951"><ele>262.8</ele><time>2026-05-03T14:56:12.313Z</time></trkpt><trkpt lat="44.9276224" lon="7.4655524"><ele>263.0</ele><time>2026-05-03T14:56:13.313Z</time></trkpt><trkpt lat="44.927592" lon="7.4653974"><ele>263.0</ele><time>2026-05-03T14:56:14.314Z</time></trkpt><trkpt lat="44.9275704" lon="7.4652487"><ele>263.0</ele><time>2026-05-03T14:56:15.314Z</time></trkpt><trkpt lat="44.9275594" lon="7.4650924"><ele>263.0</ele><time>2026-05-03T14:56:16.314Z</time></trkpt><trkpt lat="44.9275488" lon="7.4649347"><ele>263.0</ele><time>2026-05-03T14:56:17.313Z</time></trkpt><trkpt lat="44.927548" lon="7.4647816"><ele>263.0</ele><time>2026-05-03T14:56:18.314Z</time></trkpt><trkpt lat="44.9275446" lon="7.464626"><ele>264.5</ele><time>2026-05-03T14:56:19.313Z</time></trkpt><trkpt lat="44.9275341" lon="7.4644552"><ele>266.0</ele><time>2026-05-03T14:56:20.314Z</time></trkpt><trkpt lat="44.9275221" lon="7.4642853"><ele>267.5</ele><time>2026-05-03T14:56:21.313Z</time></trkpt><trkpt lat="44.9275006" lon="7.4641089"><ele>269.0</ele><time>2026-05-03T14:56:22.313Z</time></trkpt><trkpt lat="44.9274754" lon="7.4639465"><ele>269.0</ele><time>2026-05-03T14:56:23.314Z</time></trkpt><trkpt lat="44.9274397" lon="7.4637826"><ele>269.0</ele><time>2026-05-03T14:56:24.314Z</time></trkpt><trkpt lat="44.9273985" lon="7.4636208"><ele>269.0</ele><time>2026-05-03T14:56:25.314Z</time></trkpt><trkpt lat="44.9273486" lon="7.4634805"><ele>269.0</ele><time>2026-05-03T14:56:26.313Z</time></trkpt><trkpt lat="44.9272953" lon="7.4633605"><ele>268.8</ele><time>2026-05-03T14:56:27.315Z</time></trkpt><trkpt lat="44.927238" lon="7.4632506"><ele>268.59999999999997</ele><time>2026-05-03T14:56:28.314Z</time></trkpt><trkpt lat="44.9272013" lon="7.4631517"><ele>268.4</ele><time>2026-05-03T14:56:29.313Z</time></trkpt><trkpt lat="44.9271868" lon="7.4630243"><ele>268.2</ele><time>2026-05-03T14:56:30.314Z</time></trkpt><trkpt lat="44.9271809" lon="7.46288"><ele>268.0</ele><time>2026-05-03T14:56:31.313Z</time></trkpt><trkpt lat="44.9271725" lon="7.4627388"><ele>267.5</ele><time>2026-05-03T14:56:32.313Z</time></trkpt><trkpt lat="44.9271428" lon="7.4625921"><ele>267.0</ele><time>2026-05-03T14:56:33.313Z</time></trkpt><trkpt lat="44.9271109" lon="7.4624461"><ele>266.5</ele><time>2026-05-03T14:56:34.314Z</time></trkpt><trkpt lat="44.9270756" lon="7.4622931"><ele>266.0</ele><time>2026-05-03T14:56:35.314Z</time></trkpt><trkpt lat="44.9270541" lon="7.4621268"><ele>265.75</ele><time>2026-05-03T14:56:36.314Z</time></trkpt><trkpt lat="44.9270462" lon="7.4619524"><ele>265.5</ele><time>2026-05-03T14:56:37.314Z</time></trkpt><trkpt lat="44.9270422" lon="7.4617924"><ele>265.25</ele><time>2026-05-03T14:56:38.314Z</time></trkpt><trkpt lat="44.9270425" lon="7.4616247"><ele>265.0</ele><time>2026-05-03T14:56:39.313Z</time></trkpt><trkpt lat="44.9270429" lon="7.4614729"><ele>265.0</ele><time>2026-05-03T14:56:40.313Z</time></trkpt><trkpt lat="44.9270479" lon="7.4613308"><ele>265.0</ele><time>2026-05-03T14:56:41.312Z</time></trkpt><trkpt lat="44.9270489" lon="7.4611947"><ele>265.0</ele><time>2026-05-03T14:56:42.315Z</time></trkpt><trkpt lat="44.9270421" lon="7.4610804"><ele>265.0</ele><time>2026-05-03T14:56:43.314Z</time></trkpt><trkpt lat="44.9270321" lon="7.4609822"><ele>265.0</ele><time>2026-05-03T14:56:44.313Z</time></trkpt><trkpt lat="44.9270224" lon="7.4608847"><ele>265.0</ele><time>2026-05-03T14:56:45.314Z</time></trkpt><trkpt lat="44.9270313" lon="7.4607736"><ele>265.0</ele><time>2026-05-03T14:56:46.314Z</time></trkpt><trkpt lat="44.9270592" lon="7.4606296"><ele>265.0</ele><time>2026-05-03T14:56:47.313Z</time></trkpt><trkpt lat="44.9271024" lon="7.4604721"><ele>265.0</ele><time>2026-05-03T14:56:48.314Z</time></trkpt><trkpt lat="44.9271529" lon="7.4602866"><ele>265.0</ele><time>2026-05-03T14:56:49.315Z</time></trkpt><trkpt lat="44.9271972" lon="7.4600943"><ele>265.0</ele><time>2026-05-03T14:56:50.313Z</time></trkpt><trkpt lat="44.9272396" lon="7.4599072"><ele>265.0</ele><time>2026-05-03T14:56:51.313Z</time></trkpt><trkpt lat="44.9272787" lon="7.4597382"><ele>265.0</ele><time>2026-05-03T14:56:52.313Z</time></trkpt><trkpt lat="44.9273074" lon="7.4595917"><ele>265.0</ele><time>2026-05-03T14:56:53.314Z</time></trkpt><trkpt lat="44.92733" lon="7.4594489"><ele>265.0</ele><time>2026-05-03T14:56:54.314Z</time></trkpt><trkpt lat="44.9273547" lon="7.4592899"><ele>265.0</ele><time>2026-05-03T14:56:55.313Z</time></trkpt><trkpt lat="44.9273778" lon="7.4591134"><ele>265.0</ele><time>2026-05-03T14:56:56.313Z</time></trkpt><trkpt lat="44.9273961" lon="7.458926"><ele>265.0</ele><time>2026-05-03T14:56:57.314Z</time></trkpt><trkpt lat="44.9274071" lon="7.4587486"><ele>266.0</ele><time>2026-05-03T14:56:58.315Z</time></trkpt><trkpt lat="44.9274212" lon="7.4585755"><ele>267.0</ele><time>2026-05-03T14:56:59.313Z</time></trkpt><trkpt lat="44.9274496" lon="7.4583973"><ele>268.0</ele><time>2026-05-03T14:57:00.313Z</time></trkpt><trkpt lat="44.9274823" lon="7.4582245"><ele>269.0</ele><time>2026-05-03T14:57:01.314Z</time></trkpt><trkpt lat="44.927519" lon="7.4580595"><ele>269.2</ele><time>2026-05-03T14:57:02.313Z</time></trkpt><trkpt lat="44.9275534" lon="7.4579072"><ele>269.4</ele><time>2026-05-03T14:57:03.313Z</time></trkpt><trkpt lat="44.92758" lon="7.4577767"><ele>269.6</ele><time>2026-05-03T14:57:04.314Z</time></trkpt><trkpt lat="44.9275819" lon="7.4576455"><ele>269.8</ele><time>2026-05-03T14:57:05.313Z</time></trkpt><trkpt lat="44.9275507" lon="7.4574733"><ele>270.0</ele><time>2026-05-03T14:57:06.313Z</time></trkpt><trkpt lat="44.9275164" lon="7.4572952"><ele>270.0</ele><time>2026-05-03T14:57:07.314Z</time></trkpt><trkpt lat="44.9274934" lon="7.4571253"><ele>270.0</ele><time>2026-05-03T14:57:08.314Z</time></trkpt><trkpt lat="44.9274978" lon="7.4569557"><ele>270.0</ele><time>2026-05-03T14:57:09.314Z</time></trkpt><trkpt lat="44.9275227" lon="7.4568084"><ele>270.0</ele><time>2026-05-03T14:57:10.313Z</time></trkpt><trkpt lat="44.9275703" lon="7.4566606"><ele>269.8</ele><time>2026-05-03T14:57:11.313Z</time></trkpt><trkpt lat="44.9276498" lon="7.4565425"><ele>269.6</ele><time>2026-05-03T14:57:12.313Z</time></trkpt><trkpt lat="44.9277442" lon="7.4564451"><ele>269.4</ele><time>2026-05-03T14:57:13.313Z</time></trkpt><trkpt lat="44.9278193" lon="7.4563745"><ele>269.2</ele><time>2026-05-03T14:57:14.314Z</time></trkpt><trkpt lat="44.9278766" lon="7.4562618"><ele>269.0</ele><time>2026-05-03T14:57:16.314Z</time></trkpt><trkpt lat="44.9278445" lon="7.4561002"><ele>268.59999999999997</ele><time>2026-05-03T14:57:18.314Z</time></trkpt><trkpt lat="44.927804" lon="7.4559824"><ele>268.2</ele><time>2026-05-03T14:57:19.312Z</time></trkpt><trkpt lat="44.92775" lon="7.4558362"><ele>267.79999999999995</ele><time>2026-05-03T14:57:20.313Z</time></trkpt><trkpt lat="44.9276909" lon="7.4556919"><ele>267.4</ele><time>2026-05-03T14:57:21.313Z</time></trkpt><trkpt lat="44.9276362" lon="7.4555509"><ele>267.0</ele><time>2026-05-03T14:57:22.314Z</time></trkpt><trkpt lat="44.9275902" lon="7.4554369"><ele>266.8</ele><time>2026-05-03T14:57:23.313Z</time></trkpt><trkpt lat="44.9275449" lon="7.4553478"><ele>266.6</ele><time>2026-05-03T14:57:24.314Z</time></trkpt><trkpt lat="44.9275221" lon="7.4551888"><ele>266.40000000000003</ele><time>2026-05-03T14:57:26.313Z</time></trkpt><trkpt lat="44.9276197" lon="7.455052"><ele>266.2</ele><time>2026-05-03T14:57:28.313Z</time></trkpt><trkpt lat="44.9277183" lon="7.4549914"><ele>266.0</ele><time>2026-05-03T14:57:29.312Z</time></trkpt><trkpt lat="44.9278205" lon="7.4549411"><ele>266.0</ele><time>2026-05-03T14:57:30.313Z</time></trkpt><trkpt lat="44.9279033" lon="7.4549096"><ele>266.0</ele><time>2026-05-03T14:57:31.313Z</time></trkpt><trkpt lat="44.9279739" lon="7.4548497"><ele>266.0</ele><time>2026-05-03T14:57:32.312Z</time></trkpt><trkpt lat="44.9280264" lon="7.4547626"><ele>266.0</ele><time>2026-05-03T14:57:33.313Z</time></trkpt><trkpt lat="44.9280514" lon="7.4546457"><ele>266.0</ele><time>2026-05-03T14:57:34.312Z</time></trkpt><trkpt lat="44.9280546" lon="7.4544934"><ele>266.0</ele><time>2026-05-03T14:57:35.313Z</time></trkpt><trkpt lat="44.9280445" lon="7.4543064"><ele>266.0</ele><time>2026-05-03T14:57:36.314Z</time></trkpt><trkpt lat="44.9280267" lon="7.4541148"><ele>266.0</ele><time>2026-05-03T14:57:37.313Z</time></trkpt><trkpt lat="44.9280155" lon="7.4539237"><ele>266.0</ele><time>2026-05-03T14:57:38.313Z</time></trkpt><trkpt lat="44.928013" lon="7.4537525"><ele>266.0</ele><time>2026-05-03T14:57:39.314Z</time></trkpt><trkpt lat="44.9280016" lon="7.4535719"><ele>266.0</ele><time>2026-05-03T14:57:40.313Z</time></trkpt><trkpt lat="44.9279911" lon="7.4533935"><ele>266.0</ele><time>2026-05-03T14:57:41.314Z</time></trkpt><trkpt lat="44.9279803" lon="7.4532214"><ele>266.0</ele><time>2026-05-03T14:57:42.315Z</time></trkpt><trkpt lat="44.9279746" lon="7.4530555"><ele>266.0</ele><time>2026-05-03T14:57:43.313Z</time></trkpt><trkpt lat="44.9279668" lon="7.452901"><ele>265.8</ele><time>2026-05-03T14:57:44.313Z</time></trkpt><trkpt lat="44.9279625" lon="7.4527609"><ele>265.6</ele><time>2026-05-03T14:57:45.314Z</time></trkpt><trkpt lat="44.9279579" lon="7.4526395"><ele>265.4</ele><time>2026-05-03T14:57:46.313Z</time></trkpt><trkpt lat="44.9279614" lon="7.4525319"><ele>265.2</ele><time>2026-05-03T14:57:47.313Z</time></trkpt><trkpt lat="44.9280155" lon="7.4523926"><ele>265.0</ele><time>2026-05-03T14:57:49.314Z</time></trkpt><trkpt lat="44.9281267" lon="7.4523265"><ele>265.0</ele><time>2026-05-03T14:57:51.314Z</time></trkpt><trkpt lat="44.928215" lon="7.4522272"><ele>265.0</ele><time>2026-05-03T14:57:53.313Z</time></trkpt><trkpt lat="44.9282375" lon="7.4520259"><ele>265.0</ele><time>2026-05-03T14:57:55.313Z</time></trkpt><trkpt lat="44.9282335" lon="7.4518768"><ele>265.0</ele><time>2026-05-03T14:57:56.313Z</time></trkpt><trkpt lat="44.928224" lon="7.4517232"><ele>265.0</ele><time>2026-05-03T14:57:57.314Z</time></trkpt><trkpt lat="44.92821" lon="7.4515757"><ele>265.0</ele><time>2026-05-03T14:57:58.313Z</time></trkpt><trkpt lat="44.928198" lon="7.4514307"><ele>265.0</ele><time>2026-05-03T14:57:59.315Z</time></trkpt><trkpt lat="44.9281841" lon="7.4512992"><ele>265.0</ele><time>2026-05-03T14:58:00.312Z</time></trkpt><trkpt lat="44.9281731" lon="7.4511616"><ele>265.0</ele><time>2026-05-03T14:58:01.314Z</time></trkpt><trkpt lat="44.9281611" lon="7.4510266"><ele>265.6</ele><time>2026-05-03T14:58:02.314Z</time></trkpt><trkpt lat="44.9281496" lon="7.4508854"><ele>266.2</ele><time>2026-05-03T14:58:03.314Z</time></trkpt><trkpt lat="44.9281426" lon="7.4507518"><ele>266.8</ele><time>2026-05-03T14:58:04.313Z</time></trkpt><trkpt lat="44.9281364" lon="7.4506102"><ele>267.4</ele><time>2026-05-03T14:58:05.312Z</time></trkpt><trkpt lat="44.928125" lon="7.4504808"><ele>268.0</ele><time>2026-05-03T14:58:06.312Z</time></trkpt><trkpt lat="44.9281186" lon="7.4503515"><ele>268.16666666666663</ele><time>2026-05-03T14:58:07.312Z</time></trkpt><trkpt lat="44.9281131" lon="7.4502277"><ele>268.3333333333333</ele><time>2026-05-03T14:58:08.313Z</time></trkpt><trkpt lat="44.928111" lon="7.4501086"><ele>268.5</ele><time>2026-05-03T14:58:09.312Z</time></trkpt><trkpt lat="44.9281044" lon="7.44999"><ele>268.6666666666667</ele><time>2026-05-03T14:58:10.312Z</time></trkpt><trkpt lat="44.9281045" lon="7.4498745"><ele>268.83333333333337</ele><time>2026-05-03T14:58:11.313Z</time></trkpt><trkpt lat="44.9281014" lon="7.4497615"><ele>269.0</ele><time>2026-05-03T14:58:12.313Z</time></trkpt><trkpt lat="44.9281021" lon="7.449652"><ele>269.33333333333337</ele><time>2026-05-03T14:58:13.313Z</time></trkpt><trkpt lat="44.9280987" lon="7.4495401"><ele>269.6666666666667</ele><time>2026-05-03T14:58:14.313Z</time></trkpt><trkpt lat="44.9280952" lon="7.4494283"><ele>270.0</ele><time>2026-05-03T14:58:15.313Z</time></trkpt><trkpt lat="44.9280943" lon="7.4493362"><ele>270.3333333333333</ele><time>2026-05-03T14:58:16.314Z</time></trkpt><trkpt lat="44.9280918" lon="7.4492454"><ele>270.66666666666663</ele><time>2026-05-03T14:58:17.313Z</time></trkpt><trkpt lat="44.9280801" lon="7.4490765"><ele>271.0</ele><time>2026-05-03T14:58:19.313Z</time></trkpt><trkpt lat="44.9280785" lon="7.4489388"><ele>271.0</ele><time>2026-05-03T14:58:21.312Z</time></trkpt><trkpt lat="44.9281136" lon="7.4488296"><ele>271.0</ele><time>2026-05-03T14:58:23.313Z</time></trkpt><trkpt lat="44.9282073" lon="7.4487509"><ele>271.0</ele><time>2026-05-03T14:58:25.313Z</time></trkpt><trkpt lat="44.9282617" lon="7.4487042"><ele>271.0</ele><time>2026-05-03T14:58:26.314Z</time></trkpt><trkpt lat="44.9283292" lon="7.4486645"><ele>271.0</ele><time>2026-05-03T14:58:27.313Z</time></trkpt><trkpt lat="44.9283918" lon="7.4486352"><ele>271.0</ele><time>2026-05-03T14:58:28.313Z</time></trkpt><trkpt lat="44.9285016" lon="7.4485983"><ele>270.8</ele><time>2026-05-03T14:58:30.314Z</time></trkpt><trkpt lat="44.9285474" lon="7.4485107"><ele>270.6</ele><time>2026-05-03T14:58:32.314Z</time></trkpt><trkpt lat="44.9285558" lon="7.4483392"><ele>270.4</ele><time>2026-05-03T14:58:34.312Z</time></trkpt><trkpt lat="44.9285614" lon="7.4481665"><ele>270.2</ele><time>2026-05-03T14:58:36.312Z</time></trkpt><trkpt lat="44.9285675" lon="7.4480707"><ele>270.0</ele><time>2026-05-03T14:58:37.312Z</time></trkpt><trkpt lat="44.9285716" lon="7.4479718"><ele>270.1666666666667</ele><time>2026-05-03T14:58:38.313Z</time></trkpt><trkpt lat="44.9285765" lon="7.4478823"><ele>270.3333333333333</ele><time>2026-05-03T14:58:39.313Z</time></trkpt><trkpt lat="44.9285591" lon="7.4477644"><ele>270.5</ele><time>2026-05-03T14:58:41.314Z</time></trkpt><trkpt lat="44.9284992" lon="7.4476962"><ele>270.66666666666663</ele><time>2026-05-03T14:58:43.313Z</time></trkpt><trkpt lat="44.9283984" lon="7.447701"><ele>270.8333333333333</ele><time>2026-05-03T14:58:45.312Z</time></trkpt><trkpt lat="44.9283313" lon="7.4477028"><ele>271.0</ele><time>2026-05-03T14:58:46.312Z</time></trkpt><trkpt lat="44.9282619" lon="7.4476918"><ele>271.0</ele><time>2026-05-03T14:58:47.314Z</time></trkpt><trkpt lat="44.9281956" lon="7.4476774"><ele>271.0</ele><time>2026-05-03T14:58:48.313Z</time></trkpt><trkpt lat="44.9280907" lon="7.4476679"><ele>271.0</ele><time>2026-05-03T14:58:50.314Z</time></trkpt><trkpt lat="44.9280097" lon="7.4475739"><ele>271.0</ele><time>2026-05-03T14:58:52.313Z</time></trkpt><trkpt lat="44.9279714" lon="7.4474013"><ele>271.0</ele><time>2026-05-03T14:58:54.314Z</time></trkpt><trkpt lat="44.9279508" lon="7.447301"><ele>271.0</ele><time>2026-05-03T14:58:55.313Z</time></trkpt><trkpt lat="44.9279227" lon="7.4472012"><ele>271.0</ele><time>2026-05-03T14:58:56.313Z</time></trkpt><trkpt lat="44.9278999" lon="7.4470946"><ele>271.0</ele><time>2026-05-03T14:58:57.312Z</time></trkpt><trkpt lat="44.9278807" lon="7.4469966"><ele>271.0</ele><time>2026-05-03T14:58:58.312Z</time></trkpt><trkpt lat="44.9278698" lon="7.4468944"><ele>271.0</ele><time>2026-05-03T14:58:59.314Z</time></trkpt><trkpt lat="44.9278535" lon="7.4467464"><ele>271.0</ele><time>2026-05-03T14:59:01.312Z</time></trkpt><trkpt lat="44.9278373" lon="7.4466575"><ele>271.0</ele><time>2026-05-03T14:59:05.314Z</time></trkpt><trkpt lat="44.9277785" lon="7.446621"><ele>271.0</ele><time>2026-05-03T14:59:08.313Z</time></trkpt><trkpt lat="44.9276384" lon="7.4466256"><ele>271.0</ele><time>2026-05-03T14:59:10.315Z</time></trkpt><trkpt lat="44.9275625" lon="7.4466316"><ele>271.0</ele><time>2026-05-03T14:59:11.312Z</time></trkpt><trkpt lat="44.9274764" lon="7.4466453"><ele>271.0</ele><time>2026-05-03T14:59:12.313Z</time></trkpt><trkpt lat="44.9274013" lon="7.4466563"><ele>271.0</ele><time>2026-05-03T14:59:13.313Z</time></trkpt><trkpt lat="44.9273307" lon="7.4466619"><ele>271.0</ele><time>2026-05-03T14:59:14.312Z</time></trkpt><trkpt lat="44.9272166" lon="7.4466413"><ele>271.0</ele><time>2026-05-03T14:59:16.314Z</time></trkpt><trkpt lat="44.9271295" lon="7.4465361"><ele>271.0</ele><time>2026-05-03T14:59:18.314Z</time></trkpt><trkpt lat="44.9270983" lon="7.4464442"><ele>271.0</ele><time>2026-05-03T14:59:19.313Z</time></trkpt><trkpt lat="44.9270674" lon="7.446344"><ele>271.0</ele><time>2026-05-03T14:59:20.313Z</time></trkpt><trkpt lat="44.9270444" lon="7.4462364"><ele>271.0</ele><time>2026-05-03T14:59:21.314Z</time></trkpt><trkpt lat="44.927018" lon="7.4461115"><ele>271.0</ele><time>2026-05-03T14:59:22.313Z</time></trkpt><trkpt lat="44.9269899" lon="7.4459798"><ele>271.0</ele><time>2026-05-03T14:59:23.312Z</time></trkpt><trkpt lat="44.9269666" lon="7.4458236"><ele>271.0</ele><time>2026-05-03T14:59:24.314Z</time></trkpt><trkpt lat="44.9269451" lon="7.4456761"><ele>271.0</ele><time>2026-05-03T14:59:25.312Z</time></trkpt><trkpt lat="44.9269196" lon="7.4455309"><ele>271.0</ele><time>2026-05-03T14:59:26.313Z</time></trkpt><trkpt lat="44.9268992" lon="7.4454025"><ele>271.0</ele><time>2026-05-03T14:59:27.312Z</time></trkpt><trkpt lat="44.9268803" lon="7.4452926"><ele>271.0</ele><time>2026-05-03T14:59:28.314Z</time></trkpt><trkpt lat="44.9268711" lon="7.445184"><ele>271.0</ele><time>2026-05-03T14:59:29.313Z</time></trkpt><trkpt lat="44.9268628" lon="7.4450848"><ele>271.0</ele><time>2026-05-03T14:59:30.312Z</time></trkpt><trkpt lat="44.9268494" lon="7.4449898"><ele>271.0</ele><time>2026-05-03T14:59:31.313Z</time></trkpt><trkpt lat="44.9268358" lon="7.4448767"><ele>271.0</ele><time>2026-05-03T14:59:32.312Z</time></trkpt><trkpt lat="44.9268208" lon="7.4447461"><ele>271.0</ele><time>2026-05-03T14:59:33.312Z</time></trkpt><trkpt lat="44.9268012" lon="7.444599"><ele>271.0</ele><time>2026-05-03T14:59:34.313Z</time></trkpt><trkpt lat="44.926777" lon="7.4444441"><ele>271.0</ele><time>2026-05-03T14:59:35.313Z</time></trkpt><trkpt lat="44.9267562" lon="7.444284"><ele>271.0</ele><time>2026-05-03T14:59:36.312Z</time></trkpt><trkpt lat="44.9267276" lon="7.4441015"><ele>271.0</ele><time>2026-05-03T14:59:37.314Z</time></trkpt><trkpt lat="44.9267008" lon="7.443927"><ele>271.0</ele><time>2026-05-03T14:59:38.313Z</time></trkpt><trkpt lat="44.9266823" lon="7.4437532"><ele>271.0</ele><time>2026-05-03T14:59:39.313Z</time></trkpt><trkpt lat="44.9266569" lon="7.4435746"><ele>271.0</ele><time>2026-05-03T14:59:40.313Z</time></trkpt><trkpt lat="44.9266318" lon="7.4433994"><ele>271.0</ele><time>2026-05-03T14:59:41.313Z</time></trkpt><trkpt lat="44.9266089" lon="7.4432322"><ele>271.0</ele><time>2026-05-03T14:59:42.313Z</time></trkpt><trkpt lat="44.9265871" lon="7.4430642"><ele>271.0</ele><time>2026-05-03T14:59:43.313Z</time></trkpt><trkpt lat="44.9265644" lon="7.4428966"><ele>271.0</ele><time>2026-05-03T14:59:44.312Z</time></trkpt><trkpt lat="44.9265409" lon="7.4427309"><ele>271.5</ele><time>2026-05-03T14:59:45.312Z</time></trkpt><trkpt lat="44.9265196" lon="7.4425626"><ele>272.0</ele><time>2026-05-03T14:59:46.312Z</time></trkpt><trkpt lat="44.9264943" lon="7.4424021"><ele>272.5</ele><time>2026-05-03T14:59:47.313Z</time></trkpt><trkpt lat="44.9264697" lon="7.4422421"><ele>273.0</ele><time>2026-05-03T14:59:48.313Z</time></trkpt><trkpt lat="44.926445" lon="7.442085"><ele>273.25</ele><time>2026-05-03T14:59:49.313Z</time></trkpt><trkpt lat="44.9264249" lon="7.4419241"><ele>273.5</ele><time>2026-05-03T14:59:50.313Z</time></trkpt><trkpt lat="44.9264076" lon="7.4417666"><ele>273.75</ele><time>2026-05-03T14:59:51.313Z</time></trkpt><trkpt lat="44.9263811" lon="7.4416001"><ele>274.0</ele><time>2026-05-03T14:59:52.312Z</time></trkpt><trkpt lat="44.9263481" lon="7.4414224"><ele>274.25</ele><time>2026-05-03T14:59:53.314Z</time></trkpt><trkpt lat="44.9263236" lon="7.4412411"><ele>274.5</ele><time>2026-05-03T14:59:54.312Z</time></trkpt><trkpt lat="44.9262915" lon="7.4410675"><ele>274.75</ele><time>2026-05-03T14:59:55.312Z</time></trkpt><trkpt lat="44.9262642" lon="7.4408881"><ele>275.0</ele><time>2026-05-03T14:59:56.312Z</time></trkpt><trkpt lat="44.9262343" lon="7.4407065"><ele>275.0</ele><time>2026-05-03T14:59:57.313Z</time></trkpt><trkpt lat="44.9262016" lon="7.4405148"><ele>275.0</ele><time>2026-05-03T14:59:58.312Z</time></trkpt><trkpt lat="44.9261699" lon="7.4403118"><ele>275.0</ele><time>2026-05-03T14:59:59.313Z</time></trkpt><trkpt lat="44.9261322" lon="7.4400938"><ele>275.0</ele><time>2026-05-03T15:00:00.313Z</time></trkpt><trkpt lat="44.9260936" lon="7.4398803"><ele>275.0</ele><time>2026-05-03T15:00:01.313Z</time></trkpt><trkpt lat="44.9260525" lon="7.4396686"><ele>275.0</ele><time>2026-05-03T15:00:02.312Z</time></trkpt><trkpt lat="44.9260111" lon="7.439456"><ele>275.0</ele><time>2026-05-03T15:00:03.313Z</time></trkpt><trkpt lat="44.9259704" lon="7.4392416"><ele>275.0</ele><time>2026-05-03T15:00:04.312Z</time></trkpt><trkpt lat="44.9259253" lon="7.4390234"><ele>275.0</ele><time>2026-05-03T15:00:05.312Z</time></trkpt><trkpt lat="44.9258782" lon="7.4388015"><ele>275.0</ele><time>2026-05-03T15:00:06.314Z</time></trkpt><trkpt lat="44.9258373" lon="7.4386026"><ele>275.0</ele><time>2026-05-03T15:00:07.312Z</time></trkpt><trkpt lat="44.9257914" lon="7.4384112"><ele>275.0</ele><time>2026-05-03T15:00:08.313Z</time></trkpt><trkpt lat="44.9257437" lon="7.4382322"><ele>275.0</ele><time>2026-05-03T15:00:09.312Z</time></trkpt><trkpt lat="44.9256853" lon="7.438056"><ele>275.0</ele><time>2026-05-03T15:00:10.313Z</time></trkpt><trkpt lat="44.9256049" lon="7.4378662"><ele>275.0</ele><time>2026-05-03T15:00:11.313Z</time></trkpt><trkpt lat="44.9255231" lon="7.4376879"><ele>275.0</ele><time>2026-05-03T15:00:12.312Z</time></trkpt><trkpt lat="44.9254469" lon="7.4375171"><ele>275.0</ele><time>2026-05-03T15:00:13.312Z</time></trkpt><trkpt lat="44.9253735" lon="7.4373366"><ele>275.0</ele><time>2026-05-03T15:00:14.314Z</time></trkpt><trkpt lat="44.925307" lon="7.4371572"><ele>275.75</ele><time>2026-05-03T15:00:15.313Z</time></trkpt><trkpt lat="44.925242" lon="7.4369838"><ele>276.5</ele><time>2026-05-03T15:00:16.312Z</time></trkpt><trkpt lat="44.9251778" lon="7.436818"><ele>277.25</ele><time>2026-05-03T15:00:17.313Z</time></trkpt><trkpt lat="44.9251118" lon="7.436662"><ele>278.0</ele><time>2026-05-03T15:00:18.313Z</time></trkpt><trkpt lat="44.9250369" lon="7.4365079"><ele>278.0</ele><time>2026-05-03T15:00:19.312Z</time></trkpt><trkpt lat="44.9249499" lon="7.4363645"><ele>278.0</ele><time>2026-05-03T15:00:20.312Z</time></trkpt><trkpt lat="44.924865" lon="7.4362255"><ele>278.0</ele><time>2026-05-03T15:00:21.314Z</time></trkpt><trkpt lat="44.9247891" lon="7.4360982"><ele>278.0</ele><time>2026-05-03T15:00:22.312Z</time></trkpt><trkpt lat="44.9247124" lon="7.4359822"><ele>278.25</ele><time>2026-05-03T15:00:23.313Z</time></trkpt><trkpt lat="44.9246346" lon="7.4358674"><ele>278.5</ele><time>2026-05-03T15:00:24.312Z</time></trkpt><trkpt lat="44.9245564" lon="7.4357604"><ele>278.75</ele><time>2026-05-03T15:00:25.312Z</time></trkpt><trkpt lat="44.9244719" lon="7.4356559"><ele>279.0</ele><time>2026-05-03T15:00:26.313Z</time></trkpt><trkpt lat="44.9243823" lon="7.4355439"><ele>279.0</ele><time>2026-05-03T15:00:27.312Z</time></trkpt><trkpt lat="44.92429" lon="7.4354284"><ele>279.0</ele><time>2026-05-03T15:00:28.313Z</time></trkpt><trkpt lat="44.9242059" lon="7.4353071"><ele>279.0</ele><time>2026-05-03T15:00:29.312Z</time></trkpt><trkpt lat="44.9241198" lon="7.435177"><ele>279.0</ele><time>2026-05-03T15:00:30.312Z</time></trkpt><trkpt lat="44.92404" lon="7.4350357"><ele>279.0</ele><time>2026-05-03T15:00:31.314Z</time></trkpt><trkpt lat="44.9239686" lon="7.4349056"><ele>279.0</ele><time>2026-05-03T15:00:32.314Z</time></trkpt><trkpt lat="44.9239124" lon="7.4347865"><ele>279.0</ele><time>2026-05-03T15:00:33.314Z</time></trkpt><trkpt lat="44.9238551" lon="7.4346648"><ele>279.0</ele><time>2026-05-03T15:00:34.313Z</time></trkpt><trkpt lat="44.9237969" lon="7.4345478"><ele>279.0</ele><time>2026-05-03T15:00:35.313Z</time></trkpt><trkpt lat="44.9237417" lon="7.4344311"><ele>278.8</ele><time>2026-05-03T15:00:36.312Z</time></trkpt><trkpt lat="44.9236866" lon="7.4343235"><ele>278.59999999999997</ele><time>2026-05-03T15:00:37.315Z</time></trkpt><trkpt lat="44.9236307" lon="7.4341993"><ele>278.4</ele><time>2026-05-03T15:00:38.313Z</time></trkpt><trkpt lat="44.923576" lon="7.4340716"><ele>278.2</ele><time>2026-05-03T15:00:39.312Z</time></trkpt><trkpt lat="44.9235057" lon="7.4339392"><ele>278.0</ele><time>2026-05-03T15:00:40.313Z</time></trkpt><trkpt lat="44.9234464" lon="7.4338144"><ele>278.1666666666667</ele><time>2026-05-03T15:00:41.312Z</time></trkpt><trkpt lat="44.9233874" lon="7.4336995"><ele>278.33333333333337</ele><time>2026-05-03T15:00:42.313Z</time></trkpt><trkpt lat="44.9233404" lon="7.4335971"><ele>278.5</ele><time>2026-05-03T15:00:43.312Z</time></trkpt><trkpt lat="44.9233045" lon="7.4334839"><ele>278.6666666666667</ele><time>2026-05-03T15:00:44.313Z</time></trkpt><trkpt lat="44.9232869" lon="7.4333648"><ele>278.8333333333333</ele><time>2026-05-03T15:00:45.312Z</time></trkpt><trkpt lat="44.9232885" lon="7.4332446"><ele>279.0</ele><time>2026-05-03T15:00:46.313Z</time></trkpt><trkpt lat="44.9233071" lon="7.4331389"><ele>279.0</ele><time>2026-05-03T15:00:47.313Z</time></trkpt><trkpt lat="44.9233293" lon="7.4330287"><ele>279.0</ele><time>2026-05-03T15:00:48.313Z</time></trkpt><trkpt lat="44.9233645" lon="7.4329214"><ele>279.0</ele><time>2026-05-03T15:00:49.312Z</time></trkpt><trkpt lat="44.9233999" lon="7.4328027"><ele>279.0</ele><time>2026-05-03T15:00:50.313Z</time></trkpt><trkpt lat="44.9234187" lon="7.4326867"><ele>279.0</ele><time>2026-05-03T15:00:51.313Z</time></trkpt><trkpt lat="44.9234181" lon="7.4325718"><ele>279.0</ele><time>2026-05-03T15:00:52.313Z</time></trkpt><trkpt lat="44.9233817" lon="7.4324692"><ele>279.4</ele><time>2026-05-03T15:00:53.314Z</time></trkpt><trkpt lat="44.9233189" lon="7.4323861"><ele>279.79999999999995</ele><time>2026-05-03T15:00:54.312Z</time></trkpt><trkpt lat="44.9232453" lon="7.4323496"><ele>280.20000000000005</ele><time>2026-05-03T15:00:55.313Z</time></trkpt><trkpt lat="44.9231558" lon="7.4323318"><ele>280.6</ele><time>2026-05-03T15:00:56.313Z</time></trkpt><trkpt lat="44.9230558" lon="7.4323128"><ele>281.0</ele><time>2026-05-03T15:00:57.312Z</time></trkpt><trkpt lat="44.9229531" lon="7.4323113"><ele>281.0</ele><time>2026-05-03T15:00:58.313Z</time></trkpt><trkpt lat="44.9228547" lon="7.4323491"><ele>281.0</ele><time>2026-05-03T15:00:59.313Z</time></trkpt><trkpt lat="44.9227514" lon="7.4324213"><ele>281.0</ele><time>2026-05-03T15:01:00.313Z</time></trkpt><trkpt lat="44.9226571" lon="7.432493"><ele>281.0</ele><time>2026-05-03T15:01:01.312Z</time></trkpt><trkpt lat="44.9225724" lon="7.4325534"><ele>281.0</ele><time>2026-05-03T15:01:02.312Z</time></trkpt><trkpt lat="44.9224883" lon="7.4325816"><ele>281.0</ele><time>2026-05-03T15:01:03.312Z</time></trkpt><trkpt lat="44.9224137" lon="7.4325408"><ele>281.0</ele><time>2026-05-03T15:01:04.312Z</time></trkpt><trkpt lat="44.9223515" lon="7.432453"><ele>281.0</ele><time>2026-05-03T15:01:05.313Z</time></trkpt><trkpt lat="44.9223035" lon="7.4323195"><ele>281.0</ele><time>2026-05-03T15:01:06.312Z</time></trkpt><trkpt lat="44.9222763" lon="7.4321526"><ele>281.0</ele><time>2026-05-03T15:01:07.312Z</time></trkpt><trkpt lat="44.9222587" lon="7.4319514"><ele>281.0</ele><time>2026-05-03T15:01:08.312Z</time></trkpt><trkpt lat="44.9222533" lon="7.4317381"><ele>281.0</ele><time>2026-05-03T15:01:09.312Z</time></trkpt><trkpt lat="44.9222446" lon="7.4315026"><ele>281.0</ele><time>2026-05-03T15:01:10.313Z</time></trkpt><trkpt lat="44.9222352" lon="7.4312459"><ele>280.6666666666667</ele><time>2026-05-03T15:01:11.312Z</time></trkpt><trkpt lat="44.9222197" lon="7.430992"><ele>280.3333333333333</ele><time>2026-05-03T15:01:12.313Z</time></trkpt><trkpt lat="44.9222037" lon="7.4307462"><ele>280.0</ele><time>2026-05-03T15:01:13.312Z</time></trkpt><trkpt lat="44.9221899" lon="7.4305151"><ele>280.3333333333333</ele><time>2026-05-03T15:01:14.312Z</time></trkpt><trkpt lat="44.9221778" lon="7.4302979"><ele>280.6666666666667</ele><time>2026-05-03T15:01:15.312Z</time></trkpt><trkpt lat="44.9221724" lon="7.4300832"><ele>281.0</ele><time>2026-05-03T15:01:16.313Z</time></trkpt><trkpt lat="44.9221618" lon="7.4298681"><ele>281.0</ele><time>2026-05-03T15:01:17.313Z</time></trkpt><trkpt lat="44.9221494" lon="7.4296573"><ele>281.0</ele><time>2026-05-03T15:01:18.312Z</time></trkpt><trkpt lat="44.9221427" lon="7.4294459"><ele>281.0</ele><time>2026-05-03T15:01:19.313Z</time></trkpt><trkpt lat="44.9221296" lon="7.4292418"><ele>281.0</ele><time>2026-05-03T15:01:20.312Z</time></trkpt><trkpt lat="44.9221193" lon="7.4290482"><ele>281.0</ele><time>2026-05-03T15:01:21.312Z</time></trkpt><trkpt lat="44.9221079" lon="7.4288557"><ele>281.0</ele><time>2026-05-03T15:01:22.312Z</time></trkpt><trkpt lat="44.922098" lon="7.4286681"><ele>281.0</ele><time>2026-05-03T15:01:23.314Z</time></trkpt><trkpt lat="44.9220861" lon="7.428475"><ele>281.0</ele><time>2026-05-03T15:01:24.311Z</time></trkpt><trkpt lat="44.9220676" lon="7.4282714"><ele>281.5</ele><time>2026-05-03T15:01:25.313Z</time></trkpt><trkpt lat="44.9220535" lon="7.4280749"><ele>282.0</ele><time>2026-05-03T15:01:26.313Z</time></trkpt><trkpt lat="44.9220354" lon="7.4278745"><ele>282.5</ele><time>2026-05-03T15:01:27.313Z</time></trkpt><trkpt lat="44.9220242" lon="7.4276821"><ele>283.0</ele><time>2026-05-03T15:01:28.313Z</time></trkpt><trkpt lat="44.9220071" lon="7.4274964"><ele>283.5</ele><time>2026-05-03T15:01:29.312Z</time></trkpt><trkpt lat="44.9219991" lon="7.4273064"><ele>284.0</ele><time>2026-05-03T15:01:30.313Z</time></trkpt><trkpt lat="44.9219952" lon="7.4271186"><ele>284.5</ele><time>2026-05-03T15:01:31.313Z</time></trkpt><trkpt lat="44.9219959" lon="7.4269452"><ele>285.0</ele><time>2026-05-03T15:01:32.313Z</time></trkpt><trkpt lat="44.9220001" lon="7.4267825"><ele>285.0</ele><time>2026-05-03T15:01:33.312Z</time></trkpt><trkpt lat="44.9220038" lon="7.4266364"><ele>285.0</ele><time>2026-05-03T15:01:34.311Z</time></trkpt><trkpt lat="44.9220174" lon="7.4265044"><ele>285.0</ele><time>2026-05-03T15:01:35.313Z</time></trkpt><trkpt lat="44.9220281" lon="7.4263718"><ele>285.0</ele><time>2026-05-03T15:01:36.313Z</time></trkpt><trkpt lat="44.9220299" lon="7.4262346"><ele>285.0</ele><time>2026-05-03T15:01:37.314Z</time></trkpt><trkpt lat="44.9220167" lon="7.4260916"><ele>285.0</ele><time>2026-05-03T15:01:38.312Z</time></trkpt><trkpt lat="44.9219998" lon="7.4259399"><ele>285.0</ele><time>2026-05-03T15:01:39.313Z</time></trkpt><trkpt lat="44.9219802" lon="7.4257782"><ele>285.0</ele><time>2026-05-03T15:01:40.312Z</time></trkpt><trkpt lat="44.9219611" lon="7.4256048"><ele>285.0</ele><time>2026-05-03T15:01:41.313Z</time></trkpt><trkpt lat="44.9219429" lon="7.4254277"><ele>285.0</ele><time>2026-05-03T15:01:42.312Z</time></trkpt><trkpt lat="44.9219209" lon="7.4252478"><ele>285.0</ele><time>2026-05-03T15:01:43.312Z</time></trkpt><trkpt lat="44.9218998" lon="7.4250722"><ele>285.0</ele><time>2026-05-03T15:01:44.313Z</time></trkpt><trkpt lat="44.9218695" lon="7.4248952"><ele>285.0</ele><time>2026-05-03T15:01:45.313Z</time></trkpt><trkpt lat="44.9218439" lon="7.4247356"><ele>285.0</ele><time>2026-05-03T15:01:46.313Z</time></trkpt><trkpt lat="44.9218167" lon="7.4245946"><ele>285.0</ele><time>2026-05-03T15:01:47.312Z</time></trkpt><trkpt lat="44.9217914" lon="7.4244684"><ele>285.0</ele><time>2026-05-03T15:01:48.311Z</time></trkpt><trkpt lat="44.9217766" lon="7.4243639"><ele>285.0</ele><time>2026-05-03T15:01:49.312Z</time></trkpt><trkpt lat="44.9217434" lon="7.4242266"><ele>285.0</ele><time>2026-05-03T15:01:51.312Z</time></trkpt><trkpt lat="44.9217367" lon="7.4241123"><ele>285.2</ele><time>2026-05-03T15:01:59.312Z</time></trkpt><trkpt lat="44.9217107" lon="7.4239598"><ele>285.4</ele><time>2026-05-03T15:02:01.312Z</time></trkpt><trkpt lat="44.9216849" lon="7.4238435"><ele>285.6</ele><time>2026-05-03T15:02:02.313Z</time></trkpt><trkpt lat="44.921661" lon="7.4236985"><ele>285.8</ele><time>2026-05-03T15:02:03.311Z</time></trkpt><trkpt lat="44.9216338" lon="7.4235276"><ele>286.0</ele><time>2026-05-03T15:02:04.313Z</time></trkpt><trkpt lat="44.9216005" lon="7.4233449"><ele>286.0</ele><time>2026-05-03T15:02:05.312Z</time></trkpt><trkpt lat="44.9215621" lon="7.4231583"><ele>286.0</ele><time>2026-05-03T15:02:06.311Z</time></trkpt><trkpt lat="44.9215266" lon="7.4229687"><ele>286.0</ele><time>2026-05-03T15:02:07.312Z</time></trkpt><trkpt lat="44.9214824" lon="7.4227932"><ele>286.0</ele><time>2026-05-03T15:02:08.313Z</time></trkpt><trkpt lat="44.9214429" lon="7.422627"><ele>286.0</ele><time>2026-05-03T15:02:09.312Z</time></trkpt><trkpt lat="44.9213994" lon="7.4224709"><ele>286.0</ele><time>2026-05-03T15:02:10.313Z</time></trkpt><trkpt lat="44.9213519" lon="7.4223144"><ele>286.0</ele><time>2026-05-03T15:02:11.311Z</time></trkpt><trkpt lat="44.9213077" lon="7.4221683"><ele>286.0</ele><time>2026-05-03T15:02:12.312Z</time></trkpt><trkpt lat="44.9212696" lon="7.4220327"><ele>286.0</ele><time>2026-05-03T15:02:13.312Z</time></trkpt><trkpt lat="44.9212266" lon="7.4218888"><ele>286.0</ele><time>2026-05-03T15:02:14.313Z</time></trkpt><trkpt lat="44.9211924" lon="7.4217475"><ele>286.0</ele><time>2026-05-03T15:02:15.312Z</time></trkpt><trkpt lat="44.9211521" lon="7.4216047"><ele>286.0</ele><time>2026-05-03T15:02:16.311Z</time></trkpt><trkpt lat="44.9211134" lon="7.4214511"><ele>286.0</ele><time>2026-05-03T15:02:17.312Z</time></trkpt><trkpt lat="44.9210657" lon="7.4212843"><ele>286.0</ele><time>2026-05-03T15:02:18.313Z</time></trkpt><trkpt lat="44.9210131" lon="7.4211178"><ele>286.0</ele><time>2026-05-03T15:02:19.312Z</time></trkpt><trkpt lat="44.9209712" lon="7.4209486"><ele>286.0</ele><time>2026-05-03T15:02:20.312Z</time></trkpt><trkpt lat="44.9209225" lon="7.4207812"><ele>286.0</ele><time>2026-05-03T15:02:21.312Z</time></trkpt><trkpt lat="44.9208744" lon="7.4206188"><ele>286.5</ele><time>2026-05-03T15:02:22.313Z</time></trkpt><trkpt lat="44.9208188" lon="7.4204545"><ele>287.0</ele><time>2026-05-03T15:02:23.312Z</time></trkpt><trkpt lat="44.9207695" lon="7.4202841"><ele>287.5</ele><time>2026-05-03T15:02:24.313Z</time></trkpt><trkpt lat="44.9207124" lon="7.4201092"><ele>288.0</ele><time>2026-05-03T15:02:25.313Z</time></trkpt><trkpt lat="44.9206572" lon="7.4199302"><ele>288.0</ele><time>2026-05-03T15:02:26.312Z</time></trkpt><trkpt lat="44.9206038" lon="7.4197535"><ele>288.0</ele><time>2026-05-03T15:02:27.312Z</time></trkpt><trkpt lat="44.9205511" lon="7.4195771"><ele>288.0</ele><time>2026-05-03T15:02:28.313Z</time></trkpt><trkpt lat="44.9204984" lon="7.4194197"><ele>288.0</ele><time>2026-05-03T15:02:29.312Z</time></trkpt><trkpt lat="44.9204502" lon="7.4192636"><ele>287.75</ele><time>2026-05-03T15:02:30.312Z</time></trkpt><trkpt lat="44.9203999" lon="7.4190998"><ele>287.5</ele><time>2026-05-03T15:02:31.313Z</time></trkpt><trkpt lat="44.9203503" lon="7.4189367"><ele>287.25</ele><time>2026-05-03T15:02:32.312Z</time></trkpt><trkpt lat="44.920304" lon="7.4187746"><ele>287.0</ele><time>2026-05-03T15:02:33.312Z</time></trkpt><trkpt lat="44.9202583" lon="7.4186146"><ele>286.8</ele><time>2026-05-03T15:02:34.312Z</time></trkpt><trkpt lat="44.9202143" lon="7.4184787"><ele>286.6</ele><time>2026-05-03T15:02:35.311Z</time></trkpt><trkpt lat="44.9201664" lon="7.4183404"><ele>286.40000000000003</ele><time>2026-05-03T15:02:36.312Z</time></trkpt><trkpt lat="44.9201263" lon="7.4181955"><ele>286.2</ele><time>2026-05-03T15:02:37.312Z</time></trkpt><trkpt lat="44.9200907" lon="7.4180589"><ele>286.0</ele><time>2026-05-03T15:02:38.312Z</time></trkpt><trkpt lat="44.920051" lon="7.4179297"><ele>286.5</ele><time>2026-05-03T15:02:39.312Z</time></trkpt><trkpt lat="44.9200083" lon="7.4178025"><ele>287.0</ele><time>2026-05-03T15:02:40.312Z</time></trkpt><trkpt lat="44.9199752" lon="7.4176809"><ele>287.5</ele><time>2026-05-03T15:02:41.312Z</time></trkpt><trkpt lat="44.9199452" lon="7.4175783"><ele>288.0</ele><time>2026-05-03T15:02:42.312Z</time></trkpt><trkpt lat="44.9199224" lon="7.4174594"><ele>288.5</ele><time>2026-05-03T15:02:44.313Z</time></trkpt><trkpt lat="44.9199725" lon="7.4173712"><ele>289.0</ele><time>2026-05-03T15:02:46.311Z</time></trkpt><trkpt lat="44.9200426" lon="7.417317"><ele>288.75</ele><time>2026-05-03T15:02:47.311Z</time></trkpt><trkpt lat="44.9201333" lon="7.4172616"><ele>288.5</ele><time>2026-05-03T15:02:48.313Z</time></trkpt><trkpt lat="44.9202382" lon="7.4171972"><ele>288.25</ele><time>2026-05-03T15:02:49.313Z</time></trkpt><trkpt lat="44.9203559" lon="7.4171154"><ele>288.0</ele><time>2026-05-03T15:02:50.313Z</time></trkpt><trkpt lat="44.9204641" lon="7.4170169"><ele>288.75</ele><time>2026-05-03T15:02:51.312Z</time></trkpt><trkpt lat="44.9205641" lon="7.4169034"><ele>289.5</ele><time>2026-05-03T15:02:52.312Z</time></trkpt><trkpt lat="44.9206582" lon="7.4167708"><ele>290.25</ele><time>2026-05-03T15:02:53.312Z</time></trkpt><trkpt lat="44.9207474" lon="7.4166191"><ele>291.0</ele><time>2026-05-03T15:02:54.314Z</time></trkpt><trkpt lat="44.9208241" lon="7.4164751"><ele>291.0</ele><time>2026-05-03T15:02:55.312Z</time></trkpt><trkpt lat="44.920892" lon="7.4163352"><ele>291.0</ele><time>2026-05-03T15:02:56.311Z</time></trkpt><trkpt lat="44.9209535" lon="7.4161902"><ele>291.0</ele><time>2026-05-03T15:02:57.312Z</time></trkpt><trkpt lat="44.9210082" lon="7.4160338"><ele>291.0</ele><time>2026-05-03T15:02:58.312Z</time></trkpt><trkpt lat="44.9210568" lon="7.4158668"><ele>291.25</ele><time>2026-05-03T15:02:59.312Z</time></trkpt><trkpt lat="44.9211074" lon="7.4156968"><ele>291.5</ele><time>2026-05-03T15:03:00.314Z</time></trkpt><trkpt lat="44.9211522" lon="7.4155329"><ele>291.75</ele><time>2026-05-03T15:03:01.311Z</time></trkpt><trkpt lat="44.9211939" lon="7.4153731"><ele>292.0</ele><time>2026-05-03T15:03:02.313Z</time></trkpt><trkpt lat="44.921229" lon="7.4152052"><ele>291.5</ele><time>2026-05-03T15:03:03.312Z</time></trkpt><trkpt lat="44.921266" lon="7.4150382"><ele>291.0</ele><time>2026-05-03T15:03:04.312Z</time></trkpt><trkpt lat="44.9213061" lon="7.4148696"><ele>290.5</ele><time>2026-05-03T15:03:05.313Z</time></trkpt><trkpt lat="44.9213458" lon="7.4147009"><ele>290.0</ele><time>2026-05-03T15:03:06.312Z</time></trkpt><trkpt lat="44.9213879" lon="7.4145375"><ele>289.75</ele><time>2026-05-03T15:03:07.311Z</time></trkpt><trkpt lat="44.9214342" lon="7.4143813"><ele>289.5</ele><time>2026-05-03T15:03:08.312Z</time></trkpt><trkpt lat="44.921485" lon="7.414234"><ele>289.25</ele><time>2026-05-03T15:03:09.311Z</time></trkpt><trkpt lat="44.9215325" lon="7.4140879"><ele>289.0</ele><time>2026-05-03T15:03:10.312Z</time></trkpt><trkpt lat="44.9215825" lon="7.4139397"><ele>289.25</ele><time>2026-05-03T15:03:11.313Z</time></trkpt><trkpt lat="44.9216312" lon="7.4137859"><ele>289.5</ele><time>2026-05-03T15:03:12.311Z</time></trkpt><trkpt lat="44.9216795" lon="7.4136299"><ele>289.75</ele><time>2026-05-03T15:03:13.311Z</time></trkpt><trkpt lat="44.9217289" lon="7.4134835"><ele>290.0</ele><time>2026-05-03T15:03:14.312Z</time></trkpt><trkpt lat="44.921778" lon="7.4133462"><ele>290.0</ele><time>2026-05-03T15:03:15.312Z</time></trkpt><trkpt lat="44.9218167" lon="7.4132049"><ele>290.0</ele><time>2026-05-03T15:03:16.311Z</time></trkpt><trkpt lat="44.9218654" lon="7.4130625"><ele>290.0</ele><time>2026-05-03T15:03:17.312Z</time></trkpt><trkpt lat="44.9219127" lon="7.4129184"><ele>290.0</ele><time>2026-05-03T15:03:18.311Z</time></trkpt><trkpt lat="44.9219705" lon="7.412784"><ele>290.0</ele><time>2026-05-03T15:03:19.312Z</time></trkpt><trkpt lat="44.9220321" lon="7.4126529"><ele>290.5</ele><time>2026-05-03T15:03:20.312Z</time></trkpt><trkpt lat="44.9221064" lon="7.4125218"><ele>291.0</ele><time>2026-05-03T15:03:21.312Z</time></trkpt><trkpt lat="44.922187" lon="7.4123884"><ele>291.5</ele><time>2026-05-03T15:03:22.312Z</time></trkpt><trkpt lat="44.9222729" lon="7.4122467"><ele>292.0</ele><time>2026-05-03T15:03:23.313Z</time></trkpt><trkpt lat="44.9223634" lon="7.4121004"><ele>292.0</ele><time>2026-05-03T15:03:24.312Z</time></trkpt><trkpt lat="44.9224543" lon="7.4119596"><ele>292.0</ele><time>2026-05-03T15:03:25.311Z</time></trkpt><trkpt lat="44.9225346" lon="7.4118176"><ele>292.0</ele><time>2026-05-03T15:03:26.311Z</time></trkpt><trkpt lat="44.9226239" lon="7.4116827"><ele>292.0</ele><time>2026-05-03T15:03:27.312Z</time></trkpt><trkpt lat="44.9227095" lon="7.4115378"><ele>292.0</ele><time>2026-05-03T15:03:28.312Z</time></trkpt><trkpt lat="44.9227919" lon="7.4113901"><ele>292.0</ele><time>2026-05-03T15:03:29.313Z</time></trkpt><trkpt lat="44.9228776" lon="7.4112412"><ele>292.0</ele><time>2026-05-03T15:03:30.314Z</time></trkpt><trkpt lat="44.9229593" lon="7.4110902"><ele>292.0</ele><time>2026-05-03T15:03:31.313Z</time></trkpt><trkpt lat="44.9230286" lon="7.4109299"><ele>291.75</ele><time>2026-05-03T15:03:32.314Z</time></trkpt><trkpt lat="44.9230932" lon="7.4107648"><ele>291.5</ele><time>2026-05-03T15:03:33.311Z</time></trkpt><trkpt lat="44.9231566" lon="7.4105906"><ele>291.25</ele><time>2026-05-03T15:03:34.312Z</time></trkpt><trkpt lat="44.9232263" lon="7.4104238"><ele>291.0</ele><time>2026-05-03T15:03:35.312Z</time></trkpt><trkpt lat="44.9233037" lon="7.4102584"><ele>290.75</ele><time>2026-05-03T15:03:36.313Z</time></trkpt><trkpt lat="44.9233821" lon="7.4100961"><ele>290.5</ele><time>2026-05-03T15:03:37.311Z</time></trkpt><trkpt lat="44.9234584" lon="7.409938"><ele>290.25</ele><time>2026-05-03T15:03:38.313Z</time></trkpt><trkpt lat="44.9235346" lon="7.4097852"><ele>290.0</ele><time>2026-05-03T15:03:39.312Z</time></trkpt><trkpt lat="44.9236052" lon="7.4096244"><ele>290.5</ele><time>2026-05-03T15:03:40.311Z</time></trkpt><trkpt lat="44.9236772" lon="7.4094572"><ele>291.0</ele><time>2026-05-03T15:03:41.313Z</time></trkpt><trkpt lat="44.9237472" lon="7.4092997"><ele>291.5</ele><time>2026-05-03T15:03:42.312Z</time></trkpt><trkpt lat="44.9238192" lon="7.4091323"><ele>292.0</ele><time>2026-05-03T15:03:43.313Z</time></trkpt><trkpt lat="44.9238912" lon="7.4089712"><ele>292.0</ele><time>2026-05-03T15:03:44.312Z</time></trkpt><trkpt lat="44.9239579" lon="7.4088237"><ele>292.0</ele><time>2026-05-03T15:03:45.311Z</time></trkpt><trkpt lat="44.9240246" lon="7.408688"><ele>292.0</ele><time>2026-05-03T15:03:46.313Z</time></trkpt><trkpt lat="44.9240894" lon="7.4085509"><ele>292.0</ele><time>2026-05-03T15:03:47.312Z</time></trkpt><trkpt lat="44.9241389" lon="7.4084008"><ele>292.0</ele><time>2026-05-03T15:03:48.311Z</time></trkpt><trkpt lat="44.9241874" lon="7.4082423"><ele>292.0</ele><time>2026-05-03T15:03:49.312Z</time></trkpt><trkpt lat="44.9242342" lon="7.4080706"><ele>292.0</ele><time>2026-05-03T15:03:50.313Z</time></trkpt><trkpt lat="44.9242737" lon="7.4078949"><ele>292.0</ele><time>2026-05-03T15:03:51.312Z</time></trkpt><trkpt lat="44.9243164" lon="7.407707"><ele>292.0</ele><time>2026-05-03T15:03:52.311Z</time></trkpt><trkpt lat="44.9243592" lon="7.4075206"><ele>292.0</ele><time>2026-05-03T15:03:53.311Z</time></trkpt><trkpt lat="44.9244043" lon="7.4073283"><ele>292.0</ele><time>2026-05-03T15:03:54.311Z</time></trkpt><trkpt lat="44.9244501" lon="7.4071315"><ele>292.0</ele><time>2026-05-03T15:03:55.311Z</time></trkpt><trkpt lat="44.9245109" lon="7.4069467"><ele>292.0</ele><time>2026-05-03T15:03:56.312Z</time></trkpt><trkpt lat="44.9245838" lon="7.4067573"><ele>292.0</ele><time>2026-05-03T15:03:57.312Z</time></trkpt><trkpt lat="44.9246524" lon="7.4065827"><ele>292.0</ele><time>2026-05-03T15:03:58.311Z</time></trkpt><trkpt lat="44.9247241" lon="7.4064101"><ele>292.0</ele><time>2026-05-03T15:03:59.312Z</time></trkpt><trkpt lat="44.9247901" lon="7.4062403"><ele>292.25</ele><time>2026-05-03T15:04:00.311Z</time></trkpt><trkpt lat="44.9248535" lon="7.4060763"><ele>292.5</ele><time>2026-05-03T15:04:01.311Z</time></trkpt><trkpt lat="44.9249153" lon="7.4059136"><ele>292.75</ele><time>2026-05-03T15:04:02.312Z</time></trkpt><trkpt lat="44.9249781" lon="7.4057422"><ele>293.0</ele><time>2026-05-03T15:04:03.312Z</time></trkpt><trkpt lat="44.9250266" lon="7.4055551"><ele>293.25</ele><time>2026-05-03T15:04:04.312Z</time></trkpt><trkpt lat="44.9250608" lon="7.4053566"><ele>293.5</ele><time>2026-05-03T15:04:05.314Z</time></trkpt><trkpt lat="44.9250894" lon="7.4051551"><ele>293.75</ele><time>2026-05-03T15:04:06.312Z</time></trkpt><trkpt lat="44.9251265" lon="7.4049553"><ele>294.0</ele><time>2026-05-03T15:04:07.313Z</time></trkpt><trkpt lat="44.925168" lon="7.4047577"><ele>293.75</ele><time>2026-05-03T15:04:08.312Z</time></trkpt><trkpt lat="44.925218" lon="7.4045696"><ele>293.5</ele><time>2026-05-03T15:04:09.313Z</time></trkpt><trkpt lat="44.9252755" lon="7.4043841"><ele>293.25</ele><time>2026-05-03T15:04:10.311Z</time></trkpt><trkpt lat="44.9253316" lon="7.4042098"><ele>293.0</ele><time>2026-05-03T15:04:11.311Z</time></trkpt><trkpt lat="44.9253755" lon="7.4040443"><ele>293.0</ele><time>2026-05-03T15:04:12.313Z</time></trkpt><trkpt lat="44.925418" lon="7.4038807"><ele>293.0</ele><time>2026-05-03T15:04:13.312Z</time></trkpt><trkpt lat="44.9254456" lon="7.4037226"><ele>293.0</ele><time>2026-05-03T15:04:14.312Z</time></trkpt><trkpt lat="44.9254697" lon="7.4035782"><ele>293.0</ele><time>2026-05-03T15:04:15.311Z</time></trkpt><trkpt lat="44.9254791" lon="7.4034533"><ele>293.0</ele><time>2026-05-03T15:04:16.312Z</time></trkpt><trkpt lat="44.9254912" lon="7.4033527"><ele>293.2</ele><time>2026-05-03T15:04:17.312Z</time></trkpt><trkpt lat="44.9255561" lon="7.4032547"><ele>293.4</ele><time>2026-05-03T15:04:19.311Z</time></trkpt><trkpt lat="44.9256433" lon="7.4032987"><ele>293.59999999999997</ele><time>2026-05-03T15:04:21.311Z</time></trkpt><trkpt lat="44.9256885" lon="7.4033913"><ele>293.8</ele><time>2026-05-03T15:04:22.311Z</time></trkpt><trkpt lat="44.9257425" lon="7.4035194"><ele>294.0</ele><time>2026-05-03T15:04:23.311Z</time></trkpt><trkpt lat="44.9258168" lon="7.4036833"><ele>293.75</ele><time>2026-05-03T15:04:24.313Z</time></trkpt><trkpt lat="44.9258888" lon="7.4038484"><ele>293.5</ele><time>2026-05-03T15:04:25.312Z</time></trkpt><trkpt lat="44.9259535" lon="7.4040141"><ele>293.25</ele><time>2026-05-03T15:04:26.312Z</time></trkpt><trkpt lat="44.9260176" lon="7.4041835"><ele>293.0</ele><time>2026-05-03T15:04:27.311Z</time></trkpt><trkpt lat="44.9260858" lon="7.4043514"><ele>293.0</ele><time>2026-05-03T15:04:28.311Z</time></trkpt><trkpt lat="44.926158" lon="7.4045103"><ele>293.0</ele><time>2026-05-03T15:04:29.313Z</time></trkpt><trkpt lat="44.9262303" lon="7.4046561"><ele>293.0</ele><time>2026-05-03T15:04:30.311Z</time></trkpt><trkpt lat="44.9263056" lon="7.4047794"><ele>293.0</ele><time>2026-05-03T15:04:31.314Z</time></trkpt><trkpt lat="44.9263681" lon="7.4049018"><ele>292.83333333333337</ele><time>2026-05-03T15:04:32.311Z</time></trkpt><trkpt lat="44.9264174" lon="7.4050147"><ele>292.6666666666667</ele><time>2026-05-03T15:04:33.312Z</time></trkpt><trkpt lat="44.9264536" lon="7.4051324"><ele>292.5</ele><time>2026-05-03T15:04:34.312Z</time></trkpt><trkpt lat="44.9264872" lon="7.405245"><ele>292.3333333333333</ele><time>2026-05-03T15:04:35.313Z</time></trkpt><trkpt lat="44.926508" lon="7.4053514"><ele>292.16666666666663</ele><time>2026-05-03T15:04:36.311Z</time></trkpt><trkpt lat="44.926523" lon="7.4054587"><ele>292.0</ele><time>2026-05-03T15:04:37.312Z</time></trkpt><trkpt lat="44.926533" lon="7.4055729"><ele>291.8</ele><time>2026-05-03T15:04:38.311Z</time></trkpt><trkpt lat="44.9265403" lon="7.4056947"><ele>291.6</ele><time>2026-05-03T15:04:39.312Z</time></trkpt><trkpt lat="44.9265444" lon="7.4058408"><ele>291.40000000000003</ele><time>2026-05-03T15:04:40.311Z</time></trkpt><trkpt lat="44.9265447" lon="7.4060003"><ele>291.2</ele><time>2026-05-03T15:04:41.311Z</time></trkpt><trkpt lat="44.9265493" lon="7.4061633"><ele>291.0</ele><time>2026-05-03T15:04:42.311Z</time></trkpt><trkpt lat="44.9265556" lon="7.4063211"><ele>291.2</ele><time>2026-05-03T15:04:43.312Z</time></trkpt><trkpt lat="44.9265536" lon="7.4064724"><ele>291.40000000000003</ele><time>2026-05-03T15:04:44.311Z</time></trkpt><trkpt lat="44.9265529" lon="7.4066236"><ele>291.6</ele><time>2026-05-03T15:04:45.312Z</time></trkpt><trkpt lat="44.9265529" lon="7.4067753"><ele>291.8</ele><time>2026-05-03T15:04:46.311Z</time></trkpt><trkpt lat="44.9265533" lon="7.4069321"><ele>292.0</ele><time>2026-05-03T15:04:47.313Z</time></trkpt><trkpt lat="44.9265583" lon="7.4070907"><ele>292.0</ele><time>2026-05-03T15:04:48.311Z</time></trkpt><trkpt lat="44.9265629" lon="7.4072493"><ele>292.0</ele><time>2026-05-03T15:04:49.312Z</time></trkpt><trkpt lat="44.9265722" lon="7.4074128"><ele>292.0</ele><time>2026-05-03T15:04:50.311Z</time></trkpt><trkpt lat="44.9265863" lon="7.4075706"><ele>292.0</ele><time>2026-05-03T15:04:51.311Z</time></trkpt><trkpt lat="44.9266013" lon="7.4077306"><ele>292.0</ele><time>2026-05-03T15:04:52.312Z</time></trkpt><trkpt lat="44.9266186" lon="7.4078927"><ele>292.0</ele><time>2026-05-03T15:04:53.312Z</time></trkpt><trkpt lat="44.9266316" lon="7.4080543"><ele>292.0</ele><time>2026-05-03T15:04:54.312Z</time></trkpt><trkpt lat="44.9266467" lon="7.4082145"><ele>292.0</ele><time>2026-05-03T15:04:55.312Z</time></trkpt><trkpt lat="44.9266646" lon="7.4083784"><ele>292.0</ele><time>2026-05-03T15:04:56.313Z</time></trkpt><trkpt lat="44.9266763" lon="7.4085465"><ele>292.0</ele><time>2026-05-03T15:04:57.312Z</time></trkpt><trkpt lat="44.9266865" lon="7.4087166"><ele>292.0</ele><time>2026-05-03T15:04:58.312Z</time></trkpt><trkpt lat="44.9266951" lon="7.4088989"><ele>292.0</ele><time>2026-05-03T15:04:59.311Z</time></trkpt><trkpt lat="44.9267009" lon="7.4090739"><ele>291.75</ele><time>2026-05-03T15:05:00.311Z</time></trkpt><trkpt lat="44.9267026" lon="7.4092521"><ele>291.5</ele><time>2026-05-03T15:05:01.311Z</time></trkpt><trkpt lat="44.9267052" lon="7.4094392"><ele>291.25</ele><time>2026-05-03T15:05:02.312Z</time></trkpt><trkpt lat="44.9266941" lon="7.4096184"><ele>291.0</ele><time>2026-05-03T15:05:03.313Z</time></trkpt><trkpt lat="44.9266769" lon="7.4097951"><ele>291.0</ele><time>2026-05-03T15:05:04.313Z</time></trkpt><trkpt lat="44.9266552" lon="7.4099665"><ele>291.0</ele><time>2026-05-03T15:05:05.312Z</time></trkpt><trkpt lat="44.9266324" lon="7.4101238"><ele>291.0</ele><time>2026-05-03T15:05:06.311Z</time></trkpt><trkpt lat="44.9266264" lon="7.4102917"><ele>291.0</ele><time>2026-05-03T15:05:07.312Z</time></trkpt><trkpt lat="44.9266354" lon="7.4104575"><ele>290.6</ele><time>2026-05-03T15:05:08.312Z</time></trkpt><trkpt lat="44.9266585" lon="7.4106153"><ele>290.20000000000005</ele><time>2026-05-03T15:05:09.311Z</time></trkpt><trkpt lat="44.9266929" lon="7.4107542"><ele>289.79999999999995</ele><time>2026-05-03T15:05:10.312Z</time></trkpt><trkpt lat="44.9267396" lon="7.4108606"><ele>289.4</ele><time>2026-05-03T15:05:11.312Z</time></trkpt><trkpt lat="44.9268072" lon="7.4109687"><ele>289.0</ele><time>2026-05-03T15:05:12.312Z</time></trkpt><trkpt lat="44.9268836" lon="7.411076"><ele>289.0</ele><time>2026-05-03T15:05:13.312Z</time></trkpt><trkpt lat="44.9269477" lon="7.4111802"><ele>289.0</ele><time>2026-05-03T15:05:14.312Z</time></trkpt><trkpt lat="44.9269985" lon="7.411295"><ele>289.0</ele><time>2026-05-03T15:05:15.312Z</time></trkpt><trkpt lat="44.9270351" lon="7.4114356"><ele>289.0</ele><time>2026-05-03T15:05:16.311Z</time></trkpt><trkpt lat="44.9270579" lon="7.4116013"><ele>289.0</ele><time>2026-05-03T15:05:17.311Z</time></trkpt><trkpt lat="44.9270727" lon="7.4117697"><ele>288.75</ele><time>2026-05-03T15:05:18.311Z</time></trkpt><trkpt lat="44.9270874" lon="7.4119285"><ele>288.5</ele><time>2026-05-03T15:05:19.313Z</time></trkpt><trkpt lat="44.9271041" lon="7.4120827"><ele>288.25</ele><time>2026-05-03T15:05:20.311Z</time></trkpt><trkpt lat="44.9271278" lon="7.4122369"><ele>288.0</ele><time>2026-05-03T15:05:21.311Z</time></trkpt><trkpt lat="44.9271528" lon="7.4123979"><ele>287.75</ele><time>2026-05-03T15:05:22.313Z</time></trkpt><trkpt lat="44.9271782" lon="7.4125562"><ele>287.5</ele><time>2026-05-03T15:05:23.311Z</time></trkpt><trkpt lat="44.9271915" lon="7.4127197"><ele>287.25</ele><time>2026-05-03T15:05:24.312Z</time></trkpt><trkpt lat="44.9271998" lon="7.4128764"><ele>287.0</ele><time>2026-05-03T15:05:25.312Z</time></trkpt><trkpt lat="44.9272001" lon="7.4130455"><ele>287.0</ele><time>2026-05-03T15:05:26.311Z</time></trkpt><trkpt lat="44.927183" lon="7.4132191"><ele>287.0</ele><time>2026-05-03T15:05:27.312Z</time></trkpt><trkpt lat="44.9271607" lon="7.4134022"><ele>287.0</ele><time>2026-05-03T15:05:28.312Z</time></trkpt><trkpt lat="44.9271419" lon="7.4135866"><ele>287.0</ele><time>2026-05-03T15:05:29.311Z</time></trkpt><trkpt lat="44.9271257" lon="7.4137634"><ele>286.75</ele><time>2026-05-03T15:05:30.312Z</time></trkpt><trkpt lat="44.9271079" lon="7.4139438"><ele>286.5</ele><time>2026-05-03T15:05:31.311Z</time></trkpt><trkpt lat="44.9271006" lon="7.4141247"><ele>286.25</ele><time>2026-05-03T15:05:32.312Z</time></trkpt><trkpt lat="44.927099" lon="7.4142864"><ele>286.0</ele><time>2026-05-03T15:05:33.311Z</time></trkpt><trkpt lat="44.9271002" lon="7.4144391"><ele>286.0</ele><time>2026-05-03T15:05:34.313Z</time></trkpt><trkpt lat="44.927114" lon="7.4145901"><ele>286.0</ele><time>2026-05-03T15:05:35.312Z</time></trkpt><trkpt lat="44.9271448" lon="7.4147403"><ele>286.0</ele><time>2026-05-03T15:05:36.311Z</time></trkpt><trkpt lat="44.9271843" lon="7.4148862"><ele>286.0</ele><time>2026-05-03T15:05:37.311Z</time></trkpt><trkpt lat="44.9272177" lon="7.4150253"><ele>286.0</ele><time>2026-05-03T15:05:38.312Z</time></trkpt><trkpt lat="44.9272433" lon="7.4151614"><ele>286.0</ele><time>2026-05-03T15:05:39.311Z</time></trkpt><trkpt lat="44.9272508" lon="7.4153128"><ele>286.0</ele><time>2026-05-03T15:05:40.312Z</time></trkpt><trkpt lat="44.9272476" lon="7.4154533"><ele>286.0</ele><time>2026-05-03T15:05:41.311Z</time></trkpt><trkpt lat="44.9272263" lon="7.4156179"><ele>286.0</ele><time>2026-05-03T15:05:42.312Z</time></trkpt><trkpt lat="44.9272027" lon="7.4157994"><ele>285.5</ele><time>2026-05-03T15:05:43.312Z</time></trkpt><trkpt lat="44.9271726" lon="7.4159904"><ele>285.0</ele><time>2026-05-03T15:05:44.311Z</time></trkpt><trkpt lat="44.9271393" lon="7.4161949"><ele>284.5</ele><time>2026-05-03T15:05:45.312Z</time></trkpt><trkpt lat="44.927115" lon="7.4164078"><ele>284.0</ele><time>2026-05-03T15:05:46.311Z</time></trkpt><trkpt lat="44.9270783" lon="7.4166163"><ele>284.0</ele><time>2026-05-03T15:05:47.311Z</time></trkpt><trkpt lat="44.9270433" lon="7.4168096"><ele>284.0</ele><time>2026-05-03T15:05:48.313Z</time></trkpt><trkpt lat="44.9270081" lon="7.4169942"><ele>284.0</ele><time>2026-05-03T15:05:49.311Z</time></trkpt><trkpt lat="44.92698" lon="7.4171719"><ele>284.0</ele><time>2026-05-03T15:05:50.311Z</time></trkpt><trkpt lat="44.9269345" lon="7.4173531"><ele>284.0</ele><time>2026-05-03T15:05:51.312Z</time></trkpt><trkpt lat="44.9268881" lon="7.4175378"><ele>284.0</ele><time>2026-05-03T15:05:52.311Z</time></trkpt><trkpt lat="44.9268383" lon="7.4177377"><ele>284.0</ele><time>2026-05-03T15:05:53.312Z</time></trkpt><trkpt lat="44.9267987" lon="7.4179298"><ele>284.0</ele><time>2026-05-03T15:05:54.312Z</time></trkpt><trkpt lat="44.9267541" lon="7.418108"><ele>284.0</ele><time>2026-05-03T15:05:55.311Z</time></trkpt><trkpt lat="44.9267118" lon="7.4182656"><ele>284.0</ele><time>2026-05-03T15:05:56.312Z</time></trkpt><trkpt lat="44.9266826" lon="7.4183794"><ele>284.0</ele><time>2026-05-03T15:05:57.311Z</time></trkpt><trkpt lat="44.9266508" lon="7.4184597"><ele>284.0</ele><time>2026-05-03T15:05:58.311Z</time></trkpt><trkpt lat="44.9265998" lon="7.4185188"><ele>284.0</ele><time>2026-05-03T15:05:59.312Z</time></trkpt><trkpt lat="44.9265244" lon="7.4185691"><ele>284.0</ele><time>2026-05-03T15:06:00.311Z</time></trkpt><trkpt lat="44.9264375" lon="7.4186368"><ele>284.0</ele><time>2026-05-03T15:06:01.311Z</time></trkpt><trkpt lat="44.926345" lon="7.4187271"><ele>284.0</ele><time>2026-05-03T15:06:02.311Z</time></trkpt><trkpt lat="44.9262597" lon="7.418804"><ele>284.0</ele><time>2026-05-03T15:06:03.312Z</time></trkpt><trkpt lat="44.9261783" lon="7.4188735"><ele>284.0</ele><time>2026-05-03T15:06:04.311Z</time></trkpt><trkpt lat="44.9261098" lon="7.4189278"><ele>284.0</ele><time>2026-05-03T15:06:05.312Z</time></trkpt><trkpt lat="44.9260524" lon="7.4189746"><ele>284.0</ele><time>2026-05-03T15:06:06.311Z</time></trkpt><trkpt lat="44.9259457" lon="7.4189612"><ele>284.0</ele><time>2026-05-03T15:06:08.311Z</time></trkpt><trkpt lat="44.9258835" lon="7.4188769"><ele>284.0</ele><time>2026-05-03T15:06:09.311Z</time></trkpt><trkpt lat="44.9258091" lon="7.418748"><ele>284.0</ele><time>2026-05-03T15:06:10.312Z</time></trkpt><trkpt lat="44.9257129" lon="7.4185792"><ele>284.0</ele><time>2026-05-03T15:06:11.312Z</time></trkpt><trkpt lat="44.9256019" lon="7.4183803"><ele>284.0</ele><time>2026-05-03T15:06:12.311Z</time></trkpt><trkpt lat="44.9254739" lon="7.4181602"><ele>284.0</ele><time>2026-05-03T15:06:13.311Z</time></trkpt><trkpt lat="44.925343" lon="7.4179466"><ele>284.33333333333337</ele><time>2026-05-03T15:06:14.311Z</time></trkpt><trkpt lat="44.9252144" lon="7.4177449"><ele>284.6666666666667</ele><time>2026-05-03T15:06:15.311Z</time></trkpt><trkpt lat="44.9250929" lon="7.4175613"><ele>285.0</ele><time>2026-05-03T15:06:16.311Z</time></trkpt><trkpt lat="44.92497" lon="7.4173894"><ele>285.0</ele><time>2026-05-03T15:06:17.312Z</time></trkpt><trkpt lat="44.9248525" lon="7.4172171"><ele>285.0</ele><time>2026-05-03T15:06:18.312Z</time></trkpt><trkpt lat="44.924734" lon="7.4170381"><ele>285.0</ele><time>2026-05-03T15:06:19.31Z</time></trkpt><trkpt lat="44.9246203" lon="7.416861"><ele>285.3333333333333</ele><time>2026-05-03T15:06:20.311Z</time></trkpt><trkpt lat="44.9245087" lon="7.4166821"><ele>285.66666666666663</ele><time>2026-05-03T15:06:21.311Z</time></trkpt><trkpt lat="44.9244156" lon="7.4164977"><ele>286.0</ele><time>2026-05-03T15:06:22.312Z</time></trkpt><trkpt lat="44.9243234" lon="7.4163053"><ele>286.3333333333333</ele><time>2026-05-03T15:06:23.312Z</time></trkpt><trkpt lat="44.9242281" lon="7.4161237"><ele>286.6666666666667</ele><time>2026-05-03T15:06:24.311Z</time></trkpt><trkpt lat="44.924128" lon="7.4159684"><ele>287.0</ele><time>2026-05-03T15:06:25.312Z</time></trkpt><trkpt lat="44.9240262" lon="7.4158257"><ele>287.0</ele><time>2026-05-03T15:06:26.313Z</time></trkpt><trkpt lat="44.9239239" lon="7.4156831"><ele>287.0</ele><time>2026-05-03T15:06:27.312Z</time></trkpt><trkpt lat="44.9238055" lon="7.4155319"><ele>287.0</ele><time>2026-05-03T15:06:28.311Z</time></trkpt><trkpt lat="44.9236852" lon="7.4153822"><ele>286.6666666666667</ele><time>2026-05-03T15:06:29.311Z</time></trkpt><trkpt lat="44.9235732" lon="7.4152209"><ele>286.3333333333333</ele><time>2026-05-03T15:06:30.312Z</time></trkpt><trkpt lat="44.9234659" lon="7.4150569"><ele>286.0</ele><time>2026-05-03T15:06:31.311Z</time></trkpt><trkpt lat="44.9233557" lon="7.4148972"><ele>287.0</ele><time>2026-05-03T15:06:32.312Z</time></trkpt><trkpt lat="44.9232444" lon="7.4147258"><ele>288.0</ele><time>2026-05-03T15:06:33.311Z</time></trkpt><trkpt lat="44.9231343" lon="7.414548"><ele>289.0</ele><time>2026-05-03T15:06:34.311Z</time></trkpt><trkpt lat="44.923029" lon="7.414383"><ele>289.0</ele><time>2026-05-03T15:06:35.311Z</time></trkpt><trkpt lat="44.9229336" lon="7.4142285"><ele>289.0</ele><time>2026-05-03T15:06:36.311Z</time></trkpt><trkpt lat="44.9228441" lon="7.4140718"><ele>289.0</ele><time>2026-05-03T15:06:37.312Z</time></trkpt><trkpt lat="44.9227475" lon="7.4139118"><ele>289.0</ele><time>2026-05-03T15:06:38.312Z</time></trkpt><trkpt lat="44.9226584" lon="7.4137619"><ele>289.25</ele><time>2026-05-03T15:06:39.312Z</time></trkpt><trkpt lat="44.9225809" lon="7.4136186"><ele>289.5</ele><time>2026-05-03T15:06:40.312Z</time></trkpt><trkpt lat="44.9225052" lon="7.4134777"><ele>289.75</ele><time>2026-05-03T15:06:41.311Z</time></trkpt><trkpt lat="44.9224321" lon="7.4133443"><ele>290.0</ele><time>2026-05-03T15:06:42.312Z</time></trkpt><trkpt lat="44.9223628" lon="7.4132241"><ele>290.0</ele><time>2026-05-03T15:06:43.312Z</time></trkpt><trkpt lat="44.9222936" lon="7.4131125"><ele>290.0</ele><time>2026-05-03T15:06:44.31Z</time></trkpt><trkpt lat="44.922235" lon="7.4130134"><ele>290.0</ele><time>2026-05-03T15:06:45.312Z</time></trkpt><trkpt lat="44.9221765" lon="7.4129229"><ele>290.0</ele><time>2026-05-03T15:06:46.311Z</time></trkpt><trkpt lat="44.9221286" lon="7.4128501"><ele>290.0</ele><time>2026-05-03T15:06:47.312Z</time></trkpt><trkpt lat="44.9220617" lon="7.4127665"><ele>290.0</ele><time>2026-05-03T15:06:49.311Z</time></trkpt><trkpt lat="44.9220534" lon="7.4126351"><ele>290.4</ele><time>2026-05-03T15:06:52.311Z</time></trkpt><trkpt lat="44.9220985" lon="7.4125515"><ele>290.8</ele><time>2026-05-03T15:06:53.311Z</time></trkpt><trkpt lat="44.9221651" lon="7.4124479"><ele>291.2</ele><time>2026-05-03T15:06:54.311Z</time></trkpt><trkpt lat="44.9222286" lon="7.4123443"><ele>291.6</ele><time>2026-05-03T15:06:55.311Z</time></trkpt><trkpt lat="44.9222895" lon="7.4122292"><ele>292.0</ele><time>2026-05-03T15:06:56.311Z</time></trkpt><trkpt lat="44.9223645" lon="7.4121101"><ele>292.0</ele><time>2026-05-03T15:06:57.311Z</time></trkpt><trkpt lat="44.9224449" lon="7.4119836"><ele>292.0</ele><time>2026-05-03T15:06:58.312Z</time></trkpt><trkpt lat="44.9225245" lon="7.4118468"><ele>292.0</ele><time>2026-05-03T15:06:59.311Z</time></trkpt><trkpt lat="44.922608" lon="7.4117028"><ele>292.0</ele><time>2026-05-03T15:07:00.311Z</time></trkpt><trkpt lat="44.9226908" lon="7.4115749"><ele>292.0</ele><time>2026-05-03T15:07:01.312Z</time></trkpt><trkpt lat="44.9227641" lon="7.41145"><ele>292.0</ele><time>2026-05-03T15:07:02.312Z</time></trkpt><trkpt lat="44.9228382" lon="7.4113235"><ele>292.0</ele><time>2026-05-03T15:07:03.312Z</time></trkpt><trkpt lat="44.9229006" lon="7.4112116"><ele>292.0</ele><time>2026-05-03T15:07:04.312Z</time></trkpt><trkpt lat="44.9229658" lon="7.4111094"><ele>292.0</ele><time>2026-05-03T15:07:05.313Z</time></trkpt><trkpt lat="44.9230128" lon="7.4110068"><ele>291.8333333333333</ele><time>2026-05-03T15:07:06.311Z</time></trkpt><trkpt lat="44.9230529" lon="7.4109128"><ele>291.66666666666663</ele><time>2026-05-03T15:07:07.311Z</time></trkpt><trkpt lat="44.9230896" lon="7.4108148"><ele>291.5</ele><time>2026-05-03T15:07:08.312Z</time></trkpt><trkpt lat="44.9231255" lon="7.4107016"><ele>291.3333333333333</ele><time>2026-05-03T15:07:09.311Z</time></trkpt><trkpt lat="44.923164" lon="7.4105906"><ele>291.1666666666667</ele><time>2026-05-03T15:07:10.311Z</time></trkpt><trkpt lat="44.9232049" lon="7.4104745"><ele>291.0</ele><time>2026-05-03T15:07:11.311Z</time></trkpt><trkpt lat="44.9232495" lon="7.4103589"><ele>290.8</ele><time>2026-05-03T15:07:12.312Z</time></trkpt><trkpt lat="44.9233043" lon="7.4102382"><ele>290.6</ele><time>2026-05-03T15:07:13.311Z</time></trkpt><trkpt lat="44.9233607" lon="7.4101164"><ele>290.4</ele><time>2026-05-03T15:07:14.31Z</time></trkpt><trkpt lat="44.9234197" lon="7.4100042"><ele>290.2</ele><time>2026-05-03T15:07:15.311Z</time></trkpt><trkpt lat="44.9234723" lon="7.4098964"><ele>290.0</ele><time>2026-05-03T15:07:16.312Z</time></trkpt><trkpt lat="44.9235211" lon="7.4098115"><ele>290.0</ele><time>2026-05-03T15:07:17.31Z</time></trkpt><trkpt lat="44.9236002" lon="7.4097289"><ele>290.0</ele><time>2026-05-03T15:07:19.312Z</time></trkpt><trkpt lat="44.9235052" lon="7.4098501"><ele>290.0</ele><time>2026-05-03T15:07:26.311Z</time></trkpt><trkpt lat="44.9234503" lon="7.4099558"><ele>290.0</ele><time>2026-05-03T15:07:27.311Z</time></trkpt><trkpt lat="44.9233956" lon="7.4100724"><ele>290.0</ele><time>2026-05-03T15:07:28.311Z</time></trkpt><trkpt lat="44.9233318" lon="7.4101946"><ele>290.0</ele><time>2026-05-03T15:07:29.312Z</time></trkpt><trkpt lat="44.9232753" lon="7.4103263"><ele>290.0</ele><time>2026-05-03T15:07:30.31Z</time></trkpt><trkpt lat="44.9232174" lon="7.4104668"><ele>290.0</ele><time>2026-05-03T15:07:31.31Z</time></trkpt><trkpt lat="44.9231676" lon="7.4105927"><ele>290.0</ele><time>2026-05-03T15:07:32.311Z</time></trkpt><trkpt lat="44.9231204" lon="7.4107079"><ele>290.0</ele><time>2026-05-03T15:07:33.311Z</time></trkpt><trkpt lat="44.923085" lon="7.4108062"><ele>290.2</ele><time>2026-05-03T15:07:34.311Z</time></trkpt><trkpt lat="44.923042" lon="7.4109454"><ele>290.4</ele><time>2026-05-03T15:07:36.312Z</time></trkpt><trkpt lat="44.9229769" lon="7.4109315"><ele>290.6</ele><time>2026-05-03T15:07:39.311Z</time></trkpt><trkpt lat="44.9229302" lon="7.4108082"><ele>290.8</ele><time>2026-05-03T15:07:41.31Z</time></trkpt><trkpt lat="44.9228814" lon="7.4106445"><ele>291.0</ele><time>2026-05-03T15:07:43.31Z</time></trkpt><trkpt lat="44.9228595" lon="7.4105591"><ele>290.8333333333333</ele><time>2026-05-03T15:07:44.311Z</time></trkpt><trkpt lat="44.9228394" lon="7.410459"><ele>290.6666666666667</ele><time>2026-05-03T15:07:45.311Z</time></trkpt><trkpt lat="44.9227946" lon="7.4102762"><ele>290.5</ele><time>2026-05-03T15:07:47.312Z</time></trkpt><trkpt lat="44.9227785" lon="7.4101722"><ele>290.33333333333337</ele><time>2026-05-03T15:07:48.312Z</time></trkpt><trkpt lat="44.9227496" lon="7.4100705"><ele>290.1666666666667</ele><time>2026-05-03T15:07:49.311Z</time></trkpt><trkpt lat="44.9227265" lon="7.4099661"><ele>290.0</ele><time>2026-05-03T15:07:50.311Z</time></trkpt><trkpt lat="44.9227032" lon="7.4098569"><ele>290.0</ele><time>2026-05-03T15:07:51.312Z</time></trkpt><trkpt lat="44.922676" lon="7.4097445"><ele>290.0</ele><time>2026-05-03T15:07:52.311Z</time></trkpt><trkpt lat="44.9226513" lon="7.4096431"><ele>290.0</ele><time>2026-05-03T15:07:53.31Z</time></trkpt><trkpt lat="44.9226266" lon="7.4095457"><ele>290.0</ele><time>2026-05-03T15:07:54.311Z</time></trkpt><trkpt lat="44.9226018" lon="7.4094462"><ele>290.0</ele><time>2026-05-03T15:07:55.311Z</time></trkpt><trkpt lat="44.9225763" lon="7.4093411"><ele>290.0</ele><time>2026-05-03T15:07:56.311Z</time></trkpt><trkpt lat="44.9225492" lon="7.4092332"><ele>290.6</ele><time>2026-05-03T15:07:57.311Z</time></trkpt><trkpt lat="44.9225186" lon="7.4091154"><ele>291.2</ele><time>2026-05-03T15:07:58.312Z</time></trkpt><trkpt lat="44.9224822" lon="7.4089846"><ele>291.8</ele><time>2026-05-03T15:07:59.311Z</time></trkpt><trkpt lat="44.9224544" lon="7.4088569"><ele>292.4</ele><time>2026-05-03T15:08:00.311Z</time></trkpt><trkpt lat="44.9224305" lon="7.4087321"><ele>293.0</ele><time>2026-05-03T15:08:01.311Z</time></trkpt><trkpt lat="44.922402" lon="7.4086115"><ele>293.0</ele><time>2026-05-03T15:08:02.311Z</time></trkpt><trkpt lat="44.9223758" lon="7.4084935"><ele>293.0</ele><time>2026-05-03T15:08:03.313Z</time></trkpt><trkpt lat="44.9223506" lon="7.4083697"><ele>293.0</ele><time>2026-05-03T15:08:04.311Z</time></trkpt><trkpt lat="44.9223239" lon="7.4082472"><ele>293.0</ele><time>2026-05-03T15:08:05.311Z</time></trkpt><trkpt lat="44.9222977" lon="7.4081223"><ele>293.0</ele><time>2026-05-03T15:08:06.31Z</time></trkpt><trkpt lat="44.9222812" lon="7.4079946"><ele>293.2</ele><time>2026-05-03T15:08:07.312Z</time></trkpt><trkpt lat="44.9222727" lon="7.4078646"><ele>293.4</ele><time>2026-05-03T15:08:08.31Z</time></trkpt><trkpt lat="44.9222681" lon="7.4077378"><ele>293.59999999999997</ele><time>2026-05-03T15:08:09.312Z</time></trkpt><trkpt lat="44.9222633" lon="7.4076071"><ele>293.8</ele><time>2026-05-03T15:08:10.311Z</time></trkpt><trkpt lat="44.9222627" lon="7.4074752"><ele>294.0</ele><time>2026-05-03T15:08:11.311Z</time></trkpt><trkpt lat="44.9222684" lon="7.407352"><ele>294.0</ele><time>2026-05-03T15:08:12.311Z</time></trkpt><trkpt lat="44.9222744" lon="7.4072224"><ele>294.0</ele><time>2026-05-03T15:08:13.31Z</time></trkpt><trkpt lat="44.9222748" lon="7.4070902"><ele>294.0</ele><time>2026-05-03T15:08:14.311Z</time></trkpt><trkpt lat="44.9222774" lon="7.4069596"><ele>294.0</ele><time>2026-05-03T15:08:15.313Z</time></trkpt><trkpt lat="44.9222691" lon="7.4068259"><ele>294.0</ele><time>2026-05-03T15:08:16.311Z</time></trkpt><trkpt lat="44.9222663" lon="7.4066837"><ele>294.0</ele><time>2026-05-03T15:08:17.311Z</time></trkpt><trkpt lat="44.9222627" lon="7.4065374"><ele>294.0</ele><time>2026-05-03T15:08:18.312Z</time></trkpt><trkpt lat="44.9222553" lon="7.4063967"><ele>294.0</ele><time>2026-05-03T15:08:19.31Z</time></trkpt><trkpt lat="44.9222397" lon="7.4062542"><ele>294.0</ele><time>2026-05-03T15:08:20.311Z</time></trkpt><trkpt lat="44.9222174" lon="7.4061101"><ele>294.0</ele><time>2026-05-03T15:08:21.312Z</time></trkpt><trkpt lat="44.9221917" lon="7.4059696"><ele>294.0</ele><time>2026-05-03T15:08:22.311Z</time></trkpt><trkpt lat="44.9221637" lon="7.4058345"><ele>294.0</ele><time>2026-05-03T15:08:23.31Z</time></trkpt><trkpt lat="44.9221417" lon="7.4056982"><ele>294.0</ele><time>2026-05-03T15:08:24.311Z</time></trkpt><trkpt lat="44.9221285" lon="7.4055607"><ele>294.0</ele><time>2026-05-03T15:08:25.312Z</time></trkpt><trkpt lat="44.9221011" lon="7.4054237"><ele>294.0</ele><time>2026-05-03T15:08:26.311Z</time></trkpt><trkpt lat="44.9220818" lon="7.4052884"><ele>294.0</ele><time>2026-05-03T15:08:27.312Z</time></trkpt><trkpt lat="44.9220612" lon="7.4051503"><ele>294.0</ele><time>2026-05-03T15:08:28.31Z</time></trkpt><trkpt lat="44.9220351" lon="7.4050076"><ele>294.0</ele><time>2026-05-03T15:08:29.311Z</time></trkpt><trkpt lat="44.922012" lon="7.4048755"><ele>294.0</ele><time>2026-05-03T15:08:30.311Z</time></trkpt><trkpt lat="44.9219909" lon="7.4047436"><ele>294.0</ele><time>2026-05-03T15:08:31.312Z</time></trkpt><trkpt lat="44.9219634" lon="7.4046111"><ele>294.2</ele><time>2026-05-03T15:08:32.312Z</time></trkpt><trkpt lat="44.9219412" lon="7.4044744"><ele>294.4</ele><time>2026-05-03T15:08:33.312Z</time></trkpt><trkpt lat="44.92192" lon="7.4043311"><ele>294.6</ele><time>2026-05-03T15:08:34.311Z</time></trkpt><trkpt lat="44.9219036" lon="7.4041837"><ele>294.8</ele><time>2026-05-03T15:08:35.311Z</time></trkpt><trkpt lat="44.9218819" lon="7.4040464"><ele>295.0</ele><time>2026-05-03T15:08:36.31Z</time></trkpt><trkpt lat="44.9218604" lon="7.4039075"><ele>295.2</ele><time>2026-05-03T15:08:37.311Z</time></trkpt><trkpt lat="44.9218318" lon="7.4037649"><ele>295.4</ele><time>2026-05-03T15:08:38.311Z</time></trkpt><trkpt lat="44.9218136" lon="7.403606"><ele>295.6</ele><time>2026-05-03T15:08:39.312Z</time></trkpt><trkpt lat="44.921801" lon="7.4034602"><ele>295.8</ele><time>2026-05-03T15:08:40.311Z</time></trkpt><trkpt lat="44.9217855" lon="7.4033267"><ele>296.0</ele><time>2026-05-03T15:08:41.311Z</time></trkpt><trkpt lat="44.9217734" lon="7.4031955"><ele>296.0</ele><time>2026-05-03T15:08:42.311Z</time></trkpt><trkpt lat="44.9217611" lon="7.4030568"><ele>296.0</ele><time>2026-05-03T15:08:43.311Z</time></trkpt><trkpt lat="44.9217472" lon="7.4029174"><ele>296.0</ele><time>2026-05-03T15:08:44.311Z</time></trkpt><trkpt lat="44.9217315" lon="7.4027755"><ele>296.0</ele><time>2026-05-03T15:08:45.311Z</time></trkpt><trkpt lat="44.9217184" lon="7.4026417"><ele>296.0</ele><time>2026-05-03T15:08:46.31Z</time></trkpt><trkpt lat="44.9217027" lon="7.4025018"><ele>296.0</ele><time>2026-05-03T15:08:47.311Z</time></trkpt><trkpt lat="44.9216876" lon="7.4023628"><ele>296.0</ele><time>2026-05-03T15:08:48.31Z</time></trkpt><trkpt lat="44.9216711" lon="7.4022285"><ele>296.0</ele><time>2026-05-03T15:08:49.311Z</time></trkpt><trkpt lat="44.9216535" lon="7.4020926"><ele>296.0</ele><time>2026-05-03T15:08:50.312Z</time></trkpt><trkpt lat="44.9216339" lon="7.4019548"><ele>296.0</ele><time>2026-05-03T15:08:51.31Z</time></trkpt><trkpt lat="44.9216136" lon="7.4018127"><ele>296.2</ele><time>2026-05-03T15:08:52.311Z</time></trkpt><trkpt lat="44.9215962" lon="7.4016762"><ele>296.40000000000003</ele><time>2026-05-03T15:08:53.312Z</time></trkpt><trkpt lat="44.9215688" lon="7.401537"><ele>296.6</ele><time>2026-05-03T15:08:54.311Z</time></trkpt><trkpt lat="44.9215362" lon="7.4013986"><ele>296.8</ele><time>2026-05-03T15:08:55.311Z</time></trkpt><trkpt lat="44.9215039" lon="7.4012632"><ele>297.0</ele><time>2026-05-03T15:08:56.31Z</time></trkpt><trkpt lat="44.9214755" lon="7.4011289"><ele>297.4</ele><time>2026-05-03T15:08:57.312Z</time></trkpt><trkpt lat="44.9214381" lon="7.4010033"><ele>297.79999999999995</ele><time>2026-05-03T15:08:58.311Z</time></trkpt><trkpt lat="44.9214051" lon="7.4008752"><ele>298.2</ele><time>2026-05-03T15:08:59.311Z</time></trkpt><trkpt lat="44.9213701" lon="7.4007466"><ele>298.59999999999997</ele><time>2026-05-03T15:09:00.31Z</time></trkpt><trkpt lat="44.921336" lon="7.4006299"><ele>299.0</ele><time>2026-05-03T15:09:01.311Z</time></trkpt><trkpt lat="44.9213046" lon="7.4005013"><ele>299.2</ele><time>2026-05-03T15:09:02.311Z</time></trkpt><trkpt lat="44.9212721" lon="7.4003836"><ele>299.4</ele><time>2026-05-03T15:09:03.31Z</time></trkpt><trkpt lat="44.9212452" lon="7.4002888"><ele>299.6</ele><time>2026-05-03T15:09:04.311Z</time></trkpt><trkpt lat="44.9212224" lon="7.4002014"><ele>299.8</ele><time>2026-05-03T15:09:05.312Z</time></trkpt><trkpt lat="44.9212208" lon="7.4000777"><ele>300.0</ele><time>2026-05-03T15:09:07.311Z</time></trkpt><trkpt lat="44.9213249" lon="7.3999448"><ele>300.0</ele><time>2026-05-03T15:09:09.312Z</time></trkpt><trkpt lat="44.9214123" lon="7.3998574"><ele>300.0</ele><time>2026-05-03T15:09:10.312Z</time></trkpt><trkpt lat="44.9215139" lon="7.3997454"><ele>300.0</ele><time>2026-05-03T15:09:11.311Z</time></trkpt><trkpt lat="44.921623" lon="7.39963"><ele>300.0</ele><time>2026-05-03T15:09:12.311Z</time></trkpt><trkpt lat="44.9217344" lon="7.3995121"><ele>299.75</ele><time>2026-05-03T15:09:13.31Z</time></trkpt><trkpt lat="44.9218357" lon="7.3994005"><ele>299.5</ele><time>2026-05-03T15:09:14.31Z</time></trkpt><trkpt lat="44.9219365" lon="7.3992968"><ele>299.25</ele><time>2026-05-03T15:09:15.311Z</time></trkpt><trkpt lat="44.9220304" lon="7.3992074"><ele>299.0</ele><time>2026-05-03T15:09:16.311Z</time></trkpt><trkpt lat="44.9221146" lon="7.3991203"><ele>299.0</ele><time>2026-05-03T15:09:17.311Z</time></trkpt><trkpt lat="44.9221895" lon="7.3990444"><ele>299.0</ele><time>2026-05-03T15:09:18.311Z</time></trkpt><trkpt lat="44.9222793" lon="7.3989695"><ele>299.0</ele><time>2026-05-03T15:09:19.311Z</time></trkpt><trkpt lat="44.9223786" lon="7.3989066"><ele>299.0</ele><time>2026-05-03T15:09:20.311Z</time></trkpt><trkpt lat="44.9224876" lon="7.3988448"><ele>299.0</ele><time>2026-05-03T15:09:21.31Z</time></trkpt><trkpt lat="44.9225948" lon="7.3987782"><ele>298.5</ele><time>2026-05-03T15:09:22.312Z</time></trkpt><trkpt lat="44.9226945" lon="7.3987086"><ele>298.0</ele><time>2026-05-03T15:09:23.31Z</time></trkpt><trkpt lat="44.9228059" lon="7.3986388"><ele>297.5</ele><time>2026-05-03T15:09:24.31Z</time></trkpt><trkpt lat="44.9229283" lon="7.3985707"><ele>297.0</ele><time>2026-05-03T15:09:25.313Z</time></trkpt><trkpt lat="44.9230444" lon="7.3985043"><ele>297.0</ele><time>2026-05-03T15:09:26.312Z</time></trkpt><trkpt lat="44.9231524" lon="7.3984358"><ele>297.0</ele><time>2026-05-03T15:09:27.313Z</time></trkpt><trkpt lat="44.923263" lon="7.3983662"><ele>297.0</ele><time>2026-05-03T15:09:28.311Z</time></trkpt><trkpt lat="44.9233732" lon="7.3983005"><ele>297.0</ele><time>2026-05-03T15:09:29.312Z</time></trkpt><trkpt lat="44.923479" lon="7.3982399"><ele>297.25</ele><time>2026-05-03T15:09:30.311Z</time></trkpt><trkpt lat="44.9235896" lon="7.3981752"><ele>297.5</ele><time>2026-05-03T15:09:31.311Z</time></trkpt><trkpt lat="44.9237021" lon="7.3981172"><ele>297.75</ele><time>2026-05-03T15:09:32.311Z</time></trkpt><trkpt lat="44.9238107" lon="7.3980655"><ele>298.0</ele><time>2026-05-03T15:09:33.31Z</time></trkpt><trkpt lat="44.9239133" lon="7.3980206"><ele>297.8</ele><time>2026-05-03T15:09:34.312Z</time></trkpt><trkpt lat="44.9240126" lon="7.3979712"><ele>297.6</ele><time>2026-05-03T15:09:35.311Z</time></trkpt><trkpt lat="44.9241097" lon="7.3979241"><ele>297.4</ele><time>2026-05-03T15:09:36.311Z</time></trkpt><trkpt lat="44.9241997" lon="7.3978834"><ele>297.2</ele><time>2026-05-03T15:09:37.31Z</time></trkpt><trkpt lat="44.924292" lon="7.3978516"><ele>297.0</ele><time>2026-05-03T15:09:38.311Z</time></trkpt><trkpt lat="44.924393" lon="7.3978231"><ele>297.0</ele><time>2026-05-03T15:09:39.311Z</time></trkpt><trkpt lat="44.9244982" lon="7.3977994"><ele>297.0</ele><time>2026-05-03T15:09:40.31Z</time></trkpt><trkpt lat="44.9246006" lon="7.3977781"><ele>297.0</ele><time>2026-05-03T15:09:41.311Z</time></trkpt><trkpt lat="44.924702" lon="7.3977666"><ele>297.0</ele><time>2026-05-03T15:09:42.311Z</time></trkpt><trkpt lat="44.9248014" lon="7.3977623"><ele>297.0</ele><time>2026-05-03T15:09:43.311Z</time></trkpt><trkpt lat="44.9248857" lon="7.3977537"><ele>297.0</ele><time>2026-05-03T15:09:44.312Z</time></trkpt><trkpt lat="44.9249709" lon="7.3977495"><ele>297.0</ele><time>2026-05-03T15:09:45.311Z</time></trkpt><trkpt lat="44.9250527" lon="7.3977537"><ele>297.0</ele><time>2026-05-03T15:09:46.31Z</time></trkpt><trkpt lat="44.9251671" lon="7.3977612"><ele>297.0</ele><time>2026-05-03T15:09:48.311Z</time></trkpt><trkpt lat="44.9252346" lon="7.3977249"><ele>297.0</ele><time>2026-05-03T15:09:50.311Z</time></trkpt><trkpt lat="44.9252881" lon="7.3976714"><ele>297.0</ele><time>2026-05-03T15:09:52.311Z</time></trkpt><trkpt lat="44.9253462" lon="7.3976325"><ele>296.8</ele><time>2026-05-03T15:09:54.31Z</time></trkpt><trkpt lat="44.9253963" lon="7.3974896"><ele>296.6</ele><time>2026-05-03T15:09:56.312Z</time></trkpt><trkpt lat="44.9253875" lon="7.397385"><ele>296.40000000000003</ele><time>2026-05-03T15:09:57.31Z</time></trkpt><trkpt lat="44.9253722" lon="7.3972794"><ele>296.2</ele><time>2026-05-03T15:09:58.311Z</time></trkpt><trkpt lat="44.9253994" lon="7.3971244"><ele>296.0</ele><time>2026-05-03T15:10:00.31Z</time></trkpt><trkpt lat="44.9254596" lon="7.3970433"><ele>296.0</ele><time>2026-05-03T15:10:01.312Z</time></trkpt><trkpt lat="44.9255411" lon="7.3969455"><ele>296.0</ele><time>2026-05-03T15:10:02.31Z</time></trkpt><trkpt lat="44.9256198" lon="7.3968539"><ele>296.0</ele><time>2026-05-03T15:10:03.311Z</time></trkpt><trkpt lat="44.9256851" lon="7.3967687"><ele>296.0</ele><time>2026-05-03T15:10:04.31Z</time></trkpt><trkpt lat="44.9257382" lon="7.3967055"><ele>296.0</ele><time>2026-05-03T15:10:05.31Z</time></trkpt><trkpt lat="44.9258084" lon="7.3966178"><ele>296.0</ele><time>2026-05-03T15:10:07.31Z</time></trkpt><trkpt lat="44.9258623" lon="7.3965422"><ele>296.0</ele><time>2026-05-03T15:10:10.312Z</time></trkpt><trkpt lat="44.9259159" lon="7.3964953"><ele>296.0</ele><time>2026-05-03T15:10:21.311Z</time></trkpt><trkpt lat="44.9260087" lon="7.3963668"><ele>296.0</ele><time>2026-05-03T15:11:26.31Z</time></trkpt><trkpt lat="44.9260602" lon="7.3963049"><ele>296.0</ele><time>2026-05-03T15:11:27.31Z</time></trkpt><trkpt lat="44.9261154" lon="7.3962368"><ele>296.0</ele><time>2026-05-03T15:11:28.31Z</time></trkpt><trkpt lat="44.9262091" lon="7.3961349"><ele>296.0</ele><time>2026-05-03T15:11:30.311Z</time></trkpt><trkpt lat="44.9262363" lon="7.396045"><ele>296.0</ele><time>2026-05-03T15:11:33.311Z</time></trkpt><trkpt lat="44.9261777" lon="7.3961571"><ele>296.0</ele><time>2026-05-03T15:12:59.309Z</time></trkpt><trkpt lat="44.9261057" lon="7.3962491"><ele>296.0</ele><time>2026-05-03T15:13:01.309Z</time></trkpt><trkpt lat="44.926011" lon="7.39636"><ele>296.0</ele><time>2026-05-03T15:13:03.31Z</time></trkpt><trkpt lat="44.9259567" lon="7.3964289"><ele>296.0</ele><time>2026-05-03T15:13:04.31Z</time></trkpt><trkpt lat="44.9259056" lon="7.3964944"><ele>296.0</ele><time>2026-05-03T15:13:05.311Z</time></trkpt><trkpt lat="44.9258577" lon="7.3965639"><ele>296.0</ele><time>2026-05-03T15:13:06.309Z</time></trkpt><trkpt lat="44.925798" lon="7.3966398"><ele>296.0</ele><time>2026-05-03T15:13:07.31Z</time></trkpt><trkpt lat="44.9257357" lon="7.3967159"><ele>296.0</ele><time>2026-05-03T15:13:08.31Z</time></trkpt><trkpt lat="44.9256726" lon="7.3967949"><ele>296.0</ele><time>2026-05-03T15:13:09.31Z</time></trkpt><trkpt lat="44.925608" lon="7.3968731"><ele>296.0</ele><time>2026-05-03T15:13:10.311Z</time></trkpt><trkpt lat="44.9255489" lon="7.3969435"><ele>296.0</ele><time>2026-05-03T15:13:11.309Z</time></trkpt><trkpt lat="44.9254971" lon="7.3970059"><ele>296.0</ele><time>2026-05-03T15:13:12.31Z</time></trkpt><trkpt lat="44.9254132" lon="7.3971133"><ele>296.0</ele><time>2026-05-03T15:13:14.31Z</time></trkpt><trkpt lat="44.9253649" lon="7.3972368"><ele>296.0</ele><time>2026-05-03T15:13:16.31Z</time></trkpt><trkpt lat="44.9253828" lon="7.3974022"><ele>295.83333333333337</ele><time>2026-05-03T15:13:18.31Z</time></trkpt><trkpt lat="44.9253896" lon="7.3975505"><ele>295.6666666666667</ele><time>2026-05-03T15:13:20.31Z</time></trkpt><trkpt lat="44.9253457" lon="7.3976441"><ele>295.5</ele><time>2026-05-03T15:13:22.311Z</time></trkpt><trkpt lat="44.9252895" lon="7.3976971"><ele>295.3333333333333</ele><time>2026-05-03T15:13:24.309Z</time></trkpt><trkpt lat="44.9252444" lon="7.3977769"><ele>295.16666666666663</ele><time>2026-05-03T15:13:26.311Z</time></trkpt><trkpt lat="44.9252616" lon="7.3978668"><ele>295.0</ele><time>2026-05-03T15:13:28.311Z</time></trkpt><trkpt lat="44.9253221" lon="7.3980482"><ele>294.8</ele><time>2026-05-03T15:13:30.31Z</time></trkpt><trkpt lat="44.9254143" lon="7.398168"><ele>294.6</ele><time>2026-05-03T15:13:31.309Z</time></trkpt><trkpt lat="44.9254746" lon="7.3982821"><ele>294.4</ele><time>2026-05-03T15:13:32.31Z</time></trkpt><trkpt lat="44.9255375" lon="7.398354"><ele>294.2</ele><time>2026-05-03T15:13:33.31Z</time></trkpt><trkpt lat="44.9255861" lon="7.3984235"><ele>294.0</ele><time>2026-05-03T15:13:34.311Z</time></trkpt><trkpt lat="44.9256526" lon="7.3984896"><ele>294.0</ele><time>2026-05-03T15:13:36.311Z</time></trkpt><trkpt lat="44.9257121" lon="7.3985428"><ele>294.0</ele><time>2026-05-03T15:15:08.309Z</time></trkpt><trkpt lat="44.9257996" lon="7.3985597"><ele>294.0</ele><time>2026-05-03T15:15:11.31Z</time></trkpt><trkpt lat="44.925894" lon="7.3985516"><ele>294.0</ele><time>2026-05-03T15:15:14.28Z</time></trkpt><trkpt lat="44.9260187" lon="7.3985789"><ele>294.0</ele><time>2026-05-03T15:15:16.31Z</time></trkpt><trkpt lat="44.9261025" lon="7.3985738"><ele>293.6666666666667</ele><time>2026-05-03T15:15:17.309Z</time></trkpt><trkpt lat="44.9261847" lon="7.398568"><ele>293.3333333333333</ele><time>2026-05-03T15:15:18.309Z</time></trkpt><trkpt lat="44.9262552" lon="7.3985642"><ele>293.0</ele><time>2026-05-03T15:15:19.31Z</time></trkpt><trkpt lat="44.9263212" lon="7.3985612"><ele>292.66666666666663</ele><time>2026-05-03T15:15:20.309Z</time></trkpt><trkpt lat="44.9263944" lon="7.398554"><ele>292.3333333333333</ele><time>2026-05-03T15:15:21.309Z</time></trkpt><trkpt lat="44.926463" lon="7.3985497"><ele>292.0</ele><time>2026-05-03T15:15:22.309Z</time></trkpt><trkpt lat="44.9265695" lon="7.3985456"><ele>292.0</ele><time>2026-05-03T15:15:24.31Z</time></trkpt><trkpt lat="44.9266845" lon="7.3984664"><ele>292.0</ele><time>2026-05-03T15:15:26.309Z</time></trkpt><trkpt lat="44.9267654" lon="7.3983926"><ele>292.0</ele><time>2026-05-03T15:15:27.311Z</time></trkpt><trkpt lat="44.9268503" lon="7.3982958"><ele>292.0</ele><time>2026-05-03T15:15:28.311Z</time></trkpt><trkpt lat="44.92692" lon="7.3981775"><ele>292.0</ele><time>2026-05-03T15:15:29.309Z</time></trkpt><trkpt lat="44.9269835" lon="7.3980462"><ele>292.75</ele><time>2026-05-03T15:15:30.309Z</time></trkpt><trkpt lat="44.9270403" lon="7.3979009"><ele>293.5</ele><time>2026-05-03T15:15:31.309Z</time></trkpt><trkpt lat="44.9270927" lon="7.3977558"><ele>294.25</ele><time>2026-05-03T15:15:32.309Z</time></trkpt><trkpt lat="44.9271482" lon="7.3976133"><ele>295.0</ele><time>2026-05-03T15:15:33.309Z</time></trkpt><trkpt lat="44.9272036" lon="7.3974746"><ele>295.0</ele><time>2026-05-03T15:15:34.309Z</time></trkpt><trkpt lat="44.9272566" lon="7.3973338"><ele>295.0</ele><time>2026-05-03T15:15:35.309Z</time></trkpt><trkpt lat="44.9273162" lon="7.3971892"><ele>295.0</ele><time>2026-05-03T15:15:36.309Z</time></trkpt><trkpt lat="44.9273736" lon="7.3970425"><ele>295.0</ele><time>2026-05-03T15:15:37.31Z</time></trkpt><trkpt lat="44.9274275" lon="7.3969031"><ele>295.0</ele><time>2026-05-03T15:15:38.31Z</time></trkpt><trkpt lat="44.9274791" lon="7.3967746"><ele>295.0</ele><time>2026-05-03T15:15:39.309Z</time></trkpt><trkpt lat="44.9275301" lon="7.3966567"><ele>295.0</ele><time>2026-05-03T15:15:40.309Z</time></trkpt><trkpt lat="44.9275762" lon="7.3965565"><ele>295.0</ele><time>2026-05-03T15:15:41.309Z</time></trkpt><trkpt lat="44.9276239" lon="7.3964788"><ele>295.0</ele><time>2026-05-03T15:15:42.31Z</time></trkpt><trkpt lat="44.9276837" lon="7.3964156"><ele>295.0</ele><time>2026-05-03T15:15:43.309Z</time></trkpt><trkpt lat="44.9277529" lon="7.3963633"><ele>295.6</ele><time>2026-05-03T15:15:44.31Z</time></trkpt><trkpt lat="44.9278272" lon="7.39632"><ele>296.2</ele><time>2026-05-03T15:15:45.309Z</time></trkpt><trkpt lat="44.9278941" lon="7.3962873"><ele>296.8</ele><time>2026-05-03T15:15:46.309Z</time></trkpt><trkpt lat="44.9279857" lon="7.3962403"><ele>297.4</ele><time>2026-05-03T15:15:48.309Z</time></trkpt><trkpt lat="44.9280637" lon="7.3961863"><ele>298.0</ele><time>2026-05-03T15:16:08.31Z</time></trkpt><trkpt lat="44.9281929" lon="7.3961149"><ele>298.0</ele><time>2026-05-03T15:16:10.309Z</time></trkpt><trkpt lat="44.9282698" lon="7.3960766"><ele>298.0</ele><time>2026-05-03T15:16:11.311Z</time></trkpt><trkpt lat="44.9283488" lon="7.3960358"><ele>298.0</ele><time>2026-05-03T15:16:12.309Z</time></trkpt><trkpt lat="44.9284408" lon="7.3959981"><ele>298.0</ele><time>2026-05-03T15:16:13.31Z</time></trkpt><trkpt lat="44.9285283" lon="7.3959557"><ele>298.0</ele><time>2026-05-03T15:16:14.309Z</time></trkpt><trkpt lat="44.9286076" lon="7.3959165"><ele>298.0</ele><time>2026-05-03T15:16:15.309Z</time></trkpt><trkpt lat="44.9286832" lon="7.3958728"><ele>297.8</ele><time>2026-05-03T15:16:16.31Z</time></trkpt><trkpt lat="44.9287446" lon="7.3957962"><ele>297.6</ele><time>2026-05-03T15:16:17.309Z</time></trkpt><trkpt lat="44.9287892" lon="7.3956798"><ele>297.4</ele><time>2026-05-03T15:16:18.309Z</time></trkpt><trkpt lat="44.9288135" lon="7.3955382"><ele>297.2</ele><time>2026-05-03T15:16:19.31Z</time></trkpt><trkpt lat="44.9288132" lon="7.3953816"><ele>297.0</ele><time>2026-05-03T15:16:20.31Z</time></trkpt><trkpt lat="44.9287857" lon="7.3952003"><ele>297.5</ele><time>2026-05-03T15:16:21.308Z</time></trkpt><trkpt lat="44.9287462" lon="7.3950136"><ele>298.0</ele><time>2026-05-03T15:16:22.309Z</time></trkpt><trkpt lat="44.9287053" lon="7.3948221"><ele>298.5</ele><time>2026-05-03T15:16:23.309Z</time></trkpt><trkpt lat="44.928668" lon="7.394639"><ele>299.0</ele><time>2026-05-03T15:16:24.31Z</time></trkpt><trkpt lat="44.9286353" lon="7.3944659"><ele>299.0</ele><time>2026-05-03T15:16:25.31Z</time></trkpt><trkpt lat="44.9286088" lon="7.3942986"><ele>299.0</ele><time>2026-05-03T15:16:26.31Z</time></trkpt><trkpt lat="44.92858" lon="7.3941401"><ele>299.0</ele><time>2026-05-03T15:16:27.309Z</time></trkpt><trkpt lat="44.9285572" lon="7.3939932"><ele>299.0</ele><time>2026-05-03T15:16:28.309Z</time></trkpt><trkpt lat="44.9285344" lon="7.3938604"><ele>299.0</ele><time>2026-05-03T15:16:29.31Z</time></trkpt><trkpt lat="44.9285179" lon="7.3937486"><ele>299.1666666666667</ele><time>2026-05-03T15:16:30.31Z</time></trkpt><trkpt lat="44.9285136" lon="7.3936004"><ele>299.33333333333337</ele><time>2026-05-03T15:16:32.31Z</time></trkpt><trkpt lat="44.9285692" lon="7.3935336"><ele>299.5</ele><time>2026-05-03T15:16:34.309Z</time></trkpt><trkpt lat="44.9286297" lon="7.393501"><ele>299.6666666666667</ele><time>2026-05-03T15:16:35.309Z</time></trkpt><trkpt lat="44.9287185" lon="7.3934645"><ele>299.8333333333333</ele><time>2026-05-03T15:16:36.31Z</time></trkpt><trkpt lat="44.9288184" lon="7.393429"><ele>300.0</ele><time>2026-05-03T15:16:37.309Z</time></trkpt><trkpt lat="44.928914" lon="7.3933844"><ele>300.0</ele><time>2026-05-03T15:16:38.309Z</time></trkpt><trkpt lat="44.929005" lon="7.3933466"><ele>300.0</ele><time>2026-05-03T15:16:39.309Z</time></trkpt><trkpt lat="44.9290874" lon="7.3933131"><ele>300.0</ele><time>2026-05-03T15:16:40.309Z</time></trkpt><trkpt lat="44.9291602" lon="7.3932702"><ele>300.0</ele><time>2026-05-03T15:16:41.309Z</time></trkpt><trkpt lat="44.9292161" lon="7.3932108"><ele>300.0</ele><time>2026-05-03T15:16:42.31Z</time></trkpt><trkpt lat="44.9292565" lon="7.3931109"><ele>300.0</ele><time>2026-05-03T15:16:43.309Z</time></trkpt><trkpt lat="44.929286" lon="7.3929851"><ele>299.8333333333333</ele><time>2026-05-03T15:16:44.31Z</time></trkpt><trkpt lat="44.9293091" lon="7.3928603"><ele>299.6666666666667</ele><time>2026-05-03T15:16:45.309Z</time></trkpt><trkpt lat="44.9293468" lon="7.3927491"><ele>299.5</ele><time>2026-05-03T15:16:46.309Z</time></trkpt><trkpt lat="44.9294087" lon="7.3926674"><ele>299.33333333333337</ele><time>2026-05-03T15:16:47.309Z</time></trkpt><trkpt lat="44.9294825" lon="7.3926072"><ele>299.1666666666667</ele><time>2026-05-03T15:16:48.309Z</time></trkpt><trkpt lat="44.9295386" lon="7.3925572"><ele>299.0</ele><time>2026-05-03T15:16:49.309Z</time></trkpt><trkpt lat="44.9295767" lon="7.392387"><ele>299.0</ele><time>2026-05-03T15:16:51.309Z</time></trkpt><trkpt lat="44.9295584" lon="7.3922642"><ele>299.0</ele><time>2026-05-03T15:16:52.309Z</time></trkpt><trkpt lat="44.9295305" lon="7.3921087"><ele>299.0</ele><time>2026-05-03T15:16:53.308Z</time></trkpt><trkpt lat="44.9295036" lon="7.3919378"><ele>299.0</ele><time>2026-05-03T15:16:54.308Z</time></trkpt><trkpt lat="44.9294739" lon="7.3917699"><ele>299.0</ele><time>2026-05-03T15:16:55.309Z</time></trkpt><trkpt lat="44.9294473" lon="7.391627"><ele>299.0</ele><time>2026-05-03T15:16:56.308Z</time></trkpt><trkpt lat="44.9294223" lon="7.3915068"><ele>299.0</ele><time>2026-05-03T15:16:57.31Z</time></trkpt><trkpt lat="44.9294108" lon="7.3914084"><ele>299.0</ele><time>2026-05-03T15:16:58.31Z</time></trkpt><trkpt lat="44.9294356" lon="7.3913255"><ele>299.0</ele><time>2026-05-03T15:16:59.311Z</time></trkpt><trkpt lat="44.9294904" lon="7.3912608"><ele>299.0</ele><time>2026-05-03T15:17:00.31Z</time></trkpt><trkpt lat="44.9295543" lon="7.3912179"><ele>299.0</ele><time>2026-05-03T15:17:01.308Z</time></trkpt><trkpt lat="44.9296051" lon="7.3911616"><ele>299.0</ele><time>2026-05-03T15:17:02.309Z</time></trkpt><trkpt lat="44.9296376" lon="7.3910779"><ele>299.1666666666667</ele><time>2026-05-03T15:17:03.31Z</time></trkpt><trkpt lat="44.9296554" lon="7.3909792"><ele>299.33333333333337</ele><time>2026-05-03T15:17:04.308Z</time></trkpt><trkpt lat="44.9296711" lon="7.3908839"><ele>299.5</ele><time>2026-05-03T15:17:05.309Z</time></trkpt><trkpt lat="44.9297348" lon="7.390815"><ele>299.6666666666667</ele><time>2026-05-03T15:17:07.308Z</time></trkpt><trkpt lat="44.9297037" lon="7.3907102"><ele>299.8333333333333</ele><time>2026-05-03T15:17:10.309Z</time></trkpt><trkpt lat="44.9296184" lon="7.3905771"><ele>300.0</ele><time>2026-05-03T15:17:12.308Z</time></trkpt><trkpt lat="44.9295372" lon="7.390488"><ele>300.5</ele><time>2026-05-03T15:17:13.309Z</time></trkpt><trkpt lat="44.9294368" lon="7.3903961"><ele>301.0</ele><time>2026-05-03T15:17:14.309Z</time></trkpt><trkpt lat="44.9293451" lon="7.3902953"><ele>301.5</ele><time>2026-05-03T15:17:15.31Z</time></trkpt><trkpt lat="44.9292575" lon="7.3901963"><ele>302.0</ele><time>2026-05-03T15:17:16.308Z</time></trkpt><trkpt lat="44.9291741" lon="7.3900829"><ele>302.0</ele><time>2026-05-03T15:17:17.309Z</time></trkpt><trkpt lat="44.9290995" lon="7.3899749"><ele>302.0</ele><time>2026-05-03T15:17:18.309Z</time></trkpt><trkpt lat="44.9290373" lon="7.3898524"><ele>302.0</ele><time>2026-05-03T15:17:19.31Z</time></trkpt><trkpt lat="44.9289915" lon="7.3897164"><ele>302.0</ele><time>2026-05-03T15:17:20.309Z</time></trkpt><trkpt lat="44.9289589" lon="7.389549"><ele>302.0</ele><time>2026-05-03T15:17:21.31Z</time></trkpt><trkpt lat="44.9289258" lon="7.3893691"><ele>302.2</ele><time>2026-05-03T15:17:22.309Z</time></trkpt><trkpt lat="44.9288959" lon="7.3891993"><ele>302.4</ele><time>2026-05-03T15:17:23.309Z</time></trkpt><trkpt lat="44.9288665" lon="7.389038"><ele>302.6</ele><time>2026-05-03T15:17:24.309Z</time></trkpt><trkpt lat="44.9288422" lon="7.3889013"><ele>302.8</ele><time>2026-05-03T15:17:25.309Z</time></trkpt><trkpt lat="44.9288205" lon="7.3887716"><ele>303.0</ele><time>2026-05-03T15:17:26.309Z</time></trkpt><trkpt lat="44.9287997" lon="7.3886508"><ele>303.5</ele><time>2026-05-03T15:17:27.31Z</time></trkpt><trkpt lat="44.9287814" lon="7.3885297"><ele>304.0</ele><time>2026-05-03T15:17:28.309Z</time></trkpt><trkpt lat="44.9287638" lon="7.3884046"><ele>304.5</ele><time>2026-05-03T15:17:29.31Z</time></trkpt><trkpt lat="44.9287497" lon="7.3882752"><ele>305.0</ele><time>2026-05-03T15:17:30.311Z</time></trkpt><trkpt lat="44.9287409" lon="7.3881474"><ele>305.5</ele><time>2026-05-03T15:17:31.31Z</time></trkpt><trkpt lat="44.9287316" lon="7.3880271"><ele>306.0</ele><time>2026-05-03T15:17:32.309Z</time></trkpt><trkpt lat="44.9287237" lon="7.3879138"><ele>306.5</ele><time>2026-05-03T15:17:33.309Z</time></trkpt><trkpt lat="44.9287163" lon="7.3877985"><ele>307.0</ele><time>2026-05-03T15:17:34.309Z</time></trkpt><trkpt lat="44.9287152" lon="7.387683"><ele>307.5</ele><time>2026-05-03T15:17:35.309Z</time></trkpt><trkpt lat="44.9287123" lon="7.3875632"><ele>308.0</ele><time>2026-05-03T15:17:36.31Z</time></trkpt><trkpt lat="44.928707" lon="7.3874416"><ele>308.5</ele><time>2026-05-03T15:17:37.308Z</time></trkpt><trkpt lat="44.928703" lon="7.3873246"><ele>309.0</ele><time>2026-05-03T15:17:38.309Z</time></trkpt><trkpt lat="44.928693" lon="7.3872059"><ele>308.6666666666667</ele><time>2026-05-03T15:17:39.309Z</time></trkpt><trkpt lat="44.9286809" lon="7.3870947"><ele>308.3333333333333</ele><time>2026-05-03T15:17:40.309Z</time></trkpt><trkpt lat="44.9286732" lon="7.3869885"><ele>308.0</ele><time>2026-05-03T15:17:41.31Z</time></trkpt><trkpt lat="44.9286622" lon="7.3868838"><ele>307.66666666666663</ele><time>2026-05-03T15:17:42.308Z</time></trkpt><trkpt lat="44.9286499" lon="7.3867767"><ele>307.3333333333333</ele><time>2026-05-03T15:17:43.311Z</time></trkpt><trkpt lat="44.9286436" lon="7.3866789"><ele>307.0</ele><time>2026-05-03T15:17:44.309Z</time></trkpt><trkpt lat="44.9286316" lon="7.3865757"><ele>307.0</ele><time>2026-05-03T15:17:45.308Z</time></trkpt><trkpt lat="44.9286217" lon="7.3864731"><ele>307.0</ele><time>2026-05-03T15:17:46.309Z</time></trkpt><trkpt lat="44.9286139" lon="7.3863687"><ele>307.0</ele><time>2026-05-03T15:17:47.31Z</time></trkpt><trkpt lat="44.9286054" lon="7.3862559"><ele>307.0</ele><time>2026-05-03T15:17:48.309Z</time></trkpt><trkpt lat="44.9285906" lon="7.3861424"><ele>307.0</ele><time>2026-05-03T15:17:49.31Z</time></trkpt><trkpt lat="44.9285709" lon="7.3860279"><ele>307.0</ele><time>2026-05-03T15:17:50.309Z</time></trkpt><trkpt lat="44.9285481" lon="7.3859122"><ele>307.0</ele><time>2026-05-03T15:17:51.308Z</time></trkpt><trkpt lat="44.9285222" lon="7.3857996"><ele>307.0</ele><time>2026-05-03T15:17:52.309Z</time></trkpt><trkpt lat="44.9284944" lon="7.3856869"><ele>307.0</ele><time>2026-05-03T15:17:53.309Z</time></trkpt><trkpt lat="44.9284694" lon="7.3855746"><ele>307.0</ele><time>2026-05-03T15:17:54.308Z</time></trkpt><trkpt lat="44.9284398" lon="7.3854577"><ele>307.0</ele><time>2026-05-03T15:17:55.309Z</time></trkpt><trkpt lat="44.9284099" lon="7.3853373"><ele>307.0</ele><time>2026-05-03T15:17:56.31Z</time></trkpt><trkpt lat="44.9283841" lon="7.3852098"><ele>307.0</ele><time>2026-05-03T15:17:57.31Z</time></trkpt><trkpt lat="44.9283555" lon="7.3850825"><ele>307.0</ele><time>2026-05-03T15:17:58.311Z</time></trkpt><trkpt lat="44.9283273" lon="7.3849571"><ele>307.0</ele><time>2026-05-03T15:17:59.31Z</time></trkpt><trkpt lat="44.9282987" lon="7.3848378"><ele>307.0</ele><time>2026-05-03T15:18:00.309Z</time></trkpt><trkpt lat="44.9282711" lon="7.3847242"><ele>307.0</ele><time>2026-05-03T15:18:01.31Z</time></trkpt><trkpt lat="44.9282476" lon="7.3846231"><ele>307.0</ele><time>2026-05-03T15:18:02.309Z</time></trkpt><trkpt lat="44.9282361" lon="7.3845277"><ele>307.16666666666663</ele><time>2026-05-03T15:18:03.309Z</time></trkpt><trkpt lat="44.9282353" lon="7.3844328"><ele>307.3333333333333</ele><time>2026-05-03T15:18:04.308Z</time></trkpt><trkpt lat="44.9282431" lon="7.3843308"><ele>307.5</ele><time>2026-05-03T15:18:05.309Z</time></trkpt><trkpt lat="44.9282605" lon="7.3842194"><ele>307.6666666666667</ele><time>2026-05-03T15:18:06.309Z</time></trkpt><trkpt lat="44.9282791" lon="7.3841027"><ele>307.83333333333337</ele><time>2026-05-03T15:18:07.308Z</time></trkpt><trkpt lat="44.9282944" lon="7.3839813"><ele>308.0</ele><time>2026-05-03T15:18:08.31Z</time></trkpt><trkpt lat="44.9283111" lon="7.3838592"><ele>308.0</ele><time>2026-05-03T15:18:09.309Z</time></trkpt><trkpt lat="44.928328" lon="7.3837318"><ele>308.0</ele><time>2026-05-03T15:18:10.308Z</time></trkpt><trkpt lat="44.9283498" lon="7.3835966"><ele>308.0</ele><time>2026-05-03T15:18:11.309Z</time></trkpt><trkpt lat="44.9283748" lon="7.3834573"><ele>308.0</ele><time>2026-05-03T15:18:12.31Z</time></trkpt><trkpt lat="44.9283996" lon="7.3833122"><ele>308.0</ele><time>2026-05-03T15:18:13.31Z</time></trkpt><trkpt lat="44.9284227" lon="7.3831681"><ele>308.2</ele><time>2026-05-03T15:18:14.31Z</time></trkpt><trkpt lat="44.9284475" lon="7.3830262"><ele>308.4</ele><time>2026-05-03T15:18:15.308Z</time></trkpt><trkpt lat="44.9284718" lon="7.3828828"><ele>308.59999999999997</ele><time>2026-05-03T15:18:16.311Z</time></trkpt><trkpt lat="44.9284994" lon="7.3827455"><ele>308.8</ele><time>2026-05-03T15:18:17.308Z</time></trkpt><trkpt lat="44.9285215" lon="7.3826044"><ele>309.0</ele><time>2026-05-03T15:18:18.31Z</time></trkpt><trkpt lat="44.9285483" lon="7.3824616"><ele>309.59999999999997</ele><time>2026-05-03T15:18:19.311Z</time></trkpt><trkpt lat="44.928575" lon="7.3823153"><ele>310.2</ele><time>2026-05-03T15:18:20.309Z</time></trkpt><trkpt lat="44.9286" lon="7.3821665"><ele>310.79999999999995</ele><time>2026-05-03T15:18:21.309Z</time></trkpt><trkpt lat="44.9286303" lon="7.3820126"><ele>311.4</ele><time>2026-05-03T15:18:22.309Z</time></trkpt><trkpt lat="44.9286565" lon="7.3818629"><ele>312.0</ele><time>2026-05-03T15:18:23.31Z</time></trkpt><trkpt lat="44.9286834" lon="7.3817191"><ele>312.2</ele><time>2026-05-03T15:18:24.308Z</time></trkpt><trkpt lat="44.9287147" lon="7.3815772"><ele>312.4</ele><time>2026-05-03T15:18:25.308Z</time></trkpt><trkpt lat="44.9287353" lon="7.3814436"><ele>312.6</ele><time>2026-05-03T15:18:26.308Z</time></trkpt><trkpt lat="44.9287629" lon="7.3813058"><ele>312.8</ele><time>2026-05-03T15:18:27.308Z</time></trkpt><trkpt lat="44.9287896" lon="7.3811738"><ele>313.0</ele><time>2026-05-03T15:18:28.309Z</time></trkpt><trkpt lat="44.9288144" lon="7.381059"><ele>312.66666666666663</ele><time>2026-05-03T15:18:29.309Z</time></trkpt><trkpt lat="44.9288366" lon="7.3809622"><ele>312.3333333333333</ele><time>2026-05-03T15:18:30.308Z</time></trkpt><trkpt lat="44.9288579" lon="7.3808669"><ele>312.0</ele><time>2026-05-03T15:18:31.309Z</time></trkpt><trkpt lat="44.9289069" lon="7.3806828"><ele>311.6666666666667</ele><time>2026-05-03T15:18:33.309Z</time></trkpt><trkpt lat="44.9289307" lon="7.3805753"><ele>311.33333333333337</ele><time>2026-05-03T15:18:34.309Z</time></trkpt><trkpt lat="44.9289618" lon="7.380463"><ele>311.0</ele><time>2026-05-03T15:18:35.309Z</time></trkpt><trkpt lat="44.9289943" lon="7.3803409"><ele>311.0</ele><time>2026-05-03T15:18:36.309Z</time></trkpt><trkpt lat="44.9290284" lon="7.3802232"><ele>311.0</ele><time>2026-05-03T15:18:37.309Z</time></trkpt><trkpt lat="44.929068" lon="7.380094"><ele>311.0</ele><time>2026-05-03T15:18:38.308Z</time></trkpt><trkpt lat="44.9291115" lon="7.3799646"><ele>311.0</ele><time>2026-05-03T15:18:39.309Z</time></trkpt><trkpt lat="44.9291488" lon="7.3798302"><ele>311.0</ele><time>2026-05-03T15:18:40.309Z</time></trkpt><trkpt lat="44.9291768" lon="7.3796933"><ele>311.6</ele><time>2026-05-03T15:18:41.309Z</time></trkpt><trkpt lat="44.9292016" lon="7.379558"><ele>312.20000000000005</ele><time>2026-05-03T15:18:42.308Z</time></trkpt><trkpt lat="44.9292134" lon="7.3794063"><ele>312.79999999999995</ele><time>2026-05-03T15:18:43.311Z</time></trkpt><trkpt lat="44.9292253" lon="7.3792457"><ele>313.4</ele><time>2026-05-03T15:18:44.31Z</time></trkpt><trkpt lat="44.9292403" lon="7.3790898"><ele>314.0</ele><time>2026-05-03T15:18:45.31Z</time></trkpt><trkpt lat="44.9292575" lon="7.3789269"><ele>314.59999999999997</ele><time>2026-05-03T15:18:46.308Z</time></trkpt><trkpt lat="44.9292701" lon="7.3787681"><ele>315.2</ele><time>2026-05-03T15:18:47.31Z</time></trkpt><trkpt lat="44.9292833" lon="7.3786137"><ele>315.79999999999995</ele><time>2026-05-03T15:18:48.309Z</time></trkpt><trkpt lat="44.9292917" lon="7.3784656"><ele>316.4</ele><time>2026-05-03T15:18:49.308Z</time></trkpt><trkpt lat="44.9292907" lon="7.3783141"><ele>317.0</ele><time>2026-05-03T15:18:50.309Z</time></trkpt><trkpt lat="44.9292804" lon="7.3781609"><ele>316.25</ele><time>2026-05-03T15:18:51.308Z</time></trkpt><trkpt lat="44.9292628" lon="7.3779949"><ele>315.5</ele><time>2026-05-03T15:18:52.309Z</time></trkpt><trkpt lat="44.9292426" lon="7.3778283"><ele>314.75</ele><time>2026-05-03T15:18:53.308Z</time></trkpt><trkpt lat="44.9292263" lon="7.3776488"><ele>314.0</ele><time>2026-05-03T15:18:54.31Z</time></trkpt><trkpt lat="44.9291914" lon="7.3774811"><ele>314.0</ele><time>2026-05-03T15:18:55.309Z</time></trkpt><trkpt lat="44.9291603" lon="7.3773243"><ele>314.0</ele><time>2026-05-03T15:18:56.31Z</time></trkpt><trkpt lat="44.9291322" lon="7.3771664"><ele>314.0</ele><time>2026-05-03T15:18:57.308Z</time></trkpt><trkpt lat="44.9291035" lon="7.3770089"><ele>314.0</ele><time>2026-05-03T15:18:58.31Z</time></trkpt><trkpt lat="44.9290733" lon="7.3768436"><ele>314.0</ele><time>2026-05-03T15:18:59.308Z</time></trkpt><trkpt lat="44.9290399" lon="7.3766874"><ele>314.0</ele><time>2026-05-03T15:19:00.309Z</time></trkpt><trkpt lat="44.9290105" lon="7.3765326"><ele>314.0</ele><time>2026-05-03T15:19:01.309Z</time></trkpt><trkpt lat="44.9289762" lon="7.3763794"><ele>314.0</ele><time>2026-05-03T15:19:02.31Z</time></trkpt><trkpt lat="44.9289527" lon="7.3762378"><ele>314.0</ele><time>2026-05-03T15:19:03.308Z</time></trkpt><trkpt lat="44.9289208" lon="7.3760987"><ele>314.0</ele><time>2026-05-03T15:19:04.31Z</time></trkpt><trkpt lat="44.9288928" lon="7.3759697"><ele>314.0</ele><time>2026-05-03T15:19:05.31Z</time></trkpt><trkpt lat="44.9288628" lon="7.3758331"><ele>314.0</ele><time>2026-05-03T15:19:06.31Z</time></trkpt><trkpt lat="44.9288404" lon="7.3757146"><ele>314.0</ele><time>2026-05-03T15:19:07.309Z</time></trkpt><trkpt lat="44.9288176" lon="7.3755959"><ele>314.0</ele><time>2026-05-03T15:19:08.308Z</time></trkpt><trkpt lat="44.928793" lon="7.3754702"><ele>314.33333333333337</ele><time>2026-05-03T15:19:09.309Z</time></trkpt><trkpt lat="44.9287611" lon="7.375355"><ele>314.6666666666667</ele><time>2026-05-03T15:19:10.309Z</time></trkpt><trkpt lat="44.9287354" lon="7.3752413"><ele>315.0</ele><time>2026-05-03T15:19:11.308Z</time></trkpt><trkpt lat="44.9287218" lon="7.3751255"><ele>315.3333333333333</ele><time>2026-05-03T15:19:12.308Z</time></trkpt><trkpt lat="44.9287217" lon="7.375004"><ele>315.66666666666663</ele><time>2026-05-03T15:19:13.309Z</time></trkpt><trkpt lat="44.928746" lon="7.3748787"><ele>316.0</ele><time>2026-05-03T15:19:14.308Z</time></trkpt><trkpt lat="44.9287818" lon="7.3747466"><ele>316.40000000000003</ele><time>2026-05-03T15:19:15.31Z</time></trkpt><trkpt lat="44.9288072" lon="7.3746085"><ele>316.8</ele><time>2026-05-03T15:19:16.309Z</time></trkpt><trkpt lat="44.9288285" lon="7.3744616"><ele>317.20000000000005</ele><time>2026-05-03T15:19:17.309Z</time></trkpt><trkpt lat="44.9288426" lon="7.3743215"><ele>317.6</ele><time>2026-05-03T15:19:18.308Z</time></trkpt><trkpt lat="44.9288453" lon="7.3741582"><ele>318.0</ele><time>2026-05-03T15:19:19.31Z</time></trkpt><trkpt lat="44.9288423" lon="7.3740009"><ele>318.4</ele><time>2026-05-03T15:19:20.309Z</time></trkpt><trkpt lat="44.9288364" lon="7.3738501"><ele>318.8</ele><time>2026-05-03T15:19:21.308Z</time></trkpt><trkpt lat="44.9288304" lon="7.373714"><ele>319.2</ele><time>2026-05-03T15:19:22.309Z</time></trkpt><trkpt lat="44.9288319" lon="7.3735598"><ele>319.6</ele><time>2026-05-03T15:19:23.309Z</time></trkpt><trkpt lat="44.9288338" lon="7.3734154"><ele>320.0</ele><time>2026-05-03T15:19:24.308Z</time></trkpt><trkpt lat="44.9288398" lon="7.37326"><ele>320.0</ele><time>2026-05-03T15:19:25.31Z</time></trkpt><trkpt lat="44.9288484" lon="7.3731045"><ele>320.0</ele><time>2026-05-03T15:19:26.309Z</time></trkpt><trkpt lat="44.9288585" lon="7.3729693"><ele>320.0</ele><time>2026-05-03T15:19:27.308Z</time></trkpt><trkpt lat="44.9288573" lon="7.3728273"><ele>320.0</ele><time>2026-05-03T15:19:28.309Z</time></trkpt><trkpt lat="44.9288544" lon="7.3726814"><ele>320.0</ele><time>2026-05-03T15:19:29.309Z</time></trkpt><trkpt lat="44.9288564" lon="7.3725722"><ele>319.85714285714283</ele><time>2026-05-03T15:19:30.308Z</time></trkpt><trkpt lat="44.9288589" lon="7.3724756"><ele>319.7142857142857</ele><time>2026-05-03T15:19:31.309Z</time></trkpt><trkpt lat="44.9288595" lon="7.3723866"><ele>319.57142857142856</ele><time>2026-05-03T15:19:32.308Z</time></trkpt><trkpt lat="44.9288607" lon="7.3722864"><ele>319.42857142857144</ele><time>2026-05-03T15:19:33.31Z</time></trkpt><trkpt lat="44.9288568" lon="7.3721855"><ele>319.2857142857143</ele><time>2026-05-03T15:19:34.31Z</time></trkpt><trkpt lat="44.9288397" lon="7.3720859"><ele>319.14285714285717</ele><time>2026-05-03T15:19:35.31Z</time></trkpt><trkpt lat="44.9288034" lon="7.3719975"><ele>319.0</ele><time>2026-05-03T15:19:36.308Z</time></trkpt><trkpt lat="44.928755" lon="7.3719029"><ele>319.0</ele><time>2026-05-03T15:19:37.308Z</time></trkpt><trkpt lat="44.9286919" lon="7.3718241"><ele>319.0</ele><time>2026-05-03T15:19:38.31Z</time></trkpt><trkpt lat="44.9286158" lon="7.3717542"><ele>319.0</ele><time>2026-05-03T15:19:39.308Z</time></trkpt><trkpt lat="44.9285354" lon="7.371693"><ele>319.0</ele><time>2026-05-03T15:19:40.309Z</time></trkpt><trkpt lat="44.9284565" lon="7.3716272"><ele>319.0</ele><time>2026-05-03T15:19:41.31Z</time></trkpt><trkpt lat="44.9283941" lon="7.3715526"><ele>319.0</ele><time>2026-05-03T15:19:42.308Z</time></trkpt><trkpt lat="44.9283472" lon="7.3714463"><ele>319.6</ele><time>2026-05-03T15:19:43.308Z</time></trkpt><trkpt lat="44.928313" lon="7.3713146"><ele>320.2</ele><time>2026-05-03T15:19:44.308Z</time></trkpt><trkpt lat="44.9282946" lon="7.3711683"><ele>320.8</ele><time>2026-05-03T15:19:45.308Z</time></trkpt><trkpt lat="44.9282862" lon="7.3710191"><ele>321.40000000000003</ele><time>2026-05-03T15:19:46.308Z</time></trkpt><trkpt lat="44.9282813" lon="7.3708752"><ele>322.0</ele><time>2026-05-03T15:19:47.308Z</time></trkpt><trkpt lat="44.928273" lon="7.3707417"><ele>322.0</ele><time>2026-05-03T15:19:48.308Z</time></trkpt><trkpt lat="44.928266" lon="7.3706049"><ele>322.0</ele><time>2026-05-03T15:19:49.308Z</time></trkpt><trkpt lat="44.9282616" lon="7.3704593"><ele>322.0</ele><time>2026-05-03T15:19:50.31Z</time></trkpt><trkpt lat="44.9282603" lon="7.3703145"><ele>322.0</ele><time>2026-05-03T15:19:51.309Z</time></trkpt><trkpt lat="44.9282578" lon="7.3701675"><ele>322.0</ele><time>2026-05-03T15:19:52.309Z</time></trkpt><trkpt lat="44.9282582" lon="7.3700216"><ele>322.20000000000005</ele><time>2026-05-03T15:19:53.31Z</time></trkpt><trkpt lat="44.9282602" lon="7.3698731"><ele>322.4</ele><time>2026-05-03T15:19:54.308Z</time></trkpt><trkpt lat="44.928253" lon="7.369727"><ele>322.6</ele><time>2026-05-03T15:19:55.309Z</time></trkpt><trkpt lat="44.9282583" lon="7.3695926"><ele>322.79999999999995</ele><time>2026-05-03T15:19:56.308Z</time></trkpt><trkpt lat="44.9282634" lon="7.36947"><ele>323.0</ele><time>2026-05-03T15:19:57.308Z</time></trkpt><trkpt lat="44.928278" lon="7.3693574"><ele>323.0</ele><time>2026-05-03T15:19:58.309Z</time></trkpt><trkpt lat="44.928299" lon="7.3692597"><ele>323.0</ele><time>2026-05-03T15:19:59.309Z</time></trkpt><trkpt lat="44.9283417" lon="7.369145"><ele>323.0</ele><time>2026-05-03T15:20:01.309Z</time></trkpt><trkpt lat="44.9284132" lon="7.3690484"><ele>323.0</ele><time>2026-05-03T15:20:08.308Z</time></trkpt><trkpt lat="44.9284815" lon="7.3689309"><ele>323.0</ele><time>2026-05-03T15:20:10.308Z</time></trkpt><trkpt lat="44.9284502" lon="7.3687892"><ele>323.75</ele><time>2026-05-03T15:20:12.309Z</time></trkpt><trkpt lat="44.9283188" lon="7.3687324"><ele>324.5</ele><time>2026-05-03T15:20:14.308Z</time></trkpt><trkpt lat="44.9282182" lon="7.3687296"><ele>325.25</ele><time>2026-05-03T15:20:15.308Z</time></trkpt><trkpt lat="44.9280875" lon="7.3686981"><ele>326.0</ele><time>2026-05-03T15:20:16.308Z</time></trkpt><trkpt lat="44.9279482" lon="7.3686476"><ele>326.0</ele><time>2026-05-03T15:20:17.309Z</time></trkpt><trkpt lat="44.9277866" lon="7.3685843"><ele>326.0</ele><time>2026-05-03T15:20:18.309Z</time></trkpt><trkpt lat="44.927624" lon="7.3685234"><ele>326.0</ele><time>2026-05-03T15:20:19.308Z</time></trkpt><trkpt lat="44.9274483" lon="7.3684509"><ele>326.0</ele><time>2026-05-03T15:20:20.309Z</time></trkpt><trkpt lat="44.9272794" lon="7.3683848"><ele>326.0</ele><time>2026-05-03T15:20:21.308Z</time></trkpt><trkpt lat="44.9271218" lon="7.3683245"><ele>326.0</ele><time>2026-05-03T15:20:22.309Z</time></trkpt><trkpt lat="44.9269651" lon="7.3682664"><ele>326.0</ele><time>2026-05-03T15:20:23.308Z</time></trkpt><trkpt lat="44.9268078" lon="7.3681971"><ele>326.0</ele><time>2026-05-03T15:20:24.309Z</time></trkpt><trkpt lat="44.9266555" lon="7.368135"><ele>326.0</ele><time>2026-05-03T15:20:25.308Z</time></trkpt><trkpt lat="44.9265017" lon="7.3680647"><ele>325.75</ele><time>2026-05-03T15:20:26.309Z</time></trkpt><trkpt lat="44.9263619" lon="7.3680008"><ele>325.5</ele><time>2026-05-03T15:20:27.309Z</time></trkpt><trkpt lat="44.9262336" lon="7.3679382"><ele>325.25</ele><time>2026-05-03T15:20:28.307Z</time></trkpt><trkpt lat="44.9261194" lon="7.3678599"><ele>325.0</ele><time>2026-05-03T15:20:29.308Z</time></trkpt><trkpt lat="44.9260181" lon="7.3677702"><ele>325.0</ele><time>2026-05-03T15:20:30.308Z</time></trkpt><trkpt lat="44.9259325" lon="7.3676779"><ele>325.0</ele><time>2026-05-03T15:20:31.31Z</time></trkpt><trkpt lat="44.9258724" lon="7.367566"><ele>325.0</ele><time>2026-05-03T15:20:32.309Z</time></trkpt><trkpt lat="44.9258143" lon="7.3674768"><ele>325.0</ele><time>2026-05-03T15:20:33.308Z</time></trkpt><trkpt lat="44.9257502" lon="7.3674177"><ele>325.0</ele><time>2026-05-03T15:20:34.308Z</time></trkpt><trkpt lat="44.9256877" lon="7.3673888"><ele>325.0</ele><time>2026-05-03T15:20:35.31Z</time></trkpt><trkpt lat="44.9255663" lon="7.3674087"><ele>325.0</ele><time>2026-05-03T15:20:37.309Z</time></trkpt><trkpt lat="44.9255025" lon="7.3674411"><ele>325.0</ele><time>2026-05-03T15:20:38.308Z</time></trkpt><trkpt lat="44.9254365" lon="7.3674692"><ele>325.0</ele><time>2026-05-03T15:20:39.309Z</time></trkpt><trkpt lat="44.9253651" lon="7.3674915"><ele>325.0</ele><time>2026-05-03T15:20:40.309Z</time></trkpt><trkpt lat="44.9252884" lon="7.3674986"><ele>325.0</ele><time>2026-05-03T15:20:41.308Z</time></trkpt><trkpt lat="44.9252112" lon="7.3674904"><ele>325.0</ele><time>2026-05-03T15:20:42.31Z</time></trkpt><trkpt lat="44.9251339" lon="7.3674763"><ele>325.0</ele><time>2026-05-03T15:20:43.31Z</time></trkpt><trkpt lat="44.9250512" lon="7.3674615"><ele>325.4</ele><time>2026-05-03T15:20:44.308Z</time></trkpt><trkpt lat="44.9249658" lon="7.3674472"><ele>325.8</ele><time>2026-05-03T15:20:45.308Z</time></trkpt><trkpt lat="44.9248774" lon="7.3674304"><ele>326.20000000000005</ele><time>2026-05-03T15:20:46.308Z</time></trkpt><trkpt lat="44.9248144" lon="7.3674167"><ele>326.6</ele><time>2026-05-03T15:20:47.309Z</time></trkpt><trkpt lat="44.9247127" lon="7.3673785"><ele>327.0</ele><time>2026-05-03T15:20:49.308Z</time></trkpt><trkpt lat="44.9245905" lon="7.3673192"><ele>327.0</ele><time>2026-05-03T15:20:51.309Z</time></trkpt><trkpt lat="44.9244893" lon="7.3672819"><ele>327.0</ele><time>2026-05-03T15:20:52.308Z</time></trkpt><trkpt lat="44.9243593" lon="7.3672353"><ele>327.0</ele><time>2026-05-03T15:20:53.309Z</time></trkpt><trkpt lat="44.9242047" lon="7.3671722"><ele>327.0</ele><time>2026-05-03T15:20:54.307Z</time></trkpt><trkpt lat="44.9240349" lon="7.3671019"><ele>326.3333333333333</ele><time>2026-05-03T15:20:55.308Z</time></trkpt><trkpt lat="44.9238626" lon="7.3670298"><ele>325.66666666666663</ele><time>2026-05-03T15:20:56.308Z</time></trkpt><trkpt lat="44.9236944" lon="7.3669623"><ele>325.0</ele><time>2026-05-03T15:20:57.309Z</time></trkpt><trkpt lat="44.9235394" lon="7.3669067"><ele>325.66666666666663</ele><time>2026-05-03T15:20:58.309Z</time></trkpt><trkpt lat="44.9233918" lon="7.3668503"><ele>326.3333333333333</ele><time>2026-05-03T15:20:59.309Z</time></trkpt><trkpt lat="44.9232467" lon="7.3667782"><ele>327.0</ele><time>2026-05-03T15:21:00.309Z</time></trkpt><trkpt lat="44.9230932" lon="7.3667182"><ele>327.0</ele><time>2026-05-03T15:21:01.309Z</time></trkpt><trkpt lat="44.9229401" lon="7.3666591"><ele>327.0</ele><time>2026-05-03T15:21:02.308Z</time></trkpt><trkpt lat="44.9227908" lon="7.3665953"><ele>327.0</ele><time>2026-05-03T15:21:03.308Z</time></trkpt><trkpt lat="44.9226323" lon="7.3665327"><ele>327.0</ele><time>2026-05-03T15:21:04.307Z</time></trkpt><trkpt lat="44.9224752" lon="7.3664626"><ele>327.0</ele><time>2026-05-03T15:21:05.309Z</time></trkpt><trkpt lat="44.9223114" lon="7.3664001"><ele>327.0</ele><time>2026-05-03T15:21:06.308Z</time></trkpt><trkpt lat="44.9221586" lon="7.3663403"><ele>326.6666666666667</ele><time>2026-05-03T15:21:07.309Z</time></trkpt><trkpt lat="44.9220089" lon="7.3662814"><ele>326.33333333333337</ele><time>2026-05-03T15:21:08.308Z</time></trkpt><trkpt lat="44.9218651" lon="7.3662239"><ele>326.0</ele><time>2026-05-03T15:21:09.307Z</time></trkpt><trkpt lat="44.9217162" lon="7.3661663"><ele>325.33333333333337</ele><time>2026-05-03T15:21:10.309Z</time></trkpt><trkpt lat="44.9215643" lon="7.3661064"><ele>324.6666666666667</ele><time>2026-05-03T15:21:11.31Z</time></trkpt><trkpt lat="44.9214061" lon="7.3660419"><ele>324.0</ele><time>2026-05-03T15:21:12.308Z</time></trkpt><trkpt lat="44.9212464" lon="7.3659687"><ele>324.0</ele><time>2026-05-03T15:21:13.309Z</time></trkpt><trkpt lat="44.9210847" lon="7.3659039"><ele>324.0</ele><time>2026-05-03T15:21:14.309Z</time></trkpt><trkpt lat="44.9209315" lon="7.3658413"><ele>324.0</ele><time>2026-05-03T15:21:15.308Z</time></trkpt><trkpt lat="44.9207744" lon="7.3657828"><ele>324.0</ele><time>2026-05-03T15:21:16.308Z</time></trkpt><trkpt lat="44.9206146" lon="7.3657265"><ele>324.0</ele><time>2026-05-03T15:21:17.309Z</time></trkpt><trkpt lat="44.9204558" lon="7.3656625"><ele>324.0</ele><time>2026-05-03T15:21:18.309Z</time></trkpt><trkpt lat="44.9203022" lon="7.3656013"><ele>324.0</ele><time>2026-05-03T15:21:19.309Z</time></trkpt><trkpt lat="44.9201492" lon="7.3655438"><ele>324.0</ele><time>2026-05-03T15:21:20.308Z</time></trkpt><trkpt lat="44.9199978" lon="7.3654899"><ele>324.0</ele><time>2026-05-03T15:21:21.309Z</time></trkpt><trkpt lat="44.919849" lon="7.3654321"><ele>324.5</ele><time>2026-05-03T15:21:22.309Z</time></trkpt><trkpt lat="44.9197088" lon="7.365379"><ele>325.0</ele><time>2026-05-03T15:21:23.308Z</time></trkpt><trkpt lat="44.9195764" lon="7.3653242"><ele>325.5</ele><time>2026-05-03T15:21:24.308Z</time></trkpt><trkpt lat="44.9194419" lon="7.3652679"><ele>326.0</ele><time>2026-05-03T15:21:25.309Z</time></trkpt><trkpt lat="44.9193122" lon="7.3652089"><ele>326.25</ele><time>2026-05-03T15:21:26.307Z</time></trkpt><trkpt lat="44.9191864" lon="7.3651609"><ele>326.5</ele><time>2026-05-03T15:21:27.309Z</time></trkpt><trkpt lat="44.9190697" lon="7.3651061"><ele>326.75</ele><time>2026-05-03T15:21:28.308Z</time></trkpt><trkpt lat="44.9189646" lon="7.3650658"><ele>327.0</ele><time>2026-05-03T15:21:29.308Z</time></trkpt><trkpt lat="44.9188666" lon="7.3650242"><ele>327.0</ele><time>2026-05-03T15:21:30.309Z</time></trkpt><trkpt lat="44.9187823" lon="7.3649809"><ele>327.0</ele><time>2026-05-03T15:21:31.308Z</time></trkpt><trkpt lat="44.9187044" lon="7.3649025"><ele>327.0</ele><time>2026-05-03T15:21:32.308Z</time></trkpt><trkpt lat="44.91865" lon="7.3648134"><ele>327.0</ele><time>2026-05-03T15:21:33.307Z</time></trkpt><trkpt lat="44.9186085" lon="7.3647182"><ele>327.0</ele><time>2026-05-03T15:21:34.31Z</time></trkpt><trkpt lat="44.9185892" lon="7.3646013"><ele>327.0</ele><time>2026-05-03T15:21:35.309Z</time></trkpt><trkpt lat="44.9185856" lon="7.3644677"><ele>327.0</ele><time>2026-05-03T15:21:36.309Z</time></trkpt><trkpt lat="44.9185901" lon="7.3643201"><ele>327.0</ele><time>2026-05-03T15:21:37.307Z</time></trkpt><trkpt lat="44.9185958" lon="7.3641739"><ele>327.0</ele><time>2026-05-03T15:21:38.308Z</time></trkpt><trkpt lat="44.9185962" lon="7.3640333"><ele>327.0</ele><time>2026-05-03T15:21:39.309Z</time></trkpt><trkpt lat="44.918594" lon="7.3639037"><ele>327.0</ele><time>2026-05-03T15:21:40.308Z</time></trkpt><trkpt lat="44.9186004" lon="7.3637705"><ele>326.8333333333333</ele><time>2026-05-03T15:21:41.309Z</time></trkpt><trkpt lat="44.9186097" lon="7.3636365"><ele>326.6666666666667</ele><time>2026-05-03T15:21:42.308Z</time></trkpt><trkpt lat="44.9186245" lon="7.3635183"><ele>326.5</ele><time>2026-05-03T15:21:43.308Z</time></trkpt><trkpt lat="44.9186375" lon="7.3633929"><ele>326.33333333333337</ele><time>2026-05-03T15:21:44.308Z</time></trkpt><trkpt lat="44.9186536" lon="7.3632736"><ele>326.1666666666667</ele><time>2026-05-03T15:21:45.309Z</time></trkpt><trkpt lat="44.9186682" lon="7.3631603"><ele>326.0</ele><time>2026-05-03T15:21:46.307Z</time></trkpt><trkpt lat="44.9186851" lon="7.3630475"><ele>325.8</ele><time>2026-05-03T15:21:47.307Z</time></trkpt><trkpt lat="44.9186943" lon="7.3629221"><ele>325.6</ele><time>2026-05-03T15:21:48.308Z</time></trkpt><trkpt lat="44.9187056" lon="7.3627937"><ele>325.4</ele><time>2026-05-03T15:21:49.308Z</time></trkpt><trkpt lat="44.91873" lon="7.3626613"><ele>325.2</ele><time>2026-05-03T15:21:50.307Z</time></trkpt><trkpt lat="44.918751" lon="7.3625185"><ele>325.0</ele><time>2026-05-03T15:21:51.309Z</time></trkpt><trkpt lat="44.9187713" lon="7.3623639"><ele>325.0</ele><time>2026-05-03T15:21:52.308Z</time></trkpt><trkpt lat="44.9187864" lon="7.3622183"><ele>325.0</ele><time>2026-05-03T15:21:53.308Z</time></trkpt><trkpt lat="44.9188092" lon="7.3620711"><ele>325.0</ele><time>2026-05-03T15:21:54.307Z</time></trkpt><trkpt lat="44.9188206" lon="7.3619069"><ele>325.0</ele><time>2026-05-03T15:21:55.309Z</time></trkpt><trkpt lat="44.9188351" lon="7.3617366"><ele>325.0</ele><time>2026-05-03T15:21:56.31Z</time></trkpt><trkpt lat="44.918848" lon="7.3615677"><ele>325.0</ele><time>2026-05-03T15:21:57.308Z</time></trkpt><trkpt lat="44.9188659" lon="7.361406"><ele>325.0</ele><time>2026-05-03T15:21:58.309Z</time></trkpt><trkpt lat="44.9188825" lon="7.3612408"><ele>325.0</ele><time>2026-05-03T15:21:59.309Z</time></trkpt><trkpt lat="44.9189028" lon="7.3610807"><ele>325.0</ele><time>2026-05-03T15:22:00.31Z</time></trkpt><trkpt lat="44.9189212" lon="7.3609203"><ele>325.0</ele><time>2026-05-03T15:22:01.309Z</time></trkpt><trkpt lat="44.9189378" lon="7.3607552"><ele>325.0</ele><time>2026-05-03T15:22:02.307Z</time></trkpt><trkpt lat="44.9189557" lon="7.3605923"><ele>325.0</ele><time>2026-05-03T15:22:03.308Z</time></trkpt><trkpt lat="44.9189756" lon="7.3604421"><ele>325.0</ele><time>2026-05-03T15:22:04.309Z</time></trkpt><trkpt lat="44.9189944" lon="7.3602999"><ele>325.0</ele><time>2026-05-03T15:22:05.309Z</time></trkpt><trkpt lat="44.9190091" lon="7.3601658"><ele>325.3333333333333</ele><time>2026-05-03T15:22:06.308Z</time></trkpt><trkpt lat="44.9190263" lon="7.3600395"><ele>325.66666666666663</ele><time>2026-05-03T15:22:07.308Z</time></trkpt><trkpt lat="44.9190524" lon="7.3599276"><ele>326.0</ele><time>2026-05-03T15:22:08.308Z</time></trkpt><trkpt lat="44.9190719" lon="7.3598212"><ele>326.3333333333333</ele><time>2026-05-03T15:22:09.309Z</time></trkpt><trkpt lat="44.9190901" lon="7.3597222"><ele>326.6666666666667</ele><time>2026-05-03T15:22:10.307Z</time></trkpt><trkpt lat="44.9191345" lon="7.3595735"><ele>327.0</ele><time>2026-05-03T15:22:12.308Z</time></trkpt><trkpt lat="44.9191795" lon="7.3595018"><ele>327.5</ele><time>2026-05-03T15:22:13.309Z</time></trkpt><trkpt lat="44.9192427" lon="7.3594329"><ele>328.0</ele><time>2026-05-03T15:22:14.31Z</time></trkpt><trkpt lat="44.9193054" lon="7.3593639"><ele>328.5</ele><time>2026-05-03T15:22:15.307Z</time></trkpt><trkpt lat="44.9193548" lon="7.3592862"><ele>329.0</ele><time>2026-05-03T15:22:16.308Z</time></trkpt><trkpt lat="44.9193765" lon="7.3591807"><ele>329.5</ele><time>2026-05-03T15:22:17.309Z</time></trkpt><trkpt lat="44.9193924" lon="7.3590487"><ele>330.0</ele><time>2026-05-03T15:22:18.309Z</time></trkpt><trkpt lat="44.9193981" lon="7.358897"><ele>330.4</ele><time>2026-05-03T15:22:19.307Z</time></trkpt><trkpt lat="44.9194076" lon="7.3587192"><ele>330.8</ele><time>2026-05-03T15:22:20.307Z</time></trkpt><trkpt lat="44.9194066" lon="7.3585603"><ele>331.20000000000005</ele><time>2026-05-03T15:22:21.308Z</time></trkpt><trkpt lat="44.919411" lon="7.358414"><ele>331.6</ele><time>2026-05-03T15:22:22.307Z</time></trkpt><trkpt lat="44.9194193" lon="7.3582943"><ele>332.0</ele><time>2026-05-03T15:22:23.308Z</time></trkpt><trkpt lat="44.9194444" lon="7.3582074"><ele>332.0</ele><time>2026-05-03T15:22:24.307Z</time></trkpt><trkpt lat="44.9195527" lon="7.3581022"><ele>332.0</ele><time>2026-05-03T15:22:26.31Z</time></trkpt><trkpt lat="44.9196472" lon="7.3580769"><ele>332.0</ele><time>2026-05-03T15:22:27.309Z</time></trkpt><trkpt lat="44.9197626" lon="7.3580491"><ele>332.0</ele><time>2026-05-03T15:22:28.308Z</time></trkpt><trkpt lat="44.9198889" lon="7.3580054"><ele>332.25</ele><time>2026-05-03T15:22:29.309Z</time></trkpt><trkpt lat="44.9200134" lon="7.3579461"><ele>332.5</ele><time>2026-05-03T15:22:30.308Z</time></trkpt><trkpt lat="44.9201261" lon="7.357885"><ele>332.75</ele><time>2026-05-03T15:22:31.307Z</time></trkpt><trkpt lat="44.9202208" lon="7.3578211"><ele>333.0</ele><time>2026-05-03T15:22:32.308Z</time></trkpt><trkpt lat="44.9203125" lon="7.3577385"><ele>333.0</ele><time>2026-05-03T15:22:33.309Z</time></trkpt><trkpt lat="44.9203906" lon="7.3576265"><ele>333.0</ele><time>2026-05-03T15:22:34.308Z</time></trkpt><trkpt lat="44.9204516" lon="7.3574711"><ele>333.0</ele><time>2026-05-03T15:22:35.309Z</time></trkpt><trkpt lat="44.920503" lon="7.3572976"><ele>333.0</ele><time>2026-05-03T15:22:36.309Z</time></trkpt><trkpt lat="44.9205527" lon="7.3571026"><ele>333.0</ele><time>2026-05-03T15:22:37.308Z</time></trkpt><trkpt lat="44.9205955" lon="7.3568976"><ele>333.0</ele><time>2026-05-03T15:22:38.308Z</time></trkpt><trkpt lat="44.9206472" lon="7.3566973"><ele>333.0</ele><time>2026-05-03T15:22:39.308Z</time></trkpt><trkpt lat="44.9206975" lon="7.3564907"><ele>333.25</ele><time>2026-05-03T15:22:40.307Z</time></trkpt><trkpt lat="44.9207497" lon="7.3562913"><ele>333.5</ele><time>2026-05-03T15:22:41.309Z</time></trkpt><trkpt lat="44.9208051" lon="7.3561191"><ele>333.75</ele><time>2026-05-03T15:22:42.308Z</time></trkpt><trkpt lat="44.9208475" lon="7.3559679"><ele>334.0</ele><time>2026-05-03T15:22:43.308Z</time></trkpt><trkpt lat="44.9208868" lon="7.3558359"><ele>333.85714285714283</ele><time>2026-05-03T15:22:44.308Z</time></trkpt><trkpt lat="44.9209246" lon="7.3557255"><ele>333.7142857142857</ele><time>2026-05-03T15:22:45.308Z</time></trkpt><trkpt lat="44.9209508" lon="7.3556229"><ele>333.57142857142856</ele><time>2026-05-03T15:22:46.309Z</time></trkpt><trkpt lat="44.9209748" lon="7.3555357"><ele>333.42857142857144</ele><time>2026-05-03T15:22:47.309Z</time></trkpt><trkpt lat="44.9209973" lon="7.3554476"><ele>333.2857142857143</ele><time>2026-05-03T15:22:48.308Z</time></trkpt><trkpt lat="44.9210167" lon="7.3553583"><ele>333.14285714285717</ele><time>2026-05-03T15:22:49.308Z</time></trkpt><trkpt lat="44.9210345" lon="7.3552728"><ele>333.0</ele><time>2026-05-03T15:22:50.307Z</time></trkpt><trkpt lat="44.9210548" lon="7.3551816"><ele>333.3333333333333</ele><time>2026-05-03T15:22:51.309Z</time></trkpt><trkpt lat="44.9210766" lon="7.3550916"><ele>333.6666666666667</ele><time>2026-05-03T15:22:52.308Z</time></trkpt><trkpt lat="44.9210974" lon="7.3550044"><ele>334.0</ele><time>2026-05-03T15:22:53.308Z</time></trkpt><trkpt lat="44.9211479" lon="7.3548482"><ele>334.33333333333337</ele><time>2026-05-03T15:22:55.309Z</time></trkpt><trkpt lat="44.9211801" lon="7.3547714"><ele>334.6666666666667</ele><time>2026-05-03T15:22:56.308Z</time></trkpt><trkpt lat="44.921218" lon="7.3546886"><ele>335.0</ele><time>2026-05-03T15:22:57.309Z</time></trkpt><trkpt lat="44.9212553" lon="7.3546059"><ele>335.2857142857143</ele><time>2026-05-03T15:22:58.308Z</time></trkpt><trkpt lat="44.9212938" lon="7.3545256"><ele>335.57142857142856</ele><time>2026-05-03T15:22:59.308Z</time></trkpt><trkpt lat="44.9213311" lon="7.354444"><ele>335.8571428571429</ele><time>2026-05-03T15:23:00.308Z</time></trkpt><trkpt lat="44.9213716" lon="7.3543641"><ele>336.1428571428571</ele><time>2026-05-03T15:23:01.308Z</time></trkpt><trkpt lat="44.9214082" lon="7.3542774"><ele>336.42857142857144</ele><time>2026-05-03T15:23:02.307Z</time></trkpt><trkpt lat="44.9214486" lon="7.3541901"><ele>336.7142857142857</ele><time>2026-05-03T15:23:03.308Z</time></trkpt><trkpt lat="44.9214925" lon="7.3540958"><ele>337.0</ele><time>2026-05-03T15:23:04.307Z</time></trkpt><trkpt lat="44.9215359" lon="7.3539967"><ele>337.0</ele><time>2026-05-03T15:23:05.308Z</time></trkpt><trkpt lat="44.9215772" lon="7.3538933"><ele>337.0</ele><time>2026-05-03T15:23:06.309Z</time></trkpt><trkpt lat="44.9216185" lon="7.3537988"><ele>337.0</ele><time>2026-05-03T15:23:07.308Z</time></trkpt><trkpt lat="44.9216598" lon="7.3537055"><ele>337.0</ele><time>2026-05-03T15:23:08.308Z</time></trkpt><trkpt lat="44.9216995" lon="7.3536123"><ele>337.0</ele><time>2026-05-03T15:23:09.308Z</time></trkpt><trkpt lat="44.9217421" lon="7.3535191"><ele>337.0</ele><time>2026-05-03T15:23:10.308Z</time></trkpt><trkpt lat="44.9217837" lon="7.3534302"><ele>337.14285714285717</ele><time>2026-05-03T15:23:11.308Z</time></trkpt><trkpt lat="44.9218258" lon="7.3533525"><ele>337.2857142857143</ele><time>2026-05-03T15:23:12.309Z</time></trkpt><trkpt lat="44.9218656" lon="7.353276"><ele>337.42857142857144</ele><time>2026-05-03T15:23:13.308Z</time></trkpt><trkpt lat="44.9219051" lon="7.3532001"><ele>337.57142857142856</ele><time>2026-05-03T15:23:14.308Z</time></trkpt><trkpt lat="44.9219462" lon="7.3531243"><ele>337.7142857142857</ele><time>2026-05-03T15:23:15.309Z</time></trkpt><trkpt lat="44.9219919" lon="7.353044"><ele>337.8571428571429</ele><time>2026-05-03T15:23:16.307Z</time></trkpt><trkpt lat="44.9220415" lon="7.3529593"><ele>338.0</ele><time>2026-05-03T15:23:17.308Z</time></trkpt><trkpt lat="44.9220974" lon="7.3528675"><ele>338.1666666666667</ele><time>2026-05-03T15:23:18.308Z</time></trkpt><trkpt lat="44.9221542" lon="7.3527778"><ele>338.33333333333337</ele><time>2026-05-03T15:23:19.307Z</time></trkpt><trkpt lat="44.9222162" lon="7.3526921"><ele>338.5</ele><time>2026-05-03T15:23:20.307Z</time></trkpt><trkpt lat="44.9222782" lon="7.3526036"><ele>338.6666666666667</ele><time>2026-05-03T15:23:21.308Z</time></trkpt><trkpt lat="44.9223403" lon="7.352518"><ele>338.8333333333333</ele><time>2026-05-03T15:23:22.309Z</time></trkpt><trkpt lat="44.9223955" lon="7.3524419"><ele>339.0</ele><time>2026-05-03T15:23:23.308Z</time></trkpt><trkpt lat="44.9224509" lon="7.3523685"><ele>339.0</ele><time>2026-05-03T15:23:24.308Z</time></trkpt><trkpt lat="44.9225151" lon="7.3522918"><ele>339.0</ele><time>2026-05-03T15:23:25.309Z</time></trkpt><trkpt lat="44.9225957" lon="7.3521911"><ele>339.0</ele><time>2026-05-03T15:23:26.309Z</time></trkpt><trkpt lat="44.9226868" lon="7.3520832"><ele>339.0</ele><time>2026-05-03T15:23:27.308Z</time></trkpt><trkpt lat="44.9227725" lon="7.3519784"><ele>339.0</ele><time>2026-05-03T15:23:28.308Z</time></trkpt><trkpt lat="44.9228504" lon="7.3518859"><ele>340.0</ele><time>2026-05-03T15:23:29.309Z</time></trkpt><trkpt lat="44.9229435" lon="7.3517859"><ele>341.0</ele><time>2026-05-03T15:23:30.309Z</time></trkpt><trkpt lat="44.9230335" lon="7.3516846"><ele>342.0</ele><time>2026-05-03T15:23:31.309Z</time></trkpt><trkpt lat="44.923111" lon="7.3515858"><ele>343.0</ele><time>2026-05-03T15:23:32.309Z</time></trkpt><trkpt lat="44.923187" lon="7.3514818"><ele>344.0</ele><time>2026-05-03T15:23:33.307Z</time></trkpt><trkpt lat="44.9232684" lon="7.3513625"><ele>344.5</ele><time>2026-05-03T15:23:34.308Z</time></trkpt><trkpt lat="44.9233494" lon="7.3512581"><ele>345.0</ele><time>2026-05-03T15:23:35.309Z</time></trkpt><trkpt lat="44.9234271" lon="7.3511346"><ele>345.5</ele><time>2026-05-03T15:23:36.309Z</time></trkpt><trkpt lat="44.923504" lon="7.3509951"><ele>346.0</ele><time>2026-05-03T15:23:37.307Z</time></trkpt><trkpt lat="44.9235796" lon="7.3508674"><ele>346.20000000000005</ele><time>2026-05-03T15:23:38.308Z</time></trkpt><trkpt lat="44.923653" lon="7.3507493"><ele>346.40000000000003</ele><time>2026-05-03T15:23:39.308Z</time></trkpt><trkpt lat="44.9237223" lon="7.3506584"><ele>346.6</ele><time>2026-05-03T15:23:40.309Z</time></trkpt><trkpt lat="44.9237926" lon="7.3505575"><ele>346.8</ele><time>2026-05-03T15:23:41.309Z</time></trkpt><trkpt lat="44.923867" lon="7.3504555"><ele>347.0</ele><time>2026-05-03T15:23:42.307Z</time></trkpt><trkpt lat="44.9239448" lon="7.350358"><ele>347.5</ele><time>2026-05-03T15:23:43.308Z</time></trkpt><trkpt lat="44.9240333" lon="7.3502427"><ele>348.0</ele><time>2026-05-03T15:23:44.307Z</time></trkpt><trkpt lat="44.9241279" lon="7.3501502"><ele>348.5</ele><time>2026-05-03T15:23:45.307Z</time></trkpt><trkpt lat="44.9242203" lon="7.3500623"><ele>349.0</ele><time>2026-05-03T15:23:46.308Z</time></trkpt><trkpt lat="44.9243125" lon="7.3499838"><ele>349.2</ele><time>2026-05-03T15:23:47.307Z</time></trkpt><trkpt lat="44.924404" lon="7.349903"><ele>349.4</ele><time>2026-05-03T15:23:48.307Z</time></trkpt><trkpt lat="44.9244967" lon="7.3498153"><ele>349.6</ele><time>2026-05-03T15:23:49.307Z</time></trkpt><trkpt lat="44.9245842" lon="7.3497289"><ele>349.8</ele><time>2026-05-03T15:23:50.308Z</time></trkpt><trkpt lat="44.924673" lon="7.3496399"><ele>350.0</ele><time>2026-05-03T15:23:51.307Z</time></trkpt><trkpt lat="44.9247568" lon="7.3495416"><ele>350.2</ele><time>2026-05-03T15:23:52.308Z</time></trkpt><trkpt lat="44.9248445" lon="7.3494323"><ele>350.4</ele><time>2026-05-03T15:23:53.308Z</time></trkpt><trkpt lat="44.9249189" lon="7.3493204"><ele>350.6</ele><time>2026-05-03T15:23:54.308Z</time></trkpt><trkpt lat="44.9249934" lon="7.3492151"><ele>350.8</ele><time>2026-05-03T15:23:55.309Z</time></trkpt><trkpt lat="44.9250713" lon="7.3491081"><ele>351.0</ele><time>2026-05-03T15:23:56.308Z</time></trkpt><trkpt lat="44.9251445" lon="7.3490039"><ele>351.5</ele><time>2026-05-03T15:23:57.308Z</time></trkpt><trkpt lat="44.925217" lon="7.3489012"><ele>352.0</ele><time>2026-05-03T15:23:58.309Z</time></trkpt><trkpt lat="44.9252803" lon="7.3488101"><ele>352.5</ele><time>2026-05-03T15:23:59.309Z</time></trkpt><trkpt lat="44.925346" lon="7.3487231"><ele>353.0</ele><time>2026-05-03T15:24:00.307Z</time></trkpt><trkpt lat="44.9254002" lon="7.3486456"><ele>353.5</ele><time>2026-05-03T15:24:01.308Z</time></trkpt><trkpt lat="44.9254512" lon="7.3485725"><ele>354.0</ele><time>2026-05-03T15:24:02.307Z</time></trkpt><trkpt lat="44.9255274" lon="7.3484876"><ele>354.3333333333333</ele><time>2026-05-03T15:24:04.309Z</time></trkpt><trkpt lat="44.9255566" lon="7.3483817"><ele>354.6666666666667</ele><time>2026-05-03T15:24:07.307Z</time></trkpt><trkpt lat="44.9254913" lon="7.348276"><ele>355.0</ele><time>2026-05-03T15:24:09.308Z</time></trkpt><trkpt lat="44.9254295" lon="7.3482049"><ele>355.33333333333337</ele><time>2026-05-03T15:24:10.309Z</time></trkpt><trkpt lat="44.925371" lon="7.3481232"><ele>355.6666666666667</ele><time>2026-05-03T15:24:11.307Z</time></trkpt><trkpt lat="44.9252989" lon="7.3480243"><ele>356.0</ele><time>2026-05-03T15:24:12.308Z</time></trkpt><trkpt lat="44.9252253" lon="7.3479093"><ele>356.20000000000005</ele><time>2026-05-03T15:24:13.31Z</time></trkpt><trkpt lat="44.9251491" lon="7.3477998"><ele>356.40000000000003</ele><time>2026-05-03T15:24:14.308Z</time></trkpt><trkpt lat="44.9250793" lon="7.3476881"><ele>356.6</ele><time>2026-05-03T15:24:15.307Z</time></trkpt><trkpt lat="44.9250101" lon="7.3475719"><ele>356.8</ele><time>2026-05-03T15:24:16.31Z</time></trkpt><trkpt lat="44.924941" lon="7.3474655"><ele>357.0</ele><time>2026-05-03T15:24:17.308Z</time></trkpt><trkpt lat="44.9248796" lon="7.3473401"><ele>356.6</ele><time>2026-05-03T15:24:18.308Z</time></trkpt><trkpt lat="44.9248096" lon="7.3472219"><ele>356.20000000000005</ele><time>2026-05-03T15:24:19.309Z</time></trkpt><trkpt lat="44.9247396" lon="7.3471154"><ele>355.8</ele><time>2026-05-03T15:24:20.307Z</time></trkpt><trkpt lat="44.9246665" lon="7.3470031"><ele>355.4</ele><time>2026-05-03T15:24:21.308Z</time></trkpt><trkpt lat="44.9245919" lon="7.3468961"><ele>355.0</ele><time>2026-05-03T15:24:22.309Z</time></trkpt><trkpt lat="44.9245204" lon="7.3467981"><ele>355.0</ele><time>2026-05-03T15:24:23.307Z</time></trkpt><trkpt lat="44.9244517" lon="7.3467165"><ele>355.0</ele><time>2026-05-03T15:24:24.308Z</time></trkpt><trkpt lat="44.9243815" lon="7.346641"><ele>355.0</ele><time>2026-05-03T15:24:25.307Z</time></trkpt><trkpt lat="44.9243163" lon="7.3465781"><ele>355.0</ele><time>2026-05-03T15:24:26.308Z</time></trkpt><trkpt lat="44.9242429" lon="7.346523"><ele>355.0</ele><time>2026-05-03T15:24:27.307Z</time></trkpt><trkpt lat="44.9241632" lon="7.3464745"><ele>355.0</ele><time>2026-05-03T15:24:28.309Z</time></trkpt><trkpt lat="44.9240911" lon="7.3464287"><ele>354.8</ele><time>2026-05-03T15:24:29.308Z</time></trkpt><trkpt lat="44.9240244" lon="7.3463952"><ele>354.6</ele><time>2026-05-03T15:24:30.308Z</time></trkpt><trkpt lat="44.9239336" lon="7.3462824"><ele>354.4</ele><time>2026-05-03T15:24:32.307Z</time></trkpt><trkpt lat="44.9238921" lon="7.3461819"><ele>354.2</ele><time>2026-05-03T15:24:33.308Z</time></trkpt><trkpt lat="44.9238511" lon="7.3460517"><ele>354.0</ele><time>2026-05-03T15:24:34.308Z</time></trkpt><trkpt lat="44.9238201" lon="7.345902"><ele>354.0</ele><time>2026-05-03T15:24:35.309Z</time></trkpt><trkpt lat="44.923798" lon="7.3457523"><ele>354.0</ele><time>2026-05-03T15:24:36.308Z</time></trkpt><trkpt lat="44.9237868" lon="7.345615"><ele>354.0</ele><time>2026-05-03T15:24:37.307Z</time></trkpt><trkpt lat="44.9237771" lon="7.345497"><ele>354.0</ele><time>2026-05-03T15:24:38.309Z</time></trkpt><trkpt lat="44.9237707" lon="7.3453882"><ele>354.0</ele><time>2026-05-03T15:24:39.307Z</time></trkpt><trkpt lat="44.9237595" lon="7.3452802"><ele>354.0</ele><time>2026-05-03T15:24:40.308Z</time></trkpt><trkpt lat="44.9237446" lon="7.3451773"><ele>354.5</ele><time>2026-05-03T15:24:41.307Z</time></trkpt><trkpt lat="44.9237259" lon="7.3450795"><ele>355.0</ele><time>2026-05-03T15:24:42.307Z</time></trkpt><trkpt lat="44.923699" lon="7.3449857"><ele>355.5</ele><time>2026-05-03T15:24:43.308Z</time></trkpt><trkpt lat="44.9236674" lon="7.3448803"><ele>356.0</ele><time>2026-05-03T15:24:44.309Z</time></trkpt><trkpt lat="44.9236377" lon="7.3447825"><ele>356.5</ele><time>2026-05-03T15:24:45.309Z</time></trkpt><trkpt lat="44.923613" lon="7.3446832"><ele>357.0</ele><time>2026-05-03T15:24:46.308Z</time></trkpt><trkpt lat="44.923587" lon="7.3445803"><ele>357.0</ele><time>2026-05-03T15:24:47.307Z</time></trkpt><trkpt lat="44.9235574" lon="7.3444793"><ele>357.0</ele><time>2026-05-03T15:24:48.307Z</time></trkpt><trkpt lat="44.9235309" lon="7.3443792"><ele>357.0</ele><time>2026-05-03T15:24:49.307Z</time></trkpt><trkpt lat="44.9235031" lon="7.344285"><ele>357.0</ele><time>2026-05-03T15:24:50.307Z</time></trkpt><trkpt lat="44.9234773" lon="7.3441843"><ele>357.0</ele><time>2026-05-03T15:24:51.308Z</time></trkpt><trkpt lat="44.9234533" lon="7.344093"><ele>357.0</ele><time>2026-05-03T15:24:52.308Z</time></trkpt><trkpt lat="44.9234322" lon="7.3439967"><ele>357.0</ele><time>2026-05-03T15:24:53.308Z</time></trkpt><trkpt lat="44.923409" lon="7.3438981"><ele>356.8333333333333</ele><time>2026-05-03T15:24:54.308Z</time></trkpt><trkpt lat="44.9233857" lon="7.3438083"><ele>356.6666666666667</ele><time>2026-05-03T15:24:55.307Z</time></trkpt><trkpt lat="44.9233632" lon="7.3437165"><ele>356.5</ele><time>2026-05-03T15:24:56.307Z</time></trkpt><trkpt lat="44.9233443" lon="7.3436256"><ele>356.33333333333337</ele><time>2026-05-03T15:24:57.309Z</time></trkpt><trkpt lat="44.9233116" lon="7.3434726"><ele>356.1666666666667</ele><time>2026-05-03T15:24:59.307Z</time></trkpt><trkpt lat="44.9233002" lon="7.3433162"><ele>356.0</ele><time>2026-05-03T15:25:01.307Z</time></trkpt><trkpt lat="44.9233159" lon="7.3431518"><ele>356.0</ele><time>2026-05-03T15:25:03.307Z</time></trkpt><trkpt lat="44.9233275" lon="7.3430557"><ele>356.0</ele><time>2026-05-03T15:25:04.308Z</time></trkpt><trkpt lat="44.9233271" lon="7.3429475"><ele>356.0</ele><time>2026-05-03T15:25:05.309Z</time></trkpt><trkpt lat="44.9233323" lon="7.3428474"><ele>356.0</ele><time>2026-05-03T15:25:06.309Z</time></trkpt><trkpt lat="44.9233329" lon="7.3427579"><ele>356.0</ele><time>2026-05-03T15:25:07.307Z</time></trkpt><trkpt lat="44.9233363" lon="7.3426261"><ele>356.0</ele><time>2026-05-03T15:25:09.308Z</time></trkpt><trkpt lat="44.923333" lon="7.3425115"><ele>356.20000000000005</ele><time>2026-05-03T15:25:11.309Z</time></trkpt><trkpt lat="44.9233546" lon="7.3424042"><ele>356.40000000000003</ele><time>2026-05-03T15:25:13.307Z</time></trkpt><trkpt lat="44.9234067" lon="7.3422688"><ele>356.6</ele><time>2026-05-03T15:25:15.308Z</time></trkpt><trkpt lat="44.9234893" lon="7.3421316"><ele>356.8</ele><time>2026-05-03T15:25:17.309Z</time></trkpt><trkpt lat="44.923553" lon="7.3419932"><ele>357.0</ele><time>2026-05-03T15:25:19.307Z</time></trkpt><trkpt lat="44.9235679" lon="7.3418705"><ele>357.3333333333333</ele><time>2026-05-03T15:25:21.309Z</time></trkpt><trkpt lat="44.9235521" lon="7.3417533"><ele>357.6666666666667</ele><time>2026-05-03T15:25:23.307Z</time></trkpt><trkpt lat="44.9235468" lon="7.3416514"><ele>358.0</ele><time>2026-05-03T15:25:25.308Z</time></trkpt><trkpt lat="44.9235376" lon="7.3415597"><ele>358.33333333333337</ele><time>2026-05-03T15:25:27.309Z</time></trkpt><trkpt lat="44.9235471" lon="7.341418"><ele>358.6666666666667</ele><time>2026-05-03T15:25:30.308Z</time></trkpt><trkpt lat="44.9235555" lon="7.3413021"><ele>359.0</ele><time>2026-05-03T15:25:32.307Z</time></trkpt><trkpt lat="44.9235846" lon="7.3411652"><ele>359.2857142857143</ele><time>2026-05-03T15:25:34.307Z</time></trkpt><trkpt lat="44.9236264" lon="7.3410895"><ele>359.57142857142856</ele><time>2026-05-03T15:25:35.307Z</time></trkpt><trkpt lat="44.9236624" lon="7.3410031"><ele>359.8571428571429</ele><time>2026-05-03T15:25:36.308Z</time></trkpt><trkpt lat="44.9236794" lon="7.3409144"><ele>360.1428571428571</ele><time>2026-05-03T15:25:37.307Z</time></trkpt><trkpt lat="44.9236803" lon="7.3408072"><ele>360.4285714285714</ele><time>2026-05-03T15:25:38.307Z</time></trkpt><trkpt lat="44.9236873" lon="7.3407021"><ele>360.7142857142857</ele><time>2026-05-03T15:25:39.307Z</time></trkpt><trkpt lat="44.9237037" lon="7.3405958"><ele>361.0</ele><time>2026-05-03T15:25:40.308Z</time></trkpt><trkpt lat="44.9237153" lon="7.340485"><ele>361.3333333333333</ele><time>2026-05-03T15:25:41.308Z</time></trkpt><trkpt lat="44.9237174" lon="7.3403742"><ele>361.66666666666663</ele><time>2026-05-03T15:25:42.307Z</time></trkpt><trkpt lat="44.9237294" lon="7.34028"><ele>362.0</ele><time>2026-05-03T15:25:43.307Z</time></trkpt><trkpt lat="44.9237755" lon="7.340136"><ele>362.3333333333333</ele><time>2026-05-03T15:25:45.308Z</time></trkpt><trkpt lat="44.9238419" lon="7.3400424"><ele>362.6666666666667</ele><time>2026-05-03T15:25:47.307Z</time></trkpt><trkpt lat="44.9239319" lon="7.3399992"><ele>363.0</ele><time>2026-05-03T15:25:49.308Z</time></trkpt><trkpt lat="44.9240423" lon="7.3399819"><ele>363.0</ele><time>2026-05-03T15:25:51.308Z</time></trkpt><trkpt lat="44.9241572" lon="7.3400107"><ele>363.0</ele><time>2026-05-03T15:25:53.307Z</time></trkpt><trkpt lat="44.9242585" lon="7.3399884"><ele>363.0</ele><time>2026-05-03T15:25:55.307Z</time></trkpt><trkpt lat="44.9243684" lon="7.3399116"><ele>363.0</ele><time>2026-05-03T15:25:57.308Z</time></trkpt><trkpt lat="44.9244637" lon="7.339805"><ele>364.1666666666667</ele><time>2026-05-03T15:25:59.307Z</time></trkpt><trkpt lat="44.9245149" lon="7.3397489"><ele>365.3333333333333</ele><time>2026-05-03T15:26:00.307Z</time></trkpt><trkpt lat="44.9245669" lon="7.3396869"><ele>366.5</ele><time>2026-05-03T15:26:01.307Z</time></trkpt><trkpt lat="44.9246697" lon="7.3395827"><ele>367.66666666666663</ele><time>2026-05-03T15:26:03.308Z</time></trkpt><trkpt lat="44.9247276" lon="7.3395463"><ele>368.8333333333333</ele><time>2026-05-03T15:26:04.307Z</time></trkpt><trkpt lat="44.9247809" lon="7.339489"><ele>370.0</ele><time>2026-05-03T15:26:05.306Z</time></trkpt><trkpt lat="44.924887" lon="7.3393981"><ele>370.71428571428567</ele><time>2026-05-03T15:26:07.307Z</time></trkpt><trkpt lat="44.9249439" lon="7.3393556"><ele>371.42857142857144</ele><time>2026-05-03T15:26:08.307Z</time></trkpt><trkpt lat="44.9250036" lon="7.3393161"><ele>372.1428571428571</ele><time>2026-05-03T15:26:09.307Z</time></trkpt><trkpt lat="44.9250611" lon="7.3392763"><ele>372.85714285714283</ele><time>2026-05-03T15:26:10.307Z</time></trkpt><trkpt lat="44.9251185" lon="7.3392375"><ele>373.57142857142856</ele><time>2026-05-03T15:26:11.307Z</time></trkpt><trkpt lat="44.9251834" lon="7.3392001"><ele>374.2857142857143</ele><time>2026-05-03T15:26:12.308Z</time></trkpt><trkpt lat="44.9252483" lon="7.3391655"><ele>375.0</ele><time>2026-05-03T15:26:13.308Z</time></trkpt><trkpt lat="44.9253103" lon="7.3391384"><ele>376.4</ele><time>2026-05-03T15:26:14.308Z</time></trkpt><trkpt lat="44.9254183" lon="7.3390882"><ele>377.8</ele><time>2026-05-03T15:26:16.307Z</time></trkpt><trkpt lat="44.9254844" lon="7.3389808"><ele>379.20000000000005</ele><time>2026-05-03T15:26:18.308Z</time></trkpt><trkpt lat="44.9255213" lon="7.3388117"><ele>380.6</ele><time>2026-05-03T15:26:20.309Z</time></trkpt><trkpt lat="44.9255444" lon="7.338727"><ele>382.0</ele><time>2026-05-03T15:26:21.308Z</time></trkpt><trkpt lat="44.9255687" lon="7.3386446"><ele>382.3333333333333</ele><time>2026-05-03T15:26:22.307Z</time></trkpt><trkpt lat="44.9256046" lon="7.3385649"><ele>382.66666666666663</ele><time>2026-05-03T15:26:23.309Z</time></trkpt><trkpt lat="44.9256323" lon="7.3384832"><ele>383.0</ele><time>2026-05-03T15:26:24.307Z</time></trkpt><trkpt lat="44.9256957" lon="7.3383485"><ele>383.3333333333333</ele><time>2026-05-03T15:26:26.308Z</time></trkpt><trkpt lat="44.9257597" lon="7.3382934"><ele>383.6666666666667</ele><time>2026-05-03T15:26:27.308Z</time></trkpt><trkpt lat="44.9258307" lon="7.3382364"><ele>384.0</ele><time>2026-05-03T15:26:28.307Z</time></trkpt><trkpt lat="44.9259119" lon="7.3381898"><ele>384.4</ele><time>2026-05-03T15:26:29.308Z</time></trkpt><trkpt lat="44.925999" lon="7.3381196"><ele>384.79999999999995</ele><time>2026-05-03T15:26:30.308Z</time></trkpt><trkpt lat="44.926086" lon="7.3380307"><ele>385.20000000000005</ele><time>2026-05-03T15:26:31.308Z</time></trkpt><trkpt lat="44.9261611" lon="7.3379597"><ele>385.6</ele><time>2026-05-03T15:26:32.308Z</time></trkpt><trkpt lat="44.9262316" lon="7.3378913"><ele>386.0</ele><time>2026-05-03T15:26:33.308Z</time></trkpt><trkpt lat="44.9263029" lon="7.3378319"><ele>387.49999999999994</ele><time>2026-05-03T15:26:34.308Z</time></trkpt><trkpt lat="44.9263646" lon="7.3377701"><ele>389.0</ele><time>2026-05-03T15:26:35.307Z</time></trkpt><trkpt lat="44.9264274" lon="7.3377039"><ele>390.5</ele><time>2026-05-03T15:26:36.307Z</time></trkpt><trkpt lat="44.9264863" lon="7.3376475"><ele>392.0</ele><time>2026-05-03T15:26:37.308Z</time></trkpt><trkpt lat="44.9265541" lon="7.337576"><ele>393.49999999999994</ele><time>2026-05-03T15:26:38.307Z</time></trkpt><trkpt lat="44.9266272" lon="7.3375053"><ele>395.0</ele><time>2026-05-03T15:26:39.307Z</time></trkpt><trkpt lat="44.9266923" lon="7.3374523"><ele>394.99999999999994</ele><time>2026-05-03T15:26:40.308Z</time></trkpt><trkpt lat="44.9267525" lon="7.3373994"><ele>395.0</ele><time>2026-05-03T15:26:41.306Z</time></trkpt><trkpt lat="44.9268123" lon="7.3373534"><ele>395.0</ele><time>2026-05-03T15:26:42.308Z</time></trkpt><trkpt lat="44.926879" lon="7.3372674"><ele>395.0</ele><time>2026-05-03T15:26:44.307Z</time></trkpt><trkpt lat="44.926915" lon="7.3371427"><ele>394.99999999999994</ele><time>2026-05-03T15:26:46.308Z</time></trkpt><trkpt lat="44.9269156" lon="7.3370226"><ele>395.0</ele><time>2026-05-03T15:26:47.308Z</time></trkpt><trkpt lat="44.9268995" lon="7.3368611"><ele>398.3333333333333</ele><time>2026-05-03T15:26:48.308Z</time></trkpt><trkpt lat="44.9268805" lon="7.3366689"><ele>401.66666666666663</ele><time>2026-05-03T15:26:49.307Z</time></trkpt><trkpt lat="44.926859" lon="7.3364423"><ele>405.0</ele><time>2026-05-03T15:26:50.307Z</time></trkpt><trkpt lat="44.9268434" lon="7.3362252"><ele>407.5</ele><time>2026-05-03T15:26:51.307Z</time></trkpt><trkpt lat="44.9268331" lon="7.3360296"><ele>410.0</ele><time>2026-05-03T15:26:52.307Z</time></trkpt><trkpt lat="44.9268261" lon="7.3358472"><ele>412.5</ele><time>2026-05-03T15:26:53.307Z</time></trkpt><trkpt lat="44.92682" lon="7.3356662"><ele>415.0</ele><time>2026-05-03T15:26:54.308Z</time></trkpt><trkpt lat="44.9268173" lon="7.3354899"><ele>416.25</ele><time>2026-05-03T15:26:55.308Z</time></trkpt><trkpt lat="44.9268168" lon="7.33531"><ele>417.5</ele><time>2026-05-03T15:26:56.307Z</time></trkpt><trkpt lat="44.9268145" lon="7.335132"><ele>418.75</ele><time>2026-05-03T15:26:57.308Z</time></trkpt><trkpt lat="44.926812" lon="7.3349544"><ele>420.0</ele><time>2026-05-03T15:26:58.307Z</time></trkpt><trkpt lat="44.9268089" lon="7.3347665"><ele>420.5</ele><time>2026-05-03T15:26:59.307Z</time></trkpt><trkpt lat="44.9268093" lon="7.3345871"><ele>421.0</ele><time>2026-05-03T15:27:00.306Z</time></trkpt><trkpt lat="44.9268104" lon="7.3344221"><ele>421.5</ele><time>2026-05-03T15:27:01.308Z</time></trkpt><trkpt lat="44.9268139" lon="7.3342659"><ele>422.0</ele><time>2026-05-03T15:27:02.306Z</time></trkpt><trkpt lat="44.9268135" lon="7.3341077"><ele>422.0</ele><time>2026-05-03T15:27:03.307Z</time></trkpt><trkpt lat="44.926814" lon="7.3339464"><ele>422.0</ele><time>2026-05-03T15:27:04.308Z</time></trkpt><trkpt lat="44.9268119" lon="7.3337841"><ele>422.0</ele><time>2026-05-03T15:27:05.307Z</time></trkpt><trkpt lat="44.9268043" lon="7.3336197"><ele>422.0</ele><time>2026-05-03T15:27:06.307Z</time></trkpt><trkpt lat="44.9267953" lon="7.3334532"><ele>422.25</ele><time>2026-05-03T15:27:07.307Z</time></trkpt><trkpt lat="44.9267816" lon="7.3332888"><ele>422.5</ele><time>2026-05-03T15:27:08.307Z</time></trkpt><trkpt lat="44.9267617" lon="7.3331229"><ele>422.75</ele><time>2026-05-03T15:27:09.308Z</time></trkpt><trkpt lat="44.9267414" lon="7.3329599"><ele>423.0</ele><time>2026-05-03T15:27:10.308Z</time></trkpt><trkpt lat="44.9267236" lon="7.3327948"><ele>419.25</ele><time>2026-05-03T15:27:11.308Z</time></trkpt><trkpt lat="44.9267026" lon="7.3326361"><ele>415.5</ele><time>2026-05-03T15:27:12.307Z</time></trkpt><trkpt lat="44.9266838" lon="7.332477"><ele>411.75</ele><time>2026-05-03T15:27:13.306Z</time></trkpt><trkpt lat="44.9266562" lon="7.3323207"><ele>408.0</ele><time>2026-05-03T15:27:14.306Z</time></trkpt><trkpt lat="44.9266261" lon="7.3321668"><ele>408.0</ele><time>2026-05-03T15:27:15.306Z</time></trkpt><trkpt lat="44.9265926" lon="7.3320206"><ele>408.0</ele><time>2026-05-03T15:27:16.306Z</time></trkpt><trkpt lat="44.9265439" lon="7.3318717"><ele>408.0</ele><time>2026-05-03T15:27:17.308Z</time></trkpt><trkpt lat="44.9264774" lon="7.3317541"><ele>408.0</ele><time>2026-05-03T15:27:18.307Z</time></trkpt><trkpt lat="44.9263979" lon="7.3316705"><ele>408.0</ele><time>2026-05-03T15:27:19.306Z</time></trkpt><trkpt lat="44.9262873" lon="7.3316291"><ele>408.0</ele><time>2026-05-03T15:27:20.307Z</time></trkpt><trkpt lat="44.9261672" lon="7.3316283"><ele>408.0</ele><time>2026-05-03T15:27:21.306Z</time></trkpt><trkpt lat="44.9260439" lon="7.331637"><ele>408.0</ele><time>2026-05-03T15:27:22.308Z</time></trkpt><trkpt lat="44.9259251" lon="7.3316507"><ele>408.0</ele><time>2026-05-03T15:27:23.307Z</time></trkpt><trkpt lat="44.9258247" lon="7.3316622"><ele>408.0</ele><time>2026-05-03T15:27:24.306Z</time></trkpt><trkpt lat="44.9257368" lon="7.3316677"><ele>408.0</ele><time>2026-05-03T15:27:25.308Z</time></trkpt><trkpt lat="44.9256631" lon="7.3316667"><ele>408.0</ele><time>2026-05-03T15:27:26.308Z</time></trkpt><trkpt lat="44.9255966" lon="7.3316317"><ele>408.0</ele><time>2026-05-03T15:27:27.308Z</time></trkpt><trkpt lat="44.9255372" lon="7.3315831"><ele>408.0</ele><time>2026-05-03T15:27:28.307Z</time></trkpt><trkpt lat="44.9254898" lon="7.3315202"><ele>408.0</ele><time>2026-05-03T15:27:29.307Z</time></trkpt><trkpt lat="44.9254415" lon="7.3314465"><ele>408.0</ele><time>2026-05-03T15:27:30.308Z</time></trkpt><trkpt lat="44.9253976" lon="7.3313626"><ele>409.79999999999995</ele><time>2026-05-03T15:27:31.308Z</time></trkpt><trkpt lat="44.9253573" lon="7.3312852"><ele>411.6</ele><time>2026-05-03T15:27:32.308Z</time></trkpt><trkpt lat="44.9253184" lon="7.3311751"><ele>413.4</ele><time>2026-05-03T15:27:34.307Z</time></trkpt><trkpt lat="44.9253186" lon="7.3310411"><ele>415.20000000000005</ele><time>2026-05-03T15:27:36.306Z</time></trkpt><trkpt lat="44.9252773" lon="7.3309441"><ele>417.0</ele><time>2026-05-03T15:27:38.309Z</time></trkpt><trkpt lat="44.9251551" lon="7.330915"><ele>417.0</ele><time>2026-05-03T15:27:40.307Z</time></trkpt><trkpt lat="44.9250778" lon="7.3309001"><ele>417.0</ele><time>2026-05-03T15:27:41.307Z</time></trkpt><trkpt lat="44.9249993" lon="7.3308998"><ele>417.0</ele><time>2026-05-03T15:27:42.307Z</time></trkpt><trkpt lat="44.9249136" lon="7.3309232"><ele>417.0</ele><time>2026-05-03T15:27:43.308Z</time></trkpt><trkpt lat="44.9248206" lon="7.3309812"><ele>417.0</ele><time>2026-05-03T15:27:44.308Z</time></trkpt><trkpt lat="44.9247361" lon="7.33106"><ele>417.0</ele><time>2026-05-03T15:27:45.306Z</time></trkpt><trkpt lat="44.9246556" lon="7.3311478"><ele>416.20000000000005</ele><time>2026-05-03T15:27:46.309Z</time></trkpt><trkpt lat="44.9245903" lon="7.33123"><ele>415.4</ele><time>2026-05-03T15:27:47.307Z</time></trkpt><trkpt lat="44.9245315" lon="7.3313333"><ele>414.6</ele><time>2026-05-03T15:27:48.307Z</time></trkpt><trkpt lat="44.9244618" lon="7.3314351"><ele>413.79999999999995</ele><time>2026-05-03T15:27:49.307Z</time></trkpt><trkpt lat="44.9243855" lon="7.3315333"><ele>413.0</ele><time>2026-05-03T15:27:50.308Z</time></trkpt><trkpt lat="44.9243135" lon="7.3316222"><ele>412.2</ele><time>2026-05-03T15:27:51.308Z</time></trkpt><trkpt lat="44.9242325" lon="7.3317138"><ele>411.4</ele><time>2026-05-03T15:27:52.306Z</time></trkpt><trkpt lat="44.924149" lon="7.3317965"><ele>410.59999999999997</ele><time>2026-05-03T15:27:53.307Z</time></trkpt><trkpt lat="44.9240634" lon="7.3318734"><ele>409.79999999999995</ele><time>2026-05-03T15:27:54.307Z</time></trkpt><trkpt lat="44.9239777" lon="7.3319435"><ele>409.0</ele><time>2026-05-03T15:27:55.308Z</time></trkpt><trkpt lat="44.9238857" lon="7.3320139"><ele>407.79999999999995</ele><time>2026-05-03T15:27:56.307Z</time></trkpt><trkpt lat="44.9238013" lon="7.3320815"><ele>406.59999999999997</ele><time>2026-05-03T15:27:57.306Z</time></trkpt><trkpt lat="44.9237105" lon="7.3321453"><ele>405.4</ele><time>2026-05-03T15:27:58.307Z</time></trkpt><trkpt lat="44.9236176" lon="7.3322046"><ele>404.2</ele><time>2026-05-03T15:27:59.306Z</time></trkpt><trkpt lat="44.9235102" lon="7.332252"><ele>403.0</ele><time>2026-05-03T15:28:00.307Z</time></trkpt><trkpt lat="44.9233949" lon="7.3323035"><ele>401.25</ele><time>2026-05-03T15:28:01.306Z</time></trkpt><trkpt lat="44.9232743" lon="7.3323722"><ele>399.5</ele><time>2026-05-03T15:28:02.306Z</time></trkpt><trkpt lat="44.9231637" lon="7.3324174"><ele>397.75</ele><time>2026-05-03T15:28:03.306Z</time></trkpt><trkpt lat="44.9230559" lon="7.332454"><ele>396.0</ele><time>2026-05-03T15:28:04.308Z</time></trkpt><trkpt lat="44.9229564" lon="7.3324935"><ele>396.0</ele><time>2026-05-03T15:28:05.306Z</time></trkpt><trkpt lat="44.9228622" lon="7.3325314"><ele>396.0</ele><time>2026-05-03T15:28:06.307Z</time></trkpt><trkpt lat="44.9227627" lon="7.3325726"><ele>396.0</ele><time>2026-05-03T15:28:07.307Z</time></trkpt><trkpt lat="44.9226638" lon="7.3326045"><ele>396.0</ele><time>2026-05-03T15:28:08.307Z</time></trkpt><trkpt lat="44.9225652" lon="7.3326414"><ele>396.0</ele><time>2026-05-03T15:28:09.307Z</time></trkpt><trkpt lat="44.9224732" lon="7.3326604"><ele>395.0</ele><time>2026-05-03T15:28:10.309Z</time></trkpt><trkpt lat="44.9223819" lon="7.3326877"><ele>394.0</ele><time>2026-05-03T15:28:11.307Z</time></trkpt><trkpt lat="44.922287" lon="7.3327171"><ele>393.0</ele><time>2026-05-03T15:28:12.307Z</time></trkpt><trkpt lat="44.922185" lon="7.3327599"><ele>392.0</ele><time>2026-05-03T15:28:13.307Z</time></trkpt><trkpt lat="44.9220823" lon="7.332805"><ele>391.0</ele><time>2026-05-03T15:28:14.306Z</time></trkpt><trkpt lat="44.921985" lon="7.3328493"><ele>391.0</ele><time>2026-05-03T15:28:15.306Z</time></trkpt><trkpt lat="44.9218932" lon="7.3328924"><ele>391.0</ele><time>2026-05-03T15:28:16.307Z</time></trkpt><trkpt lat="44.9218039" lon="7.3329511"><ele>391.0</ele><time>2026-05-03T15:28:17.307Z</time></trkpt><trkpt lat="44.9217171" lon="7.3330042"><ele>391.0</ele><time>2026-05-03T15:28:18.309Z</time></trkpt><trkpt lat="44.9216286" lon="7.3330649"><ele>391.0</ele><time>2026-05-03T15:28:19.307Z</time></trkpt><trkpt lat="44.9215365" lon="7.3331332"><ele>389.25</ele><time>2026-05-03T15:28:20.306Z</time></trkpt><trkpt lat="44.9214459" lon="7.3332198"><ele>387.5</ele><time>2026-05-03T15:28:21.307Z</time></trkpt><trkpt lat="44.9213566" lon="7.3333122"><ele>385.75</ele><time>2026-05-03T15:28:22.307Z</time></trkpt><trkpt lat="44.9212662" lon="7.3334179"><ele>384.0</ele><time>2026-05-03T15:28:23.309Z</time></trkpt><trkpt lat="44.9211725" lon="7.3335289"><ele>384.0</ele><time>2026-05-03T15:28:24.308Z</time></trkpt><trkpt lat="44.9210735" lon="7.3336378"><ele>384.0</ele><time>2026-05-03T15:28:25.307Z</time></trkpt><trkpt lat="44.9209686" lon="7.3337462"><ele>384.0</ele><time>2026-05-03T15:28:26.306Z</time></trkpt><trkpt lat="44.9208589" lon="7.3338469"><ele>384.0</ele><time>2026-05-03T15:28:27.306Z</time></trkpt><trkpt lat="44.9207516" lon="7.3339368"><ele>382.0</ele><time>2026-05-03T15:28:28.306Z</time></trkpt><trkpt lat="44.920649" lon="7.3340117"><ele>380.0</ele><time>2026-05-03T15:28:29.307Z</time></trkpt><trkpt lat="44.9205403" lon="7.3340919"><ele>378.0</ele><time>2026-05-03T15:28:30.307Z</time></trkpt><trkpt lat="44.9204224" lon="7.3341769"><ele>376.0</ele><time>2026-05-03T15:28:31.307Z</time></trkpt><trkpt lat="44.9203036" lon="7.3342493"><ele>376.0</ele><time>2026-05-03T15:28:32.307Z</time></trkpt><trkpt lat="44.9201888" lon="7.3343138"><ele>376.0</ele><time>2026-05-03T15:28:33.308Z</time></trkpt><trkpt lat="44.9200765" lon="7.3343705"><ele>376.0</ele><time>2026-05-03T15:28:34.307Z</time></trkpt><trkpt lat="44.9199611" lon="7.3344439"><ele>376.0</ele><time>2026-05-03T15:28:35.308Z</time></trkpt><trkpt lat="44.9198677" lon="7.3345365"><ele>375.20000000000005</ele><time>2026-05-03T15:28:36.307Z</time></trkpt><trkpt lat="44.9197858" lon="7.3346362"><ele>374.40000000000003</ele><time>2026-05-03T15:28:37.306Z</time></trkpt><trkpt lat="44.9197233" lon="7.3347589"><ele>373.6</ele><time>2026-05-03T15:28:38.309Z</time></trkpt><trkpt lat="44.919685" lon="7.3348951"><ele>372.8</ele><time>2026-05-03T15:28:39.306Z</time></trkpt><trkpt lat="44.9196653" lon="7.3350408"><ele>372.0</ele><time>2026-05-03T15:28:40.307Z</time></trkpt><trkpt lat="44.9196392" lon="7.3351949"><ele>371.5</ele><time>2026-05-03T15:28:41.306Z</time></trkpt><trkpt lat="44.9195964" lon="7.3353544"><ele>371.0</ele><time>2026-05-03T15:28:42.308Z</time></trkpt><trkpt lat="44.9195333" lon="7.3354954"><ele>370.5</ele><time>2026-05-03T15:28:43.307Z</time></trkpt><trkpt lat="44.9194559" lon="7.3356267"><ele>370.0</ele><time>2026-05-03T15:28:44.306Z</time></trkpt><trkpt lat="44.9193736" lon="7.3357384"><ele>369.4</ele><time>2026-05-03T15:28:45.307Z</time></trkpt><trkpt lat="44.9193" lon="7.3358358"><ele>368.8</ele><time>2026-05-03T15:28:46.306Z</time></trkpt><trkpt lat="44.9192361" lon="7.3359075"><ele>368.20000000000005</ele><time>2026-05-03T15:28:47.307Z</time></trkpt><trkpt lat="44.9191567" lon="7.3359852"><ele>367.6</ele><time>2026-05-03T15:28:49.307Z</time></trkpt><trkpt lat="44.919029" lon="7.3359633"><ele>367.0</ele><time>2026-05-03T15:28:51.307Z</time></trkpt><trkpt lat="44.9189293" lon="7.3359164"><ele>365.3333333333333</ele><time>2026-05-03T15:28:52.308Z</time></trkpt><trkpt lat="44.9187983" lon="7.335838"><ele>363.6666666666667</ele><time>2026-05-03T15:28:53.306Z</time></trkpt><trkpt lat="44.918643" lon="7.3357537"><ele>362.0</ele><time>2026-05-03T15:28:54.306Z</time></trkpt><trkpt lat="44.9184698" lon="7.3356656"><ele>361.0</ele><time>2026-05-03T15:28:55.307Z</time></trkpt><trkpt lat="44.9182904" lon="7.3355754"><ele>360.0</ele><time>2026-05-03T15:28:56.306Z</time></trkpt><trkpt lat="44.9181197" lon="7.3354947"><ele>359.0</ele><time>2026-05-03T15:28:57.307Z</time></trkpt><trkpt lat="44.9179573" lon="7.3354091"><ele>359.0</ele><time>2026-05-03T15:28:58.307Z</time></trkpt><trkpt lat="44.9178049" lon="7.3353354"><ele>359.0</ele><time>2026-05-03T15:28:59.307Z</time></trkpt><trkpt lat="44.9176634" lon="7.3352583"><ele>359.0</ele><time>2026-05-03T15:29:00.306Z</time></trkpt><trkpt lat="44.9175277" lon="7.3351846"><ele>357.6666666666667</ele><time>2026-05-03T15:29:01.308Z</time></trkpt><trkpt lat="44.9173884" lon="7.3351033"><ele>356.3333333333333</ele><time>2026-05-03T15:29:02.306Z</time></trkpt><trkpt lat="44.917245" lon="7.3350272"><ele>355.0</ele><time>2026-05-03T15:29:03.307Z</time></trkpt><trkpt lat="44.917103" lon="7.3349519"><ele>355.0</ele><time>2026-05-03T15:29:04.306Z</time></trkpt><trkpt lat="44.9169689" lon="7.3348659"><ele>355.0</ele><time>2026-05-03T15:29:05.308Z</time></trkpt><trkpt lat="44.9168395" lon="7.334788"><ele>355.0</ele><time>2026-05-03T15:29:06.307Z</time></trkpt><trkpt lat="44.9167128" lon="7.334703"><ele>355.0</ele><time>2026-05-03T15:29:07.306Z</time></trkpt><trkpt lat="44.916578" lon="7.3346268"><ele>356.0</ele><time>2026-05-03T15:29:08.307Z</time></trkpt><trkpt lat="44.9164374" lon="7.3345746"><ele>357.0</ele><time>2026-05-03T15:29:09.309Z</time></trkpt><trkpt lat="44.9162824" lon="7.3345505"><ele>358.0</ele><time>2026-05-03T15:29:10.308Z</time></trkpt><trkpt lat="44.9161267" lon="7.3345597"><ele>358.0</ele><time>2026-05-03T15:29:11.308Z</time></trkpt><trkpt lat="44.9159741" lon="7.3345883"><ele>358.0</ele><time>2026-05-03T15:29:12.308Z</time></trkpt><trkpt lat="44.9158289" lon="7.3346346"><ele>358.0</ele><time>2026-05-03T15:29:13.307Z</time></trkpt><trkpt lat="44.9156889" lon="7.3347081"><ele>357.0</ele><time>2026-05-03T15:29:14.308Z</time></trkpt><trkpt lat="44.9155351" lon="7.3347999"><ele>356.0</ele><time>2026-05-03T15:29:15.307Z</time></trkpt><trkpt lat="44.9153597" lon="7.3349058"><ele>355.0</ele><time>2026-05-03T15:29:16.307Z</time></trkpt><trkpt lat="44.9151778" lon="7.3350047"><ele>356.0</ele><time>2026-05-03T15:29:17.307Z</time></trkpt><trkpt lat="44.9150002" lon="7.3351061"><ele>357.0</ele><time>2026-05-03T15:29:18.307Z</time></trkpt><trkpt lat="44.914843" lon="7.33521"><ele>358.0</ele><time>2026-05-03T15:29:19.306Z</time></trkpt><trkpt lat="44.9146844" lon="7.3353118"><ele>358.0</ele><time>2026-05-03T15:29:20.307Z</time></trkpt><trkpt lat="44.914533" lon="7.3354086"><ele>358.0</ele><time>2026-05-03T15:29:21.307Z</time></trkpt><trkpt lat="44.9143985" lon="7.3354984"><ele>358.0</ele><time>2026-05-03T15:29:22.307Z</time></trkpt><trkpt lat="44.9142771" lon="7.3355902"><ele>359.4</ele><time>2026-05-03T15:29:23.307Z</time></trkpt><trkpt lat="44.914168" lon="7.335668"><ele>360.79999999999995</ele><time>2026-05-03T15:29:24.308Z</time></trkpt><trkpt lat="44.9140663" lon="7.3357408"><ele>362.2</ele><time>2026-05-03T15:29:25.306Z</time></trkpt><trkpt lat="44.9139695" lon="7.3358092"><ele>363.6</ele><time>2026-05-03T15:29:26.307Z</time></trkpt><trkpt lat="44.9138816" lon="7.3358671"><ele>365.0</ele><time>2026-05-03T15:29:27.307Z</time></trkpt><trkpt lat="44.9138136" lon="7.3359054"><ele>365.0</ele><time>2026-05-03T15:29:28.307Z</time></trkpt><trkpt lat="44.9137542" lon="7.3359433"><ele>365.0</ele><time>2026-05-03T15:29:29.306Z</time></trkpt><trkpt lat="44.9136388" lon="7.3359879"><ele>365.0</ele><time>2026-05-03T15:29:31.306Z</time></trkpt><trkpt lat="44.913568" lon="7.3359994"><ele>365.0</ele><time>2026-05-03T15:29:32.308Z</time></trkpt><trkpt lat="44.9134917" lon="7.3360071"><ele>365.0</ele><time>2026-05-03T15:29:33.307Z</time></trkpt><trkpt lat="44.9134046" lon="7.3360107"><ele>365.0</ele><time>2026-05-03T15:29:34.306Z</time></trkpt><trkpt lat="44.9133172" lon="7.3360133"><ele>366.0</ele><time>2026-05-03T15:29:35.308Z</time></trkpt><trkpt lat="44.9132003" lon="7.3360342"><ele>367.0</ele><time>2026-05-03T15:29:36.309Z</time></trkpt><trkpt lat="44.9130875" lon="7.3360372"><ele>368.0</ele><time>2026-05-03T15:29:37.307Z</time></trkpt><trkpt lat="44.9129702" lon="7.3360391"><ele>369.0</ele><time>2026-05-03T15:29:38.306Z</time></trkpt><trkpt lat="44.9128599" lon="7.3360648"><ele>369.0</ele><time>2026-05-03T15:29:39.308Z</time></trkpt><trkpt lat="44.912744" lon="7.3360915"><ele>369.0</ele><time>2026-05-03T15:29:40.307Z</time></trkpt><trkpt lat="44.9126253" lon="7.3361202"><ele>369.0</ele><time>2026-05-03T15:29:41.308Z</time></trkpt><trkpt lat="44.9125063" lon="7.3361539"><ele>369.0</ele><time>2026-05-03T15:29:42.308Z</time></trkpt><trkpt lat="44.9123878" lon="7.3361944"><ele>368.0</ele><time>2026-05-03T15:29:43.307Z</time></trkpt><trkpt lat="44.912261" lon="7.3362318"><ele>367.0</ele><time>2026-05-03T15:29:44.307Z</time></trkpt><trkpt lat="44.9121356" lon="7.336264"><ele>366.0</ele><time>2026-05-03T15:29:45.306Z</time></trkpt><trkpt lat="44.9120145" lon="7.336306"><ele>365.0</ele><time>2026-05-03T15:29:46.308Z</time></trkpt><trkpt lat="44.9118952" lon="7.3363429"><ele>365.0</ele><time>2026-05-03T15:29:47.307Z</time></trkpt><trkpt lat="44.9117754" lon="7.336379"><ele>365.0</ele><time>2026-05-03T15:29:48.306Z</time></trkpt><trkpt lat="44.9116218" lon="7.3364428"><ele>365.0</ele><time>2026-05-03T15:29:49.666Z</time></trkpt><trkpt lat="44.9114349" lon="7.3365291"><ele>365.0</ele><time>2026-05-03T15:29:51.307Z</time></trkpt><trkpt lat="44.9113292" lon="7.3366042"><ele>365.0</ele><time>2026-05-03T15:29:52.308Z</time></trkpt><trkpt lat="44.9112195" lon="7.3367012"><ele>365.0</ele><time>2026-05-03T15:29:53.306Z</time></trkpt><trkpt lat="44.9111205" lon="7.3368245"><ele>365.0</ele><time>2026-05-03T15:29:54.307Z</time></trkpt><trkpt lat="44.9110216" lon="7.3369495"><ele>365.0</ele><time>2026-05-03T15:29:55.306Z</time></trkpt><trkpt lat="44.9109457" lon="7.3371034"><ele>365.0</ele><time>2026-05-03T15:29:56.307Z</time></trkpt><trkpt lat="44.910871" lon="7.337261"><ele>365.0</ele><time>2026-05-03T15:29:57.307Z</time></trkpt><trkpt lat="44.9107955" lon="7.3374363"><ele>365.0</ele><time>2026-05-03T15:29:58.306Z</time></trkpt><trkpt lat="44.9107275" lon="7.3376269"><ele>365.0</ele><time>2026-05-03T15:29:59.307Z</time></trkpt><trkpt lat="44.9106609" lon="7.3378283"><ele>365.0</ele><time>2026-05-03T15:30:00.307Z</time></trkpt><trkpt lat="44.910596" lon="7.3380311"><ele>365.0</ele><time>2026-05-03T15:30:01.307Z</time></trkpt><trkpt lat="44.9105314" lon="7.3382454"><ele>363.33333333333337</ele><time>2026-05-03T15:30:02.307Z</time></trkpt><trkpt lat="44.9104691" lon="7.3384577"><ele>361.6666666666667</ele><time>2026-05-03T15:30:03.306Z</time></trkpt><trkpt lat="44.910408" lon="7.3386559"><ele>360.0</ele><time>2026-05-03T15:30:04.307Z</time></trkpt><trkpt lat="44.910352" lon="7.3388577"><ele>359.5</ele><time>2026-05-03T15:30:05.307Z</time></trkpt><trkpt lat="44.9103054" lon="7.3390583"><ele>359.0</ele><time>2026-05-03T15:30:06.306Z</time></trkpt><trkpt lat="44.9102627" lon="7.3392501"><ele>358.5</ele><time>2026-05-03T15:30:07.307Z</time></trkpt><trkpt lat="44.9102188" lon="7.3394387"><ele>358.0</ele><time>2026-05-03T15:30:08.306Z</time></trkpt><trkpt lat="44.9101878" lon="7.3396438"><ele>357.25</ele><time>2026-05-03T15:30:09.309Z</time></trkpt><trkpt lat="44.9101636" lon="7.3398494"><ele>356.5</ele><time>2026-05-03T15:30:10.308Z</time></trkpt><trkpt lat="44.9101464" lon="7.3400418"><ele>355.75</ele><time>2026-05-03T15:30:11.306Z</time></trkpt><trkpt lat="44.9101401" lon="7.3402425"><ele>355.0</ele><time>2026-05-03T15:30:12.307Z</time></trkpt><trkpt lat="44.9101401" lon="7.3404516"><ele>354.0</ele><time>2026-05-03T15:30:13.307Z</time></trkpt><trkpt lat="44.9101453" lon="7.3406685"><ele>353.0</ele><time>2026-05-03T15:30:14.307Z</time></trkpt><trkpt lat="44.9101592" lon="7.3408798"><ele>352.0</ele><time>2026-05-03T15:30:15.306Z</time></trkpt><trkpt lat="44.9101674" lon="7.3410911"><ele>352.0</ele><time>2026-05-03T15:30:16.306Z</time></trkpt><trkpt lat="44.9101935" lon="7.3412861"><ele>352.0</ele><time>2026-05-03T15:30:17.307Z</time></trkpt><trkpt lat="44.9102239" lon="7.3414873"><ele>352.0</ele><time>2026-05-03T15:30:18.306Z</time></trkpt><trkpt lat="44.9102667" lon="7.3416775"><ele>352.0</ele><time>2026-05-03T15:30:19.306Z</time></trkpt><trkpt lat="44.9103123" lon="7.341845"><ele>351.25</ele><time>2026-05-03T15:30:20.307Z</time></trkpt><trkpt lat="44.9103633" lon="7.3420117"><ele>350.5</ele><time>2026-05-03T15:30:21.306Z</time></trkpt><trkpt lat="44.9104011" lon="7.3421738"><ele>349.75</ele><time>2026-05-03T15:30:22.306Z</time></trkpt><trkpt lat="44.9104142" lon="7.3423482"><ele>349.0</ele><time>2026-05-03T15:30:23.308Z</time></trkpt><trkpt lat="44.9104203" lon="7.3425463"><ele>348.75</ele><time>2026-05-03T15:30:24.306Z</time></trkpt><trkpt lat="44.9104043" lon="7.3427421"><ele>348.5</ele><time>2026-05-03T15:30:25.308Z</time></trkpt><trkpt lat="44.9103811" lon="7.3429406"><ele>348.25</ele><time>2026-05-03T15:30:26.306Z</time></trkpt><trkpt lat="44.9103457" lon="7.3431487"><ele>348.0</ele><time>2026-05-03T15:30:27.306Z</time></trkpt><trkpt lat="44.9102932" lon="7.3433724"><ele>348.0</ele><time>2026-05-03T15:30:28.306Z</time></trkpt><trkpt lat="44.9102314" lon="7.3436005"><ele>348.0</ele><time>2026-05-03T15:30:29.306Z</time></trkpt><trkpt lat="44.9101608" lon="7.3438437"><ele>348.0</ele><time>2026-05-03T15:30:30.307Z</time></trkpt><trkpt lat="44.9100913" lon="7.344077"><ele>349.3333333333333</ele><time>2026-05-03T15:30:31.306Z</time></trkpt><trkpt lat="44.9100278" lon="7.3442961"><ele>350.66666666666663</ele><time>2026-05-03T15:30:32.306Z</time></trkpt><trkpt lat="44.9099625" lon="7.3444949"><ele>352.0</ele><time>2026-05-03T15:30:33.307Z</time></trkpt><trkpt lat="44.9099047" lon="7.3446879"><ele>351.25</ele><time>2026-05-03T15:30:34.307Z</time></trkpt><trkpt lat="44.9098311" lon="7.3448575"><ele>350.5</ele><time>2026-05-03T15:30:35.307Z</time></trkpt><trkpt lat="44.9097508" lon="7.3450208"><ele>349.75</ele><time>2026-05-03T15:30:36.306Z</time></trkpt><trkpt lat="44.9096633" lon="7.3451713"><ele>349.0</ele><time>2026-05-03T15:30:37.306Z</time></trkpt><trkpt lat="44.9095917" lon="7.3453179"><ele>349.0</ele><time>2026-05-03T15:30:38.306Z</time></trkpt><trkpt lat="44.9095468" lon="7.3454759"><ele>349.0</ele><time>2026-05-03T15:30:39.307Z</time></trkpt><trkpt lat="44.9095163" lon="7.345658"><ele>349.0</ele><time>2026-05-03T15:30:40.308Z</time></trkpt><trkpt lat="44.9095295" lon="7.345853"><ele>349.0</ele><time>2026-05-03T15:30:41.307Z</time></trkpt><trkpt lat="44.9095577" lon="7.346046"><ele>348.3333333333333</ele><time>2026-05-03T15:30:42.306Z</time></trkpt><trkpt lat="44.9095848" lon="7.3462495"><ele>347.6666666666667</ele><time>2026-05-03T15:30:43.306Z</time></trkpt><trkpt lat="44.9096144" lon="7.3464587"><ele>347.0</ele><time>2026-05-03T15:30:44.308Z</time></trkpt><trkpt lat="44.9096428" lon="7.3466779"><ele>346.33333333333337</ele><time>2026-05-03T15:30:45.308Z</time></trkpt><trkpt lat="44.9096705" lon="7.3468936"><ele>345.6666666666667</ele><time>2026-05-03T15:30:46.307Z</time></trkpt><trkpt lat="44.9097036" lon="7.3471104"><ele>345.0</ele><time>2026-05-03T15:30:47.307Z</time></trkpt><trkpt lat="44.909733" lon="7.3473284"><ele>344.3333333333333</ele><time>2026-05-03T15:30:48.307Z</time></trkpt><trkpt lat="44.9097555" lon="7.3475488"><ele>343.66666666666663</ele><time>2026-05-03T15:30:49.307Z</time></trkpt><trkpt lat="44.9097658" lon="7.347768"><ele>343.0</ele><time>2026-05-03T15:30:50.307Z</time></trkpt><trkpt lat="44.9097713" lon="7.3479903"><ele>342.3333333333333</ele><time>2026-05-03T15:30:51.308Z</time></trkpt><trkpt lat="44.9097804" lon="7.3482119"><ele>341.6666666666667</ele><time>2026-05-03T15:30:52.307Z</time></trkpt><trkpt lat="44.9097998" lon="7.3484342"><ele>341.0</ele><time>2026-05-03T15:30:53.308Z</time></trkpt><trkpt lat="44.9098212" lon="7.3486494"><ele>341.0</ele><time>2026-05-03T15:30:54.307Z</time></trkpt><trkpt lat="44.9098432" lon="7.3488615"><ele>341.0</ele><time>2026-05-03T15:30:55.307Z</time></trkpt><trkpt lat="44.9098599" lon="7.3490673"><ele>341.0</ele><time>2026-05-03T15:30:56.306Z</time></trkpt><trkpt lat="44.9098634" lon="7.3492674"><ele>341.0</ele><time>2026-05-03T15:30:57.307Z</time></trkpt><trkpt lat="44.9098542" lon="7.3494523"><ele>340.75</ele><time>2026-05-03T15:30:58.306Z</time></trkpt><trkpt lat="44.9098209" lon="7.3496384"><ele>340.5</ele><time>2026-05-03T15:30:59.307Z</time></trkpt><trkpt lat="44.9097672" lon="7.3498106"><ele>340.25</ele><time>2026-05-03T15:31:00.306Z</time></trkpt><trkpt lat="44.9096978" lon="7.3499714"><ele>340.0</ele><time>2026-05-03T15:31:01.306Z</time></trkpt><trkpt lat="44.9096283" lon="7.3501274"><ele>339.25</ele><time>2026-05-03T15:31:02.307Z</time></trkpt><trkpt lat="44.9095564" lon="7.3502679"><ele>338.5</ele><time>2026-05-03T15:31:03.306Z</time></trkpt><trkpt lat="44.9094802" lon="7.3503977"><ele>337.75</ele><time>2026-05-03T15:31:04.307Z</time></trkpt><trkpt lat="44.909397" lon="7.3504962"><ele>337.0</ele><time>2026-05-03T15:31:05.307Z</time></trkpt><trkpt lat="44.9093256" lon="7.3505927"><ele>336.6</ele><time>2026-05-03T15:31:06.307Z</time></trkpt><trkpt lat="44.9092473" lon="7.3506778"><ele>336.20000000000005</ele><time>2026-05-03T15:31:07.306Z</time></trkpt><trkpt lat="44.9091691" lon="7.3507732"><ele>335.8</ele><time>2026-05-03T15:31:08.307Z</time></trkpt><trkpt lat="44.9090856" lon="7.3508565"><ele>335.4</ele><time>2026-05-03T15:31:09.306Z</time></trkpt><trkpt lat="44.909012" lon="7.3509272"><ele>335.0</ele><time>2026-05-03T15:31:10.307Z</time></trkpt><trkpt lat="44.908931" lon="7.3510228"><ele>335.0</ele><time>2026-05-03T15:31:12.306Z</time></trkpt><trkpt lat="44.9090227" lon="7.3509372"><ele>335.0</ele><time>2026-05-03T15:31:19.306Z</time></trkpt><trkpt lat="44.9090963" lon="7.3508691"><ele>335.0</ele><time>2026-05-03T15:31:20.307Z</time></trkpt><trkpt lat="44.9091899" lon="7.3507846"><ele>335.0</ele><time>2026-05-03T15:31:21.307Z</time></trkpt><trkpt lat="44.9092744" lon="7.350696"><ele>335.0</ele><time>2026-05-03T15:31:22.307Z</time></trkpt><trkpt lat="44.9093629" lon="7.3506025"><ele>335.4</ele><time>2026-05-03T15:31:23.306Z</time></trkpt><trkpt lat="44.9094507" lon="7.3504913"><ele>335.8</ele><time>2026-05-03T15:31:24.306Z</time></trkpt><trkpt lat="44.909528" lon="7.350375"><ele>336.20000000000005</ele><time>2026-05-03T15:31:25.305Z</time></trkpt><trkpt lat="44.9095906" lon="7.3502534"><ele>336.6</ele><time>2026-05-03T15:31:26.306Z</time></trkpt><trkpt lat="44.9096374" lon="7.3501376"><ele>337.0</ele><time>2026-05-03T15:31:27.306Z</time></trkpt><trkpt lat="44.9096862" lon="7.3500294"><ele>337.0</ele><time>2026-05-03T15:31:28.306Z</time></trkpt><trkpt lat="44.9097256" lon="7.3499373"><ele>337.0</ele><time>2026-05-03T15:31:29.306Z</time></trkpt><trkpt lat="44.9097665" lon="7.3498338"><ele>337.0</ele><time>2026-05-03T15:31:30.306Z</time></trkpt><trkpt lat="44.909801" lon="7.3497294"><ele>337.0</ele><time>2026-05-03T15:31:31.306Z</time></trkpt><trkpt lat="44.9098273" lon="7.3496336"><ele>337.0</ele><time>2026-05-03T15:31:32.308Z</time></trkpt><trkpt lat="44.9098495" lon="7.3495364"><ele>337.0</ele><time>2026-05-03T15:31:33.306Z</time></trkpt><trkpt lat="44.9098728" lon="7.349358"><ele>337.6</ele><time>2026-05-03T15:31:35.307Z</time></trkpt><trkpt lat="44.9098764" lon="7.3492474"><ele>338.20000000000005</ele><time>2026-05-03T15:31:36.307Z</time></trkpt><trkpt lat="44.9098721" lon="7.3491218"><ele>338.8</ele><time>2026-05-03T15:31:37.307Z</time></trkpt><trkpt lat="44.9098705" lon="7.3489749"><ele>339.4</ele><time>2026-05-03T15:31:38.306Z</time></trkpt><trkpt lat="44.9098617" lon="7.3488249"><ele>340.0</ele><time>2026-05-03T15:31:39.307Z</time></trkpt><trkpt lat="44.909847" lon="7.3486767"><ele>340.25</ele><time>2026-05-03T15:31:40.307Z</time></trkpt><trkpt lat="44.9098336" lon="7.3485121"><ele>340.5</ele><time>2026-05-03T15:31:41.306Z</time></trkpt><trkpt lat="44.9098217" lon="7.3483498"><ele>340.75</ele><time>2026-05-03T15:31:42.306Z</time></trkpt><trkpt lat="44.9098084" lon="7.3481912"><ele>341.0</ele><time>2026-05-03T15:31:43.306Z</time></trkpt><trkpt lat="44.9097982" lon="7.3480381"><ele>341.5</ele><time>2026-05-03T15:31:44.306Z</time></trkpt><trkpt lat="44.9097909" lon="7.3478839"><ele>342.0</ele><time>2026-05-03T15:31:45.307Z</time></trkpt><trkpt lat="44.9097797" lon="7.3477266"><ele>342.5</ele><time>2026-05-03T15:31:46.307Z</time></trkpt><trkpt lat="44.9097731" lon="7.3475619"><ele>343.0</ele><time>2026-05-03T15:31:47.306Z</time></trkpt><trkpt lat="44.9097568" lon="7.347396"><ele>343.0</ele><time>2026-05-03T15:31:48.307Z</time></trkpt><trkpt lat="44.9097338" lon="7.3472277"><ele>343.0</ele><time>2026-05-03T15:31:49.307Z</time></trkpt><trkpt lat="44.9097072" lon="7.3470651"><ele>343.0</ele><time>2026-05-03T15:31:50.307Z</time></trkpt><trkpt lat="44.9096862" lon="7.3469063"><ele>343.0</ele><time>2026-05-03T15:31:51.307Z</time></trkpt><trkpt lat="44.9096701" lon="7.3467681"><ele>343.4</ele><time>2026-05-03T15:31:52.306Z</time></trkpt><trkpt lat="44.9096554" lon="7.3466508"><ele>343.79999999999995</ele><time>2026-05-03T15:31:53.305Z</time></trkpt><trkpt lat="44.9096212" lon="7.3465018"><ele>344.2</ele><time>2026-05-03T15:31:55.305Z</time></trkpt><trkpt lat="44.9095321" lon="7.3464923"><ele>344.6</ele><time>2026-05-03T15:31:57.307Z</time></trkpt><trkpt lat="44.9094624" lon="7.3465393"><ele>345.0</ele><time>2026-05-03T15:31:58.306Z</time></trkpt><trkpt lat="44.9093911" lon="7.3466164"><ele>345.0</ele><time>2026-05-03T15:31:59.306Z</time></trkpt><trkpt lat="44.9093138" lon="7.346692"><ele>345.0</ele><time>2026-05-03T15:32:00.306Z</time></trkpt><trkpt lat="44.909233" lon="7.3467714"><ele>345.0</ele><time>2026-05-03T15:32:01.306Z</time></trkpt><trkpt lat="44.9091528" lon="7.3468501"><ele>345.0</ele><time>2026-05-03T15:32:02.306Z</time></trkpt><trkpt lat="44.9090757" lon="7.3469305"><ele>345.0</ele><time>2026-05-03T15:32:03.306Z</time></trkpt><trkpt lat="44.9090014" lon="7.3470108"><ele>345.4</ele><time>2026-05-03T15:32:04.306Z</time></trkpt><trkpt lat="44.9089274" lon="7.3471015"><ele>345.8</ele><time>2026-05-03T15:32:05.307Z</time></trkpt><trkpt lat="44.9088496" lon="7.3471993"><ele>346.20000000000005</ele><time>2026-05-03T15:32:06.306Z</time></trkpt><trkpt lat="44.9087662" lon="7.34731"><ele>346.6</ele><time>2026-05-03T15:32:07.306Z</time></trkpt><trkpt lat="44.9086829" lon="7.3474248"><ele>347.0</ele><time>2026-05-03T15:32:08.307Z</time></trkpt><trkpt lat="44.9086075" lon="7.3475343"><ele>347.0</ele><time>2026-05-03T15:32:09.306Z</time></trkpt><trkpt lat="44.9085294" lon="7.3476443"><ele>347.0</ele><time>2026-05-03T15:32:10.305Z</time></trkpt><trkpt lat="44.908445" lon="7.3477409"><ele>347.0</ele><time>2026-05-03T15:32:11.306Z</time></trkpt><trkpt lat="44.9083547" lon="7.3478243"><ele>347.0</ele><time>2026-05-03T15:32:12.307Z</time></trkpt><trkpt lat="44.9082544" lon="7.3478904"><ele>347.0</ele><time>2026-05-03T15:32:13.305Z</time></trkpt><trkpt lat="44.9081424" lon="7.347934"><ele>347.8</ele><time>2026-05-03T15:32:14.306Z</time></trkpt><trkpt lat="44.9080276" lon="7.3479514"><ele>348.6</ele><time>2026-05-03T15:32:15.306Z</time></trkpt><trkpt lat="44.9079142" lon="7.3479486"><ele>349.40000000000003</ele><time>2026-05-03T15:32:16.307Z</time></trkpt><trkpt lat="44.907801" lon="7.3479434"><ele>350.20000000000005</ele><time>2026-05-03T15:32:17.307Z</time></trkpt><trkpt lat="44.9076979" lon="7.34794"><ele>351.0</ele><time>2026-05-03T15:32:18.306Z</time></trkpt><trkpt lat="44.9076057" lon="7.3479395"><ele>351.8333333333333</ele><time>2026-05-03T15:32:19.305Z</time></trkpt><trkpt lat="44.9075257" lon="7.3479427"><ele>352.6666666666667</ele><time>2026-05-03T15:32:20.305Z</time></trkpt><trkpt lat="44.9074602" lon="7.3479107"><ele>353.5</ele><time>2026-05-03T15:32:21.307Z</time></trkpt><trkpt lat="44.907392" lon="7.3478493"><ele>354.33333333333337</ele><time>2026-05-03T15:32:22.306Z</time></trkpt><trkpt lat="44.9073049" lon="7.3477881"><ele>355.1666666666667</ele><time>2026-05-03T15:32:23.307Z</time></trkpt><trkpt lat="44.907216" lon="7.3477518"><ele>356.0</ele><time>2026-05-03T15:32:24.307Z</time></trkpt><trkpt lat="44.9071153" lon="7.3477641"><ele>356.0</ele><time>2026-05-03T15:32:25.306Z</time></trkpt><trkpt lat="44.9070167" lon="7.3478059"><ele>356.0</ele><time>2026-05-03T15:32:26.306Z</time></trkpt><trkpt lat="44.9069131" lon="7.3478565"><ele>356.0</ele><time>2026-05-03T15:32:27.307Z</time></trkpt><trkpt lat="44.9068043" lon="7.347904"><ele>356.0</ele><time>2026-05-03T15:32:28.306Z</time></trkpt><trkpt lat="44.906702" lon="7.3479458"><ele>356.0</ele><time>2026-05-03T15:32:29.307Z</time></trkpt><trkpt lat="44.9065907" lon="7.3479927"><ele>356.8</ele><time>2026-05-03T15:32:30.306Z</time></trkpt><trkpt lat="44.9064786" lon="7.3480456"><ele>357.6</ele><time>2026-05-03T15:32:31.307Z</time></trkpt><trkpt lat="44.906371" lon="7.3480963"><ele>358.4</ele><time>2026-05-03T15:32:32.307Z</time></trkpt><trkpt lat="44.9062696" lon="7.3481359"><ele>359.2</ele><time>2026-05-03T15:32:33.307Z</time></trkpt><trkpt lat="44.9061789" lon="7.3481778"><ele>360.0</ele><time>2026-05-03T15:32:34.306Z</time></trkpt><trkpt lat="44.9061168" lon="7.3482092"><ele>360.0</ele><time>2026-05-03T15:32:35.308Z</time></trkpt><trkpt lat="44.9059867" lon="7.3482506"><ele>360.0</ele><time>2026-05-03T15:32:37.306Z</time></trkpt><trkpt lat="44.9058958" lon="7.3482766"><ele>360.0</ele><time>2026-05-03T15:32:38.305Z</time></trkpt><trkpt lat="44.9057941" lon="7.3483065"><ele>360.0</ele><time>2026-05-03T15:32:39.307Z</time></trkpt><trkpt lat="44.9056801" lon="7.3483337"><ele>360.0</ele><time>2026-05-03T15:32:40.306Z</time></trkpt><trkpt lat="44.9055629" lon="7.3483588"><ele>362.6</ele><time>2026-05-03T15:32:41.307Z</time></trkpt><trkpt lat="44.9054498" lon="7.3483835"><ele>365.2</ele><time>2026-05-03T15:32:42.306Z</time></trkpt><trkpt lat="44.9053393" lon="7.3484026"><ele>367.79999999999995</ele><time>2026-05-03T15:32:43.305Z</time></trkpt><trkpt lat="44.9052439" lon="7.3484335"><ele>370.4</ele><time>2026-05-03T15:32:44.306Z</time></trkpt><trkpt lat="44.9051659" lon="7.3484575"><ele>373.0</ele><time>2026-05-03T15:32:45.306Z</time></trkpt><trkpt lat="44.9050949" lon="7.34847"><ele>375.66666666666663</ele><time>2026-05-03T15:32:46.307Z</time></trkpt><trkpt lat="44.905021" lon="7.3484738"><ele>378.3333333333333</ele><time>2026-05-03T15:32:47.306Z</time></trkpt><trkpt lat="44.9049479" lon="7.3484418"><ele>381.0</ele><time>2026-05-03T15:32:48.306Z</time></trkpt><trkpt lat="44.9048866" lon="7.3483745"><ele>383.66666666666663</ele><time>2026-05-03T15:32:49.305Z</time></trkpt><trkpt lat="44.9048302" lon="7.3482752"><ele>386.3333333333333</ele><time>2026-05-03T15:32:50.306Z</time></trkpt><trkpt lat="44.904782" lon="7.348156"><ele>389.0</ele><time>2026-05-03T15:32:51.306Z</time></trkpt><trkpt lat="44.9047369" lon="7.3480271"><ele>389.8333333333333</ele><time>2026-05-03T15:32:52.305Z</time></trkpt><trkpt lat="44.904696" lon="7.347914"><ele>390.66666666666663</ele><time>2026-05-03T15:32:53.306Z</time></trkpt><trkpt lat="44.9046656" lon="7.3478282"><ele>391.5</ele><time>2026-05-03T15:32:54.306Z</time></trkpt><trkpt lat="44.9045728" lon="7.3477713"><ele>392.33333333333337</ele><time>2026-05-03T15:32:56.308Z</time></trkpt><trkpt lat="44.9045017" lon="7.3477683"><ele>393.1666666666667</ele><time>2026-05-03T15:32:57.306Z</time></trkpt><trkpt lat="44.9044228" lon="7.3477896"><ele>394.0</ele><time>2026-05-03T15:32:58.306Z</time></trkpt><trkpt lat="44.9043393" lon="7.3478107"><ele>395.79999999999995</ele><time>2026-05-03T15:32:59.307Z</time></trkpt><trkpt lat="44.9042409" lon="7.3478346"><ele>397.59999999999997</ele><time>2026-05-03T15:33:00.305Z</time></trkpt><trkpt lat="44.9041489" lon="7.3478688"><ele>399.4</ele><time>2026-05-03T15:33:01.305Z</time></trkpt><trkpt lat="44.9040599" lon="7.3478967"><ele>401.2</ele><time>2026-05-03T15:33:02.307Z</time></trkpt><trkpt lat="44.9039782" lon="7.3479216"><ele>403.0</ele><time>2026-05-03T15:33:03.307Z</time></trkpt><trkpt lat="44.9038998" lon="7.347955"><ele>403.00000000000006</ele><time>2026-05-03T15:33:04.307Z</time></trkpt><trkpt lat="44.9038199" lon="7.3479764"><ele>403.0</ele><time>2026-05-03T15:33:05.306Z</time></trkpt><trkpt lat="44.9037462" lon="7.348009"><ele>403.0</ele><time>2026-05-03T15:33:06.308Z</time></trkpt><trkpt lat="44.9036715" lon="7.348043"><ele>403.0</ele><time>2026-05-03T15:33:07.306Z</time></trkpt><trkpt lat="44.9036192" lon="7.3480936"><ele>403.00000000000006</ele><time>2026-05-03T15:33:08.306Z</time></trkpt><trkpt lat="44.9035568" lon="7.3481969"><ele>403.0</ele><time>2026-05-03T15:33:09.307Z</time></trkpt><trkpt lat="44.9034893" lon="7.3482957"><ele>401.4</ele><time>2026-05-03T15:33:10.305Z</time></trkpt><trkpt lat="44.9034305" lon="7.3483698"><ele>399.79999999999995</ele><time>2026-05-03T15:33:11.307Z</time></trkpt><trkpt lat="44.9033417" lon="7.3484159"><ele>398.2</ele><time>2026-05-03T15:33:12.305Z</time></trkpt><trkpt lat="44.9032464" lon="7.3484385"><ele>396.6</ele><time>2026-05-03T15:33:13.306Z</time></trkpt><trkpt lat="44.9031454" lon="7.3484262"><ele>395.0</ele><time>2026-05-03T15:33:14.306Z</time></trkpt><trkpt lat="44.9030393" lon="7.3484036"><ele>395.0</ele><time>2026-05-03T15:33:15.307Z</time></trkpt><trkpt lat="44.9029465" lon="7.3483756"><ele>395.0</ele><time>2026-05-03T15:33:16.305Z</time></trkpt><trkpt lat="44.9028519" lon="7.3483592"><ele>395.0</ele><time>2026-05-03T15:33:17.306Z</time></trkpt><trkpt lat="44.902762" lon="7.3483632"><ele>395.0</ele><time>2026-05-03T15:33:18.305Z</time></trkpt><trkpt lat="44.9026663" lon="7.3483848"><ele>395.0</ele><time>2026-05-03T15:33:19.305Z</time></trkpt><trkpt lat="44.9025777" lon="7.348406"><ele>395.8</ele><time>2026-05-03T15:33:20.306Z</time></trkpt><trkpt lat="44.9024912" lon="7.3484043"><ele>396.6</ele><time>2026-05-03T15:33:21.305Z</time></trkpt><trkpt lat="44.9024104" lon="7.3484015"><ele>397.4</ele><time>2026-05-03T15:33:22.306Z</time></trkpt><trkpt lat="44.9023359" lon="7.3483785"><ele>398.2</ele><time>2026-05-03T15:33:23.305Z</time></trkpt><trkpt lat="44.9022468" lon="7.3483008"><ele>399.0</ele><time>2026-05-03T15:33:25.306Z</time></trkpt><trkpt lat="44.90216" lon="7.3481986"><ele>399.0</ele><time>2026-05-03T15:33:27.306Z</time></trkpt><trkpt lat="44.9021099" lon="7.3481377"><ele>399.0</ele><time>2026-05-03T15:33:28.307Z</time></trkpt><trkpt lat="44.9020535" lon="7.3480631"><ele>399.0</ele><time>2026-05-03T15:33:29.307Z</time></trkpt><trkpt lat="44.9019224" lon="7.348022"><ele>399.0</ele><time>2026-05-03T15:33:31.305Z</time></trkpt><trkpt lat="44.9018469" lon="7.3480164"><ele>399.0</ele><time>2026-05-03T15:33:32.306Z</time></trkpt><trkpt lat="44.9017675" lon="7.3480531"><ele>399.0</ele><time>2026-05-03T15:33:33.306Z</time></trkpt><trkpt lat="44.9016832" lon="7.3481404"><ele>398.8333333333333</ele><time>2026-05-03T15:33:34.305Z</time></trkpt><trkpt lat="44.9016345" lon="7.3482082"><ele>398.66666666666663</ele><time>2026-05-03T15:33:35.306Z</time></trkpt><trkpt lat="44.9015115" lon="7.3482464"><ele>398.5</ele><time>2026-05-03T15:33:36.307Z</time></trkpt><trkpt lat="44.9014378" lon="7.3482902"><ele>398.3333333333333</ele><time>2026-05-03T15:33:37.306Z</time></trkpt><trkpt lat="44.9013641" lon="7.3483383"><ele>398.16666666666663</ele><time>2026-05-03T15:33:38.306Z</time></trkpt><trkpt lat="44.901282" lon="7.3483726"><ele>398.0</ele><time>2026-05-03T15:33:39.307Z</time></trkpt><trkpt lat="44.9012126" lon="7.3483963"><ele>397.99999999999994</ele><time>2026-05-03T15:33:40.305Z</time></trkpt><trkpt lat="44.901132" lon="7.3484147"><ele>398.0</ele><time>2026-05-03T15:33:41.305Z</time></trkpt><trkpt lat="44.9010468" lon="7.3483959"><ele>398.0</ele><time>2026-05-03T15:33:42.307Z</time></trkpt><trkpt lat="44.9009725" lon="7.3483771"><ele>398.0</ele><time>2026-05-03T15:33:43.306Z</time></trkpt><trkpt lat="44.9008937" lon="7.348352"><ele>397.99999999999994</ele><time>2026-05-03T15:33:44.306Z</time></trkpt><trkpt lat="44.9008185" lon="7.3483309"><ele>398.0</ele><time>2026-05-03T15:33:45.306Z</time></trkpt><trkpt lat="44.900741" lon="7.3483108"><ele>399.2</ele><time>2026-05-03T15:33:46.306Z</time></trkpt><trkpt lat="44.9006739" lon="7.3483131"><ele>400.4</ele><time>2026-05-03T15:33:47.306Z</time></trkpt><trkpt lat="44.9006059" lon="7.3483827"><ele>401.59999999999997</ele><time>2026-05-03T15:33:48.306Z</time></trkpt><trkpt lat="44.9005322" lon="7.3484846"><ele>402.79999999999995</ele><time>2026-05-03T15:33:49.305Z</time></trkpt><trkpt lat="44.9004781" lon="7.3486069"><ele>404.0</ele><time>2026-05-03T15:33:50.305Z</time></trkpt><trkpt lat="44.9004271" lon="7.3487224"><ele>404.0</ele><time>2026-05-03T15:33:51.306Z</time></trkpt><trkpt lat="44.9003863" lon="7.3488454"><ele>404.0</ele><time>2026-05-03T15:33:52.306Z</time></trkpt><trkpt lat="44.900356" lon="7.3489698"><ele>404.0</ele><time>2026-05-03T15:33:53.306Z</time></trkpt><trkpt lat="44.9003315" lon="7.3491034"><ele>404.0</ele><time>2026-05-03T15:33:54.305Z</time></trkpt><trkpt lat="44.9003079" lon="7.3492191"><ele>404.0</ele><time>2026-05-03T15:33:55.306Z</time></trkpt><trkpt lat="44.900288" lon="7.34934"><ele>401.3333333333333</ele><time>2026-05-03T15:33:56.306Z</time></trkpt><trkpt lat="44.9002561" lon="7.3494337"><ele>398.66666666666663</ele><time>2026-05-03T15:33:57.306Z</time></trkpt><trkpt lat="44.9002288" lon="7.3495441"><ele>396.0</ele><time>2026-05-03T15:33:58.307Z</time></trkpt><trkpt lat="44.9001882" lon="7.3496452"><ele>393.33333333333337</ele><time>2026-05-03T15:33:59.306Z</time></trkpt><trkpt lat="44.900145" lon="7.3497445"><ele>390.6666666666667</ele><time>2026-05-03T15:34:00.306Z</time></trkpt><trkpt lat="44.9000972" lon="7.3498343"><ele>388.0</ele><time>2026-05-03T15:34:01.306Z</time></trkpt><trkpt lat="44.9000445" lon="7.3499137"><ele>388.00000000000006</ele><time>2026-05-03T15:34:02.307Z</time></trkpt><trkpt lat="44.899994" lon="7.3499818"><ele>388.0</ele><time>2026-05-03T15:34:03.306Z</time></trkpt><trkpt lat="44.8999171" lon="7.3500392"><ele>388.0</ele><time>2026-05-03T15:34:04.306Z</time></trkpt><trkpt lat="44.8998479" lon="7.3500804"><ele>388.0</ele><time>2026-05-03T15:34:05.306Z</time></trkpt><trkpt lat="44.8997659" lon="7.3501267"><ele>388.00000000000006</ele><time>2026-05-03T15:34:06.307Z</time></trkpt><trkpt lat="44.8996822" lon="7.350165"><ele>388.0</ele><time>2026-05-03T15:34:07.305Z</time></trkpt><trkpt lat="44.8996068" lon="7.3501565"><ele>388.00000000000006</ele><time>2026-05-03T15:34:08.306Z</time></trkpt><trkpt lat="44.899526" lon="7.3501702"><ele>388.0</ele><time>2026-05-03T15:34:09.307Z</time></trkpt><trkpt lat="44.899457" lon="7.3501741"><ele>388.0</ele><time>2026-05-03T15:34:10.307Z</time></trkpt><trkpt lat="44.8993922" lon="7.3502515"><ele>388.0</ele><time>2026-05-03T15:34:12.306Z</time></trkpt><trkpt lat="44.8993366" lon="7.3503113"><ele>388.00000000000006</ele><time>2026-05-03T15:34:14.306Z</time></trkpt><trkpt lat="44.8993058" lon="7.3504092"><ele>388.0</ele><time>2026-05-03T15:34:16.306Z</time></trkpt><trkpt lat="44.8992683" lon="7.3505041"><ele>388.0</ele><time>2026-05-03T15:34:18.307Z</time></trkpt><trkpt lat="44.8992039" lon="7.3505391"><ele>388.0</ele><time>2026-05-03T15:34:20.307Z</time></trkpt><trkpt lat="44.8991248" lon="7.3505506"><ele>388.0</ele><time>2026-05-03T15:34:23.305Z</time></trkpt><trkpt lat="44.8992141" lon="7.3505795"><ele>388.0</ele><time>2026-05-03T15:34:27.305Z</time></trkpt><trkpt lat="44.8992963" lon="7.3504836"><ele>388.0</ele><time>2026-05-03T15:34:29.306Z</time></trkpt><trkpt lat="44.8993351" lon="7.3503381"><ele>388.00000000000006</ele><time>2026-05-03T15:34:31.305Z</time></trkpt><trkpt lat="44.8993634" lon="7.3501887"><ele>388.0</ele><time>2026-05-03T15:34:33.305Z</time></trkpt><trkpt lat="44.8993765" lon="7.3500857"><ele>388.0</ele><time>2026-05-03T15:34:34.306Z</time></trkpt><trkpt lat="44.8993992" lon="7.3499995"><ele>388.0</ele><time>2026-05-03T15:34:35.306Z</time></trkpt><trkpt lat="44.8994122" lon="7.3499114"><ele>388.00000000000006</ele><time>2026-05-03T15:34:36.305Z</time></trkpt><trkpt lat="44.8994558" lon="7.3497615"><ele>388.0</ele><time>2026-05-03T15:34:38.305Z</time></trkpt><trkpt lat="44.8994997" lon="7.3496486"><ele>388.00000000000006</ele><time>2026-05-03T15:34:40.307Z</time></trkpt><trkpt lat="44.8995224" lon="7.3495423"><ele>388.0</ele><time>2026-05-03T15:34:42.306Z</time></trkpt><trkpt lat="44.8994796" lon="7.3496164"><ele>388.0</ele><time>2026-05-03T15:34:52.306Z</time></trkpt><trkpt lat="44.899462" lon="7.3497329"><ele>388.0</ele><time>2026-05-03T15:34:54.305Z</time></trkpt><trkpt lat="44.8994413" lon="7.3498679"><ele>388.00000000000006</ele><time>2026-05-03T15:34:56.305Z</time></trkpt><trkpt lat="44.8994074" lon="7.350014"><ele>388.0</ele><time>2026-05-03T15:34:58.307Z</time></trkpt><trkpt lat="44.8993941" lon="7.3501602"><ele>388.0</ele><time>2026-05-03T15:35:00.307Z</time></trkpt><trkpt lat="44.8993555" lon="7.350312"><ele>388.0</ele><time>2026-05-03T15:35:02.307Z</time></trkpt><trkpt lat="44.8993215" lon="7.3504584"><ele>388.0</ele><time>2026-05-03T15:35:04.306Z</time></trkpt><trkpt lat="44.8992494" lon="7.3505463"><ele>388.0</ele><time>2026-05-03T15:35:06.306Z</time></trkpt><trkpt lat="44.8991691" lon="7.3505017"><ele>388.0</ele><time>2026-05-03T15:35:08.307Z</time></trkpt><trkpt lat="44.8991337" lon="7.3503786"><ele>388.2</ele><time>2026-05-03T15:35:10.306Z</time></trkpt><trkpt lat="44.8990767" lon="7.3502289"><ele>388.4</ele><time>2026-05-03T15:35:12.307Z</time></trkpt><trkpt lat="44.8990208" lon="7.3501408"><ele>388.59999999999997</ele><time>2026-05-03T15:35:13.305Z</time></trkpt><trkpt lat="44.8989631" lon="7.3500426"><ele>388.79999999999995</ele><time>2026-05-03T15:35:14.305Z</time></trkpt><trkpt lat="44.8989006" lon="7.3499371"><ele>389.0</ele><time>2026-05-03T15:35:15.306Z</time></trkpt><trkpt lat="44.8988485" lon="7.3498393"><ele>388.99999999999994</ele><time>2026-05-03T15:35:16.307Z</time></trkpt><trkpt lat="44.8987934" lon="7.349743"><ele>389.0</ele><time>2026-05-03T15:35:17.305Z</time></trkpt><trkpt lat="44.8987417" lon="7.349646"><ele>389.0</ele><time>2026-05-03T15:35:18.306Z</time></trkpt><trkpt lat="44.8986868" lon="7.3495443"><ele>389.0</ele><time>2026-05-03T15:35:19.305Z</time></trkpt><trkpt lat="44.8986294" lon="7.3494464"><ele>388.99999999999994</ele><time>2026-05-03T15:35:20.305Z</time></trkpt><trkpt lat="44.898575" lon="7.349349"><ele>389.0</ele><time>2026-05-03T15:35:21.305Z</time></trkpt><trkpt lat="44.8985271" lon="7.3492375"><ele>389.79999999999995</ele><time>2026-05-03T15:35:22.305Z</time></trkpt><trkpt lat="44.8984699" lon="7.3491368"><ele>390.59999999999997</ele><time>2026-05-03T15:35:23.305Z</time></trkpt><trkpt lat="44.8984079" lon="7.349035"><ele>391.4</ele><time>2026-05-03T15:35:24.305Z</time></trkpt><trkpt lat="44.8983488" lon="7.3489142"><ele>392.2</ele><time>2026-05-03T15:35:25.305Z</time></trkpt><trkpt lat="44.898286" lon="7.3488063"><ele>393.0</ele><time>2026-05-03T15:35:26.305Z</time></trkpt><trkpt lat="44.8982217" lon="7.3486883"><ele>389.0</ele><time>2026-05-03T15:35:27.305Z</time></trkpt><trkpt lat="44.8981634" lon="7.3485628"><ele>385.0</ele><time>2026-05-03T15:35:28.305Z</time></trkpt><trkpt lat="44.8981024" lon="7.3484356"><ele>381.0</ele><time>2026-05-03T15:35:29.305Z</time></trkpt><trkpt lat="44.8980452" lon="7.3483072"><ele>377.0</ele><time>2026-05-03T15:35:30.305Z</time></trkpt><trkpt lat="44.8979953" lon="7.3481886"><ele>373.0</ele><time>2026-05-03T15:35:31.306Z</time></trkpt><trkpt lat="44.8979434" lon="7.3480649"><ele>373.0</ele><time>2026-05-03T15:35:32.305Z</time></trkpt><trkpt lat="44.8978927" lon="7.347939"><ele>373.0</ele><time>2026-05-03T15:35:33.306Z</time></trkpt><trkpt lat="44.8978006" lon="7.3477178"><ele>373.0</ele><time>2026-05-03T15:35:35.053Z</time></trkpt><trkpt lat="44.8977247" lon="7.3475837"><ele>373.0</ele><time>2026-05-03T15:35:36.307Z</time></trkpt><trkpt lat="44.8976675" lon="7.3474761"><ele>373.0</ele><time>2026-05-03T15:35:37.306Z</time></trkpt><trkpt lat="44.8976051" lon="7.3473677"><ele>373.0</ele><time>2026-05-03T15:35:38.305Z</time></trkpt><trkpt lat="44.8975453" lon="7.3472549"><ele>373.0</ele><time>2026-05-03T15:35:39.305Z</time></trkpt><trkpt lat="44.8974748" lon="7.347151"><ele>373.0</ele><time>2026-05-03T15:35:40.305Z</time></trkpt><trkpt lat="44.8974012" lon="7.3470614"><ele>373.0</ele><time>2026-05-03T15:35:41.306Z</time></trkpt><trkpt lat="44.897323" lon="7.346982"><ele>371.0</ele><time>2026-05-03T15:35:42.305Z</time></trkpt><trkpt lat="44.8972355" lon="7.3469038"><ele>369.0</ele><time>2026-05-03T15:35:43.306Z</time></trkpt><trkpt lat="44.8971516" lon="7.3468227"><ele>367.0</ele><time>2026-05-03T15:35:44.305Z</time></trkpt><trkpt lat="44.8970749" lon="7.3467498"><ele>365.0</ele><time>2026-05-03T15:35:45.307Z</time></trkpt><trkpt lat="44.8969992" lon="7.3466707"><ele>363.0</ele><time>2026-05-03T15:35:46.305Z</time></trkpt><trkpt lat="44.8969213" lon="7.3465956"><ele>363.0</ele><time>2026-05-03T15:35:47.306Z</time></trkpt><trkpt lat="44.8968402" lon="7.3465219"><ele>363.0</ele><time>2026-05-03T15:35:48.305Z</time></trkpt><trkpt lat="44.8967614" lon="7.346438"><ele>363.0</ele><time>2026-05-03T15:35:49.305Z</time></trkpt><trkpt lat="44.8966772" lon="7.3463548"><ele>363.0</ele><time>2026-05-03T15:35:50.305Z</time></trkpt><trkpt lat="44.8965928" lon="7.3462811"><ele>363.0</ele><time>2026-05-03T15:35:51.305Z</time></trkpt><trkpt lat="44.8964995" lon="7.3462185"><ele>363.1666666666667</ele><time>2026-05-03T15:35:52.305Z</time></trkpt><trkpt lat="44.8964131" lon="7.3461611"><ele>363.3333333333333</ele><time>2026-05-03T15:35:53.305Z</time></trkpt><trkpt lat="44.8963238" lon="7.3460998"><ele>363.5</ele><time>2026-05-03T15:35:54.305Z</time></trkpt><trkpt lat="44.8962407" lon="7.3460453"><ele>363.66666666666663</ele><time>2026-05-03T15:35:55.305Z</time></trkpt><trkpt lat="44.8961644" lon="7.3460119"><ele>363.8333333333333</ele><time>2026-05-03T15:35:56.306Z</time></trkpt><trkpt lat="44.8960901" lon="7.3459823"><ele>364.0</ele><time>2026-05-03T15:35:57.305Z</time></trkpt><trkpt lat="44.8960184" lon="7.3459498"><ele>364.0</ele><time>2026-05-03T15:35:58.306Z</time></trkpt><trkpt lat="44.8959339" lon="7.3459121"><ele>364.0</ele><time>2026-05-03T15:35:59.306Z</time></trkpt><trkpt lat="44.8958435" lon="7.3458777"><ele>364.0</ele><time>2026-05-03T15:36:00.306Z</time></trkpt><trkpt lat="44.8957476" lon="7.3458266"><ele>364.0</ele><time>2026-05-03T15:36:01.306Z</time></trkpt><trkpt lat="44.8956388" lon="7.3457785"><ele>364.0</ele><time>2026-05-03T15:36:02.305Z</time></trkpt><trkpt lat="44.8955242" lon="7.3457262"><ele>363.5</ele><time>2026-05-03T15:36:03.306Z</time></trkpt><trkpt lat="44.8954083" lon="7.3456856"><ele>363.0</ele><time>2026-05-03T15:36:04.306Z</time></trkpt><trkpt lat="44.8952972" lon="7.3456505"><ele>362.5</ele><time>2026-05-03T15:36:05.305Z</time></trkpt><trkpt lat="44.8951918" lon="7.3456136"><ele>362.0</ele><time>2026-05-03T15:36:06.307Z</time></trkpt><trkpt lat="44.8950872" lon="7.345576"><ele>361.8</ele><time>2026-05-03T15:36:07.305Z</time></trkpt><trkpt lat="44.8949744" lon="7.3455325"><ele>361.6</ele><time>2026-05-03T15:36:08.306Z</time></trkpt><trkpt lat="44.8948642" lon="7.3454959"><ele>361.40000000000003</ele><time>2026-05-03T15:36:09.305Z</time></trkpt><trkpt lat="44.89476" lon="7.3454634"><ele>361.20000000000005</ele><time>2026-05-03T15:36:10.305Z</time></trkpt><trkpt lat="44.8946611" lon="7.3454289"><ele>361.0</ele><time>2026-05-03T15:36:11.305Z</time></trkpt><trkpt lat="44.8945648" lon="7.3453953"><ele>361.0</ele><time>2026-05-03T15:36:12.305Z</time></trkpt><trkpt lat="44.894469" lon="7.3453611"><ele>361.0</ele><time>2026-05-03T15:36:13.306Z</time></trkpt><trkpt lat="44.894379" lon="7.3453317"><ele>361.0</ele><time>2026-05-03T15:36:14.307Z</time></trkpt><trkpt lat="44.8942959" lon="7.3453008"><ele>361.0</ele><time>2026-05-03T15:36:15.307Z</time></trkpt><trkpt lat="44.8942253" lon="7.3452682"><ele>361.0</ele><time>2026-05-03T15:36:16.305Z</time></trkpt><trkpt lat="44.8941199" lon="7.3452259"><ele>360.66666666666663</ele><time>2026-05-03T15:36:18.305Z</time></trkpt><trkpt lat="44.8940549" lon="7.3451883"><ele>360.3333333333333</ele><time>2026-05-03T15:36:20.307Z</time></trkpt><trkpt lat="44.8939846" lon="7.3450721"><ele>360.0</ele><time>2026-05-03T15:36:22.306Z</time></trkpt><trkpt lat="44.8939261" lon="7.3449243"><ele>359.6666666666667</ele><time>2026-05-03T15:36:24.305Z</time></trkpt><trkpt lat="44.8938694" lon="7.3448779"><ele>359.33333333333337</ele><time>2026-05-03T15:36:25.306Z</time></trkpt><trkpt lat="44.8938055" lon="7.3448654"><ele>359.0</ele><time>2026-05-03T15:36:26.305Z</time></trkpt><trkpt lat="44.8937375" lon="7.3448544"><ele>359.0</ele><time>2026-05-03T15:36:27.305Z</time></trkpt><trkpt lat="44.8936675" lon="7.3448326"><ele>359.0</ele><time>2026-05-03T15:36:28.305Z</time></trkpt><trkpt lat="44.8935878" lon="7.3448059"><ele>359.0</ele><time>2026-05-03T15:36:29.305Z</time></trkpt><trkpt lat="44.8935118" lon="7.3447671"><ele>359.0</ele><time>2026-05-03T15:36:30.306Z</time></trkpt><trkpt lat="44.8934385" lon="7.3447129"><ele>359.0</ele><time>2026-05-03T15:36:31.306Z</time></trkpt><trkpt lat="44.8933629" lon="7.3446543"><ele>359.0</ele><time>2026-05-03T15:36:32.305Z</time></trkpt><trkpt lat="44.8932869" lon="7.3445881"><ele>359.6666666666667</ele><time>2026-05-03T15:36:33.307Z</time></trkpt><trkpt lat="44.8932129" lon="7.3445273"><ele>360.33333333333337</ele><time>2026-05-03T15:36:34.306Z</time></trkpt><trkpt lat="44.8931388" lon="7.3444835"><ele>361.0</ele><time>2026-05-03T15:36:35.306Z</time></trkpt><trkpt lat="44.8930633" lon="7.344469"><ele>361.6666666666667</ele><time>2026-05-03T15:36:36.306Z</time></trkpt><trkpt lat="44.8929827" lon="7.344516"><ele>362.3333333333333</ele><time>2026-05-03T15:36:37.305Z</time></trkpt><trkpt lat="44.8929028" lon="7.3445972"><ele>363.0</ele><time>2026-05-03T15:36:38.305Z</time></trkpt><trkpt lat="44.8928144" lon="7.3446788"><ele>362.4</ele><time>2026-05-03T15:36:39.306Z</time></trkpt><trkpt lat="44.8927351" lon="7.3447623"><ele>361.79999999999995</ele><time>2026-05-03T15:36:40.306Z</time></trkpt><trkpt lat="44.8926521" lon="7.3448467"><ele>361.2</ele><time>2026-05-03T15:36:41.305Z</time></trkpt><trkpt lat="44.8925661" lon="7.3449222"><ele>360.6</ele><time>2026-05-03T15:36:42.306Z</time></trkpt><trkpt lat="44.892479" lon="7.3449991"><ele>360.0</ele><time>2026-05-03T15:36:43.306Z</time></trkpt><trkpt lat="44.8923956" lon="7.3450739"><ele>360.0</ele><time>2026-05-03T15:36:44.305Z</time></trkpt><trkpt lat="44.8923237" lon="7.3451388"><ele>360.0</ele><time>2026-05-03T15:36:45.306Z</time></trkpt><trkpt lat="44.8922501" lon="7.3452027"><ele>360.0</ele><time>2026-05-03T15:36:46.305Z</time></trkpt><trkpt lat="44.8921789" lon="7.3452615"><ele>360.0</ele><time>2026-05-03T15:36:47.304Z</time></trkpt><trkpt lat="44.8921094" lon="7.3453088"><ele>360.0</ele><time>2026-05-03T15:36:48.306Z</time></trkpt><trkpt lat="44.8920402" lon="7.3453307"><ele>360.0</ele><time>2026-05-03T15:36:49.306Z</time></trkpt><trkpt lat="44.8919471" lon="7.3452812"><ele>360.0</ele><time>2026-05-03T15:36:51.305Z</time></trkpt><trkpt lat="44.8919138" lon="7.3451901"><ele>360.0</ele><time>2026-05-03T15:36:52.306Z</time></trkpt><trkpt lat="44.8918612" lon="7.345064"><ele>360.0</ele><time>2026-05-03T15:36:53.304Z</time></trkpt><trkpt lat="44.8918002" lon="7.344927"><ele>360.0</ele><time>2026-05-03T15:36:54.304Z</time></trkpt><trkpt lat="44.891749" lon="7.3447699"><ele>360.0</ele><time>2026-05-03T15:36:55.305Z</time></trkpt><trkpt lat="44.8916937" lon="7.3445813"><ele>360.6666666666667</ele><time>2026-05-03T15:36:56.307Z</time></trkpt><trkpt lat="44.8916495" lon="7.3443689"><ele>361.33333333333337</ele><time>2026-05-03T15:36:57.305Z</time></trkpt><trkpt lat="44.8916021" lon="7.3441624"><ele>362.0</ele><time>2026-05-03T15:36:58.305Z</time></trkpt><trkpt lat="44.8915621" lon="7.3439717"><ele>362.5</ele><time>2026-05-03T15:36:59.306Z</time></trkpt><trkpt lat="44.891522" lon="7.3438064"><ele>363.0</ele><time>2026-05-03T15:37:00.305Z</time></trkpt><trkpt lat="44.8914823" lon="7.3436484"><ele>363.5</ele><time>2026-05-03T15:37:01.305Z</time></trkpt><trkpt lat="44.8914526" lon="7.3434797"><ele>364.0</ele><time>2026-05-03T15:37:02.305Z</time></trkpt><trkpt lat="44.8914218" lon="7.3433202"><ele>364.0</ele><time>2026-05-03T15:37:03.305Z</time></trkpt><trkpt lat="44.8913881" lon="7.3431757"><ele>364.0</ele><time>2026-05-03T15:37:04.305Z</time></trkpt><trkpt lat="44.8913644" lon="7.3430543"><ele>364.0</ele><time>2026-05-03T15:37:05.304Z</time></trkpt><trkpt lat="44.891339" lon="7.3429526"><ele>364.0</ele><time>2026-05-03T15:37:06.306Z</time></trkpt><trkpt lat="44.8912955" lon="7.342803"><ele>364.0</ele><time>2026-05-03T15:37:08.304Z</time></trkpt><trkpt lat="44.8912356" lon="7.3426714"><ele>364.0</ele><time>2026-05-03T15:37:10.305Z</time></trkpt><trkpt lat="44.891193" lon="7.342604"><ele>364.0</ele><time>2026-05-03T15:37:11.305Z</time></trkpt><trkpt lat="44.891132" lon="7.3425408"><ele>364.0</ele><time>2026-05-03T15:37:12.304Z</time></trkpt><trkpt lat="44.8910651" lon="7.3424624"><ele>364.0</ele><time>2026-05-03T15:37:13.306Z</time></trkpt><trkpt lat="44.8909908" lon="7.3423887"><ele>364.0</ele><time>2026-05-03T15:37:14.307Z</time></trkpt><trkpt lat="44.8909101" lon="7.3423224"><ele>364.0</ele><time>2026-05-03T15:37:15.304Z</time></trkpt><trkpt lat="44.8908444" lon="7.3422522"><ele>364.0</ele><time>2026-05-03T15:37:16.305Z</time></trkpt><trkpt lat="44.8907841" lon="7.3421997"><ele>364.0</ele><time>2026-05-03T15:37:17.305Z</time></trkpt><trkpt lat="44.8907221" lon="7.3421398"><ele>364.0</ele><time>2026-05-03T15:37:18.305Z</time></trkpt><trkpt lat="44.8906625" lon="7.3420441"><ele>364.0</ele><time>2026-05-03T15:37:19.305Z</time></trkpt><trkpt lat="44.890605" lon="7.3419301"><ele>364.0</ele><time>2026-05-03T15:37:20.307Z</time></trkpt><trkpt lat="44.8905455" lon="7.3417862"><ele>364.0</ele><time>2026-05-03T15:37:21.305Z</time></trkpt><trkpt lat="44.8904764" lon="7.3416186"><ele>364.0</ele><time>2026-05-03T15:37:22.304Z</time></trkpt><trkpt lat="44.8904132" lon="7.3414597"><ele>364.0</ele><time>2026-05-03T15:37:23.304Z</time></trkpt><trkpt lat="44.8903544" lon="7.3413063"><ele>364.0</ele><time>2026-05-03T15:37:24.305Z</time></trkpt><trkpt lat="44.8902944" lon="7.3411502"><ele>364.25</ele><time>2026-05-03T15:37:25.306Z</time></trkpt><trkpt lat="44.8902321" lon="7.3409784"><ele>364.5</ele><time>2026-05-03T15:37:26.304Z</time></trkpt><trkpt lat="44.8901611" lon="7.3408041"><ele>364.75</ele><time>2026-05-03T15:37:27.305Z</time></trkpt><trkpt lat="44.8901002" lon="7.3406276"><ele>365.0</ele><time>2026-05-03T15:37:28.304Z</time></trkpt><trkpt lat="44.89002" lon="7.3404432"><ele>365.0</ele><time>2026-05-03T15:37:29.304Z</time></trkpt><trkpt lat="44.889938" lon="7.3402722"><ele>365.0</ele><time>2026-05-03T15:37:30.304Z</time></trkpt><trkpt lat="44.8898538" lon="7.3401053"><ele>365.0</ele><time>2026-05-03T15:37:31.304Z</time></trkpt><trkpt lat="44.8897638" lon="7.339939"><ele>365.0</ele><time>2026-05-03T15:37:32.305Z</time></trkpt><trkpt lat="44.8896723" lon="7.3397673"><ele>365.25</ele><time>2026-05-03T15:37:33.305Z</time></trkpt><trkpt lat="44.8895881" lon="7.3396082"><ele>365.5</ele><time>2026-05-03T15:37:34.306Z</time></trkpt><trkpt lat="44.8895045" lon="7.3394666"><ele>365.75</ele><time>2026-05-03T15:37:35.305Z</time></trkpt><trkpt lat="44.8894202" lon="7.3393274"><ele>366.0</ele><time>2026-05-03T15:37:36.304Z</time></trkpt><trkpt lat="44.8893462" lon="7.3391846"><ele>366.0</ele><time>2026-05-03T15:37:37.305Z</time></trkpt><trkpt lat="44.8892639" lon="7.33905"><ele>366.0</ele><time>2026-05-03T15:37:38.305Z</time></trkpt><trkpt lat="44.8891759" lon="7.3389199"><ele>366.0</ele><time>2026-05-03T15:37:39.306Z</time></trkpt><trkpt lat="44.8890924" lon="7.3387968"><ele>366.0</ele><time>2026-05-03T15:37:40.305Z</time></trkpt><trkpt lat="44.889014" lon="7.3386574"><ele>366.25</ele><time>2026-05-03T15:37:41.306Z</time></trkpt><trkpt lat="44.8889459" lon="7.3385046"><ele>366.5</ele><time>2026-05-03T15:37:42.307Z</time></trkpt><trkpt lat="44.8888761" lon="7.338344"><ele>366.75</ele><time>2026-05-03T15:37:43.305Z</time></trkpt><trkpt lat="44.8888138" lon="7.3381726"><ele>367.0</ele><time>2026-05-03T15:37:44.306Z</time></trkpt><trkpt lat="44.888757" lon="7.3379988"><ele>367.5</ele><time>2026-05-03T15:37:45.305Z</time></trkpt><trkpt lat="44.8887055" lon="7.3378387"><ele>368.0</ele><time>2026-05-03T15:37:46.307Z</time></trkpt><trkpt lat="44.8886517" lon="7.3376736"><ele>368.5</ele><time>2026-05-03T15:37:47.305Z</time></trkpt><trkpt lat="44.8886031" lon="7.3375169"><ele>369.0</ele><time>2026-05-03T15:37:48.304Z</time></trkpt><trkpt lat="44.8885595" lon="7.3373614"><ele>369.4</ele><time>2026-05-03T15:37:49.304Z</time></trkpt><trkpt lat="44.8885176" lon="7.3372145"><ele>369.79999999999995</ele><time>2026-05-03T15:37:50.306Z</time></trkpt><trkpt lat="44.888476" lon="7.3370803"><ele>370.20000000000005</ele><time>2026-05-03T15:37:51.305Z</time></trkpt><trkpt lat="44.8884455" lon="7.3369597"><ele>370.6</ele><time>2026-05-03T15:37:52.305Z</time></trkpt><trkpt lat="44.888416" lon="7.3368495"><ele>371.0</ele><time>2026-05-03T15:37:53.305Z</time></trkpt><trkpt lat="44.8883835" lon="7.3367478"><ele>371.0</ele><time>2026-05-03T15:37:54.305Z</time></trkpt><trkpt lat="44.8883508" lon="7.3366513"><ele>371.0</ele><time>2026-05-03T15:37:55.304Z</time></trkpt><trkpt lat="44.8883125" lon="7.3365465"><ele>371.0</ele><time>2026-05-03T15:37:56.305Z</time></trkpt><trkpt lat="44.8882686" lon="7.3364376"><ele>371.0</ele><time>2026-05-03T15:37:57.307Z</time></trkpt><trkpt lat="44.8882414" lon="7.3363202"><ele>371.0</ele><time>2026-05-03T15:37:58.306Z</time></trkpt><trkpt lat="44.8881993" lon="7.3362048"><ele>371.0</ele><time>2026-05-03T15:37:59.306Z</time></trkpt><trkpt lat="44.8881667" lon="7.3360619"><ele>371.20000000000005</ele><time>2026-05-03T15:38:00.304Z</time></trkpt><trkpt lat="44.8881321" lon="7.3359099"><ele>371.40000000000003</ele><time>2026-05-03T15:38:01.304Z</time></trkpt><trkpt lat="44.8881065" lon="7.3357539"><ele>371.6</ele><time>2026-05-03T15:38:02.307Z</time></trkpt><trkpt lat="44.8880695" lon="7.335619"><ele>371.8</ele><time>2026-05-03T15:38:03.305Z</time></trkpt><trkpt lat="44.8880308" lon="7.3355066"><ele>372.0</ele><time>2026-05-03T15:38:04.304Z</time></trkpt><trkpt lat="44.8879968" lon="7.3354004"><ele>372.40000000000003</ele><time>2026-05-03T15:38:05.305Z</time></trkpt><trkpt lat="44.8879614" lon="7.3353104"><ele>372.8</ele><time>2026-05-03T15:38:06.304Z</time></trkpt><trkpt lat="44.8878927" lon="7.3352163"><ele>373.2</ele><time>2026-05-03T15:38:08.305Z</time></trkpt><trkpt lat="44.8878089" lon="7.3352073"><ele>373.6</ele><time>2026-05-03T15:38:10.304Z</time></trkpt><trkpt lat="44.8876773" lon="7.3352694"><ele>374.0</ele><time>2026-05-03T15:38:12.305Z</time></trkpt><trkpt lat="44.8876067" lon="7.3353646"><ele>374.33333333333337</ele><time>2026-05-03T15:38:13.305Z</time></trkpt><trkpt lat="44.8875368" lon="7.3354213"><ele>374.6666666666667</ele><time>2026-05-03T15:38:14.305Z</time></trkpt><trkpt lat="44.8874223" lon="7.3355039"><ele>375.0</ele><time>2026-05-03T15:38:15.307Z</time></trkpt><trkpt lat="44.8873353" lon="7.3355516"><ele>375.3333333333333</ele><time>2026-05-03T15:38:16.304Z</time></trkpt><trkpt lat="44.8872628" lon="7.3355681"><ele>375.66666666666663</ele><time>2026-05-03T15:38:17.304Z</time></trkpt><trkpt lat="44.8871946" lon="7.3356015"><ele>376.0</ele><time>2026-05-03T15:38:18.306Z</time></trkpt><trkpt lat="44.8871248" lon="7.3356398"><ele>375.25</ele><time>2026-05-03T15:38:19.305Z</time></trkpt><trkpt lat="44.8870274" lon="7.3357116"><ele>374.5</ele><time>2026-05-03T15:38:20.306Z</time></trkpt><trkpt lat="44.8869047" lon="7.3357495"><ele>373.75</ele><time>2026-05-03T15:38:21.305Z</time></trkpt><trkpt lat="44.886809" lon="7.335804"><ele>373.0</ele><time>2026-05-03T15:38:22.304Z</time></trkpt><trkpt lat="44.8867165" lon="7.3359103"><ele>373.0</ele><time>2026-05-03T15:38:23.304Z</time></trkpt><trkpt lat="44.8866059" lon="7.335958"><ele>373.0</ele><time>2026-05-03T15:38:24.306Z</time></trkpt><trkpt lat="44.8865215" lon="7.3359938"><ele>373.0</ele><time>2026-05-03T15:38:25.304Z</time></trkpt><trkpt lat="44.8864465" lon="7.3360571"><ele>373.0</ele><time>2026-05-03T15:38:26.305Z</time></trkpt><trkpt lat="44.8863523" lon="7.3360785"><ele>373.0</ele><time>2026-05-03T15:38:28.305Z</time></trkpt><trkpt lat="44.8862668" lon="7.3360617"><ele>373.0</ele><time>2026-05-03T15:38:32.304Z</time></trkpt><trkpt lat="44.8861971" lon="7.3360688"><ele>373.0</ele><time>2026-05-03T15:38:36.304Z</time></trkpt><trkpt lat="44.886129" lon="7.3359809"><ele>373.0</ele><time>2026-05-03T15:38:39.306Z</time></trkpt><trkpt lat="44.8861013" lon="7.3358819"><ele>373.0</ele><time>2026-05-03T15:38:41.305Z</time></trkpt><trkpt lat="44.8860811" lon="7.3357952"><ele>373.0</ele><time>2026-05-03T15:38:44.304Z</time></trkpt><trkpt lat="44.8860554" lon="7.3356932"><ele>373.0</ele><time>2026-05-03T15:38:50.304Z</time></trkpt><trkpt lat="44.8860266" lon="7.3355944"><ele>373.16666666666663</ele><time>2026-05-03T15:38:51.305Z</time></trkpt><trkpt lat="44.8859933" lon="7.3354916"><ele>373.3333333333333</ele><time>2026-05-03T15:38:52.305Z</time></trkpt><trkpt lat="44.8859569" lon="7.3353974"><ele>373.5</ele><time>2026-05-03T15:38:53.305Z</time></trkpt><trkpt lat="44.8859301" lon="7.3353092"><ele>373.6666666666667</ele><time>2026-05-03T15:38:54.305Z</time></trkpt><trkpt lat="44.8858902" lon="7.3351507"><ele>373.83333333333337</ele><time>2026-05-03T15:38:56.304Z</time></trkpt><trkpt lat="44.8858706" lon="7.3350581"><ele>374.0</ele><time>2026-05-03T15:38:58.305Z</time></trkpt><trkpt lat="44.885816" lon="7.3349876"><ele>374.0</ele><time>2026-05-03T15:39:03.305Z</time></trkpt><trkpt lat="44.8857932" lon="7.3348891"><ele>374.0</ele><time>2026-05-03T15:39:11.305Z</time></trkpt><trkpt lat="44.8857696" lon="7.334785"><ele>374.0</ele><time>2026-05-03T15:39:13.305Z</time></trkpt><trkpt lat="44.8857579" lon="7.3346845"><ele>374.0</ele><time>2026-05-03T15:39:32.305Z</time></trkpt><trkpt lat="44.885707" lon="7.3345402"><ele>374.0</ele><time>2026-05-03T15:39:34.305Z</time></trkpt><trkpt lat="44.88569" lon="7.3344331"><ele>374.0</ele><time>2026-05-03T15:39:35.304Z</time></trkpt><trkpt lat="44.8856587" lon="7.3343217"><ele>374.1666666666667</ele><time>2026-05-03T15:39:36.305Z</time></trkpt><trkpt lat="44.8856311" lon="7.3342171"><ele>374.33333333333337</ele><time>2026-05-03T15:39:37.304Z</time></trkpt><trkpt lat="44.8856047" lon="7.3341044"><ele>374.5</ele><time>2026-05-03T15:39:38.305Z</time></trkpt><trkpt lat="44.8855709" lon="7.3339823"><ele>374.6666666666667</ele><time>2026-05-03T15:39:39.306Z</time></trkpt><trkpt lat="44.8855372" lon="7.3338603"><ele>374.8333333333333</ele><time>2026-05-03T15:39:40.304Z</time></trkpt><trkpt lat="44.8855035" lon="7.3337511"><ele>375.0</ele><time>2026-05-03T15:39:41.304Z</time></trkpt><trkpt lat="44.8854738" lon="7.3336455"><ele>375.0</ele><time>2026-05-03T15:39:42.304Z</time></trkpt><trkpt lat="44.8854413" lon="7.3335314"><ele>375.0</ele><time>2026-05-03T15:39:43.304Z</time></trkpt><trkpt lat="44.8854062" lon="7.3334097"><ele>375.0</ele><time>2026-05-03T15:39:44.304Z</time></trkpt><trkpt lat="44.8853704" lon="7.333288"><ele>375.0</ele><time>2026-05-03T15:39:45.305Z</time></trkpt><trkpt lat="44.8853368" lon="7.3331619"><ele>375.0</ele><time>2026-05-03T15:39:46.305Z</time></trkpt><trkpt lat="44.8853016" lon="7.3330486"><ele>375.6666666666667</ele><time>2026-05-03T15:39:47.305Z</time></trkpt><trkpt lat="44.885281" lon="7.3329456"><ele>376.3333333333333</ele><time>2026-05-03T15:39:48.304Z</time></trkpt><trkpt lat="44.8852535" lon="7.3328497"><ele>377.0</ele><time>2026-05-03T15:39:49.306Z</time></trkpt><trkpt lat="44.8852202" lon="7.3327349"><ele>377.66666666666663</ele><time>2026-05-03T15:39:50.304Z</time></trkpt><trkpt lat="44.8851819" lon="7.3326143"><ele>378.3333333333333</ele><time>2026-05-03T15:39:51.304Z</time></trkpt><trkpt lat="44.8851461" lon="7.332489"><ele>379.0</ele><time>2026-05-03T15:39:52.304Z</time></trkpt><trkpt lat="44.8851102" lon="7.3323637"><ele>379.0</ele><time>2026-05-03T15:39:53.305Z</time></trkpt><trkpt lat="44.885078" lon="7.3322514"><ele>379.0</ele><time>2026-05-03T15:39:54.304Z</time></trkpt><trkpt lat="44.8850434" lon="7.3321305"><ele>379.0</ele><time>2026-05-03T15:39:55.306Z</time></trkpt><trkpt lat="44.8850111" lon="7.3320087"><ele>379.0</ele><time>2026-05-03T15:39:56.306Z</time></trkpt><trkpt lat="44.8849714" lon="7.3318755"><ele>379.0</ele><time>2026-05-03T15:39:57.306Z</time></trkpt><trkpt lat="44.8849278" lon="7.3317191"><ele>379.0</ele><time>2026-05-03T15:39:58.304Z</time></trkpt><trkpt lat="44.8848818" lon="7.3315644"><ele>379.0</ele><time>2026-05-03T15:39:59.304Z</time></trkpt><trkpt lat="44.8848369" lon="7.3314246"><ele>379.0</ele><time>2026-05-03T15:40:00.306Z</time></trkpt><trkpt lat="44.884805" lon="7.3312973"><ele>379.0</ele><time>2026-05-03T15:40:01.305Z</time></trkpt><trkpt lat="44.8847719" lon="7.3311925"><ele>379.0</ele><time>2026-05-03T15:40:02.304Z</time></trkpt><trkpt lat="44.8847311" lon="7.3310476"><ele>379.0</ele><time>2026-05-03T15:40:04.304Z</time></trkpt><trkpt lat="44.8846792" lon="7.3309385"><ele>379.0</ele><time>2026-05-03T15:40:35.305Z</time></trkpt><trkpt lat="44.884599" lon="7.330817"><ele>379.0</ele><time>2026-05-03T15:40:37.305Z</time></trkpt><trkpt lat="44.8845341" lon="7.3307846"><ele>379.0</ele><time>2026-05-03T15:40:38.304Z</time></trkpt><trkpt lat="44.884433" lon="7.3307793"><ele>379.0</ele><time>2026-05-03T15:40:39.305Z</time></trkpt><trkpt lat="44.8843151" lon="7.330808"><ele>378.25</ele><time>2026-05-03T15:40:40.303Z</time></trkpt><trkpt lat="44.8841872" lon="7.3308409"><ele>377.5</ele><time>2026-05-03T15:40:41.305Z</time></trkpt><trkpt lat="44.8840762" lon="7.3308675"><ele>376.75</ele><time>2026-05-03T15:40:42.305Z</time></trkpt><trkpt lat="44.8839702" lon="7.3308894"><ele>376.0</ele><time>2026-05-03T15:40:43.304Z</time></trkpt><trkpt lat="44.8838705" lon="7.3309055"><ele>376.0</ele><time>2026-05-03T15:40:44.304Z</time></trkpt><trkpt lat="44.8837906" lon="7.3309247"><ele>376.0</ele><time>2026-05-03T15:40:45.306Z</time></trkpt><trkpt lat="44.8837148" lon="7.3309345"><ele>376.0</ele><time>2026-05-03T15:40:46.305Z</time></trkpt><trkpt lat="44.8836423" lon="7.3309494"><ele>376.0</ele><time>2026-05-03T15:40:47.304Z</time></trkpt><trkpt lat="44.883529" lon="7.3309721"><ele>376.0</ele><time>2026-05-03T15:40:49.305Z</time></trkpt><trkpt lat="44.8834396" lon="7.3309877"><ele>376.0</ele><time>2026-05-03T15:40:51.304Z</time></trkpt><trkpt lat="44.8833402" lon="7.3310277"><ele>376.0</ele><time>2026-05-03T15:41:12.305Z</time></trkpt><trkpt lat="44.883276" lon="7.3310372"><ele>376.0</ele><time>2026-05-03T15:41:13.305Z</time></trkpt><trkpt lat="44.8832092" lon="7.3310353"><ele>376.0</ele><time>2026-05-03T15:41:14.304Z</time></trkpt><trkpt lat="44.8831014" lon="7.3310366"><ele>376.0</ele><time>2026-05-03T15:41:15.304Z</time></trkpt><trkpt lat="44.8829731" lon="7.3310724"><ele>376.0</ele><time>2026-05-03T15:41:16.304Z</time></trkpt><trkpt lat="44.8828541" lon="7.3310991"><ele>376.0</ele><time>2026-05-03T15:41:17.303Z</time></trkpt><trkpt lat="44.88271" lon="7.331104"><ele>376.0</ele><time>2026-05-03T15:41:18.306Z</time></trkpt><trkpt lat="44.8825961" lon="7.3311304"><ele>376.0</ele><time>2026-05-03T15:41:19.304Z</time></trkpt><trkpt lat="44.8824738" lon="7.3311058"><ele>376.0</ele><time>2026-05-03T15:41:20.304Z</time></trkpt><trkpt lat="44.8823718" lon="7.3311081"><ele>375.66666666666663</ele><time>2026-05-03T15:41:21.304Z</time></trkpt><trkpt lat="44.8822783" lon="7.3311314"><ele>375.3333333333333</ele><time>2026-05-03T15:41:22.305Z</time></trkpt><trkpt lat="44.8821849" lon="7.3311492"><ele>375.0</ele><time>2026-05-03T15:41:23.304Z</time></trkpt><trkpt lat="44.8820972" lon="7.3311641"><ele>374.6666666666667</ele><time>2026-05-03T15:41:24.306Z</time></trkpt><trkpt lat="44.8820148" lon="7.3311823"><ele>374.33333333333337</ele><time>2026-05-03T15:41:25.304Z</time></trkpt><trkpt lat="44.8819435" lon="7.3312098"><ele>374.0</ele><time>2026-05-03T15:41:26.303Z</time></trkpt><trkpt lat="44.8818316" lon="7.3312238"><ele>373.6666666666667</ele><time>2026-05-03T15:41:28.303Z</time></trkpt><trkpt lat="44.8817574" lon="7.3312158"><ele>373.33333333333337</ele><time>2026-05-03T15:41:30.304Z</time></trkpt><trkpt lat="44.8816868" lon="7.3312247"><ele>373.0</ele><time>2026-05-03T15:41:38.305Z</time></trkpt><trkpt lat="44.881625" lon="7.3312429"><ele>372.6666666666667</ele><time>2026-05-03T15:41:39.305Z</time></trkpt><trkpt lat="44.8815518" lon="7.3312731"><ele>372.3333333333333</ele><time>2026-05-03T15:41:40.304Z</time></trkpt><trkpt lat="44.8814514" lon="7.3313091"><ele>372.0</ele><time>2026-05-03T15:41:41.304Z</time></trkpt><trkpt lat="44.8813332" lon="7.3313296"><ele>372.0</ele><time>2026-05-03T15:41:42.306Z</time></trkpt><trkpt lat="44.8812142" lon="7.3313505"><ele>372.0</ele><time>2026-05-03T15:41:43.306Z</time></trkpt><trkpt lat="44.8810818" lon="7.3313815"><ele>372.0</ele><time>2026-05-03T15:41:44.304Z</time></trkpt><trkpt lat="44.8809483" lon="7.3314211"><ele>372.0</ele><time>2026-05-03T15:41:45.305Z</time></trkpt><trkpt lat="44.880821" lon="7.3314853"><ele>371.75</ele><time>2026-05-03T15:41:46.304Z</time></trkpt><trkpt lat="44.8807015" lon="7.3315393"><ele>371.5</ele><time>2026-05-03T15:41:47.304Z</time></trkpt><trkpt lat="44.8805847" lon="7.3316022"><ele>371.25</ele><time>2026-05-03T15:41:48.305Z</time></trkpt><trkpt lat="44.8804623" lon="7.3316752"><ele>371.0</ele><time>2026-05-03T15:41:49.306Z</time></trkpt><trkpt lat="44.8803274" lon="7.3317524"><ele>371.0</ele><time>2026-05-03T15:41:50.304Z</time></trkpt><trkpt lat="44.8801793" lon="7.3318236"><ele>371.0</ele><time>2026-05-03T15:41:51.305Z</time></trkpt><trkpt lat="44.8800399" lon="7.3319032"><ele>371.0</ele><time>2026-05-03T15:41:52.304Z</time></trkpt><trkpt lat="44.8798979" lon="7.3319849"><ele>371.5</ele><time>2026-05-03T15:41:53.303Z</time></trkpt><trkpt lat="44.8797632" lon="7.3320592"><ele>372.0</ele><time>2026-05-03T15:41:54.303Z</time></trkpt><trkpt lat="44.8796374" lon="7.3321331"><ele>372.5</ele><time>2026-05-03T15:41:55.305Z</time></trkpt><trkpt lat="44.8795125" lon="7.3322082"><ele>373.0</ele><time>2026-05-03T15:41:56.304Z</time></trkpt><trkpt lat="44.8793866" lon="7.3322762"><ele>372.25</ele><time>2026-05-03T15:41:57.304Z</time></trkpt><trkpt lat="44.8792483" lon="7.3323429"><ele>371.5</ele><time>2026-05-03T15:41:58.305Z</time></trkpt><trkpt lat="44.8791052" lon="7.3324101"><ele>370.75</ele><time>2026-05-03T15:41:59.305Z</time></trkpt><trkpt lat="44.8789733" lon="7.3324644"><ele>370.0</ele><time>2026-05-03T15:42:00.304Z</time></trkpt><trkpt lat="44.878855" lon="7.3325047"><ele>370.0</ele><time>2026-05-03T15:42:01.303Z</time></trkpt><trkpt lat="44.8787394" lon="7.3325468"><ele>370.0</ele><time>2026-05-03T15:42:02.304Z</time></trkpt><trkpt lat="44.8786219" lon="7.332583"><ele>370.0</ele><time>2026-05-03T15:42:03.305Z</time></trkpt><trkpt lat="44.8784905" lon="7.3326245"><ele>370.0</ele><time>2026-05-03T15:42:04.305Z</time></trkpt><trkpt lat="44.8783603" lon="7.3326577"><ele>369.75</ele><time>2026-05-03T15:42:05.303Z</time></trkpt><trkpt lat="44.8782147" lon="7.3326896"><ele>369.5</ele><time>2026-05-03T15:42:06.303Z</time></trkpt><trkpt lat="44.8780839" lon="7.3327248"><ele>369.25</ele><time>2026-05-03T15:42:07.303Z</time></trkpt><trkpt lat="44.8779492" lon="7.3327514"><ele>369.0</ele><time>2026-05-03T15:42:08.305Z</time></trkpt><trkpt lat="44.8778032" lon="7.3327902"><ele>369.0</ele><time>2026-05-03T15:42:09.305Z</time></trkpt><trkpt lat="44.8776637" lon="7.3328285"><ele>369.0</ele><time>2026-05-03T15:42:10.304Z</time></trkpt><trkpt lat="44.8775423" lon="7.3328509"><ele>369.0</ele><time>2026-05-03T15:42:11.304Z</time></trkpt><trkpt lat="44.8773905" lon="7.3328806"><ele>369.0</ele><time>2026-05-03T15:42:12.303Z</time></trkpt><trkpt lat="44.8772541" lon="7.3329144"><ele>369.0</ele><time>2026-05-03T15:42:13.304Z</time></trkpt><trkpt lat="44.877117" lon="7.3329496"><ele>369.0</ele><time>2026-05-03T15:42:14.305Z</time></trkpt><trkpt lat="44.8769884" lon="7.3329866"><ele>369.0</ele><time>2026-05-03T15:42:15.304Z</time></trkpt><trkpt lat="44.876875" lon="7.3330124"><ele>369.0</ele><time>2026-05-03T15:42:16.304Z</time></trkpt><trkpt lat="44.876758" lon="7.3330382"><ele>368.5</ele><time>2026-05-03T15:42:17.304Z</time></trkpt><trkpt lat="44.8766496" lon="7.3330593"><ele>368.0</ele><time>2026-05-03T15:42:18.304Z</time></trkpt><trkpt lat="44.8765639" lon="7.3330854"><ele>367.5</ele><time>2026-05-03T15:42:19.305Z</time></trkpt><trkpt lat="44.8764899" lon="7.3331008"><ele>367.0</ele><time>2026-05-03T15:42:20.305Z</time></trkpt><trkpt lat="44.8764203" lon="7.3331068"><ele>366.5</ele><time>2026-05-03T15:42:21.304Z</time></trkpt><trkpt lat="44.8763424" lon="7.3331059"><ele>366.0</ele><time>2026-05-03T15:42:22.303Z</time></trkpt><trkpt lat="44.8762586" lon="7.3331212"><ele>366.0</ele><time>2026-05-03T15:42:23.304Z</time></trkpt><trkpt lat="44.8761528" lon="7.3331593"><ele>366.0</ele><time>2026-05-03T15:42:24.303Z</time></trkpt><trkpt lat="44.8760484" lon="7.3332011"><ele>366.0</ele><time>2026-05-03T15:42:25.303Z</time></trkpt><trkpt lat="44.8759456" lon="7.3332291"><ele>366.0</ele><time>2026-05-03T15:42:26.304Z</time></trkpt><trkpt lat="44.8758418" lon="7.3332546"><ele>366.0</ele><time>2026-05-03T15:42:27.305Z</time></trkpt><trkpt lat="44.8757386" lon="7.3332814"><ele>365.5</ele><time>2026-05-03T15:42:28.303Z</time></trkpt><trkpt lat="44.8756308" lon="7.3333088"><ele>365.0</ele><time>2026-05-03T15:42:29.304Z</time></trkpt><trkpt lat="44.8755216" lon="7.3333367"><ele>364.5</ele><time>2026-05-03T15:42:30.305Z</time></trkpt><trkpt lat="44.8754069" lon="7.3333597"><ele>364.0</ele><time>2026-05-03T15:42:31.304Z</time></trkpt><trkpt lat="44.875292" lon="7.3333926"><ele>364.0</ele><time>2026-05-03T15:42:32.304Z</time></trkpt><trkpt lat="44.875172" lon="7.333417"><ele>364.0</ele><time>2026-05-03T15:42:33.305Z</time></trkpt><trkpt lat="44.8750385" lon="7.3334539"><ele>364.0</ele><time>2026-05-03T15:42:34.304Z</time></trkpt><trkpt lat="44.8748985" lon="7.3334794"><ele>364.0</ele><time>2026-05-03T15:42:35.305Z</time></trkpt><trkpt lat="44.8747387" lon="7.3335157"><ele>364.0</ele><time>2026-05-03T15:42:36.304Z</time></trkpt><trkpt lat="44.8745851" lon="7.3335571"><ele>364.0</ele><time>2026-05-03T15:42:37.305Z</time></trkpt><trkpt lat="44.8744208" lon="7.3336009"><ele>364.0</ele><time>2026-05-03T15:42:38.304Z</time></trkpt><trkpt lat="44.874259" lon="7.3336362"><ele>364.0</ele><time>2026-05-03T15:42:39.304Z</time></trkpt><trkpt lat="44.8741061" lon="7.3336703"><ele>364.0</ele><time>2026-05-03T15:42:40.305Z</time></trkpt><trkpt lat="44.8739628" lon="7.3337025"><ele>364.0</ele><time>2026-05-03T15:42:41.303Z</time></trkpt><trkpt lat="44.8738028" lon="7.333743"><ele>364.0</ele><time>2026-05-03T15:42:42.303Z</time></trkpt><trkpt lat="44.8736328" lon="7.3337879"><ele>364.0</ele><time>2026-05-03T15:42:43.304Z</time></trkpt><trkpt lat="44.8734691" lon="7.3338239"><ele>364.0</ele><time>2026-05-03T15:42:44.303Z</time></trkpt><trkpt lat="44.8733127" lon="7.3338545"><ele>364.0</ele><time>2026-05-03T15:42:45.305Z</time></trkpt><trkpt lat="44.87316" lon="7.3338948"><ele>364.0</ele><time>2026-05-03T15:42:46.305Z</time></trkpt><trkpt lat="44.8730093" lon="7.3339301"><ele>364.0</ele><time>2026-05-03T15:42:47.303Z</time></trkpt><trkpt lat="44.8728621" lon="7.3339683"><ele>364.0</ele><time>2026-05-03T15:42:48.304Z</time></trkpt><trkpt lat="44.8727212" lon="7.3339976"><ele>364.0</ele><time>2026-05-03T15:42:49.303Z</time></trkpt><trkpt lat="44.8725739" lon="7.3340301"><ele>364.0</ele><time>2026-05-03T15:42:50.304Z</time></trkpt><trkpt lat="44.872421" lon="7.3340593"><ele>364.0</ele><time>2026-05-03T15:42:51.304Z</time></trkpt><trkpt lat="44.8722734" lon="7.3340909"><ele>363.75</ele><time>2026-05-03T15:42:52.304Z</time></trkpt><trkpt lat="44.8721323" lon="7.3341225"><ele>363.5</ele><time>2026-05-03T15:42:53.304Z</time></trkpt><trkpt lat="44.8719922" lon="7.3341537"><ele>363.25</ele><time>2026-05-03T15:42:54.304Z</time></trkpt><trkpt lat="44.8718423" lon="7.3341917"><ele>363.0</ele><time>2026-05-03T15:42:55.303Z</time></trkpt><trkpt lat="44.8716931" lon="7.3342267"><ele>362.6666666666667</ele><time>2026-05-03T15:42:56.303Z</time></trkpt><trkpt lat="44.8715491" lon="7.3342653"><ele>362.33333333333337</ele><time>2026-05-03T15:42:57.303Z</time></trkpt><trkpt lat="44.8714037" lon="7.3343023"><ele>362.0</ele><time>2026-05-03T15:42:58.304Z</time></trkpt><trkpt lat="44.8712487" lon="7.3343396"><ele>362.0</ele><time>2026-05-03T15:42:59.305Z</time></trkpt><trkpt lat="44.8711135" lon="7.3343639"><ele>362.0</ele><time>2026-05-03T15:43:00.304Z</time></trkpt><trkpt lat="44.8709648" lon="7.3344027"><ele>362.0</ele><time>2026-05-03T15:43:01.303Z</time></trkpt><trkpt lat="44.8708177" lon="7.3344409"><ele>362.0</ele><time>2026-05-03T15:43:02.304Z</time></trkpt><trkpt lat="44.8706666" lon="7.3344779"><ele>361.6666666666667</ele><time>2026-05-03T15:43:03.304Z</time></trkpt><trkpt lat="44.8705197" lon="7.3345098"><ele>361.3333333333333</ele><time>2026-05-03T15:43:04.303Z</time></trkpt><trkpt lat="44.870358" lon="7.3345423"><ele>361.0</ele><time>2026-05-03T15:43:05.303Z</time></trkpt><trkpt lat="44.870195" lon="7.3345843"><ele>361.0</ele><time>2026-05-03T15:43:06.304Z</time></trkpt><trkpt lat="44.8700402" lon="7.3346275"><ele>361.0</ele><time>2026-05-03T15:43:07.304Z</time></trkpt><trkpt lat="44.8698879" lon="7.3346694"><ele>361.0</ele><time>2026-05-03T15:43:08.305Z</time></trkpt><trkpt lat="44.8697412" lon="7.3347094"><ele>361.0</ele><time>2026-05-03T15:43:09.304Z</time></trkpt><trkpt lat="44.8696009" lon="7.3347394"><ele>361.0</ele><time>2026-05-03T15:43:10.303Z</time></trkpt><trkpt lat="44.8694523" lon="7.3347724"><ele>361.0</ele><time>2026-05-03T15:43:11.304Z</time></trkpt><trkpt lat="44.8693115" lon="7.3348075"><ele>361.0</ele><time>2026-05-03T15:43:12.304Z</time></trkpt><trkpt lat="44.8691641" lon="7.3348413"><ele>360.75</ele><time>2026-05-03T15:43:13.305Z</time></trkpt><trkpt lat="44.8690196" lon="7.3348705"><ele>360.5</ele><time>2026-05-03T15:43:14.303Z</time></trkpt><trkpt lat="44.8688723" lon="7.3349011"><ele>360.25</ele><time>2026-05-03T15:43:15.304Z</time></trkpt><trkpt lat="44.8687302" lon="7.3349263"><ele>360.0</ele><time>2026-05-03T15:43:16.304Z</time></trkpt><trkpt lat="44.8685962" lon="7.3349495"><ele>360.0</ele><time>2026-05-03T15:43:17.304Z</time></trkpt><trkpt lat="44.8684654" lon="7.3349741"><ele>360.0</ele><time>2026-05-03T15:43:18.304Z</time></trkpt><trkpt lat="44.8683346" lon="7.3349937"><ele>360.0</ele><time>2026-05-03T15:43:19.303Z</time></trkpt><trkpt lat="44.8681979" lon="7.3349983"><ele>360.0</ele><time>2026-05-03T15:43:20.304Z</time></trkpt><trkpt lat="44.868064" lon="7.3349814"><ele>359.3333333333333</ele><time>2026-05-03T15:43:21.305Z</time></trkpt><trkpt lat="44.8679121" lon="7.334937"><ele>358.66666666666663</ele><time>2026-05-03T15:43:22.303Z</time></trkpt><trkpt lat="44.8677642" lon="7.3348765"><ele>358.0</ele><time>2026-05-03T15:43:23.303Z</time></trkpt><trkpt lat="44.8676037" lon="7.3347925"><ele>357.0</ele><time>2026-05-03T15:43:24.304Z</time></trkpt><trkpt lat="44.8674532" lon="7.3346951"><ele>356.0</ele><time>2026-05-03T15:43:25.304Z</time></trkpt><trkpt lat="44.8673049" lon="7.33459"><ele>355.0</ele><time>2026-05-03T15:43:26.304Z</time></trkpt><trkpt lat="44.8671753" lon="7.3344865"><ele>355.0</ele><time>2026-05-03T15:43:27.303Z</time></trkpt><trkpt lat="44.8670488" lon="7.3343792"><ele>355.0</ele><time>2026-05-03T15:43:28.304Z</time></trkpt><trkpt lat="44.8669341" lon="7.3342703"><ele>355.0</ele><time>2026-05-03T15:43:29.305Z</time></trkpt><trkpt lat="44.8668279" lon="7.3341564"><ele>355.0</ele><time>2026-05-03T15:43:30.303Z</time></trkpt><trkpt lat="44.8667245" lon="7.3340468"><ele>355.25</ele><time>2026-05-03T15:43:31.303Z</time></trkpt><trkpt lat="44.8666172" lon="7.3339235"><ele>355.5</ele><time>2026-05-03T15:43:32.303Z</time></trkpt><trkpt lat="44.8665072" lon="7.333791"><ele>355.75</ele><time>2026-05-03T15:43:33.305Z</time></trkpt><trkpt lat="44.8663899" lon="7.3336759"><ele>356.0</ele><time>2026-05-03T15:43:34.303Z</time></trkpt><trkpt lat="44.8662613" lon="7.3335876"><ele>356.0</ele><time>2026-05-03T15:43:35.304Z</time></trkpt><trkpt lat="44.8661227" lon="7.333524"><ele>356.0</ele><time>2026-05-03T15:43:36.304Z</time></trkpt><trkpt lat="44.8659888" lon="7.333471"><ele>356.0</ele><time>2026-05-03T15:43:37.304Z</time></trkpt><trkpt lat="44.8658643" lon="7.3334321"><ele>356.0</ele><time>2026-05-03T15:43:38.304Z</time></trkpt><trkpt lat="44.8657468" lon="7.3333956"><ele>356.20000000000005</ele><time>2026-05-03T15:43:39.304Z</time></trkpt><trkpt lat="44.8656526" lon="7.3333568"><ele>356.40000000000003</ele><time>2026-05-03T15:43:40.304Z</time></trkpt><trkpt lat="44.8655685" lon="7.333306"><ele>356.6</ele><time>2026-05-03T15:43:41.304Z</time></trkpt><trkpt lat="44.8655023" lon="7.3332483"><ele>356.8</ele><time>2026-05-03T15:43:42.304Z</time></trkpt><trkpt lat="44.865437" lon="7.3331556"><ele>357.0</ele><time>2026-05-03T15:43:44.303Z</time></trkpt><trkpt lat="44.8654219" lon="7.3330082"><ele>357.0</ele><time>2026-05-03T15:43:47.303Z</time></trkpt><trkpt lat="44.8654326" lon="7.33287"><ele>357.0</ele><time>2026-05-03T15:43:49.305Z</time></trkpt><trkpt lat="44.8655061" lon="7.3328617"><ele>357.0</ele><time>2026-05-03T15:43:51.304Z</time></trkpt><trkpt lat="44.8655571" lon="7.3330187"><ele>357.0</ele><time>2026-05-03T15:43:53.305Z</time></trkpt><trkpt lat="44.8655753" lon="7.3331221"><ele>357.0</ele><time>2026-05-03T15:43:54.304Z</time></trkpt><trkpt lat="44.8656074" lon="7.3332131"><ele>357.0</ele><time>2026-05-03T15:43:55.304Z</time></trkpt><trkpt lat="44.8656648" lon="7.3332811"><ele>357.1666666666667</ele><time>2026-05-03T15:43:56.303Z</time></trkpt><trkpt lat="44.865734" lon="7.3333099"><ele>357.3333333333333</ele><time>2026-05-03T15:43:57.304Z</time></trkpt><trkpt lat="44.8658067" lon="7.3332875"><ele>357.5</ele><time>2026-05-03T15:43:58.304Z</time></trkpt><trkpt lat="44.8658867" lon="7.333241"><ele>357.66666666666663</ele><time>2026-05-03T15:43:59.303Z</time></trkpt><trkpt lat="44.8659645" lon="7.3331992"><ele>357.8333333333333</ele><time>2026-05-03T15:44:00.304Z</time></trkpt><trkpt lat="44.8659625" lon="7.3330367"><ele>358.0</ele><time>2026-05-03T15:44:01.303Z</time></trkpt><trkpt lat="44.8659957" lon="7.3329258"><ele>357.66666666666663</ele><time>2026-05-03T15:44:02.303Z</time></trkpt><trkpt lat="44.8660217" lon="7.3328012"><ele>357.3333333333333</ele><time>2026-05-03T15:44:03.304Z</time></trkpt><trkpt lat="44.8660441" lon="7.3326751"><ele>357.0</ele><time>2026-05-03T15:44:04.304Z</time></trkpt><trkpt lat="44.8660618" lon="7.3325671"><ele>356.6666666666667</ele><time>2026-05-03T15:44:05.304Z</time></trkpt><trkpt lat="44.8660644" lon="7.3324719"><ele>356.33333333333337</ele><time>2026-05-03T15:44:06.304Z</time></trkpt><trkpt lat="44.8660743" lon="7.3323532"><ele>356.0</ele><time>2026-05-03T15:44:08.304Z</time></trkpt><trkpt lat="44.8660852" lon="7.3322589"><ele>356.33333333333337</ele><time>2026-05-03T15:44:10.304Z</time></trkpt><trkpt lat="44.8661028" lon="7.3321324"><ele>356.6666666666667</ele><time>2026-05-03T15:44:12.305Z</time></trkpt><trkpt lat="44.8661145" lon="7.3320099"><ele>357.0</ele><time>2026-05-03T15:44:14.303Z</time></trkpt><trkpt lat="44.8661507" lon="7.3319265"><ele>357.3333333333333</ele><time>2026-05-03T15:44:16.304Z</time></trkpt><trkpt lat="44.866095" lon="7.3320191"><ele>357.66666666666663</ele><time>2026-05-03T15:44:21.303Z</time></trkpt><trkpt lat="44.8660894" lon="7.3321158"><ele>358.0</ele><time>2026-05-03T15:44:22.303Z</time></trkpt><trkpt lat="44.8660802" lon="7.3322223"><ele>357.66666666666663</ele><time>2026-05-03T15:44:23.304Z</time></trkpt><trkpt lat="44.8660675" lon="7.332342"><ele>357.3333333333333</ele><time>2026-05-03T15:44:24.305Z</time></trkpt><trkpt lat="44.8660587" lon="7.3324559"><ele>357.0</ele><time>2026-05-03T15:44:25.305Z</time></trkpt><trkpt lat="44.8660475" lon="7.3325628"><ele>356.6666666666667</ele><time>2026-05-03T15:44:26.304Z</time></trkpt><trkpt lat="44.8660384" lon="7.3326703"><ele>356.33333333333337</ele><time>2026-05-03T15:44:27.305Z</time></trkpt><trkpt lat="44.8660234" lon="7.3327705"><ele>356.0</ele><time>2026-05-03T15:44:28.304Z</time></trkpt><trkpt lat="44.8660073" lon="7.3328705"><ele>356.0</ele><time>2026-05-03T15:44:29.304Z</time></trkpt><trkpt lat="44.865983" lon="7.3329639"><ele>356.0</ele><time>2026-05-03T15:44:30.303Z</time></trkpt><trkpt lat="44.8659539" lon="7.3330473"><ele>356.0</ele><time>2026-05-03T15:44:31.304Z</time></trkpt><trkpt lat="44.8659219" lon="7.3331253"><ele>356.0</ele><time>2026-05-03T15:44:32.304Z</time></trkpt><trkpt lat="44.8658366" lon="7.3332427"><ele>356.0</ele><time>2026-05-03T15:44:34.303Z</time></trkpt><trkpt lat="44.8657746" lon="7.3332846"><ele>356.0</ele><time>2026-05-03T15:44:35.304Z</time></trkpt><trkpt lat="44.8657083" lon="7.3332904"><ele>356.1666666666667</ele><time>2026-05-03T15:44:36.304Z</time></trkpt><trkpt lat="44.8656219" lon="7.3331897"><ele>356.33333333333337</ele><time>2026-05-03T15:44:38.303Z</time></trkpt><trkpt lat="44.8655937" lon="7.3331006"><ele>356.5</ele><time>2026-05-03T15:44:39.304Z</time></trkpt><trkpt lat="44.8655701" lon="7.3330034"><ele>356.6666666666667</ele><time>2026-05-03T15:44:40.303Z</time></trkpt><trkpt lat="44.8655383" lon="7.3329127"><ele>356.8333333333333</ele><time>2026-05-03T15:44:41.304Z</time></trkpt><trkpt lat="44.8654417" lon="7.3328241"><ele>357.0</ele><time>2026-05-03T15:44:43.304Z</time></trkpt><trkpt lat="44.8653069" lon="7.3328263"><ele>357.0</ele><time>2026-05-03T15:44:45.303Z</time></trkpt><trkpt lat="44.8652425" lon="7.3328186"><ele>357.0</ele><time>2026-05-03T15:44:46.303Z</time></trkpt><trkpt lat="44.8651711" lon="7.3328414"><ele>357.0</ele><time>2026-05-03T15:44:47.305Z</time></trkpt><trkpt lat="44.8651084" lon="7.3328935"><ele>357.0</ele><time>2026-05-03T15:44:48.303Z</time></trkpt><trkpt lat="44.8650703" lon="7.3329673"><ele>357.0</ele><time>2026-05-03T15:44:49.303Z</time></trkpt><trkpt lat="44.865058" lon="7.3330589"><ele>357.0</ele><time>2026-05-03T15:44:50.304Z</time></trkpt><trkpt lat="44.8650799" lon="7.3331581"><ele>357.0</ele><time>2026-05-03T15:44:51.304Z</time></trkpt><trkpt lat="44.8651226" lon="7.3332412"><ele>357.1666666666667</ele><time>2026-05-03T15:44:52.304Z</time></trkpt><trkpt lat="44.8651879" lon="7.3333075"><ele>357.3333333333333</ele><time>2026-05-03T15:44:53.303Z</time></trkpt><trkpt lat="44.8652587" lon="7.3333693"><ele>357.5</ele><time>2026-05-03T15:44:54.304Z</time></trkpt><trkpt lat="44.8653288" lon="7.3334286"><ele>357.66666666666663</ele><time>2026-05-03T15:44:55.304Z</time></trkpt><trkpt lat="44.8653846" lon="7.3334922"><ele>357.8333333333333</ele><time>2026-05-03T15:44:56.304Z</time></trkpt><trkpt lat="44.8654897" lon="7.333603"><ele>358.0</ele><time>2026-05-03T15:44:58.304Z</time></trkpt><trkpt lat="44.8655517" lon="7.3336336"><ele>358.0</ele><time>2026-05-03T15:44:59.302Z</time></trkpt><trkpt lat="44.8656221" lon="7.3336484"><ele>358.0</ele><time>2026-05-03T15:45:00.304Z</time></trkpt><trkpt lat="44.8656973" lon="7.3336618"><ele>358.0</ele><time>2026-05-03T15:45:01.303Z</time></trkpt><trkpt lat="44.8657741" lon="7.3336839"><ele>358.0</ele><time>2026-05-03T15:45:02.305Z</time></trkpt><trkpt lat="44.865855" lon="7.3337245"><ele>358.0</ele><time>2026-05-03T15:45:03.303Z</time></trkpt><trkpt lat="44.8659321" lon="7.3337657"><ele>358.0</ele><time>2026-05-03T15:45:04.303Z</time></trkpt><trkpt lat="44.8660158" lon="7.3338223"><ele>357.59999999999997</ele><time>2026-05-03T15:45:05.303Z</time></trkpt><trkpt lat="44.866089" lon="7.3338798"><ele>357.2</ele><time>2026-05-03T15:45:06.303Z</time></trkpt><trkpt lat="44.8661733" lon="7.3339479"><ele>356.8</ele><time>2026-05-03T15:45:07.304Z</time></trkpt><trkpt lat="44.8662507" lon="7.3340108"><ele>356.4</ele><time>2026-05-03T15:45:08.303Z</time></trkpt><trkpt lat="44.8663326" lon="7.334075"><ele>356.0</ele><time>2026-05-03T15:45:09.303Z</time></trkpt><trkpt lat="44.8664174" lon="7.3341445"><ele>356.0</ele><time>2026-05-03T15:45:10.304Z</time></trkpt><trkpt lat="44.8664873" lon="7.3341957"><ele>356.0</ele><time>2026-05-03T15:45:11.303Z</time></trkpt><trkpt lat="44.8665414" lon="7.3342485"><ele>356.0</ele><time>2026-05-03T15:45:12.304Z</time></trkpt><trkpt lat="44.8665942" lon="7.3343066"><ele>356.0</ele><time>2026-05-03T15:45:13.303Z</time></trkpt><trkpt lat="44.8666925" lon="7.3343986"><ele>356.0</ele><time>2026-05-03T15:45:15.302Z</time></trkpt><trkpt lat="44.8667734" lon="7.3345113"><ele>356.0</ele><time>2026-05-03T15:45:17.305Z</time></trkpt><trkpt lat="44.8668315" lon="7.3346537"><ele>356.0</ele><time>2026-05-03T15:45:19.304Z</time></trkpt><trkpt lat="44.8668607" lon="7.3348176"><ele>356.0</ele><time>2026-05-03T15:45:21.305Z</time></trkpt><trkpt lat="44.8668523" lon="7.334964"><ele>356.0</ele><time>2026-05-03T15:45:23.303Z</time></trkpt><trkpt lat="44.8668283" lon="7.3350479"><ele>356.0</ele><time>2026-05-03T15:45:24.303Z</time></trkpt><trkpt lat="44.8667942" lon="7.3351422"><ele>356.0</ele><time>2026-05-03T15:45:25.303Z</time></trkpt><trkpt lat="44.8667637" lon="7.3352443"><ele>356.0</ele><time>2026-05-03T15:45:26.303Z</time></trkpt><trkpt lat="44.8667239" lon="7.3353352"><ele>356.0</ele><time>2026-05-03T15:45:27.304Z</time></trkpt><trkpt lat="44.8666934" lon="7.3354229"><ele>356.0</ele><time>2026-05-03T15:45:28.303Z</time></trkpt><trkpt lat="44.8666181" lon="7.335541"><ele>356.0</ele><time>2026-05-03T15:45:30.303Z</time></trkpt><trkpt lat="44.8665491" lon="7.3356534"><ele>356.0</ele><time>2026-05-03T15:45:32.304Z</time></trkpt><trkpt lat="44.8665211" lon="7.3358195"><ele>356.0</ele><time>2026-05-03T15:45:34.303Z</time></trkpt><trkpt lat="44.8665011" lon="7.3359282"><ele>355.8</ele><time>2026-05-03T15:45:35.303Z</time></trkpt><trkpt lat="44.8664712" lon="7.3360522"><ele>355.6</ele><time>2026-05-03T15:45:36.305Z</time></trkpt><trkpt lat="44.866431" lon="7.3361752"><ele>355.4</ele><time>2026-05-03T15:45:37.304Z</time></trkpt><trkpt lat="44.8663853" lon="7.3363132"><ele>355.2</ele><time>2026-05-03T15:45:38.303Z</time></trkpt><trkpt lat="44.8663447" lon="7.3364443"><ele>355.0</ele><time>2026-05-03T15:45:39.303Z</time></trkpt><trkpt lat="44.8662988" lon="7.3365715"><ele>354.6</ele><time>2026-05-03T15:45:40.305Z</time></trkpt><trkpt lat="44.8662612" lon="7.3367117"><ele>354.2</ele><time>2026-05-03T15:45:41.304Z</time></trkpt><trkpt lat="44.8662173" lon="7.3368379"><ele>353.79999999999995</ele><time>2026-05-03T15:45:42.303Z</time></trkpt><trkpt lat="44.8661763" lon="7.3369736"><ele>353.4</ele><time>2026-05-03T15:45:43.303Z</time></trkpt><trkpt lat="44.8661321" lon="7.3371077"><ele>353.0</ele><time>2026-05-03T15:45:44.303Z</time></trkpt><trkpt lat="44.8660572" lon="7.337194"><ele>353.1666666666667</ele><time>2026-05-03T15:45:45.303Z</time></trkpt><trkpt lat="44.8660104" lon="7.3373038"><ele>353.33333333333337</ele><time>2026-05-03T15:45:46.302Z</time></trkpt><trkpt lat="44.8659665" lon="7.3373898"><ele>353.5</ele><time>2026-05-03T15:45:47.302Z</time></trkpt><trkpt lat="44.865885" lon="7.337539"><ele>353.6666666666667</ele><time>2026-05-03T15:45:49.303Z</time></trkpt><trkpt lat="44.8658518" lon="7.3376289"><ele>353.8333333333333</ele><time>2026-05-03T15:45:50.303Z</time></trkpt><trkpt lat="44.8658115" lon="7.3377186"><ele>354.0</ele><time>2026-05-03T15:45:51.303Z</time></trkpt><trkpt lat="44.8657763" lon="7.3378018"><ele>354.0</ele><time>2026-05-03T15:45:52.303Z</time></trkpt><trkpt lat="44.8657387" lon="7.3378802"><ele>354.0</ele><time>2026-05-03T15:45:53.303Z</time></trkpt><trkpt lat="44.8656797" lon="7.3380191"><ele>354.0</ele><time>2026-05-03T15:45:55.305Z</time></trkpt><trkpt lat="44.8656165" lon="7.33817"><ele>354.0</ele><time>2026-05-03T15:45:57.303Z</time></trkpt><trkpt lat="44.8655788" lon="7.3382493"><ele>354.0</ele><time>2026-05-03T15:45:58.303Z</time></trkpt><trkpt lat="44.8655511" lon="7.3383377"><ele>354.0</ele><time>2026-05-03T15:45:59.303Z</time></trkpt><trkpt lat="44.8655299" lon="7.3384308"><ele>353.5714285714286</ele><time>2026-05-03T15:46:00.303Z</time></trkpt><trkpt lat="44.8655106" lon="7.3385246"><ele>353.1428571428571</ele><time>2026-05-03T15:46:01.304Z</time></trkpt><trkpt lat="44.8654878" lon="7.3386167"><ele>352.7142857142857</ele><time>2026-05-03T15:46:02.303Z</time></trkpt><trkpt lat="44.8654663" lon="7.3387134"><ele>352.28571428571433</ele><time>2026-05-03T15:46:03.304Z</time></trkpt><trkpt lat="44.865443" lon="7.3388087"><ele>351.8571428571429</ele><time>2026-05-03T15:46:04.303Z</time></trkpt><trkpt lat="44.865421" lon="7.3388989"><ele>351.42857142857144</ele><time>2026-05-03T15:46:05.304Z</time></trkpt><trkpt lat="44.8653914" lon="7.3389913"><ele>351.0</ele><time>2026-05-03T15:46:06.303Z</time></trkpt><trkpt lat="44.8653688" lon="7.3390841"><ele>351.0</ele><time>2026-05-03T15:46:07.303Z</time></trkpt><trkpt lat="44.8653256" lon="7.3391669"><ele>351.0</ele><time>2026-05-03T15:46:08.304Z</time></trkpt><trkpt lat="44.8652807" lon="7.3392517"><ele>351.0</ele><time>2026-05-03T15:46:09.303Z</time></trkpt><trkpt lat="44.8652321" lon="7.3393442"><ele>351.0</ele><time>2026-05-03T15:46:10.302Z</time></trkpt><trkpt lat="44.8651835" lon="7.3394436"><ele>351.0</ele><time>2026-05-03T15:46:11.303Z</time></trkpt><trkpt lat="44.8651318" lon="7.3395372"><ele>351.0</ele><time>2026-05-03T15:46:12.302Z</time></trkpt><trkpt lat="44.8650796" lon="7.3396357"><ele>350.6666666666667</ele><time>2026-05-03T15:46:13.303Z</time></trkpt><trkpt lat="44.8650399" lon="7.3397367"><ele>350.3333333333333</ele><time>2026-05-03T15:46:14.304Z</time></trkpt><trkpt lat="44.8649896" lon="7.3398275"><ele>350.0</ele><time>2026-05-03T15:46:15.303Z</time></trkpt><trkpt lat="44.8649352" lon="7.3399207"><ele>349.66666666666663</ele><time>2026-05-03T15:46:16.302Z</time></trkpt><trkpt lat="44.8648843" lon="7.3400101"><ele>349.3333333333333</ele><time>2026-05-03T15:46:17.304Z</time></trkpt><trkpt lat="44.864828" lon="7.3401059"><ele>349.0</ele><time>2026-05-03T15:46:18.304Z</time></trkpt><trkpt lat="44.8647732" lon="7.3401946"><ele>349.0</ele><time>2026-05-03T15:46:19.302Z</time></trkpt><trkpt lat="44.8647127" lon="7.3402891"><ele>349.0</ele><time>2026-05-03T15:46:20.304Z</time></trkpt><trkpt lat="44.8646569" lon="7.3403887"><ele>349.0</ele><time>2026-05-03T15:46:21.304Z</time></trkpt><trkpt lat="44.864602" lon="7.3404803"><ele>349.0</ele><time>2026-05-03T15:46:22.303Z</time></trkpt><trkpt lat="44.8645521" lon="7.3405649"><ele>349.0</ele><time>2026-05-03T15:46:23.303Z</time></trkpt><trkpt lat="44.8645055" lon="7.3406616"><ele>349.0</ele><time>2026-05-03T15:46:24.303Z</time></trkpt><trkpt lat="44.8644535" lon="7.3407517"><ele>349.0</ele><time>2026-05-03T15:46:25.303Z</time></trkpt><trkpt lat="44.8644063" lon="7.3408552"><ele>349.0</ele><time>2026-05-03T15:46:26.304Z</time></trkpt><trkpt lat="44.8643568" lon="7.3409364"><ele>349.0</ele><time>2026-05-03T15:46:27.302Z</time></trkpt><trkpt lat="44.8643072" lon="7.3410398"><ele>349.0</ele><time>2026-05-03T15:46:28.303Z</time></trkpt><trkpt lat="44.8642623" lon="7.3411312"><ele>349.0</ele><time>2026-05-03T15:46:29.304Z</time></trkpt><trkpt lat="44.864211" lon="7.341227"><ele>349.0</ele><time>2026-05-03T15:46:30.302Z</time></trkpt><trkpt lat="44.8641581" lon="7.341314"><ele>349.2</ele><time>2026-05-03T15:46:31.303Z</time></trkpt><trkpt lat="44.8640985" lon="7.3413847"><ele>349.4</ele><time>2026-05-03T15:46:32.303Z</time></trkpt><trkpt lat="44.8640309" lon="7.3414441"><ele>349.6</ele><time>2026-05-03T15:46:33.302Z</time></trkpt><trkpt lat="44.8639782" lon="7.3414996"><ele>349.8</ele><time>2026-05-03T15:46:34.302Z</time></trkpt><trkpt lat="44.8638857" lon="7.341605"><ele>350.0</ele><time>2026-05-03T15:46:36.302Z</time></trkpt><trkpt lat="44.8638012" lon="7.3417108"><ele>350.0</ele><time>2026-05-03T15:46:38.302Z</time></trkpt><trkpt lat="44.8637199" lon="7.3418228"><ele>350.0</ele><time>2026-05-03T15:46:40.303Z</time></trkpt><trkpt lat="44.8636581" lon="7.3418987"><ele>350.0</ele><time>2026-05-03T15:46:42.303Z</time></trkpt><trkpt lat="44.8635821" lon="7.3419677"><ele>350.0</ele><time>2026-05-03T15:46:44.303Z</time></trkpt><trkpt lat="44.8635173" lon="7.3420207"><ele>350.0</ele><time>2026-05-03T15:46:46.303Z</time></trkpt><trkpt lat="44.8634537" lon="7.3420643"><ele>350.0</ele><time>2026-05-03T15:46:48.303Z</time></trkpt><trkpt lat="44.8633843" lon="7.3421411"><ele>350.0</ele><time>2026-05-03T15:46:51.303Z</time></trkpt><trkpt lat="44.8633213" lon="7.3421901"><ele>350.0</ele><time>2026-05-03T15:46:54.303Z</time></trkpt><trkpt lat="44.863282" lon="7.3422854"><ele>350.0</ele><time>2026-05-03T15:50:42.303Z</time></trkpt><trkpt lat="44.8632128" lon="7.3423646"><ele>350.0</ele><time>2026-05-03T15:50:44.302Z</time></trkpt><trkpt lat="44.8631422" lon="7.3424644"><ele>350.0</ele><time>2026-05-03T15:50:46.302Z</time></trkpt><trkpt lat="44.8630665" lon="7.3425679"><ele>350.0</ele><time>2026-05-03T15:50:48.301Z</time></trkpt><trkpt lat="44.8629748" lon="7.3426504"><ele>350.0</ele><time>2026-05-03T15:50:50.303Z</time></trkpt><trkpt lat="44.8628903" lon="7.3427199"><ele>350.0</ele><time>2026-05-03T15:50:52.302Z</time></trkpt><trkpt lat="44.8628012" lon="7.3428039"><ele>350.0</ele><time>2026-05-03T15:50:54.301Z</time></trkpt><trkpt lat="44.8627128" lon="7.3429193"><ele>350.0</ele><time>2026-05-03T15:50:56.302Z</time></trkpt><trkpt lat="44.862615" lon="7.3430039"><ele>350.0</ele><time>2026-05-03T15:50:58.301Z</time></trkpt><trkpt lat="44.8625289" lon="7.3430823"><ele>349.8</ele><time>2026-05-03T15:51:00.302Z</time></trkpt><trkpt lat="44.8624514" lon="7.3431434"><ele>349.6</ele><time>2026-05-03T15:51:02.303Z</time></trkpt><trkpt lat="44.8623794" lon="7.3431741"><ele>349.4</ele><time>2026-05-03T15:51:04.303Z</time></trkpt><trkpt lat="44.8623009" lon="7.343161"><ele>349.2</ele><time>2026-05-03T15:51:06.301Z</time></trkpt><trkpt lat="44.8621933" lon="7.3431999"><ele>349.0</ele><time>2026-05-03T15:51:08.303Z</time></trkpt><trkpt lat="44.8620871" lon="7.3432558"><ele>349.0</ele><time>2026-05-03T15:51:10.301Z</time></trkpt><trkpt lat="44.8619823" lon="7.3433204"><ele>349.0</ele><time>2026-05-03T15:51:12.301Z</time></trkpt><trkpt lat="44.8618775" lon="7.3433622"><ele>349.0</ele><time>2026-05-03T15:51:14.301Z</time></trkpt><trkpt lat="44.861798" lon="7.3434268"><ele>349.0</ele><time>2026-05-03T15:51:16.302Z</time></trkpt><trkpt lat="44.861714" lon="7.3435522"><ele>349.0</ele><time>2026-05-03T15:51:18.301Z</time></trkpt><trkpt lat="44.8616625" lon="7.3436119"><ele>348.6</ele><time>2026-05-03T15:51:19.301Z</time></trkpt><trkpt lat="44.8615777" lon="7.3437637"><ele>348.2</ele><time>2026-05-03T15:51:21.302Z</time></trkpt><trkpt lat="44.8615524" lon="7.3438988"><ele>347.8</ele><time>2026-05-03T15:51:23.302Z</time></trkpt><trkpt lat="44.8615328" lon="7.3440386"><ele>347.40000000000003</ele><time>2026-05-03T15:51:25.301Z</time></trkpt><trkpt lat="44.8615299" lon="7.3441765"><ele>347.0</ele><time>2026-05-03T15:51:27.302Z</time></trkpt><trkpt lat="44.8615052" lon="7.3442869"><ele>347.0</ele><time>2026-05-03T15:51:29.302Z</time></trkpt><trkpt lat="44.8614321" lon="7.3443739"><ele>347.0</ele><time>2026-05-03T15:51:31.303Z</time></trkpt><trkpt lat="44.8613518" lon="7.3444703"><ele>347.0</ele><time>2026-05-03T15:51:33.302Z</time></trkpt><trkpt lat="44.8612889" lon="7.3445997"><ele>347.0</ele><time>2026-05-03T15:51:35.303Z</time></trkpt><trkpt lat="44.8612217" lon="7.344728"><ele>347.0</ele><time>2026-05-03T15:51:37.302Z</time></trkpt><trkpt lat="44.8611827" lon="7.344815"><ele>346.8</ele><time>2026-05-03T15:51:38.301Z</time></trkpt><trkpt lat="44.8611176" lon="7.3449417"><ele>346.6</ele><time>2026-05-03T15:51:40.302Z</time></trkpt><trkpt lat="44.8610634" lon="7.3450627"><ele>346.40000000000003</ele><time>2026-05-03T15:51:42.301Z</time></trkpt><trkpt lat="44.8610261" lon="7.3452072"><ele>346.20000000000005</ele><time>2026-05-03T15:51:44.302Z</time></trkpt><trkpt lat="44.8609575" lon="7.3452661"><ele>346.0</ele><time>2026-05-03T15:51:53.302Z</time></trkpt><trkpt lat="44.8608819" lon="7.3452818"><ele>346.3333333333333</ele><time>2026-05-03T15:51:55.303Z</time></trkpt><trkpt lat="44.8608001" lon="7.3453462"><ele>346.66666666666663</ele><time>2026-05-03T15:51:58.301Z</time></trkpt><trkpt lat="44.8607363" lon="7.3454585"><ele>347.0</ele><time>2026-05-03T15:52:00.301Z</time></trkpt><trkpt lat="44.8606889" lon="7.345539"><ele>347.3333333333333</ele><time>2026-05-03T15:52:02.302Z</time></trkpt><trkpt lat="44.8606318" lon="7.3456258"><ele>347.6666666666667</ele><time>2026-05-03T15:52:04.302Z</time></trkpt><trkpt lat="44.8605863" lon="7.3456925"><ele>348.0</ele><time>2026-05-03T15:52:05.302Z</time></trkpt><trkpt lat="44.8605297" lon="7.3458152"><ele>347.2</ele><time>2026-05-03T15:52:07.302Z</time></trkpt><trkpt lat="44.8604542" lon="7.3459309"><ele>346.4</ele><time>2026-05-03T15:52:09.301Z</time></trkpt><trkpt lat="44.8604014" lon="7.346009"><ele>345.59999999999997</ele><time>2026-05-03T15:52:10.301Z</time></trkpt><trkpt lat="44.8603635" lon="7.3461138"><ele>344.79999999999995</ele><time>2026-05-03T15:52:12.301Z</time></trkpt><trkpt lat="44.8603791" lon="7.3462786"><ele>344.0</ele><time>2026-05-03T15:52:14.302Z</time></trkpt><trkpt lat="44.860383" lon="7.3463678"><ele>344.0</ele><time>2026-05-03T15:52:15.302Z</time></trkpt><trkpt lat="44.8603501" lon="7.3465187"><ele>344.0</ele><time>2026-05-03T15:52:17.302Z</time></trkpt><trkpt lat="44.8602842" lon="7.3466504"><ele>344.0</ele><time>2026-05-03T15:52:19.301Z</time></trkpt><trkpt lat="44.8602192" lon="7.3468099"><ele>344.0</ele><time>2026-05-03T15:52:21.301Z</time></trkpt><trkpt lat="44.8601479" lon="7.3469224"><ele>344.2</ele><time>2026-05-03T15:52:23.302Z</time></trkpt><trkpt lat="44.8600996" lon="7.3470675"><ele>344.4</ele><time>2026-05-03T15:52:25.301Z</time></trkpt><trkpt lat="44.860056" lon="7.3472343"><ele>344.6</ele><time>2026-05-03T15:52:27.301Z</time></trkpt><trkpt lat="44.860038" lon="7.347323"><ele>344.8</ele><time>2026-05-03T15:52:28.301Z</time></trkpt><trkpt lat="44.860014" lon="7.3475083"><ele>345.0</ele><time>2026-05-03T15:52:30.301Z</time></trkpt><trkpt lat="44.8599845" lon="7.3476796"><ele>344.6666666666667</ele><time>2026-05-03T15:52:32.301Z</time></trkpt><trkpt lat="44.8599534" lon="7.347769"><ele>344.3333333333333</ele><time>2026-05-03T15:52:33.302Z</time></trkpt><trkpt lat="44.8598754" lon="7.3479047"><ele>344.0</ele><time>2026-05-03T15:52:35.301Z</time></trkpt><trkpt lat="44.8598385" lon="7.3479908"><ele>343.66666666666663</ele><time>2026-05-03T15:52:36.301Z</time></trkpt><trkpt lat="44.8597866" lon="7.3480452"><ele>343.3333333333333</ele><time>2026-05-03T15:52:37.301Z</time></trkpt><trkpt lat="44.8597388" lon="7.3481057"><ele>343.0</ele><time>2026-05-03T15:52:38.301Z</time></trkpt><trkpt lat="44.8596866" lon="7.3481699"><ele>342.66666666666663</ele><time>2026-05-03T15:52:39.301Z</time></trkpt><trkpt lat="44.8596352" lon="7.348241"><ele>342.3333333333333</ele><time>2026-05-03T15:52:40.302Z</time></trkpt><trkpt lat="44.8595799" lon="7.3483205"><ele>342.0</ele><time>2026-05-03T15:52:41.302Z</time></trkpt><trkpt lat="44.859525" lon="7.3483991"><ele>341.6666666666667</ele><time>2026-05-03T15:52:42.303Z</time></trkpt><trkpt lat="44.8594699" lon="7.3484558"><ele>341.33333333333337</ele><time>2026-05-03T15:52:43.303Z</time></trkpt><trkpt lat="44.8594258" lon="7.3485244"><ele>341.0</ele><time>2026-05-03T15:52:44.301Z</time></trkpt><trkpt lat="44.8593438" lon="7.3486041"><ele>341.20000000000005</ele><time>2026-05-03T15:52:46.302Z</time></trkpt><trkpt lat="44.8592488" lon="7.3486894"><ele>341.40000000000003</ele><time>2026-05-03T15:52:48.301Z</time></trkpt><trkpt lat="44.8591938" lon="7.3487364"><ele>341.6</ele><time>2026-05-03T15:52:49.301Z</time></trkpt><trkpt lat="44.8591156" lon="7.3488156"><ele>341.8</ele><time>2026-05-03T15:52:51.301Z</time></trkpt><trkpt lat="44.8590328" lon="7.348904"><ele>342.0</ele><time>2026-05-03T15:52:53.301Z</time></trkpt><trkpt lat="44.8589219" lon="7.3489691"><ele>341.6</ele><time>2026-05-03T15:52:55.302Z</time></trkpt><trkpt lat="44.8588697" lon="7.3490238"><ele>341.20000000000005</ele><time>2026-05-03T15:52:56.302Z</time></trkpt><trkpt lat="44.8588083" lon="7.3490821"><ele>340.8</ele><time>2026-05-03T15:52:57.301Z</time></trkpt><trkpt lat="44.8587133" lon="7.3491853"><ele>340.4</ele><time>2026-05-03T15:52:59.302Z</time></trkpt><trkpt lat="44.8586231" lon="7.3492941"><ele>340.0</ele><time>2026-05-03T15:53:01.302Z</time></trkpt><trkpt lat="44.8585336" lon="7.3494066"><ele>340.0</ele><time>2026-05-03T15:53:03.301Z</time></trkpt><trkpt lat="44.8584694" lon="7.3494588"><ele>340.0</ele><time>2026-05-03T15:53:04.302Z</time></trkpt><trkpt lat="44.858418" lon="7.3495127"><ele>340.0</ele><time>2026-05-03T15:53:05.301Z</time></trkpt><trkpt lat="44.858362" lon="7.3495867"><ele>340.0</ele><time>2026-05-03T15:53:06.302Z</time></trkpt><trkpt lat="44.8583163" lon="7.3496608"><ele>340.0</ele><time>2026-05-03T15:53:07.301Z</time></trkpt><trkpt lat="44.8582306" lon="7.3497989"><ele>340.0</ele><time>2026-05-03T15:53:09.302Z</time></trkpt><trkpt lat="44.8581862" lon="7.3498687"><ele>339.6</ele><time>2026-05-03T15:53:10.302Z</time></trkpt><trkpt lat="44.8581338" lon="7.3499254"><ele>339.2</ele><time>2026-05-03T15:53:11.301Z</time></trkpt><trkpt lat="44.8580606" lon="7.3500449"><ele>338.79999999999995</ele><time>2026-05-03T15:53:13.301Z</time></trkpt><trkpt lat="44.858" lon="7.3501837"><ele>338.4</ele><time>2026-05-03T15:53:15.302Z</time></trkpt><trkpt lat="44.8579287" lon="7.3503282"><ele>338.0</ele><time>2026-05-03T15:53:17.301Z</time></trkpt><trkpt lat="44.8578595" lon="7.3504829"><ele>337.59999999999997</ele><time>2026-05-03T15:53:19.303Z</time></trkpt><trkpt lat="44.8578195" lon="7.350563"><ele>337.2</ele><time>2026-05-03T15:53:20.301Z</time></trkpt><trkpt lat="44.8577796" lon="7.3506537"><ele>336.8</ele><time>2026-05-03T15:53:21.302Z</time></trkpt><trkpt lat="44.8577223" lon="7.3508185"><ele>336.4</ele><time>2026-05-03T15:53:23.302Z</time></trkpt><trkpt lat="44.8576948" lon="7.3509028"><ele>336.0</ele><time>2026-05-03T15:53:24.303Z</time></trkpt><trkpt lat="44.8576571" lon="7.3510703"><ele>336.20000000000005</ele><time>2026-05-03T15:53:26.302Z</time></trkpt><trkpt lat="44.8576111" lon="7.3512353"><ele>336.40000000000003</ele><time>2026-05-03T15:53:28.302Z</time></trkpt><trkpt lat="44.8576032" lon="7.351402"><ele>336.6</ele><time>2026-05-03T15:53:30.303Z</time></trkpt><trkpt lat="44.8575924" lon="7.35149"><ele>336.8</ele><time>2026-05-03T15:53:31.301Z</time></trkpt><trkpt lat="44.8575466" lon="7.3516144"><ele>337.0</ele><time>2026-05-03T15:53:33.301Z</time></trkpt><trkpt lat="44.8574762" lon="7.3517607"><ele>336.40000000000003</ele><time>2026-05-03T15:53:35.302Z</time></trkpt><trkpt lat="44.857433" lon="7.3518268"><ele>335.8</ele><time>2026-05-03T15:53:36.3Z</time></trkpt><trkpt lat="44.8573936" lon="7.3518967"><ele>335.2</ele><time>2026-05-03T15:53:37.3Z</time></trkpt><trkpt lat="44.8572679" lon="7.3519571"><ele>334.6</ele><time>2026-05-03T15:53:39.302Z</time></trkpt><trkpt lat="44.8572093" lon="7.3519934"><ele>334.0</ele><time>2026-05-03T15:53:40.3Z</time></trkpt><trkpt lat="44.8570795" lon="7.3520283"><ele>334.0</ele><time>2026-05-03T15:53:42.302Z</time></trkpt><trkpt lat="44.8569804" lon="7.3520692"><ele>334.0</ele><time>2026-05-03T15:53:44.301Z</time></trkpt><trkpt lat="44.8569155" lon="7.3520647"><ele>334.0</ele><time>2026-05-03T15:53:45.301Z</time></trkpt><trkpt lat="44.8568428" lon="7.3520501"><ele>334.0</ele><time>2026-05-03T15:53:46.301Z</time></trkpt><trkpt lat="44.8567694" lon="7.3520435"><ele>334.0</ele><time>2026-05-03T15:53:47.302Z</time></trkpt><trkpt lat="44.8567032" lon="7.352074"><ele>334.0</ele><time>2026-05-03T15:53:48.3Z</time></trkpt><trkpt lat="44.8566462" lon="7.352144"><ele>333.8333333333333</ele><time>2026-05-03T15:53:49.301Z</time></trkpt><trkpt lat="44.8565929" lon="7.352195"><ele>333.66666666666663</ele><time>2026-05-03T15:53:50.301Z</time></trkpt><trkpt lat="44.8565209" lon="7.3522691"><ele>333.5</ele><time>2026-05-03T15:53:51.302Z</time></trkpt><trkpt lat="44.8564571" lon="7.3523022"><ele>333.3333333333333</ele><time>2026-05-03T15:53:52.302Z</time></trkpt><trkpt lat="44.8563756" lon="7.3524052"><ele>333.1666666666667</ele><time>2026-05-03T15:53:54.301Z</time></trkpt><trkpt lat="44.8563294" lon="7.352475"><ele>333.0</ele><time>2026-05-03T15:53:55.301Z</time></trkpt><trkpt lat="44.8562723" lon="7.3525443"><ele>333.0</ele><time>2026-05-03T15:53:56.302Z</time></trkpt><trkpt lat="44.8562182" lon="7.3525975"><ele>333.0</ele><time>2026-05-03T15:53:57.301Z</time></trkpt><trkpt lat="44.8561466" lon="7.3526389"><ele>333.0</ele><time>2026-05-03T15:53:58.301Z</time></trkpt><trkpt lat="44.8560859" lon="7.3526959"><ele>333.0</ele><time>2026-05-03T15:53:59.303Z</time></trkpt><trkpt lat="44.8560253" lon="7.3527619"><ele>333.0</ele><time>2026-05-03T15:54:00.301Z</time></trkpt><trkpt lat="44.8559741" lon="7.3528166"><ele>333.0</ele><time>2026-05-03T15:54:01.303Z</time></trkpt><trkpt lat="44.8559186" lon="7.352869"><ele>333.0</ele><time>2026-05-03T15:54:02.301Z</time></trkpt><trkpt lat="44.8558542" lon="7.3529151"><ele>333.2857142857143</ele><time>2026-05-03T15:54:03.3Z</time></trkpt><trkpt lat="44.8557619" lon="7.3529843"><ele>333.57142857142856</ele><time>2026-05-03T15:54:05.301Z</time></trkpt><trkpt lat="44.8556896" lon="7.3530305"><ele>333.85714285714283</ele><time>2026-05-03T15:54:06.301Z</time></trkpt><trkpt lat="44.855628" lon="7.3530639"><ele>334.1428571428571</ele><time>2026-05-03T15:54:07.3Z</time></trkpt><trkpt lat="44.8555675" lon="7.3530944"><ele>334.42857142857144</ele><time>2026-05-03T15:54:08.3Z</time></trkpt><trkpt lat="44.8555078" lon="7.3531445"><ele>334.71428571428567</ele><time>2026-05-03T15:54:09.303Z</time></trkpt><trkpt lat="44.8554555" lon="7.3531954"><ele>335.0</ele><time>2026-05-03T15:54:10.302Z</time></trkpt><trkpt lat="44.8553805" lon="7.3532525"><ele>335.0</ele><time>2026-05-03T15:54:11.301Z</time></trkpt><trkpt lat="44.8553124" lon="7.3533341"><ele>335.0</ele><time>2026-05-03T15:54:12.301Z</time></trkpt><trkpt lat="44.8552512" lon="7.3534253"><ele>335.0</ele><time>2026-05-03T15:54:13.301Z</time></trkpt><trkpt lat="44.8551868" lon="7.3535129"><ele>335.0</ele><time>2026-05-03T15:54:14.301Z</time></trkpt><trkpt lat="44.8551328" lon="7.3536162"><ele>335.0</ele><time>2026-05-03T15:54:15.301Z</time></trkpt><trkpt lat="44.8550845" lon="7.3537221"><ele>335.0</ele><time>2026-05-03T15:54:16.302Z</time></trkpt><trkpt lat="44.8550276" lon="7.3538155"><ele>335.1428571428571</ele><time>2026-05-03T15:54:17.302Z</time></trkpt><trkpt lat="44.8549736" lon="7.3539025"><ele>335.2857142857143</ele><time>2026-05-03T15:54:18.3Z</time></trkpt><trkpt lat="44.8549209" lon="7.3539814"><ele>335.42857142857144</ele><time>2026-05-03T15:54:19.301Z</time></trkpt><trkpt lat="44.8548714" lon="7.3540546"><ele>335.57142857142856</ele><time>2026-05-03T15:54:20.302Z</time></trkpt><trkpt lat="44.8548173" lon="7.3541279"><ele>335.7142857142857</ele><time>2026-05-03T15:54:21.301Z</time></trkpt><trkpt lat="44.8547613" lon="7.3541956"><ele>335.85714285714283</ele><time>2026-05-03T15:54:22.302Z</time></trkpt><trkpt lat="44.8547097" lon="7.3542547"><ele>336.0</ele><time>2026-05-03T15:54:23.301Z</time></trkpt><trkpt lat="44.8546517" lon="7.3543029"><ele>336.0</ele><time>2026-05-03T15:54:24.3Z</time></trkpt><trkpt lat="44.8545967" lon="7.3543476"><ele>336.0</ele><time>2026-05-03T15:54:25.301Z</time></trkpt><trkpt lat="44.8545136" lon="7.3544673"><ele>336.0</ele><time>2026-05-03T15:54:27.303Z</time></trkpt><trkpt lat="44.8544622" lon="7.3545356"><ele>336.0</ele><time>2026-05-03T15:54:28.301Z</time></trkpt><trkpt lat="44.8543874" lon="7.3546309"><ele>336.0</ele><time>2026-05-03T15:54:30.301Z</time></trkpt><trkpt lat="44.8543222" lon="7.3547457"><ele>335.4</ele><time>2026-05-03T15:54:32.302Z</time></trkpt><trkpt lat="44.8542622" lon="7.354864"><ele>334.8</ele><time>2026-05-03T15:54:34.301Z</time></trkpt><trkpt lat="44.8541811" lon="7.3549433"><ele>334.2</ele><time>2026-05-03T15:54:36.301Z</time></trkpt><trkpt lat="44.8541005" lon="7.3550164"><ele>333.59999999999997</ele><time>2026-05-03T15:54:38.302Z</time></trkpt><trkpt lat="44.8540233" lon="7.3550229"><ele>333.0</ele><time>2026-05-03T15:54:40.301Z</time></trkpt><trkpt lat="44.8539816" lon="7.3551242"><ele>333.0</ele><time>2026-05-03T15:54:43.301Z</time></trkpt><trkpt lat="44.8540064" lon="7.3552394"><ele>333.0</ele><time>2026-05-03T15:54:45.301Z</time></trkpt><trkpt lat="44.853943" lon="7.3553407"><ele>333.0</ele><time>2026-05-03T15:54:47.301Z</time></trkpt><trkpt lat="44.8538313" lon="7.3554103"><ele>333.0</ele><time>2026-05-03T15:54:49.302Z</time></trkpt><trkpt lat="44.8537747" lon="7.3554547"><ele>333.0</ele><time>2026-05-03T15:54:50.3Z</time></trkpt><trkpt lat="44.8536661" lon="7.3555212"><ele>332.79999999999995</ele><time>2026-05-03T15:54:52.301Z</time></trkpt><trkpt lat="44.8535779" lon="7.3556459"><ele>332.6</ele><time>2026-05-03T15:54:54.301Z</time></trkpt><trkpt lat="44.8535287" lon="7.3557152"><ele>332.4</ele><time>2026-05-03T15:54:55.301Z</time></trkpt><trkpt lat="44.8534424" lon="7.3558645"><ele>332.20000000000005</ele><time>2026-05-03T15:54:57.3Z</time></trkpt><trkpt lat="44.8533857" lon="7.3559864"><ele>332.0</ele><time>2026-05-03T15:54:59.301Z</time></trkpt><trkpt lat="44.8533698" lon="7.3560856"><ele>332.0</ele><time>2026-05-03T15:55:00.302Z</time></trkpt><trkpt lat="44.8533279" lon="7.356242"><ele>332.0</ele><time>2026-05-03T15:55:02.3Z</time></trkpt><trkpt lat="44.8533145" lon="7.356332"><ele>332.0</ele><time>2026-05-03T15:55:03.302Z</time></trkpt><trkpt lat="44.8532849" lon="7.3564846"><ele>332.0</ele><time>2026-05-03T15:55:05.302Z</time></trkpt><trkpt lat="44.8532283" lon="7.3566075"><ele>332.0</ele><time>2026-05-03T15:55:07.3Z</time></trkpt><trkpt lat="44.8531577" lon="7.3566997"><ele>331.20000000000005</ele><time>2026-05-03T15:55:09.301Z</time></trkpt><trkpt lat="44.8530776" lon="7.3567851"><ele>330.4</ele><time>2026-05-03T15:55:11.301Z</time></trkpt><trkpt lat="44.8529752" lon="7.3568416"><ele>329.6</ele><time>2026-05-03T15:55:13.3Z</time></trkpt><trkpt lat="44.8529038" lon="7.3569009"><ele>328.79999999999995</ele><time>2026-05-03T15:55:15.301Z</time></trkpt><trkpt lat="44.8528241" lon="7.3569417"><ele>328.0</ele><time>2026-05-03T15:55:17.302Z</time></trkpt><trkpt lat="44.8527289" lon="7.3569761"><ele>328.0</ele><time>2026-05-03T15:55:20.301Z</time></trkpt><trkpt lat="44.8526653" lon="7.3570741"><ele>328.0</ele><time>2026-05-03T15:55:22.302Z</time></trkpt><trkpt lat="44.8526266" lon="7.3572155"><ele>328.0</ele><time>2026-05-03T15:55:24.301Z</time></trkpt><trkpt lat="44.8525726" lon="7.3572751"><ele>328.0</ele><time>2026-05-03T15:55:26.301Z</time></trkpt><trkpt lat="44.8525032" lon="7.357337"><ele>328.0</ele><time>2026-05-03T15:55:29.302Z</time></trkpt><trkpt lat="44.8524354" lon="7.3573287"><ele>328.0</ele><time>2026-05-03T15:55:32.301Z</time></trkpt><trkpt lat="44.8523783" lon="7.3574308"><ele>328.79999999999995</ele><time>2026-05-03T15:55:36.301Z</time></trkpt><trkpt lat="44.8522928" lon="7.3575505"><ele>329.6</ele><time>2026-05-03T15:55:38.301Z</time></trkpt><trkpt lat="44.8522138" lon="7.3576667"><ele>330.4</ele><time>2026-05-03T15:55:40.302Z</time></trkpt><trkpt lat="44.8521485" lon="7.357756"><ele>331.20000000000005</ele><time>2026-05-03T15:55:42.3Z</time></trkpt><trkpt lat="44.8520946" lon="7.3578356"><ele>332.0</ele><time>2026-05-03T15:55:44.301Z</time></trkpt><trkpt lat="44.8520355" lon="7.3579072"><ele>332.0</ele><time>2026-05-03T15:55:47.301Z</time></trkpt><trkpt lat="44.8520192" lon="7.3580106"><ele>332.0</ele><time>2026-05-03T15:55:49.3Z</time></trkpt><trkpt lat="44.8519899" lon="7.3581177"><ele>332.0</ele><time>2026-05-03T15:55:51.3Z</time></trkpt><trkpt lat="44.8519259" lon="7.3582571"><ele>332.0</ele><time>2026-05-03T15:55:53.302Z</time></trkpt><trkpt lat="44.8519046" lon="7.3583651"><ele>332.0</ele><time>2026-05-03T15:55:55.3Z</time></trkpt><trkpt lat="44.8518228" lon="7.3584802"><ele>331.20000000000005</ele><time>2026-05-03T15:55:57.301Z</time></trkpt><trkpt lat="44.8517562" lon="7.3585835"><ele>330.4</ele><time>2026-05-03T15:55:59.301Z</time></trkpt><trkpt lat="44.8516896" lon="7.3586683"><ele>329.6</ele><time>2026-05-03T15:56:01.3Z</time></trkpt><trkpt lat="44.8516375" lon="7.3588217"><ele>328.79999999999995</ele><time>2026-05-03T15:56:03.3Z</time></trkpt><trkpt lat="44.8515998" lon="7.3589762"><ele>328.0</ele><time>2026-05-03T15:56:05.3Z</time></trkpt><trkpt lat="44.8515815" lon="7.3591141"><ele>328.0</ele><time>2026-05-03T15:56:07.302Z</time></trkpt><trkpt lat="44.8515894" lon="7.3592462"><ele>328.0</ele><time>2026-05-03T15:56:09.301Z</time></trkpt><trkpt lat="44.8515863" lon="7.3593851"><ele>328.0</ele><time>2026-05-03T15:56:11.302Z</time></trkpt><trkpt lat="44.8515604" lon="7.3595065"><ele>328.0</ele><time>2026-05-03T15:56:13.301Z</time></trkpt><trkpt lat="44.8514772" lon="7.3596084"><ele>328.0</ele><time>2026-05-03T15:56:15.301Z</time></trkpt><trkpt lat="44.8514037" lon="7.3597107"><ele>328.0</ele><time>2026-05-03T15:56:17.3Z</time></trkpt><trkpt lat="44.8513167" lon="7.3598081"><ele>328.0</ele><time>2026-05-03T15:56:19.301Z</time></trkpt><trkpt lat="44.8512423" lon="7.3599388"><ele>328.0</ele><time>2026-05-03T15:56:21.3Z</time></trkpt><trkpt lat="44.8511827" lon="7.360054"><ele>328.0</ele><time>2026-05-03T15:56:23.301Z</time></trkpt><trkpt lat="44.8511256" lon="7.3601509"><ele>328.0</ele><time>2026-05-03T15:56:25.3Z</time></trkpt><trkpt lat="44.8510662" lon="7.3602778"><ele>328.0</ele><time>2026-05-03T15:56:27.301Z</time></trkpt><trkpt lat="44.8510183" lon="7.3603776"><ele>328.0</ele><time>2026-05-03T15:56:29.3Z</time></trkpt><trkpt lat="44.8509717" lon="7.360444"><ele>328.0</ele><time>2026-05-03T15:56:31.301Z</time></trkpt><trkpt lat="44.8509172" lon="7.3604905"><ele>328.0</ele><time>2026-05-03T15:56:33.302Z</time></trkpt><trkpt lat="44.8508635" lon="7.3605909"><ele>328.0</ele><time>2026-05-03T15:56:35.301Z</time></trkpt><trkpt lat="44.8508047" lon="7.3606819"><ele>328.0</ele><time>2026-05-03T15:56:37.3Z</time></trkpt><trkpt lat="44.8507429" lon="7.3607703"><ele>327.79999999999995</ele><time>2026-05-03T15:56:39.3Z</time></trkpt><trkpt lat="44.850635" lon="7.360684"><ele>327.6</ele><time>2026-05-03T15:57:09.3Z</time></trkpt><trkpt lat="44.8505552" lon="7.3605984"><ele>327.4</ele><time>2026-05-03T15:57:11.302Z</time></trkpt><trkpt lat="44.8504655" lon="7.3605367"><ele>327.20000000000005</ele><time>2026-05-03T15:57:13.302Z</time></trkpt><trkpt lat="44.8504026" lon="7.3604914"><ele>327.0</ele><time>2026-05-03T15:57:14.301Z</time></trkpt><trkpt lat="44.8503097" lon="7.3604349"><ele>327.0</ele><time>2026-05-03T15:57:16.301Z</time></trkpt><trkpt lat="44.8502384" lon="7.3603621"><ele>327.0</ele><time>2026-05-03T15:57:18.3Z</time></trkpt><trkpt lat="44.8501664" lon="7.3603605"><ele>327.0</ele><time>2026-05-03T15:57:20.299Z</time></trkpt><trkpt lat="44.8501314" lon="7.3604652"><ele>327.0</ele><time>2026-05-03T15:57:21.301Z</time></trkpt><trkpt lat="44.8500995" lon="7.3605663"><ele>327.0</ele><time>2026-05-03T15:57:22.301Z</time></trkpt><trkpt lat="44.8500636" lon="7.3606761"><ele>327.0</ele><time>2026-05-03T15:57:23.299Z</time></trkpt><trkpt lat="44.8500287" lon="7.3607751"><ele>326.6</ele><time>2026-05-03T15:57:24.301Z</time></trkpt><trkpt lat="44.850004" lon="7.3608989"><ele>326.20000000000005</ele><time>2026-05-03T15:57:25.3Z</time></trkpt><trkpt lat="44.8499807" lon="7.3610251"><ele>325.8</ele><time>2026-05-03T15:57:26.302Z</time></trkpt><trkpt lat="44.8499354" lon="7.3611323"><ele>325.4</ele><time>2026-05-03T15:57:27.3Z</time></trkpt><trkpt lat="44.8498955" lon="7.3612713"><ele>325.0</ele><time>2026-05-03T15:57:28.301Z</time></trkpt><trkpt lat="44.8498416" lon="7.3613389"><ele>325.2</ele><time>2026-05-03T15:57:29.3Z</time></trkpt><trkpt lat="44.849778" lon="7.3614105"><ele>325.4</ele><time>2026-05-03T15:57:30.3Z</time></trkpt><trkpt lat="44.8496727" lon="7.3615192"><ele>325.6</ele><time>2026-05-03T15:57:32.3Z</time></trkpt><trkpt lat="44.8495977" lon="7.3615284"><ele>325.8</ele><time>2026-05-03T15:57:33.3Z</time></trkpt><trkpt lat="44.8495259" lon="7.3616018"><ele>326.0</ele><time>2026-05-03T15:57:34.3Z</time></trkpt><trkpt lat="44.8494586" lon="7.3616606"><ele>326.0</ele><time>2026-05-03T15:57:35.301Z</time></trkpt><trkpt lat="44.8493866" lon="7.3617179"><ele>326.0</ele><time>2026-05-03T15:57:36.301Z</time></trkpt><trkpt lat="44.8493075" lon="7.3617638"><ele>326.0</ele><time>2026-05-03T15:57:37.3Z</time></trkpt><trkpt lat="44.8492399" lon="7.3617955"><ele>326.0</ele><time>2026-05-03T15:57:38.301Z</time></trkpt><trkpt lat="44.8491682" lon="7.3618407"><ele>326.0</ele><time>2026-05-03T15:57:39.299Z</time></trkpt><trkpt lat="44.8491093" lon="7.3618917"><ele>326.0</ele><time>2026-05-03T15:57:40.3Z</time></trkpt><trkpt lat="44.8490036" lon="7.3619123"><ele>326.20000000000005</ele><time>2026-05-03T15:57:41.301Z</time></trkpt><trkpt lat="44.8489468" lon="7.3620461"><ele>326.40000000000003</ele><time>2026-05-03T15:57:43.301Z</time></trkpt><trkpt lat="44.8489382" lon="7.3622603"><ele>326.6</ele><time>2026-05-03T15:57:45.3Z</time></trkpt><trkpt lat="44.8489401" lon="7.3623914"><ele>326.8</ele><time>2026-05-03T15:57:46.299Z</time></trkpt><trkpt lat="44.8489231" lon="7.3625024"><ele>327.0</ele><time>2026-05-03T15:57:47.302Z</time></trkpt><trkpt lat="44.8488661" lon="7.3625432"><ele>327.1666666666667</ele><time>2026-05-03T15:57:48.3Z</time></trkpt><trkpt lat="44.8487914" lon="7.3625884"><ele>327.3333333333333</ele><time>2026-05-03T15:57:49.3Z</time></trkpt><trkpt lat="44.8486983" lon="7.3626475"><ele>327.5</ele><time>2026-05-03T15:57:50.3Z</time></trkpt><trkpt lat="44.8486178" lon="7.3627068"><ele>327.66666666666663</ele><time>2026-05-03T15:57:51.3Z</time></trkpt><trkpt lat="44.8485352" lon="7.3627494"><ele>327.8333333333333</ele><time>2026-05-03T15:57:52.3Z</time></trkpt><trkpt lat="44.8484669" lon="7.362765"><ele>328.0</ele><time>2026-05-03T15:57:53.3Z</time></trkpt><trkpt lat="44.8483494" lon="7.3628328"><ele>328.0</ele><time>2026-05-03T15:57:55.3Z</time></trkpt><trkpt lat="44.848292" lon="7.3628816"><ele>328.0</ele><time>2026-05-03T15:57:56.301Z</time></trkpt><trkpt lat="44.848185" lon="7.3629731"><ele>328.0</ele><time>2026-05-03T15:57:58.3Z</time></trkpt><trkpt lat="44.8481117" lon="7.3630697"><ele>328.0</ele><time>2026-05-03T15:58:00.3Z</time></trkpt><trkpt lat="44.8480739" lon="7.3631975"><ele>328.0</ele><time>2026-05-03T15:58:01.3Z</time></trkpt><trkpt lat="44.8480462" lon="7.3633165"><ele>327.5</ele><time>2026-05-03T15:58:02.3Z</time></trkpt><trkpt lat="44.8480124" lon="7.3634364"><ele>327.0</ele><time>2026-05-03T15:58:03.3Z</time></trkpt><trkpt lat="44.8479829" lon="7.3635566"><ele>326.5</ele><time>2026-05-03T15:58:04.3Z</time></trkpt><trkpt lat="44.8479535" lon="7.3636753"><ele>326.0</ele><time>2026-05-03T15:58:05.3Z</time></trkpt><trkpt lat="44.8479159" lon="7.3637658"><ele>325.5</ele><time>2026-05-03T15:58:06.301Z</time></trkpt><trkpt lat="44.8478982" lon="7.3638792"><ele>325.0</ele><time>2026-05-03T15:58:07.3Z</time></trkpt><trkpt lat="44.84786" lon="7.3639948"><ele>324.8333333333333</ele><time>2026-05-03T15:58:08.299Z</time></trkpt><trkpt lat="44.8478252" lon="7.3641006"><ele>324.66666666666663</ele><time>2026-05-03T15:58:09.3Z</time></trkpt><trkpt lat="44.8477964" lon="7.3641943"><ele>324.5</ele><time>2026-05-03T15:58:10.301Z</time></trkpt><trkpt lat="44.8477575" lon="7.364297"><ele>324.3333333333333</ele><time>2026-05-03T15:58:11.3Z</time></trkpt><trkpt lat="44.8477149" lon="7.3643831"><ele>324.1666666666667</ele><time>2026-05-03T15:58:12.3Z</time></trkpt><trkpt lat="44.8476739" lon="7.3644653"><ele>324.0</ele><time>2026-05-03T15:58:13.301Z</time></trkpt><trkpt lat="44.8476203" lon="7.3645347"><ele>324.0</ele><time>2026-05-03T15:58:14.301Z</time></trkpt><trkpt lat="44.847574" lon="7.3646008"><ele>324.0</ele><time>2026-05-03T15:58:15.299Z</time></trkpt><trkpt lat="44.8475267" lon="7.3646681"><ele>324.0</ele><time>2026-05-03T15:58:16.301Z</time></trkpt><trkpt lat="44.8474678" lon="7.3647319"><ele>324.0</ele><time>2026-05-03T15:58:17.301Z</time></trkpt><trkpt lat="44.8474079" lon="7.3647996"><ele>324.0</ele><time>2026-05-03T15:58:18.299Z</time></trkpt><trkpt lat="44.8473503" lon="7.3648661"><ele>324.0</ele><time>2026-05-03T15:58:19.302Z</time></trkpt><trkpt lat="44.8472886" lon="7.3649303"><ele>324.0</ele><time>2026-05-03T15:58:20.301Z</time></trkpt><trkpt lat="44.8472396" lon="7.3650203"><ele>324.0</ele><time>2026-05-03T15:58:21.3Z</time></trkpt><trkpt lat="44.8471416" lon="7.3651149"><ele>324.0</ele><time>2026-05-03T15:58:23.301Z</time></trkpt><trkpt lat="44.8471154" lon="7.3652703"><ele>324.0</ele><time>2026-05-03T15:58:25.299Z</time></trkpt><trkpt lat="44.8470811" lon="7.365449"><ele>324.0</ele><time>2026-05-03T15:58:27.3Z</time></trkpt><trkpt lat="44.8470469" lon="7.3655376"><ele>324.0</ele><time>2026-05-03T15:58:28.301Z</time></trkpt><trkpt lat="44.8470144" lon="7.3656161"><ele>323.8571428571429</ele><time>2026-05-03T15:58:29.301Z</time></trkpt><trkpt lat="44.8469555" lon="7.365654"><ele>323.7142857142857</ele><time>2026-05-03T15:58:30.299Z</time></trkpt><trkpt lat="44.846895" lon="7.3657099"><ele>323.57142857142856</ele><time>2026-05-03T15:58:31.301Z</time></trkpt><trkpt lat="44.8468266" lon="7.3657802"><ele>323.42857142857144</ele><time>2026-05-03T15:58:32.3Z</time></trkpt><trkpt lat="44.8467683" lon="7.3658583"><ele>323.2857142857143</ele><time>2026-05-03T15:58:33.3Z</time></trkpt><trkpt lat="44.8467342" lon="7.3659604"><ele>323.14285714285717</ele><time>2026-05-03T15:58:34.299Z</time></trkpt><trkpt lat="44.8466928" lon="7.3660309"><ele>323.0</ele><time>2026-05-03T15:58:35.299Z</time></trkpt><trkpt lat="44.8466782" lon="7.3661553"><ele>323.0</ele><time>2026-05-03T15:58:36.3Z</time></trkpt><trkpt lat="44.8466719" lon="7.3662653"><ele>323.0</ele><time>2026-05-03T15:58:37.299Z</time></trkpt><trkpt lat="44.8466674" lon="7.3663705"><ele>323.0</ele><time>2026-05-03T15:58:38.3Z</time></trkpt><trkpt lat="44.8466535" lon="7.3664738"><ele>323.0</ele><time>2026-05-03T15:58:39.3Z</time></trkpt><trkpt lat="44.8466233" lon="7.3665699"><ele>323.0</ele><time>2026-05-03T15:58:40.3Z</time></trkpt><trkpt lat="44.8465996" lon="7.3666706"><ele>323.0</ele><time>2026-05-03T15:58:41.3Z</time></trkpt><trkpt lat="44.8465972" lon="7.3667821"><ele>322.79999999999995</ele><time>2026-05-03T15:58:42.301Z</time></trkpt><trkpt lat="44.8465525" lon="7.3669697"><ele>322.6</ele><time>2026-05-03T15:58:44.3Z</time></trkpt><trkpt lat="44.8465059" lon="7.3670843"><ele>322.4</ele><time>2026-05-03T15:58:45.3Z</time></trkpt><trkpt lat="44.8464559" lon="7.3671942"><ele>322.20000000000005</ele><time>2026-05-03T15:58:46.299Z</time></trkpt><trkpt lat="44.8464093" lon="7.3672889"><ele>322.0</ele><time>2026-05-03T15:58:47.3Z</time></trkpt><trkpt lat="44.8463525" lon="7.3673937"><ele>321.5</ele><time>2026-05-03T15:58:48.301Z</time></trkpt><trkpt lat="44.8463041" lon="7.3674914"><ele>321.0</ele><time>2026-05-03T15:58:49.3Z</time></trkpt><trkpt lat="44.8462668" lon="7.3675964"><ele>320.5</ele><time>2026-05-03T15:58:50.3Z</time></trkpt><trkpt lat="44.8462232" lon="7.3676976"><ele>320.0</ele><time>2026-05-03T15:58:51.302Z</time></trkpt><trkpt lat="44.8461954" lon="7.367816"><ele>319.5</ele><time>2026-05-03T15:58:52.301Z</time></trkpt><trkpt lat="44.8461572" lon="7.3679139"><ele>319.0</ele><time>2026-05-03T15:58:53.301Z</time></trkpt><trkpt lat="44.8461075" lon="7.3679833"><ele>318.66666666666663</ele><time>2026-05-03T15:58:54.3Z</time></trkpt><trkpt lat="44.8460727" lon="7.3680633"><ele>318.3333333333333</ele><time>2026-05-03T15:58:55.3Z</time></trkpt><trkpt lat="44.8460195" lon="7.3681795"><ele>318.0</ele><time>2026-05-03T15:58:57.301Z</time></trkpt><trkpt lat="44.8460271" lon="7.3682911"><ele>317.6666666666667</ele><time>2026-05-03T15:59:09.299Z</time></trkpt><trkpt lat="44.8461048" lon="7.3683887"><ele>317.33333333333337</ele><time>2026-05-03T15:59:11.3Z</time></trkpt><trkpt lat="44.846182" lon="7.3684474"><ele>317.0</ele><time>2026-05-03T15:59:13.3Z</time></trkpt><trkpt lat="44.8462632" lon="7.3684635"><ele>317.0</ele><time>2026-05-03T15:59:15.301Z</time></trkpt><trkpt lat="44.8463336" lon="7.3684216"><ele>317.0</ele><time>2026-05-03T15:59:17.3Z</time></trkpt><trkpt lat="44.8464121" lon="7.3683887"><ele>317.0</ele><time>2026-05-03T15:59:19.3Z</time></trkpt><trkpt lat="44.846489" lon="7.3684314"><ele>317.0</ele><time>2026-05-03T15:59:21.299Z</time></trkpt><trkpt lat="44.8465649" lon="7.3684902"><ele>317.0</ele><time>2026-05-03T15:59:23.3Z</time></trkpt><trkpt lat="44.8466028" lon="7.3685661"><ele>317.0</ele><time>2026-05-03T15:59:25.3Z</time></trkpt><trkpt lat="44.8466046" lon="7.3686946"><ele>317.0</ele><time>2026-05-03T15:59:27.3Z</time></trkpt><trkpt lat="44.8465899" lon="7.3688576"><ele>317.0</ele><time>2026-05-03T15:59:29.302Z</time></trkpt><trkpt lat="44.8465413" lon="7.3690001"><ele>317.0</ele><time>2026-05-03T15:59:31.301Z</time></trkpt><trkpt lat="44.8465036" lon="7.3690783"><ele>317.0</ele><time>2026-05-03T15:59:32.3Z</time></trkpt><trkpt lat="44.8464318" lon="7.3691556"><ele>317.0</ele><time>2026-05-03T15:59:33.3Z</time></trkpt><trkpt lat="44.8463632" lon="7.3692267"><ele>316.6</ele><time>2026-05-03T15:59:34.3Z</time></trkpt><trkpt lat="44.8462953" lon="7.3693038"><ele>316.2</ele><time>2026-05-03T15:59:35.301Z</time></trkpt><trkpt lat="44.8462245" lon="7.3693798"><ele>315.8</ele><time>2026-05-03T15:59:36.3Z</time></trkpt><trkpt lat="44.8461529" lon="7.3694685"><ele>315.4</ele><time>2026-05-03T15:59:37.3Z</time></trkpt><trkpt lat="44.8460801" lon="7.3695526"><ele>315.0</ele><time>2026-05-03T15:59:38.3Z</time></trkpt><trkpt lat="44.8460057" lon="7.3696431"><ele>315.0</ele><time>2026-05-03T15:59:39.301Z</time></trkpt><trkpt lat="44.8459258" lon="7.3697257"><ele>315.0</ele><time>2026-05-03T15:59:40.299Z</time></trkpt><trkpt lat="44.8458515" lon="7.3698263"><ele>315.0</ele><time>2026-05-03T15:59:41.3Z</time></trkpt><trkpt lat="44.845781" lon="7.369917"><ele>315.0</ele><time>2026-05-03T15:59:42.299Z</time></trkpt><trkpt lat="44.8457159" lon="7.3700025"><ele>315.0</ele><time>2026-05-03T15:59:43.3Z</time></trkpt><trkpt lat="44.8456402" lon="7.3700897"><ele>315.0</ele><time>2026-05-03T15:59:44.299Z</time></trkpt><trkpt lat="44.8455837" lon="7.3701844"><ele>315.0</ele><time>2026-05-03T15:59:45.299Z</time></trkpt><trkpt lat="44.8455311" lon="7.370291"><ele>315.0</ele><time>2026-05-03T15:59:46.3Z</time></trkpt><trkpt lat="44.8454815" lon="7.3703951"><ele>315.0</ele><time>2026-05-03T15:59:47.3Z</time></trkpt><trkpt lat="44.8454352" lon="7.3705068"><ele>315.0</ele><time>2026-05-03T15:59:48.301Z</time></trkpt><trkpt lat="44.8453846" lon="7.370606"><ele>315.0</ele><time>2026-05-03T15:59:49.299Z</time></trkpt><trkpt lat="44.8453419" lon="7.3707077"><ele>314.8</ele><time>2026-05-03T15:59:50.299Z</time></trkpt><trkpt lat="44.8453029" lon="7.3708291"><ele>314.6</ele><time>2026-05-03T15:59:51.299Z</time></trkpt><trkpt lat="44.845264" lon="7.3709419"><ele>314.4</ele><time>2026-05-03T15:59:52.299Z</time></trkpt><trkpt lat="44.8452414" lon="7.3710525"><ele>314.2</ele><time>2026-05-03T15:59:53.3Z</time></trkpt><trkpt lat="44.845212" lon="7.3711507"><ele>314.0</ele><time>2026-05-03T15:59:54.299Z</time></trkpt><trkpt lat="44.8451338" lon="7.3712748"><ele>314.0</ele><time>2026-05-03T15:59:56.3Z</time></trkpt><trkpt lat="44.8450718" lon="7.3713302"><ele>314.0</ele><time>2026-05-03T15:59:58.3Z</time></trkpt><trkpt lat="44.8450381" lon="7.371428"><ele>314.0</ele><time>2026-05-03T16:00:00.3Z</time></trkpt><trkpt lat="44.8449884" lon="7.3715198"><ele>314.0</ele><time>2026-05-03T16:00:02.299Z</time></trkpt><trkpt lat="44.8449536" lon="7.3716037"><ele>314.0</ele><time>2026-05-03T16:00:04.3Z</time></trkpt><trkpt lat="44.8449006" lon="7.3716563"><ele>314.0</ele><time>2026-05-03T16:00:10.299Z</time></trkpt><trkpt lat="44.8448606" lon="7.3717631"><ele>314.0</ele><time>2026-05-03T16:00:12.3Z</time></trkpt><trkpt lat="44.844777" lon="7.3718454"><ele>314.0</ele><time>2026-05-03T16:00:14.3Z</time></trkpt><trkpt lat="44.8447095" lon="7.3719382"><ele>314.0</ele><time>2026-05-03T16:00:16.3Z</time></trkpt><trkpt lat="44.844642" lon="7.37201"><ele>314.0</ele><time>2026-05-03T16:00:18.301Z</time></trkpt><trkpt lat="44.8446123" lon="7.3721383"><ele>314.0</ele><time>2026-05-03T16:00:21.299Z</time></trkpt><trkpt lat="44.84457" lon="7.3722969"><ele>313.83333333333337</ele><time>2026-05-03T16:00:23.301Z</time></trkpt><trkpt lat="44.8445469" lon="7.3724213"><ele>313.6666666666667</ele><time>2026-05-03T16:00:24.299Z</time></trkpt><trkpt lat="44.8445151" lon="7.372549"><ele>313.5</ele><time>2026-05-03T16:00:27.3Z</time></trkpt><trkpt lat="44.8445139" lon="7.3726499"><ele>313.3333333333333</ele><time>2026-05-03T16:00:28.3Z</time></trkpt><trkpt lat="44.8444738" lon="7.3727356"><ele>313.16666666666663</ele><time>2026-05-03T16:00:29.3Z</time></trkpt><trkpt lat="44.8444417" lon="7.3728268"><ele>313.0</ele><time>2026-05-03T16:00:30.301Z</time></trkpt><trkpt lat="44.8444117" lon="7.37291"><ele>313.0</ele><time>2026-05-03T16:00:31.3Z</time></trkpt><trkpt lat="44.8443824" lon="7.3729912"><ele>313.0</ele><time>2026-05-03T16:00:32.3Z</time></trkpt><trkpt lat="44.8443644" lon="7.3731959"><ele>313.0</ele><time>2026-05-03T16:00:34.299Z</time></trkpt><trkpt lat="44.8443498" lon="7.3732932"><ele>313.0</ele><time>2026-05-03T16:00:35.3Z</time></trkpt><trkpt lat="44.8443326" lon="7.3733846"><ele>313.0</ele><time>2026-05-03T16:00:36.3Z</time></trkpt><trkpt lat="44.8443255" lon="7.3734833"><ele>313.0</ele><time>2026-05-03T16:00:37.299Z</time></trkpt><trkpt lat="44.8443187" lon="7.3735859"><ele>312.8333333333333</ele><time>2026-05-03T16:00:38.299Z</time></trkpt><trkpt lat="44.8443019" lon="7.3736744"><ele>312.66666666666663</ele><time>2026-05-03T16:00:39.3Z</time></trkpt><trkpt lat="44.8442896" lon="7.3737656"><ele>312.5</ele><time>2026-05-03T16:00:40.299Z</time></trkpt><trkpt lat="44.8442763" lon="7.3738527"><ele>312.3333333333333</ele><time>2026-05-03T16:00:41.299Z</time></trkpt><trkpt lat="44.8442627" lon="7.3740319"><ele>312.1666666666667</ele><time>2026-05-03T16:00:43.3Z</time></trkpt><trkpt lat="44.844255" lon="7.3741261"><ele>312.0</ele><time>2026-05-03T16:00:44.3Z</time></trkpt><trkpt lat="44.8442283" lon="7.374227"><ele>312.4</ele><time>2026-05-03T16:00:45.299Z</time></trkpt><trkpt lat="44.8442171" lon="7.3743171"><ele>312.79999999999995</ele><time>2026-05-03T16:00:46.3Z</time></trkpt><trkpt lat="44.8441865" lon="7.37448"><ele>313.2</ele><time>2026-05-03T16:00:48.301Z</time></trkpt><trkpt lat="44.8441734" lon="7.3746592"><ele>313.59999999999997</ele><time>2026-05-03T16:00:50.299Z</time></trkpt><trkpt lat="44.8441756" lon="7.3747487"><ele>314.0</ele><time>2026-05-03T16:00:51.3Z</time></trkpt><trkpt lat="44.8441697" lon="7.3749138"><ele>314.0</ele><time>2026-05-03T16:00:53.299Z</time></trkpt><trkpt lat="44.8441521" lon="7.3750838"><ele>314.0</ele><time>2026-05-03T16:00:55.3Z</time></trkpt><trkpt lat="44.8441103" lon="7.3752517"><ele>314.0</ele><time>2026-05-03T16:00:57.3Z</time></trkpt><trkpt lat="44.844093" lon="7.3754239"><ele>314.0</ele><time>2026-05-03T16:00:59.301Z</time></trkpt><trkpt lat="44.8440831" lon="7.3755168"><ele>314.0</ele><time>2026-05-03T16:01:00.299Z</time></trkpt><trkpt lat="44.8440656" lon="7.3756046"><ele>313.6666666666667</ele><time>2026-05-03T16:01:01.299Z</time></trkpt><trkpt lat="44.8440474" lon="7.3757023"><ele>313.33333333333337</ele><time>2026-05-03T16:01:02.299Z</time></trkpt><trkpt lat="44.8440267" lon="7.3757939"><ele>313.0</ele><time>2026-05-03T16:01:03.3Z</time></trkpt><trkpt lat="44.8440028" lon="7.3758888"><ele>312.6666666666667</ele><time>2026-05-03T16:01:04.3Z</time></trkpt><trkpt lat="44.8439763" lon="7.3759834"><ele>312.3333333333333</ele><time>2026-05-03T16:01:05.3Z</time></trkpt><trkpt lat="44.8439719" lon="7.3760832"><ele>312.0</ele><time>2026-05-03T16:01:06.299Z</time></trkpt><trkpt lat="44.8439519" lon="7.3762433"><ele>312.0</ele><time>2026-05-03T16:01:08.301Z</time></trkpt><trkpt lat="44.8439383" lon="7.3763899"><ele>312.0</ele><time>2026-05-03T16:01:10.3Z</time></trkpt><trkpt lat="44.8439312" lon="7.3765793"><ele>312.0</ele><time>2026-05-03T16:01:12.299Z</time></trkpt><trkpt lat="44.8439281" lon="7.3767556"><ele>312.0</ele><time>2026-05-03T16:01:14.3Z</time></trkpt><trkpt lat="44.8439232" lon="7.376856"><ele>312.0</ele><time>2026-05-03T16:01:15.299Z</time></trkpt><trkpt lat="44.8439255" lon="7.3769466"><ele>312.0</ele><time>2026-05-03T16:01:16.299Z</time></trkpt><trkpt lat="44.8439315" lon="7.3770436"><ele>312.0</ele><time>2026-05-03T16:01:17.299Z</time></trkpt><trkpt lat="44.8439348" lon="7.3771339"><ele>312.0</ele><time>2026-05-03T16:01:18.3Z</time></trkpt><trkpt lat="44.8439358" lon="7.3772295"><ele>312.0</ele><time>2026-05-03T16:01:19.3Z</time></trkpt><trkpt lat="44.8439383" lon="7.3773228"><ele>312.0</ele><time>2026-05-03T16:01:20.299Z</time></trkpt><trkpt lat="44.8439612" lon="7.3774307"><ele>312.0</ele><time>2026-05-03T16:01:21.299Z</time></trkpt><trkpt lat="44.843969" lon="7.3775436"><ele>312.0</ele><time>2026-05-03T16:01:22.299Z</time></trkpt><trkpt lat="44.8439868" lon="7.3776788"><ele>312.0</ele><time>2026-05-03T16:01:23.3Z</time></trkpt><trkpt lat="44.8440146" lon="7.3778272"><ele>312.0</ele><time>2026-05-03T16:01:24.299Z</time></trkpt><trkpt lat="44.8440311" lon="7.3779736"><ele>312.0</ele><time>2026-05-03T16:01:25.299Z</time></trkpt><trkpt lat="44.8440454" lon="7.3781046"><ele>312.0</ele><time>2026-05-03T16:01:26.299Z</time></trkpt><trkpt lat="44.8440545" lon="7.3782208"><ele>312.0</ele><time>2026-05-03T16:01:27.299Z</time></trkpt><trkpt lat="44.8440609" lon="7.3783447"><ele>311.6666666666667</ele><time>2026-05-03T16:01:28.299Z</time></trkpt><trkpt lat="44.8440686" lon="7.3784575"><ele>311.3333333333333</ele><time>2026-05-03T16:01:29.3Z</time></trkpt><trkpt lat="44.8440913" lon="7.3785703"><ele>311.0</ele><time>2026-05-03T16:01:30.3Z</time></trkpt><trkpt lat="44.8441059" lon="7.3786784"><ele>310.66666666666663</ele><time>2026-05-03T16:01:31.299Z</time></trkpt><trkpt lat="44.8441164" lon="7.3787855"><ele>310.3333333333333</ele><time>2026-05-03T16:01:32.3Z</time></trkpt><trkpt lat="44.8441213" lon="7.378892"><ele>310.0</ele><time>2026-05-03T16:01:33.3Z</time></trkpt><trkpt lat="44.8441111" lon="7.378999"><ele>310.0</ele><time>2026-05-03T16:01:34.3Z</time></trkpt><trkpt lat="44.84411" lon="7.379106"><ele>310.0</ele><time>2026-05-03T16:01:35.3Z</time></trkpt><trkpt lat="44.8441124" lon="7.3792226"><ele>310.0</ele><time>2026-05-03T16:01:36.299Z</time></trkpt><trkpt lat="44.8441155" lon="7.379328"><ele>310.0</ele><time>2026-05-03T16:01:37.299Z</time></trkpt><trkpt lat="44.8441156" lon="7.3794304"><ele>310.0</ele><time>2026-05-03T16:01:38.3Z</time></trkpt><trkpt lat="44.8441119" lon="7.3795508"><ele>310.0</ele><time>2026-05-03T16:01:39.299Z</time></trkpt><trkpt lat="44.8440989" lon="7.3796633"><ele>309.8333333333333</ele><time>2026-05-03T16:01:40.299Z</time></trkpt><trkpt lat="44.8440812" lon="7.3797748"><ele>309.66666666666663</ele><time>2026-05-03T16:01:41.299Z</time></trkpt><trkpt lat="44.8440681" lon="7.3798806"><ele>309.5</ele><time>2026-05-03T16:01:42.299Z</time></trkpt><trkpt lat="44.844046" lon="7.3799911"><ele>309.3333333333333</ele><time>2026-05-03T16:01:43.299Z</time></trkpt><trkpt lat="44.8440177" lon="7.3800925"><ele>309.1666666666667</ele><time>2026-05-03T16:01:44.3Z</time></trkpt><trkpt lat="44.843985" lon="7.3801992"><ele>309.0</ele><time>2026-05-03T16:01:45.3Z</time></trkpt><trkpt lat="44.8439685" lon="7.3803038"><ele>309.0</ele><time>2026-05-03T16:01:46.3Z</time></trkpt><trkpt lat="44.8439448" lon="7.3804151"><ele>309.0</ele><time>2026-05-03T16:01:47.301Z</time></trkpt><trkpt lat="44.8439171" lon="7.3805348"><ele>309.0</ele><time>2026-05-03T16:01:48.299Z</time></trkpt><trkpt lat="44.8438859" lon="7.3806535"><ele>309.0</ele><time>2026-05-03T16:01:49.3Z</time></trkpt><trkpt lat="44.8438604" lon="7.3807595"><ele>309.0</ele><time>2026-05-03T16:01:50.299Z</time></trkpt><trkpt lat="44.8438276" lon="7.3808869"><ele>309.0</ele><time>2026-05-03T16:01:51.299Z</time></trkpt><trkpt lat="44.843799" lon="7.3810115"><ele>308.59999999999997</ele><time>2026-05-03T16:01:52.299Z</time></trkpt><trkpt lat="44.8437709" lon="7.3811442"><ele>308.2</ele><time>2026-05-03T16:01:53.299Z</time></trkpt><trkpt lat="44.8437389" lon="7.3812484"><ele>307.79999999999995</ele><time>2026-05-03T16:01:54.3Z</time></trkpt><trkpt lat="44.8436954" lon="7.3813708"><ele>307.4</ele><time>2026-05-03T16:01:55.299Z</time></trkpt><trkpt lat="44.843657" lon="7.3815016"><ele>307.0</ele><time>2026-05-03T16:01:56.299Z</time></trkpt><trkpt lat="44.8436119" lon="7.3816087"><ele>307.0</ele><time>2026-05-03T16:01:57.299Z</time></trkpt><trkpt lat="44.8435727" lon="7.381742"><ele>307.0</ele><time>2026-05-03T16:01:58.299Z</time></trkpt><trkpt lat="44.843533" lon="7.3818757"><ele>307.0</ele><time>2026-05-03T16:01:59.299Z</time></trkpt><trkpt lat="44.8434866" lon="7.3820052"><ele>307.0</ele><time>2026-05-03T16:02:00.299Z</time></trkpt><trkpt lat="44.8434364" lon="7.3821324"><ele>307.0</ele><time>2026-05-03T16:02:01.299Z</time></trkpt><trkpt lat="44.8433955" lon="7.382257"><ele>307.16666666666663</ele><time>2026-05-03T16:02:02.299Z</time></trkpt><trkpt lat="44.8433543" lon="7.3823708"><ele>307.3333333333333</ele><time>2026-05-03T16:02:03.299Z</time></trkpt><trkpt lat="44.8433166" lon="7.3824771"><ele>307.5</ele><time>2026-05-03T16:02:04.298Z</time></trkpt><trkpt lat="44.8432762" lon="7.3825804"><ele>307.6666666666667</ele><time>2026-05-03T16:02:05.299Z</time></trkpt><trkpt lat="44.8432409" lon="7.3826762"><ele>307.83333333333337</ele><time>2026-05-03T16:02:06.3Z</time></trkpt><trkpt lat="44.8432036" lon="7.3827536"><ele>308.0</ele><time>2026-05-03T16:02:07.3Z</time></trkpt><trkpt lat="44.8431516" lon="7.3828587"><ele>308.0</ele><time>2026-05-03T16:02:09.298Z</time></trkpt><trkpt lat="44.8431204" lon="7.3829729"><ele>308.0</ele><time>2026-05-03T16:02:22.3Z</time></trkpt><trkpt lat="44.8430997" lon="7.3831073"><ele>308.0</ele><time>2026-05-03T16:02:24.3Z</time></trkpt><trkpt lat="44.8430593" lon="7.383211"><ele>308.0</ele><time>2026-05-03T16:02:26.299Z</time></trkpt><trkpt lat="44.8429982" lon="7.3833309"><ele>308.0</ele><time>2026-05-03T16:02:28.3Z</time></trkpt><trkpt lat="44.8429543" lon="7.3834023"><ele>308.0</ele><time>2026-05-03T16:02:29.299Z</time></trkpt><trkpt lat="44.8428863" lon="7.3835524"><ele>307.6666666666667</ele><time>2026-05-03T16:02:31.299Z</time></trkpt><trkpt lat="44.842808" lon="7.3837104"><ele>307.33333333333337</ele><time>2026-05-03T16:02:33.3Z</time></trkpt><trkpt lat="44.8427675" lon="7.383789"><ele>307.0</ele><time>2026-05-03T16:02:34.299Z</time></trkpt><trkpt lat="44.8427302" lon="7.3838765"><ele>306.6666666666667</ele><time>2026-05-03T16:02:35.299Z</time></trkpt><trkpt lat="44.8426843" lon="7.3839699"><ele>306.3333333333333</ele><time>2026-05-03T16:02:36.3Z</time></trkpt><trkpt lat="44.842647" lon="7.3840508"><ele>306.0</ele><time>2026-05-03T16:02:37.299Z</time></trkpt><trkpt lat="44.8426107" lon="7.3841244"><ele>305.8</ele><time>2026-05-03T16:02:38.298Z</time></trkpt><trkpt lat="44.8425634" lon="7.3842442"><ele>305.6</ele><time>2026-05-03T16:02:49.3Z</time></trkpt><trkpt lat="44.8424967" lon="7.3843742"><ele>305.4</ele><time>2026-05-03T16:02:52.3Z</time></trkpt><trkpt lat="44.8424218" lon="7.3844916"><ele>305.2</ele><time>2026-05-03T16:02:54.299Z</time></trkpt><trkpt lat="44.8423629" lon="7.3846383"><ele>305.0</ele><time>2026-05-03T16:02:56.3Z</time></trkpt><trkpt lat="44.8422965" lon="7.3847555"><ele>305.0</ele><time>2026-05-03T16:02:58.299Z</time></trkpt><trkpt lat="44.8422" lon="7.384858"><ele>305.0</ele><time>2026-05-03T16:03:00.299Z</time></trkpt><trkpt lat="44.8421002" lon="7.3849369"><ele>305.0</ele><time>2026-05-03T16:03:02.299Z</time></trkpt><trkpt lat="44.8420158" lon="7.3850378"><ele>305.0</ele><time>2026-05-03T16:03:04.3Z</time></trkpt><trkpt lat="44.8419514" lon="7.3851489"><ele>305.0</ele><time>2026-05-03T16:03:06.299Z</time></trkpt><trkpt lat="44.8418704" lon="7.3852274"><ele>305.0</ele><time>2026-05-03T16:03:08.299Z</time></trkpt><trkpt lat="44.8417842" lon="7.3852487"><ele>305.0</ele><time>2026-05-03T16:03:10.3Z</time></trkpt><trkpt lat="44.8416984" lon="7.3852395"><ele>305.0</ele><time>2026-05-03T16:03:12.299Z</time></trkpt><trkpt lat="44.8415771" lon="7.3852253"><ele>305.0</ele><time>2026-05-03T16:03:14.298Z</time></trkpt><trkpt lat="44.8414675" lon="7.3852177"><ele>305.0</ele><time>2026-05-03T16:03:16.299Z</time></trkpt><trkpt lat="44.8413576" lon="7.3852009"><ele>305.0</ele><time>2026-05-03T16:03:18.299Z</time></trkpt><trkpt lat="44.8412511" lon="7.3851844"><ele>305.0</ele><time>2026-05-03T16:03:20.299Z</time></trkpt><trkpt lat="44.8411504" lon="7.3851685"><ele>305.0</ele><time>2026-05-03T16:03:22.298Z</time></trkpt><trkpt lat="44.8410619" lon="7.3851431"><ele>305.0</ele><time>2026-05-03T16:03:24.299Z</time></trkpt><trkpt lat="44.8410018" lon="7.3850725"><ele>305.0</ele><time>2026-05-03T16:03:26.3Z</time></trkpt><trkpt lat="44.8409521" lon="7.3850036"><ele>305.0</ele><time>2026-05-03T16:03:29.299Z</time></trkpt><trkpt lat="44.8409987" lon="7.3850931"><ele>305.0</ele><time>2026-05-03T16:03:33.3Z</time></trkpt><trkpt lat="44.8410864" lon="7.3851469"><ele>305.0</ele><time>2026-05-03T16:03:35.3Z</time></trkpt><trkpt lat="44.8411915" lon="7.3851808"><ele>305.0</ele><time>2026-05-03T16:03:37.299Z</time></trkpt><trkpt lat="44.8413084" lon="7.3851875"><ele>305.0</ele><time>2026-05-03T16:03:39.299Z</time></trkpt><trkpt lat="44.8413741" lon="7.3851911"><ele>305.0</ele><time>2026-05-03T16:03:40.299Z</time></trkpt><trkpt lat="44.8414403" lon="7.3851792"><ele>305.0</ele><time>2026-05-03T16:03:41.298Z</time></trkpt><trkpt lat="44.8415579" lon="7.3851845"><ele>305.0</ele><time>2026-05-03T16:03:43.299Z</time></trkpt><trkpt lat="44.8416815" lon="7.3851981"><ele>305.0</ele><time>2026-05-03T16:03:45.299Z</time></trkpt><trkpt lat="44.8417462" lon="7.3852089"><ele>305.0</ele><time>2026-05-03T16:03:46.298Z</time></trkpt><trkpt lat="44.8418412" lon="7.3852352"><ele>305.0</ele><time>2026-05-03T16:03:48.299Z</time></trkpt><trkpt lat="44.8419176" lon="7.3852646"><ele>305.0</ele><time>2026-05-03T16:03:50.299Z</time></trkpt><trkpt lat="44.8419346" lon="7.3853661"><ele>305.0</ele><time>2026-05-03T16:03:52.298Z</time></trkpt><trkpt lat="44.8418946" lon="7.3854751"><ele>305.0</ele><time>2026-05-03T16:03:54.298Z</time></trkpt><trkpt lat="44.8418328" lon="7.3856203"><ele>305.0</ele><time>2026-05-03T16:03:56.298Z</time></trkpt><trkpt lat="44.8418023" lon="7.3857009"><ele>305.0</ele><time>2026-05-03T16:03:57.299Z</time></trkpt><trkpt lat="44.8417791" lon="7.3857835"><ele>305.0</ele><time>2026-05-03T16:03:58.298Z</time></trkpt><trkpt lat="44.8417218" lon="7.3859343"><ele>305.14285714285717</ele><time>2026-05-03T16:04:00.298Z</time></trkpt><trkpt lat="44.8416971" lon="7.3860168"><ele>305.2857142857143</ele><time>2026-05-03T16:04:01.299Z</time></trkpt><trkpt lat="44.8416735" lon="7.386105"><ele>305.42857142857144</ele><time>2026-05-03T16:04:02.298Z</time></trkpt><trkpt lat="44.8416543" lon="7.3861916"><ele>305.57142857142856</ele><time>2026-05-03T16:04:03.3Z</time></trkpt><trkpt lat="44.841641" lon="7.386299"><ele>305.7142857142857</ele><time>2026-05-03T16:04:04.298Z</time></trkpt><trkpt lat="44.8416228" lon="7.3863873"><ele>305.85714285714283</ele><time>2026-05-03T16:04:05.299Z</time></trkpt><trkpt lat="44.841605" lon="7.386473"><ele>306.0</ele><time>2026-05-03T16:04:06.3Z</time></trkpt><trkpt lat="44.8415795" lon="7.3866129"><ele>305.6666666666667</ele><time>2026-05-03T16:04:08.298Z</time></trkpt><trkpt lat="44.8415835" lon="7.3867707"><ele>305.3333333333333</ele><time>2026-05-03T16:04:10.299Z</time></trkpt><trkpt lat="44.84157" lon="7.3869024"><ele>305.0</ele><time>2026-05-03T16:04:12.298Z</time></trkpt><trkpt lat="44.8415326" lon="7.3869884"><ele>304.66666666666663</ele><time>2026-05-03T16:04:14.299Z</time></trkpt><trkpt lat="44.8414857" lon="7.3870936"><ele>304.3333333333333</ele><time>2026-05-03T16:04:16.299Z</time></trkpt><trkpt lat="44.8414602" lon="7.3872038"><ele>304.0</ele><time>2026-05-03T16:04:18.299Z</time></trkpt><trkpt lat="44.8414532" lon="7.3873485"><ele>304.0</ele><time>2026-05-03T16:04:20.299Z</time></trkpt><trkpt lat="44.8414189" lon="7.3874235"><ele>304.0</ele><time>2026-05-03T16:04:21.3Z</time></trkpt><trkpt lat="44.8413913" lon="7.3875712"><ele>304.0</ele><time>2026-05-03T16:04:23.298Z</time></trkpt><trkpt lat="44.841378" lon="7.3876692"><ele>304.0</ele><time>2026-05-03T16:04:24.299Z</time></trkpt><trkpt lat="44.8413203" lon="7.3877984"><ele>304.0</ele><time>2026-05-03T16:04:26.301Z</time></trkpt><trkpt lat="44.841263" lon="7.3879491"><ele>303.8</ele><time>2026-05-03T16:04:28.298Z</time></trkpt><trkpt lat="44.8411901" lon="7.3881052"><ele>303.59999999999997</ele><time>2026-05-03T16:04:30.299Z</time></trkpt><trkpt lat="44.8411464" lon="7.3881822"><ele>303.4</ele><time>2026-05-03T16:04:31.299Z</time></trkpt><trkpt lat="44.8410566" lon="7.3882813"><ele>303.2</ele><time>2026-05-03T16:04:33.299Z</time></trkpt><trkpt lat="44.8409597" lon="7.3883542"><ele>303.0</ele><time>2026-05-03T16:04:35.299Z</time></trkpt><trkpt lat="44.840874" lon="7.3884468"><ele>303.5</ele><time>2026-05-03T16:04:37.298Z</time></trkpt><trkpt lat="44.8408209" lon="7.3885484"><ele>304.0</ele><time>2026-05-03T16:04:39.299Z</time></trkpt><trkpt lat="44.8407791" lon="7.3887132"><ele>304.5</ele><time>2026-05-03T16:04:41.298Z</time></trkpt><trkpt lat="44.8407487" lon="7.3887974"><ele>305.0</ele><time>2026-05-03T16:04:42.299Z</time></trkpt><trkpt lat="44.8407139" lon="7.3888918"><ele>305.5</ele><time>2026-05-03T16:04:43.3Z</time></trkpt><trkpt lat="44.8406798" lon="7.3889991"><ele>306.0</ele><time>2026-05-03T16:04:44.298Z</time></trkpt><trkpt lat="44.8406425" lon="7.3891057"><ele>306.0</ele><time>2026-05-03T16:04:45.298Z</time></trkpt><trkpt lat="44.8406003" lon="7.3892023"><ele>306.0</ele><time>2026-05-03T16:04:46.299Z</time></trkpt><trkpt lat="44.8405624" lon="7.3892935"><ele>306.0</ele><time>2026-05-03T16:04:47.299Z</time></trkpt><trkpt lat="44.8405151" lon="7.3893797"><ele>306.0</ele><time>2026-05-03T16:04:48.299Z</time></trkpt><trkpt lat="44.8404804" lon="7.3894694"><ele>306.0</ele><time>2026-05-03T16:04:49.3Z</time></trkpt><trkpt lat="44.8404365" lon="7.3895616"><ele>306.0</ele><time>2026-05-03T16:04:50.298Z</time></trkpt><trkpt lat="44.8404022" lon="7.3896552"><ele>306.0</ele><time>2026-05-03T16:04:51.298Z</time></trkpt><trkpt lat="44.8403315" lon="7.3898031"><ele>306.0</ele><time>2026-05-03T16:04:53.299Z</time></trkpt><trkpt lat="44.8402961" lon="7.3898823"><ele>306.0</ele><time>2026-05-03T16:04:54.3Z</time></trkpt><trkpt lat="44.8402504" lon="7.389951"><ele>306.0</ele><time>2026-05-03T16:04:55.299Z</time></trkpt><trkpt lat="44.8402062" lon="7.3900289"><ele>306.0</ele><time>2026-05-03T16:04:56.3Z</time></trkpt><trkpt lat="44.8401592" lon="7.3901134"><ele>306.0</ele><time>2026-05-03T16:04:57.299Z</time></trkpt><trkpt lat="44.8401264" lon="7.3901955"><ele>306.0</ele><time>2026-05-03T16:04:58.299Z</time></trkpt><trkpt lat="44.8400989" lon="7.3902904"><ele>306.0</ele><time>2026-05-03T16:04:59.299Z</time></trkpt><trkpt lat="44.8400239" lon="7.3904152"><ele>306.0</ele><time>2026-05-03T16:05:01.3Z</time></trkpt><trkpt lat="44.8399561" lon="7.3904345"><ele>306.0</ele><time>2026-05-03T16:05:02.299Z</time></trkpt><trkpt lat="44.8398925" lon="7.3904428"><ele>306.0</ele><time>2026-05-03T16:05:03.299Z</time></trkpt><trkpt lat="44.8397786" lon="7.3904951"><ele>306.0</ele><time>2026-05-03T16:05:05.3Z</time></trkpt><trkpt lat="44.8397171" lon="7.3905268"><ele>305.8333333333333</ele><time>2026-05-03T16:05:06.299Z</time></trkpt><trkpt lat="44.8396638" lon="7.3905746"><ele>305.6666666666667</ele><time>2026-05-03T16:05:07.299Z</time></trkpt><trkpt lat="44.8395931" lon="7.390673"><ele>305.5</ele><time>2026-05-03T16:05:09.298Z</time></trkpt><trkpt lat="44.8395283" lon="7.3906392"><ele>305.33333333333337</ele><time>2026-05-03T16:06:19.298Z</time></trkpt><trkpt lat="44.8394684" lon="7.3905819"><ele>305.1666666666667</ele><time>2026-05-03T16:06:21.298Z</time></trkpt><trkpt lat="44.839385" lon="7.3905254"><ele>305.0</ele><time>2026-05-03T16:06:24.298Z</time></trkpt><trkpt lat="44.8392875" lon="7.3904799"><ele>305.0</ele><time>2026-05-03T16:06:26.299Z</time></trkpt><trkpt lat="44.8392193" lon="7.3904333"><ele>305.0</ele><time>2026-05-03T16:06:28.298Z</time></trkpt><trkpt lat="44.8391388" lon="7.3903518"><ele>305.0</ele><time>2026-05-03T16:06:30.299Z</time></trkpt><trkpt lat="44.8390556" lon="7.3902569"><ele>305.0</ele><time>2026-05-03T16:06:32.297Z</time></trkpt><trkpt lat="44.8389822" lon="7.3901991"><ele>305.0</ele><time>2026-05-03T16:06:34.298Z</time></trkpt><trkpt lat="44.8389045" lon="7.3901156"><ele>305.0</ele><time>2026-05-03T16:06:36.297Z</time></trkpt><trkpt lat="44.8388174" lon="7.3900433"><ele>305.0</ele><time>2026-05-03T16:06:38.298Z</time></trkpt><trkpt lat="44.8387508" lon="7.3900019"><ele>305.0</ele><time>2026-05-03T16:06:40.298Z</time></trkpt><trkpt lat="44.8386827" lon="7.3899342"><ele>305.0</ele><time>2026-05-03T16:06:53.298Z</time></trkpt><trkpt lat="44.8386109" lon="7.3899256"><ele>305.0</ele><time>2026-05-03T16:06:56.3Z</time></trkpt><trkpt lat="44.8385289" lon="7.3900124"><ele>305.0</ele><time>2026-05-03T16:06:58.297Z</time></trkpt><trkpt lat="44.8384552" lon="7.3900552"><ele>304.83333333333337</ele><time>2026-05-03T16:07:00.299Z</time></trkpt><trkpt lat="44.8383726" lon="7.3900925"><ele>304.6666666666667</ele><time>2026-05-03T16:07:02.298Z</time></trkpt><trkpt lat="44.8383164" lon="7.3902427"><ele>304.5</ele><time>2026-05-03T16:07:04.297Z</time></trkpt><trkpt lat="44.8382806" lon="7.3903317"><ele>304.3333333333333</ele><time>2026-05-03T16:07:05.298Z</time></trkpt><trkpt lat="44.8382541" lon="7.3904325"><ele>304.16666666666663</ele><time>2026-05-03T16:07:06.299Z</time></trkpt><trkpt lat="44.8382443" lon="7.390537"><ele>304.0</ele><time>2026-05-03T16:07:07.299Z</time></trkpt><trkpt lat="44.8382317" lon="7.3906361"><ele>303.8333333333333</ele><time>2026-05-03T16:07:08.297Z</time></trkpt><trkpt lat="44.8382199" lon="7.3907319"><ele>303.66666666666663</ele><time>2026-05-03T16:07:09.297Z</time></trkpt><trkpt lat="44.8382143" lon="7.3908693"><ele>303.5</ele><time>2026-05-03T16:07:11.3Z</time></trkpt><trkpt lat="44.838204" lon="7.3909686"><ele>303.3333333333333</ele><time>2026-05-03T16:07:12.297Z</time></trkpt><trkpt lat="44.8381986" lon="7.3910642"><ele>303.1666666666667</ele><time>2026-05-03T16:07:13.298Z</time></trkpt><trkpt lat="44.838178" lon="7.3911725"><ele>303.0</ele><time>2026-05-03T16:07:14.298Z</time></trkpt><trkpt lat="44.8381607" lon="7.3912825"><ele>302.8</ele><time>2026-05-03T16:07:15.298Z</time></trkpt><trkpt lat="44.838123" lon="7.3914656"><ele>302.6</ele><time>2026-05-03T16:07:17.298Z</time></trkpt><trkpt lat="44.8380991" lon="7.3915667"><ele>302.4</ele><time>2026-05-03T16:07:18.297Z</time></trkpt><trkpt lat="44.8380744" lon="7.3916651"><ele>302.2</ele><time>2026-05-03T16:07:19.3Z</time></trkpt><trkpt lat="44.8380444" lon="7.3918214"><ele>302.0</ele><time>2026-05-03T16:07:21.298Z</time></trkpt><trkpt lat="44.8380238" lon="7.3919667"><ele>302.0</ele><time>2026-05-03T16:07:23.298Z</time></trkpt><trkpt lat="44.8380189" lon="7.392125"><ele>302.0</ele><time>2026-05-03T16:07:25.298Z</time></trkpt><trkpt lat="44.838011" lon="7.3922149"><ele>302.0</ele><time>2026-05-03T16:07:26.297Z</time></trkpt><trkpt lat="44.8379888" lon="7.3922985"><ele>302.0</ele><time>2026-05-03T16:07:27.298Z</time></trkpt><trkpt lat="44.837954" lon="7.3923804"><ele>302.0</ele><time>2026-05-03T16:07:28.298Z</time></trkpt><trkpt lat="44.8379161" lon="7.392462"><ele>302.0</ele><time>2026-05-03T16:07:29.298Z</time></trkpt><trkpt lat="44.8378701" lon="7.3925474"><ele>301.83333333333337</ele><time>2026-05-03T16:07:30.297Z</time></trkpt><trkpt lat="44.837825" lon="7.3926368"><ele>301.6666666666667</ele><time>2026-05-03T16:07:31.298Z</time></trkpt><trkpt lat="44.8377851" lon="7.3927292"><ele>301.5</ele><time>2026-05-03T16:07:32.298Z</time></trkpt><trkpt lat="44.8377425" lon="7.3928068"><ele>301.3333333333333</ele><time>2026-05-03T16:07:33.298Z</time></trkpt><trkpt lat="44.8377067" lon="7.3928927"><ele>301.16666666666663</ele><time>2026-05-03T16:07:34.298Z</time></trkpt><trkpt lat="44.8376499" lon="7.39302"><ele>301.0</ele><time>2026-05-03T16:07:36.298Z</time></trkpt><trkpt lat="44.8375731" lon="7.3931773"><ele>301.0</ele><time>2026-05-03T16:07:38.298Z</time></trkpt><trkpt lat="44.8375382" lon="7.3932575"><ele>301.0</ele><time>2026-05-03T16:07:39.298Z</time></trkpt><trkpt lat="44.8374955" lon="7.3934098"><ele>301.0</ele><time>2026-05-03T16:07:41.298Z</time></trkpt><trkpt lat="44.8375245" lon="7.3935713"><ele>301.0</ele><time>2026-05-03T16:07:43.297Z</time></trkpt><trkpt lat="44.8375909" lon="7.3937238"><ele>301.0</ele><time>2026-05-03T16:07:45.298Z</time></trkpt><trkpt lat="44.8376452" lon="7.3938571"><ele>300.8</ele><time>2026-05-03T16:07:47.298Z</time></trkpt><trkpt lat="44.8376404" lon="7.3939883"><ele>300.6</ele><time>2026-05-03T16:07:49.299Z</time></trkpt><trkpt lat="44.8375536" lon="7.3941149"><ele>300.4</ele><time>2026-05-03T16:07:51.298Z</time></trkpt><trkpt lat="44.8374986" lon="7.3941921"><ele>300.2</ele><time>2026-05-03T16:07:52.298Z</time></trkpt><trkpt lat="44.8374404" lon="7.3942737"><ele>300.0</ele><time>2026-05-03T16:07:53.297Z</time></trkpt><trkpt lat="44.8373735" lon="7.3943548"><ele>300.0</ele><time>2026-05-03T16:07:54.297Z</time></trkpt><trkpt lat="44.8373302" lon="7.3944412"><ele>300.0</ele><time>2026-05-03T16:07:55.297Z</time></trkpt><trkpt lat="44.8372838" lon="7.3945377"><ele>300.0</ele><time>2026-05-03T16:07:56.299Z</time></trkpt><trkpt lat="44.8372398" lon="7.3946336"><ele>300.0</ele><time>2026-05-03T16:07:57.298Z</time></trkpt><trkpt lat="44.8371955" lon="7.3947346"><ele>300.0</ele><time>2026-05-03T16:07:58.297Z</time></trkpt><trkpt lat="44.8371568" lon="7.3948375"><ele>300.0</ele><time>2026-05-03T16:07:59.299Z</time></trkpt><trkpt lat="44.8371168" lon="7.3949419"><ele>299.8333333333333</ele><time>2026-05-03T16:08:00.299Z</time></trkpt><trkpt lat="44.8370721" lon="7.39503"><ele>299.6666666666667</ele><time>2026-05-03T16:08:01.297Z</time></trkpt><trkpt lat="44.837033" lon="7.3951153"><ele>299.5</ele><time>2026-05-03T16:08:02.298Z</time></trkpt><trkpt lat="44.836988" lon="7.3952084"><ele>299.33333333333337</ele><time>2026-05-03T16:08:03.298Z</time></trkpt><trkpt lat="44.8369492" lon="7.3953043"><ele>299.1666666666667</ele><time>2026-05-03T16:08:04.297Z</time></trkpt><trkpt lat="44.8369271" lon="7.3954139"><ele>299.0</ele><time>2026-05-03T16:08:05.297Z</time></trkpt><trkpt lat="44.8369055" lon="7.395528"><ele>299.0</ele><time>2026-05-03T16:08:06.299Z</time></trkpt><trkpt lat="44.8368839" lon="7.395622"><ele>299.0</ele><time>2026-05-03T16:08:07.298Z</time></trkpt><trkpt lat="44.8368504" lon="7.3957057"><ele>299.0</ele><time>2026-05-03T16:08:08.299Z</time></trkpt><trkpt lat="44.8368088" lon="7.3957939"><ele>299.0</ele><time>2026-05-03T16:08:09.297Z</time></trkpt><trkpt lat="44.8367589" lon="7.3958754"><ele>299.0</ele><time>2026-05-03T16:08:10.299Z</time></trkpt><trkpt lat="44.836701" lon="7.3959545"><ele>299.0</ele><time>2026-05-03T16:08:11.298Z</time></trkpt><trkpt lat="44.8366414" lon="7.3960361"><ele>299.0</ele><time>2026-05-03T16:08:12.297Z</time></trkpt><trkpt lat="44.836583" lon="7.3961053"><ele>299.0</ele><time>2026-05-03T16:08:13.298Z</time></trkpt><trkpt lat="44.8365196" lon="7.3961817"><ele>299.0</ele><time>2026-05-03T16:08:14.298Z</time></trkpt><trkpt lat="44.8364581" lon="7.3962544"><ele>299.0</ele><time>2026-05-03T16:08:15.297Z</time></trkpt><trkpt lat="44.8363944" lon="7.3963264"><ele>299.0</ele><time>2026-05-03T16:08:16.299Z</time></trkpt><trkpt lat="44.8363324" lon="7.3963952"><ele>299.0</ele><time>2026-05-03T16:08:17.298Z</time></trkpt><trkpt lat="44.8362584" lon="7.3964601"><ele>299.1666666666667</ele><time>2026-05-03T16:08:18.298Z</time></trkpt><trkpt lat="44.8361891" lon="7.3965367"><ele>299.33333333333337</ele><time>2026-05-03T16:08:19.298Z</time></trkpt><trkpt lat="44.8361141" lon="7.3966269"><ele>299.5</ele><time>2026-05-03T16:08:20.298Z</time></trkpt><trkpt lat="44.8360541" lon="7.3967145"><ele>299.6666666666667</ele><time>2026-05-03T16:08:21.298Z</time></trkpt><trkpt lat="44.8359908" lon="7.3967894"><ele>299.8333333333333</ele><time>2026-05-03T16:08:22.298Z</time></trkpt><trkpt lat="44.8359234" lon="7.3968797"><ele>300.0</ele><time>2026-05-03T16:08:23.298Z</time></trkpt><trkpt lat="44.8358557" lon="7.3969721"><ele>300.0</ele><time>2026-05-03T16:08:24.298Z</time></trkpt><trkpt lat="44.8357984" lon="7.3970654"><ele>300.0</ele><time>2026-05-03T16:08:25.298Z</time></trkpt><trkpt lat="44.835734" lon="7.3971508"><ele>300.0</ele><time>2026-05-03T16:08:26.298Z</time></trkpt><trkpt lat="44.8356827" lon="7.3972328"><ele>300.0</ele><time>2026-05-03T16:08:27.297Z</time></trkpt><trkpt lat="44.8356295" lon="7.3973012"><ele>300.0</ele><time>2026-05-03T16:08:28.298Z</time></trkpt><trkpt lat="44.8355797" lon="7.3973752"><ele>300.0</ele><time>2026-05-03T16:08:29.298Z</time></trkpt><trkpt lat="44.8355066" lon="7.3974945"><ele>299.6666666666667</ele><time>2026-05-03T16:08:31.299Z</time></trkpt><trkpt lat="44.8354517" lon="7.3975712"><ele>299.3333333333333</ele><time>2026-05-03T16:08:52.297Z</time></trkpt><trkpt lat="44.8353819" lon="7.3975663"><ele>299.0</ele><time>2026-05-03T16:08:54.298Z</time></trkpt><trkpt lat="44.8352768" lon="7.3974984"><ele>298.66666666666663</ele><time>2026-05-03T16:08:56.297Z</time></trkpt><trkpt lat="44.8352095" lon="7.3974379"><ele>298.3333333333333</ele><time>2026-05-03T16:08:57.297Z</time></trkpt><trkpt lat="44.8351299" lon="7.397376"><ele>298.0</ele><time>2026-05-03T16:08:58.299Z</time></trkpt><trkpt lat="44.8350484" lon="7.397309"><ele>298.0</ele><time>2026-05-03T16:08:59.299Z</time></trkpt><trkpt lat="44.8349547" lon="7.3972579"><ele>298.0</ele><time>2026-05-03T16:09:00.298Z</time></trkpt><trkpt lat="44.8348595" lon="7.3972299"><ele>298.0</ele><time>2026-05-03T16:09:01.298Z</time></trkpt><trkpt lat="44.8347748" lon="7.3972164"><ele>298.0</ele><time>2026-05-03T16:09:02.299Z</time></trkpt><trkpt lat="44.8346927" lon="7.3972089"><ele>298.0</ele><time>2026-05-03T16:09:03.299Z</time></trkpt><trkpt lat="44.8346033" lon="7.3972014"><ele>298.0</ele><time>2026-05-03T16:09:04.297Z</time></trkpt><trkpt lat="44.8345016" lon="7.3971974"><ele>298.0</ele><time>2026-05-03T16:09:05.298Z</time></trkpt><trkpt lat="44.834398" lon="7.3971932"><ele>298.0</ele><time>2026-05-03T16:09:06.299Z</time></trkpt><trkpt lat="44.8342929" lon="7.3971888"><ele>298.0</ele><time>2026-05-03T16:09:07.3Z</time></trkpt><trkpt lat="44.8341851" lon="7.3971775"><ele>298.0</ele><time>2026-05-03T16:09:08.297Z</time></trkpt><trkpt lat="44.834088" lon="7.397175"><ele>298.16666666666663</ele><time>2026-05-03T16:09:09.297Z</time></trkpt><trkpt lat="44.8339917" lon="7.3971749"><ele>298.3333333333333</ele><time>2026-05-03T16:09:10.298Z</time></trkpt><trkpt lat="44.8339006" lon="7.3971705"><ele>298.5</ele><time>2026-05-03T16:09:11.297Z</time></trkpt><trkpt lat="44.8338214" lon="7.3971641"><ele>298.6666666666667</ele><time>2026-05-03T16:09:12.297Z</time></trkpt><trkpt lat="44.8337377" lon="7.3971606"><ele>298.83333333333337</ele><time>2026-05-03T16:09:13.299Z</time></trkpt><trkpt lat="44.8336454" lon="7.397148"><ele>299.0</ele><time>2026-05-03T16:09:14.299Z</time></trkpt><trkpt lat="44.8335569" lon="7.3971339"><ele>299.0</ele><time>2026-05-03T16:09:15.298Z</time></trkpt><trkpt lat="44.8334776" lon="7.3971238"><ele>299.0</ele><time>2026-05-03T16:09:16.298Z</time></trkpt><trkpt lat="44.8334052" lon="7.3971029"><ele>299.0</ele><time>2026-05-03T16:09:17.299Z</time></trkpt><trkpt lat="44.8333094" lon="7.3970539"><ele>299.0</ele><time>2026-05-03T16:09:19.298Z</time></trkpt><trkpt lat="44.8332329" lon="7.3971117"><ele>299.0</ele><time>2026-05-03T16:09:22.297Z</time></trkpt><trkpt lat="44.833336" lon="7.3971087"><ele>299.0</ele><time>2026-05-03T16:11:44.299Z</time></trkpt><trkpt lat="44.833399" lon="7.3971196"><ele>299.0</ele><time>2026-05-03T16:11:45.298Z</time></trkpt><trkpt lat="44.8334739" lon="7.3971299"><ele>299.0</ele><time>2026-05-03T16:11:46.298Z</time></trkpt><trkpt lat="44.8335656" lon="7.3971401"><ele>299.0</ele><time>2026-05-03T16:11:47.298Z</time></trkpt><trkpt lat="44.8336681" lon="7.397151"><ele>299.0</ele><time>2026-05-03T16:11:48.299Z</time></trkpt><trkpt lat="44.8337654" lon="7.3971576"><ele>299.0</ele><time>2026-05-03T16:11:49.299Z</time></trkpt><trkpt lat="44.8338584" lon="7.3971664"><ele>298.8</ele><time>2026-05-03T16:11:50.298Z</time></trkpt><trkpt lat="44.8339492" lon="7.3971724"><ele>298.59999999999997</ele><time>2026-05-03T16:11:51.298Z</time></trkpt><trkpt lat="44.8340415" lon="7.3971795"><ele>298.4</ele><time>2026-05-03T16:11:52.297Z</time></trkpt><trkpt lat="44.8341365" lon="7.3971825"><ele>298.2</ele><time>2026-05-03T16:11:53.297Z</time></trkpt><trkpt lat="44.8342379" lon="7.3971892"><ele>298.0</ele><time>2026-05-03T16:11:54.297Z</time></trkpt><trkpt lat="44.8343408" lon="7.3971927"><ele>298.0</ele><time>2026-05-03T16:11:55.297Z</time></trkpt><trkpt lat="44.8344453" lon="7.3971992"><ele>298.0</ele><time>2026-05-03T16:11:56.297Z</time></trkpt><trkpt lat="44.8345453" lon="7.3972001"><ele>298.0</ele><time>2026-05-03T16:11:57.296Z</time></trkpt><trkpt lat="44.8346461" lon="7.3972022"><ele>298.0</ele><time>2026-05-03T16:11:58.296Z</time></trkpt><trkpt lat="44.8347375" lon="7.3972105"><ele>298.0</ele><time>2026-05-03T16:11:59.297Z</time></trkpt><trkpt lat="44.834829" lon="7.3972299"><ele>298.0</ele><time>2026-05-03T16:12:00.298Z</time></trkpt><trkpt lat="44.834914" lon="7.3972639"><ele>298.0</ele><time>2026-05-03T16:12:01.298Z</time></trkpt><trkpt lat="44.8349895" lon="7.3973135"><ele>298.0</ele><time>2026-05-03T16:12:02.298Z</time></trkpt><trkpt lat="44.8350673" lon="7.3973689"><ele>298.0</ele><time>2026-05-03T16:12:03.297Z</time></trkpt><trkpt lat="44.8351358" lon="7.3974283"><ele>298.0</ele><time>2026-05-03T16:12:04.296Z</time></trkpt><trkpt lat="44.8351984" lon="7.3974779"><ele>298.0</ele><time>2026-05-03T16:12:05.296Z</time></trkpt><trkpt lat="44.8352618" lon="7.3975173"><ele>297.5</ele><time>2026-05-03T16:12:06.296Z</time></trkpt><trkpt lat="44.8353596" lon="7.3975733"><ele>297.0</ele><time>2026-05-03T16:12:08.299Z</time></trkpt><trkpt lat="44.8354256" lon="7.3976486"><ele>296.5</ele><time>2026-05-03T16:12:11.296Z</time></trkpt><trkpt lat="44.8354658" lon="7.3977458"><ele>296.0</ele><time>2026-05-03T16:12:18.298Z</time></trkpt><trkpt lat="44.8355356" lon="7.3978386"><ele>295.5</ele><time>2026-05-03T16:12:21.296Z</time></trkpt><trkpt lat="44.8355845" lon="7.3979258"><ele>295.0</ele><time>2026-05-03T16:12:22.298Z</time></trkpt><trkpt lat="44.8356144" lon="7.3980223"><ele>294.8333333333333</ele><time>2026-05-03T16:12:23.297Z</time></trkpt><trkpt lat="44.8356514" lon="7.3981325"><ele>294.66666666666663</ele><time>2026-05-03T16:12:24.297Z</time></trkpt><trkpt lat="44.835676" lon="7.3982427"><ele>294.5</ele><time>2026-05-03T16:12:25.298Z</time></trkpt><trkpt lat="44.8357036" lon="7.3983553"><ele>294.3333333333333</ele><time>2026-05-03T16:12:26.297Z</time></trkpt><trkpt lat="44.8357367" lon="7.398469"><ele>294.1666666666667</ele><time>2026-05-03T16:12:27.297Z</time></trkpt><trkpt lat="44.8357659" lon="7.3985625"><ele>294.0</ele><time>2026-05-03T16:12:28.298Z</time></trkpt><trkpt lat="44.8358238" lon="7.398698"><ele>294.0</ele><time>2026-05-03T16:12:30.298Z</time></trkpt><trkpt lat="44.8358659" lon="7.3988021"><ele>294.0</ele><time>2026-05-03T16:12:32.298Z</time></trkpt><trkpt lat="44.8358164" lon="7.3986467"><ele>294.0</ele><time>2026-05-03T16:12:56.296Z</time></trkpt><trkpt lat="44.8357821" lon="7.3985608"><ele>294.0</ele><time>2026-05-03T16:12:57.297Z</time></trkpt><trkpt lat="44.8357392" lon="7.3984573"><ele>294.0</ele><time>2026-05-03T16:12:58.296Z</time></trkpt><trkpt lat="44.8356991" lon="7.3983468"><ele>294.0</ele><time>2026-05-03T16:12:59.296Z</time></trkpt><trkpt lat="44.8356582" lon="7.3982318"><ele>294.0</ele><time>2026-05-03T16:13:00.297Z</time></trkpt><trkpt lat="44.8356248" lon="7.398132"><ele>294.0</ele><time>2026-05-03T16:13:01.296Z</time></trkpt><trkpt lat="44.8355938" lon="7.3980282"><ele>294.0</ele><time>2026-05-03T16:13:02.297Z</time></trkpt><trkpt lat="44.8355635" lon="7.3979343"><ele>294.0</ele><time>2026-05-03T16:13:03.297Z</time></trkpt><trkpt lat="44.8355156" lon="7.3978027"><ele>294.0</ele><time>2026-05-03T16:13:05.297Z</time></trkpt><trkpt lat="44.8354682" lon="7.3977316"><ele>294.0</ele><time>2026-05-03T16:13:07.298Z</time></trkpt><trkpt lat="44.8354418" lon="7.3976402"><ele>294.1666666666667</ele><time>2026-05-03T16:13:09.297Z</time></trkpt><trkpt lat="44.8353796" lon="7.3975388"><ele>294.3333333333333</ele><time>2026-05-03T16:13:11.296Z</time></trkpt><trkpt lat="44.8353198" lon="7.3975058"><ele>294.5</ele><time>2026-05-03T16:13:12.296Z</time></trkpt><trkpt lat="44.8352554" lon="7.3974664"><ele>294.66666666666663</ele><time>2026-05-03T16:13:13.296Z</time></trkpt><trkpt lat="44.8351883" lon="7.3974244"><ele>294.8333333333333</ele><time>2026-05-03T16:13:14.296Z</time></trkpt><trkpt lat="44.8351216" lon="7.3973666"><ele>295.0</ele><time>2026-05-03T16:13:15.296Z</time></trkpt><trkpt lat="44.8350522" lon="7.3973198"><ele>295.5</ele><time>2026-05-03T16:13:16.297Z</time></trkpt><trkpt lat="44.8349925" lon="7.3972805"><ele>296.0</ele><time>2026-05-03T16:13:17.297Z</time></trkpt><trkpt lat="44.8348858" lon="7.3972353"><ele>296.5</ele><time>2026-05-03T16:13:19.296Z</time></trkpt><trkpt lat="44.8347865" lon="7.3972037"><ele>297.0</ele><time>2026-05-03T16:13:21.297Z</time></trkpt><trkpt lat="44.8347021" lon="7.3971906"><ele>297.5</ele><time>2026-05-03T16:13:23.298Z</time></trkpt><trkpt lat="44.8346222" lon="7.3972094"><ele>298.0</ele><time>2026-05-03T16:13:38.296Z</time></trkpt><trkpt lat="44.8345255" lon="7.3971999"><ele>298.0</ele><time>2026-05-03T16:13:39.296Z</time></trkpt><trkpt lat="44.8344223" lon="7.397194"><ele>298.0</ele><time>2026-05-03T16:13:40.297Z</time></trkpt><trkpt lat="44.8343039" lon="7.3971865"><ele>298.0</ele><time>2026-05-03T16:13:41.296Z</time></trkpt><trkpt lat="44.8341573" lon="7.3971808"><ele>298.0</ele><time>2026-05-03T16:13:42.298Z</time></trkpt><trkpt lat="44.8340034" lon="7.3971659"><ele>298.25</ele><time>2026-05-03T16:13:43.296Z</time></trkpt><trkpt lat="44.8338652" lon="7.3971622"><ele>298.5</ele><time>2026-05-03T16:13:44.297Z</time></trkpt><trkpt lat="44.8337404" lon="7.3971542"><ele>298.75</ele><time>2026-05-03T16:13:45.296Z</time></trkpt><trkpt lat="44.8336284" lon="7.3971456"><ele>299.0</ele><time>2026-05-03T16:13:46.296Z</time></trkpt><trkpt lat="44.8335257" lon="7.3971319"><ele>298.25</ele><time>2026-05-03T16:13:47.297Z</time></trkpt><trkpt lat="44.8334232" lon="7.3971101"><ele>297.5</ele><time>2026-05-03T16:13:48.297Z</time></trkpt><trkpt lat="44.833323" lon="7.3970603"><ele>296.75</ele><time>2026-05-03T16:13:49.298Z</time></trkpt><trkpt lat="44.8332181" lon="7.3969948"><ele>296.0</ele><time>2026-05-03T16:13:50.296Z</time></trkpt><trkpt lat="44.8330993" lon="7.3969319"><ele>296.0</ele><time>2026-05-03T16:13:51.296Z</time></trkpt><trkpt lat="44.8329661" lon="7.3968816"><ele>296.0</ele><time>2026-05-03T16:13:52.297Z</time></trkpt><trkpt lat="44.8328338" lon="7.3968226"><ele>296.0</ele><time>2026-05-03T16:13:53.298Z</time></trkpt><trkpt lat="44.8327033" lon="7.3967711"><ele>296.0</ele><time>2026-05-03T16:13:54.296Z</time></trkpt><trkpt lat="44.8325793" lon="7.3967021"><ele>295.8</ele><time>2026-05-03T16:13:55.296Z</time></trkpt><trkpt lat="44.8324636" lon="7.3966423"><ele>295.6</ele><time>2026-05-03T16:13:56.297Z</time></trkpt><trkpt lat="44.832362" lon="7.3965894"><ele>295.4</ele><time>2026-05-03T16:13:57.297Z</time></trkpt><trkpt lat="44.8322647" lon="7.3965559"><ele>295.2</ele><time>2026-05-03T16:13:58.297Z</time></trkpt><trkpt lat="44.8321562" lon="7.396527"><ele>295.0</ele><time>2026-05-03T16:13:59.296Z</time></trkpt><trkpt lat="44.8320532" lon="7.3965002"><ele>295.0</ele><time>2026-05-03T16:14:00.296Z</time></trkpt><trkpt lat="44.8319568" lon="7.3964705"><ele>295.0</ele><time>2026-05-03T16:14:01.296Z</time></trkpt><trkpt lat="44.8318665" lon="7.3964526"><ele>295.0</ele><time>2026-05-03T16:14:02.296Z</time></trkpt><trkpt lat="44.8317942" lon="7.396428"><ele>295.0</ele><time>2026-05-03T16:14:03.298Z</time></trkpt><trkpt lat="44.8316981" lon="7.3963421"><ele>295.0</ele><time>2026-05-03T16:14:05.296Z</time></trkpt><trkpt lat="44.8316811" lon="7.3961871"><ele>295.16666666666663</ele><time>2026-05-03T16:14:07.296Z</time></trkpt><trkpt lat="44.8317004" lon="7.3960884"><ele>295.3333333333333</ele><time>2026-05-03T16:14:08.296Z</time></trkpt><trkpt lat="44.8317233" lon="7.3959904"><ele>295.5</ele><time>2026-05-03T16:14:09.297Z</time></trkpt><trkpt lat="44.8317554" lon="7.39589"><ele>295.6666666666667</ele><time>2026-05-03T16:14:10.296Z</time></trkpt><trkpt lat="44.8318029" lon="7.3957843"><ele>295.83333333333337</ele><time>2026-05-03T16:14:11.296Z</time></trkpt><trkpt lat="44.8318674" lon="7.3956826"><ele>296.0</ele><time>2026-05-03T16:14:12.296Z</time></trkpt><trkpt lat="44.831941" lon="7.3955746"><ele>296.5</ele><time>2026-05-03T16:14:13.296Z</time></trkpt><trkpt lat="44.8320131" lon="7.3954876"><ele>297.0</ele><time>2026-05-03T16:14:14.297Z</time></trkpt><trkpt lat="44.8320706" lon="7.3953978"><ele>297.5</ele><time>2026-05-03T16:14:15.298Z</time></trkpt><trkpt lat="44.8321152" lon="7.3952929"><ele>298.0</ele><time>2026-05-03T16:14:16.296Z</time></trkpt><trkpt lat="44.8321522" lon="7.3951858"><ele>298.5</ele><time>2026-05-03T16:14:17.296Z</time></trkpt><trkpt lat="44.8321754" lon="7.3950552"><ele>299.0</ele><time>2026-05-03T16:14:18.297Z</time></trkpt><trkpt lat="44.8322005" lon="7.3949181"><ele>299.0</ele><time>2026-05-03T16:14:19.295Z</time></trkpt><trkpt lat="44.8322247" lon="7.3947682"><ele>299.0</ele><time>2026-05-03T16:14:20.297Z</time></trkpt><trkpt lat="44.8322449" lon="7.3946168"><ele>299.0</ele><time>2026-05-03T16:14:21.296Z</time></trkpt><trkpt lat="44.8322688" lon="7.3944724"><ele>299.0</ele><time>2026-05-03T16:14:22.297Z</time></trkpt><trkpt lat="44.8322938" lon="7.3943275"><ele>299.0</ele><time>2026-05-03T16:14:23.296Z</time></trkpt><trkpt lat="44.8323223" lon="7.3941852"><ele>299.2</ele><time>2026-05-03T16:14:24.296Z</time></trkpt><trkpt lat="44.8323528" lon="7.3940444"><ele>299.4</ele><time>2026-05-03T16:14:25.296Z</time></trkpt><trkpt lat="44.8323858" lon="7.3939071"><ele>299.6</ele><time>2026-05-03T16:14:26.297Z</time></trkpt><trkpt lat="44.8324193" lon="7.3937743"><ele>299.8</ele><time>2026-05-03T16:14:27.296Z</time></trkpt><trkpt lat="44.8324551" lon="7.393638"><ele>300.0</ele><time>2026-05-03T16:14:28.296Z</time></trkpt><trkpt lat="44.8324981" lon="7.3935005"><ele>300.0</ele><time>2026-05-03T16:14:29.295Z</time></trkpt><trkpt lat="44.8325343" lon="7.3933628"><ele>300.0</ele><time>2026-05-03T16:14:30.296Z</time></trkpt><trkpt lat="44.832565" lon="7.3932179"><ele>300.0</ele><time>2026-05-03T16:14:31.297Z</time></trkpt><trkpt lat="44.8325938" lon="7.3930763"><ele>300.0</ele><time>2026-05-03T16:14:32.295Z</time></trkpt><trkpt lat="44.8326258" lon="7.3929335"><ele>300.0</ele><time>2026-05-03T16:14:33.297Z</time></trkpt><trkpt lat="44.832657" lon="7.3927843"><ele>299.8</ele><time>2026-05-03T16:14:34.295Z</time></trkpt><trkpt lat="44.8326903" lon="7.3926464"><ele>299.6</ele><time>2026-05-03T16:14:35.297Z</time></trkpt><trkpt lat="44.8327171" lon="7.3925176"><ele>299.4</ele><time>2026-05-03T16:14:36.296Z</time></trkpt><trkpt lat="44.8327475" lon="7.3923967"><ele>299.2</ele><time>2026-05-03T16:14:37.296Z</time></trkpt><trkpt lat="44.8327838" lon="7.3922799"><ele>299.0</ele><time>2026-05-03T16:14:38.296Z</time></trkpt><trkpt lat="44.8328241" lon="7.3921582"><ele>299.0</ele><time>2026-05-03T16:14:39.296Z</time></trkpt><trkpt lat="44.8328699" lon="7.3920371"><ele>299.0</ele><time>2026-05-03T16:14:40.297Z</time></trkpt><trkpt lat="44.8329245" lon="7.391918"><ele>299.0</ele><time>2026-05-03T16:14:41.297Z</time></trkpt><trkpt lat="44.8329777" lon="7.3917879"><ele>299.0</ele><time>2026-05-03T16:14:42.296Z</time></trkpt><trkpt lat="44.8330338" lon="7.3916567"><ele>299.0</ele><time>2026-05-03T16:14:43.295Z</time></trkpt><trkpt lat="44.8330853" lon="7.3915322"><ele>299.0</ele><time>2026-05-03T16:14:44.297Z</time></trkpt><trkpt lat="44.8331357" lon="7.3914043"><ele>299.0</ele><time>2026-05-03T16:14:45.296Z</time></trkpt><trkpt lat="44.8331854" lon="7.3912707"><ele>299.0</ele><time>2026-05-03T16:14:46.296Z</time></trkpt><trkpt lat="44.8332274" lon="7.3911455"><ele>299.0</ele><time>2026-05-03T16:14:47.297Z</time></trkpt><trkpt lat="44.8332726" lon="7.3910294"><ele>299.0</ele><time>2026-05-03T16:14:48.296Z</time></trkpt><trkpt lat="44.8333218" lon="7.3909112"><ele>299.33333333333337</ele><time>2026-05-03T16:14:49.297Z</time></trkpt><trkpt lat="44.8333741" lon="7.3908285"><ele>299.6666666666667</ele><time>2026-05-03T16:14:50.296Z</time></trkpt><trkpt lat="44.8334363" lon="7.3907502"><ele>300.0</ele><time>2026-05-03T16:14:51.297Z</time></trkpt><trkpt lat="44.8335058" lon="7.3906713"><ele>300.3333333333333</ele><time>2026-05-03T16:14:52.297Z</time></trkpt><trkpt lat="44.8335796" lon="7.3905979"><ele>300.66666666666663</ele><time>2026-05-03T16:14:53.297Z</time></trkpt><trkpt lat="44.8336488" lon="7.3905242"><ele>301.0</ele><time>2026-05-03T16:14:54.295Z</time></trkpt><trkpt lat="44.8337095" lon="7.3904484"><ele>301.2</ele><time>2026-05-03T16:14:55.296Z</time></trkpt><trkpt lat="44.8337629" lon="7.3903721"><ele>301.40000000000003</ele><time>2026-05-03T16:14:56.296Z</time></trkpt><trkpt lat="44.8338067" lon="7.3902988"><ele>301.6</ele><time>2026-05-03T16:14:57.296Z</time></trkpt><trkpt lat="44.8338907" lon="7.3901932"><ele>301.8</ele><time>2026-05-03T16:14:59.296Z</time></trkpt><trkpt lat="44.8339682" lon="7.3900906"><ele>302.0</ele><time>2026-05-03T16:15:01.297Z</time></trkpt><trkpt lat="44.8340649" lon="7.3899699"><ele>302.0</ele><time>2026-05-03T16:15:03.296Z</time></trkpt><trkpt lat="44.8341153" lon="7.389902"><ele>302.0</ele><time>2026-05-03T16:15:04.295Z</time></trkpt><trkpt lat="44.8341571" lon="7.3898334"><ele>302.0</ele><time>2026-05-03T16:15:05.295Z</time></trkpt><trkpt lat="44.8341908" lon="7.3897012"><ele>302.0</ele><time>2026-05-03T16:15:07.297Z</time></trkpt><trkpt lat="44.8341144" lon="7.3895891"><ele>302.0</ele><time>2026-05-03T16:15:09.296Z</time></trkpt><trkpt lat="44.8340415" lon="7.3895227"><ele>302.0</ele><time>2026-05-03T16:15:10.296Z</time></trkpt><trkpt lat="44.8339668" lon="7.3894526"><ele>302.0</ele><time>2026-05-03T16:15:11.297Z</time></trkpt><trkpt lat="44.8338989" lon="7.3893717"><ele>302.0</ele><time>2026-05-03T16:15:12.297Z</time></trkpt><trkpt lat="44.8338304" lon="7.3892959"><ele>302.0</ele><time>2026-05-03T16:15:13.297Z</time></trkpt><trkpt lat="44.8337732" lon="7.3892194"><ele>302.0</ele><time>2026-05-03T16:15:14.297Z</time></trkpt><trkpt lat="44.8337308" lon="7.3891215"><ele>302.0</ele><time>2026-05-03T16:15:15.296Z</time></trkpt><trkpt lat="44.8337092" lon="7.3889992"><ele>302.0</ele><time>2026-05-03T16:15:16.296Z</time></trkpt><trkpt lat="44.8337093" lon="7.3888505"><ele>302.0</ele><time>2026-05-03T16:15:17.296Z</time></trkpt><trkpt lat="44.8337298" lon="7.3886584"><ele>302.0</ele><time>2026-05-03T16:15:18.297Z</time></trkpt><trkpt lat="44.8337695" lon="7.3884485"><ele>302.0</ele><time>2026-05-03T16:15:19.295Z</time></trkpt><trkpt lat="44.8338156" lon="7.3882107"><ele>302.0</ele><time>2026-05-03T16:15:20.298Z</time></trkpt><trkpt lat="44.8338576" lon="7.3879735"><ele>302.0</ele><time>2026-05-03T16:15:21.297Z</time></trkpt><trkpt lat="44.8339037" lon="7.3877161"><ele>302.0</ele><time>2026-05-03T16:15:22.297Z</time></trkpt><trkpt lat="44.8339513" lon="7.3874608"><ele>302.0</ele><time>2026-05-03T16:15:23.297Z</time></trkpt><trkpt lat="44.834" lon="7.3872184"><ele>302.0</ele><time>2026-05-03T16:15:24.298Z</time></trkpt><trkpt lat="44.8340488" lon="7.386978"><ele>302.0</ele><time>2026-05-03T16:15:25.297Z</time></trkpt><trkpt lat="44.8340941" lon="7.3867478"><ele>301.6666666666667</ele><time>2026-05-03T16:15:26.295Z</time></trkpt><trkpt lat="44.8341408" lon="7.3865199"><ele>301.3333333333333</ele><time>2026-05-03T16:15:27.295Z</time></trkpt><trkpt lat="44.8341818" lon="7.3862928"><ele>301.0</ele><time>2026-05-03T16:15:28.296Z</time></trkpt><trkpt lat="44.8342272" lon="7.3860651"><ele>301.0</ele><time>2026-05-03T16:15:29.295Z</time></trkpt><trkpt lat="44.8342736" lon="7.3858456"><ele>301.0</ele><time>2026-05-03T16:15:30.296Z</time></trkpt><trkpt lat="44.834316" lon="7.3856393"><ele>301.0</ele><time>2026-05-03T16:15:31.296Z</time></trkpt><trkpt lat="44.8343586" lon="7.3854429"><ele>301.75</ele><time>2026-05-03T16:15:32.296Z</time></trkpt><trkpt lat="44.834402" lon="7.3852381"><ele>302.5</ele><time>2026-05-03T16:15:33.296Z</time></trkpt><trkpt lat="44.834441" lon="7.3850402"><ele>303.25</ele><time>2026-05-03T16:15:34.295Z</time></trkpt><trkpt lat="44.8344837" lon="7.3848615"><ele>304.0</ele><time>2026-05-03T16:15:35.297Z</time></trkpt><trkpt lat="44.8345198" lon="7.3846975"><ele>304.0</ele><time>2026-05-03T16:15:36.296Z</time></trkpt><trkpt lat="44.8345553" lon="7.3845215"><ele>304.0</ele><time>2026-05-03T16:15:37.296Z</time></trkpt><trkpt lat="44.8345818" lon="7.3843483"><ele>304.0</ele><time>2026-05-03T16:15:38.296Z</time></trkpt><trkpt lat="44.8345976" lon="7.3841703"><ele>304.0</ele><time>2026-05-03T16:15:39.296Z</time></trkpt><trkpt lat="44.8346028" lon="7.3839883"><ele>304.25</ele><time>2026-05-03T16:15:40.295Z</time></trkpt><trkpt lat="44.8346071" lon="7.3837862"><ele>304.5</ele><time>2026-05-03T16:15:41.296Z</time></trkpt><trkpt lat="44.8346083" lon="7.3835897"><ele>304.75</ele><time>2026-05-03T16:15:42.297Z</time></trkpt><trkpt lat="44.8346055" lon="7.3834"><ele>305.0</ele><time>2026-05-03T16:15:43.295Z</time></trkpt><trkpt lat="44.8346032" lon="7.3832085"><ele>305.0</ele><time>2026-05-03T16:15:44.298Z</time></trkpt><trkpt lat="44.8345912" lon="7.3830284"><ele>305.0</ele><time>2026-05-03T16:15:45.297Z</time></trkpt><trkpt lat="44.8345713" lon="7.3828495"><ele>305.0</ele><time>2026-05-03T16:15:46.296Z</time></trkpt><trkpt lat="44.834543" lon="7.3826764"><ele>305.0</ele><time>2026-05-03T16:15:47.296Z</time></trkpt><trkpt lat="44.8345276" lon="7.3825142"><ele>305.0</ele><time>2026-05-03T16:15:48.296Z</time></trkpt><trkpt lat="44.8345158" lon="7.3823471"><ele>305.0</ele><time>2026-05-03T16:15:49.297Z</time></trkpt><trkpt lat="44.8345121" lon="7.3821769"><ele>305.0</ele><time>2026-05-03T16:15:50.296Z</time></trkpt><trkpt lat="44.83454" lon="7.3819829"><ele>305.0</ele><time>2026-05-03T16:15:51.297Z</time></trkpt><trkpt lat="44.8345762" lon="7.3817852"><ele>305.75</ele><time>2026-05-03T16:15:52.296Z</time></trkpt><trkpt lat="44.8346149" lon="7.3815946"><ele>306.5</ele><time>2026-05-03T16:15:53.296Z</time></trkpt><trkpt lat="44.834652" lon="7.3813996"><ele>307.25</ele><time>2026-05-03T16:15:54.296Z</time></trkpt><trkpt lat="44.8346715" lon="7.3812054"><ele>308.0</ele><time>2026-05-03T16:15:55.296Z</time></trkpt><trkpt lat="44.8346897" lon="7.3810088"><ele>308.0</ele><time>2026-05-03T16:15:56.296Z</time></trkpt><trkpt lat="44.8347183" lon="7.380812"><ele>308.0</ele><time>2026-05-03T16:15:57.296Z</time></trkpt><trkpt lat="44.8347523" lon="7.380635"><ele>308.0</ele><time>2026-05-03T16:15:58.297Z</time></trkpt><trkpt lat="44.8348046" lon="7.3804582"><ele>308.0</ele><time>2026-05-03T16:15:59.295Z</time></trkpt><trkpt lat="44.8348798" lon="7.3802729"><ele>308.0</ele><time>2026-05-03T16:16:00.297Z</time></trkpt><trkpt lat="44.8349606" lon="7.3800942"><ele>308.0</ele><time>2026-05-03T16:16:01.296Z</time></trkpt><trkpt lat="44.8350473" lon="7.3799309"><ele>308.0</ele><time>2026-05-03T16:16:02.296Z</time></trkpt><trkpt lat="44.8351286" lon="7.3797834"><ele>308.0</ele><time>2026-05-03T16:16:03.297Z</time></trkpt><trkpt lat="44.8352149" lon="7.3796257"><ele>308.0</ele><time>2026-05-03T16:16:04.296Z</time></trkpt><trkpt lat="44.8353034" lon="7.3794568"><ele>308.0</ele><time>2026-05-03T16:16:05.295Z</time></trkpt><trkpt lat="44.8353877" lon="7.3793009"><ele>308.0</ele><time>2026-05-03T16:16:06.295Z</time></trkpt><trkpt lat="44.8354571" lon="7.3791329"><ele>308.0</ele><time>2026-05-03T16:16:07.297Z</time></trkpt><trkpt lat="44.835518" lon="7.3789483"><ele>308.0</ele><time>2026-05-03T16:16:08.295Z</time></trkpt><trkpt lat="44.835568" lon="7.3787575"><ele>308.0</ele><time>2026-05-03T16:16:09.295Z</time></trkpt><trkpt lat="44.8355924" lon="7.3785632"><ele>308.0</ele><time>2026-05-03T16:16:10.296Z</time></trkpt><trkpt lat="44.8355891" lon="7.378362"><ele>308.0</ele><time>2026-05-03T16:16:11.297Z</time></trkpt><trkpt lat="44.8355808" lon="7.3781614"><ele>308.5</ele><time>2026-05-03T16:16:12.296Z</time></trkpt><trkpt lat="44.8355793" lon="7.3779683"><ele>309.0</ele><time>2026-05-03T16:16:13.295Z</time></trkpt><trkpt lat="44.8355898" lon="7.3777638"><ele>309.5</ele><time>2026-05-03T16:16:14.298Z</time></trkpt><trkpt lat="44.8356154" lon="7.3775502"><ele>310.0</ele><time>2026-05-03T16:16:15.296Z</time></trkpt><trkpt lat="44.8356384" lon="7.3773517"><ele>310.25</ele><time>2026-05-03T16:16:16.296Z</time></trkpt><trkpt lat="44.8356629" lon="7.3771647"><ele>310.5</ele><time>2026-05-03T16:16:17.297Z</time></trkpt><trkpt lat="44.8356845" lon="7.3769847"><ele>310.75</ele><time>2026-05-03T16:16:18.296Z</time></trkpt><trkpt lat="44.835703" lon="7.3768194"><ele>311.0</ele><time>2026-05-03T16:16:19.296Z</time></trkpt><trkpt lat="44.8357202" lon="7.3766618"><ele>311.0</ele><time>2026-05-03T16:16:20.295Z</time></trkpt><trkpt lat="44.8357418" lon="7.3765254"><ele>311.0</ele><time>2026-05-03T16:16:21.295Z</time></trkpt><trkpt lat="44.8357774" lon="7.3763825"><ele>311.0</ele><time>2026-05-03T16:16:22.296Z</time></trkpt><trkpt lat="44.8358116" lon="7.3762499"><ele>311.0</ele><time>2026-05-03T16:16:23.295Z</time></trkpt><trkpt lat="44.8358544" lon="7.3761149"><ele>311.0</ele><time>2026-05-03T16:16:24.295Z</time></trkpt><trkpt lat="44.8358914" lon="7.3760043"><ele>311.0</ele><time>2026-05-03T16:16:25.295Z</time></trkpt><trkpt lat="44.8359213" lon="7.3759054"><ele>311.0</ele><time>2026-05-03T16:16:26.295Z</time></trkpt><trkpt lat="44.8359671" lon="7.3757635"><ele>311.0</ele><time>2026-05-03T16:16:28.295Z</time></trkpt><trkpt lat="44.8359971" lon="7.3755919"><ele>311.0</ele><time>2026-05-03T16:16:30.296Z</time></trkpt><trkpt lat="44.8360187" lon="7.3754839"><ele>311.0</ele><time>2026-05-03T16:16:31.298Z</time></trkpt><trkpt lat="44.8360312" lon="7.3753681"><ele>311.83333333333337</ele><time>2026-05-03T16:16:32.296Z</time></trkpt><trkpt lat="44.8360429" lon="7.3752461"><ele>312.6666666666667</ele><time>2026-05-03T16:16:33.295Z</time></trkpt><trkpt lat="44.8360466" lon="7.3751212"><ele>313.5</ele><time>2026-05-03T16:16:34.295Z</time></trkpt><trkpt lat="44.8360513" lon="7.3750046"><ele>314.3333333333333</ele><time>2026-05-03T16:16:35.296Z</time></trkpt><trkpt lat="44.8360556" lon="7.3749108"><ele>315.16666666666663</ele><time>2026-05-03T16:16:36.296Z</time></trkpt><trkpt lat="44.8360798" lon="7.3748027"><ele>316.0</ele><time>2026-05-03T16:16:38.295Z</time></trkpt><trkpt lat="44.8361822" lon="7.3747161"><ele>316.0</ele><time>2026-05-03T16:16:40.296Z</time></trkpt><trkpt lat="44.8362627" lon="7.3746786"><ele>316.0</ele><time>2026-05-03T16:16:41.297Z</time></trkpt><trkpt lat="44.8363571" lon="7.3746454"><ele>316.0</ele><time>2026-05-03T16:16:42.295Z</time></trkpt><trkpt lat="44.8364516" lon="7.3746021"><ele>316.0</ele><time>2026-05-03T16:16:43.297Z</time></trkpt><trkpt lat="44.8365454" lon="7.3745548"><ele>316.0</ele><time>2026-05-03T16:16:44.297Z</time></trkpt><trkpt lat="44.8366231" lon="7.3745086"><ele>316.0</ele><time>2026-05-03T16:16:45.298Z</time></trkpt><trkpt lat="44.8366888" lon="7.3744584"><ele>316.0</ele><time>2026-05-03T16:16:46.295Z</time></trkpt><trkpt lat="44.8367927" lon="7.3743734"><ele>316.0</ele><time>2026-05-03T16:16:48.297Z</time></trkpt><trkpt lat="44.8368492" lon="7.3743273"><ele>316.0</ele><time>2026-05-03T16:16:49.298Z</time></trkpt><trkpt lat="44.8369149" lon="7.3742701"><ele>316.0</ele><time>2026-05-03T16:16:50.295Z</time></trkpt><trkpt lat="44.8369834" lon="7.3742169"><ele>316.0</ele><time>2026-05-03T16:16:51.296Z</time></trkpt><trkpt lat="44.8370416" lon="7.3741761"><ele>316.0</ele><time>2026-05-03T16:16:52.295Z</time></trkpt><trkpt lat="44.8371347" lon="7.3740696"><ele>316.0</ele><time>2026-05-03T16:16:54.296Z</time></trkpt><trkpt lat="44.8371909" lon="7.3740076"><ele>316.0</ele><time>2026-05-03T16:16:55.296Z</time></trkpt><trkpt lat="44.8372599" lon="7.3739513"><ele>316.0</ele><time>2026-05-03T16:16:56.297Z</time></trkpt><trkpt lat="44.8373347" lon="7.373904"><ele>316.0</ele><time>2026-05-03T16:16:57.296Z</time></trkpt><trkpt lat="44.8374054" lon="7.3738382"><ele>316.0</ele><time>2026-05-03T16:16:58.297Z</time></trkpt><trkpt lat="44.8374839" lon="7.3737728"><ele>316.0</ele><time>2026-05-03T16:16:59.295Z</time></trkpt><trkpt lat="44.8375763" lon="7.373733"><ele>316.0</ele><time>2026-05-03T16:17:00.296Z</time></trkpt><trkpt lat="44.8376666" lon="7.3736789"><ele>316.0</ele><time>2026-05-03T16:17:01.298Z</time></trkpt><trkpt lat="44.837753" lon="7.3736293"><ele>316.0</ele><time>2026-05-03T16:17:02.296Z</time></trkpt><trkpt lat="44.8378442" lon="7.3735908"><ele>316.0</ele><time>2026-05-03T16:17:03.297Z</time></trkpt><trkpt lat="44.837933" lon="7.3735561"><ele>316.2</ele><time>2026-05-03T16:17:04.295Z</time></trkpt><trkpt lat="44.8380162" lon="7.3735328"><ele>316.40000000000003</ele><time>2026-05-03T16:17:05.295Z</time></trkpt><trkpt lat="44.8380984" lon="7.3734871"><ele>316.6</ele><time>2026-05-03T16:17:06.295Z</time></trkpt><trkpt lat="44.8382067" lon="7.3734302"><ele>316.8</ele><time>2026-05-03T16:17:07.296Z</time></trkpt><trkpt lat="44.8383185" lon="7.373363"><ele>317.0</ele><time>2026-05-03T16:17:08.295Z</time></trkpt><trkpt lat="44.8384323" lon="7.373299"><ele>316.6</ele><time>2026-05-03T16:17:09.297Z</time></trkpt><trkpt lat="44.8385305" lon="7.3732382"><ele>316.2</ele><time>2026-05-03T16:17:10.298Z</time></trkpt><trkpt lat="44.8386196" lon="7.3731738"><ele>315.8</ele><time>2026-05-03T16:17:11.295Z</time></trkpt><trkpt lat="44.8386993" lon="7.3731283"><ele>315.4</ele><time>2026-05-03T16:17:12.295Z</time></trkpt><trkpt lat="44.8387735" lon="7.3730828"><ele>315.0</ele><time>2026-05-03T16:17:13.295Z</time></trkpt><trkpt lat="44.8388495" lon="7.3730352"><ele>315.6</ele><time>2026-05-03T16:17:14.295Z</time></trkpt><trkpt lat="44.8389189" lon="7.3729694"><ele>316.2</ele><time>2026-05-03T16:17:15.296Z</time></trkpt><trkpt lat="44.8389923" lon="7.3729219"><ele>316.8</ele><time>2026-05-03T16:17:16.297Z</time></trkpt><trkpt lat="44.8390671" lon="7.372848"><ele>317.4</ele><time>2026-05-03T16:17:17.296Z</time></trkpt><trkpt lat="44.8391444" lon="7.3727738"><ele>318.0</ele><time>2026-05-03T16:17:18.295Z</time></trkpt><trkpt lat="44.8392335" lon="7.3726974"><ele>317.6</ele><time>2026-05-03T16:17:19.295Z</time></trkpt><trkpt lat="44.8393148" lon="7.3726102"><ele>317.20000000000005</ele><time>2026-05-03T16:17:20.297Z</time></trkpt><trkpt lat="44.8393953" lon="7.3725251"><ele>316.8</ele><time>2026-05-03T16:17:21.296Z</time></trkpt><trkpt lat="44.8394646" lon="7.3724513"><ele>316.40000000000003</ele><time>2026-05-03T16:17:22.297Z</time></trkpt><trkpt lat="44.8395448" lon="7.372378"><ele>316.0</ele><time>2026-05-03T16:17:24.296Z</time></trkpt><trkpt lat="44.83955" lon="7.3722742"><ele>316.0</ele><time>2026-05-03T16:17:28.296Z</time></trkpt><trkpt lat="44.8394699" lon="7.3723582"><ele>316.0</ele><time>2026-05-03T16:17:30.296Z</time></trkpt><trkpt lat="44.8393998" lon="7.3724587"><ele>316.0</ele><time>2026-05-03T16:17:31.296Z</time></trkpt><trkpt lat="44.8393116" lon="7.3725563"><ele>316.0</ele><time>2026-05-03T16:17:32.296Z</time></trkpt><trkpt lat="44.8392228" lon="7.3726517"><ele>316.0</ele><time>2026-05-03T16:17:33.296Z</time></trkpt><trkpt lat="44.8391477" lon="7.3727283"><ele>315.8</ele><time>2026-05-03T16:17:34.295Z</time></trkpt><trkpt lat="44.8390874" lon="7.3728062"><ele>315.6</ele><time>2026-05-03T16:17:35.296Z</time></trkpt><trkpt lat="44.8390372" lon="7.3728827"><ele>315.4</ele><time>2026-05-03T16:17:36.295Z</time></trkpt><trkpt lat="44.8390082" lon="7.3729822"><ele>315.2</ele><time>2026-05-03T16:17:37.296Z</time></trkpt><trkpt lat="44.8389984" lon="7.3731095"><ele>315.0</ele><time>2026-05-03T16:17:38.296Z</time></trkpt><trkpt lat="44.8390122" lon="7.3732881"><ele>315.0</ele><time>2026-05-03T16:17:39.295Z</time></trkpt><trkpt lat="44.8390265" lon="7.3734975"><ele>315.0</ele><time>2026-05-03T16:17:40.295Z</time></trkpt><trkpt lat="44.8390331" lon="7.3737239"><ele>315.0</ele><time>2026-05-03T16:17:41.296Z</time></trkpt><trkpt lat="44.8390451" lon="7.3739619"><ele>314.6666666666667</ele><time>2026-05-03T16:17:42.295Z</time></trkpt><trkpt lat="44.8390584" lon="7.3742151"><ele>314.33333333333337</ele><time>2026-05-03T16:17:43.296Z</time></trkpt><trkpt lat="44.8390756" lon="7.3744677"><ele>314.0</ele><time>2026-05-03T16:17:44.295Z</time></trkpt><trkpt lat="44.8390903" lon="7.3747117"><ele>313.6666666666667</ele><time>2026-05-03T16:17:45.296Z</time></trkpt><trkpt lat="44.8391026" lon="7.3749389"><ele>313.3333333333333</ele><time>2026-05-03T16:17:46.295Z</time></trkpt><trkpt lat="44.8391194" lon="7.3751565"><ele>313.0</ele><time>2026-05-03T16:17:47.295Z</time></trkpt><trkpt lat="44.8391267" lon="7.375362"><ele>312.75</ele><time>2026-05-03T16:17:48.296Z</time></trkpt><trkpt lat="44.8391398" lon="7.3755587"><ele>312.5</ele><time>2026-05-03T16:17:49.296Z</time></trkpt><trkpt lat="44.8391466" lon="7.3757444"><ele>312.25</ele><time>2026-05-03T16:17:50.295Z</time></trkpt><trkpt lat="44.8391544" lon="7.3759242"><ele>312.0</ele><time>2026-05-03T16:17:51.295Z</time></trkpt><trkpt lat="44.8391816" lon="7.3760868"><ele>312.0</ele><time>2026-05-03T16:17:52.295Z</time></trkpt><trkpt lat="44.8392361" lon="7.3762436"><ele>312.0</ele><time>2026-05-03T16:17:53.295Z</time></trkpt><trkpt lat="44.8393118" lon="7.376387"><ele>312.0</ele><time>2026-05-03T16:17:54.295Z</time></trkpt><trkpt lat="44.8394026" lon="7.3765417"><ele>312.0</ele><time>2026-05-03T16:17:55.296Z</time></trkpt><trkpt lat="44.8394886" lon="7.3767096"><ele>312.0</ele><time>2026-05-03T16:17:56.296Z</time></trkpt><trkpt lat="44.8395607" lon="7.3768924"><ele>312.0</ele><time>2026-05-03T16:17:57.296Z</time></trkpt><trkpt lat="44.8396257" lon="7.3770805"><ele>312.0</ele><time>2026-05-03T16:17:58.295Z</time></trkpt><trkpt lat="44.8396846" lon="7.3772751"><ele>312.0</ele><time>2026-05-03T16:17:59.297Z</time></trkpt><trkpt lat="44.8397428" lon="7.3774864"><ele>312.0</ele><time>2026-05-03T16:18:00.296Z</time></trkpt><trkpt lat="44.83979" lon="7.377716"><ele>312.0</ele><time>2026-05-03T16:18:01.296Z</time></trkpt><trkpt lat="44.8398236" lon="7.3779597"><ele>312.0</ele><time>2026-05-03T16:18:02.295Z</time></trkpt><trkpt lat="44.8398481" lon="7.3781997"><ele>311.75</ele><time>2026-05-03T16:18:03.295Z</time></trkpt><trkpt lat="44.8398761" lon="7.3784181"><ele>311.5</ele><time>2026-05-03T16:18:04.296Z</time></trkpt><trkpt lat="44.839902" lon="7.3786159"><ele>311.25</ele><time>2026-05-03T16:18:05.295Z</time></trkpt><trkpt lat="44.8399248" lon="7.3788124"><ele>311.0</ele><time>2026-05-03T16:18:06.296Z</time></trkpt><trkpt lat="44.8399524" lon="7.3789901"><ele>311.0</ele><time>2026-05-03T16:18:07.296Z</time></trkpt><trkpt lat="44.839994" lon="7.3791546"><ele>311.0</ele><time>2026-05-03T16:18:08.295Z</time></trkpt><trkpt lat="44.8400628" lon="7.379306"><ele>311.0</ele><time>2026-05-03T16:18:09.296Z</time></trkpt><trkpt lat="44.8401659" lon="7.379441"><ele>311.0</ele><time>2026-05-03T16:18:10.295Z</time></trkpt><trkpt lat="44.8402911" lon="7.3795804"><ele>310.6666666666667</ele><time>2026-05-03T16:18:11.296Z</time></trkpt><trkpt lat="44.8404018" lon="7.3797305"><ele>310.3333333333333</ele><time>2026-05-03T16:18:12.296Z</time></trkpt><trkpt lat="44.8405056" lon="7.379913"><ele>310.0</ele><time>2026-05-03T16:18:13.296Z</time></trkpt><trkpt lat="44.8406029" lon="7.3801097"><ele>310.0</ele><time>2026-05-03T16:18:14.295Z</time></trkpt><trkpt lat="44.8406971" lon="7.3802956"><ele>310.0</ele><time>2026-05-03T16:18:15.295Z</time></trkpt><trkpt lat="44.8407889" lon="7.3804843"><ele>310.0</ele><time>2026-05-03T16:18:16.295Z</time></trkpt><trkpt lat="44.8408979" lon="7.3806402"><ele>309.3333333333333</ele><time>2026-05-03T16:18:17.296Z</time></trkpt><trkpt lat="44.8410253" lon="7.3807746"><ele>308.6666666666667</ele><time>2026-05-03T16:18:18.297Z</time></trkpt><trkpt lat="44.8411549" lon="7.3809099"><ele>308.0</ele><time>2026-05-03T16:18:19.296Z</time></trkpt><trkpt lat="44.8412894" lon="7.3810672"><ele>308.0</ele><time>2026-05-03T16:18:20.296Z</time></trkpt><trkpt lat="44.8414205" lon="7.3812322"><ele>308.0</ele><time>2026-05-03T16:18:21.296Z</time></trkpt><trkpt lat="44.8415461" lon="7.3813913"><ele>308.0</ele><time>2026-05-03T16:18:22.295Z</time></trkpt><trkpt lat="44.8416661" lon="7.3815526"><ele>308.33333333333337</ele><time>2026-05-03T16:18:23.296Z</time></trkpt><trkpt lat="44.8417832" lon="7.3817084"><ele>308.6666666666667</ele><time>2026-05-03T16:18:24.295Z</time></trkpt><trkpt lat="44.8419021" lon="7.381859"><ele>309.0</ele><time>2026-05-03T16:18:25.296Z</time></trkpt><trkpt lat="44.8420169" lon="7.3820133"><ele>309.3333333333333</ele><time>2026-05-03T16:18:26.296Z</time></trkpt><trkpt lat="44.8421356" lon="7.3821633"><ele>309.66666666666663</ele><time>2026-05-03T16:18:27.296Z</time></trkpt><trkpt lat="44.8422563" lon="7.3823037"><ele>310.0</ele><time>2026-05-03T16:18:28.296Z</time></trkpt><trkpt lat="44.8423775" lon="7.3824539"><ele>310.0</ele><time>2026-05-03T16:18:29.295Z</time></trkpt><trkpt lat="44.8425087" lon="7.3826035"><ele>310.0</ele><time>2026-05-03T16:18:30.297Z</time></trkpt><trkpt lat="44.842635" lon="7.3827542"><ele>310.0</ele><time>2026-05-03T16:18:31.295Z</time></trkpt><trkpt lat="44.8427501" lon="7.3828938"><ele>308.66666666666663</ele><time>2026-05-03T16:18:32.296Z</time></trkpt><trkpt lat="44.8428673" lon="7.3830357"><ele>307.3333333333333</ele><time>2026-05-03T16:18:33.296Z</time></trkpt><trkpt lat="44.8429902" lon="7.3831896"><ele>306.0</ele><time>2026-05-03T16:18:34.295Z</time></trkpt><trkpt lat="44.8431157" lon="7.3833551"><ele>306.0</ele><time>2026-05-03T16:18:35.295Z</time></trkpt><trkpt lat="44.8432451" lon="7.3835198"><ele>306.0</ele><time>2026-05-03T16:18:36.295Z</time></trkpt><trkpt lat="44.8433717" lon="7.3836854"><ele>306.0</ele><time>2026-05-03T16:18:37.296Z</time></trkpt><trkpt lat="44.8435007" lon="7.3838488"><ele>305.6666666666667</ele><time>2026-05-03T16:18:38.295Z</time></trkpt><trkpt lat="44.8436307" lon="7.3840108"><ele>305.33333333333337</ele><time>2026-05-03T16:18:39.297Z</time></trkpt><trkpt lat="44.8437614" lon="7.3841731"><ele>305.0</ele><time>2026-05-03T16:18:40.296Z</time></trkpt><trkpt lat="44.843883" lon="7.3843263"><ele>305.0</ele><time>2026-05-03T16:18:41.295Z</time></trkpt><trkpt lat="44.8440073" lon="7.3844841"><ele>305.0</ele><time>2026-05-03T16:18:42.295Z</time></trkpt><trkpt lat="44.8441306" lon="7.3846419"><ele>305.0</ele><time>2026-05-03T16:18:43.296Z</time></trkpt><trkpt lat="44.8442446" lon="7.3847932"><ele>306.0</ele><time>2026-05-03T16:18:44.296Z</time></trkpt><trkpt lat="44.8443538" lon="7.384924"><ele>307.0</ele><time>2026-05-03T16:18:45.295Z</time></trkpt><trkpt lat="44.8444525" lon="7.3850445"><ele>308.0</ele><time>2026-05-03T16:18:46.295Z</time></trkpt><trkpt lat="44.8445452" lon="7.3851704"><ele>309.0</ele><time>2026-05-03T16:18:47.295Z</time></trkpt><trkpt lat="44.8446318" lon="7.3852911"><ele>309.0</ele><time>2026-05-03T16:18:48.296Z</time></trkpt><trkpt lat="44.8447192" lon="7.3854143"><ele>309.0</ele><time>2026-05-03T16:18:49.295Z</time></trkpt><trkpt lat="44.8448071" lon="7.3855511"><ele>309.0</ele><time>2026-05-03T16:18:50.295Z</time></trkpt><trkpt lat="44.8448838" lon="7.3857135"><ele>309.0</ele><time>2026-05-03T16:18:51.295Z</time></trkpt><trkpt lat="44.8449502" lon="7.3858968"><ele>309.0</ele><time>2026-05-03T16:18:52.295Z</time></trkpt><trkpt lat="44.8450179" lon="7.3860861"><ele>309.0</ele><time>2026-05-03T16:18:53.296Z</time></trkpt><trkpt lat="44.8451088" lon="7.3862795"><ele>309.0</ele><time>2026-05-03T16:18:54.295Z</time></trkpt><trkpt lat="44.8452296" lon="7.3864792"><ele>308.3333333333333</ele><time>2026-05-03T16:18:55.296Z</time></trkpt><trkpt lat="44.8453503" lon="7.3866726"><ele>307.66666666666663</ele><time>2026-05-03T16:18:56.295Z</time></trkpt><trkpt lat="44.8454727" lon="7.3868748"><ele>307.0</ele><time>2026-05-03T16:18:57.296Z</time></trkpt><trkpt lat="44.8455855" lon="7.3870731"><ele>307.3333333333333</ele><time>2026-05-03T16:18:58.294Z</time></trkpt><trkpt lat="44.8457053" lon="7.387248"><ele>307.6666666666667</ele><time>2026-05-03T16:18:59.296Z</time></trkpt><trkpt lat="44.8458202" lon="7.3874075"><ele>308.0</ele><time>2026-05-03T16:19:00.297Z</time></trkpt><trkpt lat="44.8459284" lon="7.3875589"><ele>308.0</ele><time>2026-05-03T16:19:01.294Z</time></trkpt><trkpt lat="44.8460217" lon="7.3877193"><ele>308.0</ele><time>2026-05-03T16:19:02.297Z</time></trkpt><trkpt lat="44.8461014" lon="7.387887"><ele>308.0</ele><time>2026-05-03T16:19:03.295Z</time></trkpt><trkpt lat="44.8461909" lon="7.3880532"><ele>308.0</ele><time>2026-05-03T16:19:04.294Z</time></trkpt><trkpt lat="44.8462944" lon="7.3882017"><ele>308.33333333333337</ele><time>2026-05-03T16:19:05.296Z</time></trkpt><trkpt lat="44.8464121" lon="7.3883226"><ele>308.6666666666667</ele><time>2026-05-03T16:19:06.295Z</time></trkpt><trkpt lat="44.8465494" lon="7.3884129"><ele>309.0</ele><time>2026-05-03T16:19:07.296Z</time></trkpt><trkpt lat="44.8466942" lon="7.3884853"><ele>308.25</ele><time>2026-05-03T16:19:08.295Z</time></trkpt><trkpt lat="44.8468375" lon="7.3885585"><ele>307.5</ele><time>2026-05-03T16:19:09.296Z</time></trkpt><trkpt lat="44.846969" lon="7.3886244"><ele>306.75</ele><time>2026-05-03T16:19:10.294Z</time></trkpt><trkpt lat="44.8470943" lon="7.3886786"><ele>306.0</ele><time>2026-05-03T16:19:11.295Z</time></trkpt><trkpt lat="44.8472271" lon="7.3887379"><ele>306.0</ele><time>2026-05-03T16:19:12.296Z</time></trkpt><trkpt lat="44.8473594" lon="7.3888018"><ele>306.0</ele><time>2026-05-03T16:19:13.295Z</time></trkpt><trkpt lat="44.8474955" lon="7.3888559"><ele>306.0</ele><time>2026-05-03T16:19:14.296Z</time></trkpt><trkpt lat="44.847629" lon="7.3889162"><ele>306.0</ele><time>2026-05-03T16:19:15.295Z</time></trkpt><trkpt lat="44.8477563" lon="7.3889738"><ele>305.75</ele><time>2026-05-03T16:19:16.296Z</time></trkpt><trkpt lat="44.8478842" lon="7.3890276"><ele>305.5</ele><time>2026-05-03T16:19:17.295Z</time></trkpt><trkpt lat="44.8480133" lon="7.3890946"><ele>305.25</ele><time>2026-05-03T16:19:18.294Z</time></trkpt><trkpt lat="44.8481439" lon="7.3891841"><ele>305.0</ele><time>2026-05-03T16:19:19.295Z</time></trkpt><trkpt lat="44.848281" lon="7.3892981"><ele>305.0</ele><time>2026-05-03T16:19:20.296Z</time></trkpt><trkpt lat="44.8484046" lon="7.3894282"><ele>305.0</ele><time>2026-05-03T16:19:21.296Z</time></trkpt><trkpt lat="44.8485188" lon="7.3895649"><ele>305.0</ele><time>2026-05-03T16:19:22.294Z</time></trkpt><trkpt lat="44.8486306" lon="7.3897062"><ele>305.25</ele><time>2026-05-03T16:19:23.295Z</time></trkpt><trkpt lat="44.8487338" lon="7.3898635"><ele>305.5</ele><time>2026-05-03T16:19:24.296Z</time></trkpt><trkpt lat="44.8488153" lon="7.3900363"><ele>305.75</ele><time>2026-05-03T16:19:25.297Z</time></trkpt><trkpt lat="44.8488877" lon="7.390215"><ele>306.0</ele><time>2026-05-03T16:19:26.296Z</time></trkpt><trkpt lat="44.8489532" lon="7.3904014"><ele>305.25</ele><time>2026-05-03T16:19:27.294Z</time></trkpt><trkpt lat="44.8490124" lon="7.3905857"><ele>304.5</ele><time>2026-05-03T16:19:28.296Z</time></trkpt><trkpt lat="44.8490647" lon="7.3907581"><ele>303.75</ele><time>2026-05-03T16:19:29.297Z</time></trkpt><trkpt lat="44.8491156" lon="7.3909366"><ele>303.0</ele><time>2026-05-03T16:19:30.294Z</time></trkpt><trkpt lat="44.8491482" lon="7.3911108"><ele>303.0</ele><time>2026-05-03T16:19:31.295Z</time></trkpt><trkpt lat="44.8491593" lon="7.3913245"><ele>303.0</ele><time>2026-05-03T16:19:32.296Z</time></trkpt><trkpt lat="44.8491407" lon="7.3915456"><ele>303.0</ele><time>2026-05-03T16:19:33.294Z</time></trkpt><trkpt lat="44.8491076" lon="7.3917495"><ele>303.5</ele><time>2026-05-03T16:19:34.296Z</time></trkpt><trkpt lat="44.8490853" lon="7.3919475"><ele>304.0</ele><time>2026-05-03T16:19:35.295Z</time></trkpt><trkpt lat="44.8490774" lon="7.3921456"><ele>304.5</ele><time>2026-05-03T16:19:36.294Z</time></trkpt><trkpt lat="44.8490757" lon="7.3923463"><ele>305.0</ele><time>2026-05-03T16:19:37.295Z</time></trkpt><trkpt lat="44.8490781" lon="7.3925678"><ele>305.0</ele><time>2026-05-03T16:19:38.294Z</time></trkpt><trkpt lat="44.8490878" lon="7.3927674"><ele>305.0</ele><time>2026-05-03T16:19:39.296Z</time></trkpt><trkpt lat="44.8491028" lon="7.3929711"><ele>305.0</ele><time>2026-05-03T16:19:40.296Z</time></trkpt><trkpt lat="44.8491348" lon="7.3931734"><ele>305.0</ele><time>2026-05-03T16:19:41.295Z</time></trkpt><trkpt lat="44.849189" lon="7.3933579"><ele>304.75</ele><time>2026-05-03T16:19:42.296Z</time></trkpt><trkpt lat="44.849251" lon="7.3935417"><ele>304.5</ele><time>2026-05-03T16:19:43.295Z</time></trkpt><trkpt lat="44.849313" lon="7.3937156"><ele>304.25</ele><time>2026-05-03T16:19:44.295Z</time></trkpt><trkpt lat="44.8493735" lon="7.3938936"><ele>304.0</ele><time>2026-05-03T16:19:45.295Z</time></trkpt><trkpt lat="44.8494305" lon="7.3940744"><ele>304.0</ele><time>2026-05-03T16:19:46.296Z</time></trkpt><trkpt lat="44.8494708" lon="7.3942555"><ele>304.0</ele><time>2026-05-03T16:19:47.296Z</time></trkpt><trkpt lat="44.8495208" lon="7.3944429"><ele>304.0</ele><time>2026-05-03T16:19:48.296Z</time></trkpt><trkpt lat="44.8495612" lon="7.3946331"><ele>304.0</ele><time>2026-05-03T16:19:49.295Z</time></trkpt><trkpt lat="44.8495958" lon="7.3948235"><ele>303.75</ele><time>2026-05-03T16:19:50.295Z</time></trkpt><trkpt lat="44.8496272" lon="7.3950066"><ele>303.5</ele><time>2026-05-03T16:19:51.296Z</time></trkpt><trkpt lat="44.8496482" lon="7.3951848"><ele>303.25</ele><time>2026-05-03T16:19:52.294Z</time></trkpt><trkpt lat="44.849672" lon="7.3953657"><ele>303.0</ele><time>2026-05-03T16:19:53.294Z</time></trkpt><trkpt lat="44.849675" lon="7.3955534"><ele>303.0</ele><time>2026-05-03T16:19:54.294Z</time></trkpt><trkpt lat="44.8496711" lon="7.3957478"><ele>303.0</ele><time>2026-05-03T16:19:55.296Z</time></trkpt><trkpt lat="44.8496684" lon="7.3959273"><ele>303.0</ele><time>2026-05-03T16:19:56.294Z</time></trkpt><trkpt lat="44.8496708" lon="7.3961019"><ele>303.0</ele><time>2026-05-03T16:19:57.294Z</time></trkpt><trkpt lat="44.8496748" lon="7.3962519"><ele>302.8</ele><time>2026-05-03T16:19:58.295Z</time></trkpt><trkpt lat="44.8496831" lon="7.3963892"><ele>302.6</ele><time>2026-05-03T16:19:59.296Z</time></trkpt><trkpt lat="44.8496938" lon="7.3965163"><ele>302.4</ele><time>2026-05-03T16:20:00.294Z</time></trkpt><trkpt lat="44.8496986" lon="7.396646"><ele>302.2</ele><time>2026-05-03T16:20:01.294Z</time></trkpt><trkpt lat="44.8496843" lon="7.3967697"><ele>302.0</ele><time>2026-05-03T16:20:02.295Z</time></trkpt><trkpt lat="44.8496503" lon="7.3968911"><ele>302.0</ele><time>2026-05-03T16:20:03.296Z</time></trkpt><trkpt lat="44.849602" lon="7.3970015"><ele>302.0</ele><time>2026-05-03T16:20:04.294Z</time></trkpt><trkpt lat="44.8495564" lon="7.3971074"><ele>302.0</ele><time>2026-05-03T16:20:05.295Z</time></trkpt><trkpt lat="44.8495067" lon="7.397226"><ele>302.0</ele><time>2026-05-03T16:20:07.295Z</time></trkpt><trkpt lat="44.8494708" lon="7.3973074"><ele>302.0</ele><time>2026-05-03T16:20:10.294Z</time></trkpt><trkpt lat="44.8494166" lon="7.3974373"><ele>302.0</ele><time>2026-05-03T16:21:46.295Z</time></trkpt><trkpt lat="44.8493845" lon="7.3975542"><ele>302.0</ele><time>2026-05-03T16:21:47.295Z</time></trkpt><trkpt lat="44.8493414" lon="7.3976878"><ele>302.0</ele><time>2026-05-03T16:21:48.295Z</time></trkpt><trkpt lat="44.8492833" lon="7.3978996"><ele>302.0</ele><time>2026-05-03T16:21:49.296Z</time></trkpt><trkpt lat="44.8492356" lon="7.3981107"><ele>302.5</ele><time>2026-05-03T16:21:50.294Z</time></trkpt><trkpt lat="44.8491907" lon="7.3983182"><ele>303.0</ele><time>2026-05-03T16:21:51.295Z</time></trkpt><trkpt lat="44.8491506" lon="7.398514"><ele>303.5</ele><time>2026-05-03T16:21:52.295Z</time></trkpt><trkpt lat="44.8491162" lon="7.3987045"><ele>304.0</ele><time>2026-05-03T16:21:53.295Z</time></trkpt><trkpt lat="44.8490717" lon="7.3988983"><ele>304.0</ele><time>2026-05-03T16:21:54.295Z</time></trkpt><trkpt lat="44.8490379" lon="7.3990869"><ele>304.0</ele><time>2026-05-03T16:21:55.294Z</time></trkpt><trkpt lat="44.8489879" lon="7.3992568"><ele>304.0</ele><time>2026-05-03T16:21:56.294Z</time></trkpt><trkpt lat="44.8489357" lon="7.3994181"><ele>304.0</ele><time>2026-05-03T16:21:57.295Z</time></trkpt><trkpt lat="44.8488847" lon="7.3995646"><ele>303.66666666666663</ele><time>2026-05-03T16:21:58.294Z</time></trkpt><trkpt lat="44.8488354" lon="7.399689"><ele>303.3333333333333</ele><time>2026-05-03T16:21:59.294Z</time></trkpt><trkpt lat="44.8487855" lon="7.3997975"><ele>303.0</ele><time>2026-05-03T16:22:00.295Z</time></trkpt><trkpt lat="44.8487428" lon="7.3998987"><ele>302.6666666666667</ele><time>2026-05-03T16:22:01.295Z</time></trkpt><trkpt lat="44.8487053" lon="7.3999968"><ele>302.33333333333337</ele><time>2026-05-03T16:22:02.294Z</time></trkpt><trkpt lat="44.8486834" lon="7.4000877"><ele>302.0</ele><time>2026-05-03T16:22:03.295Z</time></trkpt><trkpt lat="44.8486702" lon="7.400202"><ele>302.0</ele><time>2026-05-03T16:22:05.295Z</time></trkpt><trkpt lat="44.8486651" lon="7.4003206"><ele>302.0</ele><time>2026-05-03T16:23:14.294Z</time></trkpt><trkpt lat="44.8486765" lon="7.4004369"><ele>302.0</ele><time>2026-05-03T16:23:15.294Z</time></trkpt><trkpt lat="44.8486859" lon="7.4006012"><ele>302.0</ele><time>2026-05-03T16:23:16.294Z</time></trkpt><trkpt lat="44.8487034" lon="7.4007938"><ele>302.0</ele><time>2026-05-03T16:23:17.294Z</time></trkpt><trkpt lat="44.8487338" lon="7.4010015"><ele>301.33333333333337</ele><time>2026-05-03T16:23:18.296Z</time></trkpt><trkpt lat="44.8487762" lon="7.401215"><ele>300.6666666666667</ele><time>2026-05-03T16:23:19.295Z</time></trkpt><trkpt lat="44.8488277" lon="7.4014398"><ele>300.0</ele><time>2026-05-03T16:23:20.294Z</time></trkpt><trkpt lat="44.8488842" lon="7.4016752"><ele>299.6666666666667</ele><time>2026-05-03T16:23:21.293Z</time></trkpt><trkpt lat="44.8489484" lon="7.4019049"><ele>299.33333333333337</ele><time>2026-05-03T16:23:22.294Z</time></trkpt><trkpt lat="44.8490031" lon="7.4021246"><ele>299.0</ele><time>2026-05-03T16:23:23.295Z</time></trkpt><trkpt lat="44.8490556" lon="7.4023326"><ele>299.0</ele><time>2026-05-03T16:23:24.294Z</time></trkpt><trkpt lat="44.8491114" lon="7.402554"><ele>299.0</ele><time>2026-05-03T16:23:25.295Z</time></trkpt><trkpt lat="44.8491669" lon="7.4027775"><ele>299.0</ele><time>2026-05-03T16:23:26.294Z</time></trkpt><trkpt lat="44.8492283" lon="7.4030046"><ele>299.0</ele><time>2026-05-03T16:23:27.294Z</time></trkpt><trkpt lat="44.8492897" lon="7.4032296"><ele>299.0</ele><time>2026-05-03T16:23:28.294Z</time></trkpt><trkpt lat="44.8493569" lon="7.4034547"><ele>299.0</ele><time>2026-05-03T16:23:29.294Z</time></trkpt><trkpt lat="44.849439" lon="7.4036805"><ele>298.33333333333337</ele><time>2026-05-03T16:23:30.294Z</time></trkpt><trkpt lat="44.8495298" lon="7.4038962"><ele>297.6666666666667</ele><time>2026-05-03T16:23:31.294Z</time></trkpt><trkpt lat="44.8496377" lon="7.4040971"><ele>297.0</ele><time>2026-05-03T16:23:32.294Z</time></trkpt><trkpt lat="44.8497533" lon="7.4042953"><ele>297.0</ele><time>2026-05-03T16:23:33.294Z</time></trkpt><trkpt lat="44.8498776" lon="7.4044777"><ele>297.0</ele><time>2026-05-03T16:23:34.293Z</time></trkpt><trkpt lat="44.8499939" lon="7.4046292"><ele>297.0</ele><time>2026-05-03T16:23:35.294Z</time></trkpt><trkpt lat="44.8501074" lon="7.4047652"><ele>297.5</ele><time>2026-05-03T16:23:36.295Z</time></trkpt><trkpt lat="44.8502172" lon="7.40489"><ele>298.0</ele><time>2026-05-03T16:23:37.293Z</time></trkpt><trkpt lat="44.850326" lon="7.4050083"><ele>298.5</ele><time>2026-05-03T16:23:38.295Z</time></trkpt><trkpt lat="44.8504162" lon="7.4051137"><ele>299.0</ele><time>2026-05-03T16:23:39.295Z</time></trkpt><trkpt lat="44.8504912" lon="7.4052181"><ele>299.0</ele><time>2026-05-03T16:23:40.294Z</time></trkpt><trkpt lat="44.8505515" lon="7.4053227"><ele>299.0</ele><time>2026-05-03T16:23:41.294Z</time></trkpt><trkpt lat="44.8506132" lon="7.4054239"><ele>299.0</ele><time>2026-05-03T16:23:42.294Z</time></trkpt><trkpt lat="44.8506786" lon="7.4054925"><ele>299.0</ele><time>2026-05-03T16:23:43.293Z</time></trkpt><trkpt lat="44.8507539" lon="7.4055211"><ele>299.0</ele><time>2026-05-03T16:23:44.293Z</time></trkpt><trkpt lat="44.8508304" lon="7.4055197"><ele>299.0</ele><time>2026-05-03T16:23:45.295Z</time></trkpt><trkpt lat="44.8509029" lon="7.4055103"><ele>299.0</ele><time>2026-05-03T16:23:46.296Z</time></trkpt><trkpt lat="44.851004" lon="7.4055229"><ele>299.0</ele><time>2026-05-03T16:23:48.294Z</time></trkpt><trkpt lat="44.851072" lon="7.4055126"><ele>299.0</ele><time>2026-05-03T16:23:57.293Z</time></trkpt><trkpt lat="44.8511436" lon="7.4055256"><ele>299.0</ele><time>2026-05-03T16:23:58.294Z</time></trkpt><trkpt lat="44.8512437" lon="7.4055414"><ele>299.0</ele><time>2026-05-03T16:23:59.295Z</time></trkpt><trkpt lat="44.8513615" lon="7.4055659"><ele>299.0</ele><time>2026-05-03T16:24:00.294Z</time></trkpt><trkpt lat="44.8514927" lon="7.40559"><ele>299.0</ele><time>2026-05-03T16:24:01.294Z</time></trkpt><trkpt lat="44.8516564" lon="7.405626"><ele>299.0</ele><time>2026-05-03T16:24:02.295Z</time></trkpt><trkpt lat="44.8518304" lon="7.4056563"><ele>299.0</ele><time>2026-05-03T16:24:03.294Z</time></trkpt><trkpt lat="44.8520194" lon="7.4056914"><ele>299.0</ele><time>2026-05-03T16:24:04.294Z</time></trkpt><trkpt lat="44.8522107" lon="7.4057234"><ele>299.0</ele><time>2026-05-03T16:24:05.294Z</time></trkpt><trkpt lat="44.8524203" lon="7.4057613"><ele>299.0</ele><time>2026-05-03T16:24:06.293Z</time></trkpt><trkpt lat="44.8526267" lon="7.4058038"><ele>299.0</ele><time>2026-05-03T16:24:07.296Z</time></trkpt><trkpt lat="44.8528366" lon="7.4058479"><ele>299.0</ele><time>2026-05-03T16:24:08.295Z</time></trkpt><trkpt lat="44.85304" lon="7.4058886"><ele>299.0</ele><time>2026-05-03T16:24:09.294Z</time></trkpt><trkpt lat="44.8532361" lon="7.405935"><ele>299.0</ele><time>2026-05-03T16:24:10.294Z</time></trkpt><trkpt lat="44.8534309" lon="7.405977"><ele>299.0</ele><time>2026-05-03T16:24:11.293Z</time></trkpt><trkpt lat="44.8536214" lon="7.4060205"><ele>299.0</ele><time>2026-05-03T16:24:12.294Z</time></trkpt><trkpt lat="44.8538171" lon="7.4060748"><ele>299.0</ele><time>2026-05-03T16:24:13.294Z</time></trkpt><trkpt lat="44.8540052" lon="7.4061269"><ele>299.0</ele><time>2026-05-03T16:24:14.295Z</time></trkpt><trkpt lat="44.8541957" lon="7.4061789"><ele>299.6666666666667</ele><time>2026-05-03T16:24:15.293Z</time></trkpt><trkpt lat="44.8543896" lon="7.4062297"><ele>300.3333333333333</ele><time>2026-05-03T16:24:16.293Z</time></trkpt><trkpt lat="44.8545784" lon="7.4062852"><ele>301.0</ele><time>2026-05-03T16:24:17.294Z</time></trkpt><trkpt lat="44.8547703" lon="7.4063415"><ele>301.0</ele><time>2026-05-03T16:24:18.295Z</time></trkpt><trkpt lat="44.854962" lon="7.4063969"><ele>301.0</ele><time>2026-05-03T16:24:19.295Z</time></trkpt><trkpt lat="44.8551531" lon="7.4064631"><ele>301.0</ele><time>2026-05-03T16:24:20.295Z</time></trkpt><trkpt lat="44.8553392" lon="7.4065252"><ele>301.0</ele><time>2026-05-03T16:24:21.293Z</time></trkpt><trkpt lat="44.855528" lon="7.4065871"><ele>301.0</ele><time>2026-05-03T16:24:22.295Z</time></trkpt><trkpt lat="44.8557172" lon="7.4066525"><ele>301.0</ele><time>2026-05-03T16:24:23.296Z</time></trkpt><trkpt lat="44.8559033" lon="7.4067331"><ele>301.0</ele><time>2026-05-03T16:24:24.295Z</time></trkpt><trkpt lat="44.8560962" lon="7.4068024"><ele>301.0</ele><time>2026-05-03T16:24:25.295Z</time></trkpt><trkpt lat="44.8562816" lon="7.40687"><ele>301.0</ele><time>2026-05-03T16:24:26.294Z</time></trkpt><trkpt lat="44.8564703" lon="7.4069436"><ele>301.0</ele><time>2026-05-03T16:24:27.294Z</time></trkpt><trkpt lat="44.8566503" lon="7.4070178"><ele>301.0</ele><time>2026-05-03T16:24:28.295Z</time></trkpt><trkpt lat="44.8568367" lon="7.4070929"><ele>301.0</ele><time>2026-05-03T16:24:29.293Z</time></trkpt><trkpt lat="44.8570251" lon="7.4071736"><ele>301.0</ele><time>2026-05-03T16:24:30.294Z</time></trkpt><trkpt lat="44.8572106" lon="7.4072561"><ele>301.0</ele><time>2026-05-03T16:24:31.293Z</time></trkpt><trkpt lat="44.857402" lon="7.4073415"><ele>301.0</ele><time>2026-05-03T16:24:32.293Z</time></trkpt><trkpt lat="44.857594" lon="7.4074204"><ele>300.66666666666663</ele><time>2026-05-03T16:24:33.293Z</time></trkpt><trkpt lat="44.8577843" lon="7.4075074"><ele>300.3333333333333</ele><time>2026-05-03T16:24:34.295Z</time></trkpt><trkpt lat="44.8579734" lon="7.4075933"><ele>300.0</ele><time>2026-05-03T16:24:35.294Z</time></trkpt><trkpt lat="44.8581623" lon="7.4076782"><ele>300.0</ele><time>2026-05-03T16:24:36.294Z</time></trkpt><trkpt lat="44.8583503" lon="7.4077631"><ele>300.0</ele><time>2026-05-03T16:24:37.295Z</time></trkpt><trkpt lat="44.8585404" lon="7.4078434"><ele>300.0</ele><time>2026-05-03T16:24:38.295Z</time></trkpt><trkpt lat="44.8587359" lon="7.4079252"><ele>299.6666666666667</ele><time>2026-05-03T16:24:39.294Z</time></trkpt><trkpt lat="44.8589304" lon="7.4080068"><ele>299.33333333333337</ele><time>2026-05-03T16:24:40.293Z</time></trkpt><trkpt lat="44.85912" lon="7.4080923"><ele>299.0</ele><time>2026-05-03T16:24:41.293Z</time></trkpt><trkpt lat="44.8593128" lon="7.4081772"><ele>299.0</ele><time>2026-05-03T16:24:42.293Z</time></trkpt><trkpt lat="44.8595024" lon="7.4082558"><ele>299.0</ele><time>2026-05-03T16:24:43.294Z</time></trkpt><trkpt lat="44.8596917" lon="7.4083338"><ele>299.0</ele><time>2026-05-03T16:24:44.294Z</time></trkpt><trkpt lat="44.8598845" lon="7.4084104"><ele>299.0</ele><time>2026-05-03T16:24:45.295Z</time></trkpt><trkpt lat="44.860079" lon="7.4084883"><ele>299.0</ele><time>2026-05-03T16:24:46.293Z</time></trkpt><trkpt lat="44.8602723" lon="7.4085681"><ele>299.0</ele><time>2026-05-03T16:24:47.293Z</time></trkpt><trkpt lat="44.8604654" lon="7.4086541"><ele>299.0</ele><time>2026-05-03T16:24:48.293Z</time></trkpt><trkpt lat="44.8606603" lon="7.4087389"><ele>299.0</ele><time>2026-05-03T16:24:49.293Z</time></trkpt><trkpt lat="44.8608495" lon="7.4088191"><ele>299.0</ele><time>2026-05-03T16:24:50.293Z</time></trkpt><trkpt lat="44.8610364" lon="7.408907"><ele>298.6666666666667</ele><time>2026-05-03T16:24:51.294Z</time></trkpt><trkpt lat="44.8612241" lon="7.4089997"><ele>298.3333333333333</ele><time>2026-05-03T16:24:52.293Z</time></trkpt><trkpt lat="44.8613998" lon="7.4090856"><ele>298.0</ele><time>2026-05-03T16:24:53.293Z</time></trkpt><trkpt lat="44.8615729" lon="7.4091746"><ele>298.0</ele><time>2026-05-03T16:24:54.293Z</time></trkpt><trkpt lat="44.8617516" lon="7.4092653"><ele>298.0</ele><time>2026-05-03T16:24:55.294Z</time></trkpt><trkpt lat="44.8619265" lon="7.4093568"><ele>298.0</ele><time>2026-05-03T16:24:56.295Z</time></trkpt><trkpt lat="44.8620998" lon="7.4094529"><ele>298.3333333333333</ele><time>2026-05-03T16:24:57.293Z</time></trkpt><trkpt lat="44.8622765" lon="7.4095585"><ele>298.6666666666667</ele><time>2026-05-03T16:24:58.293Z</time></trkpt><trkpt lat="44.8624512" lon="7.4096555"><ele>299.0</ele><time>2026-05-03T16:24:59.294Z</time></trkpt><trkpt lat="44.8626297" lon="7.4097564"><ele>299.33333333333337</ele><time>2026-05-03T16:25:00.294Z</time></trkpt><trkpt lat="44.862801" lon="7.4098616"><ele>299.6666666666667</ele><time>2026-05-03T16:25:01.293Z</time></trkpt><trkpt lat="44.8629735" lon="7.4099677"><ele>300.0</ele><time>2026-05-03T16:25:02.293Z</time></trkpt><trkpt lat="44.8631395" lon="7.4100861"><ele>300.0</ele><time>2026-05-03T16:25:03.294Z</time></trkpt><trkpt lat="44.863305" lon="7.4102057"><ele>300.0</ele><time>2026-05-03T16:25:04.294Z</time></trkpt><trkpt lat="44.8634786" lon="7.410324"><ele>300.0</ele><time>2026-05-03T16:25:05.294Z</time></trkpt><trkpt lat="44.863655" lon="7.4104498"><ele>300.0</ele><time>2026-05-03T16:25:06.293Z</time></trkpt><trkpt lat="44.8638241" lon="7.4105674"><ele>300.0</ele><time>2026-05-03T16:25:07.294Z</time></trkpt><trkpt lat="44.8639922" lon="7.4106936"><ele>300.0</ele><time>2026-05-03T16:25:08.293Z</time></trkpt><trkpt lat="44.8641602" lon="7.410817"><ele>299.6666666666667</ele><time>2026-05-03T16:25:09.293Z</time></trkpt><trkpt lat="44.8643219" lon="7.4109483"><ele>299.33333333333337</ele><time>2026-05-03T16:25:10.295Z</time></trkpt><trkpt lat="44.8644909" lon="7.4110805"><ele>299.0</ele><time>2026-05-03T16:25:11.294Z</time></trkpt><trkpt lat="44.8646588" lon="7.411228"><ele>299.33333333333337</ele><time>2026-05-03T16:25:12.294Z</time></trkpt><trkpt lat="44.8648252" lon="7.411359"><ele>299.6666666666667</ele><time>2026-05-03T16:25:13.294Z</time></trkpt><trkpt lat="44.8649998" lon="7.4115004"><ele>300.0</ele><time>2026-05-03T16:25:14.293Z</time></trkpt><trkpt lat="44.865165" lon="7.4116371"><ele>300.0</ele><time>2026-05-03T16:25:15.294Z</time></trkpt><trkpt lat="44.8653344" lon="7.411766"><ele>300.0</ele><time>2026-05-03T16:25:16.293Z</time></trkpt><trkpt lat="44.8655052" lon="7.4118952"><ele>300.0</ele><time>2026-05-03T16:25:17.293Z</time></trkpt><trkpt lat="44.8656731" lon="7.4120335"><ele>300.0</ele><time>2026-05-03T16:25:18.293Z</time></trkpt><trkpt lat="44.8658412" lon="7.4121702"><ele>300.0</ele><time>2026-05-03T16:25:19.294Z</time></trkpt><trkpt lat="44.8660117" lon="7.4122977"><ele>300.0</ele><time>2026-05-03T16:25:20.294Z</time></trkpt><trkpt lat="44.86617" lon="7.4124278"><ele>299.0</ele><time>2026-05-03T16:25:21.294Z</time></trkpt><trkpt lat="44.8663332" lon="7.4125445"><ele>298.0</ele><time>2026-05-03T16:25:22.294Z</time></trkpt><trkpt lat="44.8664964" lon="7.4126711"><ele>297.0</ele><time>2026-05-03T16:25:23.295Z</time></trkpt><trkpt lat="44.8666575" lon="7.4128022"><ele>297.6666666666667</ele><time>2026-05-03T16:25:24.293Z</time></trkpt><trkpt lat="44.8668269" lon="7.4129348"><ele>298.33333333333337</ele><time>2026-05-03T16:25:25.293Z</time></trkpt><trkpt lat="44.8670051" lon="7.4130679"><ele>299.0</ele><time>2026-05-03T16:25:26.293Z</time></trkpt><trkpt lat="44.867177" lon="7.4131975"><ele>299.0</ele><time>2026-05-03T16:25:27.293Z</time></trkpt><trkpt lat="44.86735" lon="7.4133237"><ele>299.0</ele><time>2026-05-03T16:25:28.293Z</time></trkpt><trkpt lat="44.8675167" lon="7.4134539"><ele>299.0</ele><time>2026-05-03T16:25:29.293Z</time></trkpt><trkpt lat="44.8676799" lon="7.41358"><ele>299.0</ele><time>2026-05-03T16:25:30.293Z</time></trkpt><trkpt lat="44.8678275" lon="7.4137042"><ele>299.0</ele><time>2026-05-03T16:25:31.294Z</time></trkpt><trkpt lat="44.8679713" lon="7.4138103"><ele>299.0</ele><time>2026-05-03T16:25:32.293Z</time></trkpt><trkpt lat="44.8681131" lon="7.41391"><ele>299.0</ele><time>2026-05-03T16:25:33.294Z</time></trkpt><trkpt lat="44.8682424" lon="7.4140058"><ele>299.0</ele><time>2026-05-03T16:25:34.293Z</time></trkpt><trkpt lat="44.868376" lon="7.4140749"><ele>299.0</ele><time>2026-05-03T16:25:35.294Z</time></trkpt><trkpt lat="44.8685033" lon="7.4141223"><ele>299.0</ele><time>2026-05-03T16:25:36.293Z</time></trkpt><trkpt lat="44.868634" lon="7.4141655"><ele>299.4</ele><time>2026-05-03T16:25:37.294Z</time></trkpt><trkpt lat="44.8687417" lon="7.4142089"><ele>299.79999999999995</ele><time>2026-05-03T16:25:38.294Z</time></trkpt><trkpt lat="44.8688409" lon="7.414253"><ele>300.20000000000005</ele><time>2026-05-03T16:25:39.294Z</time></trkpt><trkpt lat="44.8689256" lon="7.4143062"><ele>300.6</ele><time>2026-05-03T16:25:40.295Z</time></trkpt><trkpt lat="44.86899" lon="7.4143785"><ele>301.0</ele><time>2026-05-03T16:25:41.293Z</time></trkpt><trkpt lat="44.8690477" lon="7.414471"><ele>301.0</ele><time>2026-05-03T16:25:42.294Z</time></trkpt><trkpt lat="44.8691205" lon="7.4145498"><ele>301.0</ele><time>2026-05-03T16:25:43.294Z</time></trkpt><trkpt lat="44.8692027" lon="7.4146054"><ele>301.0</ele><time>2026-05-03T16:25:44.293Z</time></trkpt><trkpt lat="44.8692812" lon="7.4146011"><ele>301.0</ele><time>2026-05-03T16:25:45.294Z</time></trkpt><trkpt lat="44.8693544" lon="7.4145596"><ele>301.0</ele><time>2026-05-03T16:25:46.293Z</time></trkpt><trkpt lat="44.8694182" lon="7.4144873"><ele>301.0</ele><time>2026-05-03T16:25:47.294Z</time></trkpt><trkpt lat="44.8694708" lon="7.4143935"><ele>300.25</ele><time>2026-05-03T16:25:48.293Z</time></trkpt><trkpt lat="44.8695264" lon="7.4142874"><ele>299.5</ele><time>2026-05-03T16:25:49.293Z</time></trkpt><trkpt lat="44.8696088" lon="7.4141848"><ele>298.75</ele><time>2026-05-03T16:25:50.293Z</time></trkpt><trkpt lat="44.8697238" lon="7.4140892"><ele>298.0</ele><time>2026-05-03T16:25:51.293Z</time></trkpt><trkpt lat="44.8698526" lon="7.4139995"><ele>298.0</ele><time>2026-05-03T16:25:52.294Z</time></trkpt><trkpt lat="44.8699942" lon="7.4139311"><ele>298.0</ele><time>2026-05-03T16:25:53.294Z</time></trkpt><trkpt lat="44.8701381" lon="7.4138781"><ele>298.0</ele><time>2026-05-03T16:25:54.293Z</time></trkpt><trkpt lat="44.8702709" lon="7.4138498"><ele>298.0</ele><time>2026-05-03T16:25:55.295Z</time></trkpt><trkpt lat="44.870408" lon="7.4138359"><ele>298.0</ele><time>2026-05-03T16:25:56.294Z</time></trkpt><trkpt lat="44.8705536" lon="7.413848"><ele>298.0</ele><time>2026-05-03T16:25:57.294Z</time></trkpt><trkpt lat="44.8707035" lon="7.4138743"><ele>298.0</ele><time>2026-05-03T16:25:58.293Z</time></trkpt><trkpt lat="44.8708518" lon="7.4139257"><ele>298.0</ele><time>2026-05-03T16:25:59.293Z</time></trkpt><trkpt lat="44.8709965" lon="7.4139881"><ele>298.0</ele><time>2026-05-03T16:26:00.294Z</time></trkpt><trkpt lat="44.871134" lon="7.4140587"><ele>298.0</ele><time>2026-05-03T16:26:01.294Z</time></trkpt><trkpt lat="44.8712642" lon="7.4141348"><ele>298.0</ele><time>2026-05-03T16:26:02.293Z</time></trkpt><trkpt lat="44.871404" lon="7.4142102"><ele>298.0</ele><time>2026-05-03T16:26:03.294Z</time></trkpt><trkpt lat="44.8715375" lon="7.4142864"><ele>298.0</ele><time>2026-05-03T16:26:04.293Z</time></trkpt><trkpt lat="44.8716807" lon="7.4143508"><ele>298.0</ele><time>2026-05-03T16:26:05.294Z</time></trkpt><trkpt lat="44.871834" lon="7.4143993"><ele>298.0</ele><time>2026-05-03T16:26:06.294Z</time></trkpt><trkpt lat="44.8719906" lon="7.4144385"><ele>298.0</ele><time>2026-05-03T16:26:07.294Z</time></trkpt><trkpt lat="44.8721573" lon="7.4144811"><ele>298.0</ele><time>2026-05-03T16:26:08.295Z</time></trkpt><trkpt lat="44.87232" lon="7.41451"><ele>298.0</ele><time>2026-05-03T16:26:09.295Z</time></trkpt><trkpt lat="44.8724762" lon="7.4145369"><ele>298.0</ele><time>2026-05-03T16:26:10.294Z</time></trkpt><trkpt lat="44.8726359" lon="7.4145645"><ele>298.0</ele><time>2026-05-03T16:26:11.293Z</time></trkpt><trkpt lat="44.8727938" lon="7.4145937"><ele>298.0</ele><time>2026-05-03T16:26:12.295Z</time></trkpt><trkpt lat="44.8729544" lon="7.414629"><ele>298.0</ele><time>2026-05-03T16:26:13.293Z</time></trkpt><trkpt lat="44.8731063" lon="7.4146546"><ele>298.0</ele><time>2026-05-03T16:26:14.292Z</time></trkpt><trkpt lat="44.8732467" lon="7.4146802"><ele>298.0</ele><time>2026-05-03T16:26:15.293Z</time></trkpt><trkpt lat="44.8733782" lon="7.4147013"><ele>298.0</ele><time>2026-05-03T16:26:16.295Z</time></trkpt><trkpt lat="44.8734946" lon="7.414721"><ele>298.0</ele><time>2026-05-03T16:26:17.293Z</time></trkpt><trkpt lat="44.8735896" lon="7.4147471"><ele>298.0</ele><time>2026-05-03T16:26:18.294Z</time></trkpt><trkpt lat="44.8736687" lon="7.414755"><ele>298.0</ele><time>2026-05-03T16:26:19.294Z</time></trkpt><trkpt lat="44.8737619" lon="7.4147899"><ele>298.25</ele><time>2026-05-03T16:26:21.293Z</time></trkpt><trkpt lat="44.8738932" lon="7.4148535"><ele>298.5</ele><time>2026-05-03T16:26:23.294Z</time></trkpt><trkpt lat="44.8739893" lon="7.4148888"><ele>298.75</ele><time>2026-05-03T16:26:24.293Z</time></trkpt><trkpt lat="44.8741122" lon="7.4149377"><ele>299.0</ele><time>2026-05-03T16:26:25.293Z</time></trkpt><trkpt lat="44.8742481" lon="7.4149979"><ele>299.0</ele><time>2026-05-03T16:26:26.293Z</time></trkpt><trkpt lat="44.8743933" lon="7.4150682"><ele>299.0</ele><time>2026-05-03T16:26:27.293Z</time></trkpt><trkpt lat="44.8745528" lon="7.4151499"><ele>299.0</ele><time>2026-05-03T16:26:28.293Z</time></trkpt><trkpt lat="44.8747275" lon="7.4152478"><ele>299.0</ele><time>2026-05-03T16:26:29.295Z</time></trkpt><trkpt lat="44.8748919" lon="7.4153493"><ele>299.0</ele><time>2026-05-03T16:26:30.293Z</time></trkpt><trkpt lat="44.8750709" lon="7.4154557"><ele>299.0</ele><time>2026-05-03T16:26:31.293Z</time></trkpt><trkpt lat="44.8752496" lon="7.4155681"><ele>298.6666666666667</ele><time>2026-05-03T16:26:32.293Z</time></trkpt><trkpt lat="44.8754221" lon="7.4156729"><ele>298.3333333333333</ele><time>2026-05-03T16:26:33.294Z</time></trkpt><trkpt lat="44.8755805" lon="7.4157758"><ele>298.0</ele><time>2026-05-03T16:26:34.293Z</time></trkpt><trkpt lat="44.8757356" lon="7.4158781"><ele>298.0</ele><time>2026-05-03T16:26:35.294Z</time></trkpt><trkpt lat="44.8758916" lon="7.415975"><ele>298.0</ele><time>2026-05-03T16:26:36.294Z</time></trkpt><trkpt lat="44.8760543" lon="7.4160746"><ele>298.0</ele><time>2026-05-03T16:26:37.293Z</time></trkpt><trkpt lat="44.8762146" lon="7.4161714"><ele>297.66666666666663</ele><time>2026-05-03T16:26:38.294Z</time></trkpt><trkpt lat="44.876374" lon="7.4162661"><ele>297.3333333333333</ele><time>2026-05-03T16:26:39.294Z</time></trkpt><trkpt lat="44.8765267" lon="7.4163597"><ele>297.0</ele><time>2026-05-03T16:26:40.293Z</time></trkpt><trkpt lat="44.8766877" lon="7.4164516"><ele>297.3333333333333</ele><time>2026-05-03T16:26:41.294Z</time></trkpt><trkpt lat="44.8768474" lon="7.416555"><ele>297.66666666666663</ele><time>2026-05-03T16:26:42.294Z</time></trkpt><trkpt lat="44.8769993" lon="7.4166553"><ele>298.0</ele><time>2026-05-03T16:26:43.293Z</time></trkpt><trkpt lat="44.8771514" lon="7.4167534"><ele>298.0</ele><time>2026-05-03T16:26:44.294Z</time></trkpt><trkpt lat="44.8772973" lon="7.416855"><ele>298.0</ele><time>2026-05-03T16:26:45.293Z</time></trkpt><trkpt lat="44.8774549" lon="7.4169505"><ele>298.0</ele><time>2026-05-03T16:26:46.294Z</time></trkpt><trkpt lat="44.8776132" lon="7.4170475"><ele>298.0</ele><time>2026-05-03T16:26:47.294Z</time></trkpt><trkpt lat="44.877771" lon="7.4171485"><ele>298.0</ele><time>2026-05-03T16:26:48.292Z</time></trkpt><trkpt lat="44.8779296" lon="7.4172498"><ele>298.0</ele><time>2026-05-03T16:26:49.293Z</time></trkpt><trkpt lat="44.878089" lon="7.4173404"><ele>298.0</ele><time>2026-05-03T16:26:50.294Z</time></trkpt><trkpt lat="44.8782494" lon="7.4174419"><ele>298.0</ele><time>2026-05-03T16:26:51.293Z</time></trkpt><trkpt lat="44.8784134" lon="7.4175411"><ele>298.0</ele><time>2026-05-03T16:26:52.294Z</time></trkpt><trkpt lat="44.878575" lon="7.4176453"><ele>297.66666666666663</ele><time>2026-05-03T16:26:53.294Z</time></trkpt><trkpt lat="44.8787403" lon="7.4177456"><ele>297.3333333333333</ele><time>2026-05-03T16:26:54.293Z</time></trkpt><trkpt lat="44.8789025" lon="7.4178468"><ele>297.0</ele><time>2026-05-03T16:26:55.293Z</time></trkpt><trkpt lat="44.8790652" lon="7.4179443"><ele>296.6666666666667</ele><time>2026-05-03T16:26:56.293Z</time></trkpt><trkpt lat="44.8792328" lon="7.4180417"><ele>296.33333333333337</ele><time>2026-05-03T16:26:57.293Z</time></trkpt><trkpt lat="44.879397" lon="7.4181431"><ele>296.0</ele><time>2026-05-03T16:26:58.294Z</time></trkpt><trkpt lat="44.8795672" lon="7.4182517"><ele>296.0</ele><time>2026-05-03T16:26:59.294Z</time></trkpt><trkpt lat="44.8797313" lon="7.4183635"><ele>296.0</ele><time>2026-05-03T16:27:00.294Z</time></trkpt><trkpt lat="44.8798982" lon="7.4184729"><ele>296.0</ele><time>2026-05-03T16:27:01.293Z</time></trkpt><trkpt lat="44.8800681" lon="7.4185739"><ele>296.0</ele><time>2026-05-03T16:27:02.292Z</time></trkpt><trkpt lat="44.8802323" lon="7.4186771"><ele>296.0</ele><time>2026-05-03T16:27:03.293Z</time></trkpt><trkpt lat="44.8803967" lon="7.4187778"><ele>296.0</ele><time>2026-05-03T16:27:04.293Z</time></trkpt><trkpt lat="44.8805614" lon="7.4188789"><ele>296.0</ele><time>2026-05-03T16:27:05.292Z</time></trkpt><trkpt lat="44.8807328" lon="7.4189916"><ele>296.0</ele><time>2026-05-03T16:27:06.294Z</time></trkpt><trkpt lat="44.8809014" lon="7.41909"><ele>296.0</ele><time>2026-05-03T16:27:07.293Z</time></trkpt><trkpt lat="44.8810704" lon="7.4191964"><ele>296.33333333333337</ele><time>2026-05-03T16:27:08.294Z</time></trkpt><trkpt lat="44.881238" lon="7.4192966"><ele>296.6666666666667</ele><time>2026-05-03T16:27:09.293Z</time></trkpt><trkpt lat="44.8814034" lon="7.419397"><ele>297.0</ele><time>2026-05-03T16:27:10.292Z</time></trkpt><trkpt lat="44.8815674" lon="7.4195006"><ele>297.0</ele><time>2026-05-03T16:27:11.292Z</time></trkpt><trkpt lat="44.881738" lon="7.4196036"><ele>297.0</ele><time>2026-05-03T16:27:12.293Z</time></trkpt><trkpt lat="44.8819042" lon="7.4197058"><ele>297.0</ele><time>2026-05-03T16:27:13.294Z</time></trkpt><trkpt lat="44.8820747" lon="7.4198018"><ele>296.6666666666667</ele><time>2026-05-03T16:27:14.293Z</time></trkpt><trkpt lat="44.882247" lon="7.4199032"><ele>296.33333333333337</ele><time>2026-05-03T16:27:15.293Z</time></trkpt><trkpt lat="44.8824127" lon="7.4200077"><ele>296.0</ele><time>2026-05-03T16:27:16.293Z</time></trkpt><trkpt lat="44.8825836" lon="7.4201082"><ele>295.6666666666667</ele><time>2026-05-03T16:27:17.293Z</time></trkpt><trkpt lat="44.8827558" lon="7.4202117"><ele>295.3333333333333</ele><time>2026-05-03T16:27:18.294Z</time></trkpt><trkpt lat="44.8829264" lon="7.4203229"><ele>295.0</ele><time>2026-05-03T16:27:19.292Z</time></trkpt><trkpt lat="44.883097" lon="7.4204236"><ele>295.0</ele><time>2026-05-03T16:27:20.293Z</time></trkpt><trkpt lat="44.8832591" lon="7.4205317"><ele>295.0</ele><time>2026-05-03T16:27:21.293Z</time></trkpt><trkpt lat="44.8834196" lon="7.4206314"><ele>295.0</ele><time>2026-05-03T16:27:22.293Z</time></trkpt><trkpt lat="44.883587" lon="7.4207362"><ele>294.66666666666663</ele><time>2026-05-03T16:27:23.294Z</time></trkpt><trkpt lat="44.8837544" lon="7.4208385"><ele>294.3333333333333</ele><time>2026-05-03T16:27:24.293Z</time></trkpt><trkpt lat="44.8839176" lon="7.4209378"><ele>294.0</ele><time>2026-05-03T16:27:25.293Z</time></trkpt><trkpt lat="44.8840763" lon="7.4210396"><ele>294.0</ele><time>2026-05-03T16:27:26.293Z</time></trkpt><trkpt lat="44.8842337" lon="7.4211405"><ele>294.0</ele><time>2026-05-03T16:27:27.294Z</time></trkpt><trkpt lat="44.8843912" lon="7.4212398"><ele>294.0</ele><time>2026-05-03T16:27:28.293Z</time></trkpt><trkpt lat="44.8845516" lon="7.4213352"><ele>294.0</ele><time>2026-05-03T16:27:29.295Z</time></trkpt><trkpt lat="44.8847113" lon="7.4214273"><ele>294.0</ele><time>2026-05-03T16:27:30.294Z</time></trkpt><trkpt lat="44.8848688" lon="7.4215248"><ele>294.0</ele><time>2026-05-03T16:27:31.293Z</time></trkpt><trkpt lat="44.8850307" lon="7.4216226"><ele>294.3333333333333</ele><time>2026-05-03T16:27:32.293Z</time></trkpt><trkpt lat="44.8851832" lon="7.4217232"><ele>294.66666666666663</ele><time>2026-05-03T16:27:33.292Z</time></trkpt><trkpt lat="44.8853398" lon="7.4218157"><ele>295.0</ele><time>2026-05-03T16:27:34.293Z</time></trkpt><trkpt lat="44.8854969" lon="7.4219219"><ele>295.0</ele><time>2026-05-03T16:27:35.293Z</time></trkpt><trkpt lat="44.8856522" lon="7.4220242"><ele>295.0</ele><time>2026-05-03T16:27:36.293Z</time></trkpt><trkpt lat="44.8858106" lon="7.4221263"><ele>295.0</ele><time>2026-05-03T16:27:37.294Z</time></trkpt><trkpt lat="44.8859724" lon="7.4222254"><ele>294.3333333333333</ele><time>2026-05-03T16:27:38.293Z</time></trkpt><trkpt lat="44.8861357" lon="7.4223307"><ele>293.6666666666667</ele><time>2026-05-03T16:27:39.294Z</time></trkpt><trkpt lat="44.8862999" lon="7.4224309"><ele>293.0</ele><time>2026-05-03T16:27:40.293Z</time></trkpt><trkpt lat="44.8864651" lon="7.4225283"><ele>293.0</ele><time>2026-05-03T16:27:41.293Z</time></trkpt><trkpt lat="44.8866327" lon="7.4226277"><ele>293.0</ele><time>2026-05-03T16:27:42.293Z</time></trkpt><trkpt lat="44.8867955" lon="7.4227254"><ele>293.0</ele><time>2026-05-03T16:27:43.292Z</time></trkpt><trkpt lat="44.8869562" lon="7.4228235"><ele>293.33333333333337</ele><time>2026-05-03T16:27:44.293Z</time></trkpt><trkpt lat="44.8871138" lon="7.4229363"><ele>293.6666666666667</ele><time>2026-05-03T16:27:45.293Z</time></trkpt><trkpt lat="44.8872741" lon="7.4230413"><ele>294.0</ele><time>2026-05-03T16:27:46.292Z</time></trkpt><trkpt lat="44.8874339" lon="7.4231376"><ele>294.0</ele><time>2026-05-03T16:27:47.292Z</time></trkpt><trkpt lat="44.8875898" lon="7.4232286"><ele>294.0</ele><time>2026-05-03T16:27:48.294Z</time></trkpt><trkpt lat="44.8877379" lon="7.423321"><ele>294.0</ele><time>2026-05-03T16:27:49.293Z</time></trkpt><trkpt lat="44.8878873" lon="7.4234082"><ele>294.3333333333333</ele><time>2026-05-03T16:27:50.293Z</time></trkpt><trkpt lat="44.8880362" lon="7.4235024"><ele>294.66666666666663</ele><time>2026-05-03T16:27:51.292Z</time></trkpt><trkpt lat="44.8881834" lon="7.4235908"><ele>295.0</ele><time>2026-05-03T16:27:52.293Z</time></trkpt><trkpt lat="44.8883213" lon="7.4236747"><ele>294.75</ele><time>2026-05-03T16:27:53.294Z</time></trkpt><trkpt lat="44.8884526" lon="7.4237577"><ele>294.5</ele><time>2026-05-03T16:27:54.294Z</time></trkpt><trkpt lat="44.8885851" lon="7.4238445"><ele>294.25</ele><time>2026-05-03T16:27:55.293Z</time></trkpt><trkpt lat="44.8887117" lon="7.4239196"><ele>294.0</ele><time>2026-05-03T16:27:56.293Z</time></trkpt><trkpt lat="44.888831" lon="7.4239928"><ele>293.75</ele><time>2026-05-03T16:27:57.294Z</time></trkpt><trkpt lat="44.8889466" lon="7.4240664"><ele>293.5</ele><time>2026-05-03T16:27:58.294Z</time></trkpt><trkpt lat="44.8890574" lon="7.4241436"><ele>293.25</ele><time>2026-05-03T16:27:59.293Z</time></trkpt><trkpt lat="44.8891724" lon="7.4242187"><ele>293.0</ele><time>2026-05-03T16:28:00.292Z</time></trkpt><trkpt lat="44.889294" lon="7.4242872"><ele>292.5</ele><time>2026-05-03T16:28:01.293Z</time></trkpt><trkpt lat="44.88942" lon="7.4243585"><ele>292.0</ele><time>2026-05-03T16:28:02.294Z</time></trkpt><trkpt lat="44.8895523" lon="7.4244196"><ele>291.5</ele><time>2026-05-03T16:28:03.293Z</time></trkpt><trkpt lat="44.8896882" lon="7.4244689"><ele>291.0</ele><time>2026-05-03T16:28:04.292Z</time></trkpt><trkpt lat="44.8898345" lon="7.4244948"><ele>291.0</ele><time>2026-05-03T16:28:05.294Z</time></trkpt><trkpt lat="44.8899874" lon="7.4244939"><ele>291.0</ele><time>2026-05-03T16:28:06.293Z</time></trkpt><trkpt lat="44.8901512" lon="7.4244697"><ele>291.0</ele><time>2026-05-03T16:28:07.293Z</time></trkpt><trkpt lat="44.8903157" lon="7.4244439"><ele>291.3333333333333</ele><time>2026-05-03T16:28:08.292Z</time></trkpt><trkpt lat="44.890482" lon="7.4244148"><ele>291.66666666666663</ele><time>2026-05-03T16:28:09.292Z</time></trkpt><trkpt lat="44.8906473" lon="7.4243816"><ele>292.0</ele><time>2026-05-03T16:28:10.293Z</time></trkpt><trkpt lat="44.8908201" lon="7.4243394"><ele>291.66666666666663</ele><time>2026-05-03T16:28:11.292Z</time></trkpt><trkpt lat="44.8909856" lon="7.4243029"><ele>291.3333333333333</ele><time>2026-05-03T16:28:12.293Z</time></trkpt><trkpt lat="44.8911538" lon="7.4242681"><ele>291.0</ele><time>2026-05-03T16:28:13.293Z</time></trkpt><trkpt lat="44.8913195" lon="7.4242327"><ele>291.0</ele><time>2026-05-03T16:28:14.292Z</time></trkpt><trkpt lat="44.8914862" lon="7.4241928"><ele>291.0</ele><time>2026-05-03T16:28:15.294Z</time></trkpt><trkpt lat="44.8916468" lon="7.4241549"><ele>291.0</ele><time>2026-05-03T16:28:16.294Z</time></trkpt><trkpt lat="44.8918095" lon="7.4241198"><ele>290.6666666666667</ele><time>2026-05-03T16:28:17.293Z</time></trkpt><trkpt lat="44.8919713" lon="7.424073"><ele>290.33333333333337</ele><time>2026-05-03T16:28:18.292Z</time></trkpt><trkpt lat="44.8921311" lon="7.4240253"><ele>290.0</ele><time>2026-05-03T16:28:19.292Z</time></trkpt><trkpt lat="44.8922893" lon="7.4239733"><ele>290.0</ele><time>2026-05-03T16:28:20.293Z</time></trkpt><trkpt lat="44.8924413" lon="7.4239221"><ele>290.0</ele><time>2026-05-03T16:28:21.292Z</time></trkpt><trkpt lat="44.8925933" lon="7.423874"><ele>290.0</ele><time>2026-05-03T16:28:22.293Z</time></trkpt><trkpt lat="44.8927361" lon="7.4238306"><ele>290.25</ele><time>2026-05-03T16:28:23.292Z</time></trkpt><trkpt lat="44.8928696" lon="7.4237878"><ele>290.5</ele><time>2026-05-03T16:28:24.293Z</time></trkpt><trkpt lat="44.8930004" lon="7.4237503"><ele>290.75</ele><time>2026-05-03T16:28:25.293Z</time></trkpt><trkpt lat="44.8931291" lon="7.423708"><ele>291.0</ele><time>2026-05-03T16:28:26.294Z</time></trkpt><trkpt lat="44.8932553" lon="7.4236611"><ele>291.0</ele><time>2026-05-03T16:28:27.293Z</time></trkpt><trkpt lat="44.8933799" lon="7.4236079"><ele>291.0</ele><time>2026-05-03T16:28:28.292Z</time></trkpt><trkpt lat="44.8935034" lon="7.4235565"><ele>291.0</ele><time>2026-05-03T16:28:29.293Z</time></trkpt><trkpt lat="44.893643" lon="7.423516"><ele>291.0</ele><time>2026-05-03T16:28:30.294Z</time></trkpt><trkpt lat="44.8937992" lon="7.4234835"><ele>291.3333333333333</ele><time>2026-05-03T16:28:31.292Z</time></trkpt><trkpt lat="44.8939631" lon="7.4234632"><ele>291.66666666666663</ele><time>2026-05-03T16:28:32.294Z</time></trkpt><trkpt lat="44.8941373" lon="7.4234419"><ele>292.0</ele><time>2026-05-03T16:28:33.292Z</time></trkpt><trkpt lat="44.8943084" lon="7.4234149"><ele>291.3333333333333</ele><time>2026-05-03T16:28:34.294Z</time></trkpt><trkpt lat="44.8944866" lon="7.4233807"><ele>290.6666666666667</ele><time>2026-05-03T16:28:35.295Z</time></trkpt><trkpt lat="44.8946671" lon="7.4233473"><ele>290.0</ele><time>2026-05-03T16:28:36.292Z</time></trkpt><trkpt lat="44.8948467" lon="7.4233199"><ele>290.0</ele><time>2026-05-03T16:28:37.293Z</time></trkpt><trkpt lat="44.895025" lon="7.4232908"><ele>290.0</ele><time>2026-05-03T16:28:38.294Z</time></trkpt><trkpt lat="44.8952032" lon="7.42326"><ele>290.0</ele><time>2026-05-03T16:28:39.293Z</time></trkpt><trkpt lat="44.8953814" lon="7.4232313"><ele>289.33333333333337</ele><time>2026-05-03T16:28:40.294Z</time></trkpt><trkpt lat="44.8955621" lon="7.4231998"><ele>288.6666666666667</ele><time>2026-05-03T16:28:41.294Z</time></trkpt><trkpt lat="44.8957421" lon="7.4231665"><ele>288.0</ele><time>2026-05-03T16:28:42.294Z</time></trkpt><trkpt lat="44.8959251" lon="7.4231361"><ele>287.6666666666667</ele><time>2026-05-03T16:28:43.292Z</time></trkpt><trkpt lat="44.8961068" lon="7.4231154"><ele>287.33333333333337</ele><time>2026-05-03T16:28:44.293Z</time></trkpt><trkpt lat="44.896286" lon="7.4230911"><ele>287.0</ele><time>2026-05-03T16:28:45.294Z</time></trkpt><trkpt lat="44.8964645" lon="7.4230582"><ele>287.0</ele><time>2026-05-03T16:28:46.292Z</time></trkpt><trkpt lat="44.8966431" lon="7.4230344"><ele>287.0</ele><time>2026-05-03T16:28:47.293Z</time></trkpt><trkpt lat="44.8968195" lon="7.4230144"><ele>287.0</ele><time>2026-05-03T16:28:48.293Z</time></trkpt><trkpt lat="44.8969983" lon="7.4229829"><ele>287.6666666666667</ele><time>2026-05-03T16:28:49.292Z</time></trkpt><trkpt lat="44.8971712" lon="7.4229548"><ele>288.3333333333333</ele><time>2026-05-03T16:28:50.292Z</time></trkpt><trkpt lat="44.8973424" lon="7.4229226"><ele>289.0</ele><time>2026-05-03T16:28:51.293Z</time></trkpt><trkpt lat="44.8975172" lon="7.4228919"><ele>289.0</ele><time>2026-05-03T16:28:52.292Z</time></trkpt><trkpt lat="44.8976903" lon="7.4228684"><ele>289.0</ele><time>2026-05-03T16:28:53.292Z</time></trkpt><trkpt lat="44.8978619" lon="7.4228406"><ele>289.0</ele><time>2026-05-03T16:28:54.294Z</time></trkpt><trkpt lat="44.8980292" lon="7.4228152"><ele>289.0</ele><time>2026-05-03T16:28:55.294Z</time></trkpt><trkpt lat="44.8981978" lon="7.4227856"><ele>289.0</ele><time>2026-05-03T16:28:56.293Z</time></trkpt><trkpt lat="44.8983697" lon="7.4227555"><ele>289.0</ele><time>2026-05-03T16:28:57.293Z</time></trkpt><trkpt lat="44.8985405" lon="7.4227313"><ele>288.66666666666663</ele><time>2026-05-03T16:28:58.294Z</time></trkpt><trkpt lat="44.8987113" lon="7.422702"><ele>288.3333333333333</ele><time>2026-05-03T16:28:59.293Z</time></trkpt><trkpt lat="44.898883" lon="7.4226733"><ele>288.0</ele><time>2026-05-03T16:29:00.294Z</time></trkpt><trkpt lat="44.8990562" lon="7.4226466"><ele>288.0</ele><time>2026-05-03T16:29:01.293Z</time></trkpt><trkpt lat="44.8992322" lon="7.4226174"><ele>288.0</ele><time>2026-05-03T16:29:02.293Z</time></trkpt><trkpt lat="44.8994054" lon="7.4225915"><ele>288.0</ele><time>2026-05-03T16:29:03.294Z</time></trkpt><trkpt lat="44.8995788" lon="7.4225603"><ele>288.0</ele><time>2026-05-03T16:29:04.293Z</time></trkpt><trkpt lat="44.8997508" lon="7.4225304"><ele>288.0</ele><time>2026-05-03T16:29:05.292Z</time></trkpt><trkpt lat="44.8999155" lon="7.4225078"><ele>288.0</ele><time>2026-05-03T16:29:06.293Z</time></trkpt><trkpt lat="44.9000729" lon="7.4224845"><ele>288.5</ele><time>2026-05-03T16:29:07.292Z</time></trkpt><trkpt lat="44.9002231" lon="7.4224621"><ele>289.0</ele><time>2026-05-03T16:29:08.293Z</time></trkpt><trkpt lat="44.9003691" lon="7.422437"><ele>289.5</ele><time>2026-05-03T16:29:09.293Z</time></trkpt><trkpt lat="44.9005179" lon="7.4224172"><ele>290.0</ele><time>2026-05-03T16:29:10.292Z</time></trkpt><trkpt lat="44.9006651" lon="7.4223964"><ele>290.0</ele><time>2026-05-03T16:29:11.293Z</time></trkpt><trkpt lat="44.900796" lon="7.4223782"><ele>290.0</ele><time>2026-05-03T16:29:12.292Z</time></trkpt><trkpt lat="44.9009241" lon="7.4223573"><ele>290.0</ele><time>2026-05-03T16:29:13.292Z</time></trkpt><trkpt lat="44.901041" lon="7.4223352"><ele>290.0</ele><time>2026-05-03T16:29:14.293Z</time></trkpt><trkpt lat="44.9011413" lon="7.4223176"><ele>289.6666666666667</ele><time>2026-05-03T16:29:15.292Z</time></trkpt><trkpt lat="44.9012227" lon="7.4223036"><ele>289.33333333333337</ele><time>2026-05-03T16:29:16.292Z</time></trkpt><trkpt lat="44.9012863" lon="7.4222882"><ele>289.0</ele><time>2026-05-03T16:29:17.293Z</time></trkpt><trkpt lat="44.9013682" lon="7.4222802"><ele>288.6666666666667</ele><time>2026-05-03T16:29:19.293Z</time></trkpt><trkpt lat="44.9014342" lon="7.4223358"><ele>288.3333333333333</ele><time>2026-05-03T16:29:21.292Z</time></trkpt><trkpt lat="44.9014961" lon="7.4225162"><ele>288.0</ele><time>2026-05-03T16:29:23.292Z</time></trkpt><trkpt lat="44.9015327" lon="7.4226575"><ele>288.0</ele><time>2026-05-03T16:29:24.293Z</time></trkpt><trkpt lat="44.9015748" lon="7.4228199"><ele>288.0</ele><time>2026-05-03T16:29:25.293Z</time></trkpt><trkpt lat="44.9016262" lon="7.4230074"><ele>288.0</ele><time>2026-05-03T16:29:26.294Z</time></trkpt><trkpt lat="44.901684" lon="7.423215"><ele>288.0</ele><time>2026-05-03T16:29:27.293Z</time></trkpt><trkpt lat="44.9017429" lon="7.4234425"><ele>287.6666666666667</ele><time>2026-05-03T16:29:28.294Z</time></trkpt><trkpt lat="44.9018062" lon="7.4236721"><ele>287.33333333333337</ele><time>2026-05-03T16:29:29.292Z</time></trkpt><trkpt lat="44.9018763" lon="7.4239223"><ele>287.0</ele><time>2026-05-03T16:29:30.294Z</time></trkpt><trkpt lat="44.9019439" lon="7.4241642"><ele>287.0</ele><time>2026-05-03T16:29:31.293Z</time></trkpt><trkpt lat="44.9020102" lon="7.424409"><ele>287.0</ele><time>2026-05-03T16:29:32.292Z</time></trkpt><trkpt lat="44.9020796" lon="7.4246598"><ele>287.0</ele><time>2026-05-03T16:29:33.292Z</time></trkpt><trkpt lat="44.9021481" lon="7.424902"><ele>287.0</ele><time>2026-05-03T16:29:34.293Z</time></trkpt><trkpt lat="44.9022125" lon="7.4251304"><ele>287.0</ele><time>2026-05-03T16:29:35.292Z</time></trkpt><trkpt lat="44.9022734" lon="7.4253629"><ele>287.0</ele><time>2026-05-03T16:29:36.293Z</time></trkpt><trkpt lat="44.9023348" lon="7.4255915"><ele>287.0</ele><time>2026-05-03T16:29:37.293Z</time></trkpt><trkpt lat="44.9023967" lon="7.4258159"><ele>287.0</ele><time>2026-05-03T16:29:38.293Z</time></trkpt><trkpt lat="44.902454" lon="7.4260427"><ele>287.0</ele><time>2026-05-03T16:29:39.292Z</time></trkpt><trkpt lat="44.9025143" lon="7.4262656"><ele>287.33333333333337</ele><time>2026-05-03T16:29:40.293Z</time></trkpt><trkpt lat="44.9025754" lon="7.4264872"><ele>287.6666666666667</ele><time>2026-05-03T16:29:41.293Z</time></trkpt><trkpt lat="44.9026391" lon="7.4267126"><ele>288.0</ele><time>2026-05-03T16:29:42.293Z</time></trkpt><trkpt lat="44.9027058" lon="7.4269402"><ele>286.6666666666667</ele><time>2026-05-03T16:29:43.293Z</time></trkpt><trkpt lat="44.9027687" lon="7.4271704"><ele>285.33333333333337</ele><time>2026-05-03T16:29:44.295Z</time></trkpt><trkpt lat="44.9028288" lon="7.4273949"><ele>284.0</ele><time>2026-05-03T16:29:45.292Z</time></trkpt><trkpt lat="44.9028891" lon="7.4276187"><ele>284.0</ele><time>2026-05-03T16:29:46.292Z</time></trkpt><trkpt lat="44.902952" lon="7.4278428"><ele>284.0</ele><time>2026-05-03T16:29:47.292Z</time></trkpt><trkpt lat="44.9030068" lon="7.428061"><ele>284.0</ele><time>2026-05-03T16:29:48.293Z</time></trkpt><trkpt lat="44.9030694" lon="7.4282836"><ele>283.6666666666667</ele><time>2026-05-03T16:29:49.293Z</time></trkpt><trkpt lat="44.903135" lon="7.4285066"><ele>283.3333333333333</ele><time>2026-05-03T16:29:50.294Z</time></trkpt><trkpt lat="44.9032012" lon="7.428738"><ele>283.0</ele><time>2026-05-03T16:29:51.292Z</time></trkpt><trkpt lat="44.9032627" lon="7.4289648"><ele>283.0</ele><time>2026-05-03T16:29:52.292Z</time></trkpt><trkpt lat="44.9033275" lon="7.4291939"><ele>283.0</ele><time>2026-05-03T16:29:53.294Z</time></trkpt><trkpt lat="44.9033904" lon="7.4294232"><ele>283.0</ele><time>2026-05-03T16:29:54.293Z</time></trkpt><trkpt lat="44.9034544" lon="7.4296564"><ele>283.66666666666663</ele><time>2026-05-03T16:29:55.293Z</time></trkpt><trkpt lat="44.9035211" lon="7.4298853"><ele>284.3333333333333</ele><time>2026-05-03T16:29:56.295Z</time></trkpt><trkpt lat="44.9035908" lon="7.4301059"><ele>285.0</ele><time>2026-05-03T16:29:57.293Z</time></trkpt><trkpt lat="44.9036495" lon="7.4303338"><ele>285.0</ele><time>2026-05-03T16:29:58.293Z</time></trkpt><trkpt lat="44.9037109" lon="7.4305637"><ele>285.0</ele><time>2026-05-03T16:29:59.293Z</time></trkpt><trkpt lat="44.9037726" lon="7.4307885"><ele>285.0</ele><time>2026-05-03T16:30:00.292Z</time></trkpt><trkpt lat="44.9038324" lon="7.4310156"><ele>285.0</ele><time>2026-05-03T16:30:01.293Z</time></trkpt><trkpt lat="44.9038954" lon="7.4312417"><ele>285.0</ele><time>2026-05-03T16:30:02.293Z</time></trkpt><trkpt lat="44.9039554" lon="7.4314722"><ele>285.0</ele><time>2026-05-03T16:30:03.292Z</time></trkpt><trkpt lat="44.9040221" lon="7.4317005"><ele>285.0</ele><time>2026-05-03T16:30:04.292Z</time></trkpt><trkpt lat="44.9040864" lon="7.4319287"><ele>285.0</ele><time>2026-05-03T16:30:05.293Z</time></trkpt><trkpt lat="44.9041476" lon="7.432142"><ele>285.0</ele><time>2026-05-03T16:30:06.293Z</time></trkpt><trkpt lat="44.90421" lon="7.4323478"><ele>283.6666666666667</ele><time>2026-05-03T16:30:07.293Z</time></trkpt><trkpt lat="44.9042659" lon="7.4325583"><ele>282.33333333333337</ele><time>2026-05-03T16:30:08.292Z</time></trkpt><trkpt lat="44.9043244" lon="7.4327676"><ele>281.0</ele><time>2026-05-03T16:30:09.293Z</time></trkpt><trkpt lat="44.9043781" lon="7.4329741"><ele>281.0</ele><time>2026-05-03T16:30:10.292Z</time></trkpt><trkpt lat="44.9044299" lon="7.4331672"><ele>281.0</ele><time>2026-05-03T16:30:11.292Z</time></trkpt><trkpt lat="44.9044812" lon="7.4333604"><ele>281.0</ele><time>2026-05-03T16:30:12.294Z</time></trkpt><trkpt lat="44.9045321" lon="7.4335465"><ele>281.0</ele><time>2026-05-03T16:30:13.292Z</time></trkpt><trkpt lat="44.9045836" lon="7.4337287"><ele>282.0</ele><time>2026-05-03T16:30:14.292Z</time></trkpt><trkpt lat="44.9046321" lon="7.4339123"><ele>283.0</ele><time>2026-05-03T16:30:15.292Z</time></trkpt><trkpt lat="44.9046802" lon="7.4340855"><ele>284.0</ele><time>2026-05-03T16:30:16.292Z</time></trkpt><trkpt lat="44.9047244" lon="7.4342571"><ele>285.0</ele><time>2026-05-03T16:30:17.293Z</time></trkpt><trkpt lat="44.9047664" lon="7.4344145"><ele>285.0</ele><time>2026-05-03T16:30:18.292Z</time></trkpt><trkpt lat="44.9048114" lon="7.4345663"><ele>285.0</ele><time>2026-05-03T16:30:19.292Z</time></trkpt><trkpt lat="44.9048515" lon="7.4347093"><ele>285.0</ele><time>2026-05-03T16:30:20.293Z</time></trkpt><trkpt lat="44.9048866" lon="7.4348307"><ele>285.0</ele><time>2026-05-03T16:30:21.294Z</time></trkpt><trkpt lat="44.904912" lon="7.4349397"><ele>285.0</ele><time>2026-05-03T16:30:22.293Z</time></trkpt><trkpt lat="44.9049427" lon="7.4350441"><ele>284.8333333333333</ele><time>2026-05-03T16:30:23.292Z</time></trkpt><trkpt lat="44.9049676" lon="7.4351407"><ele>284.6666666666667</ele><time>2026-05-03T16:30:24.293Z</time></trkpt><trkpt lat="44.905007" lon="7.4352827"><ele>284.5</ele><time>2026-05-03T16:30:26.292Z</time></trkpt><trkpt lat="44.9050241" lon="7.4354001"><ele>284.33333333333337</ele><time>2026-05-03T16:30:29.293Z</time></trkpt><trkpt lat="44.9050545" lon="7.4354964"><ele>284.1666666666667</ele><time>2026-05-03T16:30:32.293Z</time></trkpt><trkpt lat="44.9050837" lon="7.4356026"><ele>284.0</ele><time>2026-05-03T16:30:50.292Z</time></trkpt><trkpt lat="44.9051087" lon="7.4356867"><ele>283.75</ele><time>2026-05-03T16:30:52.293Z</time></trkpt><trkpt lat="44.9051604" lon="7.4357873"><ele>283.5</ele><time>2026-05-03T16:30:56.293Z</time></trkpt><trkpt lat="44.9053012" lon="7.4357393"><ele>283.25</ele><time>2026-05-03T16:30:58.293Z</time></trkpt><trkpt lat="44.9053903" lon="7.4356644"><ele>283.0</ele><time>2026-05-03T16:30:59.293Z</time></trkpt><trkpt lat="44.9055046" lon="7.435566"><ele>283.0</ele><time>2026-05-03T16:31:00.292Z</time></trkpt><trkpt lat="44.9056372" lon="7.4354727"><ele>283.0</ele><time>2026-05-03T16:31:01.291Z</time></trkpt><trkpt lat="44.9057879" lon="7.4353654"><ele>283.0</ele><time>2026-05-03T16:31:02.293Z</time></trkpt><trkpt lat="44.9059452" lon="7.4352429"><ele>282.0</ele><time>2026-05-03T16:31:03.293Z</time></trkpt><trkpt lat="44.9061132" lon="7.4351208"><ele>281.0</ele><time>2026-05-03T16:31:04.293Z</time></trkpt><trkpt lat="44.906279" lon="7.4350054"><ele>280.0</ele><time>2026-05-03T16:31:05.292Z</time></trkpt><trkpt lat="44.906444" lon="7.434885"><ele>280.0</ele><time>2026-05-03T16:31:06.293Z</time></trkpt><trkpt lat="44.9066063" lon="7.4347683"><ele>280.0</ele><time>2026-05-03T16:31:07.293Z</time></trkpt><trkpt lat="44.9067666" lon="7.4346431"><ele>280.0</ele><time>2026-05-03T16:31:08.292Z</time></trkpt><trkpt lat="44.9069271" lon="7.4345252"><ele>280.3333333333333</ele><time>2026-05-03T16:31:09.293Z</time></trkpt><trkpt lat="44.9070881" lon="7.4344106"><ele>280.6666666666667</ele><time>2026-05-03T16:31:10.292Z</time></trkpt><trkpt lat="44.9072473" lon="7.4342949"><ele>281.0</ele><time>2026-05-03T16:31:11.292Z</time></trkpt><trkpt lat="44.907402" lon="7.434187"><ele>281.0</ele><time>2026-05-03T16:31:12.293Z</time></trkpt><trkpt lat="44.9075507" lon="7.4340742"><ele>281.0</ele><time>2026-05-03T16:31:13.292Z</time></trkpt><trkpt lat="44.907698" lon="7.4339645"><ele>281.0</ele><time>2026-05-03T16:31:14.293Z</time></trkpt><trkpt lat="44.9078463" lon="7.433865"><ele>281.0</ele><time>2026-05-03T16:31:15.292Z</time></trkpt><trkpt lat="44.9079924" lon="7.4337614"><ele>281.0</ele><time>2026-05-03T16:31:16.292Z</time></trkpt><trkpt lat="44.9081414" lon="7.4336578"><ele>281.0</ele><time>2026-05-03T16:31:17.292Z</time></trkpt><trkpt lat="44.9082982" lon="7.4335404"><ele>281.33333333333337</ele><time>2026-05-03T16:31:18.292Z</time></trkpt><trkpt lat="44.9084614" lon="7.4334257"><ele>281.6666666666667</ele><time>2026-05-03T16:31:19.292Z</time></trkpt><trkpt lat="44.9086135" lon="7.4333082"><ele>282.0</ele><time>2026-05-03T16:31:20.292Z</time></trkpt><trkpt lat="44.9087661" lon="7.4331951"><ele>282.0</ele><time>2026-05-03T16:31:21.292Z</time></trkpt><trkpt lat="44.9089209" lon="7.4330756"><ele>282.0</ele><time>2026-05-03T16:31:22.292Z</time></trkpt><trkpt lat="44.9090764" lon="7.432964"><ele>282.0</ele><time>2026-05-03T16:31:23.294Z</time></trkpt><trkpt lat="44.9092346" lon="7.4328582"><ele>281.6666666666667</ele><time>2026-05-03T16:31:24.292Z</time></trkpt><trkpt lat="44.9093934" lon="7.4327463"><ele>281.33333333333337</ele><time>2026-05-03T16:31:25.293Z</time></trkpt><trkpt lat="44.9095478" lon="7.4326355"><ele>281.0</ele><time>2026-05-03T16:31:26.292Z</time></trkpt><trkpt lat="44.9097004" lon="7.4325258"><ele>281.0</ele><time>2026-05-03T16:31:27.292Z</time></trkpt><trkpt lat="44.9098541" lon="7.4324145"><ele>281.0</ele><time>2026-05-03T16:31:28.292Z</time></trkpt><trkpt lat="44.9100042" lon="7.432299"><ele>281.0</ele><time>2026-05-03T16:31:29.291Z</time></trkpt><trkpt lat="44.9101585" lon="7.4321791"><ele>280.6666666666667</ele><time>2026-05-03T16:31:30.291Z</time></trkpt><trkpt lat="44.9103079" lon="7.4320596"><ele>280.3333333333333</ele><time>2026-05-03T16:31:31.293Z</time></trkpt><trkpt lat="44.9104568" lon="7.4319307"><ele>280.0</ele><time>2026-05-03T16:31:32.292Z</time></trkpt><trkpt lat="44.9106025" lon="7.4317999"><ele>280.0</ele><time>2026-05-03T16:31:33.293Z</time></trkpt><trkpt lat="44.9107518" lon="7.4316679"><ele>280.0</ele><time>2026-05-03T16:31:34.292Z</time></trkpt><trkpt lat="44.9109001" lon="7.4315304"><ele>280.0</ele><time>2026-05-03T16:31:35.294Z</time></trkpt><trkpt lat="44.9110448" lon="7.4313877"><ele>281.0</ele><time>2026-05-03T16:31:36.292Z</time></trkpt><trkpt lat="44.9111889" lon="7.4312438"><ele>282.0</ele><time>2026-05-03T16:31:37.294Z</time></trkpt><trkpt lat="44.9113333" lon="7.4311011"><ele>283.0</ele><time>2026-05-03T16:31:38.293Z</time></trkpt><trkpt lat="44.9114756" lon="7.4309581"><ele>283.0</ele><time>2026-05-03T16:31:39.292Z</time></trkpt><trkpt lat="44.9116163" lon="7.4308187"><ele>283.0</ele><time>2026-05-03T16:31:40.292Z</time></trkpt><trkpt lat="44.9117578" lon="7.4306811"><ele>283.0</ele><time>2026-05-03T16:31:41.292Z</time></trkpt><trkpt lat="44.9118992" lon="7.4305444"><ele>283.0</ele><time>2026-05-03T16:31:42.293Z</time></trkpt><trkpt lat="44.9120322" lon="7.4304157"><ele>283.0</ele><time>2026-05-03T16:31:43.293Z</time></trkpt><trkpt lat="44.9121598" lon="7.4302927"><ele>283.0</ele><time>2026-05-03T16:31:44.293Z</time></trkpt><trkpt lat="44.9122866" lon="7.4301707"><ele>283.0</ele><time>2026-05-03T16:31:45.293Z</time></trkpt><trkpt lat="44.9124151" lon="7.430052"><ele>283.0</ele><time>2026-05-03T16:31:46.293Z</time></trkpt><trkpt lat="44.9125391" lon="7.4299361"><ele>283.0</ele><time>2026-05-03T16:31:47.293Z</time></trkpt><trkpt lat="44.9126597" lon="7.4298275"><ele>283.0</ele><time>2026-05-03T16:31:48.292Z</time></trkpt><trkpt lat="44.9127824" lon="7.4297205"><ele>283.75</ele><time>2026-05-03T16:31:49.292Z</time></trkpt><trkpt lat="44.9129026" lon="7.4296193"><ele>284.5</ele><time>2026-05-03T16:31:50.292Z</time></trkpt><trkpt lat="44.9130211" lon="7.42952"><ele>285.25</ele><time>2026-05-03T16:31:51.292Z</time></trkpt><trkpt lat="44.9131361" lon="7.4294258"><ele>286.0</ele><time>2026-05-03T16:31:52.292Z</time></trkpt><trkpt lat="44.9132419" lon="7.4293455"><ele>286.0</ele><time>2026-05-03T16:31:53.292Z</time></trkpt><trkpt lat="44.9133431" lon="7.4292719"><ele>286.0</ele><time>2026-05-03T16:31:54.292Z</time></trkpt><trkpt lat="44.9134535" lon="7.4292043"><ele>286.0</ele><time>2026-05-03T16:31:55.292Z</time></trkpt><trkpt lat="44.9135708" lon="7.4291377"><ele>286.0</ele><time>2026-05-03T16:31:56.291Z</time></trkpt><trkpt lat="44.9136972" lon="7.4290723"><ele>285.75</ele><time>2026-05-03T16:31:57.292Z</time></trkpt><trkpt lat="44.9138327" lon="7.4290062"><ele>285.5</ele><time>2026-05-03T16:31:58.291Z</time></trkpt><trkpt lat="44.9139731" lon="7.4289378"><ele>285.25</ele><time>2026-05-03T16:31:59.293Z</time></trkpt><trkpt lat="44.9141135" lon="7.4288687"><ele>285.0</ele><time>2026-05-03T16:32:00.293Z</time></trkpt><trkpt lat="44.9142552" lon="7.4288068"><ele>285.0</ele><time>2026-05-03T16:32:01.292Z</time></trkpt><trkpt lat="44.9143971" lon="7.428748"><ele>285.0</ele><time>2026-05-03T16:32:02.292Z</time></trkpt><trkpt lat="44.9145378" lon="7.4286926"><ele>285.0</ele><time>2026-05-03T16:32:03.292Z</time></trkpt><trkpt lat="44.9146712" lon="7.4286374"><ele>285.0</ele><time>2026-05-03T16:32:04.292Z</time></trkpt><trkpt lat="44.9147967" lon="7.428585"><ele>285.0</ele><time>2026-05-03T16:32:05.292Z</time></trkpt><trkpt lat="44.9149117" lon="7.428535"><ele>285.0</ele><time>2026-05-03T16:32:06.292Z</time></trkpt><trkpt lat="44.9150214" lon="7.4284821"><ele>285.0</ele><time>2026-05-03T16:32:07.291Z</time></trkpt><trkpt lat="44.9151344" lon="7.4284252"><ele>285.0</ele><time>2026-05-03T16:32:08.292Z</time></trkpt><trkpt lat="44.9152496" lon="7.4283686"><ele>285.25</ele><time>2026-05-03T16:32:09.291Z</time></trkpt><trkpt lat="44.9153699" lon="7.4283136"><ele>285.5</ele><time>2026-05-03T16:32:10.293Z</time></trkpt><trkpt lat="44.9154934" lon="7.4282364"><ele>285.75</ele><time>2026-05-03T16:32:11.294Z</time></trkpt><trkpt lat="44.9156174" lon="7.4281664"><ele>286.0</ele><time>2026-05-03T16:32:12.293Z</time></trkpt><trkpt lat="44.9157444" lon="7.4280901"><ele>286.0</ele><time>2026-05-03T16:32:13.293Z</time></trkpt><trkpt lat="44.9158722" lon="7.4280041"><ele>286.0</ele><time>2026-05-03T16:32:14.293Z</time></trkpt><trkpt lat="44.9160062" lon="7.4279237"><ele>286.0</ele><time>2026-05-03T16:32:15.293Z</time></trkpt><trkpt lat="44.9161399" lon="7.4278362"><ele>286.0</ele><time>2026-05-03T16:32:16.292Z</time></trkpt><trkpt lat="44.9162714" lon="7.4277445"><ele>286.0</ele><time>2026-05-03T16:32:17.292Z</time></trkpt><trkpt lat="44.9164038" lon="7.4276566"><ele>286.0</ele><time>2026-05-03T16:32:18.293Z</time></trkpt><trkpt lat="44.9165346" lon="7.4275691"><ele>286.0</ele><time>2026-05-03T16:32:19.292Z</time></trkpt><trkpt lat="44.9166503" lon="7.4275047"><ele>286.0</ele><time>2026-05-03T16:32:20.292Z</time></trkpt><trkpt lat="44.9167598" lon="7.4274387"><ele>286.0</ele><time>2026-05-03T16:32:21.292Z</time></trkpt><trkpt lat="44.9168634" lon="7.4273768"><ele>286.0</ele><time>2026-05-03T16:32:22.292Z</time></trkpt><trkpt lat="44.9169687" lon="7.4273153"><ele>286.0</ele><time>2026-05-03T16:32:23.293Z</time></trkpt><trkpt lat="44.9170719" lon="7.4272504"><ele>286.0</ele><time>2026-05-03T16:32:24.293Z</time></trkpt><trkpt lat="44.9171739" lon="7.4272007"><ele>286.0</ele><time>2026-05-03T16:32:25.292Z</time></trkpt><trkpt lat="44.9172753" lon="7.4271534"><ele>286.25</ele><time>2026-05-03T16:32:26.293Z</time></trkpt><trkpt lat="44.9173855" lon="7.4271017"><ele>286.5</ele><time>2026-05-03T16:32:27.294Z</time></trkpt><trkpt lat="44.9174969" lon="7.4270488"><ele>286.75</ele><time>2026-05-03T16:32:28.293Z</time></trkpt><trkpt lat="44.9176076" lon="7.4270015"><ele>287.0</ele><time>2026-05-03T16:32:29.292Z</time></trkpt><trkpt lat="44.9177147" lon="7.4269663"><ele>287.0</ele><time>2026-05-03T16:32:30.293Z</time></trkpt><trkpt lat="44.9178164" lon="7.4269297"><ele>287.0</ele><time>2026-05-03T16:32:31.293Z</time></trkpt><trkpt lat="44.9179167" lon="7.4268966"><ele>287.0</ele><time>2026-05-03T16:32:32.292Z</time></trkpt><trkpt lat="44.9180117" lon="7.4268577"><ele>287.0</ele><time>2026-05-03T16:32:33.291Z</time></trkpt><trkpt lat="44.9181065" lon="7.4268255"><ele>287.0</ele><time>2026-05-03T16:32:34.293Z</time></trkpt><trkpt lat="44.9181933" lon="7.4267914"><ele>287.0</ele><time>2026-05-03T16:32:35.292Z</time></trkpt><trkpt lat="44.9182669" lon="7.4267642"><ele>287.0</ele><time>2026-05-03T16:32:36.293Z</time></trkpt><trkpt lat="44.918337" lon="7.426738"><ele>287.0</ele><time>2026-05-03T16:32:38.292Z</time></trkpt><trkpt lat="44.9184035" lon="7.426804"><ele>287.0</ele><time>2026-05-03T16:32:44.291Z</time></trkpt><trkpt lat="44.9184503" lon="7.4269761"><ele>287.0</ele><time>2026-05-03T16:32:46.291Z</time></trkpt><trkpt lat="44.9184821" lon="7.4270772"><ele>287.0</ele><time>2026-05-03T16:32:47.292Z</time></trkpt><trkpt lat="44.9185104" lon="7.4271791"><ele>286.5</ele><time>2026-05-03T16:32:48.292Z</time></trkpt><trkpt lat="44.9185385" lon="7.4272782"><ele>286.0</ele><time>2026-05-03T16:32:49.291Z</time></trkpt><trkpt lat="44.9185701" lon="7.4273784"><ele>285.5</ele><time>2026-05-03T16:32:50.292Z</time></trkpt><trkpt lat="44.9185976" lon="7.4274663"><ele>285.0</ele><time>2026-05-03T16:32:51.293Z</time></trkpt><trkpt lat="44.9186244" lon="7.4275534"><ele>284.5</ele><time>2026-05-03T16:32:52.292Z</time></trkpt><trkpt lat="44.9186568" lon="7.4276549"><ele>284.0</ele><time>2026-05-03T16:32:53.292Z</time></trkpt><trkpt lat="44.9186861" lon="7.4277643"><ele>284.0</ele><time>2026-05-03T16:32:54.291Z</time></trkpt><trkpt lat="44.9187206" lon="7.4278882"><ele>284.0</ele><time>2026-05-03T16:32:55.291Z</time></trkpt><trkpt lat="44.9187512" lon="7.4280189"><ele>284.0</ele><time>2026-05-03T16:32:56.292Z</time></trkpt><trkpt lat="44.9187905" lon="7.428149"><ele>284.0</ele><time>2026-05-03T16:32:57.291Z</time></trkpt><trkpt lat="44.9188254" lon="7.4282818"><ele>284.0</ele><time>2026-05-03T16:32:58.291Z</time></trkpt><trkpt lat="44.91887" lon="7.4284089"><ele>284.0</ele><time>2026-05-03T16:32:59.293Z</time></trkpt><trkpt lat="44.9189041" lon="7.4285389"><ele>284.0</ele><time>2026-05-03T16:33:00.292Z</time></trkpt><trkpt lat="44.918939" lon="7.4286615"><ele>284.0</ele><time>2026-05-03T16:33:01.291Z</time></trkpt><trkpt lat="44.9189648" lon="7.4287875"><ele>284.0</ele><time>2026-05-03T16:33:02.293Z</time></trkpt><trkpt lat="44.9189939" lon="7.4288924"><ele>284.0</ele><time>2026-05-03T16:33:03.291Z</time></trkpt><trkpt lat="44.9190191" lon="7.4289888"><ele>284.0</ele><time>2026-05-03T16:33:04.292Z</time></trkpt><trkpt lat="44.919041" lon="7.4290929"><ele>284.0</ele><time>2026-05-03T16:33:05.291Z</time></trkpt><trkpt lat="44.9190576" lon="7.429213"><ele>284.0</ele><time>2026-05-03T16:33:06.293Z</time></trkpt><trkpt lat="44.9190628" lon="7.4293349"><ele>284.0</ele><time>2026-05-03T16:33:07.293Z</time></trkpt><trkpt lat="44.9190579" lon="7.4294431"><ele>284.0</ele><time>2026-05-03T16:33:08.293Z</time></trkpt><trkpt lat="44.9190608" lon="7.4295401"><ele>284.0</ele><time>2026-05-03T16:33:09.292Z</time></trkpt><trkpt lat="44.9190899" lon="7.4297155"><ele>284.0</ele><time>2026-05-03T16:33:11.293Z</time></trkpt><trkpt lat="44.9191141" lon="7.4298"><ele>284.0</ele><time>2026-05-03T16:33:12.293Z</time></trkpt><trkpt lat="44.9191519" lon="7.4299277"><ele>284.0</ele><time>2026-05-03T16:33:14.292Z</time></trkpt><trkpt lat="44.9191931" lon="7.430066"><ele>284.0</ele><time>2026-05-03T16:33:16.293Z</time></trkpt><trkpt lat="44.9192266" lon="7.4301596"><ele>284.0</ele><time>2026-05-03T16:33:17.292Z</time></trkpt><trkpt lat="44.9192737" lon="7.4302747"><ele>284.0</ele><time>2026-05-03T16:33:18.291Z</time></trkpt><trkpt lat="44.919321" lon="7.4304254"><ele>283.5</ele><time>2026-05-03T16:33:19.292Z</time></trkpt><trkpt lat="44.9193677" lon="7.4305912"><ele>283.0</ele><time>2026-05-03T16:33:20.293Z</time></trkpt><trkpt lat="44.9194185" lon="7.4307618"><ele>282.5</ele><time>2026-05-03T16:33:21.293Z</time></trkpt><trkpt lat="44.9194693" lon="7.4309341"><ele>282.0</ele><time>2026-05-03T16:33:22.292Z</time></trkpt><trkpt lat="44.919524" lon="7.4310978"><ele>282.0</ele><time>2026-05-03T16:33:23.292Z</time></trkpt><trkpt lat="44.9195779" lon="7.4312583"><ele>282.0</ele><time>2026-05-03T16:33:24.292Z</time></trkpt><trkpt lat="44.9196335" lon="7.4314183"><ele>282.0</ele><time>2026-05-03T16:33:25.291Z</time></trkpt><trkpt lat="44.9196922" lon="7.4315779"><ele>282.0</ele><time>2026-05-03T16:33:26.293Z</time></trkpt><trkpt lat="44.9197519" lon="7.4317418"><ele>282.0</ele><time>2026-05-03T16:33:27.291Z</time></trkpt><trkpt lat="44.9198112" lon="7.4318916"><ele>282.0</ele><time>2026-05-03T16:33:28.292Z</time></trkpt><trkpt lat="44.9198761" lon="7.4320431"><ele>282.0</ele><time>2026-05-03T16:33:29.291Z</time></trkpt><trkpt lat="44.9199468" lon="7.432189"><ele>282.0</ele><time>2026-05-03T16:33:30.292Z</time></trkpt><trkpt lat="44.9200079" lon="7.4323414"><ele>282.0</ele><time>2026-05-03T16:33:31.291Z</time></trkpt><trkpt lat="44.9200662" lon="7.4325103"><ele>282.0</ele><time>2026-05-03T16:33:32.292Z</time></trkpt><trkpt lat="44.9201279" lon="7.4326789"><ele>282.0</ele><time>2026-05-03T16:33:33.292Z</time></trkpt><trkpt lat="44.920184" lon="7.4328585"><ele>282.0</ele><time>2026-05-03T16:33:34.292Z</time></trkpt><trkpt lat="44.9202516" lon="7.4330319"><ele>280.6666666666667</ele><time>2026-05-03T16:33:35.292Z</time></trkpt><trkpt lat="44.9203232" lon="7.4332156"><ele>279.33333333333337</ele><time>2026-05-03T16:33:36.291Z</time></trkpt><trkpt lat="44.9203956" lon="7.4334191"><ele>278.0</ele><time>2026-05-03T16:33:37.293Z</time></trkpt><trkpt lat="44.9204651" lon="7.4336341"><ele>278.0</ele><time>2026-05-03T16:33:38.291Z</time></trkpt><trkpt lat="44.9205381" lon="7.4338324"><ele>278.0</ele><time>2026-05-03T16:33:39.293Z</time></trkpt><trkpt lat="44.9205982" lon="7.4340252"><ele>278.0</ele><time>2026-05-03T16:33:40.292Z</time></trkpt><trkpt lat="44.9206625" lon="7.4341951"><ele>278.0</ele><time>2026-05-03T16:33:41.292Z</time></trkpt><trkpt lat="44.9207198" lon="7.434369"><ele>278.0</ele><time>2026-05-03T16:33:42.291Z</time></trkpt><trkpt lat="44.9207732" lon="7.4345333"><ele>278.0</ele><time>2026-05-03T16:33:43.292Z</time></trkpt><trkpt lat="44.9208227" lon="7.4346867"><ele>278.0</ele><time>2026-05-03T16:33:44.291Z</time></trkpt><trkpt lat="44.9208689" lon="7.4348277"><ele>278.0</ele><time>2026-05-03T16:33:45.292Z</time></trkpt><trkpt lat="44.9209176" lon="7.4349745"><ele>277.8</ele><time>2026-05-03T16:33:46.292Z</time></trkpt><trkpt lat="44.9209653" lon="7.4351316"><ele>277.6</ele><time>2026-05-03T16:33:47.291Z</time></trkpt><trkpt lat="44.92101" lon="7.4352855"><ele>277.4</ele><time>2026-05-03T16:33:48.293Z</time></trkpt><trkpt lat="44.9210518" lon="7.4354263"><ele>277.2</ele><time>2026-05-03T16:33:49.293Z</time></trkpt><trkpt lat="44.9210923" lon="7.4355532"><ele>277.0</ele><time>2026-05-03T16:33:50.292Z</time></trkpt><trkpt lat="44.9211311" lon="7.4356722"><ele>277.0</ele><time>2026-05-03T16:33:51.291Z</time></trkpt><trkpt lat="44.9211681" lon="7.4357898"><ele>277.0</ele><time>2026-05-03T16:33:52.292Z</time></trkpt><trkpt lat="44.921206" lon="7.4359042"><ele>277.0</ele><time>2026-05-03T16:33:53.292Z</time></trkpt><trkpt lat="44.9212353" lon="7.4360086"><ele>277.0</ele><time>2026-05-03T16:33:54.291Z</time></trkpt><trkpt lat="44.9212599" lon="7.4361061"><ele>277.0</ele><time>2026-05-03T16:33:55.291Z</time></trkpt><trkpt lat="44.9212655" lon="7.4362021"><ele>277.0</ele><time>2026-05-03T16:33:56.292Z</time></trkpt><trkpt lat="44.9212475" lon="7.4362921"><ele>277.2</ele><time>2026-05-03T16:33:57.291Z</time></trkpt><trkpt lat="44.9212086" lon="7.4364586"><ele>277.4</ele><time>2026-05-03T16:33:59.293Z</time></trkpt><trkpt lat="44.9212129" lon="7.4365943"><ele>277.6</ele><time>2026-05-03T16:34:01.292Z</time></trkpt><trkpt lat="44.9212402" lon="7.4366892"><ele>277.8</ele><time>2026-05-03T16:34:03.291Z</time></trkpt><trkpt lat="44.9212662" lon="7.4367751"><ele>278.0</ele><time>2026-05-03T16:34:05.292Z</time></trkpt><trkpt lat="44.9213013" lon="7.4369288"><ele>278.0</ele><time>2026-05-03T16:34:07.291Z</time></trkpt><trkpt lat="44.9213562" lon="7.437056"><ele>278.0</ele><time>2026-05-03T16:34:09.293Z</time></trkpt><trkpt lat="44.9214327" lon="7.4371466"><ele>278.0</ele><time>2026-05-03T16:34:11.292Z</time></trkpt><trkpt lat="44.9215375" lon="7.4371616"><ele>278.0</ele><time>2026-05-03T16:34:13.293Z</time></trkpt><trkpt lat="44.9216512" lon="7.4370977"><ele>278.0</ele><time>2026-05-03T16:34:15.291Z</time></trkpt><trkpt lat="44.9216914" lon="7.4370189"><ele>278.0</ele><time>2026-05-03T16:34:16.292Z</time></trkpt><trkpt lat="44.921718" lon="7.4369177"><ele>278.0</ele><time>2026-05-03T16:34:17.292Z</time></trkpt><trkpt lat="44.9217094" lon="7.4367903"><ele>278.0</ele><time>2026-05-03T16:34:18.291Z</time></trkpt><trkpt lat="44.9216649" lon="7.4366544"><ele>278.0</ele><time>2026-05-03T16:34:19.292Z</time></trkpt><trkpt lat="44.9216069" lon="7.4365282"><ele>278.0</ele><time>2026-05-03T16:34:20.292Z</time></trkpt><trkpt lat="44.9215561" lon="7.4363769"><ele>277.6666666666667</ele><time>2026-05-03T16:34:21.291Z</time></trkpt><trkpt lat="44.92153" lon="7.4361835"><ele>277.3333333333333</ele><time>2026-05-03T16:34:22.292Z</time></trkpt><trkpt lat="44.9215163" lon="7.4359638"><ele>277.0</ele><time>2026-05-03T16:34:23.291Z</time></trkpt><trkpt lat="44.921508" lon="7.4357433"><ele>277.0</ele><time>2026-05-03T16:34:24.293Z</time></trkpt><trkpt lat="44.9214975" lon="7.4355214"><ele>277.0</ele><time>2026-05-03T16:34:25.292Z</time></trkpt><trkpt lat="44.9214859" lon="7.4353043"><ele>277.0</ele><time>2026-05-03T16:34:26.292Z</time></trkpt><trkpt lat="44.9214692" lon="7.4350979"><ele>277.0</ele><time>2026-05-03T16:34:27.291Z</time></trkpt><trkpt lat="44.9214586" lon="7.4348792"><ele>277.0</ele><time>2026-05-03T16:34:28.292Z</time></trkpt><trkpt lat="44.9214617" lon="7.4346644"><ele>277.0</ele><time>2026-05-03T16:34:29.292Z</time></trkpt><trkpt lat="44.9214899" lon="7.4344477"><ele>277.3333333333333</ele><time>2026-05-03T16:34:30.292Z</time></trkpt><trkpt lat="44.9215376" lon="7.4342394"><ele>277.6666666666667</ele><time>2026-05-03T16:34:31.291Z</time></trkpt><trkpt lat="44.9216053" lon="7.4340411"><ele>278.0</ele><time>2026-05-03T16:34:32.292Z</time></trkpt><trkpt lat="44.9216944" lon="7.433854"><ele>278.75</ele><time>2026-05-03T16:34:33.292Z</time></trkpt><trkpt lat="44.9218049" lon="7.4336911"><ele>279.5</ele><time>2026-05-03T16:34:34.291Z</time></trkpt><trkpt lat="44.9219174" lon="7.4335579"><ele>280.25</ele><time>2026-05-03T16:34:35.291Z</time></trkpt><trkpt lat="44.9220253" lon="7.4334587"><ele>281.0</ele><time>2026-05-03T16:34:36.291Z</time></trkpt><trkpt lat="44.9221159" lon="7.433391"><ele>281.0</ele><time>2026-05-03T16:34:37.291Z</time></trkpt><trkpt lat="44.9221954" lon="7.4333297"><ele>281.0</ele><time>2026-05-03T16:34:38.291Z</time></trkpt><trkpt lat="44.9222721" lon="7.4332758"><ele>281.0</ele><time>2026-05-03T16:34:39.291Z</time></trkpt><trkpt lat="44.9223485" lon="7.4332233"><ele>281.0</ele><time>2026-05-03T16:34:40.292Z</time></trkpt><trkpt lat="44.9224316" lon="7.4331635"><ele>281.0</ele><time>2026-05-03T16:34:41.291Z</time></trkpt><trkpt lat="44.922514" lon="7.4331086"><ele>281.0</ele><time>2026-05-03T16:34:42.291Z</time></trkpt><trkpt lat="44.9225912" lon="7.4330575"><ele>281.0</ele><time>2026-05-03T16:34:43.291Z</time></trkpt><trkpt lat="44.9226705" lon="7.4330015"><ele>281.0</ele><time>2026-05-03T16:34:44.293Z</time></trkpt><trkpt lat="44.9227544" lon="7.4329481"><ele>281.0</ele><time>2026-05-03T16:34:45.292Z</time></trkpt><trkpt lat="44.9228375" lon="7.432898"><ele>281.0</ele><time>2026-05-03T16:34:46.291Z</time></trkpt><trkpt lat="44.9229141" lon="7.4328575"><ele>281.0</ele><time>2026-05-03T16:34:47.292Z</time></trkpt><trkpt lat="44.9229891" lon="7.4328462"><ele>281.0</ele><time>2026-05-03T16:34:48.293Z</time></trkpt><trkpt lat="44.9230678" lon="7.4328637"><ele>281.0</ele><time>2026-05-03T16:34:49.291Z</time></trkpt><trkpt lat="44.9231502" lon="7.4328827"><ele>281.0</ele><time>2026-05-03T16:34:50.292Z</time></trkpt><trkpt lat="44.9232274" lon="7.4328707"><ele>281.0</ele><time>2026-05-03T16:34:51.292Z</time></trkpt><trkpt lat="44.9233001" lon="7.4328323"><ele>281.0</ele><time>2026-05-03T16:34:52.291Z</time></trkpt><trkpt lat="44.9233571" lon="7.4327813"><ele>281.0</ele><time>2026-05-03T16:34:53.291Z</time></trkpt><trkpt lat="44.9234074" lon="7.4327034"><ele>281.0</ele><time>2026-05-03T16:34:54.291Z</time></trkpt><trkpt lat="44.9234611" lon="7.4325923"><ele>281.0</ele><time>2026-05-03T16:34:55.291Z</time></trkpt><trkpt lat="44.9235397" lon="7.4324809"><ele>281.0</ele><time>2026-05-03T16:34:56.292Z</time></trkpt><trkpt lat="44.9236638" lon="7.4323795"><ele>281.0</ele><time>2026-05-03T16:34:57.292Z</time></trkpt><trkpt lat="44.9238153" lon="7.4322846"><ele>281.0</ele><time>2026-05-03T16:34:58.291Z</time></trkpt><trkpt lat="44.9240013" lon="7.4321887"><ele>280.6666666666667</ele><time>2026-05-03T16:34:59.291Z</time></trkpt><trkpt lat="44.9241961" lon="7.4320823"><ele>280.3333333333333</ele><time>2026-05-03T16:35:00.291Z</time></trkpt><trkpt lat="44.9243847" lon="7.431982"><ele>280.0</ele><time>2026-05-03T16:35:01.292Z</time></trkpt><trkpt lat="44.9245674" lon="7.4318875"><ele>279.66666666666663</ele><time>2026-05-03T16:35:02.292Z</time></trkpt><trkpt lat="44.9247455" lon="7.4317854"><ele>279.3333333333333</ele><time>2026-05-03T16:35:03.292Z</time></trkpt><trkpt lat="44.9249256" lon="7.4316681"><ele>279.0</ele><time>2026-05-03T16:35:04.292Z</time></trkpt><trkpt lat="44.9250968" lon="7.4315359"><ele>279.0</ele><time>2026-05-03T16:35:05.293Z</time></trkpt><trkpt lat="44.9252518" lon="7.4313799"><ele>279.0</ele><time>2026-05-03T16:35:06.291Z</time></trkpt><trkpt lat="44.9253968" lon="7.4312024"><ele>279.0</ele><time>2026-05-03T16:35:07.293Z</time></trkpt><trkpt lat="44.9255275" lon="7.4309951"><ele>278.6666666666667</ele><time>2026-05-03T16:35:08.292Z</time></trkpt><trkpt lat="44.925644" lon="7.4307712"><ele>278.33333333333337</ele><time>2026-05-03T16:35:09.292Z</time></trkpt><trkpt lat="44.9257515" lon="7.4305408"><ele>278.0</ele><time>2026-05-03T16:35:10.291Z</time></trkpt><trkpt lat="44.9258259" lon="7.430286"><ele>278.33333333333337</ele><time>2026-05-03T16:35:11.291Z</time></trkpt><trkpt lat="44.9258798" lon="7.430021"><ele>278.6666666666667</ele><time>2026-05-03T16:35:12.292Z</time></trkpt><trkpt lat="44.9259156" lon="7.4297481"><ele>279.0</ele><time>2026-05-03T16:35:13.292Z</time></trkpt><trkpt lat="44.9259337" lon="7.4294625"><ele>279.0</ele><time>2026-05-03T16:35:14.292Z</time></trkpt><trkpt lat="44.9259283" lon="7.4291752"><ele>279.0</ele><time>2026-05-03T16:35:15.292Z</time></trkpt><trkpt lat="44.9259001" lon="7.4288874"><ele>279.0</ele><time>2026-05-03T16:35:16.291Z</time></trkpt><trkpt lat="44.9258456" lon="7.42861"><ele>279.0</ele><time>2026-05-03T16:35:17.291Z</time></trkpt><trkpt lat="44.9257727" lon="7.4283483"><ele>279.0</ele><time>2026-05-03T16:35:18.291Z</time></trkpt><trkpt lat="44.9256867" lon="7.4280842"><ele>279.0</ele><time>2026-05-03T16:35:19.292Z</time></trkpt><trkpt lat="44.9255917" lon="7.4278233"><ele>279.6666666666667</ele><time>2026-05-03T16:35:20.291Z</time></trkpt><trkpt lat="44.9255054" lon="7.4275668"><ele>280.33333333333337</ele><time>2026-05-03T16:35:21.291Z</time></trkpt><trkpt lat="44.9254184" lon="7.4273207"><ele>281.0</ele><time>2026-05-03T16:35:22.292Z</time></trkpt><trkpt lat="44.9253363" lon="7.4270999"><ele>281.33333333333337</ele><time>2026-05-03T16:35:23.291Z</time></trkpt><trkpt lat="44.92526" lon="7.426886"><ele>281.6666666666667</ele><time>2026-05-03T16:35:24.292Z</time></trkpt><trkpt lat="44.9251904" lon="7.4266583"><ele>282.0</ele><time>2026-05-03T16:35:25.292Z</time></trkpt><trkpt lat="44.9251349" lon="7.4264135"><ele>282.0</ele><time>2026-05-03T16:35:26.291Z</time></trkpt><trkpt lat="44.9250922" lon="7.4261554"><ele>282.0</ele><time>2026-05-03T16:35:27.291Z</time></trkpt><trkpt lat="44.9250703" lon="7.4258872"><ele>282.0</ele><time>2026-05-03T16:35:28.291Z</time></trkpt><trkpt lat="44.9250636" lon="7.4256115"><ele>282.6666666666667</ele><time>2026-05-03T16:35:29.291Z</time></trkpt><trkpt lat="44.9250739" lon="7.4253311"><ele>283.33333333333337</ele><time>2026-05-03T16:35:30.291Z</time></trkpt><trkpt lat="44.9250888" lon="7.4250444"><ele>284.0</ele><time>2026-05-03T16:35:31.292Z</time></trkpt><trkpt lat="44.9251096" lon="7.4247631"><ele>283.6666666666667</ele><time>2026-05-03T16:35:32.291Z</time></trkpt><trkpt lat="44.9251228" lon="7.4244947"><ele>283.3333333333333</ele><time>2026-05-03T16:35:33.292Z</time></trkpt><trkpt lat="44.9251343" lon="7.4242355"><ele>283.0</ele><time>2026-05-03T16:35:34.291Z</time></trkpt><trkpt lat="44.925141" lon="7.4239907"><ele>282.66666666666663</ele><time>2026-05-03T16:35:35.292Z</time></trkpt><trkpt lat="44.9251535" lon="7.4237506"><ele>282.3333333333333</ele><time>2026-05-03T16:35:36.291Z</time></trkpt><trkpt lat="44.925162" lon="7.4235084"><ele>282.0</ele><time>2026-05-03T16:35:37.291Z</time></trkpt><trkpt lat="44.9251738" lon="7.4232695"><ele>282.0</ele><time>2026-05-03T16:35:38.291Z</time></trkpt><trkpt lat="44.9251897" lon="7.4230331"><ele>282.0</ele><time>2026-05-03T16:35:39.292Z</time></trkpt><trkpt lat="44.9252196" lon="7.4227989"><ele>282.0</ele><time>2026-05-03T16:35:40.291Z</time></trkpt><trkpt lat="44.9252503" lon="7.4225648"><ele>282.0</ele><time>2026-05-03T16:35:41.29Z</time></trkpt><trkpt lat="44.9253012" lon="7.4223412"><ele>282.0</ele><time>2026-05-03T16:35:42.293Z</time></trkpt><trkpt lat="44.9253572" lon="7.4221288"><ele>282.0</ele><time>2026-05-03T16:35:43.291Z</time></trkpt><trkpt lat="44.9254301" lon="7.4219265"><ele>282.0</ele><time>2026-05-03T16:35:44.291Z</time></trkpt><trkpt lat="44.9255195" lon="7.4217472"><ele>282.0</ele><time>2026-05-03T16:35:45.291Z</time></trkpt><trkpt lat="44.9256209" lon="7.4215785"><ele>282.0</ele><time>2026-05-03T16:35:46.292Z</time></trkpt><trkpt lat="44.9257393" lon="7.4214254"><ele>282.3333333333333</ele><time>2026-05-03T16:35:47.292Z</time></trkpt><trkpt lat="44.9258731" lon="7.4212996"><ele>282.66666666666663</ele><time>2026-05-03T16:35:48.291Z</time></trkpt><trkpt lat="44.9260251" lon="7.4212048"><ele>283.0</ele><time>2026-05-03T16:35:49.292Z</time></trkpt><trkpt lat="44.9261838" lon="7.4211391"><ele>283.0</ele><time>2026-05-03T16:35:50.291Z</time></trkpt><trkpt lat="44.9263408" lon="7.421101"><ele>283.0</ele><time>2026-05-03T16:35:51.291Z</time></trkpt><trkpt lat="44.9264922" lon="7.4210997"><ele>283.0</ele><time>2026-05-03T16:35:52.293Z</time></trkpt><trkpt lat="44.926654" lon="7.4211165"><ele>283.3333333333333</ele><time>2026-05-03T16:35:53.29Z</time></trkpt><trkpt lat="44.9268352" lon="7.4211513"><ele>283.6666666666667</ele><time>2026-05-03T16:35:54.292Z</time></trkpt><trkpt lat="44.9270256" lon="7.4211914"><ele>284.0</ele><time>2026-05-03T16:35:55.29Z</time></trkpt><trkpt lat="44.9272205" lon="7.4212357"><ele>284.0</ele><time>2026-05-03T16:35:56.291Z</time></trkpt><trkpt lat="44.9274199" lon="7.4212736"><ele>284.0</ele><time>2026-05-03T16:35:57.291Z</time></trkpt><trkpt lat="44.9276263" lon="7.4213095"><ele>284.0</ele><time>2026-05-03T16:35:58.291Z</time></trkpt><trkpt lat="44.927837" lon="7.4213554"><ele>283.6666666666667</ele><time>2026-05-03T16:35:59.291Z</time></trkpt><trkpt lat="44.9280469" lon="7.4214006"><ele>283.3333333333333</ele><time>2026-05-03T16:36:00.292Z</time></trkpt><trkpt lat="44.9282579" lon="7.4214367"><ele>283.0</ele><time>2026-05-03T16:36:01.293Z</time></trkpt><trkpt lat="44.9284661" lon="7.4214768"><ele>283.0</ele><time>2026-05-03T16:36:02.29Z</time></trkpt><trkpt lat="44.928678" lon="7.4215165"><ele>283.0</ele><time>2026-05-03T16:36:03.291Z</time></trkpt><trkpt lat="44.9288835" lon="7.4215511"><ele>283.0</ele><time>2026-05-03T16:36:04.291Z</time></trkpt><trkpt lat="44.9290851" lon="7.4215953"><ele>282.66666666666663</ele><time>2026-05-03T16:36:05.292Z</time></trkpt><trkpt lat="44.9292879" lon="7.4216342"><ele>282.3333333333333</ele><time>2026-05-03T16:36:06.29Z</time></trkpt><trkpt lat="44.9294855" lon="7.4216754"><ele>282.0</ele><time>2026-05-03T16:36:07.291Z</time></trkpt><trkpt lat="44.9296766" lon="7.4217139"><ele>282.0</ele><time>2026-05-03T16:36:08.291Z</time></trkpt><trkpt lat="44.9298642" lon="7.4217501"><ele>282.0</ele><time>2026-05-03T16:36:09.29Z</time></trkpt><trkpt lat="44.9300574" lon="7.4217888"><ele>282.0</ele><time>2026-05-03T16:36:10.291Z</time></trkpt><trkpt lat="44.9302374" lon="7.4218203"><ele>282.6666666666667</ele><time>2026-05-03T16:36:11.291Z</time></trkpt><trkpt lat="44.93041" lon="7.4218536"><ele>283.33333333333337</ele><time>2026-05-03T16:36:12.291Z</time></trkpt><trkpt lat="44.9305722" lon="7.4218837"><ele>284.0</ele><time>2026-05-03T16:36:13.291Z</time></trkpt><trkpt lat="44.9307224" lon="7.4219196"><ele>284.0</ele><time>2026-05-03T16:36:14.292Z</time></trkpt><trkpt lat="44.9308703" lon="7.4219526"><ele>284.0</ele><time>2026-05-03T16:36:15.291Z</time></trkpt><trkpt lat="44.9310185" lon="7.4219762"><ele>284.0</ele><time>2026-05-03T16:36:16.291Z</time></trkpt><trkpt lat="44.9311691" lon="7.4219838"><ele>284.0</ele><time>2026-05-03T16:36:17.291Z</time></trkpt><trkpt lat="44.9313299" lon="7.4219706"><ele>284.0</ele><time>2026-05-03T16:36:18.292Z</time></trkpt><trkpt lat="44.931498" lon="7.4219484"><ele>284.0</ele><time>2026-05-03T16:36:19.292Z</time></trkpt><trkpt lat="44.9316627" lon="7.4219349"><ele>283.6666666666667</ele><time>2026-05-03T16:36:20.292Z</time></trkpt><trkpt lat="44.9318214" lon="7.4219103"><ele>283.3333333333333</ele><time>2026-05-03T16:36:21.291Z</time></trkpt><trkpt lat="44.9319749" lon="7.4218842"><ele>283.0</ele><time>2026-05-03T16:36:22.292Z</time></trkpt><trkpt lat="44.9321341" lon="7.4218695"><ele>283.0</ele><time>2026-05-03T16:36:23.291Z</time></trkpt><trkpt lat="44.9322947" lon="7.4218498"><ele>283.0</ele><time>2026-05-03T16:36:24.292Z</time></trkpt><trkpt lat="44.9324639" lon="7.4218372"><ele>283.0</ele><time>2026-05-03T16:36:25.292Z</time></trkpt><trkpt lat="44.9326427" lon="7.421817"><ele>283.0</ele><time>2026-05-03T16:36:26.291Z</time></trkpt><trkpt lat="44.9328333" lon="7.4217946"><ele>283.0</ele><time>2026-05-03T16:36:27.291Z</time></trkpt><trkpt lat="44.9330224" lon="7.4217626"><ele>283.0</ele><time>2026-05-03T16:36:28.291Z</time></trkpt><trkpt lat="44.9332158" lon="7.4217282"><ele>283.0</ele><time>2026-05-03T16:36:29.291Z</time></trkpt><trkpt lat="44.9334081" lon="7.4217"><ele>283.0</ele><time>2026-05-03T16:36:30.291Z</time></trkpt><trkpt lat="44.9335938" lon="7.4216736"><ele>283.0</ele><time>2026-05-03T16:36:31.29Z</time></trkpt><trkpt lat="44.9337716" lon="7.4216496"><ele>283.0</ele><time>2026-05-03T16:36:32.292Z</time></trkpt><trkpt lat="44.9339427" lon="7.4216252"><ele>283.0</ele><time>2026-05-03T16:36:33.292Z</time></trkpt><trkpt lat="44.9341033" lon="7.4216011"><ele>283.0</ele><time>2026-05-03T16:36:34.291Z</time></trkpt><trkpt lat="44.9342511" lon="7.4215739"><ele>283.0</ele><time>2026-05-03T16:36:35.291Z</time></trkpt><trkpt lat="44.9343867" lon="7.4215622"><ele>283.0</ele><time>2026-05-03T16:36:36.291Z</time></trkpt><trkpt lat="44.9345229" lon="7.4215432"><ele>283.0</ele><time>2026-05-03T16:36:37.29Z</time></trkpt><trkpt lat="44.9346435" lon="7.4215423"><ele>283.0</ele><time>2026-05-03T16:36:38.29Z</time></trkpt><trkpt lat="44.9347464" lon="7.4215368"><ele>283.0</ele><time>2026-05-03T16:36:39.291Z</time></trkpt><trkpt lat="44.9348359" lon="7.4215418"><ele>283.0</ele><time>2026-05-03T16:36:40.292Z</time></trkpt><trkpt lat="44.9349163" lon="7.4215651"><ele>283.0</ele><time>2026-05-03T16:36:41.291Z</time></trkpt><trkpt lat="44.934987" lon="7.4216033"><ele>283.0</ele><time>2026-05-03T16:36:42.291Z</time></trkpt><trkpt lat="44.9350644" lon="7.4216246"><ele>283.0</ele><time>2026-05-03T16:36:43.291Z</time></trkpt><trkpt lat="44.9351437" lon="7.4216243"><ele>283.0</ele><time>2026-05-03T16:36:44.292Z</time></trkpt><trkpt lat="44.9352077" lon="7.4215736"><ele>283.0</ele><time>2026-05-03T16:36:45.291Z</time></trkpt><trkpt lat="44.9352693" lon="7.4214962"><ele>283.0</ele><time>2026-05-03T16:36:46.291Z</time></trkpt><trkpt lat="44.9353414" lon="7.4214247"><ele>283.0</ele><time>2026-05-03T16:36:47.29Z</time></trkpt><trkpt lat="44.9354254" lon="7.4213662"><ele>283.0</ele><time>2026-05-03T16:36:48.292Z</time></trkpt><trkpt lat="44.9355326" lon="7.4213176"><ele>283.0</ele><time>2026-05-03T16:36:49.291Z</time></trkpt><trkpt lat="44.9356581" lon="7.4212644"><ele>283.0</ele><time>2026-05-03T16:36:50.291Z</time></trkpt><trkpt lat="44.9357906" lon="7.4212132"><ele>283.0</ele><time>2026-05-03T16:36:51.292Z</time></trkpt><trkpt lat="44.93593" lon="7.421155"><ele>283.0</ele><time>2026-05-03T16:36:52.292Z</time></trkpt><trkpt lat="44.9360871" lon="7.4210866"><ele>283.0</ele><time>2026-05-03T16:36:53.291Z</time></trkpt><trkpt lat="44.9362697" lon="7.4210135"><ele>282.66666666666663</ele><time>2026-05-03T16:36:54.292Z</time></trkpt><trkpt lat="44.9364422" lon="7.4209517"><ele>282.3333333333333</ele><time>2026-05-03T16:36:55.292Z</time></trkpt><trkpt lat="44.9366063" lon="7.4208814"><ele>282.0</ele><time>2026-05-03T16:36:56.29Z</time></trkpt><trkpt lat="44.9367734" lon="7.4208062"><ele>281.6666666666667</ele><time>2026-05-03T16:36:57.291Z</time></trkpt><trkpt lat="44.9369346" lon="7.4207227"><ele>281.33333333333337</ele><time>2026-05-03T16:36:58.291Z</time></trkpt><trkpt lat="44.9370974" lon="7.4206336"><ele>281.0</ele><time>2026-05-03T16:36:59.292Z</time></trkpt><trkpt lat="44.937256" lon="7.4205295"><ele>281.0</ele><time>2026-05-03T16:37:00.291Z</time></trkpt><trkpt lat="44.9374072" lon="7.4204113"><ele>281.0</ele><time>2026-05-03T16:37:01.292Z</time></trkpt><trkpt lat="44.9375564" lon="7.4202773"><ele>281.0</ele><time>2026-05-03T16:37:02.29Z</time></trkpt><trkpt lat="44.9377082" lon="7.4201305"><ele>281.0</ele><time>2026-05-03T16:37:03.291Z</time></trkpt><trkpt lat="44.9378524" lon="7.4199852"><ele>281.0</ele><time>2026-05-03T16:37:04.291Z</time></trkpt><trkpt lat="44.9379999" lon="7.4198438"><ele>281.0</ele><time>2026-05-03T16:37:05.291Z</time></trkpt><trkpt lat="44.9381539" lon="7.4197014"><ele>281.33333333333337</ele><time>2026-05-03T16:37:06.291Z</time></trkpt><trkpt lat="44.9383004" lon="7.419569"><ele>281.6666666666667</ele><time>2026-05-03T16:37:07.291Z</time></trkpt><trkpt lat="44.9384458" lon="7.4194468"><ele>282.0</ele><time>2026-05-03T16:37:08.291Z</time></trkpt><trkpt lat="44.9386022" lon="7.4193487"><ele>282.6666666666667</ele><time>2026-05-03T16:37:09.291Z</time></trkpt><trkpt lat="44.9387717" lon="7.4192928"><ele>283.33333333333337</ele><time>2026-05-03T16:37:10.291Z</time></trkpt><trkpt lat="44.9389472" lon="7.4192281"><ele>284.0</ele><time>2026-05-03T16:37:11.291Z</time></trkpt><trkpt lat="44.9391265" lon="7.4191611"><ele>283.33333333333337</ele><time>2026-05-03T16:37:12.292Z</time></trkpt><trkpt lat="44.9393097" lon="7.4190936"><ele>282.6666666666667</ele><time>2026-05-03T16:37:13.291Z</time></trkpt><trkpt lat="44.9395023" lon="7.4190262"><ele>282.0</ele><time>2026-05-03T16:37:14.291Z</time></trkpt><trkpt lat="44.939695" lon="7.418953"><ele>282.0</ele><time>2026-05-03T16:37:15.292Z</time></trkpt><trkpt lat="44.9398824" lon="7.4188852"><ele>282.0</ele><time>2026-05-03T16:37:16.29Z</time></trkpt><trkpt lat="44.9400729" lon="7.4188103"><ele>282.0</ele><time>2026-05-03T16:37:17.291Z</time></trkpt><trkpt lat="44.9402576" lon="7.4187444"><ele>282.6666666666667</ele><time>2026-05-03T16:37:18.292Z</time></trkpt><trkpt lat="44.9404405" lon="7.418669"><ele>283.33333333333337</ele><time>2026-05-03T16:37:19.292Z</time></trkpt><trkpt lat="44.9406205" lon="7.4185933"><ele>284.0</ele><time>2026-05-03T16:37:20.291Z</time></trkpt><trkpt lat="44.9408013" lon="7.4185049"><ele>283.6666666666667</ele><time>2026-05-03T16:37:21.29Z</time></trkpt><trkpt lat="44.9409782" lon="7.4184062"><ele>283.3333333333333</ele><time>2026-05-03T16:37:22.292Z</time></trkpt><trkpt lat="44.9411674" lon="7.4182916"><ele>283.0</ele><time>2026-05-03T16:37:23.292Z</time></trkpt><trkpt lat="44.9413578" lon="7.4181722"><ele>283.0</ele><time>2026-05-03T16:37:24.29Z</time></trkpt><trkpt lat="44.9415566" lon="7.4180389"><ele>283.0</ele><time>2026-05-03T16:37:25.291Z</time></trkpt><trkpt lat="44.9417568" lon="7.4179028"><ele>283.0</ele><time>2026-05-03T16:37:26.291Z</time></trkpt><trkpt lat="44.9419523" lon="7.417767"><ele>282.66666666666663</ele><time>2026-05-03T16:37:27.292Z</time></trkpt><trkpt lat="44.9421467" lon="7.4176355"><ele>282.3333333333333</ele><time>2026-05-03T16:37:28.291Z</time></trkpt><trkpt lat="44.942342" lon="7.4174951"><ele>282.0</ele><time>2026-05-03T16:37:29.292Z</time></trkpt><trkpt lat="44.9425356" lon="7.4173584"><ele>282.0</ele><time>2026-05-03T16:37:30.292Z</time></trkpt><trkpt lat="44.9427223" lon="7.4172325"><ele>282.0</ele><time>2026-05-03T16:37:31.293Z</time></trkpt><trkpt lat="44.9429166" lon="7.4170921"><ele>282.0</ele><time>2026-05-03T16:37:32.292Z</time></trkpt><trkpt lat="44.9431021" lon="7.4169618"><ele>282.0</ele><time>2026-05-03T16:37:33.293Z</time></trkpt><trkpt lat="44.9432799" lon="7.4168288"><ele>282.0</ele><time>2026-05-03T16:37:34.291Z</time></trkpt><trkpt lat="44.9434637" lon="7.4167058"><ele>282.0</ele><time>2026-05-03T16:37:35.291Z</time></trkpt><trkpt lat="44.9436484" lon="7.4165794"><ele>281.6666666666667</ele><time>2026-05-03T16:37:36.291Z</time></trkpt><trkpt lat="44.9438319" lon="7.4164511"><ele>281.33333333333337</ele><time>2026-05-03T16:37:37.291Z</time></trkpt><trkpt lat="44.9440161" lon="7.416323"><ele>281.0</ele><time>2026-05-03T16:37:38.291Z</time></trkpt><trkpt lat="44.944201" lon="7.4161956"><ele>281.33333333333337</ele><time>2026-05-03T16:37:39.292Z</time></trkpt><trkpt lat="44.9443912" lon="7.4160635"><ele>281.6666666666667</ele><time>2026-05-03T16:37:40.29Z</time></trkpt><trkpt lat="44.9445774" lon="7.4159342"><ele>282.0</ele><time>2026-05-03T16:37:41.29Z</time></trkpt><trkpt lat="44.9447596" lon="7.4158153"><ele>282.0</ele><time>2026-05-03T16:37:42.29Z</time></trkpt><trkpt lat="44.9449451" lon="7.4156873"><ele>282.0</ele><time>2026-05-03T16:37:43.291Z</time></trkpt><trkpt lat="44.9451333" lon="7.4155604"><ele>282.0</ele><time>2026-05-03T16:37:44.292Z</time></trkpt><trkpt lat="44.9453172" lon="7.4154267"><ele>282.0</ele><time>2026-05-03T16:37:45.29Z</time></trkpt><trkpt lat="44.9455065" lon="7.4152926"><ele>282.0</ele><time>2026-05-03T16:37:46.291Z</time></trkpt><trkpt lat="44.9456917" lon="7.4151583"><ele>282.0</ele><time>2026-05-03T16:37:47.29Z</time></trkpt><trkpt lat="44.9458805" lon="7.4150278"><ele>282.0</ele><time>2026-05-03T16:37:48.291Z</time></trkpt><trkpt lat="44.9460694" lon="7.4148947"><ele>282.0</ele><time>2026-05-03T16:37:49.292Z</time></trkpt><trkpt lat="44.9462579" lon="7.4147596"><ele>282.0</ele><time>2026-05-03T16:37:50.29Z</time></trkpt><trkpt lat="44.9464611" lon="7.4146239"><ele>282.0</ele><time>2026-05-03T16:37:51.292Z</time></trkpt><trkpt lat="44.9466548" lon="7.4144934"><ele>282.0</ele><time>2026-05-03T16:37:52.29Z</time></trkpt><trkpt lat="44.9468368" lon="7.4143627"><ele>282.0</ele><time>2026-05-03T16:37:53.29Z</time></trkpt><trkpt lat="44.9470095" lon="7.4142343"><ele>282.0</ele><time>2026-05-03T16:37:54.292Z</time></trkpt><trkpt lat="44.9471826" lon="7.4141113"><ele>282.0</ele><time>2026-05-03T16:37:55.291Z</time></trkpt><trkpt lat="44.9473539" lon="7.4139898"><ele>282.0</ele><time>2026-05-03T16:37:56.291Z</time></trkpt><trkpt lat="44.9475392" lon="7.4138592"><ele>282.6666666666667</ele><time>2026-05-03T16:37:57.292Z</time></trkpt><trkpt lat="44.947727" lon="7.4137316"><ele>283.33333333333337</ele><time>2026-05-03T16:37:58.29Z</time></trkpt><trkpt lat="44.9479202" lon="7.4136083"><ele>284.0</ele><time>2026-05-03T16:37:59.29Z</time></trkpt><trkpt lat="44.9481133" lon="7.4134708"><ele>284.0</ele><time>2026-05-03T16:38:00.291Z</time></trkpt><trkpt lat="44.9483023" lon="7.4133437"><ele>284.0</ele><time>2026-05-03T16:38:01.291Z</time></trkpt><trkpt lat="44.9484918" lon="7.413209"><ele>284.0</ele><time>2026-05-03T16:38:02.291Z</time></trkpt><trkpt lat="44.9486779" lon="7.413073"><ele>284.0</ele><time>2026-05-03T16:38:03.291Z</time></trkpt><trkpt lat="44.9488639" lon="7.4129393"><ele>284.0</ele><time>2026-05-03T16:38:04.291Z</time></trkpt><trkpt lat="44.9490513" lon="7.4128135"><ele>284.0</ele><time>2026-05-03T16:38:05.291Z</time></trkpt><trkpt lat="44.9492349" lon="7.4126948"><ele>283.33333333333337</ele><time>2026-05-03T16:38:06.291Z</time></trkpt><trkpt lat="44.9494272" lon="7.4125563"><ele>282.6666666666667</ele><time>2026-05-03T16:38:07.293Z</time></trkpt><trkpt lat="44.9496143" lon="7.4124295"><ele>282.0</ele><time>2026-05-03T16:38:08.292Z</time></trkpt><trkpt lat="44.949804" lon="7.4122988"><ele>282.0</ele><time>2026-05-03T16:38:09.292Z</time></trkpt><trkpt lat="44.9499905" lon="7.4121674"><ele>282.0</ele><time>2026-05-03T16:38:10.29Z</time></trkpt><trkpt lat="44.9501774" lon="7.4120362"><ele>282.0</ele><time>2026-05-03T16:38:11.292Z</time></trkpt><trkpt lat="44.9503675" lon="7.4119121"><ele>282.0</ele><time>2026-05-03T16:38:12.291Z</time></trkpt><trkpt lat="44.9505506" lon="7.4117841"><ele>282.0</ele><time>2026-05-03T16:38:13.292Z</time></trkpt><trkpt lat="44.950736" lon="7.4116563"><ele>282.0</ele><time>2026-05-03T16:38:14.291Z</time></trkpt><trkpt lat="44.9509202" lon="7.4115329"><ele>283.0</ele><time>2026-05-03T16:38:15.29Z</time></trkpt><trkpt lat="44.9511086" lon="7.4114075"><ele>284.0</ele><time>2026-05-03T16:38:16.291Z</time></trkpt><trkpt lat="44.9512897" lon="7.4112832"><ele>285.0</ele><time>2026-05-03T16:38:17.291Z</time></trkpt><trkpt lat="44.9514724" lon="7.4111489"><ele>285.0</ele><time>2026-05-03T16:38:18.29Z</time></trkpt><trkpt lat="44.9516544" lon="7.4110261"><ele>285.0</ele><time>2026-05-03T16:38:19.291Z</time></trkpt><trkpt lat="44.9518344" lon="7.4108985"><ele>285.0</ele><time>2026-05-03T16:38:20.29Z</time></trkpt><trkpt lat="44.9520167" lon="7.4107737"><ele>285.0</ele><time>2026-05-03T16:38:21.291Z</time></trkpt><trkpt lat="44.9521964" lon="7.4106549"><ele>285.0</ele><time>2026-05-03T16:38:22.291Z</time></trkpt><trkpt lat="44.9523736" lon="7.4105298"><ele>285.0</ele><time>2026-05-03T16:38:23.292Z</time></trkpt><trkpt lat="44.9525517" lon="7.4104075"><ele>284.3333333333333</ele><time>2026-05-03T16:38:24.292Z</time></trkpt><trkpt lat="44.9527213" lon="7.4102809"><ele>283.66666666666663</ele><time>2026-05-03T16:38:25.29Z</time></trkpt><trkpt lat="44.9529003" lon="7.4101667"><ele>283.0</ele><time>2026-05-03T16:38:26.292Z</time></trkpt><trkpt lat="44.9530806" lon="7.4100419"><ele>283.0</ele><time>2026-05-03T16:38:27.292Z</time></trkpt><trkpt lat="44.953267" lon="7.4099107"><ele>283.0</ele><time>2026-05-03T16:38:28.291Z</time></trkpt><trkpt lat="44.9534465" lon="7.4097893"><ele>283.0</ele><time>2026-05-03T16:38:29.291Z</time></trkpt><trkpt lat="44.9536228" lon="7.4096609"><ele>283.66666666666663</ele><time>2026-05-03T16:38:30.292Z</time></trkpt><trkpt lat="44.9537993" lon="7.4095347"><ele>284.3333333333333</ele><time>2026-05-03T16:38:31.29Z</time></trkpt><trkpt lat="44.9539721" lon="7.4094189"><ele>285.0</ele><time>2026-05-03T16:38:32.291Z</time></trkpt><trkpt lat="44.9541525" lon="7.4092947"><ele>285.0</ele><time>2026-05-03T16:38:33.29Z</time></trkpt><trkpt lat="44.9543311" lon="7.4091651"><ele>285.0</ele><time>2026-05-03T16:38:34.291Z</time></trkpt><trkpt lat="44.9545036" lon="7.4090399"><ele>285.0</ele><time>2026-05-03T16:38:35.291Z</time></trkpt><trkpt lat="44.9546689" lon="7.4089265"><ele>285.3333333333333</ele><time>2026-05-03T16:38:36.292Z</time></trkpt><trkpt lat="44.9548308" lon="7.4088095"><ele>285.66666666666663</ele><time>2026-05-03T16:38:37.292Z</time></trkpt><trkpt lat="44.9549891" lon="7.4086993"><ele>286.0</ele><time>2026-05-03T16:38:38.291Z</time></trkpt><trkpt lat="44.9551409" lon="7.4085897"><ele>286.0</ele><time>2026-05-03T16:38:39.29Z</time></trkpt><trkpt lat="44.9552821" lon="7.4084881"><ele>286.0</ele><time>2026-05-03T16:38:40.291Z</time></trkpt><trkpt lat="44.9554163" lon="7.4083923"><ele>286.0</ele><time>2026-05-03T16:38:41.292Z</time></trkpt><trkpt lat="44.9555512" lon="7.4083043"><ele>286.0</ele><time>2026-05-03T16:38:42.291Z</time></trkpt><trkpt lat="44.9556687" lon="7.408225"><ele>286.0</ele><time>2026-05-03T16:38:43.29Z</time></trkpt><trkpt lat="44.9557856" lon="7.4081522"><ele>286.0</ele><time>2026-05-03T16:38:44.291Z</time></trkpt><trkpt lat="44.9558872" lon="7.4080793"><ele>286.0</ele><time>2026-05-03T16:38:45.292Z</time></trkpt><trkpt lat="44.9559776" lon="7.4080004"><ele>286.40000000000003</ele><time>2026-05-03T16:38:46.293Z</time></trkpt><trkpt lat="44.9560586" lon="7.4079199"><ele>286.8</ele><time>2026-05-03T16:38:47.29Z</time></trkpt><trkpt lat="44.9561261" lon="7.4078133"><ele>287.20000000000005</ele><time>2026-05-03T16:38:48.29Z</time></trkpt><trkpt lat="44.9561825" lon="7.4076909"><ele>287.6</ele><time>2026-05-03T16:38:49.291Z</time></trkpt><trkpt lat="44.95621" lon="7.4075651"><ele>288.0</ele><time>2026-05-03T16:38:50.29Z</time></trkpt><trkpt lat="44.9562161" lon="7.4074367"><ele>288.0</ele><time>2026-05-03T16:38:51.29Z</time></trkpt><trkpt lat="44.9562283" lon="7.407319"><ele>288.0</ele><time>2026-05-03T16:38:52.29Z</time></trkpt><trkpt lat="44.9562497" lon="7.407213"><ele>288.0</ele><time>2026-05-03T16:38:53.291Z</time></trkpt><trkpt lat="44.9562755" lon="7.407122"><ele>288.0</ele><time>2026-05-03T16:38:54.291Z</time></trkpt><trkpt lat="44.9563157" lon="7.4070058"><ele>288.0</ele><time>2026-05-03T16:38:56.291Z</time></trkpt><trkpt lat="44.956355" lon="7.4069116"><ele>288.0</ele><time>2026-05-03T16:39:03.29Z</time></trkpt><trkpt lat="44.9564243" lon="7.4068453"><ele>288.0</ele><time>2026-05-03T16:39:05.29Z</time></trkpt><trkpt lat="44.9565475" lon="7.4068579"><ele>288.0</ele><time>2026-05-03T16:39:07.291Z</time></trkpt><trkpt lat="44.9565964" lon="7.4069227"><ele>288.0</ele><time>2026-05-03T16:39:08.291Z</time></trkpt><trkpt lat="44.9566651" lon="7.4070598"><ele>288.0</ele><time>2026-05-03T16:39:10.291Z</time></trkpt><trkpt lat="44.9567321" lon="7.4071879"><ele>288.0</ele><time>2026-05-03T16:39:12.291Z</time></trkpt><trkpt lat="44.9568057" lon="7.4073396"><ele>287.8333333333333</ele><time>2026-05-03T16:39:14.29Z</time></trkpt><trkpt lat="44.9568431" lon="7.4074267"><ele>287.6666666666667</ele><time>2026-05-03T16:39:15.291Z</time></trkpt><trkpt lat="44.9568938" lon="7.4075165"><ele>287.5</ele><time>2026-05-03T16:39:16.291Z</time></trkpt><trkpt lat="44.9569428" lon="7.4076182"><ele>287.33333333333337</ele><time>2026-05-03T16:39:17.291Z</time></trkpt><trkpt lat="44.956997" lon="7.4077321"><ele>287.1666666666667</ele><time>2026-05-03T16:39:18.292Z</time></trkpt><trkpt lat="44.9570495" lon="7.4078357"><ele>287.0</ele><time>2026-05-03T16:39:19.291Z</time></trkpt><trkpt lat="44.9570984" lon="7.4079487"><ele>287.0</ele><time>2026-05-03T16:39:20.291Z</time></trkpt><trkpt lat="44.9571387" lon="7.4080574"><ele>287.0</ele><time>2026-05-03T16:39:21.292Z</time></trkpt><trkpt lat="44.9571765" lon="7.4081683"><ele>287.0</ele><time>2026-05-03T16:39:22.29Z</time></trkpt><trkpt lat="44.9572193" lon="7.4082671"><ele>287.0</ele><time>2026-05-03T16:39:23.292Z</time></trkpt><trkpt lat="44.9572797" lon="7.4083765"><ele>287.0</ele><time>2026-05-03T16:39:24.291Z</time></trkpt><trkpt lat="44.9573594" lon="7.408518"><ele>287.0</ele><time>2026-05-03T16:39:25.29Z</time></trkpt><trkpt lat="44.9574351" lon="7.40869"><ele>287.0</ele><time>2026-05-03T16:39:26.291Z</time></trkpt><trkpt lat="44.9575266" lon="7.4089047"><ele>287.0</ele><time>2026-05-03T16:39:27.29Z</time></trkpt><trkpt lat="44.9576344" lon="7.4091251"><ele>286.6666666666667</ele><time>2026-05-03T16:39:28.291Z</time></trkpt><trkpt lat="44.9577558" lon="7.409368"><ele>286.3333333333333</ele><time>2026-05-03T16:39:29.292Z</time></trkpt><trkpt lat="44.9578741" lon="7.4096033"><ele>286.0</ele><time>2026-05-03T16:39:30.29Z</time></trkpt><trkpt lat="44.9579849" lon="7.4098272"><ele>286.0</ele><time>2026-05-03T16:39:31.29Z</time></trkpt><trkpt lat="44.9580861" lon="7.4100386"><ele>286.0</ele><time>2026-05-03T16:39:32.29Z</time></trkpt><trkpt lat="44.9581863" lon="7.4102443"><ele>286.0</ele><time>2026-05-03T16:39:33.291Z</time></trkpt><trkpt lat="44.9582796" lon="7.4104374"><ele>286.0</ele><time>2026-05-03T16:39:34.292Z</time></trkpt><trkpt lat="44.9583707" lon="7.4106398"><ele>286.0</ele><time>2026-05-03T16:39:35.29Z</time></trkpt><trkpt lat="44.9584726" lon="7.4108422"><ele>286.0</ele><time>2026-05-03T16:39:36.29Z</time></trkpt><trkpt lat="44.9585716" lon="7.4110463"><ele>286.0</ele><time>2026-05-03T16:39:37.29Z</time></trkpt><trkpt lat="44.9586675" lon="7.4112477"><ele>286.0</ele><time>2026-05-03T16:39:38.29Z</time></trkpt><trkpt lat="44.9587646" lon="7.4114524"><ele>286.0</ele><time>2026-05-03T16:39:39.291Z</time></trkpt><trkpt lat="44.9588647" lon="7.4116587"><ele>286.0</ele><time>2026-05-03T16:39:40.292Z</time></trkpt><trkpt lat="44.9589674" lon="7.4118668"><ele>286.0</ele><time>2026-05-03T16:39:41.291Z</time></trkpt><trkpt lat="44.959065" lon="7.4120796"><ele>286.0</ele><time>2026-05-03T16:39:42.29Z</time></trkpt><trkpt lat="44.959167" lon="7.4122802"><ele>285.66666666666663</ele><time>2026-05-03T16:39:43.291Z</time></trkpt><trkpt lat="44.9592586" lon="7.4124726"><ele>285.3333333333333</ele><time>2026-05-03T16:39:44.29Z</time></trkpt><trkpt lat="44.9593443" lon="7.4126545"><ele>285.0</ele><time>2026-05-03T16:39:45.29Z</time></trkpt><trkpt lat="44.9594258" lon="7.4128327"><ele>285.5</ele><time>2026-05-03T16:39:46.291Z</time></trkpt><trkpt lat="44.9595042" lon="7.4130043"><ele>286.0</ele><time>2026-05-03T16:39:47.29Z</time></trkpt><trkpt lat="44.9595904" lon="7.4131805"><ele>286.5</ele><time>2026-05-03T16:39:48.29Z</time></trkpt><trkpt lat="44.9596778" lon="7.4133464"><ele>287.0</ele><time>2026-05-03T16:39:49.292Z</time></trkpt><trkpt lat="44.95977" lon="7.4135229"><ele>287.0</ele><time>2026-05-03T16:39:50.291Z</time></trkpt><trkpt lat="44.9598538" lon="7.4137001"><ele>287.0</ele><time>2026-05-03T16:39:51.291Z</time></trkpt><trkpt lat="44.959943" lon="7.4138834"><ele>287.0</ele><time>2026-05-03T16:39:52.29Z</time></trkpt><trkpt lat="44.9600274" lon="7.4140616"><ele>287.0</ele><time>2026-05-03T16:39:53.291Z</time></trkpt><trkpt lat="44.9601102" lon="7.4142443"><ele>287.0</ele><time>2026-05-03T16:39:54.291Z</time></trkpt><trkpt lat="44.9601953" lon="7.4144177"><ele>287.0</ele><time>2026-05-03T16:39:55.291Z</time></trkpt><trkpt lat="44.9602761" lon="7.4145803"><ele>287.0</ele><time>2026-05-03T16:39:56.29Z</time></trkpt><trkpt lat="44.9603574" lon="7.4147365"><ele>287.0</ele><time>2026-05-03T16:39:57.29Z</time></trkpt><trkpt lat="44.9604148" lon="7.4148781"><ele>287.0</ele><time>2026-05-03T16:39:58.29Z</time></trkpt><trkpt lat="44.9604664" lon="7.4150155"><ele>287.0</ele><time>2026-05-03T16:39:59.29Z</time></trkpt><trkpt lat="44.9604883" lon="7.4151253"><ele>287.0</ele><time>2026-05-03T16:40:00.292Z</time></trkpt><trkpt lat="44.9605091" lon="7.4152274"><ele>287.0</ele><time>2026-05-03T16:40:01.29Z</time></trkpt><trkpt lat="44.960526" lon="7.4153445"><ele>287.0</ele><time>2026-05-03T16:40:02.291Z</time></trkpt><trkpt lat="44.9605566" lon="7.4154653"><ele>287.0</ele><time>2026-05-03T16:40:03.292Z</time></trkpt><trkpt lat="44.9606072" lon="7.4155639"><ele>287.0</ele><time>2026-05-03T16:40:04.29Z</time></trkpt><trkpt lat="44.960688" lon="7.4156426"><ele>287.0</ele><time>2026-05-03T16:40:05.291Z</time></trkpt><trkpt lat="44.9607917" lon="7.415724"><ele>287.0</ele><time>2026-05-03T16:40:06.29Z</time></trkpt><trkpt lat="44.9608907" lon="7.4158469"><ele>287.0</ele><time>2026-05-03T16:40:07.29Z</time></trkpt><trkpt lat="44.9609908" lon="7.416012"><ele>287.0</ele><time>2026-05-03T16:40:08.29Z</time></trkpt><trkpt lat="44.9610928" lon="7.4162069"><ele>287.0</ele><time>2026-05-03T16:40:09.291Z</time></trkpt><trkpt lat="44.9612012" lon="7.416422"><ele>287.33333333333337</ele><time>2026-05-03T16:40:10.292Z</time></trkpt><trkpt lat="44.9613149" lon="7.4166534"><ele>287.6666666666667</ele><time>2026-05-03T16:40:11.29Z</time></trkpt><trkpt lat="44.9614318" lon="7.4168937"><ele>288.0</ele><time>2026-05-03T16:40:12.29Z</time></trkpt><trkpt lat="44.9615521" lon="7.4171442"><ele>287.0</ele><time>2026-05-03T16:40:13.291Z</time></trkpt><trkpt lat="44.9616716" lon="7.4173914"><ele>286.0</ele><time>2026-05-03T16:40:14.29Z</time></trkpt><trkpt lat="44.9617866" lon="7.4176238"><ele>285.0</ele><time>2026-05-03T16:40:15.292Z</time></trkpt><trkpt lat="44.9618952" lon="7.417851"><ele>284.6666666666667</ele><time>2026-05-03T16:40:16.29Z</time></trkpt><trkpt lat="44.9620057" lon="7.4180833"><ele>284.33333333333337</ele><time>2026-05-03T16:40:17.29Z</time></trkpt><trkpt lat="44.9621177" lon="7.4183094"><ele>284.0</ele><time>2026-05-03T16:40:18.291Z</time></trkpt><trkpt lat="44.9622256" lon="7.4185344"><ele>284.0</ele><time>2026-05-03T16:40:19.291Z</time></trkpt><trkpt lat="44.9623272" lon="7.4187528"><ele>284.0</ele><time>2026-05-03T16:40:20.291Z</time></trkpt><trkpt lat="44.9624311" lon="7.4189602"><ele>284.0</ele><time>2026-05-03T16:40:21.29Z</time></trkpt><trkpt lat="44.9625409" lon="7.4191888"><ele>284.0</ele><time>2026-05-03T16:40:22.29Z</time></trkpt><trkpt lat="44.9626498" lon="7.4194087"><ele>284.0</ele><time>2026-05-03T16:40:23.291Z</time></trkpt><trkpt lat="44.9627547" lon="7.4196368"><ele>284.0</ele><time>2026-05-03T16:40:24.29Z</time></trkpt><trkpt lat="44.9628638" lon="7.4198736"><ele>284.0</ele><time>2026-05-03T16:40:25.29Z</time></trkpt><trkpt lat="44.9629661" lon="7.4201026"><ele>284.0</ele><time>2026-05-03T16:40:26.291Z</time></trkpt><trkpt lat="44.9630792" lon="7.4203343"><ele>284.0</ele><time>2026-05-03T16:40:27.291Z</time></trkpt><trkpt lat="44.9631867" lon="7.4205536"><ele>284.0</ele><time>2026-05-03T16:40:28.291Z</time></trkpt><trkpt lat="44.9633001" lon="7.4207796"><ele>284.0</ele><time>2026-05-03T16:40:29.292Z</time></trkpt><trkpt lat="44.9634081" lon="7.421004"><ele>284.0</ele><time>2026-05-03T16:40:30.29Z</time></trkpt><trkpt lat="44.9635136" lon="7.4212285"><ele>283.0</ele><time>2026-05-03T16:40:31.291Z</time></trkpt><trkpt lat="44.9636222" lon="7.4214548"><ele>282.0</ele><time>2026-05-03T16:40:32.291Z</time></trkpt><trkpt lat="44.9637274" lon="7.421672"><ele>281.0</ele><time>2026-05-03T16:40:33.291Z</time></trkpt><trkpt lat="44.9638353" lon="7.4218922"><ele>281.0</ele><time>2026-05-03T16:40:34.291Z</time></trkpt><trkpt lat="44.9639431" lon="7.4221113"><ele>281.0</ele><time>2026-05-03T16:40:35.291Z</time></trkpt><trkpt lat="44.9640474" lon="7.4223246"><ele>281.0</ele><time>2026-05-03T16:40:36.29Z</time></trkpt><trkpt lat="44.9641537" lon="7.4225481"><ele>281.0</ele><time>2026-05-03T16:40:37.29Z</time></trkpt><trkpt lat="44.964263" lon="7.4227674"><ele>281.0</ele><time>2026-05-03T16:40:38.29Z</time></trkpt><trkpt lat="44.9643734" lon="7.4229947"><ele>281.0</ele><time>2026-05-03T16:40:39.29Z</time></trkpt><trkpt lat="44.9644836" lon="7.4232163"><ele>281.0</ele><time>2026-05-03T16:40:40.29Z</time></trkpt><trkpt lat="44.9645919" lon="7.4234407"><ele>281.0</ele><time>2026-05-03T16:40:41.291Z</time></trkpt><trkpt lat="44.9646973" lon="7.4236636"><ele>281.0</ele><time>2026-05-03T16:40:42.291Z</time></trkpt><trkpt lat="44.9647989" lon="7.4238921"><ele>280.6666666666667</ele><time>2026-05-03T16:40:43.291Z</time></trkpt><trkpt lat="44.9648963" lon="7.4241102"><ele>280.3333333333333</ele><time>2026-05-03T16:40:44.29Z</time></trkpt><trkpt lat="44.9650081" lon="7.4243415"><ele>280.0</ele><time>2026-05-03T16:40:45.29Z</time></trkpt><trkpt lat="44.96512" lon="7.4245726"><ele>282.3333333333333</ele><time>2026-05-03T16:40:46.291Z</time></trkpt><trkpt lat="44.9652333" lon="7.4248059"><ele>284.6666666666667</ele><time>2026-05-03T16:40:47.292Z</time></trkpt><trkpt lat="44.9653458" lon="7.4250427"><ele>287.0</ele><time>2026-05-03T16:40:48.291Z</time></trkpt><trkpt lat="44.9654593" lon="7.4252773"><ele>286.0</ele><time>2026-05-03T16:40:49.29Z</time></trkpt><trkpt lat="44.9655714" lon="7.4255085"><ele>285.0</ele><time>2026-05-03T16:40:50.29Z</time></trkpt><trkpt lat="44.9656843" lon="7.4257409"><ele>284.0</ele><time>2026-05-03T16:40:51.291Z</time></trkpt><trkpt lat="44.9657939" lon="7.4259749"><ele>284.0</ele><time>2026-05-03T16:40:52.292Z</time></trkpt><trkpt lat="44.9659071" lon="7.4262134"><ele>284.0</ele><time>2026-05-03T16:40:53.29Z</time></trkpt><trkpt lat="44.9660216" lon="7.4264467"><ele>284.0</ele><time>2026-05-03T16:40:54.29Z</time></trkpt><trkpt lat="44.9661364" lon="7.426679"><ele>283.6666666666667</ele><time>2026-05-03T16:40:55.29Z</time></trkpt><trkpt lat="44.9662483" lon="7.426907"><ele>283.3333333333333</ele><time>2026-05-03T16:40:56.29Z</time></trkpt><trkpt lat="44.9663632" lon="7.4271401"><ele>283.0</ele><time>2026-05-03T16:40:57.291Z</time></trkpt><trkpt lat="44.9664713" lon="7.4273693"><ele>283.0</ele><time>2026-05-03T16:40:58.29Z</time></trkpt><trkpt lat="44.9665774" lon="7.4275881"><ele>283.0</ele><time>2026-05-03T16:40:59.291Z</time></trkpt><trkpt lat="44.9666783" lon="7.4277909"><ele>283.0</ele><time>2026-05-03T16:41:00.29Z</time></trkpt><trkpt lat="44.966777" lon="7.427986"><ele>282.25</ele><time>2026-05-03T16:41:01.29Z</time></trkpt><trkpt lat="44.9668664" lon="7.4281775"><ele>281.5</ele><time>2026-05-03T16:41:02.29Z</time></trkpt><trkpt lat="44.9669467" lon="7.4283513"><ele>280.75</ele><time>2026-05-03T16:41:03.29Z</time></trkpt><trkpt lat="44.9670235" lon="7.4285098"><ele>280.0</ele><time>2026-05-03T16:41:04.29Z</time></trkpt><trkpt lat="44.9670946" lon="7.4286553"><ele>280.0</ele><time>2026-05-03T16:41:05.291Z</time></trkpt><trkpt lat="44.967165" lon="7.4288005"><ele>280.0</ele><time>2026-05-03T16:41:06.291Z</time></trkpt><trkpt lat="44.9672336" lon="7.428963"><ele>280.0</ele><time>2026-05-03T16:41:07.29Z</time></trkpt><trkpt lat="44.9673117" lon="7.4291397"><ele>280.0</ele><time>2026-05-03T16:41:08.291Z</time></trkpt><trkpt lat="44.9674031" lon="7.429337"><ele>279.0</ele><time>2026-05-03T16:41:09.291Z</time></trkpt><trkpt lat="44.9675092" lon="7.429541"><ele>278.0</ele><time>2026-05-03T16:41:10.291Z</time></trkpt><trkpt lat="44.967623" lon="7.4297578"><ele>277.0</ele><time>2026-05-03T16:41:11.291Z</time></trkpt><trkpt lat="44.96774" lon="7.4299967"><ele>277.0</ele><time>2026-05-03T16:41:12.29Z</time></trkpt><trkpt lat="44.9678549" lon="7.4302473"><ele>277.0</ele><time>2026-05-03T16:41:13.29Z</time></trkpt><trkpt lat="44.9679801" lon="7.4305093"><ele>277.0</ele><time>2026-05-03T16:41:14.29Z</time></trkpt><trkpt lat="44.9681065" lon="7.4307649"><ele>277.0</ele><time>2026-05-03T16:41:15.291Z</time></trkpt><trkpt lat="44.9682201" lon="7.431013"><ele>277.0</ele><time>2026-05-03T16:41:16.29Z</time></trkpt><trkpt lat="44.9683333" lon="7.4312569"><ele>277.0</ele><time>2026-05-03T16:41:17.291Z</time></trkpt><trkpt lat="44.9684467" lon="7.4314976"><ele>277.3333333333333</ele><time>2026-05-03T16:41:18.29Z</time></trkpt><trkpt lat="44.96856" lon="7.4317297"><ele>277.6666666666667</ele><time>2026-05-03T16:41:19.29Z</time></trkpt><trkpt lat="44.9686728" lon="7.4319569"><ele>278.0</ele><time>2026-05-03T16:41:20.291Z</time></trkpt><trkpt lat="44.9687811" lon="7.4321847"><ele>277.33333333333337</ele><time>2026-05-03T16:41:21.289Z</time></trkpt><trkpt lat="44.9688927" lon="7.4324139"><ele>276.6666666666667</ele><time>2026-05-03T16:41:22.29Z</time></trkpt><trkpt lat="44.9690036" lon="7.4326426"><ele>276.0</ele><time>2026-05-03T16:41:23.29Z</time></trkpt><trkpt lat="44.9691226" lon="7.4328802"><ele>275.6666666666667</ele><time>2026-05-03T16:41:24.289Z</time></trkpt><trkpt lat="44.9692336" lon="7.4331175"><ele>275.33333333333337</ele><time>2026-05-03T16:41:25.29Z</time></trkpt><trkpt lat="44.9693523" lon="7.4333555"><ele>275.0</ele><time>2026-05-03T16:41:26.29Z</time></trkpt><trkpt lat="44.9694635" lon="7.4335943"><ele>274.6666666666667</ele><time>2026-05-03T16:41:27.291Z</time></trkpt><trkpt lat="44.9695789" lon="7.4338263"><ele>274.3333333333333</ele><time>2026-05-03T16:41:28.292Z</time></trkpt><trkpt lat="44.9696928" lon="7.4340627"><ele>274.0</ele><time>2026-05-03T16:41:29.291Z</time></trkpt><trkpt lat="44.9698046" lon="7.4343017"><ele>274.0</ele><time>2026-05-03T16:41:30.289Z</time></trkpt><trkpt lat="44.9699204" lon="7.434526"><ele>274.0</ele><time>2026-05-03T16:41:31.291Z</time></trkpt><trkpt lat="44.9700311" lon="7.4347481"><ele>274.0</ele><time>2026-05-03T16:41:32.29Z</time></trkpt><trkpt lat="44.9701426" lon="7.4349735"><ele>274.3333333333333</ele><time>2026-05-03T16:41:33.292Z</time></trkpt><trkpt lat="44.9702543" lon="7.4352051"><ele>274.6666666666667</ele><time>2026-05-03T16:41:34.291Z</time></trkpt><trkpt lat="44.9703671" lon="7.4354336"><ele>275.0</ele><time>2026-05-03T16:41:35.291Z</time></trkpt><trkpt lat="44.9704829" lon="7.435668"><ele>275.33333333333337</ele><time>2026-05-03T16:41:36.291Z</time></trkpt><trkpt lat="44.9705953" lon="7.4358932"><ele>275.6666666666667</ele><time>2026-05-03T16:41:37.292Z</time></trkpt><trkpt lat="44.9707097" lon="7.4361292"><ele>276.0</ele><time>2026-05-03T16:41:38.291Z</time></trkpt><trkpt lat="44.9708171" lon="7.4363601"><ele>275.0</ele><time>2026-05-03T16:41:39.291Z</time></trkpt><trkpt lat="44.9709277" lon="7.4365864"><ele>274.0</ele><time>2026-05-03T16:41:40.291Z</time></trkpt><trkpt lat="44.9710375" lon="7.4368117"><ele>273.0</ele><time>2026-05-03T16:41:41.29Z</time></trkpt><trkpt lat="44.971147" lon="7.4370448"><ele>273.6666666666667</ele><time>2026-05-03T16:41:42.291Z</time></trkpt><trkpt lat="44.9712578" lon="7.4372678"><ele>274.33333333333337</ele><time>2026-05-03T16:41:43.29Z</time></trkpt><trkpt lat="44.9713728" lon="7.4374957"><ele>275.0</ele><time>2026-05-03T16:41:44.29Z</time></trkpt><trkpt lat="44.9714829" lon="7.4377164"><ele>275.0</ele><time>2026-05-03T16:41:45.29Z</time></trkpt><trkpt lat="44.9715927" lon="7.4379378"><ele>275.0</ele><time>2026-05-03T16:41:46.291Z</time></trkpt><trkpt lat="44.9716971" lon="7.438163"><ele>275.0</ele><time>2026-05-03T16:41:47.29Z</time></trkpt><trkpt lat="44.9717991" lon="7.438381"><ele>274.33333333333337</ele><time>2026-05-03T16:41:48.291Z</time></trkpt><trkpt lat="44.9719018" lon="7.438603"><ele>273.6666666666667</ele><time>2026-05-03T16:41:49.291Z</time></trkpt><trkpt lat="44.9720006" lon="7.4388173"><ele>273.0</ele><time>2026-05-03T16:41:50.291Z</time></trkpt><trkpt lat="44.9721035" lon="7.4390309"><ele>273.0</ele><time>2026-05-03T16:41:51.29Z</time></trkpt><trkpt lat="44.9722128" lon="7.4392468"><ele>273.0</ele><time>2026-05-03T16:41:52.29Z</time></trkpt><trkpt lat="44.9723198" lon="7.4394617"><ele>273.0</ele><time>2026-05-03T16:41:53.291Z</time></trkpt><trkpt lat="44.9724269" lon="7.4396765"><ele>274.0</ele><time>2026-05-03T16:41:54.29Z</time></trkpt><trkpt lat="44.9725272" lon="7.4398881"><ele>275.0</ele><time>2026-05-03T16:41:55.29Z</time></trkpt><trkpt lat="44.9726225" lon="7.4400992"><ele>276.0</ele><time>2026-05-03T16:41:56.29Z</time></trkpt><trkpt lat="44.9727236" lon="7.4402966"><ele>276.3333333333333</ele><time>2026-05-03T16:41:57.289Z</time></trkpt><trkpt lat="44.9728157" lon="7.4404856"><ele>276.66666666666663</ele><time>2026-05-03T16:41:58.29Z</time></trkpt><trkpt lat="44.9729039" lon="7.4406689"><ele>277.0</ele><time>2026-05-03T16:41:59.29Z</time></trkpt><trkpt lat="44.9729914" lon="7.4408557"><ele>277.0</ele><time>2026-05-03T16:42:00.29Z</time></trkpt><trkpt lat="44.9730747" lon="7.4410302"><ele>277.0</ele><time>2026-05-03T16:42:01.29Z</time></trkpt><trkpt lat="44.9731555" lon="7.4411988"><ele>277.0</ele><time>2026-05-03T16:42:02.29Z</time></trkpt><trkpt lat="44.9732308" lon="7.4413614"><ele>277.0</ele><time>2026-05-03T16:42:03.29Z</time></trkpt><trkpt lat="44.9733" lon="7.4415124"><ele>276.75</ele><time>2026-05-03T16:42:04.292Z</time></trkpt><trkpt lat="44.9733547" lon="7.4416721"><ele>276.5</ele><time>2026-05-03T16:42:05.291Z</time></trkpt><trkpt lat="44.9734043" lon="7.4418257"><ele>276.25</ele><time>2026-05-03T16:42:06.291Z</time></trkpt><trkpt lat="44.9734442" lon="7.4419839"><ele>276.0</ele><time>2026-05-03T16:42:07.29Z</time></trkpt><trkpt lat="44.9735082" lon="7.442127"><ele>276.0</ele><time>2026-05-03T16:42:08.291Z</time></trkpt><trkpt lat="44.973586" lon="7.4422674"><ele>276.0</ele><time>2026-05-03T16:42:09.29Z</time></trkpt><trkpt lat="44.9736696" lon="7.4424145"><ele>276.0</ele><time>2026-05-03T16:42:10.29Z</time></trkpt><trkpt lat="44.9737499" lon="7.4425684"><ele>276.0</ele><time>2026-05-03T16:42:11.29Z</time></trkpt><trkpt lat="44.9738293" lon="7.442725"><ele>276.0</ele><time>2026-05-03T16:42:12.29Z</time></trkpt><trkpt lat="44.9739052" lon="7.4428836"><ele>276.0</ele><time>2026-05-03T16:42:13.289Z</time></trkpt><trkpt lat="44.9739767" lon="7.4430378"><ele>276.0</ele><time>2026-05-03T16:42:14.29Z</time></trkpt><trkpt lat="44.9740489" lon="7.4431951"><ele>276.0</ele><time>2026-05-03T16:42:15.29Z</time></trkpt><trkpt lat="44.9741282" lon="7.4433713"><ele>277.0</ele><time>2026-05-03T16:42:16.289Z</time></trkpt><trkpt lat="44.9742161" lon="7.4435684"><ele>278.0</ele><time>2026-05-03T16:42:17.29Z</time></trkpt><trkpt lat="44.9743179" lon="7.4437921"><ele>279.0</ele><time>2026-05-03T16:42:18.291Z</time></trkpt><trkpt lat="44.9744105" lon="7.4440142"><ele>279.0</ele><time>2026-05-03T16:42:19.291Z</time></trkpt><trkpt lat="44.9744924" lon="7.4442152"><ele>279.0</ele><time>2026-05-03T16:42:20.291Z</time></trkpt><trkpt lat="44.9745705" lon="7.444404"><ele>279.0</ele><time>2026-05-03T16:42:21.29Z</time></trkpt><trkpt lat="44.974636" lon="7.4445836"><ele>279.75</ele><time>2026-05-03T16:42:22.291Z</time></trkpt><trkpt lat="44.9747009" lon="7.4447489"><ele>280.5</ele><time>2026-05-03T16:42:23.29Z</time></trkpt><trkpt lat="44.97476" lon="7.4449017"><ele>281.25</ele><time>2026-05-03T16:42:24.29Z</time></trkpt><trkpt lat="44.9748203" lon="7.4450449"><ele>282.0</ele><time>2026-05-03T16:42:25.29Z</time></trkpt><trkpt lat="44.9748797" lon="7.4451826"><ele>282.0</ele><time>2026-05-03T16:42:26.291Z</time></trkpt><trkpt lat="44.9749333" lon="7.4453282"><ele>282.0</ele><time>2026-05-03T16:42:27.289Z</time></trkpt><trkpt lat="44.9749802" lon="7.4454674"><ele>282.0</ele><time>2026-05-03T16:42:28.29Z</time></trkpt><trkpt lat="44.9750252" lon="7.4456051"><ele>282.0</ele><time>2026-05-03T16:42:29.291Z</time></trkpt><trkpt lat="44.9750655" lon="7.4457296"><ele>282.0</ele><time>2026-05-03T16:42:30.29Z</time></trkpt><trkpt lat="44.9751018" lon="7.4458401"><ele>282.0</ele><time>2026-05-03T16:42:31.29Z</time></trkpt><trkpt lat="44.9751338" lon="7.445944"><ele>282.0</ele><time>2026-05-03T16:42:32.29Z</time></trkpt><trkpt lat="44.9751568" lon="7.4460321"><ele>282.0</ele><time>2026-05-03T16:42:33.29Z</time></trkpt><trkpt lat="44.9751719" lon="7.4461276"><ele>282.0</ele><time>2026-05-03T16:42:34.291Z</time></trkpt><trkpt lat="44.9751855" lon="7.4462307"><ele>282.0</ele><time>2026-05-03T16:42:35.291Z</time></trkpt><trkpt lat="44.9751862" lon="7.4463391"><ele>282.0</ele><time>2026-05-03T16:42:36.29Z</time></trkpt><trkpt lat="44.9751994" lon="7.4464585"><ele>281.5</ele><time>2026-05-03T16:42:37.289Z</time></trkpt><trkpt lat="44.9752338" lon="7.4465733"><ele>281.0</ele><time>2026-05-03T16:42:38.291Z</time></trkpt><trkpt lat="44.9752765" lon="7.4466597"><ele>280.5</ele><time>2026-05-03T16:42:39.291Z</time></trkpt><trkpt lat="44.9753466" lon="7.4467052"><ele>280.0</ele><time>2026-05-03T16:42:40.291Z</time></trkpt><trkpt lat="44.9754241" lon="7.4467099"><ele>279.5</ele><time>2026-05-03T16:42:41.291Z</time></trkpt><trkpt lat="44.9754941" lon="7.4466902"><ele>279.0</ele><time>2026-05-03T16:42:42.29Z</time></trkpt><trkpt lat="44.9755668" lon="7.4466711"><ele>279.0</ele><time>2026-05-03T16:42:43.29Z</time></trkpt><trkpt lat="44.9756439" lon="7.4466782"><ele>279.0</ele><time>2026-05-03T16:42:44.289Z</time></trkpt><trkpt lat="44.9757165" lon="7.4467197"><ele>279.0</ele><time>2026-05-03T16:42:45.291Z</time></trkpt><trkpt lat="44.9757847" lon="7.446782"><ele>279.0</ele><time>2026-05-03T16:42:46.29Z</time></trkpt><trkpt lat="44.9758501" lon="7.4468632"><ele>279.0</ele><time>2026-05-03T16:42:47.29Z</time></trkpt><trkpt lat="44.9759109" lon="7.4469714"><ele>279.0</ele><time>2026-05-03T16:42:48.29Z</time></trkpt><trkpt lat="44.9759747" lon="7.4470879"><ele>280.0</ele><time>2026-05-03T16:42:49.291Z</time></trkpt><trkpt lat="44.9760373" lon="7.4472124"><ele>281.0</ele><time>2026-05-03T16:42:50.29Z</time></trkpt><trkpt lat="44.9761083" lon="7.4473521"><ele>282.0</ele><time>2026-05-03T16:42:51.29Z</time></trkpt><trkpt lat="44.976189" lon="7.4475004"><ele>283.0</ele><time>2026-05-03T16:42:52.289Z</time></trkpt><trkpt lat="44.9762833" lon="7.4476765"><ele>283.0</ele><time>2026-05-03T16:42:53.29Z</time></trkpt><trkpt lat="44.9763843" lon="7.4478724"><ele>283.0</ele><time>2026-05-03T16:42:54.29Z</time></trkpt><trkpt lat="44.9764817" lon="7.4480846"><ele>283.0</ele><time>2026-05-03T16:42:55.29Z</time></trkpt><trkpt lat="44.9765815" lon="7.4483016"><ele>282.66666666666663</ele><time>2026-05-03T16:42:56.291Z</time></trkpt><trkpt lat="44.9766846" lon="7.4485293"><ele>282.3333333333333</ele><time>2026-05-03T16:42:57.29Z</time></trkpt><trkpt lat="44.9767927" lon="7.4487542"><ele>282.0</ele><time>2026-05-03T16:42:58.291Z</time></trkpt><trkpt lat="44.976902" lon="7.4489674"><ele>282.0</ele><time>2026-05-03T16:42:59.29Z</time></trkpt><trkpt lat="44.9770051" lon="7.4491802"><ele>282.0</ele><time>2026-05-03T16:43:00.29Z</time></trkpt><trkpt lat="44.9771106" lon="7.4494003"><ele>282.0</ele><time>2026-05-03T16:43:01.29Z</time></trkpt><trkpt lat="44.9772103" lon="7.4496195"><ele>281.6666666666667</ele><time>2026-05-03T16:43:02.289Z</time></trkpt><trkpt lat="44.9773097" lon="7.4498303"><ele>281.33333333333337</ele><time>2026-05-03T16:43:03.29Z</time></trkpt><trkpt lat="44.9774082" lon="7.4500392"><ele>281.0</ele><time>2026-05-03T16:43:04.289Z</time></trkpt><trkpt lat="44.9775073" lon="7.4502502"><ele>279.33333333333337</ele><time>2026-05-03T16:43:05.29Z</time></trkpt><trkpt lat="44.9776079" lon="7.4504588"><ele>277.6666666666667</ele><time>2026-05-03T16:43:06.289Z</time></trkpt><trkpt lat="44.9777096" lon="7.4506643"><ele>276.0</ele><time>2026-05-03T16:43:07.29Z</time></trkpt><trkpt lat="44.9778026" lon="7.450862"><ele>276.0</ele><time>2026-05-03T16:43:08.292Z</time></trkpt><trkpt lat="44.9779034" lon="7.4510522"><ele>276.0</ele><time>2026-05-03T16:43:09.29Z</time></trkpt><trkpt lat="44.9780244" lon="7.4512254"><ele>276.0</ele><time>2026-05-03T16:43:10.29Z</time></trkpt><trkpt lat="44.9781586" lon="7.4513974"><ele>277.0</ele><time>2026-05-03T16:43:11.289Z</time></trkpt><trkpt lat="44.9782995" lon="7.451562"><ele>278.0</ele><time>2026-05-03T16:43:12.289Z</time></trkpt><trkpt lat="44.9784436" lon="7.4517323"><ele>279.0</ele><time>2026-05-03T16:43:13.29Z</time></trkpt><trkpt lat="44.9785884" lon="7.4519026"><ele>280.0</ele><time>2026-05-03T16:43:14.29Z</time></trkpt><trkpt lat="44.9787371" lon="7.4520696"><ele>281.0</ele><time>2026-05-03T16:43:15.289Z</time></trkpt><trkpt lat="44.9788823" lon="7.4522513"><ele>282.0</ele><time>2026-05-03T16:43:16.289Z</time></trkpt><trkpt lat="44.9790346" lon="7.4524228"><ele>282.3333333333333</ele><time>2026-05-03T16:43:17.29Z</time></trkpt><trkpt lat="44.9791829" lon="7.4525913"><ele>282.66666666666663</ele><time>2026-05-03T16:43:18.29Z</time></trkpt><trkpt lat="44.979331" lon="7.4527578"><ele>283.0</ele><time>2026-05-03T16:43:19.291Z</time></trkpt><trkpt lat="44.9794708" lon="7.4529209"><ele>283.66666666666663</ele><time>2026-05-03T16:43:20.29Z</time></trkpt><trkpt lat="44.9796145" lon="7.4530904"><ele>284.3333333333333</ele><time>2026-05-03T16:43:21.289Z</time></trkpt><trkpt lat="44.9797547" lon="7.4532604"><ele>285.0</ele><time>2026-05-03T16:43:22.29Z</time></trkpt><trkpt lat="44.9798941" lon="7.4534215"><ele>285.0</ele><time>2026-05-03T16:43:23.29Z</time></trkpt><trkpt lat="44.9800379" lon="7.4535758"><ele>285.0</ele><time>2026-05-03T16:43:24.289Z</time></trkpt><trkpt lat="44.9801694" lon="7.4537289"><ele>285.0</ele><time>2026-05-03T16:43:25.289Z</time></trkpt><trkpt lat="44.9802912" lon="7.4538793"><ele>285.0</ele><time>2026-05-03T16:43:26.29Z</time></trkpt><trkpt lat="44.9804124" lon="7.4540173"><ele>285.0</ele><time>2026-05-03T16:43:27.29Z</time></trkpt><trkpt lat="44.9805197" lon="7.4541432"><ele>285.0</ele><time>2026-05-03T16:43:28.29Z</time></trkpt><trkpt lat="44.9806188" lon="7.4542552"><ele>285.0</ele><time>2026-05-03T16:43:29.291Z</time></trkpt><trkpt lat="44.9807042" lon="7.4543597"><ele>285.0</ele><time>2026-05-03T16:43:30.29Z</time></trkpt><trkpt lat="44.9807805" lon="7.4544593"><ele>285.0</ele><time>2026-05-03T16:43:31.29Z</time></trkpt><trkpt lat="44.9808477" lon="7.4545717"><ele>285.0</ele><time>2026-05-03T16:43:32.289Z</time></trkpt><trkpt lat="44.9809132" lon="7.4546706"><ele>285.0</ele><time>2026-05-03T16:43:33.289Z</time></trkpt><trkpt lat="44.9809867" lon="7.4547447"><ele>285.0</ele><time>2026-05-03T16:43:34.29Z</time></trkpt><trkpt lat="44.9810528" lon="7.4547907"><ele>285.8333333333333</ele><time>2026-05-03T16:43:35.289Z</time></trkpt><trkpt lat="44.9811151" lon="7.4548323"><ele>286.6666666666667</ele><time>2026-05-03T16:43:36.29Z</time></trkpt><trkpt lat="44.9812081" lon="7.4549244"><ele>287.5</ele><time>2026-05-03T16:43:38.29Z</time></trkpt><trkpt lat="44.9812556" lon="7.4549882"><ele>288.33333333333337</ele><time>2026-05-03T16:43:39.289Z</time></trkpt><trkpt lat="44.9813127" lon="7.4550582"><ele>289.1666666666667</ele><time>2026-05-03T16:43:40.29Z</time></trkpt><trkpt lat="44.9813898" lon="7.4551427"><ele>290.0</ele><time>2026-05-03T16:43:41.29Z</time></trkpt><trkpt lat="44.9814732" lon="7.4552362"><ele>290.0</ele><time>2026-05-03T16:43:42.29Z</time></trkpt><trkpt lat="44.981562" lon="7.4553426"><ele>290.0</ele><time>2026-05-03T16:43:43.289Z</time></trkpt><trkpt lat="44.981667" lon="7.4554593"><ele>290.0</ele><time>2026-05-03T16:43:44.29Z</time></trkpt><trkpt lat="44.9817817" lon="7.4555816"><ele>290.0</ele><time>2026-05-03T16:43:45.29Z</time></trkpt><trkpt lat="44.9818997" lon="7.4557139"><ele>290.6666666666667</ele><time>2026-05-03T16:43:46.289Z</time></trkpt><trkpt lat="44.9820231" lon="7.4558584"><ele>291.3333333333333</ele><time>2026-05-03T16:43:47.29Z</time></trkpt><trkpt lat="44.9821456" lon="7.4559996"><ele>292.0</ele><time>2026-05-03T16:43:48.289Z</time></trkpt><trkpt lat="44.9822597" lon="7.4561312"><ele>292.0</ele><time>2026-05-03T16:43:49.291Z</time></trkpt><trkpt lat="44.9823763" lon="7.4562643"><ele>292.0</ele><time>2026-05-03T16:43:50.289Z</time></trkpt><trkpt lat="44.982491" lon="7.456389"><ele>292.0</ele><time>2026-05-03T16:43:51.289Z</time></trkpt><trkpt lat="44.9825947" lon="7.4565068"><ele>292.0</ele><time>2026-05-03T16:43:52.29Z</time></trkpt><trkpt lat="44.9826913" lon="7.4566135"><ele>292.0</ele><time>2026-05-03T16:43:53.29Z</time></trkpt><trkpt lat="44.982777" lon="7.4567207"><ele>292.0</ele><time>2026-05-03T16:43:54.289Z</time></trkpt><trkpt lat="44.982858" lon="7.4568301"><ele>292.0</ele><time>2026-05-03T16:43:55.289Z</time></trkpt><trkpt lat="44.9829444" lon="7.4569355"><ele>292.0</ele><time>2026-05-03T16:43:56.291Z</time></trkpt><trkpt lat="44.9830384" lon="7.4570459"><ele>291.75</ele><time>2026-05-03T16:43:57.29Z</time></trkpt><trkpt lat="44.9831404" lon="7.4571493"><ele>291.5</ele><time>2026-05-03T16:43:58.29Z</time></trkpt><trkpt lat="44.983231" lon="7.4572561"><ele>291.25</ele><time>2026-05-03T16:43:59.29Z</time></trkpt><trkpt lat="44.9833167" lon="7.4573517"><ele>291.0</ele><time>2026-05-03T16:44:00.289Z</time></trkpt><trkpt lat="44.9833964" lon="7.4574413"><ele>291.3333333333333</ele><time>2026-05-03T16:44:01.29Z</time></trkpt><trkpt lat="44.9834665" lon="7.4575277"><ele>291.6666666666667</ele><time>2026-05-03T16:44:02.289Z</time></trkpt><trkpt lat="44.9835292" lon="7.4576073"><ele>292.0</ele><time>2026-05-03T16:44:03.289Z</time></trkpt><trkpt lat="44.9835878" lon="7.4576763"><ele>292.33333333333337</ele><time>2026-05-03T16:44:04.29Z</time></trkpt><trkpt lat="44.9836453" lon="7.4577378"><ele>292.6666666666667</ele><time>2026-05-03T16:44:05.291Z</time></trkpt><trkpt lat="44.9837019" lon="7.4577964"><ele>293.0</ele><time>2026-05-03T16:44:06.29Z</time></trkpt><trkpt lat="44.9837947" lon="7.4579093"><ele>292.83333333333337</ele><time>2026-05-03T16:44:08.29Z</time></trkpt><trkpt lat="44.9838462" lon="7.4579775"><ele>292.6666666666667</ele><time>2026-05-03T16:44:09.292Z</time></trkpt><trkpt lat="44.9839045" lon="7.4580375"><ele>292.5</ele><time>2026-05-03T16:44:10.291Z</time></trkpt><trkpt lat="44.9839625" lon="7.4581092"><ele>292.3333333333333</ele><time>2026-05-03T16:44:11.29Z</time></trkpt><trkpt lat="44.9840242" lon="7.4581799"><ele>292.16666666666663</ele><time>2026-05-03T16:44:12.29Z</time></trkpt><trkpt lat="44.9840714" lon="7.4582459"><ele>292.0</ele><time>2026-05-03T16:44:13.29Z</time></trkpt><trkpt lat="44.9841508" lon="7.4583564"><ele>292.6</ele><time>2026-05-03T16:44:15.291Z</time></trkpt><trkpt lat="44.9842121" lon="7.458468"><ele>293.2</ele><time>2026-05-03T16:44:17.291Z</time></trkpt><trkpt lat="44.9842613" lon="7.4585855"><ele>293.8</ele><time>2026-05-03T16:44:19.289Z</time></trkpt><trkpt lat="44.9843674" lon="7.4586629"><ele>294.4</ele><time>2026-05-03T16:44:21.291Z</time></trkpt><trkpt lat="44.9844498" lon="7.4586988"><ele>295.0</ele><time>2026-05-03T16:44:22.29Z</time></trkpt><trkpt lat="44.98453" lon="7.4587626"><ele>294.5</ele><time>2026-05-03T16:44:23.289Z</time></trkpt><trkpt lat="44.98462" lon="7.4588572"><ele>294.0</ele><time>2026-05-03T16:44:24.289Z</time></trkpt><trkpt lat="44.9847261" lon="7.458978"><ele>293.5</ele><time>2026-05-03T16:44:25.289Z</time></trkpt><trkpt lat="44.9848255" lon="7.4590959"><ele>293.0</ele><time>2026-05-03T16:44:26.291Z</time></trkpt><trkpt lat="44.9849234" lon="7.4592129"><ele>293.25</ele><time>2026-05-03T16:44:27.289Z</time></trkpt><trkpt lat="44.9850208" lon="7.4593247"><ele>293.5</ele><time>2026-05-03T16:44:28.29Z</time></trkpt><trkpt lat="44.9851189" lon="7.4594414"><ele>293.75</ele><time>2026-05-03T16:44:29.29Z</time></trkpt><trkpt lat="44.985226" lon="7.4595588"><ele>294.0</ele><time>2026-05-03T16:44:30.29Z</time></trkpt><trkpt lat="44.9853339" lon="7.4596765"><ele>294.0</ele><time>2026-05-03T16:44:31.292Z</time></trkpt><trkpt lat="44.9854382" lon="7.4598004"><ele>294.0</ele><time>2026-05-03T16:44:32.29Z</time></trkpt><trkpt lat="44.9855297" lon="7.4599077"><ele>294.0</ele><time>2026-05-03T16:44:33.291Z</time></trkpt><trkpt lat="44.9856198" lon="7.4600201"><ele>294.0</ele><time>2026-05-03T16:44:34.291Z</time></trkpt><trkpt lat="44.9857181" lon="7.4601253"><ele>294.0</ele><time>2026-05-03T16:44:35.291Z</time></trkpt><trkpt lat="44.9858166" lon="7.4602314"><ele>294.0</ele><time>2026-05-03T16:44:36.29Z</time></trkpt><trkpt lat="44.9859125" lon="7.4603438"><ele>294.0</ele><time>2026-05-03T16:44:37.29Z</time></trkpt><trkpt lat="44.9860128" lon="7.4604595"><ele>294.0</ele><time>2026-05-03T16:44:38.289Z</time></trkpt><trkpt lat="44.9861109" lon="7.4605722"><ele>294.5</ele><time>2026-05-03T16:44:39.29Z</time></trkpt><trkpt lat="44.9862145" lon="7.4606932"><ele>295.0</ele><time>2026-05-03T16:44:40.29Z</time></trkpt><trkpt lat="44.9863146" lon="7.4608045"><ele>295.5</ele><time>2026-05-03T16:44:41.29Z</time></trkpt><trkpt lat="44.9863969" lon="7.4609015"><ele>296.0</ele><time>2026-05-03T16:44:42.29Z</time></trkpt><trkpt lat="44.9864715" lon="7.4609869"><ele>296.0</ele><time>2026-05-03T16:44:43.29Z</time></trkpt><trkpt lat="44.9865387" lon="7.461056"><ele>296.0</ele><time>2026-05-03T16:44:44.289Z</time></trkpt><trkpt lat="44.9865977" lon="7.4611305"><ele>296.0</ele><time>2026-05-03T16:44:45.289Z</time></trkpt><trkpt lat="44.9866615" lon="7.4612148"><ele>296.0</ele><time>2026-05-03T16:44:46.289Z</time></trkpt><trkpt lat="44.9867427" lon="7.4613076"><ele>296.0</ele><time>2026-05-03T16:44:47.291Z</time></trkpt><trkpt lat="44.986829" lon="7.4614149"><ele>296.25</ele><time>2026-05-03T16:44:48.29Z</time></trkpt><trkpt lat="44.9869308" lon="7.4615313"><ele>296.5</ele><time>2026-05-03T16:44:49.29Z</time></trkpt><trkpt lat="44.9870263" lon="7.4616432"><ele>296.75</ele><time>2026-05-03T16:44:50.29Z</time></trkpt><trkpt lat="44.9871192" lon="7.4617542"><ele>297.0</ele><time>2026-05-03T16:44:51.29Z</time></trkpt><trkpt lat="44.9872151" lon="7.4618574"><ele>297.0</ele><time>2026-05-03T16:44:52.289Z</time></trkpt><trkpt lat="44.9873076" lon="7.4619638"><ele>297.0</ele><time>2026-05-03T16:44:53.289Z</time></trkpt><trkpt lat="44.9873981" lon="7.4620608"><ele>297.0</ele><time>2026-05-03T16:44:54.289Z</time></trkpt><trkpt lat="44.9874935" lon="7.4621693"><ele>297.0</ele><time>2026-05-03T16:44:55.29Z</time></trkpt><trkpt lat="44.9875884" lon="7.4622813"><ele>297.4</ele><time>2026-05-03T16:44:56.29Z</time></trkpt><trkpt lat="44.9876732" lon="7.4623817"><ele>297.79999999999995</ele><time>2026-05-03T16:44:57.29Z</time></trkpt><trkpt lat="44.9877543" lon="7.462466"><ele>298.2</ele><time>2026-05-03T16:44:58.29Z</time></trkpt><trkpt lat="44.9878292" lon="7.4625538"><ele>298.59999999999997</ele><time>2026-05-03T16:44:59.29Z</time></trkpt><trkpt lat="44.9878937" lon="7.4626281"><ele>299.0</ele><time>2026-05-03T16:45:00.289Z</time></trkpt><trkpt lat="44.9879853" lon="7.4627322"><ele>299.0</ele><time>2026-05-03T16:45:02.289Z</time></trkpt><trkpt lat="44.988038" lon="7.4627833"><ele>299.0</ele><time>2026-05-03T16:45:05.289Z</time></trkpt><trkpt lat="44.9881169" lon="7.4628734"><ele>299.0</ele><time>2026-05-03T16:45:35.29Z</time></trkpt><trkpt lat="44.9881815" lon="7.4629488"><ele>299.0</ele><time>2026-05-03T16:45:36.29Z</time></trkpt><trkpt lat="44.9882646" lon="7.4630402"><ele>299.0</ele><time>2026-05-03T16:45:37.289Z</time></trkpt><trkpt lat="44.9883496" lon="7.463157"><ele>298.75</ele><time>2026-05-03T16:45:38.291Z</time></trkpt><trkpt lat="44.9884543" lon="7.463281"><ele>298.5</ele><time>2026-05-03T16:45:39.289Z</time></trkpt><trkpt lat="44.988558" lon="7.4634085"><ele>298.25</ele><time>2026-05-03T16:45:40.289Z</time></trkpt><trkpt lat="44.9886661" lon="7.4635287"><ele>298.0</ele><time>2026-05-03T16:45:41.289Z</time></trkpt><trkpt lat="44.9887736" lon="7.4636558"><ele>297.75</ele><time>2026-05-03T16:45:42.291Z</time></trkpt><trkpt lat="44.9888687" lon="7.4637805"><ele>297.5</ele><time>2026-05-03T16:45:43.29Z</time></trkpt><trkpt lat="44.9889596" lon="7.4639138"><ele>297.25</ele><time>2026-05-03T16:45:44.29Z</time></trkpt><trkpt lat="44.9890435" lon="7.4640567"><ele>297.0</ele><time>2026-05-03T16:45:45.29Z</time></trkpt><trkpt lat="44.9891135" lon="7.4642158"><ele>297.0</ele><time>2026-05-03T16:45:46.29Z</time></trkpt><trkpt lat="44.9891695" lon="7.4644041"><ele>297.0</ele><time>2026-05-03T16:45:47.289Z</time></trkpt><trkpt lat="44.9892158" lon="7.4645942"><ele>297.0</ele><time>2026-05-03T16:45:48.291Z</time></trkpt><trkpt lat="44.9892685" lon="7.4647851"><ele>297.0</ele><time>2026-05-03T16:45:49.289Z</time></trkpt><trkpt lat="44.9893133" lon="7.4649714"><ele>297.0</ele><time>2026-05-03T16:45:50.29Z</time></trkpt><trkpt lat="44.9893513" lon="7.4651523"><ele>297.0</ele><time>2026-05-03T16:45:51.29Z</time></trkpt><trkpt lat="44.9893883" lon="7.4653287"><ele>297.0</ele><time>2026-05-03T16:45:52.289Z</time></trkpt><trkpt lat="44.9894354" lon="7.4655139"><ele>297.0</ele><time>2026-05-03T16:45:53.289Z</time></trkpt><trkpt lat="44.9894788" lon="7.4657043"><ele>297.0</ele><time>2026-05-03T16:45:54.29Z</time></trkpt><trkpt lat="44.9895252" lon="7.4659"><ele>297.0</ele><time>2026-05-03T16:45:55.291Z</time></trkpt><trkpt lat="44.9895717" lon="7.4661145"><ele>297.0</ele><time>2026-05-03T16:45:56.29Z</time></trkpt><trkpt lat="44.9896236" lon="7.4663206"><ele>297.3333333333333</ele><time>2026-05-03T16:45:57.29Z</time></trkpt><trkpt lat="44.9896648" lon="7.4665307"><ele>297.66666666666663</ele><time>2026-05-03T16:45:58.288Z</time></trkpt><trkpt lat="44.9897133" lon="7.4667348"><ele>298.0</ele><time>2026-05-03T16:45:59.29Z</time></trkpt><trkpt lat="44.9897576" lon="7.4669325"><ele>298.25</ele><time>2026-05-03T16:46:00.289Z</time></trkpt><trkpt lat="44.9897959" lon="7.4671129"><ele>298.5</ele><time>2026-05-03T16:46:01.29Z</time></trkpt><trkpt lat="44.9898228" lon="7.4672827"><ele>298.75</ele><time>2026-05-03T16:46:02.289Z</time></trkpt><trkpt lat="44.9898571" lon="7.4674356"><ele>299.0</ele><time>2026-05-03T16:46:03.289Z</time></trkpt><trkpt lat="44.9898862" lon="7.4675854"><ele>299.0</ele><time>2026-05-03T16:46:04.289Z</time></trkpt><trkpt lat="44.9899025" lon="7.467718"><ele>299.0</ele><time>2026-05-03T16:46:05.289Z</time></trkpt><trkpt lat="44.9899124" lon="7.4678279"><ele>299.0</ele><time>2026-05-03T16:46:06.29Z</time></trkpt><trkpt lat="44.9899027" lon="7.467931"><ele>299.0</ele><time>2026-05-03T16:46:07.289Z</time></trkpt><trkpt lat="44.9898953" lon="7.4680316"><ele>299.0</ele><time>2026-05-03T16:46:08.289Z</time></trkpt><trkpt lat="44.9899254" lon="7.4681964"><ele>299.0</ele><time>2026-05-03T16:46:10.289Z</time></trkpt><trkpt lat="44.9899961" lon="7.4682122"><ele>298.8</ele><time>2026-05-03T16:46:11.29Z</time></trkpt><trkpt lat="44.9900679" lon="7.468204"><ele>298.59999999999997</ele><time>2026-05-03T16:46:12.289Z</time></trkpt><trkpt lat="44.9901696" lon="7.4681631"><ele>298.4</ele><time>2026-05-03T16:46:13.29Z</time></trkpt><trkpt lat="44.9902909" lon="7.4681324"><ele>298.2</ele><time>2026-05-03T16:46:14.289Z</time></trkpt><trkpt lat="44.9904144" lon="7.4681173"><ele>298.0</ele><time>2026-05-03T16:46:15.289Z</time></trkpt><trkpt lat="44.9905442" lon="7.4681028"><ele>298.0</ele><time>2026-05-03T16:46:16.29Z</time></trkpt><trkpt lat="44.9906712" lon="7.4680777"><ele>298.0</ele><time>2026-05-03T16:46:17.29Z</time></trkpt><trkpt lat="44.9908056" lon="7.4680656"><ele>298.0</ele><time>2026-05-03T16:46:18.288Z</time></trkpt><trkpt lat="44.9909334" lon="7.4680479"><ele>298.0</ele><time>2026-05-03T16:46:19.289Z</time></trkpt><trkpt lat="44.9910538" lon="7.4680301"><ele>298.0</ele><time>2026-05-03T16:46:20.29Z</time></trkpt><trkpt lat="44.9911574" lon="7.4680233"><ele>298.0</ele><time>2026-05-03T16:46:21.289Z</time></trkpt><trkpt lat="44.9912599" lon="7.4680049"><ele>298.0</ele><time>2026-05-03T16:46:22.289Z</time></trkpt><trkpt lat="44.9913467" lon="7.4679947"><ele>298.0</ele><time>2026-05-03T16:46:23.29Z</time></trkpt><trkpt lat="44.9914327" lon="7.4679821"><ele>298.0</ele><time>2026-05-03T16:46:24.29Z</time></trkpt><trkpt lat="44.9915152" lon="7.4679719"><ele>298.0</ele><time>2026-05-03T16:46:25.289Z</time></trkpt><trkpt lat="44.9915897" lon="7.4679697"><ele>298.0</ele><time>2026-05-03T16:46:26.29Z</time></trkpt><trkpt lat="44.9916625" lon="7.4679614"><ele>298.0</ele><time>2026-05-03T16:46:27.29Z</time></trkpt><trkpt lat="44.9917328" lon="7.4679513"><ele>298.0</ele><time>2026-05-03T16:46:28.29Z</time></trkpt><trkpt lat="44.9917999" lon="7.4679422"><ele>298.0</ele><time>2026-05-03T16:46:29.289Z</time></trkpt><trkpt lat="44.9918734" lon="7.4679304"><ele>298.0</ele><time>2026-05-03T16:46:30.29Z</time></trkpt><trkpt lat="44.9919543" lon="7.4679305"><ele>298.0</ele><time>2026-05-03T16:46:31.289Z</time></trkpt><trkpt lat="44.9920358" lon="7.467922"><ele>298.0</ele><time>2026-05-03T16:46:32.289Z</time></trkpt><trkpt lat="44.992113" lon="7.4679091"><ele>298.0</ele><time>2026-05-03T16:46:33.289Z</time></trkpt><trkpt lat="44.9921961" lon="7.4678873"><ele>298.0</ele><time>2026-05-03T16:46:34.29Z</time></trkpt><trkpt lat="44.9922705" lon="7.4678736"><ele>298.0</ele><time>2026-05-03T16:46:35.29Z</time></trkpt><trkpt lat="44.9923386" lon="7.46788"><ele>298.0</ele><time>2026-05-03T16:46:36.291Z</time></trkpt><trkpt lat="44.992438" lon="7.4679929"><ele>298.0</ele><time>2026-05-03T16:46:38.29Z</time></trkpt><trkpt lat="44.9924824" lon="7.4681035"><ele>298.5</ele><time>2026-05-03T16:46:39.288Z</time></trkpt><trkpt lat="44.9925364" lon="7.4682308"><ele>299.0</ele><time>2026-05-03T16:46:40.29Z</time></trkpt><trkpt lat="44.9926011" lon="7.4683778"><ele>299.5</ele><time>2026-05-03T16:46:41.289Z</time></trkpt><trkpt lat="44.9926689" lon="7.4685287"><ele>300.0</ele><time>2026-05-03T16:46:42.291Z</time></trkpt><trkpt lat="44.9927421" lon="7.4686959"><ele>299.75</ele><time>2026-05-03T16:46:43.288Z</time></trkpt><trkpt lat="44.9928141" lon="7.4688658"><ele>299.5</ele><time>2026-05-03T16:46:44.29Z</time></trkpt><trkpt lat="44.9928986" lon="7.469036"><ele>299.25</ele><time>2026-05-03T16:46:45.289Z</time></trkpt><trkpt lat="44.9929656" lon="7.4692027"><ele>299.0</ele><time>2026-05-03T16:46:46.288Z</time></trkpt><trkpt lat="44.9930332" lon="7.4693749"><ele>299.0</ele><time>2026-05-03T16:46:47.29Z</time></trkpt><trkpt lat="44.9930986" lon="7.4695457"><ele>299.0</ele><time>2026-05-03T16:46:48.29Z</time></trkpt><trkpt lat="44.9931719" lon="7.4697185"><ele>299.0</ele><time>2026-05-03T16:46:49.291Z</time></trkpt><trkpt lat="44.9932432" lon="7.4698879"><ele>299.0</ele><time>2026-05-03T16:46:50.289Z</time></trkpt><trkpt lat="44.9933129" lon="7.4700423"><ele>298.75</ele><time>2026-05-03T16:46:51.291Z</time></trkpt><trkpt lat="44.9933762" lon="7.4701956"><ele>298.5</ele><time>2026-05-03T16:46:52.291Z</time></trkpt><trkpt lat="44.993436" lon="7.4703437"><ele>298.25</ele><time>2026-05-03T16:46:53.289Z</time></trkpt><trkpt lat="44.9934925" lon="7.4704963"><ele>298.0</ele><time>2026-05-03T16:46:54.289Z</time></trkpt><trkpt lat="44.9935628" lon="7.4706526"><ele>297.75</ele><time>2026-05-03T16:46:55.289Z</time></trkpt><trkpt lat="44.9936367" lon="7.4708038"><ele>297.5</ele><time>2026-05-03T16:46:56.29Z</time></trkpt><trkpt lat="44.9937105" lon="7.4709496"><ele>297.25</ele><time>2026-05-03T16:46:57.29Z</time></trkpt><trkpt lat="44.9937779" lon="7.4710848"><ele>297.0</ele><time>2026-05-03T16:46:58.29Z</time></trkpt><trkpt lat="44.9938435" lon="7.4712108"><ele>297.0</ele><time>2026-05-03T16:46:59.289Z</time></trkpt><trkpt lat="44.9939125" lon="7.471336"><ele>297.0</ele><time>2026-05-03T16:47:00.289Z</time></trkpt><trkpt lat="44.9939784" lon="7.4714511"><ele>297.0</ele><time>2026-05-03T16:47:01.29Z</time></trkpt><trkpt lat="44.9940496" lon="7.4715753"><ele>297.0</ele><time>2026-05-03T16:47:02.29Z</time></trkpt><trkpt lat="44.9941356" lon="7.471712"><ele>297.25</ele><time>2026-05-03T16:47:03.289Z</time></trkpt><trkpt lat="44.9942186" lon="7.4718638"><ele>297.5</ele><time>2026-05-03T16:47:04.29Z</time></trkpt><trkpt lat="44.9943103" lon="7.4720252"><ele>297.75</ele><time>2026-05-03T16:47:05.29Z</time></trkpt><trkpt lat="44.9943959" lon="7.4721766"><ele>298.0</ele><time>2026-05-03T16:47:06.289Z</time></trkpt><trkpt lat="44.9944897" lon="7.4723188"><ele>297.5</ele><time>2026-05-03T16:47:07.289Z</time></trkpt><trkpt lat="44.9945786" lon="7.4724599"><ele>297.0</ele><time>2026-05-03T16:47:08.29Z</time></trkpt><trkpt lat="44.9946679" lon="7.4726117"><ele>296.5</ele><time>2026-05-03T16:47:09.29Z</time></trkpt><trkpt lat="44.994759" lon="7.4727628"><ele>296.0</ele><time>2026-05-03T16:47:10.29Z</time></trkpt><trkpt lat="44.9948567" lon="7.4729207"><ele>295.6666666666667</ele><time>2026-05-03T16:47:11.29Z</time></trkpt><trkpt lat="44.9949556" lon="7.4730833"><ele>295.3333333333333</ele><time>2026-05-03T16:47:12.289Z</time></trkpt><trkpt lat="44.9950606" lon="7.4732502"><ele>295.0</ele><time>2026-05-03T16:47:13.289Z</time></trkpt><trkpt lat="44.9951623" lon="7.4734102"><ele>295.0</ele><time>2026-05-03T16:47:14.289Z</time></trkpt><trkpt lat="44.9952513" lon="7.4735705"><ele>295.0</ele><time>2026-05-03T16:47:15.289Z</time></trkpt><trkpt lat="44.9953485" lon="7.4737145"><ele>295.0</ele><time>2026-05-03T16:47:16.29Z</time></trkpt><trkpt lat="44.9954463" lon="7.4738647"><ele>295.0</ele><time>2026-05-03T16:47:17.29Z</time></trkpt><trkpt lat="44.9955433" lon="7.4740117"><ele>295.0</ele><time>2026-05-03T16:47:18.289Z</time></trkpt><trkpt lat="44.9956482" lon="7.4741618"><ele>295.0</ele><time>2026-05-03T16:47:19.29Z</time></trkpt><trkpt lat="44.9957661" lon="7.4743041"><ele>295.0</ele><time>2026-05-03T16:47:20.289Z</time></trkpt><trkpt lat="44.9958912" lon="7.4744438"><ele>295.0</ele><time>2026-05-03T16:47:21.29Z</time></trkpt><trkpt lat="44.9960254" lon="7.4745861"><ele>295.0</ele><time>2026-05-03T16:47:22.288Z</time></trkpt><trkpt lat="44.996152" lon="7.4747229"><ele>295.0</ele><time>2026-05-03T16:47:23.29Z</time></trkpt><trkpt lat="44.996274" lon="7.474847"><ele>295.0</ele><time>2026-05-03T16:47:24.289Z</time></trkpt><trkpt lat="44.9963902" lon="7.4749708"><ele>295.0</ele><time>2026-05-03T16:47:25.29Z</time></trkpt><trkpt lat="44.9965065" lon="7.4751014"><ele>295.0</ele><time>2026-05-03T16:47:26.288Z</time></trkpt><trkpt lat="44.9966108" lon="7.4752135"><ele>295.0</ele><time>2026-05-03T16:47:27.288Z</time></trkpt><trkpt lat="44.9967108" lon="7.4753294"><ele>295.25</ele><time>2026-05-03T16:47:28.289Z</time></trkpt><trkpt lat="44.996816" lon="7.4754531"><ele>295.5</ele><time>2026-05-03T16:47:29.289Z</time></trkpt><trkpt lat="44.9969233" lon="7.4755932"><ele>295.75</ele><time>2026-05-03T16:47:30.289Z</time></trkpt><trkpt lat="44.9970246" lon="7.4757398"><ele>296.0</ele><time>2026-05-03T16:47:31.289Z</time></trkpt><trkpt lat="44.9971354" lon="7.4758794"><ele>296.0</ele><time>2026-05-03T16:47:32.288Z</time></trkpt><trkpt lat="44.9972643" lon="7.4760156"><ele>296.0</ele><time>2026-05-03T16:47:33.29Z</time></trkpt><trkpt lat="44.9973942" lon="7.4761473"><ele>296.0</ele><time>2026-05-03T16:47:34.291Z</time></trkpt><trkpt lat="44.997524" lon="7.476275"><ele>296.33333333333337</ele><time>2026-05-03T16:47:35.291Z</time></trkpt><trkpt lat="44.9976519" lon="7.4764134"><ele>296.6666666666667</ele><time>2026-05-03T16:47:36.289Z</time></trkpt><trkpt lat="44.9977832" lon="7.4765639"><ele>297.0</ele><time>2026-05-03T16:47:37.288Z</time></trkpt><trkpt lat="44.9979076" lon="7.4767221"><ele>297.0</ele><time>2026-05-03T16:47:38.289Z</time></trkpt><trkpt lat="44.9980225" lon="7.4768777"><ele>297.0</ele><time>2026-05-03T16:47:39.289Z</time></trkpt><trkpt lat="44.9981433" lon="7.4770467"><ele>297.0</ele><time>2026-05-03T16:47:40.289Z</time></trkpt><trkpt lat="44.9982612" lon="7.477224"><ele>296.6666666666667</ele><time>2026-05-03T16:47:41.29Z</time></trkpt><trkpt lat="44.9983764" lon="7.4774118"><ele>296.33333333333337</ele><time>2026-05-03T16:47:42.289Z</time></trkpt><trkpt lat="44.9984882" lon="7.4775968"><ele>296.0</ele><time>2026-05-03T16:47:43.288Z</time></trkpt><trkpt lat="44.9985997" lon="7.4777911"><ele>296.33333333333337</ele><time>2026-05-03T16:47:44.288Z</time></trkpt><trkpt lat="44.9987133" lon="7.4779863"><ele>296.6666666666667</ele><time>2026-05-03T16:47:45.29Z</time></trkpt><trkpt lat="44.9988242" lon="7.4781842"><ele>297.0</ele><time>2026-05-03T16:47:46.288Z</time></trkpt><trkpt lat="44.9989423" lon="7.4783697"><ele>297.0</ele><time>2026-05-03T16:47:47.289Z</time></trkpt><trkpt lat="44.9990568" lon="7.4785542"><ele>297.0</ele><time>2026-05-03T16:47:48.29Z</time></trkpt><trkpt lat="44.999176" lon="7.478732"><ele>297.0</ele><time>2026-05-03T16:47:49.289Z</time></trkpt><trkpt lat="44.9992927" lon="7.4789054"><ele>296.3333333333333</ele><time>2026-05-03T16:47:50.289Z</time></trkpt><trkpt lat="44.9994138" lon="7.4790747"><ele>295.66666666666663</ele><time>2026-05-03T16:47:51.288Z</time></trkpt><trkpt lat="44.9995344" lon="7.4792477"><ele>295.0</ele><time>2026-05-03T16:47:52.288Z</time></trkpt><trkpt lat="44.9996624" lon="7.4794262"><ele>295.0</ele><time>2026-05-03T16:47:53.288Z</time></trkpt><trkpt lat="44.9997835" lon="7.479602"><ele>295.0</ele><time>2026-05-03T16:47:54.289Z</time></trkpt><trkpt lat="44.9999005" lon="7.4797661"><ele>295.0</ele><time>2026-05-03T16:47:55.289Z</time></trkpt><trkpt lat="45.0000212" lon="7.4799484"><ele>295.0</ele><time>2026-05-03T16:47:56.289Z</time></trkpt><trkpt lat="45.0001394" lon="7.4801225"><ele>295.0</ele><time>2026-05-03T16:47:57.29Z</time></trkpt><trkpt lat="45.0002592" lon="7.4802909"><ele>295.0</ele><time>2026-05-03T16:47:58.289Z</time></trkpt><trkpt lat="45.0003835" lon="7.4804481"><ele>294.66666666666663</ele><time>2026-05-03T16:47:59.288Z</time></trkpt><trkpt lat="45.0005091" lon="7.4805951"><ele>294.3333333333333</ele><time>2026-05-03T16:48:00.289Z</time></trkpt><trkpt lat="45.0006252" lon="7.4807601"><ele>294.0</ele><time>2026-05-03T16:48:01.289Z</time></trkpt><trkpt lat="45.0007316" lon="7.4809253"><ele>294.0</ele><time>2026-05-03T16:48:02.288Z</time></trkpt><trkpt lat="45.0008242" lon="7.4811202"><ele>294.0</ele><time>2026-05-03T16:48:03.289Z</time></trkpt><trkpt lat="45.0009093" lon="7.4813354"><ele>294.0</ele><time>2026-05-03T16:48:04.29Z</time></trkpt><trkpt lat="45.0009893" lon="7.4815608"><ele>292.6666666666667</ele><time>2026-05-03T16:48:05.289Z</time></trkpt><trkpt lat="45.0010637" lon="7.4817892"><ele>291.33333333333337</ele><time>2026-05-03T16:48:06.29Z</time></trkpt><trkpt lat="45.0011303" lon="7.4820132"><ele>290.0</ele><time>2026-05-03T16:48:07.288Z</time></trkpt><trkpt lat="45.0011963" lon="7.4822394"><ele>289.0</ele><time>2026-05-03T16:48:08.288Z</time></trkpt><trkpt lat="45.0012542" lon="7.4824585"><ele>288.0</ele><time>2026-05-03T16:48:09.289Z</time></trkpt><trkpt lat="45.0013206" lon="7.4826668"><ele>287.0</ele><time>2026-05-03T16:48:10.289Z</time></trkpt><trkpt lat="45.0013957" lon="7.4828692"><ele>288.0</ele><time>2026-05-03T16:48:11.29Z</time></trkpt><trkpt lat="45.0014763" lon="7.4830646"><ele>289.0</ele><time>2026-05-03T16:48:12.289Z</time></trkpt><trkpt lat="45.0015654" lon="7.4832569"><ele>290.0</ele><time>2026-05-03T16:48:13.288Z</time></trkpt><trkpt lat="45.0016663" lon="7.4834458"><ele>290.0</ele><time>2026-05-03T16:48:14.29Z</time></trkpt><trkpt lat="45.0017652" lon="7.4836377"><ele>290.0</ele><time>2026-05-03T16:48:15.289Z</time></trkpt><trkpt lat="45.0018658" lon="7.4838226"><ele>290.0</ele><time>2026-05-03T16:48:16.29Z</time></trkpt><trkpt lat="45.0019633" lon="7.4839979"><ele>290.33333333333337</ele><time>2026-05-03T16:48:17.29Z</time></trkpt><trkpt lat="45.0020705" lon="7.4841757"><ele>290.6666666666667</ele><time>2026-05-03T16:48:18.288Z</time></trkpt><trkpt lat="45.0021762" lon="7.4843487"><ele>291.0</ele><time>2026-05-03T16:48:19.288Z</time></trkpt><trkpt lat="45.0022888" lon="7.4845146"><ele>292.0</ele><time>2026-05-03T16:48:20.289Z</time></trkpt><trkpt lat="45.0024029" lon="7.4846781"><ele>293.0</ele><time>2026-05-03T16:48:21.288Z</time></trkpt><trkpt lat="45.0025116" lon="7.4848416"><ele>294.0</ele><time>2026-05-03T16:48:22.289Z</time></trkpt><trkpt lat="45.0026225" lon="7.4850032"><ele>294.3333333333333</ele><time>2026-05-03T16:48:23.289Z</time></trkpt><trkpt lat="45.0027382" lon="7.4851696"><ele>294.66666666666663</ele><time>2026-05-03T16:48:24.289Z</time></trkpt><trkpt lat="45.0028418" lon="7.4853421"><ele>295.0</ele><time>2026-05-03T16:48:25.288Z</time></trkpt><trkpt lat="45.002942" lon="7.4855279"><ele>295.0</ele><time>2026-05-03T16:48:26.288Z</time></trkpt><trkpt lat="45.0030311" lon="7.4857261"><ele>295.0</ele><time>2026-05-03T16:48:27.289Z</time></trkpt><trkpt lat="45.0031297" lon="7.4859146"><ele>295.0</ele><time>2026-05-03T16:48:28.29Z</time></trkpt><trkpt lat="45.003213" lon="7.4860977"><ele>295.3333333333333</ele><time>2026-05-03T16:48:29.289Z</time></trkpt><trkpt lat="45.0033029" lon="7.4862837"><ele>295.6666666666667</ele><time>2026-05-03T16:48:30.29Z</time></trkpt><trkpt lat="45.0033936" lon="7.486484"><ele>296.0</ele><time>2026-05-03T16:48:31.289Z</time></trkpt><trkpt lat="45.0034844" lon="7.4866697"><ele>296.33333333333337</ele><time>2026-05-03T16:48:32.289Z</time></trkpt><trkpt lat="45.0035721" lon="7.4868398"><ele>296.6666666666667</ele><time>2026-05-03T16:48:33.289Z</time></trkpt><trkpt lat="45.0036591" lon="7.4870096"><ele>297.0</ele><time>2026-05-03T16:48:34.288Z</time></trkpt><trkpt lat="45.0037387" lon="7.487194"><ele>297.0</ele><time>2026-05-03T16:48:35.29Z</time></trkpt><trkpt lat="45.0038306" lon="7.4873707"><ele>297.0</ele><time>2026-05-03T16:48:36.289Z</time></trkpt><trkpt lat="45.0039388" lon="7.4875283"><ele>297.0</ele><time>2026-05-03T16:48:37.289Z</time></trkpt><trkpt lat="45.0040566" lon="7.4876848"><ele>297.3333333333333</ele><time>2026-05-03T16:48:38.288Z</time></trkpt><trkpt lat="45.0041746" lon="7.48784"><ele>297.66666666666663</ele><time>2026-05-03T16:48:39.29Z</time></trkpt><trkpt lat="45.0042853" lon="7.4879888"><ele>298.0</ele><time>2026-05-03T16:48:40.289Z</time></trkpt><trkpt lat="45.0044027" lon="7.4881251"><ele>297.3333333333333</ele><time>2026-05-03T16:48:41.289Z</time></trkpt><trkpt lat="45.0045186" lon="7.4882572"><ele>296.6666666666667</ele><time>2026-05-03T16:48:42.289Z</time></trkpt><trkpt lat="45.0046404" lon="7.4884058"><ele>296.0</ele><time>2026-05-03T16:48:43.288Z</time></trkpt><trkpt lat="45.0047503" lon="7.4885738"><ele>296.0</ele><time>2026-05-03T16:48:44.29Z</time></trkpt><trkpt lat="45.0048571" lon="7.4887507"><ele>296.0</ele><time>2026-05-03T16:48:45.29Z</time></trkpt><trkpt lat="45.0049703" lon="7.4889286"><ele>296.0</ele><time>2026-05-03T16:48:46.289Z</time></trkpt><trkpt lat="45.0050807" lon="7.4891178"><ele>296.0</ele><time>2026-05-03T16:48:47.29Z</time></trkpt><trkpt lat="45.005193" lon="7.4892963"><ele>296.0</ele><time>2026-05-03T16:48:48.29Z</time></trkpt><trkpt lat="45.0053034" lon="7.4894784"><ele>296.0</ele><time>2026-05-03T16:48:49.289Z</time></trkpt><trkpt lat="45.0054111" lon="7.4896562"><ele>296.0</ele><time>2026-05-03T16:48:50.289Z</time></trkpt><trkpt lat="45.005518" lon="7.4898172"><ele>296.0</ele><time>2026-05-03T16:48:51.291Z</time></trkpt><trkpt lat="45.0056389" lon="7.4899697"><ele>296.0</ele><time>2026-05-03T16:48:52.289Z</time></trkpt><trkpt lat="45.0057753" lon="7.4901029"><ele>295.33333333333337</ele><time>2026-05-03T16:48:53.288Z</time></trkpt><trkpt lat="45.0059373" lon="7.4902253"><ele>294.6666666666667</ele><time>2026-05-03T16:48:54.29Z</time></trkpt><trkpt lat="45.0061004" lon="7.4903412"><ele>294.0</ele><time>2026-05-03T16:48:55.289Z</time></trkpt><trkpt lat="45.0062533" lon="7.4904572"><ele>294.0</ele><time>2026-05-03T16:48:56.289Z</time></trkpt><trkpt lat="45.0063945" lon="7.4905893"><ele>294.0</ele><time>2026-05-03T16:48:57.288Z</time></trkpt><trkpt lat="45.0065108" lon="7.4907576"><ele>294.0</ele><time>2026-05-03T16:48:58.289Z</time></trkpt><trkpt lat="45.0066134" lon="7.490941"><ele>294.6666666666667</ele><time>2026-05-03T16:48:59.289Z</time></trkpt><trkpt lat="45.0067256" lon="7.491123"><ele>295.33333333333337</ele><time>2026-05-03T16:49:00.289Z</time></trkpt><trkpt lat="45.0068622" lon="7.491284"><ele>296.0</ele><time>2026-05-03T16:49:01.289Z</time></trkpt><trkpt lat="45.0070016" lon="7.4914217"><ele>296.0</ele><time>2026-05-03T16:49:02.29Z</time></trkpt><trkpt lat="45.0071425" lon="7.491537"><ele>296.0</ele><time>2026-05-03T16:49:03.288Z</time></trkpt><trkpt lat="45.0072828" lon="7.4916432"><ele>296.0</ele><time>2026-05-03T16:49:04.29Z</time></trkpt><trkpt lat="45.0074104" lon="7.4917352"><ele>298.6666666666667</ele><time>2026-05-03T16:49:05.29Z</time></trkpt><trkpt lat="45.0075585" lon="7.4917928"><ele>301.3333333333333</ele><time>2026-05-03T16:49:06.288Z</time></trkpt><trkpt lat="45.0077236" lon="7.4918202"><ele>304.0</ele><time>2026-05-03T16:49:07.289Z</time></trkpt><trkpt lat="45.0078955" lon="7.4918274"><ele>304.0</ele><time>2026-05-03T16:49:08.289Z</time></trkpt><trkpt lat="45.0080618" lon="7.4918409"><ele>304.0</ele><time>2026-05-03T16:49:09.289Z</time></trkpt><trkpt lat="45.0082069" lon="7.4918878"><ele>304.0</ele><time>2026-05-03T16:49:10.29Z</time></trkpt><trkpt lat="45.0083503" lon="7.4919742"><ele>302.3333333333333</ele><time>2026-05-03T16:49:11.291Z</time></trkpt><trkpt lat="45.0084736" lon="7.4921133"><ele>300.6666666666667</ele><time>2026-05-03T16:49:12.29Z</time></trkpt><trkpt lat="45.0085918" lon="7.4922978"><ele>299.0</ele><time>2026-05-03T16:49:13.289Z</time></trkpt><trkpt lat="45.0087052" lon="7.4924971"><ele>299.0</ele><time>2026-05-03T16:49:14.288Z</time></trkpt><trkpt lat="45.0088182" lon="7.4926856"><ele>299.0</ele><time>2026-05-03T16:49:15.289Z</time></trkpt><trkpt lat="45.0089319" lon="7.4928535"><ele>299.0</ele><time>2026-05-03T16:49:16.288Z</time></trkpt><trkpt lat="45.0090381" lon="7.4930096"><ele>298.6666666666667</ele><time>2026-05-03T16:49:17.288Z</time></trkpt><trkpt lat="45.0091358" lon="7.4931755"><ele>298.3333333333333</ele><time>2026-05-03T16:49:18.288Z</time></trkpt><trkpt lat="45.0092201" lon="7.4933658"><ele>298.0</ele><time>2026-05-03T16:49:19.288Z</time></trkpt><trkpt lat="45.0093031" lon="7.49359"><ele>297.0</ele><time>2026-05-03T16:49:20.291Z</time></trkpt><trkpt lat="45.0093731" lon="7.4938433"><ele>296.0</ele><time>2026-05-03T16:49:21.29Z</time></trkpt><trkpt lat="45.009435" lon="7.4941001"><ele>295.0</ele><time>2026-05-03T16:49:22.291Z</time></trkpt><trkpt lat="45.0094913" lon="7.494333"><ele>295.0</ele><time>2026-05-03T16:49:23.289Z</time></trkpt><trkpt lat="45.0095436" lon="7.4945675"><ele>295.0</ele><time>2026-05-03T16:49:24.288Z</time></trkpt><trkpt lat="45.0095993" lon="7.4947742"><ele>295.0</ele><time>2026-05-03T16:49:25.291Z</time></trkpt><trkpt lat="45.0096488" lon="7.4949628"><ele>295.0</ele><time>2026-05-03T16:49:26.288Z</time></trkpt><trkpt lat="45.0096954" lon="7.4951335"><ele>295.0</ele><time>2026-05-03T16:49:27.288Z</time></trkpt><trkpt lat="45.0097373" lon="7.4952871"><ele>295.0</ele><time>2026-05-03T16:49:28.29Z</time></trkpt><trkpt lat="45.0097629" lon="7.4954207"><ele>295.0</ele><time>2026-05-03T16:49:29.289Z</time></trkpt><trkpt lat="45.0097593" lon="7.4955498"><ele>295.0</ele><time>2026-05-03T16:49:30.288Z</time></trkpt><trkpt lat="45.0097241" lon="7.4956595"><ele>295.0</ele><time>2026-05-03T16:49:31.289Z</time></trkpt><trkpt lat="45.0096805" lon="7.4957571"><ele>295.0</ele><time>2026-05-03T16:49:32.288Z</time></trkpt><trkpt lat="45.0096791" lon="7.4958566"><ele>295.0</ele><time>2026-05-03T16:49:33.288Z</time></trkpt><trkpt lat="45.0097127" lon="7.495936"><ele>295.0</ele><time>2026-05-03T16:49:34.289Z</time></trkpt><trkpt lat="45.0097805" lon="7.4959746"><ele>295.0</ele><time>2026-05-03T16:49:35.288Z</time></trkpt><trkpt lat="45.0098588" lon="7.4960032"><ele>295.0</ele><time>2026-05-03T16:49:36.29Z</time></trkpt><trkpt lat="45.0099349" lon="7.496073"><ele>295.25</ele><time>2026-05-03T16:49:37.288Z</time></trkpt><trkpt lat="45.0100066" lon="7.4961974"><ele>295.5</ele><time>2026-05-03T16:49:38.29Z</time></trkpt><trkpt lat="45.0100732" lon="7.4963533"><ele>295.75</ele><time>2026-05-03T16:49:39.288Z</time></trkpt><trkpt lat="45.0101485" lon="7.4965084"><ele>296.0</ele><time>2026-05-03T16:49:40.289Z</time></trkpt><trkpt lat="45.0102309" lon="7.4966717"><ele>296.0</ele><time>2026-05-03T16:49:41.289Z</time></trkpt><trkpt lat="45.0103118" lon="7.4968473"><ele>296.0</ele><time>2026-05-03T16:49:42.288Z</time></trkpt><trkpt lat="45.0104016" lon="7.4970268"><ele>296.0</ele><time>2026-05-03T16:49:43.289Z</time></trkpt><trkpt lat="45.0104945" lon="7.4972125"><ele>296.0</ele><time>2026-05-03T16:49:44.289Z</time></trkpt><trkpt lat="45.0105897" lon="7.497392"><ele>296.0</ele><time>2026-05-03T16:49:45.288Z</time></trkpt><trkpt lat="45.0106822" lon="7.4975712"><ele>296.0</ele><time>2026-05-03T16:49:46.288Z</time></trkpt><trkpt lat="45.0107822" lon="7.4977467"><ele>296.0</ele><time>2026-05-03T16:49:47.289Z</time></trkpt><trkpt lat="45.0108792" lon="7.4979223"><ele>296.0</ele><time>2026-05-03T16:49:48.29Z</time></trkpt><trkpt lat="45.0109742" lon="7.4980778"><ele>296.0</ele><time>2026-05-03T16:49:49.289Z</time></trkpt><trkpt lat="45.0110641" lon="7.498228"><ele>296.0</ele><time>2026-05-03T16:49:50.289Z</time></trkpt><trkpt lat="45.011152" lon="7.4983764"><ele>296.0</ele><time>2026-05-03T16:49:51.288Z</time></trkpt><trkpt lat="45.0112429" lon="7.4985258"><ele>296.0</ele><time>2026-05-03T16:49:52.288Z</time></trkpt><trkpt lat="45.0113383" lon="7.4986752"><ele>296.0</ele><time>2026-05-03T16:49:53.288Z</time></trkpt><trkpt lat="45.0114379" lon="7.4988301"><ele>296.0</ele><time>2026-05-03T16:49:54.289Z</time></trkpt><trkpt lat="45.011537" lon="7.4989869"><ele>296.0</ele><time>2026-05-03T16:49:55.288Z</time></trkpt><trkpt lat="45.0116452" lon="7.4991345"><ele>296.0</ele><time>2026-05-03T16:49:56.29Z</time></trkpt><trkpt lat="45.0117534" lon="7.4992872"><ele>296.0</ele><time>2026-05-03T16:49:57.288Z</time></trkpt><trkpt lat="45.0118648" lon="7.4994342"><ele>295.75</ele><time>2026-05-03T16:49:58.289Z</time></trkpt><trkpt lat="45.011975" lon="7.4995811"><ele>295.5</ele><time>2026-05-03T16:49:59.288Z</time></trkpt><trkpt lat="45.0120801" lon="7.4997221"><ele>295.25</ele><time>2026-05-03T16:50:00.289Z</time></trkpt><trkpt lat="45.0121883" lon="7.49987"><ele>295.0</ele><time>2026-05-03T16:50:01.288Z</time></trkpt><trkpt lat="45.012293" lon="7.5000014"><ele>295.0</ele><time>2026-05-03T16:50:02.289Z</time></trkpt><trkpt lat="45.0124081" lon="7.5001467"><ele>295.0</ele><time>2026-05-03T16:50:03.289Z</time></trkpt><trkpt lat="45.012529" lon="7.5002833"><ele>295.0</ele><time>2026-05-03T16:50:04.289Z</time></trkpt><trkpt lat="45.012637" lon="7.5004067"><ele>295.0</ele><time>2026-05-03T16:50:05.29Z</time></trkpt><trkpt lat="45.0127433" lon="7.5005282"><ele>295.2</ele><time>2026-05-03T16:50:06.29Z</time></trkpt><trkpt lat="45.0128377" lon="7.5006355"><ele>295.4</ele><time>2026-05-03T16:50:07.289Z</time></trkpt><trkpt lat="45.0129229" lon="7.5007288"><ele>295.6</ele><time>2026-05-03T16:50:08.289Z</time></trkpt><trkpt lat="45.0129925" lon="7.5008188"><ele>295.8</ele><time>2026-05-03T16:50:09.289Z</time></trkpt><trkpt lat="45.0130655" lon="7.5009017"><ele>296.0</ele><time>2026-05-03T16:50:10.289Z</time></trkpt><trkpt lat="45.013127" lon="7.5009905"><ele>296.0</ele><time>2026-05-03T16:50:11.288Z</time></trkpt><trkpt lat="45.0131991" lon="7.5010807"><ele>296.0</ele><time>2026-05-03T16:50:12.289Z</time></trkpt><trkpt lat="45.0132715" lon="7.5011804"><ele>296.0</ele><time>2026-05-03T16:50:13.29Z</time></trkpt><trkpt lat="45.0133487" lon="7.5012767"><ele>296.0</ele><time>2026-05-03T16:50:14.289Z</time></trkpt><trkpt lat="45.0134151" lon="7.5013762"><ele>296.0</ele><time>2026-05-03T16:50:15.288Z</time></trkpt><trkpt lat="45.0134755" lon="7.501472"><ele>295.8571428571429</ele><time>2026-05-03T16:50:16.288Z</time></trkpt><trkpt lat="45.0135257" lon="7.5015528"><ele>295.7142857142857</ele><time>2026-05-03T16:50:17.288Z</time></trkpt><trkpt lat="45.0135754" lon="7.5016212"><ele>295.57142857142856</ele><time>2026-05-03T16:50:18.289Z</time></trkpt><trkpt lat="45.0136373" lon="7.5016961"><ele>295.42857142857144</ele><time>2026-05-03T16:50:20.288Z</time></trkpt><trkpt lat="45.0136796" lon="7.5017691"><ele>295.2857142857143</ele><time>2026-05-03T16:50:26.289Z</time></trkpt><trkpt lat="45.0137309" lon="7.5018473"><ele>295.14285714285717</ele><time>2026-05-03T16:50:32.288Z</time></trkpt><trkpt lat="45.0137866" lon="7.5019111"><ele>295.0</ele><time>2026-05-03T16:50:33.289Z</time></trkpt><trkpt lat="45.0138611" lon="7.5019694"><ele>295.0</ele><time>2026-05-03T16:50:34.288Z</time></trkpt><trkpt lat="45.0139619" lon="7.5020132"><ele>295.0</ele><time>2026-05-03T16:50:35.288Z</time></trkpt><trkpt lat="45.014078" lon="7.5020735"><ele>295.0</ele><time>2026-05-03T16:50:36.288Z</time></trkpt><trkpt lat="45.0142034" lon="7.502163"><ele>295.0</ele><time>2026-05-03T16:50:37.289Z</time></trkpt><trkpt lat="45.0143383" lon="7.5022686"><ele>295.0</ele><time>2026-05-03T16:50:38.289Z</time></trkpt><trkpt lat="45.0144757" lon="7.5023863"><ele>295.0</ele><time>2026-05-03T16:50:39.289Z</time></trkpt><trkpt lat="45.0146124" lon="7.502533"><ele>295.0</ele><time>2026-05-03T16:50:40.288Z</time></trkpt><trkpt lat="45.0147427" lon="7.5026945"><ele>295.0</ele><time>2026-05-03T16:50:41.288Z</time></trkpt><trkpt lat="45.0148625" lon="7.5028753"><ele>295.0</ele><time>2026-05-03T16:50:42.288Z</time></trkpt><trkpt lat="45.014979" lon="7.5030705"><ele>295.0</ele><time>2026-05-03T16:50:43.29Z</time></trkpt><trkpt lat="45.0150903" lon="7.5032569"><ele>295.0</ele><time>2026-05-03T16:50:44.288Z</time></trkpt><trkpt lat="45.0151943" lon="7.503437"><ele>295.0</ele><time>2026-05-03T16:50:45.288Z</time></trkpt><trkpt lat="45.0153073" lon="7.5036016"><ele>295.0</ele><time>2026-05-03T16:50:46.288Z</time></trkpt><trkpt lat="45.0154236" lon="7.5037477"><ele>294.75</ele><time>2026-05-03T16:50:47.288Z</time></trkpt><trkpt lat="45.0155352" lon="7.503885"><ele>294.5</ele><time>2026-05-03T16:50:48.288Z</time></trkpt><trkpt lat="45.0156469" lon="7.504003"><ele>294.25</ele><time>2026-05-03T16:50:49.289Z</time></trkpt><trkpt lat="45.0157481" lon="7.5040997"><ele>294.0</ele><time>2026-05-03T16:50:50.288Z</time></trkpt><trkpt lat="45.0158405" lon="7.5041906"><ele>294.0</ele><time>2026-05-03T16:50:51.289Z</time></trkpt><trkpt lat="45.0159164" lon="7.5042735"><ele>294.0</ele><time>2026-05-03T16:50:52.29Z</time></trkpt><trkpt lat="45.0159812" lon="7.5043524"><ele>294.0</ele><time>2026-05-03T16:50:53.288Z</time></trkpt><trkpt lat="45.016026" lon="7.5044448"><ele>294.0</ele><time>2026-05-03T16:50:54.288Z</time></trkpt><trkpt lat="45.0160675" lon="7.5045314"><ele>294.0</ele><time>2026-05-03T16:50:55.288Z</time></trkpt><trkpt lat="45.0161364" lon="7.5045903"><ele>294.0</ele><time>2026-05-03T16:50:56.29Z</time></trkpt><trkpt lat="45.0162355" lon="7.5046372"><ele>294.0</ele><time>2026-05-03T16:50:57.289Z</time></trkpt><trkpt lat="45.0163414" lon="7.5047131"><ele>294.0</ele><time>2026-05-03T16:50:58.288Z</time></trkpt><trkpt lat="45.0164506" lon="7.504821"><ele>294.0</ele><time>2026-05-03T16:50:59.288Z</time></trkpt><trkpt lat="45.016575" lon="7.5049458"><ele>294.0</ele><time>2026-05-03T16:51:00.288Z</time></trkpt><trkpt lat="45.0167067" lon="7.505079"><ele>293.6666666666667</ele><time>2026-05-03T16:51:01.288Z</time></trkpt><trkpt lat="45.0168598" lon="7.5052434"><ele>293.33333333333337</ele><time>2026-05-03T16:51:02.289Z</time></trkpt><trkpt lat="45.0170208" lon="7.5054431"><ele>293.0</ele><time>2026-05-03T16:51:03.288Z</time></trkpt><trkpt lat="45.0171771" lon="7.5056432"><ele>293.0</ele><time>2026-05-03T16:51:04.289Z</time></trkpt><trkpt lat="45.0173351" lon="7.5058342"><ele>293.0</ele><time>2026-05-03T16:51:05.288Z</time></trkpt><trkpt lat="45.017498" lon="7.5060237"><ele>293.0</ele><time>2026-05-03T16:51:06.288Z</time></trkpt><trkpt lat="45.0176599" lon="7.5062071"><ele>292.33333333333337</ele><time>2026-05-03T16:51:07.288Z</time></trkpt><trkpt lat="45.0178068" lon="7.5063808"><ele>291.6666666666667</ele><time>2026-05-03T16:51:08.289Z</time></trkpt><trkpt lat="45.0179555" lon="7.5065623"><ele>291.0</ele><time>2026-05-03T16:51:09.288Z</time></trkpt><trkpt lat="45.0181089" lon="7.5067423"><ele>291.0</ele><time>2026-05-03T16:51:10.29Z</time></trkpt><trkpt lat="45.0182604" lon="7.5069119"><ele>291.0</ele><time>2026-05-03T16:51:11.288Z</time></trkpt><trkpt lat="45.0184075" lon="7.5070813"><ele>291.0</ele><time>2026-05-03T16:51:12.289Z</time></trkpt><trkpt lat="45.0185542" lon="7.5072497"><ele>291.0</ele><time>2026-05-03T16:51:13.289Z</time></trkpt><trkpt lat="45.0186998" lon="7.5074224"><ele>291.0</ele><time>2026-05-03T16:51:14.289Z</time></trkpt><trkpt lat="45.0188462" lon="7.5075957"><ele>291.0</ele><time>2026-05-03T16:51:15.29Z</time></trkpt><trkpt lat="45.018988" lon="7.5077742"><ele>291.0</ele><time>2026-05-03T16:51:16.288Z</time></trkpt><trkpt lat="45.0191289" lon="7.5079364"><ele>291.0</ele><time>2026-05-03T16:51:17.288Z</time></trkpt><trkpt lat="45.0192694" lon="7.5081049"><ele>291.0</ele><time>2026-05-03T16:51:18.288Z</time></trkpt><trkpt lat="45.0194164" lon="7.5082726"><ele>291.0</ele><time>2026-05-03T16:51:19.289Z</time></trkpt><trkpt lat="45.0195527" lon="7.5084357"><ele>291.0</ele><time>2026-05-03T16:51:20.288Z</time></trkpt><trkpt lat="45.019682" lon="7.5085885"><ele>291.0</ele><time>2026-05-03T16:51:21.288Z</time></trkpt><trkpt lat="45.0198188" lon="7.5087596"><ele>291.3333333333333</ele><time>2026-05-03T16:51:22.288Z</time></trkpt><trkpt lat="45.0199525" lon="7.5089149"><ele>291.66666666666663</ele><time>2026-05-03T16:51:23.289Z</time></trkpt><trkpt lat="45.0200831" lon="7.5090701"><ele>292.0</ele><time>2026-05-03T16:51:24.289Z</time></trkpt><trkpt lat="45.0202156" lon="7.5092226"><ele>292.0</ele><time>2026-05-03T16:51:25.289Z</time></trkpt><trkpt lat="45.0203435" lon="7.5093768"><ele>292.0</ele><time>2026-05-03T16:51:26.289Z</time></trkpt><trkpt lat="45.0204813" lon="7.5095297"><ele>292.0</ele><time>2026-05-03T16:51:27.288Z</time></trkpt><trkpt lat="45.0206093" lon="7.5096793"><ele>292.0</ele><time>2026-05-03T16:51:28.29Z</time></trkpt><trkpt lat="45.0207416" lon="7.5098323"><ele>292.0</ele><time>2026-05-03T16:51:29.287Z</time></trkpt><trkpt lat="45.0208728" lon="7.5099774"><ele>292.0</ele><time>2026-05-03T16:51:30.288Z</time></trkpt><trkpt lat="45.0209999" lon="7.510131"><ele>292.3333333333333</ele><time>2026-05-03T16:51:31.288Z</time></trkpt><trkpt lat="45.0211252" lon="7.5102849"><ele>292.6666666666667</ele><time>2026-05-03T16:51:32.288Z</time></trkpt><trkpt lat="45.0212601" lon="7.5104393"><ele>293.0</ele><time>2026-05-03T16:51:33.288Z</time></trkpt><trkpt lat="45.0213875" lon="7.510589"><ele>293.0</ele><time>2026-05-03T16:51:34.288Z</time></trkpt><trkpt lat="45.0215085" lon="7.5107374"><ele>293.0</ele><time>2026-05-03T16:51:35.289Z</time></trkpt><trkpt lat="45.0216395" lon="7.5108891"><ele>293.0</ele><time>2026-05-03T16:51:36.287Z</time></trkpt><trkpt lat="45.0217651" lon="7.5110385"><ele>293.0</ele><time>2026-05-03T16:51:37.288Z</time></trkpt><trkpt lat="45.0218783" lon="7.5111861"><ele>293.0</ele><time>2026-05-03T16:51:38.289Z</time></trkpt><trkpt lat="45.0219795" lon="7.5113394"><ele>293.0</ele><time>2026-05-03T16:51:39.289Z</time></trkpt><trkpt lat="45.0220764" lon="7.5114843"><ele>293.0</ele><time>2026-05-03T16:51:40.288Z</time></trkpt><trkpt lat="45.0221638" lon="7.5116301"><ele>293.0</ele><time>2026-05-03T16:51:41.288Z</time></trkpt><trkpt lat="45.0222584" lon="7.5117805"><ele>293.0</ele><time>2026-05-03T16:51:42.288Z</time></trkpt><trkpt lat="45.0223549" lon="7.5119396"><ele>293.0</ele><time>2026-05-03T16:51:43.289Z</time></trkpt><trkpt lat="45.0224552" lon="7.5120949"><ele>293.0</ele><time>2026-05-03T16:51:44.287Z</time></trkpt><trkpt lat="45.0225542" lon="7.5122385"><ele>291.75</ele><time>2026-05-03T16:51:45.289Z</time></trkpt><trkpt lat="45.0226541" lon="7.5123634"><ele>290.5</ele><time>2026-05-03T16:51:46.288Z</time></trkpt><trkpt lat="45.0227683" lon="7.5124698"><ele>289.25</ele><time>2026-05-03T16:51:47.288Z</time></trkpt><trkpt lat="45.0229009" lon="7.5125439"><ele>288.0</ele><time>2026-05-03T16:51:48.289Z</time></trkpt><trkpt lat="45.0230435" lon="7.5126018"><ele>288.0</ele><time>2026-05-03T16:51:49.289Z</time></trkpt><trkpt lat="45.0231918" lon="7.512649"><ele>288.0</ele><time>2026-05-03T16:51:50.289Z</time></trkpt><trkpt lat="45.023334" lon="7.5126927"><ele>288.0</ele><time>2026-05-03T16:51:51.287Z</time></trkpt><trkpt lat="45.0234655" lon="7.5127304"><ele>288.0</ele><time>2026-05-03T16:51:52.289Z</time></trkpt><trkpt lat="45.0235852" lon="7.5127683"><ele>287.75</ele><time>2026-05-03T16:51:53.289Z</time></trkpt><trkpt lat="45.0237037" lon="7.5128347"><ele>287.5</ele><time>2026-05-03T16:51:54.287Z</time></trkpt><trkpt lat="45.0238124" lon="7.5129206"><ele>287.25</ele><time>2026-05-03T16:51:55.288Z</time></trkpt><trkpt lat="45.0239178" lon="7.5130368"><ele>287.0</ele><time>2026-05-03T16:51:56.288Z</time></trkpt><trkpt lat="45.0240219" lon="7.5131826"><ele>286.75</ele><time>2026-05-03T16:51:57.289Z</time></trkpt><trkpt lat="45.0241166" lon="7.5133236"><ele>286.5</ele><time>2026-05-03T16:51:58.288Z</time></trkpt><trkpt lat="45.0242147" lon="7.5134601"><ele>286.25</ele><time>2026-05-03T16:51:59.289Z</time></trkpt><trkpt lat="45.0243159" lon="7.5135897"><ele>286.0</ele><time>2026-05-03T16:52:00.289Z</time></trkpt><trkpt lat="45.0244232" lon="7.5137135"><ele>286.75</ele><time>2026-05-03T16:52:01.289Z</time></trkpt><trkpt lat="45.0245437" lon="7.5138253"><ele>287.5</ele><time>2026-05-03T16:52:02.288Z</time></trkpt><trkpt lat="45.0246611" lon="7.5139366"><ele>288.25</ele><time>2026-05-03T16:52:03.289Z</time></trkpt><trkpt lat="45.0247876" lon="7.5140537"><ele>289.0</ele><time>2026-05-03T16:52:04.287Z</time></trkpt><trkpt lat="45.0249101" lon="7.514175"><ele>289.5</ele><time>2026-05-03T16:52:05.289Z</time></trkpt><trkpt lat="45.0250451" lon="7.5143007"><ele>290.0</ele><time>2026-05-03T16:52:06.288Z</time></trkpt><trkpt lat="45.0251683" lon="7.514408"><ele>290.5</ele><time>2026-05-03T16:52:07.288Z</time></trkpt><trkpt lat="45.0252858" lon="7.5145134"><ele>291.0</ele><time>2026-05-03T16:52:08.288Z</time></trkpt><trkpt lat="45.0253953" lon="7.5146158"><ele>291.25</ele><time>2026-05-03T16:52:09.288Z</time></trkpt><trkpt lat="45.0254995" lon="7.5147097"><ele>291.5</ele><time>2026-05-03T16:52:10.287Z</time></trkpt><trkpt lat="45.025597" lon="7.5148025"><ele>291.75</ele><time>2026-05-03T16:52:11.289Z</time></trkpt><trkpt lat="45.025686" lon="7.5148869"><ele>292.0</ele><time>2026-05-03T16:52:12.289Z</time></trkpt><trkpt lat="45.0257731" lon="7.5149686"><ele>291.8</ele><time>2026-05-03T16:52:13.288Z</time></trkpt><trkpt lat="45.0258353" lon="7.5150476"><ele>291.6</ele><time>2026-05-03T16:52:14.289Z</time></trkpt><trkpt lat="45.0259164" lon="7.5151622"><ele>291.40000000000003</ele><time>2026-05-03T16:52:16.288Z</time></trkpt><trkpt lat="45.0259761" lon="7.5152084"><ele>291.2</ele><time>2026-05-03T16:52:17.287Z</time></trkpt><trkpt lat="45.0260617" lon="7.5152617"><ele>291.0</ele><time>2026-05-03T16:52:18.289Z</time></trkpt><trkpt lat="45.0261592" lon="7.5153417"><ele>290.6666666666667</ele><time>2026-05-03T16:52:19.287Z</time></trkpt><trkpt lat="45.0262908" lon="7.5154724"><ele>290.33333333333337</ele><time>2026-05-03T16:52:20.289Z</time></trkpt><trkpt lat="45.0264172" lon="7.5155904"><ele>290.0</ele><time>2026-05-03T16:52:21.288Z</time></trkpt><trkpt lat="45.0265341" lon="7.5157003"><ele>290.0</ele><time>2026-05-03T16:52:22.289Z</time></trkpt><trkpt lat="45.0266483" lon="7.5158112"><ele>290.0</ele><time>2026-05-03T16:52:23.287Z</time></trkpt><trkpt lat="45.0267508" lon="7.5159041"><ele>290.0</ele><time>2026-05-03T16:52:24.289Z</time></trkpt><trkpt lat="45.0268517" lon="7.5159997"><ele>290.0</ele><time>2026-05-03T16:52:25.288Z</time></trkpt><trkpt lat="45.0269494" lon="7.5160911"><ele>290.0</ele><time>2026-05-03T16:52:26.29Z</time></trkpt><trkpt lat="45.0270457" lon="7.5161903"><ele>290.0</ele><time>2026-05-03T16:52:27.289Z</time></trkpt><trkpt lat="45.0271373" lon="7.5162945"><ele>290.0</ele><time>2026-05-03T16:52:28.289Z</time></trkpt><trkpt lat="45.0272361" lon="7.5163763"><ele>290.0</ele><time>2026-05-03T16:52:29.287Z</time></trkpt><trkpt lat="45.0273177" lon="7.5164632"><ele>289.6</ele><time>2026-05-03T16:52:30.288Z</time></trkpt><trkpt lat="45.0274014" lon="7.5165512"><ele>289.2</ele><time>2026-05-03T16:52:31.288Z</time></trkpt><trkpt lat="45.02748" lon="7.5166336"><ele>288.8</ele><time>2026-05-03T16:52:32.29Z</time></trkpt><trkpt lat="45.027555" lon="7.5167171"><ele>288.4</ele><time>2026-05-03T16:52:33.289Z</time></trkpt><trkpt lat="45.0276245" lon="7.5167972"><ele>288.0</ele><time>2026-05-03T16:52:34.288Z</time></trkpt><trkpt lat="45.0277045" lon="7.5168494"><ele>288.0</ele><time>2026-05-03T16:52:35.289Z</time></trkpt><trkpt lat="45.0277917" lon="7.5168734"><ele>288.0</ele><time>2026-05-03T16:52:36.29Z</time></trkpt><trkpt lat="45.0279118" lon="7.5168778"><ele>288.0</ele><time>2026-05-03T16:52:37.288Z</time></trkpt><trkpt lat="45.0280496" lon="7.5168691"><ele>288.0</ele><time>2026-05-03T16:52:38.289Z</time></trkpt><trkpt lat="45.0282043" lon="7.5168593"><ele>288.25</ele><time>2026-05-03T16:52:39.287Z</time></trkpt><trkpt lat="45.028351" lon="7.5168439"><ele>288.5</ele><time>2026-05-03T16:52:40.288Z</time></trkpt><trkpt lat="45.02849" lon="7.5168333"><ele>288.75</ele><time>2026-05-03T16:52:41.288Z</time></trkpt><trkpt lat="45.0286223" lon="7.5168073"><ele>289.0</ele><time>2026-05-03T16:52:42.288Z</time></trkpt><trkpt lat="45.0287562" lon="7.5167632"><ele>289.0</ele><time>2026-05-03T16:52:43.288Z</time></trkpt><trkpt lat="45.0288793" lon="7.5166925"><ele>289.0</ele><time>2026-05-03T16:52:44.288Z</time></trkpt><trkpt lat="45.0290055" lon="7.5166253"><ele>289.0</ele><time>2026-05-03T16:52:45.288Z</time></trkpt><trkpt lat="45.0291085" lon="7.5165772"><ele>289.0</ele><time>2026-05-03T16:52:46.288Z</time></trkpt><trkpt lat="45.0292231" lon="7.5165395"><ele>288.75</ele><time>2026-05-03T16:52:47.289Z</time></trkpt><trkpt lat="45.0293568" lon="7.5165192"><ele>288.5</ele><time>2026-05-03T16:52:48.288Z</time></trkpt><trkpt lat="45.0294983" lon="7.516518"><ele>288.25</ele><time>2026-05-03T16:52:49.288Z</time></trkpt><trkpt lat="45.0296513" lon="7.5165216"><ele>288.0</ele><time>2026-05-03T16:52:50.289Z</time></trkpt><trkpt lat="45.0298008" lon="7.5165116"><ele>288.0</ele><time>2026-05-03T16:52:51.289Z</time></trkpt><trkpt lat="45.0299464" lon="7.5165043"><ele>288.0</ele><time>2026-05-03T16:52:52.287Z</time></trkpt><trkpt lat="45.0300956" lon="7.5165042"><ele>288.0</ele><time>2026-05-03T16:52:53.289Z</time></trkpt><trkpt lat="45.0302217" lon="7.5165079"><ele>288.0</ele><time>2026-05-03T16:52:54.288Z</time></trkpt><trkpt lat="45.0303346" lon="7.5165118"><ele>288.0</ele><time>2026-05-03T16:52:55.287Z</time></trkpt><trkpt lat="45.030447" lon="7.5165099"><ele>288.0</ele><time>2026-05-03T16:52:56.288Z</time></trkpt><trkpt lat="45.0305526" lon="7.5165083"><ele>288.0</ele><time>2026-05-03T16:52:57.289Z</time></trkpt><trkpt lat="45.0306499" lon="7.5164984"><ele>288.0</ele><time>2026-05-03T16:52:58.288Z</time></trkpt><trkpt lat="45.0307364" lon="7.5164904"><ele>288.0</ele><time>2026-05-03T16:52:59.287Z</time></trkpt><trkpt lat="45.0308042" lon="7.5164823"><ele>287.8</ele><time>2026-05-03T16:53:00.288Z</time></trkpt><trkpt lat="45.0308681" lon="7.5164864"><ele>287.6</ele><time>2026-05-03T16:53:01.287Z</time></trkpt><trkpt lat="45.0309514" lon="7.5164883"><ele>287.4</ele><time>2026-05-03T16:53:02.288Z</time></trkpt><trkpt lat="45.0310444" lon="7.5164592"><ele>287.2</ele><time>2026-05-03T16:53:03.289Z</time></trkpt><trkpt lat="45.0311467" lon="7.5164148"><ele>287.0</ele><time>2026-05-03T16:53:04.289Z</time></trkpt><trkpt lat="45.0312623" lon="7.5163713"><ele>287.0</ele><time>2026-05-03T16:53:05.288Z</time></trkpt><trkpt lat="45.0313758" lon="7.5163252"><ele>287.0</ele><time>2026-05-03T16:53:06.288Z</time></trkpt><trkpt lat="45.0314737" lon="7.5162795"><ele>287.0</ele><time>2026-05-03T16:53:07.288Z</time></trkpt><trkpt lat="45.0315544" lon="7.5162597"><ele>287.0</ele><time>2026-05-03T16:53:08.287Z</time></trkpt><trkpt lat="45.0316351" lon="7.5162309"><ele>287.0</ele><time>2026-05-03T16:53:09.289Z</time></trkpt><trkpt lat="45.0317209" lon="7.5162014"><ele>287.33333333333337</ele><time>2026-05-03T16:53:10.289Z</time></trkpt><trkpt lat="45.0318022" lon="7.516173"><ele>287.6666666666667</ele><time>2026-05-03T16:53:11.288Z</time></trkpt><trkpt lat="45.0318794" lon="7.5161484"><ele>288.0</ele><time>2026-05-03T16:53:12.289Z</time></trkpt><trkpt lat="45.0319612" lon="7.5161265"><ele>288.3333333333333</ele><time>2026-05-03T16:53:13.289Z</time></trkpt><trkpt lat="45.0320502" lon="7.5161065"><ele>288.66666666666663</ele><time>2026-05-03T16:53:14.288Z</time></trkpt><trkpt lat="45.0321511" lon="7.5160951"><ele>289.0</ele><time>2026-05-03T16:53:15.288Z</time></trkpt><trkpt lat="45.032258" lon="7.5160913"><ele>289.0</ele><time>2026-05-03T16:53:16.289Z</time></trkpt><trkpt lat="45.0323615" lon="7.5160849"><ele>289.0</ele><time>2026-05-03T16:53:17.287Z</time></trkpt><trkpt lat="45.0324712" lon="7.5160818"><ele>289.0</ele><time>2026-05-03T16:53:18.29Z</time></trkpt><trkpt lat="45.0325739" lon="7.5160857"><ele>289.0</ele><time>2026-05-03T16:53:19.288Z</time></trkpt><trkpt lat="45.0326737" lon="7.51609"><ele>289.0</ele><time>2026-05-03T16:53:20.288Z</time></trkpt><trkpt lat="45.0327779" lon="7.5160995"><ele>289.59999999999997</ele><time>2026-05-03T16:53:21.287Z</time></trkpt><trkpt lat="45.0328795" lon="7.5161063"><ele>290.2</ele><time>2026-05-03T16:53:22.288Z</time></trkpt><trkpt lat="45.0329857" lon="7.5161188"><ele>290.79999999999995</ele><time>2026-05-03T16:53:23.289Z</time></trkpt><trkpt lat="45.0330988" lon="7.516152"><ele>291.4</ele><time>2026-05-03T16:53:24.289Z</time></trkpt><trkpt lat="45.0332043" lon="7.5161725"><ele>292.0</ele><time>2026-05-03T16:53:25.287Z</time></trkpt><trkpt lat="45.0333093" lon="7.5161893"><ele>292.8333333333333</ele><time>2026-05-03T16:53:26.289Z</time></trkpt><trkpt lat="45.0333993" lon="7.5162091"><ele>293.66666666666663</ele><time>2026-05-03T16:53:27.288Z</time></trkpt><trkpt lat="45.033482" lon="7.5162268"><ele>294.5</ele><time>2026-05-03T16:53:28.287Z</time></trkpt><trkpt lat="45.0335513" lon="7.5162445"><ele>295.3333333333333</ele><time>2026-05-03T16:53:29.288Z</time></trkpt><trkpt lat="45.0336172" lon="7.516251"><ele>296.1666666666667</ele><time>2026-05-03T16:53:30.288Z</time></trkpt><trkpt lat="45.0336929" lon="7.5162714"><ele>297.0</ele><time>2026-05-03T16:53:31.287Z</time></trkpt><trkpt lat="45.0337835" lon="7.5163018"><ele>297.2</ele><time>2026-05-03T16:53:32.289Z</time></trkpt><trkpt lat="45.0338669" lon="7.5163503"><ele>297.4</ele><time>2026-05-03T16:53:33.289Z</time></trkpt><trkpt lat="45.0339618" lon="7.5164042"><ele>297.6</ele><time>2026-05-03T16:53:34.288Z</time></trkpt><trkpt lat="45.0340465" lon="7.5164465"><ele>297.8</ele><time>2026-05-03T16:53:35.287Z</time></trkpt><trkpt lat="45.0341293" lon="7.5164916"><ele>298.0</ele><time>2026-05-03T16:53:36.287Z</time></trkpt><trkpt lat="45.0342148" lon="7.516543"><ele>298.6</ele><time>2026-05-03T16:53:37.289Z</time></trkpt><trkpt lat="45.0343116" lon="7.5165978"><ele>299.20000000000005</ele><time>2026-05-03T16:53:38.289Z</time></trkpt><trkpt lat="45.0344217" lon="7.516644"><ele>299.8</ele><time>2026-05-03T16:53:39.288Z</time></trkpt><trkpt lat="45.0345181" lon="7.5167019"><ele>300.40000000000003</ele><time>2026-05-03T16:53:40.288Z</time></trkpt><trkpt lat="45.0346031" lon="7.5167631"><ele>301.0</ele><time>2026-05-03T16:53:41.289Z</time></trkpt><trkpt lat="45.0346812" lon="7.5168112"><ele>301.0</ele><time>2026-05-03T16:53:42.288Z</time></trkpt><trkpt lat="45.034758" lon="7.5168595"><ele>301.0</ele><time>2026-05-03T16:53:43.289Z</time></trkpt><trkpt lat="45.0348209" lon="7.51689"><ele>301.0</ele><time>2026-05-03T16:53:44.287Z</time></trkpt><trkpt lat="45.0349127" lon="7.5169475"><ele>301.0</ele><time>2026-05-03T16:53:46.289Z</time></trkpt><trkpt lat="45.0349883" lon="7.5169885"><ele>301.0</ele><time>2026-05-03T16:53:50.288Z</time></trkpt><trkpt lat="45.0350684" lon="7.5170244"><ele>301.0</ele><time>2026-05-03T16:53:53.288Z</time></trkpt><trkpt lat="45.0351336" lon="7.5170592"><ele>301.2</ele><time>2026-05-03T16:53:54.287Z</time></trkpt><trkpt lat="45.0352174" lon="7.5171178"><ele>301.40000000000003</ele><time>2026-05-03T16:53:55.287Z</time></trkpt><trkpt lat="45.0353187" lon="7.5171836"><ele>301.6</ele><time>2026-05-03T16:53:56.289Z</time></trkpt><trkpt lat="45.0354288" lon="7.5172493"><ele>301.8</ele><time>2026-05-03T16:53:57.289Z</time></trkpt><trkpt lat="45.0355406" lon="7.5173057"><ele>302.0</ele><time>2026-05-03T16:53:58.288Z</time></trkpt><trkpt lat="45.0356507" lon="7.517348"><ele>302.0</ele><time>2026-05-03T16:53:59.288Z</time></trkpt><trkpt lat="45.0357611" lon="7.517375"><ele>302.0</ele><time>2026-05-03T16:54:00.289Z</time></trkpt><trkpt lat="45.0358603" lon="7.5173976"><ele>302.0</ele><time>2026-05-03T16:54:01.287Z</time></trkpt><trkpt lat="45.0359541" lon="7.5174145"><ele>302.0</ele><time>2026-05-03T16:54:02.287Z</time></trkpt><trkpt lat="45.0360398" lon="7.5174641"><ele>302.0</ele><time>2026-05-03T16:54:03.289Z</time></trkpt><trkpt lat="45.0361239" lon="7.5175097"><ele>302.0</ele><time>2026-05-03T16:54:04.288Z</time></trkpt><trkpt lat="45.0362034" lon="7.5175213"><ele>302.0</ele><time>2026-05-03T16:54:05.288Z</time></trkpt><trkpt lat="45.036277" lon="7.5175025"><ele>302.0</ele><time>2026-05-03T16:54:06.288Z</time></trkpt><trkpt lat="45.0363475" lon="7.5174922"><ele>302.0</ele><time>2026-05-03T16:54:07.288Z</time></trkpt><trkpt lat="45.0364239" lon="7.517499"><ele>302.0</ele><time>2026-05-03T16:54:08.288Z</time></trkpt><trkpt lat="45.0365032" lon="7.5175177"><ele>302.0</ele><time>2026-05-03T16:54:09.287Z</time></trkpt><trkpt lat="45.0365939" lon="7.5175442"><ele>302.6</ele><time>2026-05-03T16:54:10.287Z</time></trkpt><trkpt lat="45.03669" lon="7.5175695"><ele>303.2</ele><time>2026-05-03T16:54:11.288Z</time></trkpt><trkpt lat="45.0367866" lon="7.5175909"><ele>303.8</ele><time>2026-05-03T16:54:12.288Z</time></trkpt><trkpt lat="45.0368854" lon="7.5176131"><ele>304.4</ele><time>2026-05-03T16:54:13.288Z</time></trkpt><trkpt lat="45.0369869" lon="7.5176379"><ele>305.0</ele><time>2026-05-03T16:54:14.287Z</time></trkpt><trkpt lat="45.0370712" lon="7.5176559"><ele>305.0</ele><time>2026-05-03T16:54:15.287Z</time></trkpt><trkpt lat="45.037141" lon="7.5176829"><ele>305.0</ele><time>2026-05-03T16:54:16.288Z</time></trkpt><trkpt lat="45.0372416" lon="7.5177147"><ele>305.0</ele><time>2026-05-03T16:54:18.288Z</time></trkpt><trkpt lat="45.037324" lon="7.5177485"><ele>305.0</ele><time>2026-05-03T16:54:21.289Z</time></trkpt><trkpt lat="45.0374454" lon="7.517769"><ele>305.0</ele><time>2026-05-03T16:54:23.287Z</time></trkpt><trkpt lat="45.0375173" lon="7.5177868"><ele>305.4</ele><time>2026-05-03T16:54:24.287Z</time></trkpt><trkpt lat="45.037591" lon="7.5178053"><ele>305.8</ele><time>2026-05-03T16:54:25.287Z</time></trkpt><trkpt lat="45.0376732" lon="7.5178368"><ele>306.2</ele><time>2026-05-03T16:54:26.287Z</time></trkpt><trkpt lat="45.0377518" lon="7.5178818"><ele>306.6</ele><time>2026-05-03T16:54:27.288Z</time></trkpt><trkpt lat="45.0378403" lon="7.5179713"><ele>307.0</ele><time>2026-05-03T16:54:28.288Z</time></trkpt><trkpt lat="45.0379257" lon="7.5180484"><ele>307.0</ele><time>2026-05-03T16:54:29.289Z</time></trkpt><trkpt lat="45.0380072" lon="7.5181129"><ele>307.0</ele><time>2026-05-03T16:54:30.288Z</time></trkpt><trkpt lat="45.0380843" lon="7.5181676"><ele>307.0</ele><time>2026-05-03T16:54:31.288Z</time></trkpt><trkpt lat="45.0381646" lon="7.5182126"><ele>307.0</ele><time>2026-05-03T16:54:32.287Z</time></trkpt><trkpt lat="45.0382314" lon="7.5182636"><ele>307.0</ele><time>2026-05-03T16:54:33.288Z</time></trkpt><trkpt lat="45.0383002" lon="7.5182876"><ele>307.0</ele><time>2026-05-03T16:54:34.287Z</time></trkpt><trkpt lat="45.0383654" lon="7.518314"><ele>307.16666666666663</ele><time>2026-05-03T16:54:35.289Z</time></trkpt><trkpt lat="45.0384395" lon="7.5183523"><ele>307.3333333333333</ele><time>2026-05-03T16:54:36.288Z</time></trkpt><trkpt lat="45.0385116" lon="7.5183919"><ele>307.5</ele><time>2026-05-03T16:54:37.287Z</time></trkpt><trkpt lat="45.0385854" lon="7.5184354"><ele>307.6666666666667</ele><time>2026-05-03T16:54:38.289Z</time></trkpt><trkpt lat="45.0386634" lon="7.5184778"><ele>307.83333333333337</ele><time>2026-05-03T16:54:39.288Z</time></trkpt><trkpt lat="45.0387427" lon="7.5185178"><ele>308.0</ele><time>2026-05-03T16:54:40.288Z</time></trkpt><trkpt lat="45.0388247" lon="7.5185588"><ele>308.0</ele><time>2026-05-03T16:54:41.288Z</time></trkpt><trkpt lat="45.038901" lon="7.5185898"><ele>308.0</ele><time>2026-05-03T16:54:42.288Z</time></trkpt><trkpt lat="45.0389723" lon="7.5186249"><ele>308.0</ele><time>2026-05-03T16:54:43.289Z</time></trkpt><trkpt lat="45.0390438" lon="7.5186577"><ele>308.0</ele><time>2026-05-03T16:54:44.287Z</time></trkpt><trkpt lat="45.039112" lon="7.5186912"><ele>308.0</ele><time>2026-05-03T16:54:45.288Z</time></trkpt><trkpt lat="45.0391791" lon="7.5187289"><ele>308.0</ele><time>2026-05-03T16:54:46.29Z</time></trkpt><trkpt lat="45.0392478" lon="7.5187742"><ele>306.6</ele><time>2026-05-03T16:54:47.289Z</time></trkpt><trkpt lat="45.0393136" lon="7.5188007"><ele>305.20000000000005</ele><time>2026-05-03T16:54:48.287Z</time></trkpt><trkpt lat="45.039377" lon="7.5188322"><ele>303.8</ele><time>2026-05-03T16:54:49.287Z</time></trkpt><trkpt lat="45.0394814" lon="7.5188887"><ele>302.40000000000003</ele><time>2026-05-03T16:54:51.288Z</time></trkpt><trkpt lat="45.0395807" lon="7.5189506"><ele>301.0</ele><time>2026-05-03T16:54:53.29Z</time></trkpt><trkpt lat="45.0396763" lon="7.5190091"><ele>301.0</ele><time>2026-05-03T16:54:55.287Z</time></trkpt><trkpt lat="45.0397417" lon="7.5190297"><ele>301.0</ele><time>2026-05-03T16:54:56.287Z</time></trkpt><trkpt lat="45.0398264" lon="7.5190279"><ele>301.0</ele><time>2026-05-03T16:54:57.287Z</time></trkpt><trkpt lat="45.0399091" lon="7.5190237"><ele>301.0</ele><time>2026-05-03T16:54:58.288Z</time></trkpt><trkpt lat="45.0399951" lon="7.5190284"><ele>301.0</ele><time>2026-05-03T16:54:59.288Z</time></trkpt><trkpt lat="45.0400897" lon="7.5190377"><ele>301.0</ele><time>2026-05-03T16:55:00.287Z</time></trkpt><trkpt lat="45.0401759" lon="7.5190533"><ele>301.2</ele><time>2026-05-03T16:55:01.287Z</time></trkpt><trkpt lat="45.0402672" lon="7.5190769"><ele>301.40000000000003</ele><time>2026-05-03T16:55:02.288Z</time></trkpt><trkpt lat="45.0403711" lon="7.5191034"><ele>301.6</ele><time>2026-05-03T16:55:03.287Z</time></trkpt><trkpt lat="45.0404641" lon="7.5191366"><ele>301.8</ele><time>2026-05-03T16:55:04.287Z</time></trkpt><trkpt lat="45.0405666" lon="7.519174"><ele>302.0</ele><time>2026-05-03T16:55:05.287Z</time></trkpt><trkpt lat="45.0406611" lon="7.5192082"><ele>302.0</ele><time>2026-05-03T16:55:06.288Z</time></trkpt><trkpt lat="45.0407532" lon="7.5192517"><ele>302.0</ele><time>2026-05-03T16:55:07.287Z</time></trkpt><trkpt lat="45.0408385" lon="7.5192905"><ele>302.0</ele><time>2026-05-03T16:55:08.288Z</time></trkpt><trkpt lat="45.0409126" lon="7.5193231"><ele>302.0</ele><time>2026-05-03T16:55:09.289Z</time></trkpt><trkpt lat="45.0409812" lon="7.5193606"><ele>302.0</ele><time>2026-05-03T16:55:10.288Z</time></trkpt><trkpt lat="45.0410456" lon="7.5193958"><ele>302.0</ele><time>2026-05-03T16:55:11.287Z</time></trkpt><trkpt lat="45.0411571" lon="7.5194559"><ele>303.0</ele><time>2026-05-03T16:55:13.288Z</time></trkpt><trkpt lat="45.0411987" lon="7.5195817"><ele>304.0</ele><time>2026-05-03T16:55:15.29Z</time></trkpt><trkpt lat="45.0411764" lon="7.5197647"><ele>305.0</ele><time>2026-05-03T16:55:17.287Z</time></trkpt><trkpt lat="45.0411633" lon="7.5198718"><ele>306.0</ele><time>2026-05-03T16:55:18.287Z</time></trkpt><trkpt lat="45.0411421" lon="7.5199833"><ele>307.0</ele><time>2026-05-03T16:55:19.288Z</time></trkpt><trkpt lat="45.0411151" lon="7.5201161"><ele>307.0</ele><time>2026-05-03T16:55:20.289Z</time></trkpt><trkpt lat="45.0410889" lon="7.5202612"><ele>307.0</ele><time>2026-05-03T16:55:21.287Z</time></trkpt><trkpt lat="45.0410594" lon="7.5204041"><ele>307.0</ele><time>2026-05-03T16:55:22.288Z</time></trkpt><trkpt lat="45.0410337" lon="7.5205337"><ele>307.0</ele><time>2026-05-03T16:55:23.288Z</time></trkpt><trkpt lat="45.0410032" lon="7.5206588"><ele>307.0</ele><time>2026-05-03T16:55:24.287Z</time></trkpt><trkpt lat="45.0409732" lon="7.5207756"><ele>306.8</ele><time>2026-05-03T16:55:25.287Z</time></trkpt><trkpt lat="45.0409525" lon="7.5208734"><ele>306.6</ele><time>2026-05-03T16:55:26.287Z</time></trkpt><trkpt lat="45.0409313" lon="7.5209682"><ele>306.40000000000003</ele><time>2026-05-03T16:55:27.288Z</time></trkpt><trkpt lat="45.0409002" lon="7.5210521"><ele>306.2</ele><time>2026-05-03T16:55:28.289Z</time></trkpt><trkpt lat="45.0408708" lon="7.5212102"><ele>306.0</ele><time>2026-05-03T16:55:30.288Z</time></trkpt><trkpt lat="45.0407723" lon="7.5213559"><ele>306.0</ele><time>2026-05-03T16:55:32.287Z</time></trkpt><trkpt lat="45.0406796" lon="7.5214348"><ele>306.0</ele><time>2026-05-03T16:55:33.287Z</time></trkpt><trkpt lat="45.0405982" lon="7.5215072"><ele>306.0</ele><time>2026-05-03T16:55:34.288Z</time></trkpt><trkpt lat="45.0405196" lon="7.5215773"><ele>306.0</ele><time>2026-05-03T16:55:35.287Z</time></trkpt><trkpt lat="45.0404443" lon="7.5216522"><ele>306.0</ele><time>2026-05-03T16:55:36.287Z</time></trkpt><trkpt lat="45.0403696" lon="7.5217273"><ele>306.0</ele><time>2026-05-03T16:55:37.288Z</time></trkpt><trkpt lat="45.0402956" lon="7.5218043"><ele>306.0</ele><time>2026-05-03T16:55:38.287Z</time></trkpt><trkpt lat="45.0402301" lon="7.5218731"><ele>306.0</ele><time>2026-05-03T16:55:39.287Z</time></trkpt><trkpt lat="45.0401663" lon="7.5219487"><ele>306.0</ele><time>2026-05-03T16:55:40.287Z</time></trkpt><trkpt lat="45.0401056" lon="7.5220279"><ele>306.0</ele><time>2026-05-03T16:55:41.289Z</time></trkpt><trkpt lat="45.0400617" lon="7.5221113"><ele>306.0</ele><time>2026-05-03T16:55:42.288Z</time></trkpt><trkpt lat="45.0400146" lon="7.5221904"><ele>306.1666666666667</ele><time>2026-05-03T16:55:43.288Z</time></trkpt><trkpt lat="45.039967" lon="7.5222655"><ele>306.3333333333333</ele><time>2026-05-03T16:55:44.287Z</time></trkpt><trkpt lat="45.0399269" lon="7.5223387"><ele>306.5</ele><time>2026-05-03T16:55:45.287Z</time></trkpt><trkpt lat="45.0398561" lon="7.5224793"><ele>306.66666666666663</ele><time>2026-05-03T16:55:47.288Z</time></trkpt><trkpt lat="45.0398132" lon="7.5225569"><ele>306.8333333333333</ele><time>2026-05-03T16:55:49.287Z</time></trkpt><trkpt lat="45.0397588" lon="7.5226339"><ele>307.0</ele><time>2026-05-03T16:55:51.288Z</time></trkpt><trkpt lat="45.0396688" lon="7.5227198"><ele>306.5</ele><time>2026-05-03T16:55:53.287Z</time></trkpt><trkpt lat="45.039608" lon="7.5227635"><ele>306.0</ele><time>2026-05-03T16:55:54.288Z</time></trkpt><trkpt lat="45.0395669" lon="7.5228501"><ele>305.5</ele><time>2026-05-03T16:55:55.288Z</time></trkpt><trkpt lat="45.0395583" lon="7.5229413"><ele>305.0</ele><time>2026-05-03T16:55:56.287Z</time></trkpt><trkpt lat="45.0396358" lon="7.5230611"><ele>304.5</ele><time>2026-05-03T16:55:58.287Z</time></trkpt><trkpt lat="45.0397543" lon="7.5230506"><ele>304.0</ele><time>2026-05-03T16:56:00.287Z</time></trkpt><trkpt lat="45.0398089" lon="7.5230026"><ele>304.0</ele><time>2026-05-03T16:56:01.287Z</time></trkpt><trkpt lat="45.0398652" lon="7.5229477"><ele>304.0</ele><time>2026-05-03T16:56:02.287Z</time></trkpt><trkpt lat="45.0399361" lon="7.5229071"><ele>304.0</ele><time>2026-05-03T16:56:03.288Z</time></trkpt><trkpt lat="45.0400294" lon="7.5228794"><ele>304.0</ele><time>2026-05-03T16:56:04.288Z</time></trkpt><trkpt lat="45.0401239" lon="7.5228591"><ele>304.0</ele><time>2026-05-03T16:56:05.287Z</time></trkpt><trkpt lat="45.040222" lon="7.5228399"><ele>304.0</ele><time>2026-05-03T16:56:06.288Z</time></trkpt><trkpt lat="45.0403245" lon="7.5228202"><ele>304.59999999999997</ele><time>2026-05-03T16:56:07.288Z</time></trkpt><trkpt lat="45.0404305" lon="7.5227957"><ele>305.2</ele><time>2026-05-03T16:56:08.287Z</time></trkpt><trkpt lat="45.0405331" lon="7.5227682"><ele>305.79999999999995</ele><time>2026-05-03T16:56:09.287Z</time></trkpt><trkpt lat="45.0406389" lon="7.5227454"><ele>306.4</ele><time>2026-05-03T16:56:10.287Z</time></trkpt><trkpt lat="45.0407559" lon="7.5227227"><ele>307.0</ele><time>2026-05-03T16:56:11.287Z</time></trkpt><trkpt lat="45.0408705" lon="7.522698"><ele>307.5</ele><time>2026-05-03T16:56:12.287Z</time></trkpt><trkpt lat="45.0409806" lon="7.5226737"><ele>308.0</ele><time>2026-05-03T16:56:13.287Z</time></trkpt><trkpt lat="45.0410971" lon="7.5226532"><ele>308.5</ele><time>2026-05-03T16:56:14.288Z</time></trkpt><trkpt lat="45.0412187" lon="7.5226289"><ele>309.0</ele><time>2026-05-03T16:56:15.287Z</time></trkpt><trkpt lat="45.0413375" lon="7.5226066"><ele>309.0</ele><time>2026-05-03T16:56:16.288Z</time></trkpt><trkpt lat="45.0414601" lon="7.5225807"><ele>309.0</ele><time>2026-05-03T16:56:17.288Z</time></trkpt><trkpt lat="45.0415862" lon="7.5225513"><ele>309.0</ele><time>2026-05-03T16:56:18.287Z</time></trkpt><trkpt lat="45.041706" lon="7.5225254"><ele>309.0</ele><time>2026-05-03T16:56:19.287Z</time></trkpt><trkpt lat="45.0418323" lon="7.5225029"><ele>309.75</ele><time>2026-05-03T16:56:20.289Z</time></trkpt><trkpt lat="45.0419577" lon="7.5224831"><ele>310.5</ele><time>2026-05-03T16:56:21.288Z</time></trkpt><trkpt lat="45.0420822" lon="7.5224565"><ele>311.25</ele><time>2026-05-03T16:56:22.289Z</time></trkpt><trkpt lat="45.0422125" lon="7.5224277"><ele>312.0</ele><time>2026-05-03T16:56:23.287Z</time></trkpt><trkpt lat="45.0423495" lon="7.5223994"><ele>312.5</ele><time>2026-05-03T16:56:24.288Z</time></trkpt><trkpt lat="45.0424789" lon="7.5223741"><ele>313.0</ele><time>2026-05-03T16:56:25.287Z</time></trkpt><trkpt lat="45.0426141" lon="7.522346"><ele>313.5</ele><time>2026-05-03T16:56:26.287Z</time></trkpt><trkpt lat="45.0427473" lon="7.5223155"><ele>314.0</ele><time>2026-05-03T16:56:27.287Z</time></trkpt><trkpt lat="45.0428743" lon="7.522288"><ele>314.0</ele><time>2026-05-03T16:56:28.287Z</time></trkpt><trkpt lat="45.0430016" lon="7.52226"><ele>314.0</ele><time>2026-05-03T16:56:29.287Z</time></trkpt><trkpt lat="45.0431262" lon="7.5222308"><ele>314.0</ele><time>2026-05-03T16:56:30.288Z</time></trkpt><trkpt lat="45.0432528" lon="7.5222039"><ele>314.0</ele><time>2026-05-03T16:56:31.288Z</time></trkpt><trkpt lat="45.0433786" lon="7.5221737"><ele>314.0</ele><time>2026-05-03T16:56:32.287Z</time></trkpt><trkpt lat="45.0435087" lon="7.522152"><ele>314.0</ele><time>2026-05-03T16:56:33.289Z</time></trkpt><trkpt lat="45.0436365" lon="7.5221141"><ele>314.0</ele><time>2026-05-03T16:56:34.288Z</time></trkpt><trkpt lat="45.04376" lon="7.5220873"><ele>314.0</ele><time>2026-05-03T16:56:35.288Z</time></trkpt><trkpt lat="45.0438862" lon="7.5220643"><ele>314.0</ele><time>2026-05-03T16:56:36.288Z</time></trkpt><trkpt lat="45.0440178" lon="7.5220373"><ele>314.0</ele><time>2026-05-03T16:56:37.288Z</time></trkpt><trkpt lat="45.0441538" lon="7.5220102"><ele>314.0</ele><time>2026-05-03T16:56:38.287Z</time></trkpt><trkpt lat="45.0442871" lon="7.5219809"><ele>314.0</ele><time>2026-05-03T16:56:39.288Z</time></trkpt><trkpt lat="45.0444247" lon="7.5219559"><ele>314.0</ele><time>2026-05-03T16:56:40.287Z</time></trkpt><trkpt lat="45.0445674" lon="7.521928"><ele>314.0</ele><time>2026-05-03T16:56:41.289Z</time></trkpt><trkpt lat="45.044709" lon="7.5219036"><ele>314.0</ele><time>2026-05-03T16:56:42.287Z</time></trkpt><trkpt lat="45.044859" lon="7.5218745"><ele>314.0</ele><time>2026-05-03T16:56:43.288Z</time></trkpt><trkpt lat="45.0450171" lon="7.5218437"><ele>314.0</ele><time>2026-05-03T16:56:44.287Z</time></trkpt><trkpt lat="45.0451685" lon="7.5218114"><ele>314.0</ele><time>2026-05-03T16:56:45.286Z</time></trkpt><trkpt lat="45.0453311" lon="7.5217731"><ele>314.0</ele><time>2026-05-03T16:56:46.287Z</time></trkpt><trkpt lat="45.0454859" lon="7.5217451"><ele>314.0</ele><time>2026-05-03T16:56:47.287Z</time></trkpt><trkpt lat="45.0456361" lon="7.5217175"><ele>314.0</ele><time>2026-05-03T16:56:48.287Z</time></trkpt><trkpt lat="45.0457816" lon="7.5216864"><ele>314.0</ele><time>2026-05-03T16:56:49.288Z</time></trkpt><trkpt lat="45.0459279" lon="7.5216543"><ele>314.0</ele><time>2026-05-03T16:56:50.287Z</time></trkpt><trkpt lat="45.0460648" lon="7.5216292"><ele>314.25</ele><time>2026-05-03T16:56:51.288Z</time></trkpt><trkpt lat="45.0461952" lon="7.5215999"><ele>314.5</ele><time>2026-05-03T16:56:52.288Z</time></trkpt><trkpt lat="45.0463188" lon="7.5215724"><ele>314.75</ele><time>2026-05-03T16:56:53.288Z</time></trkpt><trkpt lat="45.0464544" lon="7.5215544"><ele>315.0</ele><time>2026-05-03T16:56:54.287Z</time></trkpt><trkpt lat="45.0465911" lon="7.5215284"><ele>316.0</ele><time>2026-05-03T16:56:55.287Z</time></trkpt><trkpt lat="45.0467323" lon="7.5215016"><ele>317.0</ele><time>2026-05-03T16:56:56.288Z</time></trkpt><trkpt lat="45.0468808" lon="7.5214728"><ele>318.0</ele><time>2026-05-03T16:56:57.287Z</time></trkpt><trkpt lat="45.0470275" lon="7.5214417"><ele>319.0</ele><time>2026-05-03T16:56:58.287Z</time></trkpt><trkpt lat="45.0471787" lon="7.5214098"><ele>319.0</ele><time>2026-05-03T16:56:59.288Z</time></trkpt><trkpt lat="45.0473297" lon="7.5213782"><ele>319.0</ele><time>2026-05-03T16:57:00.287Z</time></trkpt><trkpt lat="45.0474793" lon="7.5213442"><ele>319.0</ele><time>2026-05-03T16:57:01.288Z</time></trkpt><trkpt lat="45.0476352" lon="7.5213104"><ele>318.5</ele><time>2026-05-03T16:57:02.289Z</time></trkpt><trkpt lat="45.0477772" lon="7.5212845"><ele>318.0</ele><time>2026-05-03T16:57:03.288Z</time></trkpt><trkpt lat="45.047918" lon="7.5212533"><ele>317.5</ele><time>2026-05-03T16:57:04.287Z</time></trkpt><trkpt lat="45.0480523" lon="7.521241"><ele>317.0</ele><time>2026-05-03T16:57:05.287Z</time></trkpt><trkpt lat="45.0481908" lon="7.5212158"><ele>317.0</ele><time>2026-05-03T16:57:06.287Z</time></trkpt><trkpt lat="45.0483366" lon="7.5211856"><ele>317.0</ele><time>2026-05-03T16:57:07.288Z</time></trkpt><trkpt lat="45.0484787" lon="7.5211563"><ele>317.0</ele><time>2026-05-03T16:57:08.287Z</time></trkpt><trkpt lat="45.0486239" lon="7.5211276"><ele>317.0</ele><time>2026-05-03T16:57:09.287Z</time></trkpt><trkpt lat="45.0487613" lon="7.5210971"><ele>317.0</ele><time>2026-05-03T16:57:10.287Z</time></trkpt><trkpt lat="45.0489015" lon="7.5210702"><ele>317.0</ele><time>2026-05-03T16:57:11.287Z</time></trkpt><trkpt lat="45.049038" lon="7.5210404"><ele>317.0</ele><time>2026-05-03T16:57:12.287Z</time></trkpt><trkpt lat="45.0491729" lon="7.521009"><ele>317.0</ele><time>2026-05-03T16:57:13.288Z</time></trkpt><trkpt lat="45.0492996" lon="7.5209791"><ele>317.5</ele><time>2026-05-03T16:57:14.287Z</time></trkpt><trkpt lat="45.0494321" lon="7.5209569"><ele>318.0</ele><time>2026-05-03T16:57:15.288Z</time></trkpt><trkpt lat="45.0495531" lon="7.5209281"><ele>318.5</ele><time>2026-05-03T16:57:16.287Z</time></trkpt><trkpt lat="45.0496798" lon="7.5209031"><ele>319.0</ele><time>2026-05-03T16:57:17.287Z</time></trkpt><trkpt lat="45.0497984" lon="7.520877"><ele>319.0</ele><time>2026-05-03T16:57:18.287Z</time></trkpt><trkpt lat="45.0499208" lon="7.5208543"><ele>319.0</ele><time>2026-05-03T16:57:19.288Z</time></trkpt><trkpt lat="45.0500342" lon="7.5208291"><ele>319.0</ele><time>2026-05-03T16:57:20.287Z</time></trkpt><trkpt lat="45.0501547" lon="7.5207951"><ele>319.0</ele><time>2026-05-03T16:57:21.287Z</time></trkpt><trkpt lat="45.0502795" lon="7.5207658"><ele>319.4</ele><time>2026-05-03T16:57:22.288Z</time></trkpt><trkpt lat="45.0504027" lon="7.5207373"><ele>319.79999999999995</ele><time>2026-05-03T16:57:23.288Z</time></trkpt><trkpt lat="45.0505196" lon="7.5207174"><ele>320.20000000000005</ele><time>2026-05-03T16:57:24.289Z</time></trkpt><trkpt lat="45.0506297" lon="7.5206989"><ele>320.6</ele><time>2026-05-03T16:57:25.287Z</time></trkpt><trkpt lat="45.0507193" lon="7.5206869"><ele>321.0</ele><time>2026-05-03T16:57:26.288Z</time></trkpt><trkpt lat="45.0507828" lon="7.5206848"><ele>321.20000000000005</ele><time>2026-05-03T16:57:27.287Z</time></trkpt><trkpt lat="45.0508545" lon="7.520681"><ele>321.40000000000003</ele><time>2026-05-03T16:57:29.287Z</time></trkpt><trkpt lat="45.0509749" lon="7.5206355"><ele>321.6</ele><time>2026-05-03T16:58:17.288Z</time></trkpt><trkpt lat="45.0510697" lon="7.5206235"><ele>321.8</ele><time>2026-05-03T16:58:18.288Z</time></trkpt><trkpt lat="45.051175" lon="7.5206041"><ele>322.0</ele><time>2026-05-03T16:58:19.288Z</time></trkpt><trkpt lat="45.0512929" lon="7.5205861"><ele>322.0</ele><time>2026-05-03T16:58:20.289Z</time></trkpt><trkpt lat="45.0514142" lon="7.5205571"><ele>322.0</ele><time>2026-05-03T16:58:21.286Z</time></trkpt><trkpt lat="45.051544" lon="7.5205262"><ele>322.0</ele><time>2026-05-03T16:58:22.289Z</time></trkpt><trkpt lat="45.0516832" lon="7.5204991"><ele>322.0</ele><time>2026-05-03T16:58:23.286Z</time></trkpt><trkpt lat="45.0518174" lon="7.5204727"><ele>322.0</ele><time>2026-05-03T16:58:24.287Z</time></trkpt><trkpt lat="45.0519548" lon="7.5204416"><ele>322.0</ele><time>2026-05-03T16:58:25.287Z</time></trkpt><trkpt lat="45.0521022" lon="7.5204072"><ele>322.0</ele><time>2026-05-03T16:58:26.286Z</time></trkpt><trkpt lat="45.0522502" lon="7.5203762"><ele>322.0</ele><time>2026-05-03T16:58:27.287Z</time></trkpt><trkpt lat="45.0524029" lon="7.5203509"><ele>322.75</ele><time>2026-05-03T16:58:28.287Z</time></trkpt><trkpt lat="45.0525482" lon="7.520321"><ele>323.5</ele><time>2026-05-03T16:58:29.288Z</time></trkpt><trkpt lat="45.0526998" lon="7.5202903"><ele>324.25</ele><time>2026-05-03T16:58:30.287Z</time></trkpt><trkpt lat="45.0528456" lon="7.5202539"><ele>325.0</ele><time>2026-05-03T16:58:31.288Z</time></trkpt><trkpt lat="45.052996" lon="7.5202204"><ele>325.0</ele><time>2026-05-03T16:58:32.287Z</time></trkpt><trkpt lat="45.0531507" lon="7.5201872"><ele>325.0</ele><time>2026-05-03T16:58:33.287Z</time></trkpt><trkpt lat="45.0532983" lon="7.5201556"><ele>325.0</ele><time>2026-05-03T16:58:34.289Z</time></trkpt><trkpt lat="45.0534517" lon="7.5201208"><ele>328.0</ele><time>2026-05-03T16:58:35.287Z</time></trkpt></trkseg></trk></gpx>